<?xml version='1.0' encoding='UTF-8'?><gpx version="1.1" creator="JPX - https://github.com/jenetics/jpx" xmlns="http://www.topografix.com/GPX/1/1"><trk><trkseg><trkpt lat="42.434570299334816" lon="12.1038215807936"><ele>334.2</ele><time>2026-04-24T14:57:40.999Z</time></trkpt><trkpt lat="42.43467846481032" lon="12.103833095482676"><ele>334.4</ele><time>2026-04-24T14:57:42.999Z</time></trkpt><trkpt lat="42.43479169243751" lon="12.10381111274663"><ele>334.6</ele><time>2026-04-24T14:57:43.999Z</time></trkpt><trkpt lat="42.43487169070452" lon="12.103797942379137"><ele>334.8</ele><time>2026-04-24T14:57:44.999Z</time></trkpt><trkpt lat="42.434962761365" lon="12.103829398938888"><ele>335.0</ele><time>2026-04-24T14:57:45.999Z</time></trkpt><trkpt lat="42.43505282951906" lon="12.1038263631865"><ele>335.0</ele><time>2026-04-24T14:57:46.999Z</time></trkpt><trkpt lat="42.43512913428276" lon="12.103831005284142"><ele>335.0</ele><time>2026-04-24T14:57:47.999Z</time></trkpt><trkpt lat="42.43523591937962" lon="12.103831333494604"><ele>335.0</ele><time>2026-04-24T14:57:48.999Z</time></trkpt><trkpt lat="42.43530393312301" lon="12.103844360632275"><ele>335.0</ele><time>2026-04-24T14:57:49.999Z</time></trkpt><trkpt lat="42.43537149587832" lon="12.103845699689417"><ele>335.0</ele><time>2026-04-24T14:57:50.999Z</time></trkpt><trkpt lat="42.4354784365002" lon="12.103851126644829"><ele>335.0</ele><time>2026-04-24T14:57:51.999Z</time></trkpt><trkpt lat="42.435587523813446" lon="12.103834716333443"><ele>335.0</ele><time>2026-04-24T14:57:52.999Z</time></trkpt><trkpt lat="42.4356814592671" lon="12.103839902564392"><ele>335.0</ele><time>2026-04-24T14:57:53.999Z</time></trkpt><trkpt lat="42.43576620531506" lon="12.103845683548416"><ele>335.0</ele><time>2026-04-24T14:57:54.999Z</time></trkpt><trkpt lat="42.43593617553163" lon="12.103824908545954"><ele>335.0</ele><time>2026-04-24T14:57:56.999Z</time></trkpt><trkpt lat="42.436008572479246" lon="12.103807021201519"><ele>335.0</ele><time>2026-04-24T14:57:57.999Z</time></trkpt><trkpt lat="42.436105362007375" lon="12.103790004842118"><ele>335.0</ele><time>2026-04-24T14:57:58.999Z</time></trkpt><trkpt lat="42.43620841872953" lon="12.103758054464638"><ele>335.0</ele><time>2026-04-24T14:57:59.999Z</time></trkpt><trkpt lat="42.436294387025264" lon="12.103732563845863"><ele>335.0</ele><time>2026-04-24T14:58:00.999Z</time></trkpt><trkpt lat="42.43641697736852" lon="12.103694995921066"><ele>335.0</ele><time>2026-04-24T14:58:01.999Z</time></trkpt><trkpt lat="42.43652560426525" lon="12.103661542195212"><ele>335.0</ele><time>2026-04-24T14:58:02.999Z</time></trkpt><trkpt lat="42.43663939377344" lon="12.10362651268745"><ele>335.0</ele><time>2026-04-24T14:58:03.999Z</time></trkpt><trkpt lat="42.43672071281113" lon="12.103586859139488"><ele>335.0</ele><time>2026-04-24T14:58:04.999Z</time></trkpt><trkpt lat="42.436822536939296" lon="12.103550758825357"><ele>335.0</ele><time>2026-04-24T14:58:05.999Z</time></trkpt><trkpt lat="42.43690465013701" lon="12.103521489252284"><ele>335.0</ele><time>2026-04-24T14:58:06.999Z</time></trkpt><trkpt lat="42.436987372176674" lon="12.10349812189531"><ele>335.0</ele><time>2026-04-24T14:58:07.999Z</time></trkpt><trkpt lat="42.437079025973595" lon="12.1034682507076"><ele>335.0</ele><time>2026-04-24T14:58:08.999Z</time></trkpt><trkpt lat="42.43719132696915" lon="12.1034153990421"><ele>335.0</ele><time>2026-04-24T14:58:10.999Z</time></trkpt><trkpt lat="42.437261250447925" lon="12.103394925911982"><ele>335.0</ele><time>2026-04-24T14:58:11.999Z</time></trkpt><trkpt lat="42.43733666212021" lon="12.103377066202604"><ele>335.0</ele><time>2026-04-24T14:58:12.999Z</time></trkpt><trkpt lat="42.43744141381375" lon="12.103414656149257"><ele>335.0</ele><time>2026-04-24T14:58:14.999Z</time></trkpt><trkpt lat="42.43751479434007" lon="12.103455877825407"><ele>335.0</ele><time>2026-04-24T14:58:15.999Z</time></trkpt><trkpt lat="42.437572753384394" lon="12.103491863959908"><ele>335.0</ele><time>2026-04-24T14:58:16.999Z</time></trkpt><trkpt lat="42.437687972311906" lon="12.103520838477985"><ele>335.0</ele><time>2026-04-24T14:58:18.999Z</time></trkpt><trkpt lat="42.437773045010054" lon="12.103401326626544"><ele>335.0</ele><time>2026-04-24T14:58:20.999Z</time></trkpt><trkpt lat="42.43777329368496" lon="12.103305407567877"><ele>335.0</ele><time>2026-04-24T14:58:21.999Z</time></trkpt><trkpt lat="42.43775269779974" lon="12.103196868906421"><ele>335.0</ele><time>2026-04-24T14:58:22.999Z</time></trkpt><trkpt lat="42.4376945453935" lon="12.103063592298724"><ele>335.0</ele><time>2026-04-24T14:58:24.999Z</time></trkpt><trkpt lat="42.43757805287701" lon="12.103005437703922"><ele>335.0</ele><time>2026-04-24T14:58:26.999Z</time></trkpt><trkpt lat="42.437475272861306" lon="12.103074625402517"><ele>335.0</ele><time>2026-04-24T14:58:28.999Z</time></trkpt><trkpt lat="42.43741790834904" lon="12.103115074099087"><ele>335.0</ele><time>2026-04-24T14:58:29.999Z</time></trkpt><trkpt lat="42.43735904617218" lon="12.103326984051234"><ele>335.0</ele><time>2026-04-24T14:58:31.999Z</time></trkpt><trkpt lat="42.437339814529935" lon="12.103457424140815"><ele>335.0</ele><time>2026-04-24T14:58:32.999Z</time></trkpt><trkpt lat="42.43717494618347" lon="12.103387426982632"><ele>335.0</ele><time>2026-04-24T14:58:33.999Z</time></trkpt><trkpt lat="42.43705959363651" lon="12.103425396005752"><ele>335.0</ele><time>2026-04-24T14:58:34.999Z</time></trkpt><trkpt lat="42.43693167502819" lon="12.103442007676675"><ele>335.0</ele><time>2026-04-24T14:58:35.999Z</time></trkpt><trkpt lat="42.43681979663692" lon="12.103451114594609"><ele>335.0</ele><time>2026-04-24T14:58:36.999Z</time></trkpt><trkpt lat="42.436696441873174" lon="12.103516429799487"><ele>335.0</ele><time>2026-04-24T14:58:37.999Z</time></trkpt><trkpt lat="42.4365935039796" lon="12.103551494436063"><ele>335.0</ele><time>2026-04-24T14:58:38.999Z</time></trkpt><trkpt lat="42.43650456414435" lon="12.103587859558553"><ele>335.0</ele><time>2026-04-24T14:58:39.999Z</time></trkpt><trkpt lat="42.43641416663336" lon="12.103628861607076"><ele>335.0</ele><time>2026-04-24T14:58:40.999Z</time></trkpt><trkpt lat="42.436345854667834" lon="12.1036664884285"><ele>335.0</ele><time>2026-04-24T14:58:41.999Z</time></trkpt><trkpt lat="42.43627177333595" lon="12.103694785872381"><ele>335.0</ele><time>2026-04-24T14:58:42.999Z</time></trkpt><trkpt lat="42.43617113859412" lon="12.10371178068556"><ele>335.0</ele><time>2026-04-24T14:58:43.999Z</time></trkpt><trkpt lat="42.43604984667577" lon="12.103744240038411"><ele>335.0</ele><time>2026-04-24T14:58:44.999Z</time></trkpt><trkpt lat="42.43593793912455" lon="12.103759840472136"><ele>335.0</ele><time>2026-04-24T14:58:45.999Z</time></trkpt><trkpt lat="42.43583493339463" lon="12.103769496084793"><ele>335.0</ele><time>2026-04-24T14:58:46.999Z</time></trkpt><trkpt lat="42.43574387387998" lon="12.103757363515061"><ele>335.0</ele><time>2026-04-24T14:58:47.999Z</time></trkpt><trkpt lat="42.43564325441269" lon="12.103754600933076"><ele>335.0</ele><time>2026-04-24T14:58:48.999Z</time></trkpt><trkpt lat="42.435546175169726" lon="12.10375567009165"><ele>335.0</ele><time>2026-04-24T14:58:49.999Z</time></trkpt><trkpt lat="42.4354524740211" lon="12.103758130157697"><ele>335.0</ele><time>2026-04-24T14:58:50.999Z</time></trkpt><trkpt lat="42.435368068643776" lon="12.103759894737975"><ele>335.0</ele><time>2026-04-24T14:58:51.999Z</time></trkpt><trkpt lat="42.43528174457601" lon="12.103758712171848"><ele>335.0</ele><time>2026-04-24T14:58:52.999Z</time></trkpt><trkpt lat="42.43519709455563" lon="12.103765528032994"><ele>335.0</ele><time>2026-04-24T14:58:53.999Z</time></trkpt><trkpt lat="42.43513384437728" lon="12.103762893384413"><ele>335.0</ele><time>2026-04-24T14:58:54.999Z</time></trkpt><trkpt lat="42.43501722638621" lon="12.10378200558941"><ele>335.0</ele><time>2026-04-24T14:58:56.999Z</time></trkpt><trkpt lat="42.434880837569125" lon="12.103771529787767"><ele>335.0</ele><time>2026-04-24T14:58:58.999Z</time></trkpt><trkpt lat="42.43475894301482" lon="12.10375629926172"><ele>335.0</ele><time>2026-04-24T14:58:59.999Z</time></trkpt><trkpt lat="42.434656789979336" lon="12.103755608771012"><ele>335.0</ele><time>2026-04-24T14:59:00.999Z</time></trkpt><trkpt lat="42.434592542480985" lon="12.103739571211895"><ele>335.0</ele><time>2026-04-24T14:59:01.999Z</time></trkpt><trkpt lat="42.434516084334135" lon="12.10373032983788"><ele>335.0</ele><time>2026-04-24T14:59:02.999Z</time></trkpt><trkpt lat="42.434432256325216" lon="12.103729148872516"><ele>334.8</ele><time>2026-04-24T14:59:03.999Z</time></trkpt><trkpt lat="42.4343286514739" lon="12.103743119668815"><ele>334.6</ele><time>2026-04-24T14:59:04.999Z</time></trkpt><trkpt lat="42.43423169127363" lon="12.103744389700946"><ele>334.4</ele><time>2026-04-24T14:59:05.999Z</time></trkpt><trkpt lat="42.434164135981106" lon="12.10374752008171"><ele>334.2</ele><time>2026-04-24T14:59:06.999Z</time></trkpt><trkpt lat="42.43409167259084" lon="12.10374468286382"><ele>334.0</ele><time>2026-04-24T14:59:07.999Z</time></trkpt><trkpt lat="42.43398061578099" lon="12.103780993767625"><ele>334.0</ele><time>2026-04-24T14:59:09.999Z</time></trkpt><trkpt lat="42.43385936740793" lon="12.10379846923184"><ele>334.0</ele><time>2026-04-24T14:59:11.999Z</time></trkpt><trkpt lat="42.43379223920063" lon="12.103804950507794"><ele>334.0</ele><time>2026-04-24T14:59:12.999Z</time></trkpt><trkpt lat="42.43371831878382" lon="12.10381961362231"><ele>334.0</ele><time>2026-04-24T14:59:13.999Z</time></trkpt><trkpt lat="42.433644042230334" lon="12.10385237243733"><ele>334.0</ele><time>2026-04-24T14:59:14.999Z</time></trkpt><trkpt lat="42.43357952601542" lon="12.103882097650887"><ele>334.0</ele><time>2026-04-24T14:59:15.999Z</time></trkpt><trkpt lat="42.43348210576335" lon="12.103925211490646"><ele>334.2857142857143</ele><time>2026-04-24T14:59:17.999Z</time></trkpt><trkpt lat="42.43341282035267" lon="12.103971936050366"><ele>334.57142857142856</ele><time>2026-04-24T14:59:18.999Z</time></trkpt><trkpt lat="42.43334516195879" lon="12.103976007350354"><ele>334.8571428571429</ele><time>2026-04-24T14:59:19.999Z</time></trkpt><trkpt lat="42.43328504572143" lon="12.104011217745485"><ele>335.1428571428571</ele><time>2026-04-24T14:59:20.999Z</time></trkpt><trkpt lat="42.43320814196498" lon="12.104036414999152"><ele>335.42857142857144</ele><time>2026-04-24T14:59:21.999Z</time></trkpt><trkpt lat="42.43314091676021" lon="12.104053252363622"><ele>335.7142857142857</ele><time>2026-04-24T14:59:22.999Z</time></trkpt><trkpt lat="42.43305810897278" lon="12.104097579892052"><ele>336.0</ele><time>2026-04-24T14:59:24.999Z</time></trkpt><trkpt lat="42.43299829031642" lon="12.10413480595542"><ele>336.20000000000005</ele><time>2026-04-24T14:59:25.999Z</time></trkpt><trkpt lat="42.432911125193286" lon="12.104183920070136"><ele>336.40000000000003</ele><time>2026-04-24T14:59:26.999Z</time></trkpt><trkpt lat="42.432805711547225" lon="12.104239503849293"><ele>336.6</ele><time>2026-04-24T14:59:27.999Z</time></trkpt><trkpt lat="42.432697266039085" lon="12.104297255405484"><ele>336.8</ele><time>2026-04-24T14:59:28.999Z</time></trkpt><trkpt lat="42.43260465673696" lon="12.104348688263835"><ele>337.0</ele><time>2026-04-24T14:59:29.999Z</time></trkpt><trkpt lat="42.432521933730136" lon="12.1043765042082"><ele>337.0</ele><time>2026-04-24T14:59:30.999Z</time></trkpt><trkpt lat="42.43244330844191" lon="12.104413518601017"><ele>337.0</ele><time>2026-04-24T14:59:31.999Z</time></trkpt><trkpt lat="42.43230790577135" lon="12.104474290424236"><ele>337.0</ele><time>2026-04-24T14:59:33.999Z</time></trkpt><trkpt lat="42.43222766516352" lon="12.104496308958495"><ele>337.0</ele><time>2026-04-24T14:59:34.999Z</time></trkpt><trkpt lat="42.4321462202974" lon="12.104521322597387"><ele>337.0</ele><time>2026-04-24T14:59:35.999Z</time></trkpt><trkpt lat="42.43205822308138" lon="12.104551318471302"><ele>336.8</ele><time>2026-04-24T14:59:36.999Z</time></trkpt><trkpt lat="42.431955679431915" lon="12.104579450545998"><ele>336.6</ele><time>2026-04-24T14:59:37.999Z</time></trkpt><trkpt lat="42.43187103412378" lon="12.104606522014194"><ele>336.40000000000003</ele><time>2026-04-24T14:59:38.999Z</time></trkpt><trkpt lat="42.43178502201615" lon="12.104645029231069"><ele>336.20000000000005</ele><time>2026-04-24T14:59:39.999Z</time></trkpt><trkpt lat="42.431692223025635" lon="12.10468271687207"><ele>336.0</ele><time>2026-04-24T14:59:40.999Z</time></trkpt><trkpt lat="42.43161278646276" lon="12.104716864111952"><ele>336.0</ele><time>2026-04-24T14:59:41.999Z</time></trkpt><trkpt lat="42.431532935738694" lon="12.104744045835272"><ele>336.0</ele><time>2026-04-24T14:59:42.999Z</time></trkpt><trkpt lat="42.43142602336129" lon="12.104778250651817"><ele>336.0</ele><time>2026-04-24T14:59:44.999Z</time></trkpt><trkpt lat="42.43135050538424" lon="12.104802801125139"><ele>336.0</ele><time>2026-04-24T14:59:46.999Z</time></trkpt><trkpt lat="42.431266600870195" lon="12.104857213768856"><ele>336.0</ele><time>2026-04-24T14:59:49.999Z</time></trkpt><trkpt lat="42.43119282698802" lon="12.104852828218412"><ele>336.0</ele><time>2026-04-24T14:59:51.999Z</time></trkpt><trkpt lat="42.43111516765462" lon="12.104872841611101"><ele>336.5</ele><time>2026-04-24T14:59:52.999Z</time></trkpt><trkpt lat="42.430994165689135" lon="12.10489681683573"><ele>337.0</ele><time>2026-04-24T14:59:54Z</time></trkpt><trkpt lat="42.4308838264417" lon="12.104962378140785"><ele>337.5</ele><time>2026-04-24T14:59:55Z</time></trkpt><trkpt lat="42.430758230580125" lon="12.105011240390098"><ele>338.0</ele><time>2026-04-24T14:59:56Z</time></trkpt><trkpt lat="42.43065016069631" lon="12.10504638806568"><ele>338.0</ele><time>2026-04-24T14:59:57Z</time></trkpt><trkpt lat="42.43052813331241" lon="12.105099029343252"><ele>338.0</ele><time>2026-04-24T14:59:58Z</time></trkpt><trkpt lat="42.43041716904558" lon="12.10513926286863"><ele>338.0</ele><time>2026-04-24T14:59:59Z</time></trkpt><trkpt lat="42.43032054696438" lon="12.10517203490686"><ele>338.0</ele><time>2026-04-24T15:00:00Z</time></trkpt><trkpt lat="42.430254420662436" lon="12.105200720355779"><ele>338.0</ele><time>2026-04-24T15:00:01Z</time></trkpt><trkpt lat="42.430175156988994" lon="12.105232157543805"><ele>338.33333333333337</ele><time>2026-04-24T15:00:02Z</time></trkpt><trkpt lat="42.430115055203004" lon="12.105260586434223"><ele>338.6666666666667</ele><time>2026-04-24T15:00:03Z</time></trkpt><trkpt lat="42.43002989313914" lon="12.105281495756726"><ele>339.0</ele><time>2026-04-24T15:00:05Z</time></trkpt><trkpt lat="42.42996022663738" lon="12.105271766990155"><ele>339.3333333333333</ele><time>2026-04-24T15:00:07Z</time></trkpt><trkpt lat="42.43000712637228" lon="12.10519170956099"><ele>339.66666666666663</ele><time>2026-04-24T15:00:09Z</time></trkpt><trkpt lat="42.43009914080406" lon="12.105137842394642"><ele>340.0</ele><time>2026-04-24T15:00:13Z</time></trkpt><trkpt lat="42.43008125570428" lon="12.105016066084115"><ele>340.0</ele><time>2026-04-24T15:00:15Z</time></trkpt><trkpt lat="42.43024205158221" lon="12.105084302277486"><ele>340.0</ele><time>2026-04-24T15:00:16Z</time></trkpt><trkpt lat="42.430311159251964" lon="12.105157509187052"><ele>340.0</ele><time>2026-04-24T15:00:18Z</time></trkpt><trkpt lat="42.43038562548234" lon="12.105182199564005"><ele>340.0</ele><time>2026-04-24T15:00:20Z</time></trkpt><trkpt lat="42.430460117710965" lon="12.105168989227764"><ele>340.0</ele><time>2026-04-24T15:00:22Z</time></trkpt><trkpt lat="42.43053214792264" lon="12.105164663774277"><ele>339.6</ele><time>2026-04-24T15:00:23Z</time></trkpt><trkpt lat="42.43061904736016" lon="12.105127097290088"><ele>339.2</ele><time>2026-04-24T15:00:24Z</time></trkpt><trkpt lat="42.430673598194474" lon="12.105077851873979"><ele>338.79999999999995</ele><time>2026-04-24T15:00:25Z</time></trkpt><trkpt lat="42.430765969051095" lon="12.105069919183508"><ele>338.4</ele><time>2026-04-24T15:00:26Z</time></trkpt><trkpt lat="42.4308274902324" lon="12.105018659276805"><ele>338.0</ele><time>2026-04-24T15:00:27Z</time></trkpt><trkpt lat="42.43096110974848" lon="12.104997325231526"><ele>338.0</ele><time>2026-04-24T15:00:29Z</time></trkpt><trkpt lat="42.43102718029663" lon="12.104970797952788"><ele>338.0</ele><time>2026-04-24T15:00:30Z</time></trkpt><trkpt lat="42.43110373541732" lon="12.104942652426514"><ele>338.0</ele><time>2026-04-24T15:00:31Z</time></trkpt><trkpt lat="42.43117011945114" lon="12.104917547946213"><ele>338.0</ele><time>2026-04-24T15:00:32Z</time></trkpt><trkpt lat="42.431261801927945" lon="12.104858720145435"><ele>338.0</ele><time>2026-04-24T15:00:35Z</time></trkpt><trkpt lat="42.43123093459096" lon="12.10474893484764"><ele>338.0</ele><time>2026-04-24T15:00:37Z</time></trkpt><trkpt lat="42.431241048588085" lon="12.104631516848254"><ele>338.0</ele><time>2026-04-24T15:00:40Z</time></trkpt><trkpt lat="42.43124638786407" lon="12.104485450139284"><ele>338.0</ele><time>2026-04-24T15:00:42Z</time></trkpt><trkpt lat="42.43126457205187" lon="12.104373644599711"><ele>338.0</ele><time>2026-04-24T15:00:43Z</time></trkpt><trkpt lat="42.43133707742987" lon="12.104311321789902"><ele>338.0</ele><time>2026-04-24T15:00:44Z</time></trkpt><trkpt lat="42.43140588838565" lon="12.10421531074922"><ele>338.0</ele><time>2026-04-24T15:00:45Z</time></trkpt><trkpt lat="42.431465603099255" lon="12.10414440870775"><ele>337.6666666666667</ele><time>2026-04-24T15:00:46Z</time></trkpt><trkpt lat="42.43152135867207" lon="12.104095605699591"><ele>337.33333333333337</ele><time>2026-04-24T15:00:48Z</time></trkpt><trkpt lat="42.43158247943882" lon="12.104051726765492"><ele>337.0</ele><time>2026-04-24T15:00:49Z</time></trkpt><trkpt lat="42.431678102179234" lon="12.103999155833948"><ele>336.6666666666667</ele><time>2026-04-24T15:00:51Z</time></trkpt><trkpt lat="42.43177961073373" lon="12.103950915658878"><ele>336.3333333333333</ele><time>2026-04-24T15:00:53Z</time></trkpt><trkpt lat="42.43185203321462" lon="12.10392262597315"><ele>336.0</ele><time>2026-04-24T15:00:54Z</time></trkpt><trkpt lat="42.43191478419747" lon="12.103950117751229"><ele>336.0</ele><time>2026-04-24T15:00:55Z</time></trkpt><trkpt lat="42.43199517035581" lon="12.104012407903193"><ele>336.0</ele><time>2026-04-24T15:00:56Z</time></trkpt><trkpt lat="42.43205040705404" lon="12.104099393814744"><ele>336.0</ele><time>2026-04-24T15:00:58Z</time></trkpt><trkpt lat="42.43205914513258" lon="12.104185392114411"><ele>336.0</ele><time>2026-04-24T15:00:59Z</time></trkpt><trkpt lat="42.43209073315458" lon="12.104299087244902"><ele>336.0</ele><time>2026-04-24T15:01:01Z</time></trkpt><trkpt lat="42.432123455057734" lon="12.104388786407947"><ele>336.0</ele><time>2026-04-24T15:01:02Z</time></trkpt><trkpt lat="42.432174747369714" lon="12.104514834859042"><ele>336.20000000000005</ele><time>2026-04-24T15:01:03Z</time></trkpt><trkpt lat="42.43222613656083" lon="12.104640380764877"><ele>336.40000000000003</ele><time>2026-04-24T15:01:04Z</time></trkpt><trkpt lat="42.43226751056" lon="12.104758031334043"><ele>336.6</ele><time>2026-04-24T15:01:05Z</time></trkpt><trkpt lat="42.43231019909872" lon="12.104876116246645"><ele>336.8</ele><time>2026-04-24T15:01:06Z</time></trkpt><trkpt lat="42.432375643937746" lon="12.10502305743053"><ele>337.0</ele><time>2026-04-24T15:01:07Z</time></trkpt><trkpt lat="42.43237558651029" lon="12.10522216562444"><ele>337.0</ele><time>2026-04-24T15:01:08Z</time></trkpt><trkpt lat="42.43240280883312" lon="12.105367008970877"><ele>337.0</ele><time>2026-04-24T15:01:09Z</time></trkpt><trkpt lat="42.43244158917407" lon="12.105509367199021"><ele>337.0</ele><time>2026-04-24T15:01:10Z</time></trkpt><trkpt lat="42.432454381202945" lon="12.105671746872362"><ele>337.0</ele><time>2026-04-24T15:01:11Z</time></trkpt><trkpt lat="42.43245744813748" lon="12.105825071875994"><ele>337.25</ele><time>2026-04-24T15:01:12Z</time></trkpt><trkpt lat="42.43247082420284" lon="12.105989167674595"><ele>337.5</ele><time>2026-04-24T15:01:13Z</time></trkpt><trkpt lat="42.432465680785384" lon="12.106136132114232"><ele>337.75</ele><time>2026-04-24T15:01:14Z</time></trkpt><trkpt lat="42.432465306580795" lon="12.106308805441971"><ele>338.0</ele><time>2026-04-24T15:01:15Z</time></trkpt><trkpt lat="42.43245158296182" lon="12.106461414114252"><ele>338.25</ele><time>2026-04-24T15:01:16Z</time></trkpt><trkpt lat="42.432450869921354" lon="12.106662681758161"><ele>338.5</ele><time>2026-04-24T15:01:17Z</time></trkpt><trkpt lat="42.432432068175125" lon="12.106828261201372"><ele>338.75</ele><time>2026-04-24T15:01:18Z</time></trkpt><trkpt lat="42.43241721640173" lon="12.106966578371273"><ele>339.0</ele><time>2026-04-24T15:01:19Z</time></trkpt><trkpt lat="42.43241275894245" lon="12.107112891913"><ele>339.0</ele><time>2026-04-24T15:01:20Z</time></trkpt><trkpt lat="42.432407527455474" lon="12.10726762230785"><ele>339.0</ele><time>2026-04-24T15:01:21Z</time></trkpt><trkpt lat="42.43240426789482" lon="12.107409378596566"><ele>339.0</ele><time>2026-04-24T15:01:22Z</time></trkpt><trkpt lat="42.43239969886109" lon="12.107559717973464"><ele>339.0</ele><time>2026-04-24T15:01:23Z</time></trkpt><trkpt lat="42.43240333886467" lon="12.107719959153263"><ele>339.0</ele><time>2026-04-24T15:01:24Z</time></trkpt><trkpt lat="42.432400128624636" lon="12.107864834650332"><ele>339.25</ele><time>2026-04-24T15:01:25Z</time></trkpt><trkpt lat="42.432407010165115" lon="12.108037035946023"><ele>339.5</ele><time>2026-04-24T15:01:26Z</time></trkpt><trkpt lat="42.432398415924716" lon="12.108190186434268"><ele>339.75</ele><time>2026-04-24T15:01:27Z</time></trkpt><trkpt lat="42.4323849406633" lon="12.108343379448725"><ele>340.0</ele><time>2026-04-24T15:01:28Z</time></trkpt><trkpt lat="42.432366011089094" lon="12.108523313050439"><ele>340.3333333333333</ele><time>2026-04-24T15:01:29Z</time></trkpt><trkpt lat="42.43234374284595" lon="12.108719114748432"><ele>340.6666666666667</ele><time>2026-04-24T15:01:30Z</time></trkpt><trkpt lat="42.4323257805316" lon="12.108940290180053"><ele>341.0</ele><time>2026-04-24T15:01:31Z</time></trkpt><trkpt lat="42.43229966686319" lon="12.109131207310194"><ele>342.0</ele><time>2026-04-24T15:01:32Z</time></trkpt><trkpt lat="42.432254562134844" lon="12.109310905442536"><ele>343.0</ele><time>2026-04-24T15:01:33Z</time></trkpt><trkpt lat="42.43226257461824" lon="12.109483758262623"><ele>344.0</ele><time>2026-04-24T15:01:34Z</time></trkpt><trkpt lat="42.43223087682078" lon="12.109654434313809"><ele>345.0</ele><time>2026-04-24T15:01:35Z</time></trkpt><trkpt lat="42.432197562943614" lon="12.109823181198111"><ele>345.25</ele><time>2026-04-24T15:01:36Z</time></trkpt><trkpt lat="42.43216524397688" lon="12.1099852334087"><ele>345.5</ele><time>2026-04-24T15:01:37Z</time></trkpt><trkpt lat="42.43212153310412" lon="12.110139358743274"><ele>345.75</ele><time>2026-04-24T15:01:38Z</time></trkpt><trkpt lat="42.432072467256894" lon="12.110288635097096"><ele>346.0</ele><time>2026-04-24T15:01:39Z</time></trkpt><trkpt lat="42.43202437282737" lon="12.110438242896654"><ele>346.0</ele><time>2026-04-24T15:01:40Z</time></trkpt><trkpt lat="42.43198850774816" lon="12.110605678328644"><ele>346.0</ele><time>2026-04-24T15:01:41Z</time></trkpt><trkpt lat="42.4319443379847" lon="12.110762557413713"><ele>346.0</ele><time>2026-04-24T15:01:42Z</time></trkpt><trkpt lat="42.43190235161368" lon="12.11092821033023"><ele>346.0</ele><time>2026-04-24T15:01:43Z</time></trkpt><trkpt lat="42.43185309793155" lon="12.111107853941764"><ele>346.3333333333333</ele><time>2026-04-24T15:01:44Z</time></trkpt><trkpt lat="42.431765975105705" lon="12.111304807541678"><ele>346.6666666666667</ele><time>2026-04-24T15:01:45Z</time></trkpt><trkpt lat="42.431672825162124" lon="12.111511594124401"><ele>347.0</ele><time>2026-04-24T15:01:46Z</time></trkpt><trkpt lat="42.43160489975579" lon="12.111704835655498"><ele>347.5</ele><time>2026-04-24T15:01:47Z</time></trkpt><trkpt lat="42.43155048731513" lon="12.111900983916813"><ele>348.0</ele><time>2026-04-24T15:01:48Z</time></trkpt><trkpt lat="42.43148682820027" lon="12.112077991317626"><ele>348.5</ele><time>2026-04-24T15:01:49Z</time></trkpt><trkpt lat="42.43141008955041" lon="12.112251024078898"><ele>349.0</ele><time>2026-04-24T15:01:50Z</time></trkpt><trkpt lat="42.431335897151094" lon="12.112426793039718"><ele>350.0</ele><time>2026-04-24T15:01:51Z</time></trkpt><trkpt lat="42.431261633765686" lon="12.112606971595612"><ele>351.0</ele><time>2026-04-24T15:01:52Z</time></trkpt><trkpt lat="42.43117973352471" lon="12.112833500533448"><ele>352.0</ele><time>2026-04-24T15:01:53Z</time></trkpt><trkpt lat="42.4311123614997" lon="12.113001759935239"><ele>352.0</ele><time>2026-04-24T15:01:54Z</time></trkpt><trkpt lat="42.43102952664043" lon="12.113137629672698"><ele>352.0</ele><time>2026-04-24T15:01:55Z</time></trkpt><trkpt lat="42.430954985608096" lon="12.11331380767026"><ele>352.0</ele><time>2026-04-24T15:01:56Z</time></trkpt><trkpt lat="42.430882597196124" lon="12.113462815388395"><ele>352.0</ele><time>2026-04-24T15:01:57Z</time></trkpt><trkpt lat="42.430790163636395" lon="12.11361845468621"><ele>352.0</ele><time>2026-04-24T15:01:58Z</time></trkpt><trkpt lat="42.430682129269854" lon="12.113763013083634"><ele>352.0</ele><time>2026-04-24T15:01:59Z</time></trkpt><trkpt lat="42.43057748030361" lon="12.113910175391485"><ele>352.0</ele><time>2026-04-24T15:02:00Z</time></trkpt><trkpt lat="42.43046353593166" lon="12.114072485253304"><ele>353.0</ele><time>2026-04-24T15:02:01Z</time></trkpt><trkpt lat="42.430347839408036" lon="12.11421078138495"><ele>354.0</ele><time>2026-04-24T15:02:02Z</time></trkpt><trkpt lat="42.430225942078074" lon="12.114339353910491"><ele>355.0</ele><time>2026-04-24T15:02:03Z</time></trkpt><trkpt lat="42.43009683718653" lon="12.114458931350091"><ele>355.0</ele><time>2026-04-24T15:02:04Z</time></trkpt><trkpt lat="42.42995858091742" lon="12.114593341057445"><ele>355.0</ele><time>2026-04-24T15:02:05Z</time></trkpt><trkpt lat="42.42983120398584" lon="12.11473985639974"><ele>355.0</ele><time>2026-04-24T15:02:06Z</time></trkpt><trkpt lat="42.4297107309793" lon="12.114877418974958"><ele>356.0</ele><time>2026-04-24T15:02:07Z</time></trkpt><trkpt lat="42.42958344680235" lon="12.115004962969543"><ele>357.0</ele><time>2026-04-24T15:02:08Z</time></trkpt><trkpt lat="42.4294672066965" lon="12.115106398916067"><ele>358.0</ele><time>2026-04-24T15:02:09Z</time></trkpt><trkpt lat="42.429362147523136" lon="12.11525485511965"><ele>359.0</ele><time>2026-04-24T15:02:10Z</time></trkpt><trkpt lat="42.42926286910171" lon="12.115394456764093"><ele>359.0</ele><time>2026-04-24T15:02:11Z</time></trkpt><trkpt lat="42.429157899965546" lon="12.115532210949057"><ele>359.0</ele><time>2026-04-24T15:02:12Z</time></trkpt><trkpt lat="42.429057291491844" lon="12.115650330859173"><ele>359.0</ele><time>2026-04-24T15:02:13Z</time></trkpt><trkpt lat="42.42895397935488" lon="12.11576824780436"><ele>359.0</ele><time>2026-04-24T15:02:14Z</time></trkpt><trkpt lat="42.428856060867595" lon="12.115891276311265"><ele>360.75</ele><time>2026-04-24T15:02:15Z</time></trkpt><trkpt lat="42.42876409020196" lon="12.115989928783984"><ele>362.5</ele><time>2026-04-24T15:02:16Z</time></trkpt><trkpt lat="42.42867976251563" lon="12.116104566518112"><ele>364.25</ele><time>2026-04-24T15:02:17Z</time></trkpt><trkpt lat="42.428598727936716" lon="12.11621198952607"><ele>366.0</ele><time>2026-04-24T15:02:18Z</time></trkpt><trkpt lat="42.42850856971429" lon="12.11632286419913"><ele>366.0</ele><time>2026-04-24T15:02:19Z</time></trkpt><trkpt lat="42.428420759892894" lon="12.116433366797141"><ele>366.0</ele><time>2026-04-24T15:02:20Z</time></trkpt><trkpt lat="42.428332716450925" lon="12.116547267911894"><ele>366.0</ele><time>2026-04-24T15:02:21Z</time></trkpt><trkpt lat="42.42824821945218" lon="12.11666420996334"><ele>366.0</ele><time>2026-04-24T15:02:22Z</time></trkpt><trkpt lat="42.42816968166986" lon="12.116782083387257"><ele>364.75</ele><time>2026-04-24T15:02:23Z</time></trkpt><trkpt lat="42.428091633297846" lon="12.116897383272807"><ele>363.5</ele><time>2026-04-24T15:02:24Z</time></trkpt><trkpt lat="42.428021836026886" lon="12.117012885968851"><ele>362.25</ele><time>2026-04-24T15:02:25Z</time></trkpt><trkpt lat="42.42795437028999" lon="12.117135630475374"><ele>361.0</ele><time>2026-04-24T15:02:26Z</time></trkpt><trkpt lat="42.427883394080084" lon="12.117267751947022"><ele>361.75</ele><time>2026-04-24T15:02:27Z</time></trkpt><trkpt lat="42.427813066843406" lon="12.11740351190852"><ele>362.5</ele><time>2026-04-24T15:02:28Z</time></trkpt><trkpt lat="42.42773718657884" lon="12.117537322834133"><ele>363.25</ele><time>2026-04-24T15:02:29Z</time></trkpt><trkpt lat="42.42765603804517" lon="12.117654406255644"><ele>364.0</ele><time>2026-04-24T15:02:30Z</time></trkpt><trkpt lat="42.42758989200066" lon="12.117762945218756"><ele>364.0</ele><time>2026-04-24T15:02:31Z</time></trkpt><trkpt lat="42.42751347493208" lon="12.117897301406298"><ele>364.0</ele><time>2026-04-24T15:02:32Z</time></trkpt><trkpt lat="42.42740467341189" lon="12.118001865763503"><ele>364.0</ele><time>2026-04-24T15:02:33Z</time></trkpt><trkpt lat="42.42730124238126" lon="12.118106941954338"><ele>364.0</ele><time>2026-04-24T15:02:34Z</time></trkpt><trkpt lat="42.42717891851189" lon="12.118224227671268"><ele>364.75</ele><time>2026-04-24T15:02:35Z</time></trkpt><trkpt lat="42.42706443901213" lon="12.118302158984445"><ele>365.5</ele><time>2026-04-24T15:02:36Z</time></trkpt><trkpt lat="42.42693028187833" lon="12.118387811353813"><ele>366.25</ele><time>2026-04-24T15:02:37Z</time></trkpt><trkpt lat="42.42686899804307" lon="12.118422345121642"><ele>367.0</ele><time>2026-04-24T15:02:38Z</time></trkpt><trkpt lat="42.42674144832008" lon="12.118486317237105"><ele>367.0</ele><time>2026-04-24T15:02:39Z</time></trkpt><trkpt lat="42.42661738711688" lon="12.118544320603114"><ele>367.0</ele><time>2026-04-24T15:02:40Z</time></trkpt><trkpt lat="42.426481625958324" lon="12.118607242713598"><ele>367.0</ele><time>2026-04-24T15:02:41Z</time></trkpt><trkpt lat="42.42634556590816" lon="12.118670785823191"><ele>367.0</ele><time>2026-04-24T15:02:42Z</time></trkpt><trkpt lat="42.4262202898851" lon="12.11873137776117"><ele>368.25</ele><time>2026-04-24T15:02:43Z</time></trkpt><trkpt lat="42.426100481724106" lon="12.118760711625107"><ele>369.5</ele><time>2026-04-24T15:02:44Z</time></trkpt><trkpt lat="42.42598230939165" lon="12.118821144757817"><ele>370.75</ele><time>2026-04-24T15:02:45Z</time></trkpt><trkpt lat="42.42586718802177" lon="12.11885101128999"><ele>372.0</ele><time>2026-04-24T15:02:46Z</time></trkpt><trkpt lat="42.425754668624" lon="12.118900638877994"><ele>372.0</ele><time>2026-04-24T15:02:47Z</time></trkpt><trkpt lat="42.425640784638176" lon="12.11895289864229"><ele>372.0</ele><time>2026-04-24T15:02:48Z</time></trkpt><trkpt lat="42.425518512351594" lon="12.118993407816957"><ele>372.0</ele><time>2026-04-24T15:02:49Z</time></trkpt><trkpt lat="42.42539475626264" lon="12.119043340435294"><ele>372.0</ele><time>2026-04-24T15:02:50Z</time></trkpt><trkpt lat="42.42527918632676" lon="12.119115734335773"><ele>372.20000000000005</ele><time>2026-04-24T15:02:51Z</time></trkpt><trkpt lat="42.42519402066281" lon="12.119155600851325"><ele>372.4</ele><time>2026-04-24T15:02:52Z</time></trkpt><trkpt lat="42.42508866103317" lon="12.119190472883679"><ele>372.6</ele><time>2026-04-24T15:02:53Z</time></trkpt><trkpt lat="42.42499106077412" lon="12.119247196224853"><ele>372.79999999999995</ele><time>2026-04-24T15:02:54Z</time></trkpt><trkpt lat="42.42488707557865" lon="12.11930349186568"><ele>373.0</ele><time>2026-04-24T15:02:55.019Z</time></trkpt><trkpt lat="42.42478628374825" lon="12.119356005891627"><ele>373.0</ele><time>2026-04-24T15:02:56.015Z</time></trkpt><trkpt lat="42.4246982897859" lon="12.119397701015396"><ele>373.0</ele><time>2026-04-24T15:02:57.02Z</time></trkpt><trkpt lat="42.42461464169198" lon="12.119436208586242"><ele>373.0</ele><time>2026-04-24T15:02:58.018Z</time></trkpt><trkpt lat="42.424460635560024" lon="12.119582137104235"><ele>373.0</ele><time>2026-04-24T15:02:59Z</time></trkpt><trkpt lat="42.42437953032005" lon="12.11964151737924"><ele>373.4</ele><time>2026-04-24T15:03:00Z</time></trkpt><trkpt lat="42.424281491797025" lon="12.119690741509913"><ele>373.79999999999995</ele><time>2026-04-24T15:03:01Z</time></trkpt><trkpt lat="42.42421136140731" lon="12.119743912915377"><ele>374.2</ele><time>2026-04-24T15:03:03Z</time></trkpt><trkpt lat="42.424083613731106" lon="12.119699436062326"><ele>374.6</ele><time>2026-04-24T15:03:05Z</time></trkpt><trkpt lat="42.424001274221226" lon="12.11966538833493"><ele>375.0</ele><time>2026-04-24T15:03:06Z</time></trkpt><trkpt lat="42.423932804245545" lon="12.119642290694381"><ele>375.0</ele><time>2026-04-24T15:03:07Z</time></trkpt><trkpt lat="42.42383077216039" lon="12.119688015918655"><ele>375.0</ele><time>2026-04-24T15:03:09Z</time></trkpt><trkpt lat="42.423771534749086" lon="12.119505894532617"><ele>375.0</ele><time>2026-04-24T15:03:10Z</time></trkpt><trkpt lat="42.42373685651007" lon="12.11943070322273"><ele>375.0</ele><time>2026-04-24T15:03:11Z</time></trkpt><trkpt lat="42.42369897030557" lon="12.119349732957119"><ele>375.0</ele><time>2026-04-24T15:03:12Z</time></trkpt><trkpt lat="42.42365850073574" lon="12.11923763572472"><ele>376.25</ele><time>2026-04-24T15:03:13Z</time></trkpt><trkpt lat="42.42363618885207" lon="12.1191219648578"><ele>377.5</ele><time>2026-04-24T15:03:14Z</time></trkpt><trkpt lat="42.42360880416004" lon="12.118941031806672"><ele>378.75</ele><time>2026-04-24T15:03:15Z</time></trkpt><trkpt lat="42.42358946572365" lon="12.118782833066513"><ele>380.0</ele><time>2026-04-24T15:03:16Z</time></trkpt><trkpt lat="42.42356812333318" lon="12.118594204486802"><ele>380.0</ele><time>2026-04-24T15:03:17Z</time></trkpt><trkpt lat="42.423531393289466" lon="12.11846728922598"><ele>380.0</ele><time>2026-04-24T15:03:18Z</time></trkpt><trkpt lat="42.42349962460401" lon="12.118308091244792"><ele>380.0</ele><time>2026-04-24T15:03:19Z</time></trkpt><trkpt lat="42.42345618318741" lon="12.118133162610519"><ele>380.0</ele><time>2026-04-24T15:03:20Z</time></trkpt><trkpt lat="42.42341080000602" lon="12.117981418703321"><ele>378.75</ele><time>2026-04-24T15:03:21Z</time></trkpt><trkpt lat="42.42336977233636" lon="12.117842931930173"><ele>377.5</ele><time>2026-04-24T15:03:22Z</time></trkpt><trkpt lat="42.42331600710945" lon="12.117681093479241"><ele>376.25</ele><time>2026-04-24T15:03:23Z</time></trkpt><trkpt lat="42.42326858461431" lon="12.117512648785834"><ele>375.0</ele><time>2026-04-24T15:03:24Z</time></trkpt><trkpt lat="42.42321930144276" lon="12.117407204557619"><ele>374.0</ele><time>2026-04-24T15:03:25Z</time></trkpt><trkpt lat="42.42316891909219" lon="12.117242548425638"><ele>373.0</ele><time>2026-04-24T15:03:26Z</time></trkpt><trkpt lat="42.42312690346718" lon="12.117076810058839"><ele>372.0</ele><time>2026-04-24T15:03:27Z</time></trkpt><trkpt lat="42.42307933913377" lon="12.116884879973094"><ele>371.0</ele><time>2026-04-24T15:03:28Z</time></trkpt><trkpt lat="42.4230214473375" lon="12.116713031497842"><ele>368.25</ele><time>2026-04-24T15:03:29Z</time></trkpt><trkpt lat="42.42295552878856" lon="12.116581319842723"><ele>365.5</ele><time>2026-04-24T15:03:30Z</time></trkpt><trkpt lat="42.42288632849683" lon="12.116447434851887"><ele>362.75</ele><time>2026-04-24T15:03:31Z</time></trkpt><trkpt lat="42.42280559175471" lon="12.116310618195028"><ele>360.0</ele><time>2026-04-24T15:03:32Z</time></trkpt><trkpt lat="42.42273176984288" lon="12.11617056970932"><ele>359.25</ele><time>2026-04-24T15:03:33Z</time></trkpt><trkpt lat="42.42266929527558" lon="12.116033022609587"><ele>358.5</ele><time>2026-04-24T15:03:34Z</time></trkpt><trkpt lat="42.422611817690544" lon="12.115893011462592"><ele>357.75</ele><time>2026-04-24T15:03:35Z</time></trkpt><trkpt lat="42.42255077930601" lon="12.115743057665396"><ele>357.0</ele><time>2026-04-24T15:03:36Z</time></trkpt><trkpt lat="42.4224984337856" lon="12.115600499094674"><ele>357.0</ele><time>2026-04-24T15:03:37Z</time></trkpt><trkpt lat="42.422440328997666" lon="12.115464921624884"><ele>357.0</ele><time>2026-04-24T15:03:38Z</time></trkpt><trkpt lat="42.422398207512884" lon="12.115304475546385"><ele>357.0</ele><time>2026-04-24T15:03:39Z</time></trkpt><trkpt lat="42.422336974503025" lon="12.115165920997844"><ele>357.0</ele><time>2026-04-24T15:03:40Z</time></trkpt><trkpt lat="42.42227873320802" lon="12.115027764102589"><ele>356.40000000000003</ele><time>2026-04-24T15:03:41Z</time></trkpt><trkpt lat="42.42221901123144" lon="12.114898698737132"><ele>355.8</ele><time>2026-04-24T15:03:42Z</time></trkpt><trkpt lat="42.422166556407184" lon="12.114764645122285"><ele>355.2</ele><time>2026-04-24T15:03:43Z</time></trkpt><trkpt lat="42.42211030989039" lon="12.114642351503857"><ele>354.6</ele><time>2026-04-24T15:03:44Z</time></trkpt><trkpt lat="42.42205485048495" lon="12.114524851352924"><ele>354.0</ele><time>2026-04-24T15:03:45Z</time></trkpt><trkpt lat="42.42200689186562" lon="12.114416940157069"><ele>352.6666666666667</ele><time>2026-04-24T15:03:46Z</time></trkpt><trkpt lat="42.421961286324226" lon="12.114313022816322"><ele>351.3333333333333</ele><time>2026-04-24T15:03:47Z</time></trkpt><trkpt lat="42.42191490416907" lon="12.114219619903288"><ele>350.0</ele><time>2026-04-24T15:03:48Z</time></trkpt><trkpt lat="42.42187630388775" lon="12.114130135425741"><ele>348.66666666666663</ele><time>2026-04-24T15:03:49Z</time></trkpt><trkpt lat="42.421844977775514" lon="12.114052777099095"><ele>347.3333333333333</ele><time>2026-04-24T15:03:50Z</time></trkpt><trkpt lat="42.42178418109074" lon="12.113931867775525"><ele>346.0</ele><time>2026-04-24T15:03:52Z</time></trkpt><trkpt lat="42.421705301260474" lon="12.113854871954773"><ele>346.0</ele><time>2026-04-24T15:03:54Z</time></trkpt><trkpt lat="42.42168684131616" lon="12.113772680586182"><ele>346.0</ele><time>2026-04-24T15:03:55Z</time></trkpt><trkpt lat="42.42161801278035" lon="12.113711050948933"><ele>346.0</ele><time>2026-04-24T15:03:57Z</time></trkpt><trkpt lat="42.42155002933131" lon="12.113741859214729"><ele>346.0</ele><time>2026-04-24T15:03:58Z</time></trkpt><trkpt lat="42.42147231072738" lon="12.113828333497583"><ele>346.0</ele><time>2026-04-24T15:04:00Z</time></trkpt><trkpt lat="42.421408529872636" lon="12.113785121552702"><ele>346.0</ele><time>2026-04-24T15:04:01Z</time></trkpt><trkpt lat="42.42130956472438" lon="12.113792083458256"><ele>347.4</ele><time>2026-04-24T15:04:03Z</time></trkpt><trkpt lat="42.421222206944854" lon="12.113880275872496"><ele>348.8</ele><time>2026-04-24T15:04:05Z</time></trkpt><trkpt lat="42.42116872329862" lon="12.113998285529648"><ele>350.2</ele><time>2026-04-24T15:04:07Z</time></trkpt><trkpt lat="42.421112949974486" lon="12.114139133828363"><ele>351.59999999999997</ele><time>2026-04-24T15:04:09Z</time></trkpt><trkpt lat="42.42108518095292" lon="12.114227504957567"><ele>353.0</ele><time>2026-04-24T15:04:10Z</time></trkpt><trkpt lat="42.421053883130355" lon="12.114339698723748"><ele>353.0</ele><time>2026-04-24T15:04:11Z</time></trkpt><trkpt lat="42.4210377330732" lon="12.11442815445198"><ele>353.0</ele><time>2026-04-24T15:04:12Z</time></trkpt><trkpt lat="42.42102247457747" lon="12.114572358218846"><ele>353.0</ele><time>2026-04-24T15:04:14Z</time></trkpt><trkpt lat="42.42100577699568" lon="12.114681861359394"><ele>353.0</ele><time>2026-04-24T15:04:16Z</time></trkpt><trkpt lat="42.42099828949402" lon="12.114777224540392"><ele>353.0</ele><time>2026-04-24T15:04:19Z</time></trkpt><trkpt lat="42.42097176504917" lon="12.114859378131243"><ele>353.0</ele><time>2026-04-24T15:04:21Z</time></trkpt><trkpt lat="42.42096407070104" lon="12.114968739580783"><ele>352.79999999999995</ele><time>2026-04-24T15:04:24Z</time></trkpt><trkpt lat="42.420926762389975" lon="12.115102615571665"><ele>352.6</ele><time>2026-04-24T15:04:26Z</time></trkpt><trkpt lat="42.42087875392319" lon="12.115245163112306"><ele>352.4</ele><time>2026-04-24T15:04:28Z</time></trkpt><trkpt lat="42.42086138036894" lon="12.115363384997247"><ele>352.20000000000005</ele><time>2026-04-24T15:04:30Z</time></trkpt><trkpt lat="42.420845031729925" lon="12.115480243738208"><ele>352.0</ele><time>2026-04-24T15:04:32Z</time></trkpt><trkpt lat="42.420797372857564" lon="12.115536994027238"><ele>352.0</ele><time>2026-04-24T15:04:33Z</time></trkpt><trkpt lat="42.42076711669088" lon="12.115681945974334"><ele>352.0</ele><time>2026-04-24T15:04:35Z</time></trkpt><trkpt lat="42.42074483450796" lon="12.11582666233865"><ele>352.0</ele><time>2026-04-24T15:04:37Z</time></trkpt><trkpt lat="42.420721683236245" lon="12.115907038323432"><ele>352.0</ele><time>2026-04-24T15:04:38Z</time></trkpt><trkpt lat="42.4206903997046" lon="12.116060643597262"><ele>352.0</ele><time>2026-04-24T15:04:40Z</time></trkpt><trkpt lat="42.42066475464795" lon="12.116244895369965"><ele>351.8333333333333</ele><time>2026-04-24T15:04:42Z</time></trkpt><trkpt lat="42.42064162009697" lon="12.116399364841795"><ele>351.66666666666663</ele><time>2026-04-24T15:04:43Z</time></trkpt><trkpt lat="42.42062953748118" lon="12.116519706911733"><ele>351.5</ele><time>2026-04-24T15:04:44Z</time></trkpt><trkpt lat="42.420612594106096" lon="12.11662395714257"><ele>351.3333333333333</ele><time>2026-04-24T15:04:45Z</time></trkpt><trkpt lat="42.42059042420703" lon="12.11671962734194"><ele>351.1666666666667</ele><time>2026-04-24T15:04:46Z</time></trkpt><trkpt lat="42.420566096660224" lon="12.116821365149804"><ele>351.0</ele><time>2026-04-24T15:04:47Z</time></trkpt><trkpt lat="42.42054497544075" lon="12.116933320099013"><ele>351.0</ele><time>2026-04-24T15:04:48Z</time></trkpt><trkpt lat="42.42053800039567" lon="12.11708401861184"><ele>351.0</ele><time>2026-04-24T15:04:50Z</time></trkpt><trkpt lat="42.42053019081742" lon="12.117176305508751"><ele>351.0</ele><time>2026-04-24T15:04:51Z</time></trkpt><trkpt lat="42.42048052938058" lon="12.117339498339504"><ele>351.0</ele><time>2026-04-24T15:04:53Z</time></trkpt><trkpt lat="42.42046170303185" lon="12.117502544555213"><ele>351.0</ele><time>2026-04-24T15:04:55Z</time></trkpt><trkpt lat="42.42044466087611" lon="12.11764066491159"><ele>354.3333333333333</ele><time>2026-04-24T15:04:57Z</time></trkpt><trkpt lat="42.420429543641234" lon="12.11772435860946"><ele>357.6666666666667</ele><time>2026-04-24T15:04:58Z</time></trkpt><trkpt lat="42.420411607685104" lon="12.117816730649729"><ele>361.0</ele><time>2026-04-24T15:04:59Z</time></trkpt><trkpt lat="42.42040058040373" lon="12.117908992975728"><ele>364.33333333333337</ele><time>2026-04-24T15:05:00Z</time></trkpt><trkpt lat="42.420384370970645" lon="12.117995456652748"><ele>367.6666666666667</ele><time>2026-04-24T15:05:01Z</time></trkpt><trkpt lat="42.420361438977146" lon="12.118164447401178"><ele>371.0</ele><time>2026-04-24T15:05:03Z</time></trkpt><trkpt lat="42.42029259546301" lon="12.118316231042046"><ele>371.83333333333337</ele><time>2026-04-24T15:05:05Z</time></trkpt><trkpt lat="42.42022287929843" lon="12.118451963849257"><ele>372.6666666666667</ele><time>2026-04-24T15:05:07Z</time></trkpt><trkpt lat="42.42017368687711" lon="12.11851699935324"><ele>373.5</ele><time>2026-04-24T15:05:08Z</time></trkpt><trkpt lat="42.4201198889653" lon="12.118575402110874"><ele>374.3333333333333</ele><time>2026-04-24T15:05:09Z</time></trkpt><trkpt lat="42.420065366372576" lon="12.118636450072074"><ele>375.16666666666663</ele><time>2026-04-24T15:05:10Z</time></trkpt><trkpt lat="42.42001513287193" lon="12.11869391110459"><ele>376.0</ele><time>2026-04-24T15:05:11Z</time></trkpt><trkpt lat="42.41991898600649" lon="12.11880363044006"><ele>376.0</ele><time>2026-04-24T15:05:13Z</time></trkpt><trkpt lat="42.41982122658927" lon="12.118896813119287"><ele>376.0</ele><time>2026-04-24T15:05:15Z</time></trkpt><trkpt lat="42.41974141758165" lon="12.118985782567695"><ele>376.0</ele><time>2026-04-24T15:05:17Z</time></trkpt><trkpt lat="42.419652013528896" lon="12.119100045208477"><ele>376.0</ele><time>2026-04-24T15:05:19Z</time></trkpt><trkpt lat="42.41960249820052" lon="12.119236233188516"><ele>376.6</ele><time>2026-04-24T15:05:21Z</time></trkpt><trkpt lat="42.41952680035829" lon="12.119314099223843"><ele>377.20000000000005</ele><time>2026-04-24T15:05:23Z</time></trkpt><trkpt lat="42.419467755771166" lon="12.119384123147848"><ele>377.79999999999995</ele><time>2026-04-24T15:05:25Z</time></trkpt><trkpt lat="42.419382520101536" lon="12.119522783781495"><ele>378.4</ele><time>2026-04-24T15:05:27Z</time></trkpt><trkpt lat="42.419390174175206" lon="12.119641148384757"><ele>379.0</ele><time>2026-04-24T15:05:28Z</time></trkpt><trkpt lat="42.41937256055667" lon="12.119739434024565"><ele>379.0</ele><time>2026-04-24T15:05:29Z</time></trkpt><trkpt lat="42.419328779325504" lon="12.119842210462927"><ele>379.0</ele><time>2026-04-24T15:05:30Z</time></trkpt><trkpt lat="42.41927167998178" lon="12.119942976032586"><ele>379.0</ele><time>2026-04-24T15:05:31Z</time></trkpt><trkpt lat="42.4191891329692" lon="12.119999948150026"><ele>379.0</ele><time>2026-04-24T15:05:32Z</time></trkpt><trkpt lat="42.419137170242905" lon="12.120077630260488"><ele>379.0</ele><time>2026-04-24T15:05:33Z</time></trkpt><trkpt lat="42.419056310813026" lon="12.120124661322194"><ele>379.0</ele><time>2026-04-24T15:05:34Z</time></trkpt><trkpt lat="42.41893834711623" lon="12.12018667267656"><ele>379.2</ele><time>2026-04-24T15:05:35Z</time></trkpt><trkpt lat="42.41882535531789" lon="12.120251592530444"><ele>379.4</ele><time>2026-04-24T15:05:36Z</time></trkpt><trkpt lat="42.418715588377445" lon="12.120300808540742"><ele>379.6</ele><time>2026-04-24T15:05:37Z</time></trkpt><trkpt lat="42.418631975987815" lon="12.120356837064767"><ele>379.8</ele><time>2026-04-24T15:05:38Z</time></trkpt><trkpt lat="42.418581457250646" lon="12.120423118082906"><ele>380.0</ele><time>2026-04-24T15:05:39Z</time></trkpt><trkpt lat="42.418479419762086" lon="12.120434158348582"><ele>380.6666666666667</ele><time>2026-04-24T15:05:40Z</time></trkpt><trkpt lat="42.41841451292603" lon="12.120460707817953"><ele>381.33333333333337</ele><time>2026-04-24T15:05:41Z</time></trkpt><trkpt lat="42.41830302165611" lon="12.120507113835258"><ele>382.0</ele><time>2026-04-24T15:05:43Z</time></trkpt><trkpt lat="42.418239520089436" lon="12.120538388218845"><ele>382.6666666666667</ele><time>2026-04-24T15:05:44Z</time></trkpt><trkpt lat="42.418177717797995" lon="12.120562293715803"><ele>383.3333333333333</ele><time>2026-04-24T15:05:45Z</time></trkpt><trkpt lat="42.418109000814354" lon="12.120579223141057"><ele>384.0</ele><time>2026-04-24T15:05:46Z</time></trkpt><trkpt lat="42.41802905206456" lon="12.120592958106212"><ele>385.0</ele><time>2026-04-24T15:05:47Z</time></trkpt><trkpt lat="42.41793150382142" lon="12.120615366461141"><ele>386.0</ele><time>2026-04-24T15:05:48Z</time></trkpt><trkpt lat="42.417830646561995" lon="12.120628153596737"><ele>387.0</ele><time>2026-04-24T15:05:49Z</time></trkpt><trkpt lat="42.41775616582381" lon="12.120635043907864"><ele>388.0</ele><time>2026-04-24T15:05:50Z</time></trkpt><trkpt lat="42.41765214154074" lon="12.12066229799739"><ele>389.0</ele><time>2026-04-24T15:05:52.001Z</time></trkpt><trkpt lat="42.41758724755166" lon="12.12069633152617"><ele>389.0</ele><time>2026-04-24T15:05:53.001Z</time></trkpt><trkpt lat="42.41752444938189" lon="12.120706246519472"><ele>389.0</ele><time>2026-04-24T15:05:54.001Z</time></trkpt><trkpt lat="42.41740162611046" lon="12.120730235247022"><ele>389.0</ele><time>2026-04-24T15:05:56.001Z</time></trkpt><trkpt lat="42.41729546603432" lon="12.1207513687056"><ele>389.0</ele><time>2026-04-24T15:05:58Z</time></trkpt><trkpt lat="42.41717200415881" lon="12.12077398257736"><ele>389.0</ele><time>2026-04-24T15:06:00Z</time></trkpt><trkpt lat="42.417070565442586" lon="12.120820698895665"><ele>389.99999999999994</ele><time>2026-04-24T15:06:02Z</time></trkpt><trkpt lat="42.417004379840236" lon="12.12083507674883"><ele>391.0</ele><time>2026-04-24T15:06:03Z</time></trkpt><trkpt lat="42.41691627759623" lon="12.120857945461072"><ele>392.0</ele><time>2026-04-24T15:06:04Z</time></trkpt><trkpt lat="42.41684843052711" lon="12.120885585441586"><ele>393.0</ele><time>2026-04-24T15:06:05Z</time></trkpt><trkpt lat="42.4167745194325" lon="12.12090210426677"><ele>393.99999999999994</ele><time>2026-04-24T15:06:06Z</time></trkpt><trkpt lat="42.41670051683429" lon="12.120914699527345"><ele>395.0</ele><time>2026-04-24T15:06:07Z</time></trkpt><trkpt lat="42.416628929602055" lon="12.120941174450278"><ele>394.99999999999994</ele><time>2026-04-24T15:06:08Z</time></trkpt><trkpt lat="42.41653814618728" lon="12.120944904397835"><ele>395.0</ele><time>2026-04-24T15:06:09Z</time></trkpt><trkpt lat="42.41646694424875" lon="12.120975973052575"><ele>395.0</ele><time>2026-04-24T15:06:10Z</time></trkpt><trkpt lat="42.4163605244551" lon="12.12102545506317"><ele>395.0</ele><time>2026-04-24T15:06:11Z</time></trkpt><trkpt lat="42.41629464650817" lon="12.121034214395303"><ele>394.99999999999994</ele><time>2026-04-24T15:06:12Z</time></trkpt><trkpt lat="42.41622111711429" lon="12.121067997881292"><ele>395.0</ele><time>2026-04-24T15:06:13Z</time></trkpt><trkpt lat="42.41614987452104" lon="12.121087998451499"><ele>395.8333333333333</ele><time>2026-04-24T15:06:14Z</time></trkpt><trkpt lat="42.416074205119145" lon="12.121105795294767"><ele>396.66666666666663</ele><time>2026-04-24T15:06:15Z</time></trkpt><trkpt lat="42.41599636540827" lon="12.121107633504797"><ele>397.5</ele><time>2026-04-24T15:06:16Z</time></trkpt><trkpt lat="42.415926995476916" lon="12.121114381458854"><ele>398.33333333333337</ele><time>2026-04-24T15:06:17Z</time></trkpt><trkpt lat="42.415853164915376" lon="12.12112789353125"><ele>399.1666666666667</ele><time>2026-04-24T15:06:18Z</time></trkpt><trkpt lat="42.41571503759362" lon="12.121148721020374"><ele>400.0</ele><time>2026-04-24T15:06:20Z</time></trkpt><trkpt lat="42.41563942559308" lon="12.12117047750134"><ele>400.00000000000006</ele><time>2026-04-24T15:06:21Z</time></trkpt><trkpt lat="42.41557757446618" lon="12.121186922560826"><ele>400.0</ele><time>2026-04-24T15:06:22Z</time></trkpt><trkpt lat="42.415511431712986" lon="12.12119714922341"><ele>400.0</ele><time>2026-04-24T15:06:23Z</time></trkpt><trkpt lat="42.415410227533044" lon="12.121229465403205"><ele>400.0</ele><time>2026-04-24T15:06:25Z</time></trkpt><trkpt lat="42.41532736101651" lon="12.121243312108744"><ele>400.00000000000006</ele><time>2026-04-24T15:06:27Z</time></trkpt><trkpt lat="42.41522090786655" lon="12.121273245895752"><ele>400.0</ele><time>2026-04-24T15:06:29Z</time></trkpt><trkpt lat="42.415124027442694" lon="12.121274078279237"><ele>399.5</ele><time>2026-04-24T15:06:31Z</time></trkpt><trkpt lat="42.41502507244548" lon="12.12140941686288"><ele>399.0</ele><time>2026-04-24T15:06:33Z</time></trkpt><trkpt lat="42.41497580614516" lon="12.121520836928381"><ele>398.5</ele><time>2026-04-24T15:06:34Z</time></trkpt><trkpt lat="42.414925631357555" lon="12.121654283363535"><ele>398.0</ele><time>2026-04-24T15:06:35Z</time></trkpt><trkpt lat="42.414874591111236" lon="12.121794351059126"><ele>398.4</ele><time>2026-04-24T15:06:36Z</time></trkpt><trkpt lat="42.414839332988194" lon="12.12188838756756"><ele>398.79999999999995</ele><time>2026-04-24T15:06:37Z</time></trkpt><trkpt lat="42.414785733922166" lon="12.122032003694265"><ele>399.2</ele><time>2026-04-24T15:06:39Z</time></trkpt><trkpt lat="42.41475094299935" lon="12.122142909760294"><ele>399.6</ele><time>2026-04-24T15:06:40Z</time></trkpt><trkpt lat="42.414683499798734" lon="12.122254447305355"><ele>400.0</ele><time>2026-04-24T15:06:41Z</time></trkpt><trkpt lat="42.41463236242669" lon="12.122383026231661"><ele>401.2</ele><time>2026-04-24T15:06:42Z</time></trkpt><trkpt lat="42.414578013363574" lon="12.122526431060235"><ele>402.4</ele><time>2026-04-24T15:06:43Z</time></trkpt><trkpt lat="42.414533715401674" lon="12.122674577542767"><ele>403.6</ele><time>2026-04-24T15:06:44Z</time></trkpt><trkpt lat="42.4144999036227" lon="12.122791704732396"><ele>404.8</ele><time>2026-04-24T15:06:45Z</time></trkpt><trkpt lat="42.414467791656215" lon="12.122881786507092"><ele>406.0</ele><time>2026-04-24T15:06:46Z</time></trkpt><trkpt lat="42.414431179413214" lon="12.12297959742943"><ele>406.00000000000006</ele><time>2026-04-24T15:06:47Z</time></trkpt><trkpt lat="42.414395997066734" lon="12.123090058246314"><ele>406.0</ele><time>2026-04-24T15:06:48Z</time></trkpt><trkpt lat="42.41435869771229" lon="12.123196575836944"><ele>406.0</ele><time>2026-04-24T15:06:49Z</time></trkpt><trkpt lat="42.41432356955721" lon="12.123292444018464"><ele>406.0</ele><time>2026-04-24T15:06:50Z</time></trkpt><trkpt lat="42.414285787762616" lon="12.123395842561044"><ele>406.00000000000006</ele><time>2026-04-24T15:06:51Z</time></trkpt><trkpt lat="42.41424814726122" lon="12.123492504012692"><ele>406.0</ele><time>2026-04-24T15:06:52Z</time></trkpt><trkpt lat="42.41421256461803" lon="12.123570974591658"><ele>406.1666666666667</ele><time>2026-04-24T15:06:53Z</time></trkpt><trkpt lat="42.41417525374444" lon="12.123640704227627"><ele>406.33333333333337</ele><time>2026-04-24T15:06:54Z</time></trkpt><trkpt lat="42.41414604823649" lon="12.12372425038691"><ele>406.5</ele><time>2026-04-24T15:06:55Z</time></trkpt><trkpt lat="42.41409695550144" lon="12.123782055288864"><ele>406.66666666666663</ele><time>2026-04-24T15:06:56Z</time></trkpt><trkpt lat="42.41399823462805" lon="12.123837348300693"><ele>406.8333333333333</ele><time>2026-04-24T15:06:58Z</time></trkpt><trkpt lat="42.413892902031186" lon="12.123794665755144"><ele>407.0</ele><time>2026-04-24T15:07:00Z</time></trkpt><trkpt lat="42.41380114833333" lon="12.123693762109859"><ele>406.99999999999994</ele><time>2026-04-24T15:07:02Z</time></trkpt><trkpt lat="42.413742607619525" lon="12.123659012208437"><ele>407.0</ele><time>2026-04-24T15:07:03Z</time></trkpt><trkpt lat="42.41368602139006" lon="12.123593846093959"><ele>407.0</ele><time>2026-04-24T15:07:04Z</time></trkpt><trkpt lat="42.413604150582046" lon="12.123523342222274"><ele>407.0</ele><time>2026-04-24T15:07:05Z</time></trkpt><trkpt lat="42.41352641057532" lon="12.12343974586144"><ele>406.99999999999994</ele><time>2026-04-24T15:07:06Z</time></trkpt><trkpt lat="42.41342786679108" lon="12.123377092269896"><ele>407.0</ele><time>2026-04-24T15:07:07Z</time></trkpt><trkpt lat="42.4133494849886" lon="12.12331550976874"><ele>407.0</ele><time>2026-04-24T15:07:08Z</time></trkpt><trkpt lat="42.41326657859188" lon="12.123242257717102"><ele>407.0</ele><time>2026-04-24T15:07:09Z</time></trkpt><trkpt lat="42.41317533324188" lon="12.123149481846102"><ele>407.0</ele><time>2026-04-24T15:07:10Z</time></trkpt><trkpt lat="42.413098376317535" lon="12.123056054841081"><ele>407.0</ele><time>2026-04-24T15:07:11Z</time></trkpt><trkpt lat="42.413018005133345" lon="12.122950789255832"><ele>407.0</ele><time>2026-04-24T15:07:12Z</time></trkpt><trkpt lat="42.41294634186126" lon="12.122847383313037"><ele>407.20000000000005</ele><time>2026-04-24T15:07:13Z</time></trkpt><trkpt lat="42.41288295197597" lon="12.12273152157486"><ele>407.4</ele><time>2026-04-24T15:07:14Z</time></trkpt><trkpt lat="42.41283162002306" lon="12.122618036046289"><ele>407.6</ele><time>2026-04-24T15:07:15Z</time></trkpt><trkpt lat="42.4127632055689" lon="12.12252086987035"><ele>407.79999999999995</ele><time>2026-04-24T15:07:16Z</time></trkpt><trkpt lat="42.41269964498314" lon="12.122414522248333"><ele>408.0</ele><time>2026-04-24T15:07:17Z</time></trkpt><trkpt lat="42.41265516730304" lon="12.122299002693822"><ele>407.2</ele><time>2026-04-24T15:07:18Z</time></trkpt><trkpt lat="42.41261495676072" lon="12.12218264618836"><ele>406.4</ele><time>2026-04-24T15:07:19Z</time></trkpt><trkpt lat="42.412572230960166" lon="12.122086105908162"><ele>405.59999999999997</ele><time>2026-04-24T15:07:20Z</time></trkpt><trkpt lat="42.41251745304311" lon="12.12199086217382"><ele>404.79999999999995</ele><time>2026-04-24T15:07:21Z</time></trkpt><trkpt lat="42.4124673401854" lon="12.121904231653172"><ele>404.0</ele><time>2026-04-24T15:07:22Z</time></trkpt><trkpt lat="42.412392931918646" lon="12.121774917598081"><ele>403.99999999999994</ele><time>2026-04-24T15:07:24Z</time></trkpt><trkpt lat="42.41237926004981" lon="12.12168756984806"><ele>404.0</ele><time>2026-04-24T15:07:25Z</time></trkpt><trkpt lat="42.41237190718142" lon="12.121588383665776"><ele>404.0</ele><time>2026-04-24T15:07:26Z</time></trkpt><trkpt lat="42.412359972047796" lon="12.121493986565007"><ele>404.0</ele><time>2026-04-24T15:07:27Z</time></trkpt><trkpt lat="42.41232098785959" lon="12.121414452407588"><ele>403.99999999999994</ele><time>2026-04-24T15:07:28Z</time></trkpt><trkpt lat="42.412258310894224" lon="12.121321803833212"><ele>404.0</ele><time>2026-04-24T15:07:29Z</time></trkpt><trkpt lat="42.4121723435483" lon="12.121239737273974"><ele>404.4</ele><time>2026-04-24T15:07:30Z</time></trkpt><trkpt lat="42.41209282767401" lon="12.121154896793675"><ele>404.79999999999995</ele><time>2026-04-24T15:07:31Z</time></trkpt><trkpt lat="42.41203442917473" lon="12.121040701061785"><ele>405.20000000000005</ele><time>2026-04-24T15:07:32Z</time></trkpt><trkpt lat="42.41197230521833" lon="12.12092686121597"><ele>405.6</ele><time>2026-04-24T15:07:33Z</time></trkpt><trkpt lat="42.41191652937361" lon="12.120835089863466"><ele>406.0</ele><time>2026-04-24T15:07:34Z</time></trkpt><trkpt lat="42.41186069866296" lon="12.120752219030464"><ele>405.6</ele><time>2026-04-24T15:07:35Z</time></trkpt><trkpt lat="42.41180306883716" lon="12.12068936414856"><ele>405.20000000000005</ele><time>2026-04-24T15:07:36Z</time></trkpt><trkpt lat="42.41174191376553" lon="12.120646866793725"><ele>404.79999999999995</ele><time>2026-04-24T15:07:37Z</time></trkpt><trkpt lat="42.411629796075154" lon="12.120556697603485"><ele>404.4</ele><time>2026-04-24T15:07:39Z</time></trkpt><trkpt lat="42.41154367687075" lon="12.120464993231273"><ele>404.0</ele><time>2026-04-24T15:07:41Z</time></trkpt><trkpt lat="42.41156034464986" lon="12.120280269371802"><ele>404.0</ele><time>2026-04-24T15:07:44Z</time></trkpt><trkpt lat="42.411596551903116" lon="12.120204957225686"><ele>404.0</ele><time>2026-04-24T15:07:45Z</time></trkpt><trkpt lat="42.41164184214358" lon="12.120078563074053"><ele>404.0</ele><time>2026-04-24T15:07:47Z</time></trkpt><trkpt lat="42.41165768225011" lon="12.119967893710752"><ele>404.0</ele><time>2026-04-24T15:07:49Z</time></trkpt><trkpt lat="42.41168624613363" lon="12.119887588839633"><ele>404.0</ele><time>2026-04-24T15:07:56Z</time></trkpt><trkpt lat="42.41154700457907" lon="12.119805494059083"><ele>403.6</ele><time>2026-04-24T15:07:57Z</time></trkpt><trkpt lat="42.41142701566387" lon="12.119837771395966"><ele>403.2</ele><time>2026-04-24T15:07:59Z</time></trkpt><trkpt lat="42.41133213646044" lon="12.119854485195178"><ele>402.8</ele><time>2026-04-24T15:08:00Z</time></trkpt><trkpt lat="42.41124613995925" lon="12.119862853958196"><ele>402.40000000000003</ele><time>2026-04-24T15:08:01Z</time></trkpt><trkpt lat="42.41113960565056" lon="12.1198773364915"><ele>402.0</ele><time>2026-04-24T15:08:02Z</time></trkpt><trkpt lat="42.41106733343063" lon="12.119878218808024"><ele>402.8</ele><time>2026-04-24T15:08:03Z</time></trkpt><trkpt lat="42.410956883090726" lon="12.11988833139716"><ele>403.6</ele><time>2026-04-24T15:08:05Z</time></trkpt><trkpt lat="42.41087673743371" lon="12.119878245599274"><ele>404.40000000000003</ele><time>2026-04-24T15:08:07Z</time></trkpt><trkpt lat="42.410771266901214" lon="12.119864723306485"><ele>405.20000000000005</ele><time>2026-04-24T15:08:09Z</time></trkpt><trkpt lat="42.41065987087918" lon="12.119845144407508"><ele>406.0</ele><time>2026-04-24T15:08:11Z</time></trkpt><trkpt lat="42.41058865172383" lon="12.119817385239818"><ele>406.0</ele><time>2026-04-24T15:08:12Z</time></trkpt><trkpt lat="42.410516569929165" lon="12.119816058706439"><ele>406.0</ele><time>2026-04-24T15:08:14Z</time></trkpt><trkpt lat="42.41051554726504" lon="12.119723431605872"><ele>406.0</ele><time>2026-04-24T15:08:21Z</time></trkpt><trkpt lat="42.41034534883929" lon="12.119858989091904"><ele>406.0</ele><time>2026-04-24T15:08:29Z</time></trkpt><trkpt lat="42.41031720306954" lon="12.11994234317232"><ele>406.0</ele><time>2026-04-24T15:08:30Z</time></trkpt><trkpt lat="42.41029808760308" lon="12.120058354374912"><ele>407.25</ele><time>2026-04-24T15:08:31Z</time></trkpt><trkpt lat="42.41024646106444" lon="12.120170819475165"><ele>408.5</ele><time>2026-04-24T15:08:32Z</time></trkpt><trkpt lat="42.41016984695385" lon="12.120285565446096"><ele>409.75</ele><time>2026-04-24T15:08:33Z</time></trkpt><trkpt lat="42.41007164954126" lon="12.12043202909232"><ele>411.0</ele><time>2026-04-24T15:08:34Z</time></trkpt><trkpt lat="42.40996463559881" lon="12.120604252561531"><ele>411.75</ele><time>2026-04-24T15:08:35Z</time></trkpt><trkpt lat="42.409868608625885" lon="12.120774827353772"><ele>412.5</ele><time>2026-04-24T15:08:36Z</time></trkpt><trkpt lat="42.409777667864844" lon="12.120911878681321"><ele>413.25</ele><time>2026-04-24T15:08:37Z</time></trkpt><trkpt lat="42.409691450132534" lon="12.121020034666815"><ele>414.0</ele><time>2026-04-24T15:08:38Z</time></trkpt><trkpt lat="42.40961260564011" lon="12.121132357994883"><ele>414.0</ele><time>2026-04-24T15:08:39Z</time></trkpt><trkpt lat="42.409542054353345" lon="12.121264588194826"><ele>414.0</ele><time>2026-04-24T15:08:40Z</time></trkpt><trkpt lat="42.40946932254783" lon="12.12136570137704"><ele>414.0</ele><time>2026-04-24T15:08:41Z</time></trkpt><trkpt lat="42.40939650830667" lon="12.121471996970604"><ele>414.0</ele><time>2026-04-24T15:08:42Z</time></trkpt><trkpt lat="42.40931826633178" lon="12.12158272956748"><ele>414.0</ele><time>2026-04-24T15:08:43Z</time></trkpt><trkpt lat="42.40924534657824" lon="12.121702010440933"><ele>416.0</ele><time>2026-04-24T15:08:44Z</time></trkpt><trkpt lat="42.40916838794167" lon="12.121799990387048"><ele>418.0</ele><time>2026-04-24T15:08:45Z</time></trkpt><trkpt lat="42.409098262266845" lon="12.121900259236707"><ele>420.0</ele><time>2026-04-24T15:08:46Z</time></trkpt><trkpt lat="42.40901610064162" lon="12.121996525347527"><ele>422.0</ele><time>2026-04-24T15:08:47Z</time></trkpt><trkpt lat="42.408940467189794" lon="12.122103386988199"><ele>424.0</ele><time>2026-04-24T15:08:48Z</time></trkpt><trkpt lat="42.40885765502434" lon="12.122206336124602"><ele>425.0</ele><time>2026-04-24T15:08:49Z</time></trkpt><trkpt lat="42.408784646236974" lon="12.122326060711833"><ele>426.0</ele><time>2026-04-24T15:08:50Z</time></trkpt><trkpt lat="42.40869153232806" lon="12.122446976383811"><ele>427.0</ele><time>2026-04-24T15:08:51Z</time></trkpt><trkpt lat="42.408605076299196" lon="12.12256460890144"><ele>428.0</ele><time>2026-04-24T15:08:52Z</time></trkpt><trkpt lat="42.40852335023941" lon="12.122667010670826"><ele>428.0</ele><time>2026-04-24T15:08:53Z</time></trkpt><trkpt lat="42.40844567705808" lon="12.122766919360581"><ele>427.99999999999994</ele><time>2026-04-24T15:08:54Z</time></trkpt><trkpt lat="42.40837769821059" lon="12.122861105560753"><ele>427.99999999999994</ele><time>2026-04-24T15:08:55Z</time></trkpt><trkpt lat="42.408306797859055" lon="12.122947015239056"><ele>428.0</ele><time>2026-04-24T15:08:56Z</time></trkpt><trkpt lat="42.408234230378554" lon="12.123047768584446"><ele>428.0</ele><time>2026-04-24T15:08:57Z</time></trkpt><trkpt lat="42.40815608803142" lon="12.123169117830457"><ele>429.0</ele><time>2026-04-24T15:08:58Z</time></trkpt><trkpt lat="42.408059709642004" lon="12.1232892792451"><ele>430.0</ele><time>2026-04-24T15:08:59Z</time></trkpt><trkpt lat="42.407962620108904" lon="12.123416638583892"><ele>431.0</ele><time>2026-04-24T15:09:00Z</time></trkpt><trkpt lat="42.40786649919019" lon="12.123537308700422"><ele>432.0</ele><time>2026-04-24T15:09:01Z</time></trkpt><trkpt lat="42.40777278844949" lon="12.123653620110323"><ele>432.0</ele><time>2026-04-24T15:09:02Z</time></trkpt><trkpt lat="42.407676838106795" lon="12.12378327393738"><ele>432.0</ele><time>2026-04-24T15:09:03Z</time></trkpt><trkpt lat="42.407588184447604" lon="12.123924821290064"><ele>432.0</ele><time>2026-04-24T15:09:04Z</time></trkpt><trkpt lat="42.40749405823294" lon="12.124079172897002"><ele>432.0</ele><time>2026-04-24T15:09:05Z</time></trkpt><trkpt lat="42.40740959651454" lon="12.124232493775793"><ele>433.0</ele><time>2026-04-24T15:09:06Z</time></trkpt><trkpt lat="42.40732897342432" lon="12.124398117110548"><ele>434.0</ele><time>2026-04-24T15:09:07Z</time></trkpt><trkpt lat="42.40724671126042" lon="12.12455744836628"><ele>435.0</ele><time>2026-04-24T15:09:08Z</time></trkpt><trkpt lat="42.40716626940581" lon="12.124696004865836"><ele>436.0</ele><time>2026-04-24T15:09:09Z</time></trkpt><trkpt lat="42.40708829517547" lon="12.124845784923808"><ele>437.5</ele><time>2026-04-24T15:09:10Z</time></trkpt><trkpt lat="42.40701036435353" lon="12.124992634458465"><ele>439.0</ele><time>2026-04-24T15:09:11Z</time></trkpt><trkpt lat="42.4069342660551" lon="12.12514347986537"><ele>440.5</ele><time>2026-04-24T15:09:12Z</time></trkpt><trkpt lat="42.40685973156165" lon="12.12531508687654"><ele>442.0</ele><time>2026-04-24T15:09:13Z</time></trkpt><trkpt lat="42.40679028098459" lon="12.125481072636576"><ele>442.0</ele><time>2026-04-24T15:09:14Z</time></trkpt><trkpt lat="42.40672854540075" lon="12.125650423819929"><ele>442.0</ele><time>2026-04-24T15:09:15Z</time></trkpt><trkpt lat="42.40667475335198" lon="12.125816372087632"><ele>442.0</ele><time>2026-04-24T15:09:16Z</time></trkpt><trkpt lat="42.4066111179945" lon="12.125978826879424"><ele>442.0</ele><time>2026-04-24T15:09:17Z</time></trkpt><trkpt lat="42.406570013012015" lon="12.126158870381415"><ele>443.25</ele><time>2026-04-24T15:09:18Z</time></trkpt><trkpt lat="42.40648908637917" lon="12.126308526755347"><ele>444.5</ele><time>2026-04-24T15:09:19Z</time></trkpt><trkpt lat="42.406443069761394" lon="12.126451585724007"><ele>445.75</ele><time>2026-04-24T15:09:20Z</time></trkpt><trkpt lat="42.40639743061726" lon="12.126590200547161"><ele>447.0</ele><time>2026-04-24T15:09:21Z</time></trkpt><trkpt lat="42.406351434668" lon="12.126737350921516"><ele>448.75</ele><time>2026-04-24T15:09:22Z</time></trkpt><trkpt lat="42.40631897470281" lon="12.126868025376707"><ele>450.5</ele><time>2026-04-24T15:09:23Z</time></trkpt><trkpt lat="42.40627748644705" lon="12.127029278887196"><ele>452.25</ele><time>2026-04-24T15:09:24Z</time></trkpt><trkpt lat="42.40621371438873" lon="12.127198675166705"><ele>454.0</ele><time>2026-04-24T15:09:25Z</time></trkpt><trkpt lat="42.406165623153804" lon="12.127350174173031"><ele>455.6666666666667</ele><time>2026-04-24T15:09:26Z</time></trkpt><trkpt lat="42.40610715189714" lon="12.127536146555208"><ele>457.33333333333337</ele><time>2026-04-24T15:09:27Z</time></trkpt><trkpt lat="42.4060628328899" lon="12.127730110454408"><ele>459.0</ele><time>2026-04-24T15:09:28Z</time></trkpt><trkpt lat="42.40598872177641" lon="12.127912740869851"><ele>459.0</ele><time>2026-04-24T15:09:29Z</time></trkpt><trkpt lat="42.405941547345996" lon="12.128118366050023"><ele>459.0</ele><time>2026-04-24T15:09:30Z</time></trkpt><trkpt lat="42.40586199383339" lon="12.128314939257699"><ele>459.0</ele><time>2026-04-24T15:09:31Z</time></trkpt><trkpt lat="42.40580496429371" lon="12.128492937061623"><ele>460.75</ele><time>2026-04-24T15:09:32Z</time></trkpt><trkpt lat="42.40573394907167" lon="12.128655404227207"><ele>462.5</ele><time>2026-04-24T15:09:33Z</time></trkpt><trkpt lat="42.405677397220764" lon="12.128830853941121"><ele>464.25</ele><time>2026-04-24T15:09:34Z</time></trkpt><trkpt lat="42.405628532143425" lon="12.128990395803715"><ele>466.0</ele><time>2026-04-24T15:09:35Z</time></trkpt><trkpt lat="42.40558079873372" lon="12.129160854989088"><ele>466.0</ele><time>2026-04-24T15:09:36Z</time></trkpt><trkpt lat="42.40552421143162" lon="12.129345327405844"><ele>466.0</ele><time>2026-04-24T15:09:37Z</time></trkpt><trkpt lat="42.4054626016776" lon="12.129556359888966"><ele>466.0</ele><time>2026-04-24T15:09:38Z</time></trkpt><trkpt lat="42.40539801017435" lon="12.129777128201201"><ele>468.33333333333337</ele><time>2026-04-24T15:09:39Z</time></trkpt><trkpt lat="42.4053345381458" lon="12.12997514900996"><ele>470.66666666666663</ele><time>2026-04-24T15:09:40Z</time></trkpt><trkpt lat="42.40528366986366" lon="12.13019447685634"><ele>473.0</ele><time>2026-04-24T15:09:41Z</time></trkpt><trkpt lat="42.405219581614034" lon="12.130372708071993"><ele>473.0</ele><time>2026-04-24T15:09:42Z</time></trkpt><trkpt lat="42.40516199492066" lon="12.130559836006707"><ele>473.0</ele><time>2026-04-24T15:09:43Z</time></trkpt><trkpt lat="42.405108394746215" lon="12.130749115352629"><ele>473.0</ele><time>2026-04-24T15:09:44Z</time></trkpt><trkpt lat="42.40506307158981" lon="12.130926665425854"><ele>473.0</ele><time>2026-04-24T15:09:45Z</time></trkpt><trkpt lat="42.4050255011521" lon="12.13108417675315"><ele>475.0</ele><time>2026-04-24T15:09:46Z</time></trkpt><trkpt lat="42.40496268811745" lon="12.131243794864218"><ele>477.0</ele><time>2026-04-24T15:09:47Z</time></trkpt><trkpt lat="42.404947659356296" lon="12.131431537629862"><ele>479.0</ele><time>2026-04-24T15:09:48Z</time></trkpt><trkpt lat="42.404946616467484" lon="12.131597844459701"><ele>481.0</ele><time>2026-04-24T15:09:49Z</time></trkpt><trkpt lat="42.40495748275985" lon="12.131764999043506"><ele>481.75</ele><time>2026-04-24T15:09:50Z</time></trkpt><trkpt lat="42.40498709649785" lon="12.131945115191058"><ele>482.5</ele><time>2026-04-24T15:09:51Z</time></trkpt><trkpt lat="42.40503291601284" lon="12.132137359071525"><ele>483.25</ele><time>2026-04-24T15:09:52Z</time></trkpt><trkpt lat="42.40508100234016" lon="12.132308645849866"><ele>484.0</ele><time>2026-04-24T15:09:53Z</time></trkpt><trkpt lat="42.40511595929653" lon="12.132464683378963"><ele>485.0</ele><time>2026-04-24T15:09:54Z</time></trkpt><trkpt lat="42.405138560825726" lon="12.132642001013435"><ele>486.0</ele><time>2026-04-24T15:09:55Z</time></trkpt><trkpt lat="42.4051459863823" lon="12.132790147701307"><ele>487.0</ele><time>2026-04-24T15:09:56Z</time></trkpt><trkpt lat="42.40512526514598" lon="12.132978421143523"><ele>488.0</ele><time>2026-04-24T15:09:57Z</time></trkpt><trkpt lat="42.40509138754708" lon="12.133185969643188"><ele>489.0</ele><time>2026-04-24T15:09:58Z</time></trkpt><trkpt lat="42.40504366591353" lon="12.133395819525672"><ele>490.0</ele><time>2026-04-24T15:09:59Z</time></trkpt><trkpt lat="42.40497430908572" lon="12.133543211488341"><ele>491.0</ele><time>2026-04-24T15:10:00Z</time></trkpt><trkpt lat="42.404893090148825" lon="12.133732619757613"><ele>491.0</ele><time>2026-04-24T15:10:01Z</time></trkpt><trkpt lat="42.40479494468364" lon="12.133881174694245"><ele>491.0</ele><time>2026-04-24T15:10:02Z</time></trkpt><trkpt lat="42.40471225544023" lon="12.13403295296469"><ele>491.0</ele><time>2026-04-24T15:10:03Z</time></trkpt><trkpt lat="42.404642937226015" lon="12.13415129280176"><ele>491.0</ele><time>2026-04-24T15:10:04Z</time></trkpt><trkpt lat="42.4045689214031" lon="12.134276854799667"><ele>490.8</ele><time>2026-04-24T15:10:05Z</time></trkpt><trkpt lat="42.40449952177564" lon="12.134387876298053"><ele>490.6</ele><time>2026-04-24T15:10:06Z</time></trkpt><trkpt lat="42.40443217998225" lon="12.134505508519213"><ele>490.4</ele><time>2026-04-24T15:10:07Z</time></trkpt><trkpt lat="42.404377769602824" lon="12.134610865860019"><ele>490.2</ele><time>2026-04-24T15:10:08Z</time></trkpt><trkpt lat="42.40431803093259" lon="12.134722184923481"><ele>490.0</ele><time>2026-04-24T15:10:09Z</time></trkpt><trkpt lat="42.404253976124785" lon="12.134843382278445"><ele>491.75</ele><time>2026-04-24T15:10:10Z</time></trkpt><trkpt lat="42.40417707731699" lon="12.134967440107866"><ele>493.5</ele><time>2026-04-24T15:10:11Z</time></trkpt><trkpt lat="42.404093913392785" lon="12.135119015943234"><ele>495.25</ele><time>2026-04-24T15:10:12Z</time></trkpt><trkpt lat="42.40401087752367" lon="12.1352677445081"><ele>497.0</ele><time>2026-04-24T15:10:13Z</time></trkpt><trkpt lat="42.40392488585278" lon="12.135401221222137"><ele>497.0</ele><time>2026-04-24T15:10:14Z</time></trkpt><trkpt lat="42.403836090267504" lon="12.135545941764091"><ele>497.0</ele><time>2026-04-24T15:10:15Z</time></trkpt><trkpt lat="42.40374392909035" lon="12.135691915004564"><ele>497.0</ele><time>2026-04-24T15:10:16Z</time></trkpt><trkpt lat="42.40365566705159" lon="12.135827169259334"><ele>497.0</ele><time>2026-04-24T15:10:17Z</time></trkpt><trkpt lat="42.403564267556334" lon="12.135966114390015"><ele>498.75</ele><time>2026-04-24T15:10:18Z</time></trkpt><trkpt lat="42.403477941150925" lon="12.136086982974561"><ele>500.5</ele><time>2026-04-24T15:10:19Z</time></trkpt><trkpt lat="42.403389510425704" lon="12.136222204332412"><ele>502.25</ele><time>2026-04-24T15:10:20Z</time></trkpt><trkpt lat="42.4033019129941" lon="12.136345388002656"><ele>504.0</ele><time>2026-04-24T15:10:21Z</time></trkpt><trkpt lat="42.40321654892478" lon="12.136459564184106"><ele>504.75</ele><time>2026-04-24T15:10:22Z</time></trkpt><trkpt lat="42.40314298847563" lon="12.136570121977437"><ele>505.5</ele><time>2026-04-24T15:10:23Z</time></trkpt><trkpt lat="42.403080337205665" lon="12.136690912451922"><ele>506.25</ele><time>2026-04-24T15:10:24Z</time></trkpt><trkpt lat="42.403041297439145" lon="12.136839407608589"><ele>507.0</ele><time>2026-04-24T15:10:25Z</time></trkpt><trkpt lat="42.40301036435927" lon="12.137020437144642"><ele>508.25</ele><time>2026-04-24T15:10:26Z</time></trkpt><trkpt lat="42.402995142974305" lon="12.137207964283899"><ele>509.5</ele><time>2026-04-24T15:10:27Z</time></trkpt><trkpt lat="42.40299111568286" lon="12.13740212876222"><ele>510.75</ele><time>2026-04-24T15:10:28Z</time></trkpt><trkpt lat="42.40300314848668" lon="12.137584046162297"><ele>512.0</ele><time>2026-04-24T15:10:29Z</time></trkpt><trkpt lat="42.40301744703676" lon="12.13776807947758"><ele>512.0</ele><time>2026-04-24T15:10:30Z</time></trkpt><trkpt lat="42.40304168810549" lon="12.137934033785664"><ele>512.0</ele><time>2026-04-24T15:10:31Z</time></trkpt><trkpt lat="42.40307928566569" lon="12.138088287127824"><ele>512.0</ele><time>2026-04-24T15:10:32Z</time></trkpt><trkpt lat="42.40312605935179" lon="12.138249785794335"><ele>512.0</ele><time>2026-04-24T15:10:33Z</time></trkpt><trkpt lat="42.40318699008586" lon="12.138421159702704"><ele>514.75</ele><time>2026-04-24T15:10:34Z</time></trkpt><trkpt lat="42.403271689577956" lon="12.138575729113018"><ele>517.5</ele><time>2026-04-24T15:10:35Z</time></trkpt><trkpt lat="42.40335118577029" lon="12.138715152145027"><ele>520.25</ele><time>2026-04-24T15:10:36Z</time></trkpt><trkpt lat="42.403424717092605" lon="12.138819764973713"><ele>523.0</ele><time>2026-04-24T15:10:37Z</time></trkpt><trkpt lat="42.40348782571594" lon="12.138910275661642"><ele>523.0</ele><time>2026-04-24T15:10:38Z</time></trkpt><trkpt lat="42.40352680551331" lon="12.139018446342524"><ele>523.0</ele><time>2026-04-24T15:10:39Z</time></trkpt><trkpt lat="42.403557456506796" lon="12.139120682393802"><ele>523.0</ele><time>2026-04-24T15:10:40Z</time></trkpt><trkpt lat="42.40358101991575" lon="12.139248875294808"><ele>523.0</ele><time>2026-04-24T15:10:41Z</time></trkpt><trkpt lat="42.403577423224846" lon="12.139373589042608"><ele>523.0</ele><time>2026-04-24T15:10:42Z</time></trkpt><trkpt lat="42.40354866333256" lon="12.139502825020053"><ele>524.4</ele><time>2026-04-24T15:10:43Z</time></trkpt><trkpt lat="42.403492184288616" lon="12.139619926875834"><ele>525.8</ele><time>2026-04-24T15:10:44Z</time></trkpt><trkpt lat="42.4034286017057" lon="12.139695564251896"><ele>527.2</ele><time>2026-04-24T15:10:45Z</time></trkpt><trkpt lat="42.40334095081859" lon="12.139743763644685"><ele>528.6</ele><time>2026-04-24T15:10:46Z</time></trkpt><trkpt lat="42.40325780548434" lon="12.13977449102002"><ele>530.0</ele><time>2026-04-24T15:10:47Z</time></trkpt><trkpt lat="42.40316003830933" lon="12.13977925405351"><ele>530.0</ele><time>2026-04-24T15:10:48Z</time></trkpt><trkpt lat="42.4030470066148" lon="12.139789519926717"><ele>530.0</ele><time>2026-04-24T15:10:49Z</time></trkpt><trkpt lat="42.40293144962501" lon="12.139832341248127"><ele>530.0</ele><time>2026-04-24T15:10:50Z</time></trkpt><trkpt lat="42.40283531721345" lon="12.13988317852724"><ele>530.0</ele><time>2026-04-24T15:10:51Z</time></trkpt><trkpt lat="42.40274659412228" lon="12.139946429234131"><ele>530.0</ele><time>2026-04-24T15:10:52Z</time></trkpt><trkpt lat="42.40266219330861" lon="12.140038356307288"><ele>532.75</ele><time>2026-04-24T15:10:53Z</time></trkpt><trkpt lat="42.402581426738735" lon="12.140171121012257"><ele>535.5</ele><time>2026-04-24T15:10:54Z</time></trkpt><trkpt lat="42.40248857728451" lon="12.140302509731171"><ele>538.25</ele><time>2026-04-24T15:10:55Z</time></trkpt><trkpt lat="42.40239361228106" lon="12.140460181484556"><ele>541.0</ele><time>2026-04-24T15:10:56Z</time></trkpt><trkpt lat="42.402306977658554" lon="12.140642534212626"><ele>542.0</ele><time>2026-04-24T15:10:57Z</time></trkpt><trkpt lat="42.40221252626707" lon="12.14083321308971"><ele>543.0</ele><time>2026-04-24T15:10:58Z</time></trkpt><trkpt lat="42.40212340687808" lon="12.141008932041256"><ele>544.0</ele><time>2026-04-24T15:10:59Z</time></trkpt><trkpt lat="42.40204369524049" lon="12.141168262158274"><ele>544.0</ele><time>2026-04-24T15:11:00Z</time></trkpt><trkpt lat="42.40197917424278" lon="12.141312483524224"><ele>544.0</ele><time>2026-04-24T15:11:01Z</time></trkpt><trkpt lat="42.40191327818447" lon="12.14146892884486"><ele>544.0</ele><time>2026-04-24T15:11:02Z</time></trkpt><trkpt lat="42.40184611668264" lon="12.14162843817747"><ele>544.0</ele><time>2026-04-24T15:11:03Z</time></trkpt><trkpt lat="42.40176349063826" lon="12.141790692065987"><ele>545.75</ele><time>2026-04-24T15:11:04Z</time></trkpt><trkpt lat="42.4016874592086" lon="12.141937139442055"><ele>547.5</ele><time>2026-04-24T15:11:05Z</time></trkpt><trkpt lat="42.401612448633756" lon="12.142073117888879"><ele>549.25</ele><time>2026-04-24T15:11:06Z</time></trkpt><trkpt lat="42.40155385146569" lon="12.142221376038432"><ele>551.0</ele><time>2026-04-24T15:11:07Z</time></trkpt><trkpt lat="42.40147835926368" lon="12.142356430370963"><ele>551.0</ele><time>2026-04-24T15:11:08Z</time></trkpt><trkpt lat="42.40139081820172" lon="12.142488863001503"><ele>551.0</ele><time>2026-04-24T15:11:09Z</time></trkpt><trkpt lat="42.401304846947305" lon="12.142611855269788"><ele>551.0</ele><time>2026-04-24T15:11:10Z</time></trkpt><trkpt lat="42.4012113819139" lon="12.14274934977157"><ele>551.0</ele><time>2026-04-24T15:11:11Z</time></trkpt><trkpt lat="42.40111294905071" lon="12.142895834666414"><ele>551.0</ele><time>2026-04-24T15:11:12Z</time></trkpt><trkpt lat="42.401010951130324" lon="12.142998500310853"><ele>551.0</ele><time>2026-04-24T15:11:13Z</time></trkpt><trkpt lat="42.4009029449176" lon="12.143131859971389"><ele>551.0</ele><time>2026-04-24T15:11:14Z</time></trkpt><trkpt lat="42.40077833861019" lon="12.143261239200513"><ele>551.0</ele><time>2026-04-24T15:11:15Z</time></trkpt><trkpt lat="42.40066415307449" lon="12.143380482637633"><ele>552.75</ele><time>2026-04-24T15:11:16Z</time></trkpt><trkpt lat="42.40056268499513" lon="12.143486266807363"><ele>554.5</ele><time>2026-04-24T15:11:17Z</time></trkpt><trkpt lat="42.40045682906065" lon="12.143597459904981"><ele>556.25</ele><time>2026-04-24T15:11:18Z</time></trkpt><trkpt lat="42.40034224942136" lon="12.143707816838274"><ele>558.0</ele><time>2026-04-24T15:11:19Z</time></trkpt><trkpt lat="42.400230463239325" lon="12.143823642591116"><ele>558.0</ele><time>2026-04-24T15:11:20Z</time></trkpt><trkpt lat="42.400122371578625" lon="12.14392759326689"><ele>558.0</ele><time>2026-04-24T15:11:21Z</time></trkpt><trkpt lat="42.400013117955226" lon="12.144025825301842"><ele>558.0</ele><time>2026-04-24T15:11:22Z</time></trkpt><trkpt lat="42.399904143694705" lon="12.144120373932124"><ele>558.0</ele><time>2026-04-24T15:11:23Z</time></trkpt><trkpt lat="42.39979238538743" lon="12.144209358791962"><ele>560.0</ele><time>2026-04-24T15:11:24Z</time></trkpt><trkpt lat="42.399674474014205" lon="12.1442915328391"><ele>562.0</ele><time>2026-04-24T15:11:25Z</time></trkpt><trkpt lat="42.39955465279845" lon="12.144365802079248"><ele>564.0</ele><time>2026-04-24T15:11:26Z</time></trkpt><trkpt lat="42.39943799010931" lon="12.144442863005013"><ele>566.0</ele><time>2026-04-24T15:11:27Z</time></trkpt><trkpt lat="42.39930720379084" lon="12.144520961966398"><ele>566.0</ele><time>2026-04-24T15:11:28Z</time></trkpt><trkpt lat="42.39917400027324" lon="12.144596096324662"><ele>566.0</ele><time>2026-04-24T15:11:29Z</time></trkpt><trkpt lat="42.39903395669776" lon="12.144672007220194"><ele>566.0</ele><time>2026-04-24T15:11:30Z</time></trkpt><trkpt lat="42.39887440071695" lon="12.144760182816148"><ele>565.6666666666666</ele><time>2026-04-24T15:11:31Z</time></trkpt><trkpt lat="42.39870143433516" lon="12.144864199814485"><ele>565.3333333333334</ele><time>2026-04-24T15:11:32Z</time></trkpt><trkpt lat="42.39852030090934" lon="12.144964419978782"><ele>565.0</ele><time>2026-04-24T15:11:33Z</time></trkpt><trkpt lat="42.398356790731484" lon="12.145064344992376"><ele>567.3333333333334</ele><time>2026-04-24T15:11:34Z</time></trkpt><trkpt lat="42.39819886157139" lon="12.145146555035538"><ele>569.6666666666666</ele><time>2026-04-24T15:11:35Z</time></trkpt><trkpt lat="42.398039661965825" lon="12.145234730731033"><ele>572.0</ele><time>2026-04-24T15:11:36Z</time></trkpt><trkpt lat="42.39786325965397" lon="12.145310665966829"><ele>572.6666666666666</ele><time>2026-04-24T15:11:37Z</time></trkpt><trkpt lat="42.39770355377798" lon="12.145407088851274"><ele>573.3333333333334</ele><time>2026-04-24T15:11:38Z</time></trkpt><trkpt lat="42.39753843439276" lon="12.145499703551199"><ele>574.0</ele><time>2026-04-24T15:11:39Z</time></trkpt><trkpt lat="42.397371260438" lon="12.145588070491732"><ele>574.0</ele><time>2026-04-24T15:11:40Z</time></trkpt><trkpt lat="42.3972053942579" lon="12.145671762094707"><ele>574.0</ele><time>2026-04-24T15:11:41Z</time></trkpt><trkpt lat="42.39703648401646" lon="12.145745760200423"><ele>574.0</ele><time>2026-04-24T15:11:42Z</time></trkpt><trkpt lat="42.396877752081735" lon="12.145824225769035"><ele>577.0</ele><time>2026-04-24T15:11:43Z</time></trkpt><trkpt lat="42.396709300692415" lon="12.145904679880172"><ele>580.0</ele><time>2026-04-24T15:11:44Z</time></trkpt><trkpt lat="42.396539953854464" lon="12.145971078329362"><ele>583.0</ele><time>2026-04-24T15:11:45Z</time></trkpt><trkpt lat="42.39636837807194" lon="12.146020492754003"><ele>584.6666666666667</ele><time>2026-04-24T15:11:46Z</time></trkpt><trkpt lat="42.39619521627273" lon="12.146074947855004"><ele>586.3333333333334</ele><time>2026-04-24T15:11:47Z</time></trkpt><trkpt lat="42.396031700883285" lon="12.1461193162672"><ele>588.0</ele><time>2026-04-24T15:11:48Z</time></trkpt><trkpt lat="42.395877840081084" lon="12.146166373620481"><ele>588.0</ele><time>2026-04-24T15:11:49Z</time></trkpt><trkpt lat="42.395724312112876" lon="12.146229294977958"><ele>588.0</ele><time>2026-04-24T15:11:50Z</time></trkpt><trkpt lat="42.3955670046172" lon="12.146304585673837"><ele>588.0</ele><time>2026-04-24T15:11:51Z</time></trkpt><trkpt lat="42.39541498204008" lon="12.146391039004365"><ele>589.0</ele><time>2026-04-24T15:11:52Z</time></trkpt><trkpt lat="42.39527538941887" lon="12.146474620887776"><ele>590.0</ele><time>2026-04-24T15:11:53Z</time></trkpt><trkpt lat="42.395153032123154" lon="12.1465455164794"><ele>591.0</ele><time>2026-04-24T15:11:54Z</time></trkpt><trkpt lat="42.395040224680315" lon="12.146618586771543"><ele>592.0</ele><time>2026-04-24T15:11:55Z</time></trkpt><trkpt lat="42.39493296947611" lon="12.146706262135615"><ele>592.5</ele><time>2026-04-24T15:11:56Z</time></trkpt><trkpt lat="42.39483511593414" lon="12.146793465132502"><ele>593.0</ele><time>2026-04-24T15:11:57Z</time></trkpt><trkpt lat="42.394746360908655" lon="12.146891129113003"><ele>593.5</ele><time>2026-04-24T15:11:58Z</time></trkpt><trkpt lat="42.394669507478895" lon="12.147003628211849"><ele>594.0</ele><time>2026-04-24T15:11:59Z</time></trkpt><trkpt lat="42.39459941288936" lon="12.147129407512407"><ele>596.0</ele><time>2026-04-24T15:12:00Z</time></trkpt><trkpt lat="42.394528242918895" lon="12.147289889445046"><ele>598.0</ele><time>2026-04-24T15:12:01Z</time></trkpt><trkpt lat="42.3944554977771" lon="12.147475056442659"><ele>600.0</ele><time>2026-04-24T15:12:02Z</time></trkpt><trkpt lat="42.394375646048864" lon="12.147675837663195"><ele>601.0</ele><time>2026-04-24T15:12:03Z</time></trkpt><trkpt lat="42.39430570480681" lon="12.14786763685063"><ele>602.0</ele><time>2026-04-24T15:12:04Z</time></trkpt><trkpt lat="42.39424241083052" lon="12.148032918866043"><ele>603.0</ele><time>2026-04-24T15:12:05Z</time></trkpt><trkpt lat="42.39417547041766" lon="12.14818259568203"><ele>604.0</ele><time>2026-04-24T15:12:06Z</time></trkpt><trkpt lat="42.394131680923024" lon="12.148339629074663"><ele>604.75</ele><time>2026-04-24T15:12:07Z</time></trkpt><trkpt lat="42.394079507519606" lon="12.148476761284531"><ele>605.5</ele><time>2026-04-24T15:12:08Z</time></trkpt><trkpt lat="42.394034302498895" lon="12.148630212510032"><ele>606.25</ele><time>2026-04-24T15:12:09Z</time></trkpt><trkpt lat="42.393999108221536" lon="12.1487865260212"><ele>607.0</ele><time>2026-04-24T15:12:10Z</time></trkpt><trkpt lat="42.393970780639826" lon="12.148941392059015"><ele>608.0</ele><time>2026-04-24T15:12:11Z</time></trkpt><trkpt lat="42.39393455713564" lon="12.149135174593647"><ele>609.0</ele><time>2026-04-24T15:12:12Z</time></trkpt><trkpt lat="42.393943060047036" lon="12.149343327276284"><ele>610.0</ele><time>2026-04-24T15:12:13Z</time></trkpt><trkpt lat="42.39395479780368" lon="12.149545873994676"><ele>610.0</ele><time>2026-04-24T15:12:14Z</time></trkpt><trkpt lat="42.39396687034252" lon="12.149771454357062"><ele>610.0</ele><time>2026-04-24T15:12:15Z</time></trkpt><trkpt lat="42.39399665002661" lon="12.149982391364883"><ele>610.0</ele><time>2026-04-24T15:12:16Z</time></trkpt><trkpt lat="42.39404816562384" lon="12.150191305427445"><ele>611.3333333333334</ele><time>2026-04-24T15:12:17Z</time></trkpt><trkpt lat="42.39408096736954" lon="12.150440829399518"><ele>612.6666666666666</ele><time>2026-04-24T15:12:18Z</time></trkpt><trkpt lat="42.39411545737132" lon="12.150677079953484"><ele>614.0</ele><time>2026-04-24T15:12:19Z</time></trkpt><trkpt lat="42.39414312303443" lon="12.15090120306815"><ele>615.0</ele><time>2026-04-24T15:12:20Z</time></trkpt><trkpt lat="42.394156421257215" lon="12.151098901645664"><ele>616.0</ele><time>2026-04-24T15:12:21Z</time></trkpt><trkpt lat="42.39416478122115" lon="12.15135516467871"><ele>617.0</ele><time>2026-04-24T15:12:22Z</time></trkpt><trkpt lat="42.39419378093874" lon="12.151553913148035"><ele>618.3333333333333</ele><time>2026-04-24T15:12:23Z</time></trkpt><trkpt lat="42.39422068509905" lon="12.151758339506793"><ele>619.6666666666666</ele><time>2026-04-24T15:12:24Z</time></trkpt><trkpt lat="42.39425809994154" lon="12.151964149753976"><ele>621.0</ele><time>2026-04-24T15:12:25Z</time></trkpt><trkpt lat="42.39430642768093" lon="12.152180268364484"><ele>623.0</ele><time>2026-04-24T15:12:26Z</time></trkpt><trkpt lat="42.394358607503655" lon="12.152433960047551"><ele>625.0</ele><time>2026-04-24T15:12:27Z</time></trkpt><trkpt lat="42.39440939222918" lon="12.152637575862855"><ele>627.0</ele><time>2026-04-24T15:12:28Z</time></trkpt><trkpt lat="42.39445607974079" lon="12.152831561897903"><ele>627.0</ele><time>2026-04-24T15:12:29Z</time></trkpt><trkpt lat="42.394500208603674" lon="12.153014773489309"><ele>627.0</ele><time>2026-04-24T15:12:30Z</time></trkpt><trkpt lat="42.39453925841865" lon="12.153195286310789"><ele>627.0</ele><time>2026-04-24T15:12:31Z</time></trkpt><trkpt lat="42.39456841688472" lon="12.15338497956991"><ele>627.0</ele><time>2026-04-24T15:12:32Z</time></trkpt><trkpt lat="42.394570933918445" lon="12.153575983719405"><ele>628.25</ele><time>2026-04-24T15:12:33Z</time></trkpt><trkpt lat="42.39457174114805" lon="12.153759213597958"><ele>629.5</ele><time>2026-04-24T15:12:34Z</time></trkpt><trkpt lat="42.39455652631285" lon="12.153939227429007"><ele>630.75</ele><time>2026-04-24T15:12:35Z</time></trkpt><trkpt lat="42.39452802837929" lon="12.15413931859959"><ele>632.0</ele><time>2026-04-24T15:12:36Z</time></trkpt><trkpt lat="42.394490167138905" lon="12.15434745397663"><ele>633.5</ele><time>2026-04-24T15:12:37Z</time></trkpt><trkpt lat="42.39443963832604" lon="12.154557686560622"><ele>635.0</ele><time>2026-04-24T15:12:38Z</time></trkpt><trkpt lat="42.394379147597945" lon="12.154731732858567"><ele>636.5</ele><time>2026-04-24T15:12:39Z</time></trkpt><trkpt lat="42.394336988424435" lon="12.154898574122758"><ele>638.0</ele><time>2026-04-24T15:12:40Z</time></trkpt><trkpt lat="42.3942865426673" lon="12.15507903747474"><ele>639.75</ele><time>2026-04-24T15:12:41Z</time></trkpt><trkpt lat="42.3942250927685" lon="12.155237607316801"><ele>641.5</ele><time>2026-04-24T15:12:42Z</time></trkpt><trkpt lat="42.39416059543743" lon="12.155396752681082"><ele>643.25</ele><time>2026-04-24T15:12:43Z</time></trkpt><trkpt lat="42.3940813189732" lon="12.155549366414446"><ele>645.0</ele><time>2026-04-24T15:12:44Z</time></trkpt><trkpt lat="42.393983782242074" lon="12.155685887133542"><ele>644.75</ele><time>2026-04-24T15:12:45Z</time></trkpt><trkpt lat="42.393891134154394" lon="12.155808123126603"><ele>644.5</ele><time>2026-04-24T15:12:46Z</time></trkpt><trkpt lat="42.393806704662346" lon="12.155936199122841"><ele>644.25</ele><time>2026-04-24T15:12:47Z</time></trkpt><trkpt lat="42.39372427472894" lon="12.156080239070056"><ele>644.0</ele><time>2026-04-24T15:12:48Z</time></trkpt><trkpt lat="42.39365456912271" lon="12.1562293433781"><ele>646.0</ele><time>2026-04-24T15:12:49Z</time></trkpt><trkpt lat="42.393597456667976" lon="12.156395226691606"><ele>648.0</ele><time>2026-04-24T15:12:50Z</time></trkpt><trkpt lat="42.39352857512239" lon="12.156569856899267"><ele>650.0</ele><time>2026-04-24T15:12:51Z</time></trkpt><trkpt lat="42.393487095414045" lon="12.156761834454953"><ele>652.0</ele><time>2026-04-24T15:12:52Z</time></trkpt><trkpt lat="42.3934614092065" lon="12.156990023379302"><ele>652.3333333333334</ele><time>2026-04-24T15:12:53Z</time></trkpt><trkpt lat="42.393425094134" lon="12.157220584269092"><ele>652.6666666666666</ele><time>2026-04-24T15:12:54Z</time></trkpt><trkpt lat="42.39339953441279" lon="12.157421569852119"><ele>653.0</ele><time>2026-04-24T15:12:55Z</time></trkpt><trkpt lat="42.39337901866917" lon="12.157640581196855"><ele>653.0</ele><time>2026-04-24T15:12:56Z</time></trkpt><trkpt lat="42.39335655240143" lon="12.15785901344043"><ele>653.0</ele><time>2026-04-24T15:12:57Z</time></trkpt><trkpt lat="42.39333043778366" lon="12.158078798402954"><ele>653.0</ele><time>2026-04-24T15:12:58Z</time></trkpt><trkpt lat="42.3932895200724" lon="12.158308033137816"><ele>654.0</ele><time>2026-04-24T15:12:59Z</time></trkpt><trkpt lat="42.39326840726147" lon="12.158525774707678"><ele>655.0</ele><time>2026-04-24T15:13:00Z</time></trkpt><trkpt lat="42.39325562099534" lon="12.158745449424341"><ele>656.0</ele><time>2026-04-24T15:13:01Z</time></trkpt><trkpt lat="42.39324090290207" lon="12.15896154725997"><ele>656.5</ele><time>2026-04-24T15:13:02Z</time></trkpt><trkpt lat="42.39323888358897" lon="12.159161585539797"><ele>657.0</ele><time>2026-04-24T15:13:03Z</time></trkpt><trkpt lat="42.393244449485685" lon="12.159354798326948"><ele>657.5</ele><time>2026-04-24T15:13:04Z</time></trkpt><trkpt lat="42.39323400689666" lon="12.159533391399059"><ele>658.0</ele><time>2026-04-24T15:13:05Z</time></trkpt><trkpt lat="42.393233064413735" lon="12.15969567760835"><ele>658.0</ele><time>2026-04-24T15:13:06Z</time></trkpt><trkpt lat="42.393213357435265" lon="12.15986345284061"><ele>658.0</ele><time>2026-04-24T15:13:07Z</time></trkpt><trkpt lat="42.39317268899782" lon="12.160030876390437"><ele>658.0</ele><time>2026-04-24T15:13:08Z</time></trkpt><trkpt lat="42.3931260645511" lon="12.160208799709778"><ele>658.0</ele><time>2026-04-24T15:13:09Z</time></trkpt><trkpt lat="42.393055148381855" lon="12.160395559625222"><ele>660.6666666666667</ele><time>2026-04-24T15:13:10Z</time></trkpt><trkpt lat="42.39297528062805" lon="12.160591711987456"><ele>663.3333333333334</ele><time>2026-04-24T15:13:11Z</time></trkpt><trkpt lat="42.39290104647561" lon="12.1607834325933"><ele>666.0</ele><time>2026-04-24T15:13:12Z</time></trkpt><trkpt lat="42.392833475757456" lon="12.160983178129404"><ele>667.0</ele><time>2026-04-24T15:13:13Z</time></trkpt><trkpt lat="42.3927708859625" lon="12.161168422118099"><ele>668.0</ele><time>2026-04-24T15:13:14Z</time></trkpt><trkpt lat="42.392723471411074" lon="12.161380273698388"><ele>669.0</ele><time>2026-04-24T15:13:15Z</time></trkpt><trkpt lat="42.392673582832714" lon="12.161589487855217"><ele>669.5</ele><time>2026-04-24T15:13:16Z</time></trkpt><trkpt lat="42.39262568063377" lon="12.161786000189133"><ele>670.0</ele><time>2026-04-24T15:13:17Z</time></trkpt><trkpt lat="42.392574553650775" lon="12.161973768431823"><ele>670.5</ele><time>2026-04-24T15:13:18Z</time></trkpt><trkpt lat="42.39253366654691" lon="12.162135303405304"><ele>671.0</ele><time>2026-04-24T15:13:19Z</time></trkpt><trkpt lat="42.392491433865345" lon="12.162307689249362"><ele>672.0</ele><time>2026-04-24T15:13:20Z</time></trkpt><trkpt lat="42.39244831052691" lon="12.162499279034986"><ele>673.0</ele><time>2026-04-24T15:13:21Z</time></trkpt><trkpt lat="42.3924126818684" lon="12.162663660508983"><ele>674.0</ele><time>2026-04-24T15:13:22Z</time></trkpt><trkpt lat="42.39237940106407" lon="12.162835019902428"><ele>675.0</ele><time>2026-04-24T15:13:23Z</time></trkpt><trkpt lat="42.3923668473432" lon="12.163012234674467"><ele>675.0</ele><time>2026-04-24T15:13:24Z</time></trkpt><trkpt lat="42.39238198584796" lon="12.163195002796709"><ele>675.0</ele><time>2026-04-24T15:13:25Z</time></trkpt><trkpt lat="42.39241296700025" lon="12.163388225559672"><ele>675.0</ele><time>2026-04-24T15:13:26Z</time></trkpt><trkpt lat="42.39246813018957" lon="12.163578313747534"><ele>675.0</ele><time>2026-04-24T15:13:27Z</time></trkpt><trkpt lat="42.39254372073369" lon="12.163768990145323"><ele>677.0</ele><time>2026-04-24T15:13:28Z</time></trkpt><trkpt lat="42.39262998235349" lon="12.163964548131561"><ele>679.0</ele><time>2026-04-24T15:13:29Z</time></trkpt><trkpt lat="42.3927096133446" lon="12.16416169904761"><ele>681.0</ele><time>2026-04-24T15:13:30Z</time></trkpt><trkpt lat="42.39278105279046" lon="12.16435893355975"><ele>683.3333333333334</ele><time>2026-04-24T15:13:31Z</time></trkpt><trkpt lat="42.39285232904812" lon="12.16455529541011"><ele>685.6666666666667</ele><time>2026-04-24T15:13:32Z</time></trkpt><trkpt lat="42.39292341902129" lon="12.16474673824324"><ele>688.0</ele><time>2026-04-24T15:13:33Z</time></trkpt><trkpt lat="42.392986975525346" lon="12.164931685666398"><ele>686.0</ele><time>2026-04-24T15:13:34Z</time></trkpt><trkpt lat="42.39304415925567" lon="12.165114218667036"><ele>684.0</ele><time>2026-04-24T15:13:35Z</time></trkpt><trkpt lat="42.39309938652031" lon="12.165299663478558"><ele>682.0</ele><time>2026-04-24T15:13:36Z</time></trkpt><trkpt lat="42.39314764596328" lon="12.165488194444082"><ele>680.0</ele><time>2026-04-24T15:13:37Z</time></trkpt><trkpt lat="42.39318898020041" lon="12.16568423550769"><ele>681.3333333333333</ele><time>2026-04-24T15:13:38Z</time></trkpt><trkpt lat="42.39321864987938" lon="12.165886821733592"><ele>682.6666666666666</ele><time>2026-04-24T15:13:39Z</time></trkpt><trkpt lat="42.39323774356767" lon="12.166096701598743"><ele>684.0</ele><time>2026-04-24T15:13:40Z</time></trkpt><trkpt lat="42.39324781356089" lon="12.166326609024487"><ele>686.0</ele><time>2026-04-24T15:13:41Z</time></trkpt><trkpt lat="42.39324677244458" lon="12.166560688422024"><ele>688.0</ele><time>2026-04-24T15:13:42Z</time></trkpt><trkpt lat="42.39322407496179" lon="12.166803178620988"><ele>690.0</ele><time>2026-04-24T15:13:43Z</time></trkpt><trkpt lat="42.39319958406006" lon="12.167048289089413"><ele>690.0</ele><time>2026-04-24T15:13:44Z</time></trkpt><trkpt lat="42.39316271258429" lon="12.167303643803999"><ele>690.0</ele><time>2026-04-24T15:13:45Z</time></trkpt><trkpt lat="42.393127811955495" lon="12.167531768112251"><ele>690.0</ele><time>2026-04-24T15:13:46Z</time></trkpt><trkpt lat="42.39310670076248" lon="12.167739527414437"><ele>690.0</ele><time>2026-04-24T15:13:47Z</time></trkpt><trkpt lat="42.39308741266519" lon="12.167950819193956"><ele>690.0</ele><time>2026-04-24T15:13:48Z</time></trkpt><trkpt lat="42.39306821891795" lon="12.168164474606677"><ele>690.0</ele><time>2026-04-24T15:13:49Z</time></trkpt><trkpt lat="42.39305083385017" lon="12.168370065016795"><ele>690.75</ele><time>2026-04-24T15:13:50Z</time></trkpt><trkpt lat="42.393032524384125" lon="12.16857792730691"><ele>691.5</ele><time>2026-04-24T15:13:51Z</time></trkpt><trkpt lat="42.39301212408506" lon="12.168771494196733"><ele>692.25</ele><time>2026-04-24T15:13:52Z</time></trkpt><trkpt lat="42.39300006282452" lon="12.168966616177087"><ele>693.0</ele><time>2026-04-24T15:13:53Z</time></trkpt><trkpt lat="42.39300198277075" lon="12.169159471650786"><ele>693.75</ele><time>2026-04-24T15:13:54Z</time></trkpt><trkpt lat="42.39300452375565" lon="12.169364116855428"><ele>694.5</ele><time>2026-04-24T15:13:55Z</time></trkpt><trkpt lat="42.39301953999134" lon="12.169554352309769"><ele>695.25</ele><time>2026-04-24T15:13:56Z</time></trkpt><trkpt lat="42.39302210973922" lon="12.16973696152046"><ele>696.0</ele><time>2026-04-24T15:13:57Z</time></trkpt><trkpt lat="42.39302891286503" lon="12.169934269936109"><ele>698.0</ele><time>2026-04-24T15:13:58Z</time></trkpt><trkpt lat="42.393044048108834" lon="12.17014324076503"><ele>700.0</ele><time>2026-04-24T15:13:59Z</time></trkpt><trkpt lat="42.39305189626841" lon="12.17032731946104"><ele>702.0</ele><time>2026-04-24T15:14:00Z</time></trkpt><trkpt lat="42.393044110505315" lon="12.170554160727228"><ele>702.75</ele><time>2026-04-24T15:14:01Z</time></trkpt><trkpt lat="42.39301372723229" lon="12.170722224774346"><ele>703.5</ele><time>2026-04-24T15:14:02Z</time></trkpt><trkpt lat="42.39299507581189" lon="12.170888378620022"><ele>704.25</ele><time>2026-04-24T15:14:03Z</time></trkpt><trkpt lat="42.3929454323841" lon="12.171052847779443"><ele>705.0</ele><time>2026-04-24T15:14:04Z</time></trkpt><trkpt lat="42.39290183675891" lon="12.171209436639584"><ele>705.2</ele><time>2026-04-24T15:14:05Z</time></trkpt><trkpt lat="42.392849083169104" lon="12.171321683511524"><ele>705.4</ele><time>2026-04-24T15:14:06Z</time></trkpt><trkpt lat="42.39278095624455" lon="12.171412236856694"><ele>705.5999999999999</ele><time>2026-04-24T15:14:07Z</time></trkpt><trkpt lat="42.39270263345975" lon="12.171512880736355"><ele>705.8</ele><time>2026-04-24T15:14:08Z</time></trkpt><trkpt lat="42.39261050235999" lon="12.171606758847924"><ele>706.0</ele><time>2026-04-24T15:14:09Z</time></trkpt><trkpt lat="42.39252316994589" lon="12.171711547458118"><ele>705.25</ele><time>2026-04-24T15:14:10Z</time></trkpt><trkpt lat="42.39242603022901" lon="12.171815751023063"><ele>704.5</ele><time>2026-04-24T15:14:11Z</time></trkpt><trkpt lat="42.39233404763096" lon="12.171919916575183"><ele>703.75</ele><time>2026-04-24T15:14:12Z</time></trkpt><trkpt lat="42.392225798640105" lon="12.172011406603358"><ele>703.0</ele><time>2026-04-24T15:14:13Z</time></trkpt><trkpt lat="42.392091874478126" lon="12.172102864591709"><ele>705.0</ele><time>2026-04-24T15:14:14Z</time></trkpt><trkpt lat="42.39195508468529" lon="12.172196263639336"><ele>707.0</ele><time>2026-04-24T15:14:15Z</time></trkpt><trkpt lat="42.391827835824216" lon="12.172261600982539"><ele>709.0</ele><time>2026-04-24T15:14:16Z</time></trkpt><trkpt lat="42.391693749974486" lon="12.172347446868802"><ele>711.0</ele><time>2026-04-24T15:14:17Z</time></trkpt><trkpt lat="42.39156109108699" lon="12.172416843826438"><ele>711.0</ele><time>2026-04-24T15:14:18Z</time></trkpt><trkpt lat="42.391424235454416" lon="12.172490532970917"><ele>711.0</ele><time>2026-04-24T15:14:19Z</time></trkpt><trkpt lat="42.39128964050277" lon="12.172582065014062"><ele>711.0</ele><time>2026-04-24T15:14:20Z</time></trkpt><trkpt lat="42.39114504032516" lon="12.172681795007493"><ele>710.6666666666666</ele><time>2026-04-24T15:14:21Z</time></trkpt><trkpt lat="42.390992996295125" lon="12.172786674005778"><ele>710.3333333333333</ele><time>2026-04-24T15:14:22Z</time></trkpt><trkpt lat="42.39086424250496" lon="12.172896361762627"><ele>710.0</ele><time>2026-04-24T15:14:23Z</time></trkpt><trkpt lat="42.390750330459575" lon="12.173020058371826"><ele>710.0</ele><time>2026-04-24T15:14:24Z</time></trkpt><trkpt lat="42.390645478372946" lon="12.173154377360465"><ele>710.0</ele><time>2026-04-24T15:14:25Z</time></trkpt><trkpt lat="42.390544321144944" lon="12.173293787474714"><ele>710.0</ele><time>2026-04-24T15:14:26Z</time></trkpt><trkpt lat="42.39045081944729" lon="12.173435413550685"><ele>710.0</ele><time>2026-04-24T15:14:27Z</time></trkpt><trkpt lat="42.390376047939746" lon="12.173581808588018"><ele>712.0</ele><time>2026-04-24T15:14:28Z</time></trkpt><trkpt lat="42.390289893615595" lon="12.173734041804618"><ele>714.0</ele><time>2026-04-24T15:14:29Z</time></trkpt><trkpt lat="42.390207829812454" lon="12.173887590635642"><ele>716.0</ele><time>2026-04-24T15:14:30Z</time></trkpt><trkpt lat="42.39012297545243" lon="12.174051266260987"><ele>718.0</ele><time>2026-04-24T15:14:31Z</time></trkpt><trkpt lat="42.39003147216814" lon="12.174216183171374"><ele>718.25</ele><time>2026-04-24T15:14:32Z</time></trkpt><trkpt lat="42.389942321279534" lon="12.174379517624908"><ele>718.5</ele><time>2026-04-24T15:14:33Z</time></trkpt><trkpt lat="42.389862682422624" lon="12.174528463437325"><ele>718.75</ele><time>2026-04-24T15:14:34Z</time></trkpt><trkpt lat="42.389777810647736" lon="12.17468822005151"><ele>719.0</ele><time>2026-04-24T15:14:35Z</time></trkpt><trkpt lat="42.38969580646391" lon="12.174859986311352"><ele>720.5</ele><time>2026-04-24T15:14:36Z</time></trkpt><trkpt lat="42.389615528269616" lon="12.17501644988573"><ele>722.0</ele><time>2026-04-24T15:14:37Z</time></trkpt><trkpt lat="42.38952465888134" lon="12.175185791989275"><ele>723.5</ele><time>2026-04-24T15:14:38Z</time></trkpt><trkpt lat="42.38944267989676" lon="12.175346666004888"><ele>725.0</ele><time>2026-04-24T15:14:39Z</time></trkpt><trkpt lat="42.38937236279013" lon="12.175525539762429"><ele>725.0</ele><time>2026-04-24T15:14:40Z</time></trkpt><trkpt lat="42.38929743161635" lon="12.175688448011515"><ele>725.0</ele><time>2026-04-24T15:14:41Z</time></trkpt><trkpt lat="42.38922458798539" lon="12.17585245334158"><ele>725.0</ele><time>2026-04-24T15:14:42Z</time></trkpt><trkpt lat="42.389150413445" lon="12.176025000034652"><ele>725.0</ele><time>2026-04-24T15:14:43Z</time></trkpt><trkpt lat="42.38908507671411" lon="12.1762132550901"><ele>725.0</ele><time>2026-04-24T15:14:44Z</time></trkpt><trkpt lat="42.38902273469388" lon="12.17641972009525"><ele>725.0</ele><time>2026-04-24T15:14:45Z</time></trkpt><trkpt lat="42.38896127011286" lon="12.176623718170479"><ele>725.0</ele><time>2026-04-24T15:14:46Z</time></trkpt><trkpt lat="42.38888459047073" lon="12.176829962718704"><ele>725.0</ele><time>2026-04-24T15:14:47Z</time></trkpt><trkpt lat="42.38881302093367" lon="12.177031128724431"><ele>725.0</ele><time>2026-04-24T15:14:48Z</time></trkpt><trkpt lat="42.388746131092084" lon="12.177252412877676"><ele>725.0</ele><time>2026-04-24T15:14:49Z</time></trkpt><trkpt lat="42.388677411885645" lon="12.177461859264955"><ele>725.0</ele><time>2026-04-24T15:14:50Z</time></trkpt><trkpt lat="42.388599406053075" lon="12.177667436515232"><ele>725.0</ele><time>2026-04-24T15:14:51Z</time></trkpt><trkpt lat="42.38852829561071" lon="12.177875831576138"><ele>725.0</ele><time>2026-04-24T15:14:52Z</time></trkpt><trkpt lat="42.38846049325471" lon="12.178122058612745"><ele>726.3333333333333</ele><time>2026-04-24T15:14:53Z</time></trkpt><trkpt lat="42.388382164628666" lon="12.178380109752723"><ele>727.6666666666666</ele><time>2026-04-24T15:14:54Z</time></trkpt><trkpt lat="42.38831015919771" lon="12.178615834289973"><ele>729.0</ele><time>2026-04-24T15:14:55Z</time></trkpt><trkpt lat="42.38824185602938" lon="12.178834587396933"><ele>732.3333333333334</ele><time>2026-04-24T15:14:56Z</time></trkpt><trkpt lat="42.38817159287647" lon="12.17905155593663"><ele>735.6666666666667</ele><time>2026-04-24T15:14:57Z</time></trkpt><trkpt lat="42.388112059728215" lon="12.179263897454854"><ele>739.0</ele><time>2026-04-24T15:14:58Z</time></trkpt><trkpt lat="42.38804469004673" lon="12.179489272718982"><ele>737.0</ele><time>2026-04-24T15:14:59Z</time></trkpt><trkpt lat="42.38798527266606" lon="12.179689252931464"><ele>735.0</ele><time>2026-04-24T15:15:00Z</time></trkpt><trkpt lat="42.387917690042876" lon="12.17990584725676"><ele>733.0</ele><time>2026-04-24T15:15:01Z</time></trkpt><trkpt lat="42.38784684454157" lon="12.180093046911399"><ele>736.0</ele><time>2026-04-24T15:15:02Z</time></trkpt><trkpt lat="42.38780348616443" lon="12.180289879111495"><ele>739.0</ele><time>2026-04-24T15:15:03Z</time></trkpt><trkpt lat="42.38774255824719" lon="12.180487940761846"><ele>742.0</ele><time>2026-04-24T15:15:04Z</time></trkpt><trkpt lat="42.387693128509746" lon="12.180663930873335"><ele>745.0</ele><time>2026-04-24T15:15:05Z</time></trkpt><trkpt lat="42.38763789220477" lon="12.180837524514622"><ele>747.0</ele><time>2026-04-24T15:15:06Z</time></trkpt><trkpt lat="42.387587386332065" lon="12.180989230884345"><ele>749.0</ele><time>2026-04-24T15:15:07Z</time></trkpt><trkpt lat="42.387533322114614" lon="12.181148746720112"><ele>751.0</ele><time>2026-04-24T15:15:08Z</time></trkpt><trkpt lat="42.38746351110292" lon="12.181284600452896"><ele>753.0</ele><time>2026-04-24T15:15:09Z</time></trkpt><trkpt lat="42.38737597356204" lon="12.181415180331827"><ele>754.0</ele><time>2026-04-24T15:15:10Z</time></trkpt><trkpt lat="42.387261220283534" lon="12.181523430188188"><ele>755.0</ele><time>2026-04-24T15:15:11Z</time></trkpt><trkpt lat="42.38713253489517" lon="12.18161612948648"><ele>756.0</ele><time>2026-04-24T15:15:12Z</time></trkpt><trkpt lat="42.38698332172171" lon="12.181681688341895"><ele>757.0</ele><time>2026-04-24T15:15:13Z</time></trkpt><trkpt lat="42.38681013657367" lon="12.181787992675643"><ele>757.0</ele><time>2026-04-24T15:15:14Z</time></trkpt><trkpt lat="42.38665490353259" lon="12.181872350563639"><ele>757.0</ele><time>2026-04-24T15:15:15Z</time></trkpt><trkpt lat="42.386522104027605" lon="12.181955637765707"><ele>757.0</ele><time>2026-04-24T15:15:16Z</time></trkpt><trkpt lat="42.38633365802599" lon="12.182023246408104"><ele>758.0</ele><time>2026-04-24T15:15:17Z</time></trkpt><trkpt lat="42.38618488222014" lon="12.18210086457202"><ele>759.0</ele><time>2026-04-24T15:15:18Z</time></trkpt><trkpt lat="42.386035629472715" lon="12.182158682483834"><ele>760.0</ele><time>2026-04-24T15:15:19Z</time></trkpt><trkpt lat="42.3858909522125" lon="12.182219762119667"><ele>760.0</ele><time>2026-04-24T15:15:20Z</time></trkpt><trkpt lat="42.38574842131201" lon="12.182264735419922"><ele>760.0</ele><time>2026-04-24T15:15:21Z</time></trkpt><trkpt lat="42.38560024219469" lon="12.182314989758106"><ele>760.0</ele><time>2026-04-24T15:15:22Z</time></trkpt><trkpt lat="42.38545075286455" lon="12.18236973479351"><ele>760.0</ele><time>2026-04-24T15:15:23Z</time></trkpt><trkpt lat="42.38530662260977" lon="12.182413899394597"><ele>760.0</ele><time>2026-04-24T15:15:24Z</time></trkpt><trkpt lat="42.385158693024934" lon="12.182460052674868"><ele>760.0</ele><time>2026-04-24T15:15:25Z</time></trkpt><trkpt lat="42.38501971443419" lon="12.182517560944696"><ele>760.0</ele><time>2026-04-24T15:15:26Z</time></trkpt><trkpt lat="42.38487751642625" lon="12.182559654563391"><ele>760.0</ele><time>2026-04-24T15:15:27Z</time></trkpt><trkpt lat="42.38473077083116" lon="12.182609837625748"><ele>760.0</ele><time>2026-04-24T15:15:28Z</time></trkpt><trkpt lat="42.38458992150286" lon="12.182660758841925"><ele>760.0</ele><time>2026-04-24T15:15:29Z</time></trkpt><trkpt lat="42.38445053144802" lon="12.182721822877424"><ele>760.0</ele><time>2026-04-24T15:15:30Z</time></trkpt><trkpt lat="42.38430856265881" lon="12.182773227641302"><ele>761.0</ele><time>2026-04-24T15:15:31Z</time></trkpt><trkpt lat="42.384159978120486" lon="12.182824224048037"><ele>762.0</ele><time>2026-04-24T15:15:32Z</time></trkpt><trkpt lat="42.38401154913477" lon="12.18285812560908"><ele>763.0</ele><time>2026-04-24T15:15:33Z</time></trkpt><trkpt lat="42.38384256250785" lon="12.182887511176546"><ele>763.6666666666667</ele><time>2026-04-24T15:15:34Z</time></trkpt><trkpt lat="42.38367570989858" lon="12.18289837090649"><ele>764.3333333333334</ele><time>2026-04-24T15:15:35Z</time></trkpt><trkpt lat="42.383524206579516" lon="12.182914920979192"><ele>765.0</ele><time>2026-04-24T15:15:36Z</time></trkpt><trkpt lat="42.3833493251782" lon="12.182926240729817"><ele>765.0</ele><time>2026-04-24T15:15:37Z</time></trkpt><trkpt lat="42.38320369281009" lon="12.18293769789578"><ele>765.0</ele><time>2026-04-24T15:15:38Z</time></trkpt><trkpt lat="42.38306141517226" lon="12.182954215902512"><ele>765.0</ele><time>2026-04-24T15:15:39Z</time></trkpt><trkpt lat="42.3829240356631" lon="12.182982530454103"><ele>765.0</ele><time>2026-04-24T15:15:40Z</time></trkpt><trkpt lat="42.3827905399911" lon="12.183030295352937"><ele>764.75</ele><time>2026-04-24T15:15:41Z</time></trkpt><trkpt lat="42.382646902107886" lon="12.183092063311536"><ele>764.5</ele><time>2026-04-24T15:15:42Z</time></trkpt><trkpt lat="42.38250531382524" lon="12.183128898208661"><ele>764.25</ele><time>2026-04-24T15:15:43Z</time></trkpt><trkpt lat="42.382378159683476" lon="12.183205353575179"><ele>764.0</ele><time>2026-04-24T15:15:44Z</time></trkpt><trkpt lat="42.38225746632942" lon="12.18329030885889"><ele>766.0</ele><time>2026-04-24T15:15:45Z</time></trkpt><trkpt lat="42.38213894775898" lon="12.183381120604281"><ele>768.0</ele><time>2026-04-24T15:15:46Z</time></trkpt><trkpt lat="42.38203861044839" lon="12.18349974704432"><ele>770.0</ele><time>2026-04-24T15:15:47Z</time></trkpt><trkpt lat="42.381935095917825" lon="12.183628268118216"><ele>772.0</ele><time>2026-04-24T15:15:48Z</time></trkpt><trkpt lat="42.38183826927612" lon="12.183774417459288"><ele>772.0</ele><time>2026-04-24T15:15:49Z</time></trkpt><trkpt lat="42.38171343978128" lon="12.183928117044074"><ele>772.0</ele><time>2026-04-24T15:15:50Z</time></trkpt><trkpt lat="42.381610425361885" lon="12.184096880847141"><ele>772.0</ele><time>2026-04-24T15:15:51Z</time></trkpt><trkpt lat="42.381490333888514" lon="12.184249399390273"><ele>772.3333333333333</ele><time>2026-04-24T15:15:52Z</time></trkpt><trkpt lat="42.38138409414229" lon="12.18442392878055"><ele>772.6666666666667</ele><time>2026-04-24T15:15:53Z</time></trkpt><trkpt lat="42.38127351880756" lon="12.184586878911116"><ele>773.0</ele><time>2026-04-24T15:15:54Z</time></trkpt><trkpt lat="42.3811695419041" lon="12.184725036904208"><ele>774.0</ele><time>2026-04-24T15:15:55Z</time></trkpt><trkpt lat="42.38106956747027" lon="12.184866115300794"><ele>775.0</ele><time>2026-04-24T15:15:56Z</time></trkpt><trkpt lat="42.380976472029054" lon="12.18500767435307"><ele>776.0</ele><time>2026-04-24T15:15:57Z</time></trkpt><trkpt lat="42.38086048839616" lon="12.1851219527931"><ele>777.0</ele><time>2026-04-24T15:15:58Z</time></trkpt><trkpt lat="42.3807449164834" lon="12.185214165172573"><ele>777.0</ele><time>2026-04-24T15:15:59Z</time></trkpt><trkpt lat="42.38063617008127" lon="12.185284209295952"><ele>777.0</ele><time>2026-04-24T15:16:00Z</time></trkpt><trkpt lat="42.38051600228876" lon="12.185345294999296"><ele>777.0</ele><time>2026-04-24T15:16:01Z</time></trkpt><trkpt lat="42.380397368190295" lon="12.185384861746446"><ele>777.0</ele><time>2026-04-24T15:16:02Z</time></trkpt><trkpt lat="42.380281921463656" lon="12.18537899310787"><ele>778.25</ele><time>2026-04-24T15:16:03Z</time></trkpt><trkpt lat="42.38018351051938" lon="12.185327962227401"><ele>779.5</ele><time>2026-04-24T15:16:04Z</time></trkpt><trkpt lat="42.380075871532455" lon="12.18527102982122"><ele>780.75</ele><time>2026-04-24T15:16:05Z</time></trkpt><trkpt lat="42.37993673015973" lon="12.185156144669913"><ele>782.0</ele><time>2026-04-24T15:16:06Z</time></trkpt><trkpt lat="42.37983456000614" lon="12.185091087012738"><ele>782.0</ele><time>2026-04-24T15:16:07Z</time></trkpt><trkpt lat="42.379723694876006" lon="12.185033851657833"><ele>782.0</ele><time>2026-04-24T15:16:08Z</time></trkpt><trkpt lat="42.37960504796454" lon="12.184972099425456"><ele>782.0</ele><time>2026-04-24T15:16:09Z</time></trkpt><trkpt lat="42.37948029634378" lon="12.184910803319521"><ele>782.0</ele><time>2026-04-24T15:16:10Z</time></trkpt><trkpt lat="42.37934925263517" lon="12.184876367053034"><ele>783.25</ele><time>2026-04-24T15:16:11Z</time></trkpt><trkpt lat="42.379210572779016" lon="12.184860591592269"><ele>784.5</ele><time>2026-04-24T15:16:12Z</time></trkpt><trkpt lat="42.379059909261294" lon="12.184871643990368"><ele>785.75</ele><time>2026-04-24T15:16:13Z</time></trkpt><trkpt lat="42.37891677949854" lon="12.1849102168808"><ele>787.0</ele><time>2026-04-24T15:16:14Z</time></trkpt><trkpt lat="42.37875220518231" lon="12.184919051570878"><ele>787.5</ele><time>2026-04-24T15:16:15Z</time></trkpt><trkpt lat="42.37859580490817" lon="12.184933164279146"><ele>788.0</ele><time>2026-04-24T15:16:16Z</time></trkpt><trkpt lat="42.37846966779657" lon="12.184932418819923"><ele>788.5</ele><time>2026-04-24T15:16:17Z</time></trkpt><trkpt lat="42.37832754293756" lon="12.184914678973298"><ele>789.0</ele><time>2026-04-24T15:16:18Z</time></trkpt><trkpt lat="42.378187209695206" lon="12.184893880924356"><ele>789.0</ele><time>2026-04-24T15:16:19Z</time></trkpt><trkpt lat="42.378052979629" lon="12.184870756175698"><ele>789.0</ele><time>2026-04-24T15:16:20Z</time></trkpt><trkpt lat="42.37788651607856" lon="12.184839567485417"><ele>789.0</ele><time>2026-04-24T15:16:21Z</time></trkpt><trkpt lat="42.377731604612556" lon="12.184785277446043"><ele>786.5</ele><time>2026-04-24T15:16:22Z</time></trkpt><trkpt lat="42.37759927877135" lon="12.184773101789332"><ele>784.0</ele><time>2026-04-24T15:16:23Z</time></trkpt><trkpt lat="42.37747294914346" lon="12.184756576232466"><ele>781.5</ele><time>2026-04-24T15:16:24Z</time></trkpt><trkpt lat="42.377342347829405" lon="12.184726263599357"><ele>779.0</ele><time>2026-04-24T15:16:25Z</time></trkpt><trkpt lat="42.377201465824996" lon="12.184692238182615"><ele>779.0</ele><time>2026-04-24T15:16:26Z</time></trkpt><trkpt lat="42.37706727358644" lon="12.184667160717938"><ele>779.0</ele><time>2026-04-24T15:16:27Z</time></trkpt><trkpt lat="42.376935568488435" lon="12.184645550663001"><ele>779.0</ele><time>2026-04-24T15:16:28Z</time></trkpt><trkpt lat="42.376800527950444" lon="12.184634492080844"><ele>779.0</ele><time>2026-04-24T15:16:29Z</time></trkpt><trkpt lat="42.3766665398654" lon="12.18463797053635"><ele>779.0</ele><time>2026-04-24T15:16:30Z</time></trkpt><trkpt lat="42.37652434098481" lon="12.184649275641135"><ele>779.0</ele><time>2026-04-24T15:16:31Z</time></trkpt><trkpt lat="42.37639911719079" lon="12.18467806314944"><ele>779.0</ele><time>2026-04-24T15:16:32Z</time></trkpt><trkpt lat="42.37627207026138" lon="12.184705876005951"><ele>779.0</ele><time>2026-04-24T15:16:33Z</time></trkpt><trkpt lat="42.37614703334786" lon="12.184743799945636"><ele>778.25</ele><time>2026-04-24T15:16:34Z</time></trkpt><trkpt lat="42.37602473998216" lon="12.184790226873332"><ele>777.5</ele><time>2026-04-24T15:16:35Z</time></trkpt><trkpt lat="42.375906961860565" lon="12.184849073852702"><ele>776.75</ele><time>2026-04-24T15:16:36Z</time></trkpt><trkpt lat="42.37579408584157" lon="12.18493452798882"><ele>776.0</ele><time>2026-04-24T15:16:37Z</time></trkpt><trkpt lat="42.37568916320564" lon="12.185042212720036"><ele>780.6666666666667</ele><time>2026-04-24T15:16:38Z</time></trkpt><trkpt lat="42.375576783028926" lon="12.185152558957247"><ele>785.3333333333333</ele><time>2026-04-24T15:16:39Z</time></trkpt><trkpt lat="42.37543766990815" lon="12.185286212317568"><ele>790.0</ele><time>2026-04-24T15:16:40Z</time></trkpt><trkpt lat="42.37531962994362" lon="12.185414713792806"><ele>790.0</ele><time>2026-04-24T15:16:41Z</time></trkpt><trkpt lat="42.37519013099943" lon="12.185528935049994"><ele>790.0</ele><time>2026-04-24T15:16:42Z</time></trkpt><trkpt lat="42.375046441642674" lon="12.18562030309694"><ele>790.0</ele><time>2026-04-24T15:16:43Z</time></trkpt><trkpt lat="42.374899132693145" lon="12.185695167302779"><ele>792.0</ele><time>2026-04-24T15:16:44Z</time></trkpt><trkpt lat="42.37476160631714" lon="12.185775853348687"><ele>794.0</ele><time>2026-04-24T15:16:45Z</time></trkpt><trkpt lat="42.374643093856946" lon="12.185851722643843"><ele>796.0</ele><time>2026-04-24T15:16:46Z</time></trkpt><trkpt lat="42.37451753366905" lon="12.185926055463485"><ele>798.0</ele><time>2026-04-24T15:16:47Z</time></trkpt><trkpt lat="42.37440149471936" lon="12.18600910570244"><ele>798.5</ele><time>2026-04-24T15:16:48Z</time></trkpt><trkpt lat="42.3742706958241" lon="12.18607371883473"><ele>799.0</ele><time>2026-04-24T15:16:49Z</time></trkpt><trkpt lat="42.37417274505875" lon="12.186191952028393"><ele>799.5</ele><time>2026-04-24T15:16:50Z</time></trkpt><trkpt lat="42.37406676597572" lon="12.186260613752497"><ele>800.0</ele><time>2026-04-24T15:16:51Z</time></trkpt><trkpt lat="42.37398100845771" lon="12.186387282970093"><ele>800.5</ele><time>2026-04-24T15:16:52Z</time></trkpt><trkpt lat="42.37388006551359" lon="12.186512883557251"><ele>801.0</ele><time>2026-04-24T15:16:53Z</time></trkpt><trkpt lat="42.3738032855085" lon="12.18662900314377"><ele>801.5</ele><time>2026-04-24T15:16:54Z</time></trkpt><trkpt lat="42.37370944941916" lon="12.186747208617428"><ele>802.0</ele><time>2026-04-24T15:16:55Z</time></trkpt><trkpt lat="42.37360702892584" lon="12.186845275876388"><ele>802.0</ele><time>2026-04-24T15:16:56Z</time></trkpt><trkpt lat="42.37351196754738" lon="12.18693443717613"><ele>802.0</ele><time>2026-04-24T15:16:57Z</time></trkpt><trkpt lat="42.373410322956985" lon="12.18701437006691"><ele>802.0</ele><time>2026-04-24T15:16:58Z</time></trkpt><trkpt lat="42.37328794091535" lon="12.187073669241798"><ele>802.0</ele><time>2026-04-24T15:16:59Z</time></trkpt><trkpt lat="42.373148640746706" lon="12.187119010306313"><ele>801.0</ele><time>2026-04-24T15:17:00Z</time></trkpt><trkpt lat="42.37299545353913" lon="12.187154470041303"><ele>800.0</ele><time>2026-04-24T15:17:01Z</time></trkpt><trkpt lat="42.37284387861717" lon="12.187171502246034"><ele>799.0</ele><time>2026-04-24T15:17:02Z</time></trkpt><trkpt lat="42.37270238084443" lon="12.187188356693664"><ele>799.0</ele><time>2026-04-24T15:17:03Z</time></trkpt><trkpt lat="42.372560523204186" lon="12.187210008135246"><ele>799.0</ele><time>2026-04-24T15:17:04Z</time></trkpt><trkpt lat="42.37241246153856" lon="12.187256007990696"><ele>799.0</ele><time>2026-04-24T15:17:05Z</time></trkpt><trkpt lat="42.372277036739284" lon="12.187329769295113"><ele>799.0</ele><time>2026-04-24T15:17:06Z</time></trkpt><trkpt lat="42.37216505415197" lon="12.187393508390441"><ele>801.2</ele><time>2026-04-24T15:17:07Z</time></trkpt><trkpt lat="42.37205255727619" lon="12.187435339108346"><ele>803.4000000000001</ele><time>2026-04-24T15:17:08Z</time></trkpt><trkpt lat="42.37194407160381" lon="12.187476924813202"><ele>805.6</ele><time>2026-04-24T15:17:09Z</time></trkpt><trkpt lat="42.37185112663502" lon="12.187499519347794"><ele>807.8</ele><time>2026-04-24T15:17:10Z</time></trkpt><trkpt lat="42.371751072392094" lon="12.187520699839169"><ele>810.0</ele><time>2026-04-24T15:17:11Z</time></trkpt><trkpt lat="42.371645601984" lon="12.187503372006542"><ele>810.0</ele><time>2026-04-24T15:17:12Z</time></trkpt><trkpt lat="42.371539058108425" lon="12.187455656959198"><ele>810.0</ele><time>2026-04-24T15:17:13Z</time></trkpt><trkpt lat="42.37144979632928" lon="12.187401072132463"><ele>810.0</ele><time>2026-04-24T15:17:14Z</time></trkpt><trkpt lat="42.37133699763925" lon="12.187302057948983"><ele>810.0</ele><time>2026-04-24T15:17:15Z</time></trkpt><trkpt lat="42.371225911823046" lon="12.187215353371972"><ele>809.75</ele><time>2026-04-24T15:17:16Z</time></trkpt><trkpt lat="42.37109887212209" lon="12.187111366653658"><ele>809.5</ele><time>2026-04-24T15:17:17Z</time></trkpt><trkpt lat="42.3709957340446" lon="12.187050951669674"><ele>809.25</ele><time>2026-04-24T15:17:18Z</time></trkpt><trkpt lat="42.37089636266142" lon="12.186992884528614"><ele>809.0</ele><time>2026-04-24T15:17:19Z</time></trkpt><trkpt lat="42.37075487254662" lon="12.186938865338078"><ele>809.0</ele><time>2026-04-24T15:17:21Z</time></trkpt><trkpt lat="42.37064735057562" lon="12.186908792784362"><ele>809.0</ele><time>2026-04-24T15:17:22Z</time></trkpt><trkpt lat="42.370558814706236" lon="12.18697729902402"><ele>809.0</ele><time>2026-04-24T15:17:23Z</time></trkpt><trkpt lat="42.370456819306355" lon="12.187003467713359"><ele>809.0</ele><time>2026-04-24T15:17:24Z</time></trkpt><trkpt lat="42.37037102002734" lon="12.187069742745583"><ele>809.0</ele><time>2026-04-24T15:17:25Z</time></trkpt><trkpt lat="42.37031343202425" lon="12.18715931574362"><ele>811.75</ele><time>2026-04-24T15:17:26Z</time></trkpt><trkpt lat="42.37027499809971" lon="12.187279391753673"><ele>814.5</ele><time>2026-04-24T15:17:27Z</time></trkpt><trkpt lat="42.37024335303396" lon="12.187417205319338"><ele>817.25</ele><time>2026-04-24T15:17:28Z</time></trkpt><trkpt lat="42.37022778442246" lon="12.187577196088542"><ele>820.0</ele><time>2026-04-24T15:17:29Z</time></trkpt><trkpt lat="42.370212811647185" lon="12.187753503003426"><ele>822.25</ele><time>2026-04-24T15:17:30Z</time></trkpt><trkpt lat="42.370200335858705" lon="12.18791826846316"><ele>824.5</ele><time>2026-04-24T15:17:31Z</time></trkpt><trkpt lat="42.37020273907775" lon="12.18809097343028"><ele>826.75</ele><time>2026-04-24T15:17:32Z</time></trkpt><trkpt lat="42.37022394125081" lon="12.188248888038997"><ele>829.0</ele><time>2026-04-24T15:17:33Z</time></trkpt><trkpt lat="42.370257713322765" lon="12.188401191297938"><ele>828.9999999999999</ele><time>2026-04-24T15:17:34Z</time></trkpt><trkpt lat="42.370293096103445" lon="12.188534922007259"><ele>829.0</ele><time>2026-04-24T15:17:35Z</time></trkpt><trkpt lat="42.37032473691039" lon="12.188637776349433"><ele>829.0</ele><time>2026-04-24T15:17:36Z</time></trkpt><trkpt lat="42.37032224188188" lon="12.188733637782818"><ele>829.0</ele><time>2026-04-24T15:17:37Z</time></trkpt><trkpt lat="42.37033350941861" lon="12.18882126678516"><ele>828.9999999999999</ele><time>2026-04-24T15:17:38Z</time></trkpt><trkpt lat="42.37029770759059" lon="12.188967676678951"><ele>829.0</ele><time>2026-04-24T15:17:40Z</time></trkpt><trkpt lat="42.37022181837695" lon="12.188983202182925"><ele>828.9999999999999</ele><time>2026-04-24T15:17:41Z</time></trkpt><trkpt lat="42.370155945414034" lon="12.188995098982375"><ele>829.0</ele><time>2026-04-24T15:17:42Z</time></trkpt><trkpt lat="42.37008447836507" lon="12.188964258674085"><ele>829.0</ele><time>2026-04-24T15:17:43Z</time></trkpt><trkpt lat="42.37001091645524" lon="12.188889946465716"><ele>829.0</ele><time>2026-04-24T15:17:44Z</time></trkpt><trkpt lat="42.36992660756857" lon="12.188801424886886"><ele>828.9999999999999</ele><time>2026-04-24T15:17:45Z</time></trkpt><trkpt lat="42.36985394147215" lon="12.188697906972026"><ele>829.0</ele><time>2026-04-24T15:17:46Z</time></trkpt><trkpt lat="42.36977744709992" lon="12.188554493178914"><ele>829.0</ele><time>2026-04-24T15:17:47Z</time></trkpt><trkpt lat="42.369695243425966" lon="12.188380466356888"><ele>829.0</ele><time>2026-04-24T15:17:48Z</time></trkpt><trkpt lat="42.36961380047034" lon="12.188204598098487"><ele>829.0</ele><time>2026-04-24T15:17:49Z</time></trkpt><trkpt lat="42.36952085432881" lon="12.188019199577294"><ele>830.3333333333333</ele><time>2026-04-24T15:17:50Z</time></trkpt><trkpt lat="42.3694158231753" lon="12.187793240031667"><ele>831.6666666666667</ele><time>2026-04-24T15:17:51Z</time></trkpt><trkpt lat="42.369347070602196" lon="12.187650782104079"><ele>833.0</ele><time>2026-04-24T15:17:52Z</time></trkpt><trkpt lat="42.369278201818936" lon="12.187488134233863"><ele>833.0</ele><time>2026-04-24T15:17:53Z</time></trkpt><trkpt lat="42.36921682759515" lon="12.187360481453005"><ele>833.0</ele><time>2026-04-24T15:17:54Z</time></trkpt><trkpt lat="42.36916254946485" lon="12.187236188604897"><ele>833.0</ele><time>2026-04-24T15:17:55Z</time></trkpt><trkpt lat="42.36910796183843" lon="12.187132859570523"><ele>833.0</ele><time>2026-04-24T15:17:56Z</time></trkpt><trkpt lat="42.36904532155352" lon="12.187033312965438"><ele>833.0</ele><time>2026-04-24T15:17:57Z</time></trkpt><trkpt lat="42.36897741350871" lon="12.186939722664121"><ele>832.75</ele><time>2026-04-24T15:17:58Z</time></trkpt><trkpt lat="42.368889138278114" lon="12.186850213659273"><ele>832.5</ele><time>2026-04-24T15:17:59Z</time></trkpt><trkpt lat="42.36878132020389" lon="12.186768829675936"><ele>832.25</ele><time>2026-04-24T15:18:00Z</time></trkpt><trkpt lat="42.368658607311" lon="12.186684476497641"><ele>832.0</ele><time>2026-04-24T15:18:01Z</time></trkpt><trkpt lat="42.368533505434364" lon="12.186602253129408"><ele>832.5</ele><time>2026-04-24T15:18:02Z</time></trkpt><trkpt lat="42.368415779441186" lon="12.186523808882583"><ele>833.0</ele><time>2026-04-24T15:18:03Z</time></trkpt><trkpt lat="42.368307407285165" lon="12.186456599873406"><ele>833.5</ele><time>2026-04-24T15:18:04Z</time></trkpt><trkpt lat="42.36819490876831" lon="12.186390307267496"><ele>834.0</ele><time>2026-04-24T15:18:05Z</time></trkpt><trkpt lat="42.368085435063364" lon="12.186325747006475"><ele>837.25</ele><time>2026-04-24T15:18:06Z</time></trkpt><trkpt lat="42.36797330489856" lon="12.18627387330325"><ele>840.5</ele><time>2026-04-24T15:18:07Z</time></trkpt><trkpt lat="42.36785746487162" lon="12.186238986987401"><ele>843.75</ele><time>2026-04-24T15:18:08Z</time></trkpt><trkpt lat="42.36772653480569" lon="12.18621961749339"><ele>847.0</ele><time>2026-04-24T15:18:09Z</time></trkpt><trkpt lat="42.36758677451233" lon="12.18623050375749"><ele>847.0</ele><time>2026-04-24T15:18:10Z</time></trkpt><trkpt lat="42.36743583630003" lon="12.186262062617786"><ele>847.0</ele><time>2026-04-24T15:18:11Z</time></trkpt><trkpt lat="42.367308763765" lon="12.186303051836319"><ele>847.0</ele><time>2026-04-24T15:18:12Z</time></trkpt><trkpt lat="42.3671988068732" lon="12.186333691625864"><ele>847.0</ele><time>2026-04-24T15:18:13Z</time></trkpt><trkpt lat="42.3670999440161" lon="12.186351387237305"><ele>848.2</ele><time>2026-04-24T15:18:14Z</time></trkpt><trkpt lat="42.36699866871459" lon="12.186343194348952"><ele>849.4000000000001</ele><time>2026-04-24T15:18:15Z</time></trkpt><trkpt lat="42.366894285558544" lon="12.186305443644127"><ele>850.5999999999999</ele><time>2026-04-24T15:18:16Z</time></trkpt><trkpt lat="42.36679678751785" lon="12.186248084515524"><ele>851.8</ele><time>2026-04-24T15:18:17Z</time></trkpt><trkpt lat="42.36671798557056" lon="12.186173392919804"><ele>853.0</ele><time>2026-04-24T15:18:18Z</time></trkpt><trkpt lat="42.36665337462363" lon="12.186078683115854"><ele>853.0</ele><time>2026-04-24T15:18:19Z</time></trkpt><trkpt lat="42.366589144952094" lon="12.185961087847495"><ele>853.0</ele><time>2026-04-24T15:18:20Z</time></trkpt><trkpt lat="42.36653072412685" lon="12.185830791970456"><ele>853.0</ele><time>2026-04-24T15:18:21Z</time></trkpt><trkpt lat="42.36648178392363" lon="12.185687741881791"><ele>853.0</ele><time>2026-04-24T15:18:22Z</time></trkpt><trkpt lat="42.36643129332813" lon="12.18553061026172"><ele>854.0</ele><time>2026-04-24T15:18:23Z</time></trkpt><trkpt lat="42.366382839276255" lon="12.185391899027788"><ele>855.0</ele><time>2026-04-24T15:18:24Z</time></trkpt><trkpt lat="42.366349800598165" lon="12.185262070876155"><ele>856.0</ele><time>2026-04-24T15:18:25Z</time></trkpt><trkpt lat="42.36628480475197" lon="12.18514051858275"><ele>857.0</ele><time>2026-04-24T15:18:26Z</time></trkpt><trkpt lat="42.36621993692195" lon="12.185014109825625"><ele>858.0</ele><time>2026-04-24T15:18:27Z</time></trkpt><trkpt lat="42.36612340427459" lon="12.184931835662493"><ele>858.0</ele><time>2026-04-24T15:18:28Z</time></trkpt><trkpt lat="42.366030179263724" lon="12.18485953492211"><ele>858.0</ele><time>2026-04-24T15:18:29Z</time></trkpt><trkpt lat="42.36592610452315" lon="12.18476838606943"><ele>858.0</ele><time>2026-04-24T15:18:30Z</time></trkpt><trkpt lat="42.365783992960374" lon="12.18470070212967"><ele>858.0</ele><time>2026-04-24T15:18:31Z</time></trkpt><trkpt lat="42.36562698489422" lon="12.184609988648504"><ele>858.25</ele><time>2026-04-24T15:18:32Z</time></trkpt><trkpt lat="42.36548311234442" lon="12.184537300766207"><ele>858.5</ele><time>2026-04-24T15:18:33Z</time></trkpt><trkpt lat="42.36534584224899" lon="12.184465642464078"><ele>858.75</ele><time>2026-04-24T15:18:34Z</time></trkpt><trkpt lat="42.36521311585229" lon="12.18439100301917"><ele>859.0</ele><time>2026-04-24T15:18:35Z</time></trkpt><trkpt lat="42.365101951429935" lon="12.18432599529689"><ele>859.0</ele><time>2026-04-24T15:18:36Z</time></trkpt><trkpt lat="42.364969788507565" lon="12.184235920207396"><ele>859.0</ele><time>2026-04-24T15:18:37Z</time></trkpt><trkpt lat="42.364846786718374" lon="12.18416220516095"><ele>859.0</ele><time>2026-04-24T15:18:38Z</time></trkpt><trkpt lat="42.36475441179553" lon="12.184118263832353"><ele>859.0</ele><time>2026-04-24T15:18:39Z</time></trkpt><trkpt lat="42.364641728273895" lon="12.184105989239903"><ele>859.8000000000001</ele><time>2026-04-24T15:18:40Z</time></trkpt><trkpt lat="42.3645348890098" lon="12.184077219380395"><ele>860.6000000000001</ele><time>2026-04-24T15:18:41Z</time></trkpt><trkpt lat="42.36443316443645" lon="12.184115951248131"><ele>861.4</ele><time>2026-04-24T15:18:42Z</time></trkpt><trkpt lat="42.36434426010837" lon="12.184150273827363"><ele>862.2</ele><time>2026-04-24T15:18:43Z</time></trkpt><trkpt lat="42.36425725584447" lon="12.184205444113573"><ele>863.0</ele><time>2026-04-24T15:18:44Z</time></trkpt><trkpt lat="42.36416766332712" lon="12.184299553961054"><ele>863.0</ele><time>2026-04-24T15:18:45Z</time></trkpt><trkpt lat="42.364075842623755" lon="12.184399715332697"><ele>863.0</ele><time>2026-04-24T15:18:46Z</time></trkpt><trkpt lat="42.36401714576167" lon="12.184543430931358"><ele>863.0</ele><time>2026-04-24T15:18:47Z</time></trkpt><trkpt lat="42.36395001739971" lon="12.184698309695198"><ele>863.0</ele><time>2026-04-24T15:18:48Z</time></trkpt><trkpt lat="42.363883938833" lon="12.184856313870087"><ele>861.0</ele><time>2026-04-24T15:18:49Z</time></trkpt><trkpt lat="42.36381512679938" lon="12.185018843832795"><ele>859.0</ele><time>2026-04-24T15:18:50Z</time></trkpt><trkpt lat="42.36374941549229" lon="12.185218394212347"><ele>857.0</ele><time>2026-04-24T15:18:51Z</time></trkpt><trkpt lat="42.36367461085926" lon="12.185439896338293"><ele>857.0</ele><time>2026-04-24T15:18:52Z</time></trkpt><trkpt lat="42.36359816701859" lon="12.18565481830215"><ele>857.0</ele><time>2026-04-24T15:18:53Z</time></trkpt><trkpt lat="42.363527023598586" lon="12.185844082335914"><ele>857.0</ele><time>2026-04-24T15:18:54Z</time></trkpt><trkpt lat="42.36347083029959" lon="12.186025054078018"><ele>859.0</ele><time>2026-04-24T15:18:55Z</time></trkpt><trkpt lat="42.36341992185011" lon="12.186200766936905"><ele>861.0</ele><time>2026-04-24T15:18:56Z</time></trkpt><trkpt lat="42.36335981892708" lon="12.186395090928304"><ele>863.0</ele><time>2026-04-24T15:18:57Z</time></trkpt><trkpt lat="42.36330725032726" lon="12.186574765232054"><ele>865.0</ele><time>2026-04-24T15:18:58Z</time></trkpt><trkpt lat="42.363256997000136" lon="12.186747956457308"><ele>865.25</ele><time>2026-04-24T15:18:59Z</time></trkpt><trkpt lat="42.36320272190017" lon="12.186913542229119"><ele>865.5</ele><time>2026-04-24T15:19:00Z</time></trkpt><trkpt lat="42.36315701204863" lon="12.187093387809911"><ele>865.75</ele><time>2026-04-24T15:19:01Z</time></trkpt><trkpt lat="42.3631073480655" lon="12.18726658309698"><ele>866.0</ele><time>2026-04-24T15:19:02Z</time></trkpt><trkpt lat="42.36305550886936" lon="12.187418443916908"><ele>862.75</ele><time>2026-04-24T15:19:03Z</time></trkpt><trkpt lat="42.363005103162685" lon="12.187576071561733"><ele>859.5</ele><time>2026-04-24T15:19:04Z</time></trkpt><trkpt lat="42.362940802436604" lon="12.187722270446326"><ele>856.25</ele><time>2026-04-24T15:19:05Z</time></trkpt><trkpt lat="42.3628875894866" lon="12.187877884886067"><ele>853.0</ele><time>2026-04-24T15:19:06Z</time></trkpt><trkpt lat="42.36282460362072" lon="12.188056152172605"><ele>852.25</ele><time>2026-04-24T15:19:07Z</time></trkpt><trkpt lat="42.36275666942441" lon="12.188181599429427"><ele>851.5</ele><time>2026-04-24T15:19:08Z</time></trkpt><trkpt lat="42.36269746108978" lon="12.18834533527429"><ele>850.75</ele><time>2026-04-24T15:19:09Z</time></trkpt><trkpt lat="42.362634566631435" lon="12.188500305540455"><ele>850.0</ele><time>2026-04-24T15:19:10Z</time></trkpt><trkpt lat="42.36257057717382" lon="12.1886550875375"><ele>850.0</ele><time>2026-04-24T15:19:11Z</time></trkpt><trkpt lat="42.362511832465614" lon="12.18881648176057"><ele>850.0</ele><time>2026-04-24T15:19:12Z</time></trkpt><trkpt lat="42.36245615354226" lon="12.188967132753115"><ele>850.0</ele><time>2026-04-24T15:19:13Z</time></trkpt><trkpt lat="42.36240673094855" lon="12.189114742120275"><ele>850.0</ele><time>2026-04-24T15:19:14Z</time></trkpt><trkpt lat="42.362355549724434" lon="12.189251411467373"><ele>851.25</ele><time>2026-04-24T15:19:15Z</time></trkpt><trkpt lat="42.36229688095847" lon="12.189403437364764"><ele>852.5</ele><time>2026-04-24T15:19:16Z</time></trkpt><trkpt lat="42.36224996261322" lon="12.189549936783838"><ele>853.75</ele><time>2026-04-24T15:19:17Z</time></trkpt><trkpt lat="42.36220084851079" lon="12.189729209353844"><ele>855.0</ele><time>2026-04-24T15:19:18Z</time></trkpt><trkpt lat="42.36216426983223" lon="12.189908904679111"><ele>852.0</ele><time>2026-04-24T15:19:19Z</time></trkpt><trkpt lat="42.362133287519534" lon="12.190093823943645"><ele>849.0</ele><time>2026-04-24T15:19:20Z</time></trkpt><trkpt lat="42.3621121750771" lon="12.190281728597567"><ele>846.0</ele><time>2026-04-24T15:19:21Z</time></trkpt><trkpt lat="42.36208757506325" lon="12.190475747811604"><ele>843.0</ele><time>2026-04-24T15:19:22Z</time></trkpt><trkpt lat="42.3620583635774" lon="12.190664594064227"><ele>842.75</ele><time>2026-04-24T15:19:23Z</time></trkpt><trkpt lat="42.36202904512643" lon="12.19084564200407"><ele>842.5</ele><time>2026-04-24T15:19:24Z</time></trkpt><trkpt lat="42.361993719808126" lon="12.19103852059063"><ele>842.25</ele><time>2026-04-24T15:19:25Z</time></trkpt><trkpt lat="42.361952092900296" lon="12.191226984628393"><ele>842.0</ele><time>2026-04-24T15:19:26Z</time></trkpt><trkpt lat="42.361914225104634" lon="12.191409284269282"><ele>842.0</ele><time>2026-04-24T15:19:27Z</time></trkpt><trkpt lat="42.36189372878936" lon="12.191595945002954"><ele>842.0</ele><time>2026-04-24T15:19:28Z</time></trkpt><trkpt lat="42.36184625159386" lon="12.191781039114217"><ele>842.0</ele><time>2026-04-24T15:19:29Z</time></trkpt><trkpt lat="42.36180119152877" lon="12.191970598169892"><ele>842.0</ele><time>2026-04-24T15:19:30Z</time></trkpt><trkpt lat="42.36175318468137" lon="12.192126223581672"><ele>842.0</ele><time>2026-04-24T15:19:31Z</time></trkpt><trkpt lat="42.36171516922579" lon="12.192286755643073"><ele>842.0</ele><time>2026-04-24T15:19:32Z</time></trkpt><trkpt lat="42.36167093221081" lon="12.192440338986195"><ele>842.0</ele><time>2026-04-24T15:19:33Z</time></trkpt><trkpt lat="42.36162521278744" lon="12.192588648044653"><ele>842.0</ele><time>2026-04-24T15:19:34Z</time></trkpt><trkpt lat="42.36155320508782" lon="12.192751117622924"><ele>842.6666666666667</ele><time>2026-04-24T15:19:35Z</time></trkpt><trkpt lat="42.36148257989141" lon="12.192909845126824"><ele>843.3333333333333</ele><time>2026-04-24T15:19:36Z</time></trkpt><trkpt lat="42.3613959504445" lon="12.193112426889233"><ele>844.0</ele><time>2026-04-24T15:19:37Z</time></trkpt><trkpt lat="42.361312813390164" lon="12.19327556873289"><ele>840.25</ele><time>2026-04-24T15:19:38Z</time></trkpt><trkpt lat="42.361241259459646" lon="12.193431410212474"><ele>836.5</ele><time>2026-04-24T15:19:39Z</time></trkpt><trkpt lat="42.36115632565559" lon="12.19361053144635"><ele>832.75</ele><time>2026-04-24T15:19:40Z</time></trkpt><trkpt lat="42.361062149497876" lon="12.19377349969366"><ele>829.0</ele><time>2026-04-24T15:19:41Z</time></trkpt><trkpt lat="42.3609703621638" lon="12.193919844315415"><ele>831.25</ele><time>2026-04-24T15:19:42Z</time></trkpt><trkpt lat="42.36086971206881" lon="12.194069288217435"><ele>833.5</ele><time>2026-04-24T15:19:43Z</time></trkpt><trkpt lat="42.360782186895676" lon="12.194215791569587"><ele>835.75</ele><time>2026-04-24T15:19:44Z</time></trkpt><trkpt lat="42.360698045585046" lon="12.194350297087267"><ele>838.0</ele><time>2026-04-24T15:19:45Z</time></trkpt><trkpt lat="42.36061221195546" lon="12.194488892645888"><ele>838.0</ele><time>2026-04-24T15:19:46Z</time></trkpt><trkpt lat="42.36054948823022" lon="12.194624105799699"><ele>838.0</ele><time>2026-04-24T15:19:47Z</time></trkpt><trkpt lat="42.360465792431256" lon="12.194754641283266"><ele>838.0</ele><time>2026-04-24T15:19:48Z</time></trkpt><trkpt lat="42.360389746685385" lon="12.194898168613138"><ele>838.0</ele><time>2026-04-24T15:19:49Z</time></trkpt><trkpt lat="42.36031640127491" lon="12.195049128092657"><ele>836.75</ele><time>2026-04-24T15:19:50Z</time></trkpt><trkpt lat="42.360225672381" lon="12.195179976284637"><ele>835.5</ele><time>2026-04-24T15:19:51Z</time></trkpt><trkpt lat="42.360143902458894" lon="12.19531749320347"><ele>834.25</ele><time>2026-04-24T15:19:52Z</time></trkpt><trkpt lat="42.360056284624086" lon="12.195454713126288"><ele>833.0</ele><time>2026-04-24T15:19:53Z</time></trkpt><trkpt lat="42.359956463776776" lon="12.195604157877318"><ele>832.6666666666667</ele><time>2026-04-24T15:19:54Z</time></trkpt><trkpt lat="42.35987296315249" lon="12.195747048574543"><ele>832.3333333333333</ele><time>2026-04-24T15:19:55Z</time></trkpt><trkpt lat="42.359763875758155" lon="12.19599564406773"><ele>832.0</ele><time>2026-04-24T15:19:56Z</time></trkpt><trkpt lat="42.359673019941575" lon="12.196160423891017"><ele>832.0</ele><time>2026-04-24T15:19:57Z</time></trkpt><trkpt lat="42.35957970548064" lon="12.196303245266337"><ele>832.0</ele><time>2026-04-24T15:19:58Z</time></trkpt><trkpt lat="42.35948490186388" lon="12.19643887819459"><ele>832.0</ele><time>2026-04-24T15:19:59Z</time></trkpt><trkpt lat="42.35937370008245" lon="12.196609224664344"><ele>832.0</ele><time>2026-04-24T15:20:00Z</time></trkpt><trkpt lat="42.359269838192894" lon="12.196764242949467"><ele>833.5</ele><time>2026-04-24T15:20:01Z</time></trkpt><trkpt lat="42.359165835961754" lon="12.196864458348301"><ele>835.0</ele><time>2026-04-24T15:20:02Z</time></trkpt><trkpt lat="42.359056023364744" lon="12.197008952826803"><ele>836.5</ele><time>2026-04-24T15:20:03Z</time></trkpt><trkpt lat="42.358926455750215" lon="12.197151040036562"><ele>838.0</ele><time>2026-04-24T15:20:04Z</time></trkpt><trkpt lat="42.35880460751552" lon="12.197280491111949"><ele>836.3333333333333</ele><time>2026-04-24T15:20:05Z</time></trkpt><trkpt lat="42.35869028032888" lon="12.197416247722591"><ele>834.6666666666667</ele><time>2026-04-24T15:20:06Z</time></trkpt><trkpt lat="42.3585836679852" lon="12.197564815499938"><ele>833.0</ele><time>2026-04-24T15:20:07Z</time></trkpt><trkpt lat="42.35847754856781" lon="12.19771168960125"><ele>833.0</ele><time>2026-04-24T15:20:08Z</time></trkpt><trkpt lat="42.358357574001204" lon="12.197859044706705"><ele>833.0</ele><time>2026-04-24T15:20:09Z</time></trkpt><trkpt lat="42.358244966121546" lon="12.197992717562911"><ele>833.0</ele><time>2026-04-24T15:20:10Z</time></trkpt><trkpt lat="42.3581439524196" lon="12.198199879977494"><ele>833.25</ele><time>2026-04-24T15:20:11Z</time></trkpt><trkpt lat="42.358052681099494" lon="12.198329848983121"><ele>833.5</ele><time>2026-04-24T15:20:12Z</time></trkpt><trkpt lat="42.357944856753" lon="12.198480304949605"><ele>833.75</ele><time>2026-04-24T15:20:13Z</time></trkpt><trkpt lat="42.3578478971475" lon="12.198590159180524"><ele>834.0</ele><time>2026-04-24T15:20:14Z</time></trkpt><trkpt lat="42.35774935190172" lon="12.198700799283635"><ele>834.25</ele><time>2026-04-24T15:20:15Z</time></trkpt><trkpt lat="42.35765152672168" lon="12.198803370771888"><ele>834.5</ele><time>2026-04-24T15:20:16Z</time></trkpt><trkpt lat="42.357545067557375" lon="12.19895172043135"><ele>834.75</ele><time>2026-04-24T15:20:17Z</time></trkpt><trkpt lat="42.35744630066149" lon="12.199088511757834"><ele>835.0</ele><time>2026-04-24T15:20:18Z</time></trkpt><trkpt lat="42.35735102347684" lon="12.1992113027894"><ele>835.25</ele><time>2026-04-24T15:20:19Z</time></trkpt><trkpt lat="42.35724684816965" lon="12.199354778540465"><ele>835.5</ele><time>2026-04-24T15:20:20Z</time></trkpt><trkpt lat="42.357156223550206" lon="12.199481691656407"><ele>835.75</ele><time>2026-04-24T15:20:21Z</time></trkpt><trkpt lat="42.3570680118975" lon="12.199607579741643"><ele>836.0</ele><time>2026-04-24T15:20:22Z</time></trkpt><trkpt lat="42.356967356893655" lon="12.19973746813132"><ele>835.0</ele><time>2026-04-24T15:20:23Z</time></trkpt><trkpt lat="42.356867298174265" lon="12.199865446598332"><ele>834.0</ele><time>2026-04-24T15:20:24Z</time></trkpt><trkpt lat="42.356780918016085" lon="12.19999196086154"><ele>833.0</ele><time>2026-04-24T15:20:25Z</time></trkpt><trkpt lat="42.35666180338637" lon="12.200138828807468"><ele>832.0</ele><time>2026-04-24T15:20:26Z</time></trkpt><trkpt lat="42.35656326249731" lon="12.200252691431505"><ele>832.0</ele><time>2026-04-24T15:20:27Z</time></trkpt><trkpt lat="42.35646655854483" lon="12.200377496690917"><ele>832.0</ele><time>2026-04-24T15:20:28Z</time></trkpt><trkpt lat="42.356370752102244" lon="12.20049691792291"><ele>832.0</ele><time>2026-04-24T15:20:29Z</time></trkpt><trkpt lat="42.356276525544935" lon="12.200615072480778"><ele>832.0</ele><time>2026-04-24T15:20:30Z</time></trkpt><trkpt lat="42.35617745447628" lon="12.200729221649915"><ele>832.25</ele><time>2026-04-24T15:20:31Z</time></trkpt><trkpt lat="42.356075875966646" lon="12.200854758715721"><ele>832.5</ele><time>2026-04-24T15:20:32Z</time></trkpt><trkpt lat="42.35597262661415" lon="12.20098358922864"><ele>832.75</ele><time>2026-04-24T15:20:33Z</time></trkpt><trkpt lat="42.35587306457681" lon="12.201107927295029"><ele>833.0</ele><time>2026-04-24T15:20:34Z</time></trkpt><trkpt lat="42.355778371814836" lon="12.2012295846804"><ele>833.0</ele><time>2026-04-24T15:20:35Z</time></trkpt><trkpt lat="42.35569038371144" lon="12.201344556708815"><ele>833.0</ele><time>2026-04-24T15:20:36Z</time></trkpt><trkpt lat="42.35560407580687" lon="12.201427603720292"><ele>833.0</ele><time>2026-04-24T15:20:37Z</time></trkpt><trkpt lat="42.35552462463813" lon="12.201538912207495"><ele>833.0</ele><time>2026-04-24T15:20:38Z</time></trkpt><trkpt lat="42.355450814441106" lon="12.20167098038967"><ele>832.0</ele><time>2026-04-24T15:20:39Z</time></trkpt><trkpt lat="42.35537792996963" lon="12.201820073278407"><ele>831.0</ele><time>2026-04-24T15:20:40Z</time></trkpt><trkpt lat="42.355305000347876" lon="12.201993489075837"><ele>830.0</ele><time>2026-04-24T15:20:41Z</time></trkpt><trkpt lat="42.35522855231075" lon="12.202179094092031"><ele>829.0</ele><time>2026-04-24T15:20:42Z</time></trkpt><trkpt lat="42.355145204291084" lon="12.202382834719398"><ele>827.3333333333333</ele><time>2026-04-24T15:20:43Z</time></trkpt><trkpt lat="42.355084824693115" lon="12.202576941303954"><ele>825.6666666666667</ele><time>2026-04-24T15:20:44Z</time></trkpt><trkpt lat="42.35501114632819" lon="12.202763067265712"><ele>824.0</ele><time>2026-04-24T15:20:45Z</time></trkpt><trkpt lat="42.35495486322961" lon="12.20295008600682"><ele>824.0</ele><time>2026-04-24T15:20:46Z</time></trkpt><trkpt lat="42.35493375760864" lon="12.203122902818505"><ele>824.0</ele><time>2026-04-24T15:20:47Z</time></trkpt><trkpt lat="42.35488705825125" lon="12.203287162616828"><ele>824.0</ele><time>2026-04-24T15:20:48Z</time></trkpt><trkpt lat="42.354835752465796" lon="12.203456682546808"><ele>824.0</ele><time>2026-04-24T15:20:49Z</time></trkpt><trkpt lat="42.354787263240574" lon="12.203617846304681"><ele>823.75</ele><time>2026-04-24T15:20:50Z</time></trkpt><trkpt lat="42.354748610630864" lon="12.203780989125578"><ele>823.5</ele><time>2026-04-24T15:20:51Z</time></trkpt><trkpt lat="42.354696300255696" lon="12.203938677490324"><ele>823.25</ele><time>2026-04-24T15:20:52Z</time></trkpt><trkpt lat="42.35465609668804" lon="12.204089996513794"><ele>823.0</ele><time>2026-04-24T15:20:53Z</time></trkpt><trkpt lat="42.35461129989571" lon="12.204241367473514"><ele>822.25</ele><time>2026-04-24T15:20:54Z</time></trkpt><trkpt lat="42.35457748068738" lon="12.204366832819453"><ele>821.5</ele><time>2026-04-24T15:20:55Z</time></trkpt><trkpt lat="42.35452875237289" lon="12.204517990282255"><ele>820.75</ele><time>2026-04-24T15:20:56Z</time></trkpt><trkpt lat="42.354437787404784" lon="12.204686538146122"><ele>820.0</ele><time>2026-04-24T15:20:57Z</time></trkpt><trkpt lat="42.35438224831418" lon="12.204848947212687"><ele>819.5</ele><time>2026-04-24T15:20:58Z</time></trkpt><trkpt lat="42.354307386704676" lon="12.204990113900141"><ele>819.0</ele><time>2026-04-24T15:20:59Z</time></trkpt><trkpt lat="42.35423168600644" lon="12.205126732813907"><ele>818.5</ele><time>2026-04-24T15:21:00Z</time></trkpt><trkpt lat="42.354138337774216" lon="12.205244586369972"><ele>818.0</ele><time>2026-04-24T15:21:01Z</time></trkpt><trkpt lat="42.3540408672948" lon="12.205360731025765"><ele>818.0</ele><time>2026-04-24T15:21:02Z</time></trkpt><trkpt lat="42.35395178429151" lon="12.205480061915603"><ele>818.0</ele><time>2026-04-24T15:21:03Z</time></trkpt><trkpt lat="42.35387107418389" lon="12.205605580103496"><ele>818.0</ele><time>2026-04-24T15:21:04Z</time></trkpt><trkpt lat="42.35379220473135" lon="12.205710643830994"><ele>818.0</ele><time>2026-04-24T15:21:05Z</time></trkpt><trkpt lat="42.35371988659177" lon="12.20583006061282"><ele>816.0</ele><time>2026-04-24T15:21:06Z</time></trkpt><trkpt lat="42.35365191423331" lon="12.205964492460827"><ele>814.0</ele><time>2026-04-24T15:21:07Z</time></trkpt><trkpt lat="42.35357921048713" lon="12.206096306969318"><ele>812.0</ele><time>2026-04-24T15:21:08Z</time></trkpt><trkpt lat="42.353507634193825" lon="12.20623317997973"><ele>810.0</ele><time>2026-04-24T15:21:09Z</time></trkpt><trkpt lat="42.35345381491219" lon="12.20636756288084"><ele>809.0</ele><time>2026-04-24T15:21:10Z</time></trkpt><trkpt lat="42.35340462675598" lon="12.20651527100035"><ele>808.0</ele><time>2026-04-24T15:21:11Z</time></trkpt><trkpt lat="42.35336634274346" lon="12.206661760058967"><ele>807.0</ele><time>2026-04-24T15:21:12Z</time></trkpt><trkpt lat="42.353341273330884" lon="12.206784220296841"><ele>806.0</ele><time>2026-04-24T15:21:13Z</time></trkpt><trkpt lat="42.353305819993246" lon="12.206912485123025"><ele>805.0</ele><time>2026-04-24T15:21:14Z</time></trkpt><trkpt lat="42.35327010549085" lon="12.207025810424131"><ele>805.0</ele><time>2026-04-24T15:21:15Z</time></trkpt><trkpt lat="42.35321737572704" lon="12.207121255746895"><ele>805.0</ele><time>2026-04-24T15:21:16Z</time></trkpt><trkpt lat="42.35315698171366" lon="12.207213081247076"><ele>805.0</ele><time>2026-04-24T15:21:17Z</time></trkpt><trkpt lat="42.35310296344378" lon="12.207270499183243"><ele>805.0</ele><time>2026-04-24T15:21:18Z</time></trkpt><trkpt lat="42.35296911691296" lon="12.20729689837801"><ele>805.0</ele><time>2026-04-24T15:21:20Z</time></trkpt><trkpt lat="42.35289177667262" lon="12.207279998948493"><ele>802.9999999999999</ele><time>2026-04-24T15:21:21Z</time></trkpt><trkpt lat="42.352814162064305" lon="12.207211498447647"><ele>801.0</ele><time>2026-04-24T15:21:22Z</time></trkpt><trkpt lat="42.35273238640803" lon="12.207121147536649"><ele>799.0</ele><time>2026-04-24T15:21:23Z</time></trkpt><trkpt lat="42.35267645503612" lon="12.207058789280776"><ele>797.0</ele><time>2026-04-24T15:21:24Z</time></trkpt><trkpt lat="42.35259834219455" lon="12.206980418877041"><ele>794.9999999999999</ele><time>2026-04-24T15:21:25Z</time></trkpt><trkpt lat="42.35254893836802" lon="12.206908589471267"><ele>793.0</ele><time>2026-04-24T15:21:26Z</time></trkpt><trkpt lat="42.35245914984319" lon="12.206820249337479"><ele>792.9999999999999</ele><time>2026-04-24T15:21:27Z</time></trkpt><trkpt lat="42.352383535958516" lon="12.206783825848369"><ele>793.0</ele><time>2026-04-24T15:21:28Z</time></trkpt><trkpt lat="42.35229846330907" lon="12.206748591809523"><ele>793.0</ele><time>2026-04-24T15:21:29Z</time></trkpt><trkpt lat="42.35221230396946" lon="12.206729750477194"><ele>793.0</ele><time>2026-04-24T15:21:30Z</time></trkpt><trkpt lat="42.35212863151954" lon="12.206736776343163"><ele>792.9999999999999</ele><time>2026-04-24T15:21:31Z</time></trkpt><trkpt lat="42.35203560047195" lon="12.206782332515239"><ele>793.0</ele><time>2026-04-24T15:21:32Z</time></trkpt><trkpt lat="42.351941238966084" lon="12.206869866603135"><ele>791.5999999999999</ele><time>2026-04-24T15:21:33Z</time></trkpt><trkpt lat="42.35187017320819" lon="12.206963600388269"><ele>790.1999999999999</ele><time>2026-04-24T15:21:34Z</time></trkpt><trkpt lat="42.35177398742334" lon="12.207037938595466"><ele>788.8</ele><time>2026-04-24T15:21:35Z</time></trkpt><trkpt lat="42.35174696640509" lon="12.207170635940008"><ele>787.4</ele><time>2026-04-24T15:21:36Z</time></trkpt><trkpt lat="42.35172347506131" lon="12.207278011923279"><ele>786.0</ele><time>2026-04-24T15:21:37Z</time></trkpt><trkpt lat="42.35168155854841" lon="12.207389697994293"><ele>785.5999999999999</ele><time>2026-04-24T15:21:38Z</time></trkpt><trkpt lat="42.351644516094545" lon="12.207515365297795"><ele>785.2</ele><time>2026-04-24T15:21:39Z</time></trkpt><trkpt lat="42.35161561285417" lon="12.207643469539592"><ele>784.8</ele><time>2026-04-24T15:21:40Z</time></trkpt><trkpt lat="42.35158884415296" lon="12.20773721508613"><ele>784.4000000000001</ele><time>2026-04-24T15:21:41Z</time></trkpt><trkpt lat="42.35153603374886" lon="12.207860516892724"><ele>784.0</ele><time>2026-04-24T15:21:42Z</time></trkpt><trkpt lat="42.35146980436114" lon="12.207942694872862"><ele>784.0</ele><time>2026-04-24T15:21:43Z</time></trkpt><trkpt lat="42.35138857496187" lon="12.208018445621384"><ele>784.0</ele><time>2026-04-24T15:21:44Z</time></trkpt><trkpt lat="42.35128037495696" lon="12.208072159113767"><ele>784.0</ele><time>2026-04-24T15:21:45Z</time></trkpt><trkpt lat="42.351160309708824" lon="12.20810928804831"><ele>784.0</ele><time>2026-04-24T15:21:46Z</time></trkpt><trkpt lat="42.351049085506375" lon="12.208111328730471"><ele>784.0</ele><time>2026-04-24T15:21:47Z</time></trkpt><trkpt lat="42.35093731301944" lon="12.208132137611353"><ele>783.0</ele><time>2026-04-24T15:21:48Z</time></trkpt><trkpt lat="42.350830902527846" lon="12.208157798320059"><ele>782.0</ele><time>2026-04-24T15:21:49Z</time></trkpt><trkpt lat="42.3507240782123" lon="12.208181322048791"><ele>781.0</ele><time>2026-04-24T15:21:50Z</time></trkpt><trkpt lat="42.35061423006236" lon="12.208231528545507"><ele>780.0</ele><time>2026-04-24T15:21:51Z</time></trkpt><trkpt lat="42.35052484977114" lon="12.208292737472522"><ele>779.0</ele><time>2026-04-24T15:21:52Z</time></trkpt><trkpt lat="42.350435164375874" lon="12.208363082928205"><ele>775.25</ele><time>2026-04-24T15:21:53Z</time></trkpt><trkpt lat="42.35036232338457" lon="12.2084898673902"><ele>771.5</ele><time>2026-04-24T15:21:54Z</time></trkpt><trkpt lat="42.35029330735131" lon="12.208651143104712"><ele>767.75</ele><time>2026-04-24T15:21:55Z</time></trkpt><trkpt lat="42.3502069844929" lon="12.20880418953032"><ele>764.0</ele><time>2026-04-24T15:21:56Z</time></trkpt><trkpt lat="42.35014034579863" lon="12.208976220843754"><ele>763.5</ele><time>2026-04-24T15:21:57Z</time></trkpt><trkpt lat="42.350097737114496" lon="12.209120301769543"><ele>763.0</ele><time>2026-04-24T15:21:58Z</time></trkpt><trkpt lat="42.35003706781891" lon="12.209253372880182"><ele>762.5</ele><time>2026-04-24T15:21:59Z</time></trkpt><trkpt lat="42.34996144485892" lon="12.209420636213462"><ele>762.0</ele><time>2026-04-24T15:22:00Z</time></trkpt><trkpt lat="42.349892078076564" lon="12.209584115254936"><ele>762.0</ele><time>2026-04-24T15:22:01Z</time></trkpt><trkpt lat="42.34980118756178" lon="12.209742103788985"><ele>762.0</ele><time>2026-04-24T15:22:02Z</time></trkpt><trkpt lat="42.34971170442239" lon="12.209903604213423"><ele>762.0</ele><time>2026-04-24T15:22:03Z</time></trkpt><trkpt lat="42.34967082030795" lon="12.210040394018472"><ele>762.0</ele><time>2026-04-24T15:22:04Z</time></trkpt><trkpt lat="42.349625438106244" lon="12.210169955104323"><ele>759.4000000000001</ele><time>2026-04-24T15:22:05Z</time></trkpt><trkpt lat="42.34959608090779" lon="12.210284133769106"><ele>756.8000000000001</ele><time>2026-04-24T15:22:06Z</time></trkpt><trkpt lat="42.349562945457855" lon="12.210419522282779"><ele>754.2</ele><time>2026-04-24T15:22:07Z</time></trkpt><trkpt lat="42.34952217442378" lon="12.21055455897533"><ele>751.6</ele><time>2026-04-24T15:22:08Z</time></trkpt><trkpt lat="42.34950449226219" lon="12.21067208540545"><ele>749.0</ele><time>2026-04-24T15:22:09Z</time></trkpt><trkpt lat="42.349481145999896" lon="12.210790022721875"><ele>748.1666666666666</ele><time>2026-04-24T15:22:10Z</time></trkpt><trkpt lat="42.3494552090138" lon="12.210890649630352"><ele>747.3333333333333</ele><time>2026-04-24T15:22:11Z</time></trkpt><trkpt lat="42.349442125209116" lon="12.21099617141049"><ele>746.5</ele><time>2026-04-24T15:22:12Z</time></trkpt><trkpt lat="42.349376544061286" lon="12.211123645982434"><ele>745.6666666666666</ele><time>2026-04-24T15:22:14Z</time></trkpt><trkpt lat="42.349308089568275" lon="12.211170145464994"><ele>744.8333333333334</ele><time>2026-04-24T15:22:15Z</time></trkpt><trkpt lat="42.34922339211996" lon="12.21118434644078"><ele>744.0</ele><time>2026-04-24T15:22:16Z</time></trkpt><trkpt lat="42.34913355118986" lon="12.211169621741655"><ele>744.0</ele><time>2026-04-24T15:22:17Z</time></trkpt><trkpt lat="42.349034715677" lon="12.211118723138885"><ele>744.0</ele><time>2026-04-24T15:22:18Z</time></trkpt><trkpt lat="42.34894072671952" lon="12.211065891920365"><ele>744.0</ele><time>2026-04-24T15:22:19Z</time></trkpt><trkpt lat="42.34884669784324" lon="12.211025005969832"><ele>744.0</ele><time>2026-04-24T15:22:20Z</time></trkpt><trkpt lat="42.34875804773502" lon="12.210960654517852"><ele>744.0</ele><time>2026-04-24T15:22:21Z</time></trkpt><trkpt lat="42.348672159016665" lon="12.210884857027956"><ele>742.2</ele><time>2026-04-24T15:22:22Z</time></trkpt><trkpt lat="42.34859202058769" lon="12.210806976231817"><ele>740.4000000000001</ele><time>2026-04-24T15:22:23Z</time></trkpt><trkpt lat="42.348507234095415" lon="12.210759072907871"><ele>738.6</ele><time>2026-04-24T15:22:24Z</time></trkpt><trkpt lat="42.34842060283021" lon="12.210737051721658"><ele>736.8</ele><time>2026-04-24T15:22:25Z</time></trkpt><trkpt lat="42.34833107945974" lon="12.210701754028943"><ele>735.0</ele><time>2026-04-24T15:22:26Z</time></trkpt><trkpt lat="42.34821868534611" lon="12.21067478518555"><ele>735.0</ele><time>2026-04-24T15:22:27Z</time></trkpt><trkpt lat="42.348124754357755" lon="12.210684737062783"><ele>735.0</ele><time>2026-04-24T15:22:28Z</time></trkpt><trkpt lat="42.34803855101581" lon="12.210732930947106"><ele>735.0</ele><time>2026-04-24T15:22:29Z</time></trkpt><trkpt lat="42.347937394976945" lon="12.210763997082744"><ele>735.0</ele><time>2026-04-24T15:22:30Z</time></trkpt><trkpt lat="42.347847329192206" lon="12.210845851403453"><ele>735.0</ele><time>2026-04-24T15:22:30.999Z</time></trkpt><trkpt lat="42.34775560713496" lon="12.210924648397725"><ele>733.5</ele><time>2026-04-24T15:22:31.999Z</time></trkpt><trkpt lat="42.34765055263937" lon="12.211018155472333"><ele>732.0</ele><time>2026-04-24T15:22:32.999Z</time></trkpt><trkpt lat="42.347535359185834" lon="12.211117859171956"><ele>730.5</ele><time>2026-04-24T15:22:33.999Z</time></trkpt><trkpt lat="42.347405656340186" lon="12.21122896842844"><ele>729.0</ele><time>2026-04-24T15:22:34.999Z</time></trkpt><trkpt lat="42.34731112472303" lon="12.21133626016645"><ele>729.0</ele><time>2026-04-24T15:22:35.999Z</time></trkpt><trkpt lat="42.34718566573596" lon="12.211419829711822"><ele>729.0</ele><time>2026-04-24T15:22:36.999Z</time></trkpt><trkpt lat="42.347082765788876" lon="12.211515575222025"><ele>729.0</ele><time>2026-04-24T15:22:37.999Z</time></trkpt><trkpt lat="42.3469712357574" lon="12.2116016655855"><ele>729.0</ele><time>2026-04-24T15:22:38.999Z</time></trkpt><trkpt lat="42.346868394043675" lon="12.211711422769648"><ele>729.0</ele><time>2026-04-24T15:22:40Z</time></trkpt><trkpt lat="42.34677279807244" lon="12.211844430974033"><ele>729.0</ele><time>2026-04-24T15:22:41Z</time></trkpt><trkpt lat="42.34666934929768" lon="12.21197535709865"><ele>729.0</ele><time>2026-04-24T15:22:42Z</time></trkpt><trkpt lat="42.34658635628885" lon="12.212103671588315"><ele>729.0</ele><time>2026-04-24T15:22:43Z</time></trkpt><trkpt lat="42.346516654231706" lon="12.212277385391035"><ele>728.75</ele><time>2026-04-24T15:22:44Z</time></trkpt><trkpt lat="42.346424147356565" lon="12.212438375236966"><ele>728.5</ele><time>2026-04-24T15:22:45Z</time></trkpt><trkpt lat="42.346345194180714" lon="12.21256945218043"><ele>728.25</ele><time>2026-04-24T15:22:46Z</time></trkpt><trkpt lat="42.3462576498862" lon="12.212671960328777"><ele>728.0</ele><time>2026-04-24T15:22:47Z</time></trkpt><trkpt lat="42.3461666668561" lon="12.212772237386364"><ele>727.25</ele><time>2026-04-24T15:22:48Z</time></trkpt><trkpt lat="42.346070183485544" lon="12.2128549077341"><ele>726.5</ele><time>2026-04-24T15:22:49Z</time></trkpt><trkpt lat="42.34596707286513" lon="12.212917953799508"><ele>725.75</ele><time>2026-04-24T15:22:50Z</time></trkpt><trkpt lat="42.34584087718048" lon="12.21295868818841"><ele>725.0</ele><time>2026-04-24T15:22:51Z</time></trkpt><trkpt lat="42.345701612311046" lon="12.212989800534817"><ele>725.0</ele><time>2026-04-24T15:22:52Z</time></trkpt><trkpt lat="42.34556314009293" lon="12.213001139841783"><ele>725.0</ele><time>2026-04-24T15:22:53Z</time></trkpt><trkpt lat="42.3454390194457" lon="12.213000359011714"><ele>725.0</ele><time>2026-04-24T15:22:54Z</time></trkpt><trkpt lat="42.3453372032099" lon="12.212994562765354"><ele>725.0</ele><time>2026-04-24T15:22:55Z</time></trkpt><trkpt lat="42.34523672046683" lon="12.212992760914469"><ele>724.25</ele><time>2026-04-24T15:22:56Z</time></trkpt><trkpt lat="42.34513520680022" lon="12.21301250849851"><ele>723.5</ele><time>2026-04-24T15:22:57Z</time></trkpt><trkpt lat="42.34502076408038" lon="12.213035184606287"><ele>722.75</ele><time>2026-04-24T15:22:58Z</time></trkpt><trkpt lat="42.34491329151272" lon="12.213077008741308"><ele>722.0</ele><time>2026-04-24T15:22:59Z</time></trkpt><trkpt lat="42.34480283031898" lon="12.213157405161502"><ele>722.5</ele><time>2026-04-24T15:23:00Z</time></trkpt><trkpt lat="42.344702541957474" lon="12.213274836652738"><ele>723.0</ele><time>2026-04-24T15:23:01Z</time></trkpt><trkpt lat="42.34460651634845" lon="12.21338390094717"><ele>723.5</ele><time>2026-04-24T15:23:02Z</time></trkpt><trkpt lat="42.34449698045867" lon="12.213494779240289"><ele>724.0</ele><time>2026-04-24T15:23:03Z</time></trkpt><trkpt lat="42.34440620352844" lon="12.213606420511638"><ele>724.0</ele><time>2026-04-24T15:23:04Z</time></trkpt><trkpt lat="42.34430705502005" lon="12.213713297727342"><ele>724.0</ele><time>2026-04-24T15:23:05Z</time></trkpt><trkpt lat="42.34421287974374" lon="12.213768959226455"><ele>724.0</ele><time>2026-04-24T15:23:06Z</time></trkpt><trkpt lat="42.34412025767707" lon="12.213795107912803"><ele>724.0</ele><time>2026-04-24T15:23:07Z</time></trkpt><trkpt lat="42.344029123568625" lon="12.213815642229484"><ele>724.0</ele><time>2026-04-24T15:23:08Z</time></trkpt><trkpt lat="42.34389712771102" lon="12.213867979816394"><ele>721.75</ele><time>2026-04-24T15:23:09Z</time></trkpt><trkpt lat="42.343760085332384" lon="12.21390420552465"><ele>719.5</ele><time>2026-04-24T15:23:10Z</time></trkpt><trkpt lat="42.34361809312213" lon="12.213923849437206"><ele>717.25</ele><time>2026-04-24T15:23:11Z</time></trkpt><trkpt lat="42.34347890895148" lon="12.213933258355096"><ele>715.0</ele><time>2026-04-24T15:23:12Z</time></trkpt><trkpt lat="42.34333868225751" lon="12.213946398015603"><ele>715.0</ele><time>2026-04-24T15:23:13Z</time></trkpt><trkpt lat="42.343202050810824" lon="12.213957519565195"><ele>715.0</ele><time>2026-04-24T15:23:14Z</time></trkpt><trkpt lat="42.343069319033965" lon="12.213967024461663"><ele>715.0</ele><time>2026-04-24T15:23:15Z</time></trkpt><trkpt lat="42.34293215199478" lon="12.213976502754544"><ele>715.0</ele><time>2026-04-24T15:23:16Z</time></trkpt><trkpt lat="42.342798759583935" lon="12.214002954827516"><ele>715.6666666666667</ele><time>2026-04-24T15:23:17Z</time></trkpt><trkpt lat="42.34265751975261" lon="12.214029993707845"><ele>716.3333333333334</ele><time>2026-04-24T15:23:18Z</time></trkpt><trkpt lat="42.34250391828434" lon="12.214080796486108"><ele>717.0</ele><time>2026-04-24T15:23:19Z</time></trkpt><trkpt lat="42.342348444591074" lon="12.21412900217824"><ele>716.3333333333334</ele><time>2026-04-24T15:23:20Z</time></trkpt><trkpt lat="42.34217749713242" lon="12.214181440084593"><ele>715.6666666666667</ele><time>2026-04-24T15:23:21Z</time></trkpt><trkpt lat="42.342011909030525" lon="12.214233535211166"><ele>715.0</ele><time>2026-04-24T15:23:22Z</time></trkpt><trkpt lat="42.341838634764564" lon="12.214272552641475"><ele>715.0</ele><time>2026-04-24T15:23:23Z</time></trkpt><trkpt lat="42.341677844213166" lon="12.214306091823667"><ele>715.0</ele><time>2026-04-24T15:23:24Z</time></trkpt><trkpt lat="42.341520122206866" lon="12.214342345647577"><ele>715.0</ele><time>2026-04-24T15:23:25Z</time></trkpt><trkpt lat="42.34136736732665" lon="12.214375397986542"><ele>713.25</ele><time>2026-04-24T15:23:26Z</time></trkpt><trkpt lat="42.3412165757979" lon="12.214404662561812"><ele>711.5</ele><time>2026-04-24T15:23:27Z</time></trkpt><trkpt lat="42.34107496660034" lon="12.214439594638185"><ele>709.75</ele><time>2026-04-24T15:23:28Z</time></trkpt><trkpt lat="42.34092678498659" lon="12.21447807935645"><ele>708.0</ele><time>2026-04-24T15:23:29Z</time></trkpt><trkpt lat="42.34077753354072" lon="12.214536150347879"><ele>708.0</ele><time>2026-04-24T15:23:30Z</time></trkpt><trkpt lat="42.34061106847587" lon="12.214611965106943"><ele>708.0</ele><time>2026-04-24T15:23:31Z</time></trkpt><trkpt lat="42.340468208052236" lon="12.214666477515735"><ele>708.0</ele><time>2026-04-24T15:23:32Z</time></trkpt><trkpt lat="42.34031847341595" lon="12.214734268159644"><ele>709.25</ele><time>2026-04-24T15:23:33Z</time></trkpt><trkpt lat="42.34017790560992" lon="12.214780477861742"><ele>710.5</ele><time>2026-04-24T15:23:34Z</time></trkpt><trkpt lat="42.340038402315486" lon="12.214847329474212"><ele>711.75</ele><time>2026-04-24T15:23:35Z</time></trkpt><trkpt lat="42.33988852818938" lon="12.214909637037517"><ele>713.0</ele><time>2026-04-24T15:23:36Z</time></trkpt><trkpt lat="42.339725402279264" lon="12.214977533971394"><ele>712.0</ele><time>2026-04-24T15:23:37Z</time></trkpt><trkpt lat="42.33961558678183" lon="12.21506283814502"><ele>711.0</ele><time>2026-04-24T15:23:38Z</time></trkpt><trkpt lat="42.33946009910528" lon="12.21520406218963"><ele>710.0</ele><time>2026-04-24T15:23:39Z</time></trkpt><trkpt lat="42.33931653051356" lon="12.215270924107648"><ele>710.0</ele><time>2026-04-24T15:23:40Z</time></trkpt><trkpt lat="42.33917733864518" lon="12.215316684652167"><ele>710.0</ele><time>2026-04-24T15:23:41Z</time></trkpt><trkpt lat="42.33902948421351" lon="12.215343058476122"><ele>710.0</ele><time>2026-04-24T15:23:42Z</time></trkpt><trkpt lat="42.33888474620377" lon="12.21533970049232"><ele>710.0</ele><time>2026-04-24T15:23:43Z</time></trkpt><trkpt lat="42.338731773901046" lon="12.215365215656282"><ele>711.0</ele><time>2026-04-24T15:23:44Z</time></trkpt><trkpt lat="42.338588539582084" lon="12.21537160368056"><ele>712.0</ele><time>2026-04-24T15:23:45Z</time></trkpt><trkpt lat="42.338442163482355" lon="12.215378736303322"><ele>713.0</ele><time>2026-04-24T15:23:46Z</time></trkpt><trkpt lat="42.33828622762218" lon="12.215369871921174"><ele>714.0</ele><time>2026-04-24T15:23:47Z</time></trkpt><trkpt lat="42.338148013342305" lon="12.215397023903327"><ele>715.25</ele><time>2026-04-24T15:23:48Z</time></trkpt><trkpt lat="42.338001559162464" lon="12.215406050983505"><ele>716.5</ele><time>2026-04-24T15:23:49Z</time></trkpt><trkpt lat="42.33786706088595" lon="12.215411343030441"><ele>717.75</ele><time>2026-04-24T15:23:50Z</time></trkpt><trkpt lat="42.337722908592596" lon="12.215419625193851"><ele>719.0</ele><time>2026-04-24T15:23:51Z</time></trkpt><trkpt lat="42.33758335688955" lon="12.215427929106404"><ele>719.0</ele><time>2026-04-24T15:23:52Z</time></trkpt><trkpt lat="42.337425831172226" lon="12.215428395798014"><ele>719.0</ele><time>2026-04-24T15:23:53Z</time></trkpt><trkpt lat="42.33727047626714" lon="12.215424309150206"><ele>719.0</ele><time>2026-04-24T15:23:54Z</time></trkpt><trkpt lat="42.33712677791031" lon="12.21542414839887"><ele>718.25</ele><time>2026-04-24T15:23:55Z</time></trkpt><trkpt lat="42.33698032476214" lon="12.215426092247947"><ele>717.5</ele><time>2026-04-24T15:23:56Z</time></trkpt><trkpt lat="42.336840813469415" lon="12.215443811284217"><ele>716.75</ele><time>2026-04-24T15:23:57Z</time></trkpt><trkpt lat="42.33670619571965" lon="12.215448928812497"><ele>716.0</ele><time>2026-04-24T15:23:58Z</time></trkpt><trkpt lat="42.33656289694671" lon="12.215459543131187"><ele>716.0</ele><time>2026-04-24T15:23:59Z</time></trkpt><trkpt lat="42.33643530248" lon="12.215507268197307"><ele>716.0</ele><time>2026-04-24T15:24:00Z</time></trkpt><trkpt lat="42.336297214417016" lon="12.215531665496645"><ele>716.0</ele><time>2026-04-24T15:24:01Z</time></trkpt><trkpt lat="42.33618173859638" lon="12.215570062806446"><ele>716.0</ele><time>2026-04-24T15:24:02Z</time></trkpt><trkpt lat="42.336074097924076" lon="12.215621096539536"><ele>716.75</ele><time>2026-04-24T15:24:03Z</time></trkpt><trkpt lat="42.335967373432766" lon="12.215679138694384"><ele>717.5</ele><time>2026-04-24T15:24:04Z</time></trkpt><trkpt lat="42.335852985640194" lon="12.215766568733095"><ele>718.25</ele><time>2026-04-24T15:24:05Z</time></trkpt><trkpt lat="42.33572102580965" lon="12.215864700160004"><ele>719.0</ele><time>2026-04-24T15:24:06Z</time></trkpt><trkpt lat="42.335563883833395" lon="12.215945472753761"><ele>718.0</ele><time>2026-04-24T15:24:07Z</time></trkpt><trkpt lat="42.335403628752374" lon="12.216009777567"><ele>717.0</ele><time>2026-04-24T15:24:08Z</time></trkpt><trkpt lat="42.33522213098851" lon="12.216057301370725"><ele>716.0</ele><time>2026-04-24T15:24:09Z</time></trkpt><trkpt lat="42.335060387421784" lon="12.216127369861068"><ele>716.0</ele><time>2026-04-24T15:24:10Z</time></trkpt><trkpt lat="42.33490983454192" lon="12.216189332978724"><ele>716.0</ele><time>2026-04-24T15:24:11Z</time></trkpt><trkpt lat="42.33476784851262" lon="12.216256136631191"><ele>716.0</ele><time>2026-04-24T15:24:12Z</time></trkpt><trkpt lat="42.334624417452595" lon="12.21630777265042"><ele>714.5</ele><time>2026-04-24T15:24:13Z</time></trkpt><trkpt lat="42.33448230547722" lon="12.216365669720803"><ele>713.0</ele><time>2026-04-24T15:24:14Z</time></trkpt><trkpt lat="42.33435826772189" lon="12.216425633498824"><ele>711.5</ele><time>2026-04-24T15:24:15Z</time></trkpt><trkpt lat="42.33424264852021" lon="12.216488042319735"><ele>710.0</ele><time>2026-04-24T15:24:16Z</time></trkpt><trkpt lat="42.33412180215839" lon="12.216532397748269"><ele>709.75</ele><time>2026-04-24T15:24:17Z</time></trkpt><trkpt lat="42.334011825356676" lon="12.216581967594793"><ele>709.5</ele><time>2026-04-24T15:24:18Z</time></trkpt><trkpt lat="42.33388008719859" lon="12.21661782213838"><ele>709.25</ele><time>2026-04-24T15:24:19Z</time></trkpt><trkpt lat="42.333779897080184" lon="12.216645803012149"><ele>709.0</ele><time>2026-04-24T15:24:20Z</time></trkpt><trkpt lat="42.33367787880765" lon="12.216675530382647"><ele>708.75</ele><time>2026-04-24T15:24:21Z</time></trkpt><trkpt lat="42.33356813181465" lon="12.21668412172344"><ele>708.5</ele><time>2026-04-24T15:24:22Z</time></trkpt><trkpt lat="42.33345965506077" lon="12.216684932238943"><ele>708.25</ele><time>2026-04-24T15:24:23Z</time></trkpt><trkpt lat="42.3333445773623" lon="12.216673869046847"><ele>708.0</ele><time>2026-04-24T15:24:24Z</time></trkpt><trkpt lat="42.33321133972117" lon="12.216639126012758"><ele>708.0</ele><time>2026-04-24T15:24:25Z</time></trkpt><trkpt lat="42.33308862487348" lon="12.21659387020985"><ele>708.0</ele><time>2026-04-24T15:24:26Z</time></trkpt><trkpt lat="42.33295437605453" lon="12.216561408553344"><ele>708.0</ele><time>2026-04-24T15:24:27Z</time></trkpt><trkpt lat="42.33282802622303" lon="12.216519325264253"><ele>708.0</ele><time>2026-04-24T15:24:28Z</time></trkpt><trkpt lat="42.33269927773406" lon="12.216476997576892"><ele>705.25</ele><time>2026-04-24T15:24:29Z</time></trkpt><trkpt lat="42.33256540509237" lon="12.216436195429138"><ele>702.5</ele><time>2026-04-24T15:24:30Z</time></trkpt><trkpt lat="42.33244417253058" lon="12.216402709575366"><ele>699.75</ele><time>2026-04-24T15:24:31Z</time></trkpt><trkpt lat="42.33232031880825" lon="12.216360597487418"><ele>697.0</ele><time>2026-04-24T15:24:32Z</time></trkpt><trkpt lat="42.3321988152011" lon="12.216325116151221"><ele>696.5</ele><time>2026-04-24T15:24:33Z</time></trkpt><trkpt lat="42.332082229864916" lon="12.216296364061227"><ele>696.0</ele><time>2026-04-24T15:24:34Z</time></trkpt><trkpt lat="42.33196136220153" lon="12.21625507823139"><ele>695.5</ele><time>2026-04-24T15:24:35Z</time></trkpt><trkpt lat="42.33183817839537" lon="12.21622721556664"><ele>695.0</ele><time>2026-04-24T15:24:36Z</time></trkpt><trkpt lat="42.33169962735841" lon="12.216199550108062"><ele>695.0</ele><time>2026-04-24T15:24:37Z</time></trkpt><trkpt lat="42.33156248929567" lon="12.216181966263383"><ele>695.0</ele><time>2026-04-24T15:24:38Z</time></trkpt><trkpt lat="42.33142747149781" lon="12.216176233706681"><ele>695.0</ele><time>2026-04-24T15:24:39Z</time></trkpt><trkpt lat="42.33129103275775" lon="12.21616989115498"><ele>695.0</ele><time>2026-04-24T15:24:39.999Z</time></trkpt><trkpt lat="42.331152010126566" lon="12.216176409674553"><ele>694.5</ele><time>2026-04-24T15:24:40.999Z</time></trkpt><trkpt lat="42.33100989826329" lon="12.216179009965964"><ele>694.0</ele><time>2026-04-24T15:24:41.999Z</time></trkpt><trkpt lat="42.33086441295337" lon="12.216169558983342"><ele>693.5</ele><time>2026-04-24T15:24:42.999Z</time></trkpt><trkpt lat="42.330716964675446" lon="12.216151245235803"><ele>693.0</ele><time>2026-04-24T15:24:43.999Z</time></trkpt><trkpt lat="42.33056737937839" lon="12.216092194478696"><ele>691.0</ele><time>2026-04-24T15:24:44.999Z</time></trkpt><trkpt lat="42.33041852369862" lon="12.216045513327606"><ele>689.0</ele><time>2026-04-24T15:24:46Z</time></trkpt><trkpt lat="42.33027548625918" lon="12.215993586211926"><ele>687.0</ele><time>2026-04-24T15:24:47Z</time></trkpt><trkpt lat="42.33012157293934" lon="12.215932818007674"><ele>687.0</ele><time>2026-04-24T15:24:48Z</time></trkpt><trkpt lat="42.32997338432706" lon="12.215869844277604"><ele>687.0</ele><time>2026-04-24T15:24:49Z</time></trkpt><trkpt lat="42.329831209642755" lon="12.215806845838328"><ele>687.0</ele><time>2026-04-24T15:24:50Z</time></trkpt><trkpt lat="42.32968100260023" lon="12.215731849819692"><ele>685.75</ele><time>2026-04-24T15:24:51Z</time></trkpt><trkpt lat="42.329527663147346" lon="12.215644547925297"><ele>684.5</ele><time>2026-04-24T15:24:52Z</time></trkpt><trkpt lat="42.329398532053204" lon="12.215565670825018"><ele>683.25</ele><time>2026-04-24T15:24:53Z</time></trkpt><trkpt lat="42.32927648004862" lon="12.215489790829377"><ele>682.0</ele><time>2026-04-24T15:24:54Z</time></trkpt><trkpt lat="42.32917066549072" lon="12.215423922312592"><ele>682.0</ele><time>2026-04-24T15:24:55Z</time></trkpt><trkpt lat="42.32906382232136" lon="12.215360594445002"><ele>682.0</ele><time>2026-04-24T15:24:56Z</time></trkpt><trkpt lat="42.32895560852157" lon="12.215298308754624"><ele>682.0</ele><time>2026-04-24T15:24:57Z</time></trkpt><trkpt lat="42.32884446843123" lon="12.215234856412879"><ele>682.0</ele><time>2026-04-24T15:24:58Z</time></trkpt><trkpt lat="42.3287227057422" lon="12.21516790427812"><ele>681.75</ele><time>2026-04-24T15:24:59Z</time></trkpt><trkpt lat="42.32858767120066" lon="12.215118000454627"><ele>681.5</ele><time>2026-04-24T15:25:00Z</time></trkpt><trkpt lat="42.328472179418256" lon="12.215051897203304"><ele>681.25</ele><time>2026-04-24T15:25:01Z</time></trkpt><trkpt lat="42.328358229697635" lon="12.214962221741212"><ele>681.0</ele><time>2026-04-24T15:25:02Z</time></trkpt><trkpt lat="42.3282537212596" lon="12.214899157833166"><ele>681.0</ele><time>2026-04-24T15:25:03Z</time></trkpt><trkpt lat="42.32815632909988" lon="12.214847432045824"><ele>681.0</ele><time>2026-04-24T15:25:04Z</time></trkpt><trkpt lat="42.328036771066934" lon="12.214797678882608"><ele>681.0</ele><time>2026-04-24T15:25:05Z</time></trkpt><trkpt lat="42.32792400727096" lon="12.214751829749385"><ele>681.0</ele><time>2026-04-24T15:25:06Z</time></trkpt><trkpt lat="42.327821365443896" lon="12.214716252592654"><ele>679.8</ele><time>2026-04-24T15:25:07Z</time></trkpt><trkpt lat="42.327712862934" lon="12.214701906116018"><ele>678.5999999999999</ele><time>2026-04-24T15:25:08Z</time></trkpt><trkpt lat="42.32760600036281" lon="12.214677161362232"><ele>677.4</ele><time>2026-04-24T15:25:09Z</time></trkpt><trkpt lat="42.32749494925729" lon="12.214652624981742"><ele>676.2</ele><time>2026-04-24T15:25:10Z</time></trkpt><trkpt lat="42.32738225360964" lon="12.214625431715953"><ele>675.0</ele><time>2026-04-24T15:25:11Z</time></trkpt><trkpt lat="42.32726972825087" lon="12.214612093588691"><ele>673.75</ele><time>2026-04-24T15:25:12Z</time></trkpt><trkpt lat="42.32715790057813" lon="12.214604868676654"><ele>672.5</ele><time>2026-04-24T15:25:13Z</time></trkpt><trkpt lat="42.32703597598809" lon="12.214591575557034"><ele>671.25</ele><time>2026-04-24T15:25:14Z</time></trkpt><trkpt lat="42.326921829714806" lon="12.214584620299538"><ele>670.0</ele><time>2026-04-24T15:25:15Z</time></trkpt><trkpt lat="42.326790021575434" lon="12.214584617456683"><ele>670.0</ele><time>2026-04-24T15:25:16Z</time></trkpt><trkpt lat="42.326631590145595" lon="12.214586449282036"><ele>670.0</ele><time>2026-04-24T15:25:17Z</time></trkpt><trkpt lat="42.326459748946235" lon="12.214588128851657"><ele>670.0</ele><time>2026-04-24T15:25:18Z</time></trkpt><trkpt lat="42.326291119498656" lon="12.214588476284462"><ele>669.6666666666667</ele><time>2026-04-24T15:25:19Z</time></trkpt><trkpt lat="42.32613456988164" lon="12.214587681544701"><ele>669.3333333333334</ele><time>2026-04-24T15:25:20Z</time></trkpt><trkpt lat="42.32597635306642" lon="12.214589558246912"><ele>669.0</ele><time>2026-04-24T15:25:21Z</time></trkpt><trkpt lat="42.325821414496566" lon="12.21459952770301"><ele>669.0</ele><time>2026-04-24T15:25:22Z</time></trkpt><trkpt lat="42.325672306748395" lon="12.214598985793835"><ele>669.0</ele><time>2026-04-24T15:25:23Z</time></trkpt><trkpt lat="42.325527107081314" lon="12.214599209969398"><ele>669.0</ele><time>2026-04-24T15:25:24Z</time></trkpt><trkpt lat="42.32538202675661" lon="12.214600601302518"><ele>669.0</ele><time>2026-04-24T15:25:25Z</time></trkpt><trkpt lat="42.32524545972521" lon="12.214605245247576"><ele>668.0</ele><time>2026-04-24T15:25:26Z</time></trkpt><trkpt lat="42.3251031321787" lon="12.214611920608613"><ele>667.0</ele><time>2026-04-24T15:25:27Z</time></trkpt><trkpt lat="42.324957986192736" lon="12.214599037289515"><ele>666.0</ele><time>2026-04-24T15:25:28Z</time></trkpt><trkpt lat="42.32481426965321" lon="12.214582024424113"><ele>665.0</ele><time>2026-04-24T15:25:29Z</time></trkpt><trkpt lat="42.32466909642468" lon="12.214561629165557"><ele>664.3333333333333</ele><time>2026-04-24T15:25:30Z</time></trkpt><trkpt lat="42.324516914879474" lon="12.214533482609781"><ele>663.6666666666666</ele><time>2026-04-24T15:25:31Z</time></trkpt><trkpt lat="42.324369012665294" lon="12.214495625794537"><ele>663.0</ele><time>2026-04-24T15:25:32Z</time></trkpt><trkpt lat="42.32422649885212" lon="12.214450530457611"><ele>663.0</ele><time>2026-04-24T15:25:33Z</time></trkpt><trkpt lat="42.324093493126384" lon="12.214411231813752"><ele>663.0</ele><time>2026-04-24T15:25:34Z</time></trkpt><trkpt lat="42.323946140119595" lon="12.214367472961158"><ele>663.0</ele><time>2026-04-24T15:25:35Z</time></trkpt><trkpt lat="42.32380837481263" lon="12.214325236920038"><ele>663.0</ele><time>2026-04-24T15:25:36Z</time></trkpt><trkpt lat="42.32366518506505" lon="12.214286077476551"><ele>661.5</ele><time>2026-04-24T15:25:37Z</time></trkpt><trkpt lat="42.323526342822106" lon="12.21424290867051"><ele>660.0</ele><time>2026-04-24T15:25:38Z</time></trkpt><trkpt lat="42.3233796320101" lon="12.214189287256318"><ele>658.5</ele><time>2026-04-24T15:25:39Z</time></trkpt><trkpt lat="42.32323910247852" lon="12.214127251496366"><ele>657.0</ele><time>2026-04-24T15:25:40Z</time></trkpt><trkpt lat="42.32309495928644" lon="12.214059095783448"><ele>655.75</ele><time>2026-04-24T15:25:41Z</time></trkpt><trkpt lat="42.322961856798955" lon="12.213998439718628"><ele>654.5</ele><time>2026-04-24T15:25:42Z</time></trkpt><trkpt lat="42.32282388305519" lon="12.213922169222153"><ele>653.25</ele><time>2026-04-24T15:25:43Z</time></trkpt><trkpt lat="42.32267987467224" lon="12.213839224352874"><ele>652.0</ele><time>2026-04-24T15:25:44Z</time></trkpt><trkpt lat="42.3225454002719" lon="12.213764160394655"><ele>651.3333333333334</ele><time>2026-04-24T15:25:45Z</time></trkpt><trkpt lat="42.32240334628895" lon="12.213681493052047"><ele>650.6666666666666</ele><time>2026-04-24T15:25:46Z</time></trkpt><trkpt lat="42.32226453842189" lon="12.213601333959376"><ele>650.0</ele><time>2026-04-24T15:25:47Z</time></trkpt><trkpt lat="42.322133144087864" lon="12.213521475486539"><ele>648.3333333333333</ele><time>2026-04-24T15:25:48Z</time></trkpt><trkpt lat="42.3219923007206" lon="12.213429988420364"><ele>646.6666666666666</ele><time>2026-04-24T15:25:49Z</time></trkpt><trkpt lat="42.32185327326757" lon="12.21333496382087"><ele>645.0</ele><time>2026-04-24T15:25:50Z</time></trkpt><trkpt lat="42.32171120013776" lon="12.213253639412244"><ele>645.0</ele><time>2026-04-24T15:25:51Z</time></trkpt><trkpt lat="42.32157250491126" lon="12.21317388302684"><ele>645.0</ele><time>2026-04-24T15:25:52Z</time></trkpt><trkpt lat="42.32143531607459" lon="12.213086706868836"><ele>645.0</ele><time>2026-04-24T15:25:53Z</time></trkpt><trkpt lat="42.32130145949695" lon="12.21300481921283"><ele>645.0</ele><time>2026-04-24T15:25:54Z</time></trkpt><trkpt lat="42.321171305861895" lon="12.212926497315511"><ele>642.6666666666666</ele><time>2026-04-24T15:25:55Z</time></trkpt><trkpt lat="42.32102605339456" lon="12.212824366280758"><ele>640.3333333333333</ele><time>2026-04-24T15:25:56Z</time></trkpt><trkpt lat="42.320889144419894" lon="12.212743222222803"><ele>638.0</ele><time>2026-04-24T15:25:57Z</time></trkpt><trkpt lat="42.3207411388514" lon="12.212654033099534"><ele>638.0</ele><time>2026-04-24T15:25:58Z</time></trkpt><trkpt lat="42.320602946846165" lon="12.212571508429733"><ele>638.0</ele><time>2026-04-24T15:25:59Z</time></trkpt><trkpt lat="42.320460345380795" lon="12.212483036240538"><ele>638.0</ele><time>2026-04-24T15:26:00Z</time></trkpt><trkpt lat="42.32031426608136" lon="12.212405690339404"><ele>634.6666666666666</ele><time>2026-04-24T15:26:01Z</time></trkpt><trkpt lat="42.320167746476066" lon="12.212322885144875"><ele>631.3333333333334</ele><time>2026-04-24T15:26:02Z</time></trkpt><trkpt lat="42.32002091521941" lon="12.212236374981753"><ele>628.0</ele><time>2026-04-24T15:26:03Z</time></trkpt><trkpt lat="42.31988168008458" lon="12.212149138818797"><ele>628.0</ele><time>2026-04-24T15:26:04Z</time></trkpt><trkpt lat="42.3197366674489" lon="12.212057607624285"><ele>628.0</ele><time>2026-04-24T15:26:05Z</time></trkpt><trkpt lat="42.319590860203974" lon="12.211978189692504"><ele>628.0</ele><time>2026-04-24T15:26:06Z</time></trkpt><trkpt lat="42.31945187771061" lon="12.21188737951059"><ele>628.25</ele><time>2026-04-24T15:26:07Z</time></trkpt><trkpt lat="42.31932635823511" lon="12.21180064261132"><ele>628.5</ele><time>2026-04-24T15:26:08Z</time></trkpt><trkpt lat="42.31919781234651" lon="12.21170788828438"><ele>628.75</ele><time>2026-04-24T15:26:09Z</time></trkpt><trkpt lat="42.31906145775535" lon="12.211602651677605"><ele>629.0</ele><time>2026-04-24T15:26:10Z</time></trkpt><trkpt lat="42.31893406167379" lon="12.211490501662283"><ele>627.0</ele><time>2026-04-24T15:26:11Z</time></trkpt><trkpt lat="42.31881457035389" lon="12.211400604774173"><ele>625.0</ele><time>2026-04-24T15:26:12Z</time></trkpt><trkpt lat="42.31868590269306" lon="12.211290369636462"><ele>623.0</ele><time>2026-04-24T15:26:13Z</time></trkpt><trkpt lat="42.318545789019986" lon="12.211179895828128"><ele>623.0</ele><time>2026-04-24T15:26:14Z</time></trkpt><trkpt lat="42.3184175396055" lon="12.211073641678572"><ele>623.0</ele><time>2026-04-24T15:26:15Z</time></trkpt><trkpt lat="42.318280700732075" lon="12.21094700857271"><ele>623.0</ele><time>2026-04-24T15:26:16Z</time></trkpt><trkpt lat="42.31815609873565" lon="12.210855156384195"><ele>622.0</ele><time>2026-04-24T15:26:17Z</time></trkpt><trkpt lat="42.31802165257688" lon="12.210742491845098"><ele>621.0</ele><time>2026-04-24T15:26:18Z</time></trkpt><trkpt lat="42.31788470245731" lon="12.210634025363964"><ele>620.0</ele><time>2026-04-24T15:26:19Z</time></trkpt><trkpt lat="42.31776282567479" lon="12.2105123955079"><ele>620.0</ele><time>2026-04-24T15:26:20Z</time></trkpt><trkpt lat="42.31763485779575" lon="12.210390716446012"><ele>620.0</ele><time>2026-04-24T15:26:21Z</time></trkpt><trkpt lat="42.3174946946215" lon="12.210289575491517"><ele>620.0</ele><time>2026-04-24T15:26:22Z</time></trkpt><trkpt lat="42.31737227832718" lon="12.210189021136824"><ele>620.0</ele><time>2026-04-24T15:26:23Z</time></trkpt><trkpt lat="42.3172640199036" lon="12.210104629444741"><ele>620.0</ele><time>2026-04-24T15:26:24Z</time></trkpt><trkpt lat="42.31715040497065" lon="12.21002568957179"><ele>620.0</ele><time>2026-04-24T15:26:25Z</time></trkpt><trkpt lat="42.3170245888805" lon="12.209964689171063"><ele>620.0</ele><time>2026-04-24T15:26:26Z</time></trkpt><trkpt lat="42.316890151027316" lon="12.209917724641354"><ele>619.0</ele><time>2026-04-24T15:26:27Z</time></trkpt><trkpt lat="42.31675604331568" lon="12.209884973892427"><ele>618.0</ele><time>2026-04-24T15:26:28Z</time></trkpt><trkpt lat="42.31662219283569" lon="12.209870078940886"><ele>617.0</ele><time>2026-04-24T15:26:29Z</time></trkpt><trkpt lat="42.316474518675896" lon="12.209870395567707"><ele>616.0</ele><time>2026-04-24T15:26:30Z</time></trkpt><trkpt lat="42.316315006955435" lon="12.20987272951997"><ele>615.0</ele><time>2026-04-24T15:26:31Z</time></trkpt><trkpt lat="42.316164873933005" lon="12.209879116200279"><ele>614.0</ele><time>2026-04-24T15:26:32Z</time></trkpt><trkpt lat="42.31600845680382" lon="12.209881422745115"><ele>613.0</ele><time>2026-04-24T15:26:33Z</time></trkpt><trkpt lat="42.31585554642365" lon="12.209882161708009"><ele>613.0</ele><time>2026-04-24T15:26:34Z</time></trkpt><trkpt lat="42.315710584466544" lon="12.209895124730497"><ele>613.0</ele><time>2026-04-24T15:26:35Z</time></trkpt><trkpt lat="42.315570920478656" lon="12.20991805760109"><ele>613.0</ele><time>2026-04-24T15:26:36Z</time></trkpt><trkpt lat="42.315431263645" lon="12.209935178966267"><ele>613.0</ele><time>2026-04-24T15:26:37Z</time></trkpt><trkpt lat="42.31529128394628" lon="12.209953568174283"><ele>612.75</ele><time>2026-04-24T15:26:37.999Z</time></trkpt><trkpt lat="42.31515184443471" lon="12.209941315377627"><ele>612.5</ele><time>2026-04-24T15:26:38.999Z</time></trkpt><trkpt lat="42.315008168697176" lon="12.209937964402153"><ele>612.25</ele><time>2026-04-24T15:26:39.999Z</time></trkpt><trkpt lat="42.31486449371132" lon="12.209925129352271"><ele>612.0</ele><time>2026-04-24T15:26:40.999Z</time></trkpt><trkpt lat="42.314725612036725" lon="12.209901588346133"><ele>610.75</ele><time>2026-04-24T15:26:41.999Z</time></trkpt><trkpt lat="42.314585675278536" lon="12.209869094265683"><ele>609.5</ele><time>2026-04-24T15:26:42.999Z</time></trkpt><trkpt lat="42.31446275005259" lon="12.209834026252183"><ele>608.25</ele><time>2026-04-24T15:26:43.999Z</time></trkpt><trkpt lat="42.31434477059607" lon="12.20979654579112"><ele>607.0</ele><time>2026-04-24T15:26:44.999Z</time></trkpt><trkpt lat="42.314212838210494" lon="12.2097529601501"><ele>607.0</ele><time>2026-04-24T15:26:45.999Z</time></trkpt><trkpt lat="42.31410884358144" lon="12.209718604078256"><ele>607.0</ele><time>2026-04-24T15:26:46.999Z</time></trkpt><trkpt lat="42.31397922400271" lon="12.209675782397566"><ele>607.0</ele><time>2026-04-24T15:26:47.999Z</time></trkpt><trkpt lat="42.31384725222608" lon="12.209630844679634"><ele>607.0</ele><time>2026-04-24T15:26:48.999Z</time></trkpt><trkpt lat="42.313720178144976" lon="12.209587649964764"><ele>606.25</ele><time>2026-04-24T15:26:49.999Z</time></trkpt><trkpt lat="42.31358166268765" lon="12.209540564046343"><ele>605.5</ele><time>2026-04-24T15:26:50.999Z</time></trkpt><trkpt lat="42.313436229836924" lon="12.209491126815271"><ele>604.75</ele><time>2026-04-24T15:26:52Z</time></trkpt><trkpt lat="42.31329335976945" lon="12.209442560803122"><ele>604.0</ele><time>2026-04-24T15:26:53Z</time></trkpt><trkpt lat="42.31315270108366" lon="12.209394746464824"><ele>603.0</ele><time>2026-04-24T15:26:54Z</time></trkpt><trkpt lat="42.31301859925671" lon="12.20934916100296"><ele>602.0</ele><time>2026-04-24T15:26:55Z</time></trkpt><trkpt lat="42.312905722699725" lon="12.209310790721812"><ele>601.0</ele><time>2026-04-24T15:26:56Z</time></trkpt><trkpt lat="42.31277523082583" lon="12.20926593058348"><ele>600.0</ele><time>2026-04-24T15:26:57Z</time></trkpt><trkpt lat="42.31265141554212" lon="12.209222784551853"><ele>600.0</ele><time>2026-04-24T15:26:58Z</time></trkpt><trkpt lat="42.31252730166198" lon="12.2091772060204"><ele>600.0</ele><time>2026-04-24T15:26:59Z</time></trkpt><trkpt lat="42.31240416030132" lon="12.209153582688513"><ele>600.0</ele><time>2026-04-24T15:27:00Z</time></trkpt><trkpt lat="42.312285778880764" lon="12.209095207571641"><ele>600.0</ele><time>2026-04-24T15:27:01Z</time></trkpt><trkpt lat="42.31216988414141" lon="12.209030093619102"><ele>599.25</ele><time>2026-04-24T15:27:02Z</time></trkpt><trkpt lat="42.31206125631549" lon="12.208939572742262"><ele>598.5</ele><time>2026-04-24T15:27:03Z</time></trkpt><trkpt lat="42.311952729556765" lon="12.208836481057757"><ele>597.75</ele><time>2026-04-24T15:27:04Z</time></trkpt><trkpt lat="42.31184843003716" lon="12.2087261448022"><ele>597.0</ele><time>2026-04-24T15:27:05Z</time></trkpt><trkpt lat="42.311763204153316" lon="12.2086139753729"><ele>597.0</ele><time>2026-04-24T15:27:06Z</time></trkpt><trkpt lat="42.311646826749964" lon="12.20847550562646"><ele>597.0</ele><time>2026-04-24T15:27:07Z</time></trkpt><trkpt lat="42.311546876442016" lon="12.208346682011133"><ele>597.0</ele><time>2026-04-24T15:27:08Z</time></trkpt><trkpt lat="42.31144383780895" lon="12.208218489114225"><ele>597.0</ele><time>2026-04-24T15:27:09Z</time></trkpt><trkpt lat="42.31134726840341" lon="12.208095653219756"><ele>596.0</ele><time>2026-04-24T15:27:10Z</time></trkpt><trkpt lat="42.31126563672598" lon="12.207973855518416"><ele>595.0</ele><time>2026-04-24T15:27:11Z</time></trkpt><trkpt lat="42.3111584634627" lon="12.207849000581126"><ele>594.0</ele><time>2026-04-24T15:27:12Z</time></trkpt><trkpt lat="42.311066229942575" lon="12.207742404835502"><ele>593.0</ele><time>2026-04-24T15:27:13Z</time></trkpt><trkpt lat="42.31097894565656" lon="12.207662007871338"><ele>593.0</ele><time>2026-04-24T15:27:14Z</time></trkpt><trkpt lat="42.31088305477112" lon="12.207556842350106"><ele>593.0</ele><time>2026-04-24T15:27:15Z</time></trkpt><trkpt lat="42.31080972344201" lon="12.207458784652736"><ele>593.0</ele><time>2026-04-24T15:27:16Z</time></trkpt><trkpt lat="42.31073287086998" lon="12.207358493019816"><ele>593.0</ele><time>2026-04-24T15:27:17Z</time></trkpt><trkpt lat="42.31063942870425" lon="12.20725625984596"><ele>591.8</ele><time>2026-04-24T15:27:18Z</time></trkpt><trkpt lat="42.310551091633904" lon="12.207152792165076"><ele>590.5999999999999</ele><time>2026-04-24T15:27:19Z</time></trkpt><trkpt lat="42.310464274420355" lon="12.207066885451885"><ele>589.4000000000001</ele><time>2026-04-24T15:27:20Z</time></trkpt><trkpt lat="42.310373113257405" lon="12.2069692485758"><ele>588.2</ele><time>2026-04-24T15:27:21Z</time></trkpt><trkpt lat="42.31029462223719" lon="12.20688482096185"><ele>587.0</ele><time>2026-04-24T15:27:22Z</time></trkpt><trkpt lat="42.310202360233646" lon="12.206790101119623"><ele>587.0</ele><time>2026-04-24T15:27:23Z</time></trkpt><trkpt lat="42.31009848597711" lon="12.206670197589599"><ele>587.0</ele><time>2026-04-24T15:27:24Z</time></trkpt><trkpt lat="42.30999526856225" lon="12.2065666087737"><ele>587.0</ele><time>2026-04-24T15:27:25Z</time></trkpt><trkpt lat="42.30992819961392" lon="12.206502295945057"><ele>587.0</ele><time>2026-04-24T15:27:26Z</time></trkpt><trkpt lat="42.309824046067" lon="12.206376423982757"><ele>585.5</ele><time>2026-04-24T15:27:27Z</time></trkpt><trkpt lat="42.3097354331394" lon="12.206275262869656"><ele>584.0</ele><time>2026-04-24T15:27:28Z</time></trkpt><trkpt lat="42.30965049757685" lon="12.20617506004092"><ele>582.5</ele><time>2026-04-24T15:27:29Z</time></trkpt><trkpt lat="42.30955197741787" lon="12.206051044498354"><ele>581.0</ele><time>2026-04-24T15:27:30Z</time></trkpt><trkpt lat="42.30947348539869" lon="12.205948945670865"><ele>581.0</ele><time>2026-04-24T15:27:31Z</time></trkpt><trkpt lat="42.309394862503474" lon="12.205839612758572"><ele>581.0</ele><time>2026-04-24T15:27:32Z</time></trkpt><trkpt lat="42.30931186127598" lon="12.205730907122044"><ele>581.0</ele><time>2026-04-24T15:27:33Z</time></trkpt><trkpt lat="42.309221973478344" lon="12.20563687534368"><ele>581.0</ele><time>2026-04-24T15:27:34Z</time></trkpt><trkpt lat="42.30909725005778" lon="12.20555500457729"><ele>578.75</ele><time>2026-04-24T15:27:35Z</time></trkpt><trkpt lat="42.308973839390234" lon="12.205491455529822"><ele>576.5</ele><time>2026-04-24T15:27:36Z</time></trkpt><trkpt lat="42.308838001148764" lon="12.205430358672913"><ele>574.25</ele><time>2026-04-24T15:27:37Z</time></trkpt><trkpt lat="42.30870962181696" lon="12.205383739707594"><ele>572.0</ele><time>2026-04-24T15:27:38Z</time></trkpt><trkpt lat="42.30859091631789" lon="12.205347860316886"><ele>570.75</ele><time>2026-04-24T15:27:39Z</time></trkpt><trkpt lat="42.308429040470976" lon="12.205286994611205"><ele>569.5</ele><time>2026-04-24T15:27:40Z</time></trkpt><trkpt lat="42.308328283570816" lon="12.205180653982627"><ele>568.25</ele><time>2026-04-24T15:27:41Z</time></trkpt><trkpt lat="42.30820760307004" lon="12.205117193316577"><ele>567.0</ele><time>2026-04-24T15:27:42Z</time></trkpt><trkpt lat="42.30813333022008" lon="12.20506686999544"><ele>568.75</ele><time>2026-04-24T15:27:43Z</time></trkpt><trkpt lat="42.308000588152424" lon="12.204976371884099"><ele>570.5</ele><time>2026-04-24T15:27:44Z</time></trkpt><trkpt lat="42.30787615424009" lon="12.204885255137429"><ele>572.25</ele><time>2026-04-24T15:27:45Z</time></trkpt><trkpt lat="42.307744174187604" lon="12.204782089319455"><ele>574.0</ele><time>2026-04-24T15:27:46Z</time></trkpt><trkpt lat="42.30762837756778" lon="12.20465006134482"><ele>573.75</ele><time>2026-04-24T15:27:47Z</time></trkpt><trkpt lat="42.30752631927144" lon="12.204538103671586"><ele>573.5</ele><time>2026-04-24T15:27:48Z</time></trkpt><trkpt lat="42.3074486529628" lon="12.204452817817906"><ele>573.25</ele><time>2026-04-24T15:27:49Z</time></trkpt><trkpt lat="42.307376317476646" lon="12.204372846918682"><ele>573.0</ele><time>2026-04-24T15:27:50Z</time></trkpt><trkpt lat="42.307225430458466" lon="12.2041954605365"><ele>573.0</ele><time>2026-04-24T15:27:51Z</time></trkpt><trkpt lat="42.3071286945295" lon="12.204076574614865"><ele>573.0</ele><time>2026-04-24T15:27:52Z</time></trkpt><trkpt lat="42.3070283640425" lon="12.203952793234365"><ele>573.0</ele><time>2026-04-24T15:27:53Z</time></trkpt><trkpt lat="42.30692991204643" lon="12.203831281030777"><ele>573.0</ele><time>2026-04-24T15:27:54Z</time></trkpt><trkpt lat="42.306819974456474" lon="12.203695569608676"><ele>564.6666666666666</ele><time>2026-04-24T15:27:55Z</time></trkpt><trkpt lat="42.306705887325045" lon="12.203553403904703"><ele>556.3333333333333</ele><time>2026-04-24T15:27:56Z</time></trkpt><trkpt lat="42.30659495877366" lon="12.20341171380038"><ele>548.0</ele><time>2026-04-24T15:27:57Z</time></trkpt><trkpt lat="42.30646507191485" lon="12.203242859744371"><ele>546.5</ele><time>2026-04-24T15:27:58Z</time></trkpt><trkpt lat="42.306380527176685" lon="12.203124328939115"><ele>545.0</ele><time>2026-04-24T15:27:59Z</time></trkpt><trkpt lat="42.30627872831189" lon="12.202993873190767"><ele>543.5</ele><time>2026-04-24T15:28:00Z</time></trkpt><trkpt lat="42.30618369777388" lon="12.20285262767927"><ele>542.0</ele><time>2026-04-24T15:28:01Z</time></trkpt><trkpt lat="42.30608084748148" lon="12.202709184949297"><ele>542.0</ele><time>2026-04-24T15:28:02Z</time></trkpt><trkpt lat="42.30598637124554" lon="12.202560308188808"><ele>542.0</ele><time>2026-04-24T15:28:03Z</time></trkpt><trkpt lat="42.30589405593114" lon="12.202411911970591"><ele>542.0</ele><time>2026-04-24T15:28:04Z</time></trkpt><trkpt lat="42.30579322692938" lon="12.202253230426201"><ele>542.0</ele><time>2026-04-24T15:28:05Z</time></trkpt><trkpt lat="42.305695959821946" lon="12.202100169212738"><ele>541.25</ele><time>2026-04-24T15:28:06Z</time></trkpt><trkpt lat="42.30561476784419" lon="12.201959074584096"><ele>540.5</ele><time>2026-04-24T15:28:07Z</time></trkpt><trkpt lat="42.305523644439546" lon="12.201815349341151"><ele>539.75</ele><time>2026-04-24T15:28:08Z</time></trkpt><trkpt lat="42.30542366592263" lon="12.201674314754316"><ele>539.0</ele><time>2026-04-24T15:28:09Z</time></trkpt><trkpt lat="42.30533586079502" lon="12.20152547842532"><ele>537.75</ele><time>2026-04-24T15:28:10Z</time></trkpt><trkpt lat="42.3052477442249" lon="12.20139017618586"><ele>536.5</ele><time>2026-04-24T15:28:11Z</time></trkpt><trkpt lat="42.30516215514786" lon="12.201246665562008"><ele>535.25</ele><time>2026-04-24T15:28:12Z</time></trkpt><trkpt lat="42.30506778031026" lon="12.201089631661597"><ele>534.0</ele><time>2026-04-24T15:28:13Z</time></trkpt><trkpt lat="42.304968461019115" lon="12.200946327895908"><ele>534.0</ele><time>2026-04-24T15:28:14Z</time></trkpt><trkpt lat="42.304873524212866" lon="12.200793801835975"><ele>534.0</ele><time>2026-04-24T15:28:15Z</time></trkpt><trkpt lat="42.30477790743689" lon="12.200626493799623"><ele>534.0</ele><time>2026-04-24T15:28:16Z</time></trkpt><trkpt lat="42.30467544167622" lon="12.200471811804755"><ele>533.75</ele><time>2026-04-24T15:28:17Z</time></trkpt><trkpt lat="42.30457833537085" lon="12.200328795728137"><ele>533.5</ele><time>2026-04-24T15:28:18Z</time></trkpt><trkpt lat="42.30449121809029" lon="12.20020951436934"><ele>533.25</ele><time>2026-04-24T15:28:19Z</time></trkpt><trkpt lat="42.30440052952419" lon="12.200086190024896"><ele>533.0</ele><time>2026-04-24T15:28:20Z</time></trkpt><trkpt lat="42.30431050058941" lon="12.199962986643515"><ele>533.0</ele><time>2026-04-24T15:28:21Z</time></trkpt><trkpt lat="42.304211395519" lon="12.199834482351768"><ele>533.0</ele><time>2026-04-24T15:28:22Z</time></trkpt><trkpt lat="42.304130895875005" lon="12.199717038808977"><ele>533.0</ele><time>2026-04-24T15:28:23Z</time></trkpt><trkpt lat="42.30402389225948" lon="12.199613621751675"><ele>533.0</ele><time>2026-04-24T15:28:24Z</time></trkpt><trkpt lat="42.303909096674516" lon="12.199536781939544"><ele>534.25</ele><time>2026-04-24T15:28:25Z</time></trkpt><trkpt lat="42.30379840111202" lon="12.199484344390003"><ele>535.5</ele><time>2026-04-24T15:28:26Z</time></trkpt><trkpt lat="42.30368076030323" lon="12.199445389090078"><ele>536.75</ele><time>2026-04-24T15:28:27Z</time></trkpt><trkpt lat="42.303560045374844" lon="12.199416615439493"><ele>538.0</ele><time>2026-04-24T15:28:28Z</time></trkpt><trkpt lat="42.30346963400299" lon="12.199430465456617"><ele>538.0</ele><time>2026-04-24T15:28:29Z</time></trkpt><trkpt lat="42.30335904698373" lon="12.199444989496527"><ele>538.0</ele><time>2026-04-24T15:28:30Z</time></trkpt><trkpt lat="42.30325469173254" lon="12.199483888766375"><ele>538.0</ele><time>2026-04-24T15:28:31Z</time></trkpt><trkpt lat="42.303146708841275" lon="12.19953604752073"><ele>538.0</ele><time>2026-04-24T15:28:32Z</time></trkpt><trkpt lat="42.30303833502486" lon="12.199589466818324"><ele>538.0</ele><time>2026-04-24T15:28:33Z</time></trkpt><trkpt lat="42.30292828257408" lon="12.199643713601949"><ele>538.75</ele><time>2026-04-24T15:28:34Z</time></trkpt><trkpt lat="42.3028263232111" lon="12.199689439605017"><ele>539.5</ele><time>2026-04-24T15:28:35Z</time></trkpt><trkpt lat="42.30270926490292" lon="12.1997563490786"><ele>540.25</ele><time>2026-04-24T15:28:36Z</time></trkpt><trkpt lat="42.302615678936675" lon="12.199805959030082"><ele>541.0</ele><time>2026-04-24T15:28:37Z</time></trkpt><trkpt lat="42.30250385817989" lon="12.199852152678355"><ele>541.25</ele><time>2026-04-24T15:28:38Z</time></trkpt><trkpt lat="42.30237594420545" lon="12.19990183891278"><ele>541.5</ele><time>2026-04-24T15:28:39Z</time></trkpt><trkpt lat="42.30224961053537" lon="12.199964711801888"><ele>541.75</ele><time>2026-04-24T15:28:40Z</time></trkpt><trkpt lat="42.30214187973768" lon="12.20001508823675"><ele>542.0</ele><time>2026-04-24T15:28:40.999Z</time></trkpt><trkpt lat="42.30202297542583" lon="12.200065006249833"><ele>543.5</ele><time>2026-04-24T15:28:41.999Z</time></trkpt><trkpt lat="42.30190582182146" lon="12.200114623258106"><ele>545.0</ele><time>2026-04-24T15:28:42.999Z</time></trkpt><trkpt lat="42.3017878242209" lon="12.20017576434879"><ele>546.5</ele><time>2026-04-24T15:28:43.999Z</time></trkpt><trkpt lat="42.30166454733728" lon="12.200244470007508"><ele>548.0</ele><time>2026-04-24T15:28:44.999Z</time></trkpt><trkpt lat="42.30153022767195" lon="12.20032486129905"><ele>548.0</ele><time>2026-04-24T15:28:45.999Z</time></trkpt><trkpt lat="42.30142001529907" lon="12.200395845651848"><ele>548.0</ele><time>2026-04-24T15:28:46.999Z</time></trkpt><trkpt lat="42.30130282495916" lon="12.200480891149313"><ele>548.0</ele><time>2026-04-24T15:28:47.999Z</time></trkpt><trkpt lat="42.301205388118085" lon="12.200553925076424"><ele>548.0</ele><time>2026-04-24T15:28:48.999Z</time></trkpt><trkpt lat="42.301101344869316" lon="12.200616449072767"><ele>548.1999999999999</ele><time>2026-04-24T15:28:49.999Z</time></trkpt><trkpt lat="42.30099289922276" lon="12.200671648096579"><ele>548.4</ele><time>2026-04-24T15:28:50.999Z</time></trkpt><trkpt lat="42.30088925289957" lon="12.200714843251687"><ele>548.5999999999999</ele><time>2026-04-24T15:28:51.999Z</time></trkpt><trkpt lat="42.3007892434168" lon="12.200750521849839"><ele>548.8</ele><time>2026-04-24T15:28:52.999Z</time></trkpt><trkpt lat="42.30067661253115" lon="12.200774979601722"><ele>549.0</ele><time>2026-04-24T15:28:53.999Z</time></trkpt><trkpt lat="42.30056129065933" lon="12.20077963426785"><ele>549.0</ele><time>2026-04-24T15:28:54.999Z</time></trkpt><trkpt lat="42.30042653656583" lon="12.20080699886589"><ele>549.0</ele><time>2026-04-24T15:28:55.999Z</time></trkpt><trkpt lat="42.30030343427599" lon="12.20083866639338"><ele>549.0</ele><time>2026-04-24T15:28:56.999Z</time></trkpt><trkpt lat="42.300196806190726" lon="12.200852653496472"><ele>549.0</ele><time>2026-04-24T15:28:58Z</time></trkpt><trkpt lat="42.30009563094386" lon="12.200856135517185"><ele>549.0</ele><time>2026-04-24T15:28:59Z</time></trkpt><trkpt lat="42.30000210799971" lon="12.200829884494047"><ele>549.0</ele><time>2026-04-24T15:29:00Z</time></trkpt><trkpt lat="42.29991216686571" lon="12.200826133793615"><ele>549.0</ele><time>2026-04-24T15:29:01Z</time></trkpt><trkpt lat="42.29982230145573" lon="12.200833010079705"><ele>549.0</ele><time>2026-04-24T15:29:02Z</time></trkpt><trkpt lat="42.2997358723513" lon="12.200845391260454"><ele>549.0</ele><time>2026-04-24T15:29:03Z</time></trkpt><trkpt lat="42.299652376141815" lon="12.200863869015583"><ele>549.0</ele><time>2026-04-24T15:29:04Z</time></trkpt><trkpt lat="42.29955230016947" lon="12.20090639364662"><ele>548.4</ele><time>2026-04-24T15:29:05Z</time></trkpt><trkpt lat="42.29947234836145" lon="12.200976332646311"><ele>547.8</ele><time>2026-04-24T15:29:06Z</time></trkpt><trkpt lat="42.2993944102668" lon="12.201051446095484"><ele>547.2</ele><time>2026-04-24T15:29:07Z</time></trkpt><trkpt lat="42.29931600380874" lon="12.20115122037054"><ele>546.6</ele><time>2026-04-24T15:29:08Z</time></trkpt><trkpt lat="42.299231965173355" lon="12.201260958161825"><ele>546.0</ele><time>2026-04-24T15:29:09Z</time></trkpt><trkpt lat="42.29916067073264" lon="12.201398634632364"><ele>545.75</ele><time>2026-04-24T15:29:10Z</time></trkpt><trkpt lat="42.2990883685139" lon="12.201526229829105"><ele>545.5</ele><time>2026-04-24T15:29:11Z</time></trkpt><trkpt lat="42.29901560476317" lon="12.201661231227241"><ele>545.25</ele><time>2026-04-24T15:29:12Z</time></trkpt><trkpt lat="42.29894698085737" lon="12.201802831826821"><ele>545.0</ele><time>2026-04-24T15:29:13Z</time></trkpt><trkpt lat="42.298886366449096" lon="12.201931194913014"><ele>543.8</ele><time>2026-04-24T15:29:14Z</time></trkpt><trkpt lat="42.29881988193753" lon="12.202053315829872"><ele>542.6</ele><time>2026-04-24T15:29:15Z</time></trkpt><trkpt lat="42.298760256329736" lon="12.20217854763921"><ele>541.4</ele><time>2026-04-24T15:29:16Z</time></trkpt><trkpt lat="42.29869675766866" lon="12.202303411349302"><ele>540.2</ele><time>2026-04-24T15:29:17Z</time></trkpt><trkpt lat="42.29863576340565" lon="12.202425122611885"><ele>539.0</ele><time>2026-04-24T15:29:18Z</time></trkpt><trkpt lat="42.29858679108253" lon="12.202533721222892"><ele>538.4</ele><time>2026-04-24T15:29:19Z</time></trkpt><trkpt lat="42.29853108111209" lon="12.202643417566447"><ele>537.8</ele><time>2026-04-24T15:29:20Z</time></trkpt><trkpt lat="42.29847166797039" lon="12.202743412493218"><ele>537.2</ele><time>2026-04-24T15:29:21Z</time></trkpt><trkpt lat="42.29841213189231" lon="12.202830336696323"><ele>536.6</ele><time>2026-04-24T15:29:22Z</time></trkpt><trkpt lat="42.29835873205539" lon="12.202925097653571"><ele>536.0</ele><time>2026-04-24T15:29:23Z</time></trkpt><trkpt lat="42.29829466696709" lon="12.203029115005814"><ele>536.0</ele><time>2026-04-24T15:29:24Z</time></trkpt><trkpt lat="42.29822249521029" lon="12.203144053896164"><ele>536.0</ele><time>2026-04-24T15:29:25Z</time></trkpt><trkpt lat="42.29815118861623" lon="12.203246846410462"><ele>536.0</ele><time>2026-04-24T15:29:26Z</time></trkpt><trkpt lat="42.29807839162136" lon="12.203326732546074"><ele>536.0</ele><time>2026-04-24T15:29:27Z</time></trkpt><trkpt lat="42.29801075966715" lon="12.203428889748112"><ele>536.0</ele><time>2026-04-24T15:29:28Z</time></trkpt><trkpt lat="42.297939657820855" lon="12.203542928034729"><ele>534.2</ele><time>2026-04-24T15:29:29Z</time></trkpt><trkpt lat="42.297864166187566" lon="12.203635505959618"><ele>532.4000000000001</ele><time>2026-04-24T15:29:30Z</time></trkpt><trkpt lat="42.29779965581501" lon="12.203746119635648"><ele>530.6</ele><time>2026-04-24T15:29:31Z</time></trkpt><trkpt lat="42.297741763098465" lon="12.20385326282697"><ele>528.8000000000001</ele><time>2026-04-24T15:29:32Z</time></trkpt><trkpt lat="42.29767430290679" lon="12.20393814415777"><ele>527.0</ele><time>2026-04-24T15:29:33Z</time></trkpt><trkpt lat="42.297622493458704" lon="12.204045397886654"><ele>527.0</ele><time>2026-04-24T15:29:34Z</time></trkpt><trkpt lat="42.29757324213352" lon="12.20416511107922"><ele>527.0</ele><time>2026-04-24T15:29:35Z</time></trkpt><trkpt lat="42.29752888778181" lon="12.204300628301539"><ele>527.0</ele><time>2026-04-24T15:29:36Z</time></trkpt><trkpt lat="42.29748618890279" lon="12.204437884393661"><ele>527.0</ele><time>2026-04-24T15:29:37Z</time></trkpt><trkpt lat="42.2974415482435" lon="12.204569096897792"><ele>527.0</ele><time>2026-04-24T15:29:38Z</time></trkpt><trkpt lat="42.29739696855284" lon="12.20470672116573"><ele>526.4</ele><time>2026-04-24T15:29:39Z</time></trkpt><trkpt lat="42.29735387651264" lon="12.204832382027769"><ele>525.8000000000001</ele><time>2026-04-24T15:29:40Z</time></trkpt><trkpt lat="42.29731177728681" lon="12.204955673934618"><ele>525.2</ele><time>2026-04-24T15:29:41Z</time></trkpt><trkpt lat="42.29726268094133" lon="12.205076182961866"><ele>524.6</ele><time>2026-04-24T15:29:42Z</time></trkpt><trkpt lat="42.29721747809654" lon="12.205191492605936"><ele>524.0</ele><time>2026-04-24T15:29:43Z</time></trkpt><trkpt lat="42.29717194182279" lon="12.205310209059881"><ele>523.4</ele><time>2026-04-24T15:29:44Z</time></trkpt><trkpt lat="42.29712011294522" lon="12.20544408266648"><ele>522.8</ele><time>2026-04-24T15:29:45Z</time></trkpt><trkpt lat="42.29707422831578" lon="12.205578275778658"><ele>522.2</ele><time>2026-04-24T15:29:46Z</time></trkpt><trkpt lat="42.2970218406159" lon="12.205705551493685"><ele>521.6</ele><time>2026-04-24T15:29:47Z</time></trkpt><trkpt lat="42.2969679192582" lon="12.205837199176086"><ele>521.0</ele><time>2026-04-24T15:29:48Z</time></trkpt><trkpt lat="42.2969098633538" lon="12.20595670456295"><ele>518.8</ele><time>2026-04-24T15:29:49Z</time></trkpt><trkpt lat="42.29684816087021" lon="12.206060318512804"><ele>516.6</ele><time>2026-04-24T15:29:50Z</time></trkpt><trkpt lat="42.296789194256874" lon="12.206173080447154"><ele>514.4</ele><time>2026-04-24T15:29:51Z</time></trkpt><trkpt lat="42.29672690844377" lon="12.206290924892818"><ele>512.2</ele><time>2026-04-24T15:29:52Z</time></trkpt><trkpt lat="42.296675671775866" lon="12.206428847432319"><ele>510.0</ele><time>2026-04-24T15:29:53Z</time></trkpt><trkpt lat="42.29662237848365" lon="12.206566660648685"><ele>507.5</ele><time>2026-04-24T15:29:54Z</time></trkpt><trkpt lat="42.29657260284381" lon="12.206716657320316"><ele>505.0</ele><time>2026-04-24T15:29:55Z</time></trkpt><trkpt lat="42.29652184927556" lon="12.206869009927022"><ele>502.5</ele><time>2026-04-24T15:29:56Z</time></trkpt><trkpt lat="42.296473631958285" lon="12.20702858310444"><ele>500.0</ele><time>2026-04-24T15:29:57Z</time></trkpt><trkpt lat="42.296428933538856" lon="12.207187229209564"><ele>500.5</ele><time>2026-04-24T15:29:58Z</time></trkpt><trkpt lat="42.296384771911875" lon="12.207347107813346"><ele>501.0</ele><time>2026-04-24T15:29:59Z</time></trkpt><trkpt lat="42.296352172347" lon="12.207506158279008"><ele>501.5</ele><time>2026-04-24T15:30:00Z</time></trkpt><trkpt lat="42.29631917293705" lon="12.207663092703152"><ele>502.0</ele><time>2026-04-24T15:30:01Z</time></trkpt><trkpt lat="42.29629077424147" lon="12.20781914931012"><ele>502.0</ele><time>2026-04-24T15:30:02Z</time></trkpt><trkpt lat="42.296258392684436" lon="12.207967572023326"><ele>502.00000000000006</ele><time>2026-04-24T15:30:03Z</time></trkpt><trkpt lat="42.296225487210044" lon="12.208096574259342"><ele>502.00000000000006</ele><time>2026-04-24T15:30:04Z</time></trkpt><trkpt lat="42.29619633822083" lon="12.208219171611704"><ele>502.0</ele><time>2026-04-24T15:30:05Z</time></trkpt><trkpt lat="42.29617209204169" lon="12.208335634153782"><ele>502.0</ele><time>2026-04-24T15:30:06Z</time></trkpt><trkpt lat="42.296146347758835" lon="12.208444718782939"><ele>501.1428571428571</ele><time>2026-04-24T15:30:07Z</time></trkpt><trkpt lat="42.296119596722484" lon="12.208542185781516"><ele>500.2857142857143</ele><time>2026-04-24T15:30:08Z</time></trkpt><trkpt lat="42.296094847181564" lon="12.20863226452305"><ele>499.42857142857144</ele><time>2026-04-24T15:30:09Z</time></trkpt><trkpt lat="42.29607014195857" lon="12.20872411112291"><ele>498.57142857142856</ele><time>2026-04-24T15:30:10Z</time></trkpt><trkpt lat="42.29604988865709" lon="12.208805546147643"><ele>497.7142857142858</ele><time>2026-04-24T15:30:11Z</time></trkpt><trkpt lat="42.29602908855618" lon="12.208886110957481"><ele>496.8571428571429</ele><time>2026-04-24T15:30:12Z</time></trkpt><trkpt lat="42.29600508609705" lon="12.20898692693325"><ele>496.0</ele><time>2026-04-24T15:30:13Z</time></trkpt><trkpt lat="42.29598508976203" lon="12.209088588204768"><ele>495.28571428571433</ele><time>2026-04-24T15:30:14Z</time></trkpt><trkpt lat="42.295959405772855" lon="12.20918484177898"><ele>494.5714285714286</ele><time>2026-04-24T15:30:15Z</time></trkpt><trkpt lat="42.295931408448766" lon="12.209273552186888"><ele>493.8571428571429</ele><time>2026-04-24T15:30:16Z</time></trkpt><trkpt lat="42.295905233898765" lon="12.209352258333421"><ele>493.1428571428571</ele><time>2026-04-24T15:30:17Z</time></trkpt><trkpt lat="42.295875287386686" lon="12.209430818634507"><ele>492.4285714285714</ele><time>2026-04-24T15:30:18Z</time></trkpt><trkpt lat="42.295836713212395" lon="12.20951489859905"><ele>491.71428571428567</ele><time>2026-04-24T15:30:19Z</time></trkpt><trkpt lat="42.29580141488131" lon="12.209590985409752"><ele>491.0</ele><time>2026-04-24T15:30:20Z</time></trkpt><trkpt lat="42.295736023776946" lon="12.20972860541895"><ele>490.99999999999994</ele><time>2026-04-24T15:30:22Z</time></trkpt><trkpt lat="42.29566731326102" lon="12.209790160144124"><ele>491.0</ele><time>2026-04-24T15:30:23Z</time></trkpt><trkpt lat="42.29559170060687" lon="12.209828825837459"><ele>491.0</ele><time>2026-04-24T15:30:24Z</time></trkpt><trkpt lat="42.2955231029288" lon="12.209883834703616"><ele>491.0</ele><time>2026-04-24T15:30:25Z</time></trkpt><trkpt lat="42.2954542391827" lon="12.209913475487816"><ele>490.99999999999994</ele><time>2026-04-24T15:30:26Z</time></trkpt><trkpt lat="42.29539187684131" lon="12.209983382330595"><ele>491.0</ele><time>2026-04-24T15:30:27Z</time></trkpt><trkpt lat="42.29532757011414" lon="12.210031851032237"><ele>490.16666666666663</ele><time>2026-04-24T15:30:28Z</time></trkpt><trkpt lat="42.29522766345657" lon="12.210004570330522"><ele>489.3333333333333</ele><time>2026-04-24T15:30:29Z</time></trkpt><trkpt lat="42.29515038144344" lon="12.210034025694316"><ele>488.5</ele><time>2026-04-24T15:30:30Z</time></trkpt><trkpt lat="42.29507645356969" lon="12.21006349865657"><ele>487.66666666666663</ele><time>2026-04-24T15:30:31Z</time></trkpt><trkpt lat="42.29499754889602" lon="12.210099060369833"><ele>486.8333333333333</ele><time>2026-04-24T15:30:32Z</time></trkpt><trkpt lat="42.29492618714463" lon="12.210127061230283"><ele>486.0</ele><time>2026-04-24T15:30:33Z</time></trkpt><trkpt lat="42.29486227248593" lon="12.210157171668344"><ele>486.0</ele><time>2026-04-24T15:30:34Z</time></trkpt><trkpt lat="42.29479177044871" lon="12.210192797855884"><ele>486.0</ele><time>2026-04-24T15:30:35Z</time></trkpt><trkpt lat="42.29472773952019" lon="12.210222531998332"><ele>486.0</ele><time>2026-04-24T15:30:36Z</time></trkpt><trkpt lat="42.29466755718511" lon="12.210250951486616"><ele>486.0</ele><time>2026-04-24T15:30:37Z</time></trkpt><trkpt lat="42.294605906695146" lon="12.210275565064824"><ele>486.0</ele><time>2026-04-24T15:30:38Z</time></trkpt><trkpt lat="42.29454497495899" lon="12.210299605308414"><ele>486.0</ele><time>2026-04-24T15:30:39Z</time></trkpt><trkpt lat="42.29446167595207" lon="12.210320502062018"><ele>486.0</ele><time>2026-04-24T15:30:41Z</time></trkpt><trkpt lat="42.294385830470695" lon="12.210357135918256"><ele>485.6</ele><time>2026-04-24T15:31:35Z</time></trkpt><trkpt lat="42.294287594766004" lon="12.21039598401428"><ele>485.20000000000005</ele><time>2026-04-24T15:31:37Z</time></trkpt><trkpt lat="42.2941412082834" lon="12.210444394768981"><ele>484.79999999999995</ele><time>2026-04-24T15:31:39Z</time></trkpt><trkpt lat="42.29405741877847" lon="12.210495457315739"><ele>484.4</ele><time>2026-04-24T15:31:40Z</time></trkpt><trkpt lat="42.29397797153242" lon="12.210532772884427"><ele>484.0</ele><time>2026-04-24T15:31:41Z</time></trkpt><trkpt lat="42.293899507235686" lon="12.210567562577927"><ele>483.6666666666667</ele><time>2026-04-24T15:31:42Z</time></trkpt><trkpt lat="42.29380255289108" lon="12.210608911830793"><ele>483.33333333333337</ele><time>2026-04-24T15:31:43Z</time></trkpt><trkpt lat="42.29371569469258" lon="12.210653885275498"><ele>483.0</ele><time>2026-04-24T15:31:44Z</time></trkpt><trkpt lat="42.293649248357184" lon="12.210689695530318"><ele>482.66666666666663</ele><time>2026-04-24T15:31:45Z</time></trkpt><trkpt lat="42.29357046803692" lon="12.210730701586563"><ele>482.3333333333333</ele><time>2026-04-24T15:31:46Z</time></trkpt><trkpt lat="42.29349616045372" lon="12.210763799159833"><ele>482.0</ele><time>2026-04-24T15:31:47Z</time></trkpt><trkpt lat="42.29342249857289" lon="12.210804451780993"><ele>481.49999999999994</ele><time>2026-04-24T15:31:48Z</time></trkpt><trkpt lat="42.29333048510483" lon="12.210834886896619"><ele>481.0</ele><time>2026-04-24T15:31:49Z</time></trkpt><trkpt lat="42.29324754887724" lon="12.210870383829988"><ele>480.5</ele><time>2026-04-24T15:31:50Z</time></trkpt><trkpt lat="42.29315692692244" lon="12.210908412719556"><ele>480.0</ele><time>2026-04-24T15:31:51Z</time></trkpt><trkpt lat="42.293070480230234" lon="12.210940917708774"><ele>479.49999999999994</ele><time>2026-04-24T15:31:52Z</time></trkpt><trkpt lat="42.29299483543869" lon="12.210974728807434"><ele>479.0</ele><time>2026-04-24T15:31:53Z</time></trkpt><trkpt lat="42.2929206526904" lon="12.211000835515074"><ele>477.16666666666663</ele><time>2026-04-24T15:31:54Z</time></trkpt><trkpt lat="42.29284276453159" lon="12.211023524858522"><ele>475.3333333333333</ele><time>2026-04-24T15:31:55Z</time></trkpt><trkpt lat="42.29275867241141" lon="12.211037320594178"><ele>473.5</ele><time>2026-04-24T15:31:56Z</time></trkpt><trkpt lat="42.292679442805564" lon="12.211047853284448"><ele>471.66666666666663</ele><time>2026-04-24T15:31:57Z</time></trkpt><trkpt lat="42.29258952193173" lon="12.211057502735033"><ele>469.8333333333333</ele><time>2026-04-24T15:31:58Z</time></trkpt><trkpt lat="42.29250096605138" lon="12.211067872008412"><ele>468.0</ele><time>2026-04-24T15:31:59Z</time></trkpt><trkpt lat="42.29241590759797" lon="12.21108194575498"><ele>468.0</ele><time>2026-04-24T15:32:00Z</time></trkpt><trkpt lat="42.29233199328408" lon="12.211101622683087"><ele>468.00000000000006</ele><time>2026-04-24T15:32:01Z</time></trkpt><trkpt lat="42.29225130851404" lon="12.211120749458281"><ele>468.0</ele><time>2026-04-24T15:32:02Z</time></trkpt><trkpt lat="42.292184199625396" lon="12.211146661465566"><ele>468.0</ele><time>2026-04-24T15:32:03Z</time></trkpt><trkpt lat="42.29211992903884" lon="12.211181440620857"><ele>468.00000000000006</ele><time>2026-04-24T15:32:04Z</time></trkpt><trkpt lat="42.29205803681676" lon="12.211216553666567"><ele>468.0</ele><time>2026-04-24T15:32:05Z</time></trkpt><trkpt lat="42.29199398602831" lon="12.211264247298553"><ele>468.0</ele><time>2026-04-24T15:32:06Z</time></trkpt><trkpt lat="42.29192574308884" lon="12.211300216292514"><ele>467.6666666666667</ele><time>2026-04-24T15:32:07Z</time></trkpt><trkpt lat="42.29186501619535" lon="12.211332937235138"><ele>467.33333333333337</ele><time>2026-04-24T15:32:08Z</time></trkpt><trkpt lat="42.291808394023874" lon="12.21137908073304"><ele>467.0</ele><time>2026-04-24T15:32:09Z</time></trkpt><trkpt lat="42.291734350885434" lon="12.211431551264702"><ele>466.6666666666667</ele><time>2026-04-24T15:32:10Z</time></trkpt><trkpt lat="42.29165499717383" lon="12.211490262672635"><ele>466.33333333333337</ele><time>2026-04-24T15:32:11Z</time></trkpt><trkpt lat="42.291572436851204" lon="12.211543673059431"><ele>466.0</ele><time>2026-04-24T15:32:12Z</time></trkpt><trkpt lat="42.29149826675724" lon="12.21160019509228"><ele>465.00000000000006</ele><time>2026-04-24T15:32:13Z</time></trkpt><trkpt lat="42.29142762869123" lon="12.211659735135589"><ele>464.0</ele><time>2026-04-24T15:32:14Z</time></trkpt><trkpt lat="42.291354465949674" lon="12.211715560100952"><ele>463.0</ele><time>2026-04-24T15:32:15Z</time></trkpt><trkpt lat="42.291283505521726" lon="12.211767458676903"><ele>462.0</ele><time>2026-04-24T15:32:16Z</time></trkpt><trkpt lat="42.29120722640267" lon="12.211835333718616"><ele>461.00000000000006</ele><time>2026-04-24T15:32:17Z</time></trkpt><trkpt lat="42.291147427864196" lon="12.21188214931186"><ele>460.0</ele><time>2026-04-24T15:32:18Z</time></trkpt><trkpt lat="42.29109435909442" lon="12.211933092722084"><ele>460.00000000000006</ele><time>2026-04-24T15:32:19Z</time></trkpt><trkpt lat="42.29103049544291" lon="12.211970645739909"><ele>460.0</ele><time>2026-04-24T15:32:20Z</time></trkpt><trkpt lat="42.29097522106662" lon="12.21203149774742"><ele>460.0</ele><time>2026-04-24T15:32:21Z</time></trkpt><trkpt lat="42.29093581346754" lon="12.212106396191452"><ele>460.0</ele><time>2026-04-24T15:32:22Z</time></trkpt><trkpt lat="42.290843066008655" lon="12.212221010506072"><ele>460.00000000000006</ele><time>2026-04-24T15:32:24Z</time></trkpt><trkpt lat="42.290803235522084" lon="12.212303010948318"><ele>460.0</ele><time>2026-04-24T15:32:25Z</time></trkpt><trkpt lat="42.29076046064469" lon="12.21238560926842"><ele>459.4</ele><time>2026-04-24T15:32:26Z</time></trkpt><trkpt lat="42.29072151675025" lon="12.212470646945363"><ele>458.8</ele><time>2026-04-24T15:32:27Z</time></trkpt><trkpt lat="42.29066421476204" lon="12.212583501330458"><ele>458.20000000000005</ele><time>2026-04-24T15:32:29Z</time></trkpt><trkpt lat="42.29060047127265" lon="12.212710252276606"><ele>457.6</ele><time>2026-04-24T15:32:31Z</time></trkpt><trkpt lat="42.29053641398919" lon="12.212837620434943"><ele>457.0</ele><time>2026-04-24T15:32:33Z</time></trkpt><trkpt lat="42.29050393762045" lon="12.212915700535547"><ele>457.0</ele><time>2026-04-24T15:32:34Z</time></trkpt><trkpt lat="42.29044815775756" lon="12.213038989660854"><ele>457.00000000000006</ele><time>2026-04-24T15:32:36Z</time></trkpt><trkpt lat="42.29038520665497" lon="12.213160726732921"><ele>457.00000000000006</ele><time>2026-04-24T15:32:38Z</time></trkpt><trkpt lat="42.29034343508161" lon="12.213286074813313"><ele>457.0</ele><time>2026-04-24T15:32:40Z</time></trkpt><trkpt lat="42.290291846362884" lon="12.213407842511089"><ele>457.0</ele><time>2026-04-24T15:32:42Z</time></trkpt><trkpt lat="42.29022999812287" lon="12.213510079637961"><ele>456.00000000000006</ele><time>2026-04-24T15:32:44Z</time></trkpt><trkpt lat="42.29018529077922" lon="12.21357304258124"><ele>455.0</ele><time>2026-04-24T15:32:45Z</time></trkpt><trkpt lat="42.29012970903983" lon="12.21366834913409"><ele>454.0</ele><time>2026-04-24T15:32:47Z</time></trkpt><trkpt lat="42.290058214823325" lon="12.213788637085845"><ele>453.0</ele><time>2026-04-24T15:32:49Z</time></trkpt><trkpt lat="42.290009631546745" lon="12.213860608709135"><ele>452.00000000000006</ele><time>2026-04-24T15:32:50Z</time></trkpt><trkpt lat="42.28993983735676" lon="12.21393283230382"><ele>451.0</ele><time>2026-04-24T15:32:51Z</time></trkpt><trkpt lat="42.289838350444526" lon="12.214010139719665"><ele>451.00000000000006</ele><time>2026-04-24T15:32:52Z</time></trkpt><trkpt lat="42.289747196860475" lon="12.214079770973264"><ele>451.0</ele><time>2026-04-24T15:32:52.999Z</time></trkpt><trkpt lat="42.28966547947923" lon="12.214144222028581"><ele>451.0</ele><time>2026-04-24T15:32:53.999Z</time></trkpt><trkpt lat="42.28959770526219" lon="12.214208609270644"><ele>451.0</ele><time>2026-04-24T15:32:54.999Z</time></trkpt><trkpt lat="42.28952208075096" lon="12.214259116260479"><ele>451.00000000000006</ele><time>2026-04-24T15:32:55.999Z</time></trkpt><trkpt lat="42.28944954019358" lon="12.214302950876366"><ele>451.0</ele><time>2026-04-24T15:32:56.999Z</time></trkpt><trkpt lat="42.28937611633656" lon="12.21434416965737"><ele>451.0</ele><time>2026-04-24T15:32:57.999Z</time></trkpt><trkpt lat="42.289298154292595" lon="12.214384078986775"><ele>451.0</ele><time>2026-04-24T15:32:58.999Z</time></trkpt><trkpt lat="42.289207923889656" lon="12.214404905137652"><ele>451.0</ele><time>2026-04-24T15:32:59.999Z</time></trkpt><trkpt lat="42.289093375209916" lon="12.214418164126291"><ele>451.0</ele><time>2026-04-24T15:33:00.999Z</time></trkpt><trkpt lat="42.28899048734777" lon="12.214433407497054"><ele>451.0</ele><time>2026-04-24T15:33:01.999Z</time></trkpt><trkpt lat="42.28889293714876" lon="12.21443186625142"><ele>451.4</ele><time>2026-04-24T15:33:02.999Z</time></trkpt><trkpt lat="42.28878161300139" lon="12.21443485194861"><ele>451.8</ele><time>2026-04-24T15:33:03.999Z</time></trkpt><trkpt lat="42.288669547138426" lon="12.214438506513162"><ele>452.19999999999993</ele><time>2026-04-24T15:33:04.999Z</time></trkpt><trkpt lat="42.28856569989067" lon="12.21443647380445"><ele>452.59999999999997</ele><time>2026-04-24T15:33:05.999Z</time></trkpt><trkpt lat="42.28848202754906" lon="12.214424848210161"><ele>453.0</ele><time>2026-04-24T15:33:06.999Z</time></trkpt><trkpt lat="42.28838694051162" lon="12.214428545709836"><ele>453.0</ele><time>2026-04-24T15:33:07.999Z</time></trkpt><trkpt lat="42.2882897756281" lon="12.214438382401223"><ele>452.99999999999994</ele><time>2026-04-24T15:33:09Z</time></trkpt><trkpt lat="42.28820169278295" lon="12.214453600879164"><ele>452.99999999999994</ele><time>2026-04-24T15:33:10Z</time></trkpt><trkpt lat="42.288107898804405" lon="12.214464156483103"><ele>453.0</ele><time>2026-04-24T15:33:11Z</time></trkpt><trkpt lat="42.28801147133368" lon="12.214479867148214"><ele>453.0</ele><time>2026-04-24T15:33:12Z</time></trkpt><trkpt lat="42.287915580108184" lon="12.214485203620669"><ele>452.6666666666667</ele><time>2026-04-24T15:33:13Z</time></trkpt><trkpt lat="42.28782816704999" lon="12.214493265452274"><ele>452.33333333333337</ele><time>2026-04-24T15:33:14Z</time></trkpt><trkpt lat="42.287748681578385" lon="12.214492833717431"><ele>452.0</ele><time>2026-04-24T15:33:15Z</time></trkpt><trkpt lat="42.28767486010754" lon="12.214509911481858"><ele>451.6666666666667</ele><time>2026-04-24T15:33:16Z</time></trkpt><trkpt lat="42.287602666220614" lon="12.214523450948494"><ele>451.33333333333337</ele><time>2026-04-24T15:33:17Z</time></trkpt><trkpt lat="42.287531470179644" lon="12.214531556937091"><ele>451.0</ele><time>2026-04-24T15:33:18Z</time></trkpt><trkpt lat="42.287461968505305" lon="12.214541818475624"><ele>451.00000000000006</ele><time>2026-04-24T15:33:19Z</time></trkpt><trkpt lat="42.28738428708839" lon="12.214555750805854"><ele>451.0</ele><time>2026-04-24T15:33:20Z</time></trkpt><trkpt lat="42.287302897407116" lon="12.214572164348587"><ele>451.0</ele><time>2026-04-24T15:33:21Z</time></trkpt><trkpt lat="42.28722298475833" lon="12.214587453823752"><ele>451.0</ele><time>2026-04-24T15:33:22Z</time></trkpt><trkpt lat="42.287143574889235" lon="12.21460217658493"><ele>451.00000000000006</ele><time>2026-04-24T15:33:23Z</time></trkpt><trkpt lat="42.28702452755088" lon="12.214608122455237"><ele>451.0</ele><time>2026-04-24T15:33:25Z</time></trkpt><trkpt lat="42.286938599778104" lon="12.214622162477124"><ele>450.20000000000005</ele><time>2026-04-24T15:33:27Z</time></trkpt><trkpt lat="42.286862652117016" lon="12.214608819034781"><ele>449.40000000000003</ele><time>2026-04-24T15:33:29Z</time></trkpt><trkpt lat="42.28678394638868" lon="12.214616814919648"><ele>448.6</ele><time>2026-04-24T15:33:32Z</time></trkpt><trkpt lat="42.28667852747764" lon="12.214634492545763"><ele>447.8</ele><time>2026-04-24T15:33:41Z</time></trkpt><trkpt lat="42.286585124459805" lon="12.21464452439448"><ele>447.0</ele><time>2026-04-24T15:33:42Z</time></trkpt><trkpt lat="42.286464587192405" lon="12.214648362593481"><ele>446.0</ele><time>2026-04-24T15:33:43Z</time></trkpt><trkpt lat="42.286314868303705" lon="12.214647166123358"><ele>445.0</ele><time>2026-04-24T15:33:44Z</time></trkpt><trkpt lat="42.28616322776614" lon="12.214654823500863"><ele>444.0</ele><time>2026-04-24T15:33:45Z</time></trkpt><trkpt lat="42.286032597654014" lon="12.214672802886309"><ele>443.0</ele><time>2026-04-24T15:33:46Z</time></trkpt><trkpt lat="42.28593622945714" lon="12.214672143861621"><ele>443.0</ele><time>2026-04-24T15:33:47Z</time></trkpt><trkpt lat="42.285830976980044" lon="12.214686796217093"><ele>442.99999999999994</ele><time>2026-04-24T15:33:48Z</time></trkpt><trkpt lat="42.28571449127567" lon="12.214698651230698"><ele>442.99999999999994</ele><time>2026-04-24T15:33:49Z</time></trkpt><trkpt lat="42.28560004321129" lon="12.21471508379595"><ele>443.0</ele><time>2026-04-24T15:33:50Z</time></trkpt><trkpt lat="42.285492186727375" lon="12.214725564755515"><ele>443.0</ele><time>2026-04-24T15:33:51Z</time></trkpt><trkpt lat="42.285393300330156" lon="12.214730836874294"><ele>441.79999999999995</ele><time>2026-04-24T15:33:52Z</time></trkpt><trkpt lat="42.285290336389856" lon="12.21473644139521"><ele>440.59999999999997</ele><time>2026-04-24T15:33:53Z</time></trkpt><trkpt lat="42.28518174545743" lon="12.214747731386836"><ele>439.40000000000003</ele><time>2026-04-24T15:33:54Z</time></trkpt><trkpt lat="42.285078765170354" lon="12.214759213338963"><ele>438.20000000000005</ele><time>2026-04-24T15:33:55Z</time></trkpt><trkpt lat="42.284981086441746" lon="12.214768098229168"><ele>437.0</ele><time>2026-04-24T15:33:56Z</time></trkpt><trkpt lat="42.28488072196856" lon="12.214776279896745"><ele>437.0</ele><time>2026-04-24T15:33:57Z</time></trkpt><trkpt lat="42.28477969295984" lon="12.214786462504723"><ele>437.00000000000006</ele><time>2026-04-24T15:33:58Z</time></trkpt><trkpt lat="42.2846885086211" lon="12.214795406085804"><ele>437.00000000000006</ele><time>2026-04-24T15:33:59Z</time></trkpt><trkpt lat="42.284594368231716" lon="12.214801570341283"><ele>437.0</ele><time>2026-04-24T15:34:00Z</time></trkpt><trkpt lat="42.28450268361236" lon="12.214804414840305"><ele>437.0</ele><time>2026-04-24T15:34:01Z</time></trkpt><trkpt lat="42.28442325560758" lon="12.214821801439602"><ele>436.20000000000005</ele><time>2026-04-24T15:34:02Z</time></trkpt><trkpt lat="42.284343537478826" lon="12.214826634853951"><ele>435.40000000000003</ele><time>2026-04-24T15:34:03Z</time></trkpt><trkpt lat="42.28427675573814" lon="12.214835021864921"><ele>434.59999999999997</ele><time>2026-04-24T15:34:04Z</time></trkpt><trkpt lat="42.28414283019444" lon="12.214802951338516"><ele>433.79999999999995</ele><time>2026-04-24T15:34:06Z</time></trkpt><trkpt lat="42.28407810837135" lon="12.21477774596313"><ele>433.0</ele><time>2026-04-24T15:34:07Z</time></trkpt><trkpt lat="42.283957097026764" lon="12.214796957204292"><ele>432.1666666666667</ele><time>2026-04-24T15:34:09Z</time></trkpt><trkpt lat="42.28390360362875" lon="12.214742423386992"><ele>431.33333333333337</ele><time>2026-04-24T15:34:10Z</time></trkpt><trkpt lat="42.28379851376017" lon="12.214782501539473"><ele>430.5</ele><time>2026-04-24T15:34:12Z</time></trkpt><trkpt lat="42.28370618527721" lon="12.214775796767496"><ele>429.66666666666663</ele><time>2026-04-24T15:34:14Z</time></trkpt><trkpt lat="42.28366461198289" lon="12.214872674590788"><ele>428.8333333333333</ele><time>2026-04-24T15:34:55Z</time></trkpt><trkpt lat="42.28374836295458" lon="12.214928940171742"><ele>428.0</ele><time>2026-04-24T15:34:59Z</time></trkpt><trkpt lat="42.28383801095999" lon="12.214910447815125"><ele>426.5</ele><time>2026-04-24T15:35:01Z</time></trkpt><trkpt lat="42.283689377724855" lon="12.21484242454431"><ele>425.0</ele><time>2026-04-24T15:35:02Z</time></trkpt><trkpt lat="42.28403616455869" lon="12.214753609764095"><ele>425.8</ele><time>2026-04-24T15:35:03Z</time></trkpt><trkpt lat="42.28411583519994" lon="12.214880449971416"><ele>426.6</ele><time>2026-04-24T15:35:04Z</time></trkpt><trkpt lat="42.28421221680781" lon="12.214876187072159"><ele>427.4</ele><time>2026-04-24T15:35:05Z</time></trkpt><trkpt lat="42.28430788800605" lon="12.214875336586868"><ele>428.2</ele><time>2026-04-24T15:35:06Z</time></trkpt><trkpt lat="42.284410280586556" lon="12.214870218694392"><ele>429.0</ele><time>2026-04-24T15:35:07Z</time></trkpt><trkpt lat="42.28455099308867" lon="12.21485590086382"><ele>429.0</ele><time>2026-04-24T15:35:08Z</time></trkpt><trkpt lat="42.284687722058" lon="12.214847089261903"><ele>429.0</ele><time>2026-04-24T15:35:09Z</time></trkpt><trkpt lat="42.28481335294475" lon="12.21483683506443"><ele>429.0</ele><time>2026-04-24T15:35:10Z</time></trkpt><trkpt lat="42.28493375640086" lon="12.214831546660609"><ele>429.0</ele><time>2026-04-24T15:35:11Z</time></trkpt><trkpt lat="42.28503836591141" lon="12.214830579709465"><ele>430.0</ele><time>2026-04-24T15:35:12Z</time></trkpt><trkpt lat="42.28513291194589" lon="12.214822866148417"><ele>431.0</ele><time>2026-04-24T15:35:13Z</time></trkpt><trkpt lat="42.28522003074783" lon="12.214813510302317"><ele>432.0</ele><time>2026-04-24T15:35:14Z</time></trkpt><trkpt lat="42.285291023246145" lon="12.21479108800631"><ele>433.0</ele><time>2026-04-24T15:35:15Z</time></trkpt><trkpt lat="42.28536430218851" lon="12.214773944647185"><ele>434.0</ele><time>2026-04-24T15:35:16Z</time></trkpt><trkpt lat="42.28543765136263" lon="12.214762093932151"><ele>435.0</ele><time>2026-04-24T15:35:17Z</time></trkpt><trkpt lat="42.285569070262845" lon="12.21477574943342"><ele>436.3333333333333</ele><time>2026-04-24T15:35:19Z</time></trkpt><trkpt lat="42.28566642303753" lon="12.21476717927572"><ele>437.66666666666663</ele><time>2026-04-24T15:35:21Z</time></trkpt><trkpt lat="42.28573725258379" lon="12.21476092751848"><ele>439.0</ele><time>2026-04-24T15:35:22Z</time></trkpt><trkpt lat="42.28583038283376" lon="12.214752665790595"><ele>440.3333333333333</ele><time>2026-04-24T15:35:24Z</time></trkpt><trkpt lat="42.285920298290726" lon="12.214740917608689"><ele>441.66666666666663</ele><time>2026-04-24T15:35:26Z</time></trkpt><trkpt lat="42.285984242203206" lon="12.214729295539689"><ele>443.0</ele><time>2026-04-24T15:35:28Z</time></trkpt><trkpt lat="42.2860498042156" lon="12.214719070015514"><ele>443.0</ele><time>2026-04-24T15:35:30Z</time></trkpt><trkpt lat="42.28614811852895" lon="12.214712858007529"><ele>442.99999999999994</ele><time>2026-04-24T15:35:32Z</time></trkpt><trkpt lat="42.28625898273696" lon="12.214721768617856"><ele>442.99999999999994</ele><time>2026-04-24T15:35:34Z</time></trkpt><trkpt lat="42.2863437432441" lon="12.214699871999574"><ele>443.0</ele><time>2026-04-24T15:35:36Z</time></trkpt><trkpt lat="42.28636580595938" lon="12.21456192560773"><ele>443.0</ele><time>2026-04-24T15:35:40Z</time></trkpt><trkpt lat="42.28636358657953" lon="12.214471898614073"><ele>443.0</ele><time>2026-04-24T15:35:42Z</time></trkpt><trkpt lat="42.28635910946245" lon="12.214372333884217"><ele>442.99999999999994</ele><time>2026-04-24T15:35:44Z</time></trkpt><trkpt lat="42.2863577210983" lon="12.214248323760076"><ele>442.99999999999994</ele><time>2026-04-24T15:35:46Z</time></trkpt><trkpt lat="42.286361424723296" lon="12.214105145419664"><ele>443.0</ele><time>2026-04-24T15:35:48Z</time></trkpt><trkpt lat="42.28637080345482" lon="12.213968559347611"><ele>443.0</ele><time>2026-04-24T15:35:50Z</time></trkpt><trkpt lat="42.286398327478956" lon="12.213787626514154"><ele>443.8333333333333</ele><time>2026-04-24T15:35:52Z</time></trkpt><trkpt lat="42.286437037671" lon="12.213678026120458"><ele>444.66666666666663</ele><time>2026-04-24T15:35:53Z</time></trkpt><trkpt lat="42.28645513265273" lon="12.21357043829359"><ele>445.5</ele><time>2026-04-24T15:35:54Z</time></trkpt><trkpt lat="42.286477295440186" lon="12.213489329594772"><ele>446.33333333333337</ele><time>2026-04-24T15:35:55Z</time></trkpt><trkpt lat="42.28650871644625" lon="12.213397493547003"><ele>447.1666666666667</ele><time>2026-04-24T15:35:56Z</time></trkpt><trkpt lat="42.28654348917904" lon="12.21330177546941"><ele>448.0</ele><time>2026-04-24T15:35:57Z</time></trkpt><trkpt lat="42.286586203464964" lon="12.213200170879519"><ele>447.6666666666667</ele><time>2026-04-24T15:35:58Z</time></trkpt><trkpt lat="42.2866348514832" lon="12.213070163193333"><ele>447.33333333333337</ele><time>2026-04-24T15:35:59Z</time></trkpt><trkpt lat="42.28669955366771" lon="12.212956475079295"><ele>447.0</ele><time>2026-04-24T15:36:00Z</time></trkpt><trkpt lat="42.2867435279906" lon="12.212891893486864"><ele>446.66666666666663</ele><time>2026-04-24T15:36:01Z</time></trkpt><trkpt lat="42.28679740422153" lon="12.212797692637984"><ele>446.3333333333333</ele><time>2026-04-24T15:36:02Z</time></trkpt><trkpt lat="42.286830032379584" lon="12.212709747723997"><ele>446.0</ele><time>2026-04-24T15:36:03Z</time></trkpt><trkpt lat="42.28687959252283" lon="12.212624697865575"><ele>445.99999999999994</ele><time>2026-04-24T15:36:04Z</time></trkpt><trkpt lat="42.28692649781443" lon="12.212551914777457"><ele>446.0</ele><time>2026-04-24T15:36:05Z</time></trkpt><trkpt lat="42.2869681053993" lon="12.21248537734765"><ele>446.0</ele><time>2026-04-24T15:36:06Z</time></trkpt><trkpt lat="42.28704738534042" lon="12.212417967387369"><ele>446.0</ele><time>2026-04-24T15:36:08Z</time></trkpt><trkpt lat="42.28711570372489" lon="12.212415419645412"><ele>445.99999999999994</ele><time>2026-04-24T15:36:09Z</time></trkpt><trkpt lat="42.28717274698059" lon="12.21235668835063"><ele>446.0</ele><time>2026-04-24T15:36:11Z</time></trkpt><trkpt lat="42.287231809062355" lon="12.212246339074726"><ele>446.3333333333333</ele><time>2026-04-24T15:36:13Z</time></trkpt><trkpt lat="42.2872596180048" lon="12.212169000178758"><ele>446.66666666666663</ele><time>2026-04-24T15:36:15Z</time></trkpt><trkpt lat="42.28724970070194" lon="12.212030737235564"><ele>447.0</ele><time>2026-04-24T15:36:18Z</time></trkpt><trkpt lat="42.28724174895529" lon="12.211931168364712"><ele>447.33333333333337</ele><time>2026-04-24T15:36:19Z</time></trkpt><trkpt lat="42.28725432834954" lon="12.211794377371982"><ele>447.6666666666667</ele><time>2026-04-24T15:36:20Z</time></trkpt><trkpt lat="42.28727396109188" lon="12.211699574523255"><ele>448.0</ele><time>2026-04-24T15:36:21Z</time></trkpt><trkpt lat="42.287290190105814" lon="12.211587937771778"><ele>448.00000000000006</ele><time>2026-04-24T15:36:22Z</time></trkpt><trkpt lat="42.28728455119515" lon="12.211491296575595"><ele>448.0</ele><time>2026-04-24T15:36:23Z</time></trkpt><trkpt lat="42.28726455347879" lon="12.211393151292485"><ele>448.0</ele><time>2026-04-24T15:36:24Z</time></trkpt><trkpt lat="42.28722897180947" lon="12.211279743260302"><ele>448.0</ele><time>2026-04-24T15:36:25Z</time></trkpt><trkpt lat="42.28717878590697" lon="12.211169823589819"><ele>448.00000000000006</ele><time>2026-04-24T15:36:26Z</time></trkpt><trkpt lat="42.28712769254998" lon="12.211081985046906"><ele>448.0</ele><time>2026-04-24T15:36:27Z</time></trkpt><trkpt lat="42.2871064238233" lon="12.210981359108043"><ele>446.59999999999997</ele><time>2026-04-24T15:36:28Z</time></trkpt><trkpt lat="42.287088414785046" lon="12.21084999535478"><ele>445.19999999999993</ele><time>2026-04-24T15:36:29Z</time></trkpt><trkpt lat="42.287082974578844" lon="12.210712138775197"><ele>443.8</ele><time>2026-04-24T15:36:30Z</time></trkpt><trkpt lat="42.2870906517126" lon="12.210584540850357"><ele>442.4</ele><time>2026-04-24T15:36:31Z</time></trkpt><trkpt lat="42.28710833890382" lon="12.210480219877649"><ele>441.0</ele><time>2026-04-24T15:36:32Z</time></trkpt><trkpt lat="42.2871281182056" lon="12.210345940631635"><ele>440.6</ele><time>2026-04-24T15:36:33Z</time></trkpt><trkpt lat="42.28712924677502" lon="12.210213655306477"><ele>440.20000000000005</ele><time>2026-04-24T15:36:34Z</time></trkpt><trkpt lat="42.28711302465368" lon="12.210065612844499"><ele>439.79999999999995</ele><time>2026-04-24T15:36:35Z</time></trkpt><trkpt lat="42.28708790586552" lon="12.209913389556812"><ele>439.4</ele><time>2026-04-24T15:36:36Z</time></trkpt><trkpt lat="42.28706349505112" lon="12.209782596242825"><ele>439.0</ele><time>2026-04-24T15:36:37Z</time></trkpt><trkpt lat="42.287036833111536" lon="12.2096482687461"><ele>439.0</ele><time>2026-04-24T15:36:38Z</time></trkpt><trkpt lat="42.28701241223359" lon="12.209517119098399"><ele>439.0</ele><time>2026-04-24T15:36:39Z</time></trkpt><trkpt lat="42.286993616617224" lon="12.209388138279047"><ele>439.0</ele><time>2026-04-24T15:36:40Z</time></trkpt><trkpt lat="42.28697615145786" lon="12.20924928630246"><ele>439.0</ele><time>2026-04-24T15:36:41Z</time></trkpt><trkpt lat="42.28695619588953" lon="12.20910736305396"><ele>439.0</ele><time>2026-04-24T15:36:42Z</time></trkpt><trkpt lat="42.286930747525346" lon="12.20899485863396"><ele>440.0</ele><time>2026-04-24T15:36:43Z</time></trkpt><trkpt lat="42.286894367104914" lon="12.20887779631133"><ele>441.0</ele><time>2026-04-24T15:36:44Z</time></trkpt><trkpt lat="42.286839728392174" lon="12.208757571050292"><ele>442.0</ele><time>2026-04-24T15:36:45Z</time></trkpt><trkpt lat="42.28676373143704" lon="12.208641867509455"><ele>443.0</ele><time>2026-04-24T15:36:46Z</time></trkpt><trkpt lat="42.28667177891745" lon="12.208511171865133"><ele>444.0</ele><time>2026-04-24T15:36:47Z</time></trkpt><trkpt lat="42.28656351880979" lon="12.208370257589886"><ele>444.0</ele><time>2026-04-24T15:36:48Z</time></trkpt><trkpt lat="42.28647183938114" lon="12.208237562343491"><ele>444.0</ele><time>2026-04-24T15:36:49Z</time></trkpt><trkpt lat="42.28638856388026" lon="12.20809876710216"><ele>444.0</ele><time>2026-04-24T15:36:50Z</time></trkpt><trkpt lat="42.286306243056096" lon="12.207989544750328"><ele>444.0</ele><time>2026-04-24T15:36:51Z</time></trkpt><trkpt lat="42.28623110459021" lon="12.207875943027704"><ele>444.2</ele><time>2026-04-24T15:36:52Z</time></trkpt><trkpt lat="42.286163848310125" lon="12.207753423109265"><ele>444.4</ele><time>2026-04-24T15:36:53Z</time></trkpt><trkpt lat="42.28609679910723" lon="12.207627332629478"><ele>444.6</ele><time>2026-04-24T15:36:54Z</time></trkpt><trkpt lat="42.28603107758808" lon="12.207518552832248"><ele>444.8</ele><time>2026-04-24T15:36:55Z</time></trkpt><trkpt lat="42.285989104553934" lon="12.20738466127064"><ele>445.0</ele><time>2026-04-24T15:36:56Z</time></trkpt><trkpt lat="42.285945754751594" lon="12.207280225231218"><ele>444.0</ele><time>2026-04-24T15:36:57Z</time></trkpt><trkpt lat="42.28590057713986" lon="12.207164813028049"><ele>443.0</ele><time>2026-04-24T15:36:58Z</time></trkpt><trkpt lat="42.28586886123977" lon="12.207045294767573"><ele>442.0</ele><time>2026-04-24T15:36:59Z</time></trkpt><trkpt lat="42.28584074342165" lon="12.206913871031448"><ele>441.0</ele><time>2026-04-24T15:37:00Z</time></trkpt><trkpt lat="42.28578050442378" lon="12.206797313426174"><ele>440.0</ele><time>2026-04-24T15:37:01Z</time></trkpt><trkpt lat="42.285768481490614" lon="12.206672189338645"><ele>440.0</ele><time>2026-04-24T15:37:02Z</time></trkpt><trkpt lat="42.28585613319517" lon="12.206556621076219"><ele>440.0</ele><time>2026-04-24T15:37:03Z</time></trkpt><trkpt lat="42.28584801844785" lon="12.206410147150804"><ele>440.0</ele><time>2026-04-24T15:37:04Z</time></trkpt><trkpt lat="42.28589620586693" lon="12.20629081101967"><ele>440.0</ele><time>2026-04-24T15:37:05Z</time></trkpt><trkpt lat="42.285951933827256" lon="12.206160860103232"><ele>440.0</ele><time>2026-04-24T15:37:06Z</time></trkpt><trkpt lat="42.28600725327606" lon="12.206026875021724"><ele>438.4</ele><time>2026-04-24T15:37:07Z</time></trkpt><trkpt lat="42.28607552696936" lon="12.205874440491401"><ele>436.8</ele><time>2026-04-24T15:37:08Z</time></trkpt><trkpt lat="42.28612876336172" lon="12.205743917978731"><ele>435.20000000000005</ele><time>2026-04-24T15:37:09Z</time></trkpt><trkpt lat="42.286164187732545" lon="12.205658700158601"><ele>433.6</ele><time>2026-04-24T15:37:10Z</time></trkpt><trkpt lat="42.28620360429796" lon="12.205566806868108"><ele>432.0</ele><time>2026-04-24T15:37:11Z</time></trkpt><trkpt lat="42.28624622326713" lon="12.205469986965142"><ele>431.40000000000003</ele><time>2026-04-24T15:37:12Z</time></trkpt><trkpt lat="42.286287814076324" lon="12.20538013498316"><ele>430.80000000000007</ele><time>2026-04-24T15:37:13Z</time></trkpt><trkpt lat="42.28633282710264" lon="12.205282988777471"><ele>430.2</ele><time>2026-04-24T15:37:14Z</time></trkpt><trkpt lat="42.28638618547006" lon="12.205167831837878"><ele>429.6</ele><time>2026-04-24T15:37:15Z</time></trkpt><trkpt lat="42.28644361283841" lon="12.205042621799565"><ele>429.0</ele><time>2026-04-24T15:37:16Z</time></trkpt><trkpt lat="42.28650645148699" lon="12.204900177534089"><ele>431.79999999999995</ele><time>2026-04-24T15:37:17Z</time></trkpt><trkpt lat="42.286567451949054" lon="12.204756157557894"><ele>434.59999999999997</ele><time>2026-04-24T15:37:18Z</time></trkpt><trkpt lat="42.28661435201795" lon="12.204626979124992"><ele>437.4</ele><time>2026-04-24T15:37:19Z</time></trkpt><trkpt lat="42.286656145349085" lon="12.20449553958936"><ele>440.2</ele><time>2026-04-24T15:37:20Z</time></trkpt><trkpt lat="42.2866890878547" lon="12.204365306767908"><ele>443.0</ele><time>2026-04-24T15:37:21Z</time></trkpt><trkpt lat="42.28671232962554" lon="12.204245952359745"><ele>443.0</ele><time>2026-04-24T15:37:22Z</time></trkpt><trkpt lat="42.286722953668004" lon="12.204120553600529"><ele>442.99999999999994</ele><time>2026-04-24T15:37:23Z</time></trkpt><trkpt lat="42.28671768515887" lon="12.203995771521992"><ele>442.99999999999994</ele><time>2026-04-24T15:37:24Z</time></trkpt><trkpt lat="42.28669482442647" lon="12.203859518874811"><ele>443.0</ele><time>2026-04-24T15:37:25Z</time></trkpt><trkpt lat="42.28666081754603" lon="12.203742250986046"><ele>443.0</ele><time>2026-04-24T15:37:26Z</time></trkpt><trkpt lat="42.28660016694406" lon="12.203621619924187"><ele>443.5</ele><time>2026-04-24T15:37:27Z</time></trkpt><trkpt lat="42.286542054733616" lon="12.203486120641394"><ele>444.0</ele><time>2026-04-24T15:37:28Z</time></trkpt><trkpt lat="42.2864858533577" lon="12.203348826234738"><ele>444.5</ele><time>2026-04-24T15:37:29Z</time></trkpt><trkpt lat="42.28641808707084" lon="12.203201214342656"><ele>445.0</ele><time>2026-04-24T15:37:30Z</time></trkpt><trkpt lat="42.286344175960984" lon="12.203050601261438"><ele>446.5</ele><time>2026-04-24T15:37:31Z</time></trkpt><trkpt lat="42.28627579737402" lon="12.202910746645665"><ele>448.0</ele><time>2026-04-24T15:37:32Z</time></trkpt><trkpt lat="42.28621738179108" lon="12.202786313111737"><ele>449.5</ele><time>2026-04-24T15:37:33Z</time></trkpt><trkpt lat="42.286161489459374" lon="12.20263776714199"><ele>451.0</ele><time>2026-04-24T15:37:34Z</time></trkpt><trkpt lat="42.286101351556184" lon="12.202512536997672"><ele>451.0</ele><time>2026-04-24T15:37:35Z</time></trkpt><trkpt lat="42.28603781951444" lon="12.202375042169571"><ele>451.0</ele><time>2026-04-24T15:37:36Z</time></trkpt><trkpt lat="42.28598664989069" lon="12.2022594576879"><ele>451.0</ele><time>2026-04-24T15:37:37Z</time></trkpt><trkpt lat="42.2859321636877" lon="12.202126628076956"><ele>451.0</ele><time>2026-04-24T15:37:38Z</time></trkpt><trkpt lat="42.28587661085641" lon="12.202003801867862"><ele>451.0</ele><time>2026-04-24T15:37:39Z</time></trkpt><trkpt lat="42.285832720441455" lon="12.201845931007632"><ele>453.0</ele><time>2026-04-24T15:37:40Z</time></trkpt><trkpt lat="42.28580008869751" lon="12.201685665380786"><ele>455.0</ele><time>2026-04-24T15:37:41Z</time></trkpt><trkpt lat="42.285769850021964" lon="12.201507305304016"><ele>457.0</ele><time>2026-04-24T15:37:42Z</time></trkpt><trkpt lat="42.285764306239585" lon="12.201385956436198"><ele>459.0</ele><time>2026-04-24T15:37:43Z</time></trkpt><trkpt lat="42.28574432579156" lon="12.20123665064707"><ele>460.0</ele><time>2026-04-24T15:37:44Z</time></trkpt><trkpt lat="42.28572606878839" lon="12.20108201437779"><ele>461.0</ele><time>2026-04-24T15:37:45Z</time></trkpt><trkpt lat="42.285707947184505" lon="12.200917930726963"><ele>462.0</ele><time>2026-04-24T15:37:46Z</time></trkpt><trkpt lat="42.28568285446647" lon="12.200749037756792"><ele>463.0</ele><time>2026-04-24T15:37:47Z</time></trkpt><trkpt lat="42.285667012250755" lon="12.200567723851343"><ele>463.0</ele><time>2026-04-24T15:37:48Z</time></trkpt><trkpt lat="42.28565681283858" lon="12.200416111085586"><ele>462.99999999999994</ele><time>2026-04-24T15:37:49Z</time></trkpt><trkpt lat="42.285645813924035" lon="12.200264025932285"><ele>462.99999999999994</ele><time>2026-04-24T15:37:50Z</time></trkpt><trkpt lat="42.28564366781367" lon="12.200123280691479"><ele>463.0</ele><time>2026-04-24T15:37:51Z</time></trkpt><trkpt lat="42.2856260532609" lon="12.199993005107155"><ele>463.0</ele><time>2026-04-24T15:37:52Z</time></trkpt><trkpt lat="42.28561512477586" lon="12.19984581008234"><ele>463.25</ele><time>2026-04-24T15:37:53Z</time></trkpt><trkpt lat="42.2856031542054" lon="12.199689096305775"><ele>463.5</ele><time>2026-04-24T15:37:54Z</time></trkpt><trkpt lat="42.28559517080053" lon="12.199518353087173"><ele>463.75</ele><time>2026-04-24T15:37:55Z</time></trkpt><trkpt lat="42.28558552277205" lon="12.199342672773474"><ele>464.0</ele><time>2026-04-24T15:37:56Z</time></trkpt><trkpt lat="42.28559513783574" lon="12.199152303911296"><ele>460.0</ele><time>2026-04-24T15:37:57Z</time></trkpt><trkpt lat="42.285586807873656" lon="12.198975555225436"><ele>456.0</ele><time>2026-04-24T15:37:58Z</time></trkpt><trkpt lat="42.28555531158575" lon="12.198801214930874"><ele>452.0</ele><time>2026-04-24T15:37:59Z</time></trkpt><trkpt lat="42.285551112713414" lon="12.198647742966617"><ele>448.0</ele><time>2026-04-24T15:38:00Z</time></trkpt><trkpt lat="42.28554562185457" lon="12.198495975675186"><ele>448.0</ele><time>2026-04-24T15:38:01Z</time></trkpt><trkpt lat="42.285534393266325" lon="12.198355402598713"><ele>448.0</ele><time>2026-04-24T15:38:02Z</time></trkpt><trkpt lat="42.28550181739671" lon="12.198196396433381"><ele>448.0</ele><time>2026-04-24T15:38:03Z</time></trkpt><trkpt lat="42.2854736040522" lon="12.19801211489562"><ele>448.0</ele><time>2026-04-24T15:38:04Z</time></trkpt><trkpt lat="42.28544736523316" lon="12.197885657400358"><ele>449.0</ele><time>2026-04-24T15:38:05Z</time></trkpt><trkpt lat="42.28543298327616" lon="12.197747455314119"><ele>449.99999999999994</ele><time>2026-04-24T15:38:06Z</time></trkpt><trkpt lat="42.285428708175836" lon="12.19764865559476"><ele>450.99999999999994</ele><time>2026-04-24T15:38:07Z</time></trkpt><trkpt lat="42.285411356148714" lon="12.197507021682588"><ele>452.0</ele><time>2026-04-24T15:38:08Z</time></trkpt><trkpt lat="42.285413573578516" lon="12.197356348595484"><ele>453.0</ele><time>2026-04-24T15:38:09Z</time></trkpt><trkpt lat="42.285418693638505" lon="12.197196370204395"><ele>454.25</ele><time>2026-04-24T15:38:10Z</time></trkpt><trkpt lat="42.2854270341757" lon="12.19702838556638"><ele>455.5</ele><time>2026-04-24T15:38:11Z</time></trkpt><trkpt lat="42.28544388939227" lon="12.196834168065376"><ele>456.75</ele><time>2026-04-24T15:38:12Z</time></trkpt><trkpt lat="42.28547800561078" lon="12.196679466374544"><ele>458.0</ele><time>2026-04-24T15:38:13Z</time></trkpt><trkpt lat="42.28548150993308" lon="12.196514355870509"><ele>458.79999999999995</ele><time>2026-04-24T15:38:14Z</time></trkpt><trkpt lat="42.28548969372033" lon="12.196376678903306"><ele>459.59999999999997</ele><time>2026-04-24T15:38:15Z</time></trkpt><trkpt lat="42.28543621000055" lon="12.196220762086591"><ele>460.40000000000003</ele><time>2026-04-24T15:38:17Z</time></trkpt><trkpt lat="42.285392408656186" lon="12.196153832833646"><ele>461.20000000000005</ele><time>2026-04-24T15:38:18Z</time></trkpt><trkpt lat="42.28533081321471" lon="12.196086660471629"><ele>462.0</ele><time>2026-04-24T15:38:19Z</time></trkpt><trkpt lat="42.28524057149725" lon="12.196030635928603"><ele>462.0</ele><time>2026-04-24T15:38:20Z</time></trkpt><trkpt lat="42.28513377919256" lon="12.195951870110113"><ele>462.0</ele><time>2026-04-24T15:38:21Z</time></trkpt><trkpt lat="42.285031758137954" lon="12.195854992221411"><ele>462.0</ele><time>2026-04-24T15:38:22Z</time></trkpt><trkpt lat="42.2849373077048" lon="12.195779856307848"><ele>462.0</ele><time>2026-04-24T15:38:23Z</time></trkpt><trkpt lat="42.284837319898266" lon="12.19569671716518"><ele>462.8</ele><time>2026-04-24T15:38:24Z</time></trkpt><trkpt lat="42.28474162814843" lon="12.195599535594898"><ele>463.6</ele><time>2026-04-24T15:38:25Z</time></trkpt><trkpt lat="42.2846817610749" lon="12.195499798731877"><ele>464.40000000000003</ele><time>2026-04-24T15:38:26Z</time></trkpt><trkpt lat="42.284622046784555" lon="12.195365102066203"><ele>465.20000000000005</ele><time>2026-04-24T15:38:27Z</time></trkpt><trkpt lat="42.28459522171758" lon="12.195241396035378"><ele>466.0</ele><time>2026-04-24T15:38:28Z</time></trkpt><trkpt lat="42.28455287898833" lon="12.195158365748009"><ele>466.00000000000006</ele><time>2026-04-24T15:38:29Z</time></trkpt><trkpt lat="42.28451357747513" lon="12.195069720394445"><ele>466.0</ele><time>2026-04-24T15:38:30Z</time></trkpt><trkpt lat="42.28445952687479" lon="12.195013584377115"><ele>466.0</ele><time>2026-04-24T15:38:31Z</time></trkpt><trkpt lat="42.284403788947884" lon="12.194955957989833"><ele>466.0</ele><time>2026-04-24T15:38:32Z</time></trkpt><trkpt lat="42.284302693285284" lon="12.194928147738448"><ele>466.00000000000006</ele><time>2026-04-24T15:38:33Z</time></trkpt><trkpt lat="42.28418318802887" lon="12.194897568625516"><ele>466.0</ele><time>2026-04-24T15:38:34Z</time></trkpt><trkpt lat="42.2840754300368" lon="12.194904769896528"><ele>466.0</ele><time>2026-04-24T15:38:35Z</time></trkpt><trkpt lat="42.28397237190527" lon="12.194914179294399"><ele>466.0</ele><time>2026-04-24T15:38:36Z</time></trkpt><trkpt lat="42.28384780004465" lon="12.19493990452076"><ele>466.0</ele><time>2026-04-24T15:38:37Z</time></trkpt><trkpt lat="42.28372328395161" lon="12.194937882646487"><ele>466.0</ele><time>2026-04-24T15:38:38Z</time></trkpt><trkpt lat="42.283617434264514" lon="12.19495653782066"><ele>465.8</ele><time>2026-04-24T15:38:39Z</time></trkpt><trkpt lat="42.283503089469136" lon="12.194997918842173"><ele>465.6</ele><time>2026-04-24T15:38:40Z</time></trkpt><trkpt lat="42.283416075331125" lon="12.195026809977321"><ele>465.4</ele><time>2026-04-24T15:38:41Z</time></trkpt><trkpt lat="42.2833294927541" lon="12.19505789243011"><ele>465.2</ele><time>2026-04-24T15:38:42Z</time></trkpt><trkpt lat="42.28322527741629" lon="12.195087712629197"><ele>465.0</ele><time>2026-04-24T15:38:43Z</time></trkpt><trkpt lat="42.283124791931975" lon="12.195096035549462"><ele>464.25</ele><time>2026-04-24T15:38:44Z</time></trkpt><trkpt lat="42.28300571781939" lon="12.195085659171315"><ele>463.5</ele><time>2026-04-24T15:38:45Z</time></trkpt><trkpt lat="42.28288639186607" lon="12.195053714087905"><ele>462.75</ele><time>2026-04-24T15:38:46Z</time></trkpt><trkpt lat="42.28276981257175" lon="12.19499352029951"><ele>462.0</ele><time>2026-04-24T15:38:47Z</time></trkpt><trkpt lat="42.28264682394117" lon="12.194933367409579"><ele>462.0</ele><time>2026-04-24T15:38:48Z</time></trkpt><trkpt lat="42.2825259563289" lon="12.194868891467012"><ele>462.0</ele><time>2026-04-24T15:38:49Z</time></trkpt><trkpt lat="42.28240571080325" lon="12.194805696140412"><ele>462.0</ele><time>2026-04-24T15:38:50Z</time></trkpt><trkpt lat="42.28229076460101" lon="12.194767638961808"><ele>462.0</ele><time>2026-04-24T15:38:51Z</time></trkpt><trkpt lat="42.282174985298404" lon="12.194737220365692"><ele>461.0</ele><time>2026-04-24T15:38:52Z</time></trkpt><trkpt lat="42.28207004791752" lon="12.194695430674413"><ele>460.00000000000006</ele><time>2026-04-24T15:38:53Z</time></trkpt><trkpt lat="42.28196359466842" lon="12.194651331917983"><ele>459.00000000000006</ele><time>2026-04-24T15:38:54Z</time></trkpt><trkpt lat="42.28185848961714" lon="12.194619703958086"><ele>458.0</ele><time>2026-04-24T15:38:55Z</time></trkpt><trkpt lat="42.28175667764504" lon="12.194576960003372"><ele>457.0</ele><time>2026-04-24T15:38:56Z</time></trkpt><trkpt lat="42.28166137299915" lon="12.194551917376847"><ele>457.0</ele><time>2026-04-24T15:38:57Z</time></trkpt><trkpt lat="42.28156156223627" lon="12.194517454135852"><ele>457.0</ele><time>2026-04-24T15:38:58Z</time></trkpt><trkpt lat="42.28144781374102" lon="12.19446381474267"><ele>457.0</ele><time>2026-04-24T15:38:59Z</time></trkpt><trkpt lat="42.28134182768199" lon="12.194415505338814"><ele>457.0</ele><time>2026-04-24T15:39:00Z</time></trkpt><trkpt lat="42.28122423021501" lon="12.194353474526272"><ele>456.0</ele><time>2026-04-24T15:39:01Z</time></trkpt><trkpt lat="42.28110622757154" lon="12.194273697553278"><ele>455.0</ele><time>2026-04-24T15:39:02Z</time></trkpt><trkpt lat="42.2809986922336" lon="12.194181232980377"><ele>454.0</ele><time>2026-04-24T15:39:03Z</time></trkpt><trkpt lat="42.280875655446685" lon="12.194088235437949"><ele>453.0</ele><time>2026-04-24T15:39:04Z</time></trkpt><trkpt lat="42.280769130126494" lon="12.194014755889027"><ele>452.75</ele><time>2026-04-24T15:39:05Z</time></trkpt><trkpt lat="42.28065964088488" lon="12.193946197659896"><ele>452.5</ele><time>2026-04-24T15:39:06Z</time></trkpt><trkpt lat="42.28056758910612" lon="12.193889413897509"><ele>452.25</ele><time>2026-04-24T15:39:07Z</time></trkpt><trkpt lat="42.280464103282064" lon="12.193810852301379"><ele>452.0</ele><time>2026-04-24T15:39:08Z</time></trkpt><trkpt lat="42.28035482651162" lon="12.193733268670913"><ele>450.75</ele><time>2026-04-24T15:39:09Z</time></trkpt><trkpt lat="42.28024665687199" lon="12.193664690249497"><ele>449.5</ele><time>2026-04-24T15:39:10Z</time></trkpt><trkpt lat="42.280144084292274" lon="12.19359155629889"><ele>448.25</ele><time>2026-04-24T15:39:11Z</time></trkpt><trkpt lat="42.28003177308928" lon="12.193512174586429"><ele>447.0</ele><time>2026-04-24T15:39:12Z</time></trkpt><trkpt lat="42.27993200811709" lon="12.193428065709973"><ele>447.0</ele><time>2026-04-24T15:39:13Z</time></trkpt><trkpt lat="42.27983753790283" lon="12.193333544426006"><ele>447.0</ele><time>2026-04-24T15:39:14Z</time></trkpt><trkpt lat="42.27974167414915" lon="12.193242487864405"><ele>447.0</ele><time>2026-04-24T15:39:15Z</time></trkpt><trkpt lat="42.27965398799558" lon="12.19315569640981"><ele>447.0</ele><time>2026-04-24T15:39:16Z</time></trkpt><trkpt lat="42.279558095763804" lon="12.193060931993024"><ele>445.25</ele><time>2026-04-24T15:39:17Z</time></trkpt><trkpt lat="42.279463962808514" lon="12.192963109406767"><ele>443.5</ele><time>2026-04-24T15:39:18Z</time></trkpt><trkpt lat="42.27936263143621" lon="12.19286202771815"><ele>441.75</ele><time>2026-04-24T15:39:19Z</time></trkpt><trkpt lat="42.27926522034841" lon="12.192771684093533"><ele>440.0</ele><time>2026-04-24T15:39:20Z</time></trkpt><trkpt lat="42.27917109249264" lon="12.192636455718908"><ele>440.0</ele><time>2026-04-24T15:39:21Z</time></trkpt><trkpt lat="42.27908275323656" lon="12.192537024813298"><ele>440.0</ele><time>2026-04-24T15:39:22Z</time></trkpt><trkpt lat="42.27901445662158" lon="12.192471731415457"><ele>440.0</ele><time>2026-04-24T15:39:23Z</time></trkpt><trkpt lat="42.27895314860075" lon="12.19240970989926"><ele>440.0</ele><time>2026-04-24T15:39:24Z</time></trkpt><trkpt lat="42.27887225448259" lon="12.192349201819546"><ele>440.0</ele><time>2026-04-24T15:39:25Z</time></trkpt><trkpt lat="42.278773368211446" lon="12.192309554335544"><ele>440.5</ele><time>2026-04-24T15:39:26Z</time></trkpt><trkpt lat="42.27865623732351" lon="12.192270948940386"><ele>441.0</ele><time>2026-04-24T15:39:27Z</time></trkpt><trkpt lat="42.278521735474655" lon="12.192237165475374"><ele>441.5</ele><time>2026-04-24T15:39:28Z</time></trkpt><trkpt lat="42.27839443308025" lon="12.192208430459562"><ele>442.0</ele><time>2026-04-24T15:39:29Z</time></trkpt><trkpt lat="42.278265099111685" lon="12.192191187529"><ele>442.0</ele><time>2026-04-24T15:39:30Z</time></trkpt><trkpt lat="42.278139821658456" lon="12.192150109810616"><ele>442.0</ele><time>2026-04-24T15:39:31Z</time></trkpt><trkpt lat="42.278021444405255" lon="12.192114871947222"><ele>442.0</ele><time>2026-04-24T15:39:32Z</time></trkpt><trkpt lat="42.27791294032632" lon="12.19207756515989"><ele>442.0</ele><time>2026-04-24T15:39:33Z</time></trkpt><trkpt lat="42.27780348714322" lon="12.19207307170117"><ele>442.0</ele><time>2026-04-24T15:39:34Z</time></trkpt><trkpt lat="42.2776886946138" lon="12.192027463013957"><ele>442.0</ele><time>2026-04-24T15:39:35Z</time></trkpt><trkpt lat="42.277569838197365" lon="12.19201876292684"><ele>442.0</ele><time>2026-04-24T15:39:36Z</time></trkpt><trkpt lat="42.27743510295945" lon="12.192018193238194"><ele>442.0</ele><time>2026-04-24T15:39:37Z</time></trkpt><trkpt lat="42.277304241084344" lon="12.192038306463541"><ele>442.0</ele><time>2026-04-24T15:39:38Z</time></trkpt><trkpt lat="42.277192888543524" lon="12.192067632126054"><ele>442.0</ele><time>2026-04-24T15:39:39Z</time></trkpt><trkpt lat="42.277077124720186" lon="12.192102908927556"><ele>442.0</ele><time>2026-04-24T15:39:40Z</time></trkpt><trkpt lat="42.27696346617581" lon="12.192104253722446"><ele>442.0</ele><time>2026-04-24T15:39:41Z</time></trkpt><trkpt lat="42.27685491104956" lon="12.192129513277608"><ele>442.0</ele><time>2026-04-24T15:39:42Z</time></trkpt><trkpt lat="42.27672772667629" lon="12.192136305463022"><ele>442.0</ele><time>2026-04-24T15:39:43Z</time></trkpt><trkpt lat="42.27659207129221" lon="12.192132384324816"><ele>442.0</ele><time>2026-04-24T15:39:44Z</time></trkpt><trkpt lat="42.276455577604445" lon="12.192122156297746"><ele>442.0</ele><time>2026-04-24T15:39:45Z</time></trkpt><trkpt lat="42.27633021778479" lon="12.192096534306451"><ele>441.0</ele><time>2026-04-24T15:39:46Z</time></trkpt><trkpt lat="42.27619763252579" lon="12.192054816934553"><ele>440.0</ele><time>2026-04-24T15:39:47Z</time></trkpt><trkpt lat="42.27608071061199" lon="12.192026475595132"><ele>439.0</ele><time>2026-04-24T15:39:48Z</time></trkpt><trkpt lat="42.275949909524684" lon="12.191995973764143"><ele>438.0</ele><time>2026-04-24T15:39:49Z</time></trkpt><trkpt lat="42.27583931751118" lon="12.191970430132612"><ele>438.0</ele><time>2026-04-24T15:39:50Z</time></trkpt><trkpt lat="42.275719543782415" lon="12.191942765774108"><ele>438.0</ele><time>2026-04-24T15:39:51Z</time></trkpt><trkpt lat="42.275593861627115" lon="12.191913736605903"><ele>438.0</ele><time>2026-04-24T15:39:52Z</time></trkpt><trkpt lat="42.27546907882644" lon="12.191867618482041"><ele>438.0</ele><time>2026-04-24T15:39:53Z</time></trkpt><trkpt lat="42.27535438320228" lon="12.191825480423132"><ele>436.0</ele><time>2026-04-24T15:39:54Z</time></trkpt><trkpt lat="42.27523896560454" lon="12.191769988423472"><ele>434.0</ele><time>2026-04-24T15:39:55Z</time></trkpt><trkpt lat="42.27512312960968" lon="12.191705165255355"><ele>432.0</ele><time>2026-04-24T15:39:56Z</time></trkpt><trkpt lat="42.27500388892173" lon="12.191637700245218"><ele>430.0</ele><time>2026-04-24T15:39:57Z</time></trkpt><trkpt lat="42.2748880843463" lon="12.191572179123039"><ele>428.75</ele><time>2026-04-24T15:39:58Z</time></trkpt><trkpt lat="42.27476856536854" lon="12.191504556652962"><ele>427.5</ele><time>2026-04-24T15:39:59Z</time></trkpt><trkpt lat="42.27464211759338" lon="12.191433013665097"><ele>426.25</ele><time>2026-04-24T15:40:00Z</time></trkpt><trkpt lat="42.274528128335376" lon="12.191367936025518"><ele>425.0</ele><time>2026-04-24T15:40:01Z</time></trkpt><trkpt lat="42.27438203958226" lon="12.191283783617077"><ele>425.0</ele><time>2026-04-24T15:40:02Z</time></trkpt><trkpt lat="42.27424242447181" lon="12.191203360263673"><ele>425.0</ele><time>2026-04-24T15:40:03Z</time></trkpt><trkpt lat="42.27412307945841" lon="12.19113461322533"><ele>425.0</ele><time>2026-04-24T15:40:04Z</time></trkpt><trkpt lat="42.27400155362188" lon="12.19106460997366"><ele>425.0</ele><time>2026-04-24T15:40:05Z</time></trkpt><trkpt lat="42.27387423792321" lon="12.190990697905338"><ele>423.25</ele><time>2026-04-24T15:40:06Z</time></trkpt><trkpt lat="42.27375783806705" lon="12.190946458197278"><ele>421.5</ele><time>2026-04-24T15:40:07Z</time></trkpt><trkpt lat="42.27363450206389" lon="12.190850494296248"><ele>419.75</ele><time>2026-04-24T15:40:08Z</time></trkpt><trkpt lat="42.273519495823244" lon="12.190773626364772"><ele>418.0</ele><time>2026-04-24T15:40:09Z</time></trkpt><trkpt lat="42.27340050393667" lon="12.190693997692366"><ele>418.25</ele><time>2026-04-24T15:40:10Z</time></trkpt><trkpt lat="42.27330079835768" lon="12.190630788070393"><ele>418.5</ele><time>2026-04-24T15:40:11Z</time></trkpt><trkpt lat="42.27318446917987" lon="12.190558888033593"><ele>418.75</ele><time>2026-04-24T15:40:12Z</time></trkpt><trkpt lat="42.273074717270184" lon="12.19048965291037"><ele>419.0</ele><time>2026-04-24T15:40:13Z</time></trkpt><trkpt lat="42.27296751538954" lon="12.19042810624378"><ele>417.5</ele><time>2026-04-24T15:40:14Z</time></trkpt><trkpt lat="42.27283682089768" lon="12.19037964279577"><ele>416.0</ele><time>2026-04-24T15:40:15Z</time></trkpt><trkpt lat="42.272727842656465" lon="12.19034538542991"><ele>414.5</ele><time>2026-04-24T15:40:16Z</time></trkpt><trkpt lat="42.2726228914693" lon="12.190304489496773"><ele>413.0</ele><time>2026-04-24T15:40:17Z</time></trkpt><trkpt lat="42.27250465280042" lon="12.190278974903793"><ele>413.0</ele><time>2026-04-24T15:40:18Z</time></trkpt><trkpt lat="42.27239455454549" lon="12.190266242297302"><ele>413.0</ele><time>2026-04-24T15:40:19Z</time></trkpt><trkpt lat="42.27228523415199" lon="12.190262733275706"><ele>413.0</ele><time>2026-04-24T15:40:20Z</time></trkpt><trkpt lat="42.272175482797195" lon="12.190266189882747"><ele>413.0</ele><time>2026-04-24T15:40:21Z</time></trkpt><trkpt lat="42.272071704182096" lon="12.190293834827916"><ele>413.0</ele><time>2026-04-24T15:40:22Z</time></trkpt><trkpt lat="42.27196631267576" lon="12.190311029191207"><ele>411.99999999999994</ele><time>2026-04-24T15:40:23Z</time></trkpt><trkpt lat="42.27188506093856" lon="12.190332012979978"><ele>411.0</ele><time>2026-04-24T15:40:24Z</time></trkpt><trkpt lat="42.271802137732365" lon="12.19034263625864"><ele>410.0</ele><time>2026-04-24T15:40:25Z</time></trkpt><trkpt lat="42.27171910268269" lon="12.190332108504721"><ele>409.0</ele><time>2026-04-24T15:40:26Z</time></trkpt><trkpt lat="42.271627452531725" lon="12.190309203926052"><ele>407.99999999999994</ele><time>2026-04-24T15:40:27Z</time></trkpt><trkpt lat="42.271526273770505" lon="12.19026654562415"><ele>407.0</ele><time>2026-04-24T15:40:28Z</time></trkpt><trkpt lat="42.27142772402134" lon="12.190214202906727"><ele>406.20000000000005</ele><time>2026-04-24T15:40:29Z</time></trkpt><trkpt lat="42.27133305176737" lon="12.19015971570699"><ele>405.4</ele><time>2026-04-24T15:40:30Z</time></trkpt><trkpt lat="42.27126966890406" lon="12.190097631445603"><ele>404.6</ele><time>2026-04-24T15:40:31Z</time></trkpt><trkpt lat="42.271201692446134" lon="12.19007158153836"><ele>403.79999999999995</ele><time>2026-04-24T15:40:32Z</time></trkpt><trkpt lat="42.27109980163766" lon="12.190008742501329"><ele>403.0</ele><time>2026-04-24T15:40:33Z</time></trkpt><trkpt lat="42.27099399211518" lon="12.189944621317386"><ele>403.0</ele><time>2026-04-24T15:40:34Z</time></trkpt><trkpt lat="42.27089561225447" lon="12.18988100858016"><ele>403.0</ele><time>2026-04-24T15:40:35Z</time></trkpt><trkpt lat="42.270794695369354" lon="12.189804669107955"><ele>403.0</ele><time>2026-04-24T15:40:36Z</time></trkpt><trkpt lat="42.27067054499246" lon="12.189711062726584"><ele>403.0</ele><time>2026-04-24T15:40:37Z</time></trkpt><trkpt lat="42.270569023093586" lon="12.189627226182992"><ele>401.0</ele><time>2026-04-24T15:40:38Z</time></trkpt><trkpt lat="42.27045650137623" lon="12.189533851543464"><ele>399.0</ele><time>2026-04-24T15:40:39Z</time></trkpt><trkpt lat="42.2703669510041" lon="12.189444667871857"><ele>397.0</ele><time>2026-04-24T15:40:40Z</time></trkpt><trkpt lat="42.27026531755598" lon="12.189360012752235"><ele>395.0</ele><time>2026-04-24T15:40:41Z</time></trkpt><trkpt lat="42.27016673541593" lon="12.189244558455208"><ele>395.0</ele><time>2026-04-24T15:40:42Z</time></trkpt><trkpt lat="42.270066678732356" lon="12.189144360294588"><ele>395.0</ele><time>2026-04-24T15:40:43Z</time></trkpt><trkpt lat="42.26996713391727" lon="12.189056300379995"><ele>395.0</ele><time>2026-04-24T15:40:44Z</time></trkpt><trkpt lat="42.26985825739768" lon="12.188953398713954"><ele>395.0</ele><time>2026-04-24T15:40:45Z</time></trkpt><trkpt lat="42.26976774154352" lon="12.188861656947246"><ele>393.2</ele><time>2026-04-24T15:40:46Z</time></trkpt><trkpt lat="42.269681204180664" lon="12.188774567956955"><ele>391.4</ele><time>2026-04-24T15:40:47Z</time></trkpt><trkpt lat="42.26960630433503" lon="12.188696501960301"><ele>389.6</ele><time>2026-04-24T15:40:48Z</time></trkpt><trkpt lat="42.26953377953489" lon="12.188612856973512"><ele>387.8</ele><time>2026-04-24T15:40:49Z</time></trkpt><trkpt lat="42.26947992241294" lon="12.188486794639989"><ele>386.0</ele><time>2026-04-24T15:40:50Z</time></trkpt><trkpt lat="42.269414138341666" lon="12.188362476634204"><ele>386.0</ele><time>2026-04-24T15:40:51Z</time></trkpt><trkpt lat="42.26934646648544" lon="12.188228713822875"><ele>386.0</ele><time>2026-04-24T15:40:52Z</time></trkpt><trkpt lat="42.26927302046473" lon="12.188080127212684"><ele>386.0</ele><time>2026-04-24T15:40:53Z</time></trkpt><trkpt lat="42.26918667369205" lon="12.187942600494257"><ele>386.0</ele><time>2026-04-24T15:40:54Z</time></trkpt><trkpt lat="42.26911024675636" lon="12.18774090468132"><ele>386.0</ele><time>2026-04-24T15:40:55Z</time></trkpt><trkpt lat="42.26903941582376" lon="12.18758335415098"><ele>386.0</ele><time>2026-04-24T15:40:56Z</time></trkpt><trkpt lat="42.268962752787594" lon="12.187428038815678"><ele>386.0</ele><time>2026-04-24T15:40:57Z</time></trkpt><trkpt lat="42.268886529812995" lon="12.187280628830939"><ele>386.0</ele><time>2026-04-24T15:40:58Z</time></trkpt><trkpt lat="42.26881923838454" lon="12.187133857079058"><ele>386.0</ele><time>2026-04-24T15:40:59Z</time></trkpt><trkpt lat="42.268750215440654" lon="12.186984447564274"><ele>386.0</ele><time>2026-04-24T15:41:00Z</time></trkpt><trkpt lat="42.268678025104315" lon="12.186827313654103"><ele>386.0</ele><time>2026-04-24T15:41:01Z</time></trkpt><trkpt lat="42.26860892005062" lon="12.186687182997279"><ele>386.0</ele><time>2026-04-24T15:41:02Z</time></trkpt><trkpt lat="42.26854627294403" lon="12.186549436649656"><ele>388.0</ele><time>2026-04-24T15:41:03Z</time></trkpt><trkpt lat="42.26847956035314" lon="12.18642316214615"><ele>390.0</ele><time>2026-04-24T15:41:04Z</time></trkpt><trkpt lat="42.26843002179685" lon="12.186276040919969"><ele>392.0</ele><time>2026-04-24T15:41:05Z</time></trkpt><trkpt lat="42.26837067466267" lon="12.186142217971915"><ele>394.0</ele><time>2026-04-24T15:41:06Z</time></trkpt><trkpt lat="42.26831560022227" lon="12.186016483739687"><ele>394.0</ele><time>2026-04-24T15:41:07Z</time></trkpt><trkpt lat="42.26826867020457" lon="12.1858977503502"><ele>394.0</ele><time>2026-04-24T15:41:08Z</time></trkpt><trkpt lat="42.26822934856499" lon="12.185762063705345"><ele>394.0</ele><time>2026-04-24T15:41:09Z</time></trkpt><trkpt lat="42.26819318925252" lon="12.185607190236086"><ele>394.0</ele><time>2026-04-24T15:41:10Z</time></trkpt><trkpt lat="42.26816896410352" lon="12.18548732859699"><ele>394.0</ele><time>2026-04-24T15:41:11Z</time></trkpt><trkpt lat="42.268123169742275" lon="12.185358639537174"><ele>393.6</ele><time>2026-04-24T15:41:12Z</time></trkpt><trkpt lat="42.26807879928045" lon="12.185224296288583"><ele>393.2</ele><time>2026-04-24T15:41:13Z</time></trkpt><trkpt lat="42.268023625908775" lon="12.185114958231802"><ele>392.8</ele><time>2026-04-24T15:41:14Z</time></trkpt><trkpt lat="42.26796883893746" lon="12.185013270005113"><ele>392.40000000000003</ele><time>2026-04-24T15:41:15Z</time></trkpt><trkpt lat="42.267884347937226" lon="12.184923480241228"><ele>392.0</ele><time>2026-04-24T15:41:16Z</time></trkpt><trkpt lat="42.267826866369276" lon="12.18481375592365"><ele>392.0</ele><time>2026-04-24T15:41:17Z</time></trkpt><trkpt lat="42.26777526125137" lon="12.184728616439887"><ele>392.0</ele><time>2026-04-24T15:41:18Z</time></trkpt><trkpt lat="42.267724400475394" lon="12.184606421845356"><ele>392.0</ele><time>2026-04-24T15:41:19Z</time></trkpt><trkpt lat="42.26768177219623" lon="12.184478022489937"><ele>392.0</ele><time>2026-04-24T15:41:20Z</time></trkpt><trkpt lat="42.26763387191038" lon="12.184318559001104"><ele>392.0</ele><time>2026-04-24T15:41:21Z</time></trkpt><trkpt lat="42.267599370955594" lon="12.184179384292028"><ele>392.0</ele><time>2026-04-24T15:41:22Z</time></trkpt><trkpt lat="42.267572367004306" lon="12.184046994086803"><ele>392.0</ele><time>2026-04-24T15:41:23Z</time></trkpt><trkpt lat="42.267546283089985" lon="12.1839144184324"><ele>392.0</ele><time>2026-04-24T15:41:24Z</time></trkpt><trkpt lat="42.26752032684633" lon="12.183783485324518"><ele>392.0</ele><time>2026-04-24T15:41:25Z</time></trkpt><trkpt lat="42.26749160365909" lon="12.183640419566414"><ele>392.0</ele><time>2026-04-24T15:41:26Z</time></trkpt><trkpt lat="42.26746342584061" lon="12.183500070035898"><ele>392.0</ele><time>2026-04-24T15:41:27Z</time></trkpt><trkpt lat="42.26743618939239" lon="12.183364409467055"><ele>392.0</ele><time>2026-04-24T15:41:28Z</time></trkpt><trkpt lat="42.26740994102997" lon="12.183251077296154"><ele>392.0</ele><time>2026-04-24T15:41:29Z</time></trkpt><trkpt lat="42.26738815423196" lon="12.183099601060745"><ele>392.0</ele><time>2026-04-24T15:41:30Z</time></trkpt><trkpt lat="42.26737189373877" lon="12.18293509489782"><ele>392.0</ele><time>2026-04-24T15:41:31Z</time></trkpt><trkpt lat="42.267368956662416" lon="12.18279701052937"><ele>391.8</ele><time>2026-04-24T15:41:32Z</time></trkpt><trkpt lat="42.26736903562225" lon="12.182636727299888"><ele>391.6</ele><time>2026-04-24T15:41:33Z</time></trkpt><trkpt lat="42.267352909345675" lon="12.182471864079368"><ele>391.40000000000003</ele><time>2026-04-24T15:41:34Z</time></trkpt><trkpt lat="42.26735367301883" lon="12.182355098938961"><ele>391.20000000000005</ele><time>2026-04-24T15:41:35Z</time></trkpt><trkpt lat="42.267352422309784" lon="12.182215075872408"><ele>391.0</ele><time>2026-04-24T15:41:36Z</time></trkpt><trkpt lat="42.267329336810974" lon="12.182032976546104"><ele>391.0</ele><time>2026-04-24T15:41:37Z</time></trkpt><trkpt lat="42.267287220988244" lon="12.181851161673439"><ele>391.0</ele><time>2026-04-24T15:41:38Z</time></trkpt><trkpt lat="42.267228970207825" lon="12.181688270613016"><ele>391.0</ele><time>2026-04-24T15:41:39Z</time></trkpt><trkpt lat="42.26718547990124" lon="12.181532484565372"><ele>391.0</ele><time>2026-04-24T15:41:40Z</time></trkpt><trkpt lat="42.2671537374391" lon="12.181341661323653"><ele>392.0</ele><time>2026-04-24T15:41:41Z</time></trkpt><trkpt lat="42.26712836748905" lon="12.181169731813652"><ele>393.0</ele><time>2026-04-24T15:41:42Z</time></trkpt><trkpt lat="42.26710896226108" lon="12.181001516656078"><ele>394.0</ele><time>2026-04-24T15:41:43Z</time></trkpt><trkpt lat="42.26709933617378" lon="12.1808901497455"><ele>395.0</ele><time>2026-04-24T15:41:44Z</time></trkpt><trkpt lat="42.26708836199955" lon="12.180749722894888"><ele>396.0</ele><time>2026-04-24T15:41:45Z</time></trkpt><trkpt lat="42.26707862058763" lon="12.180610046330488"><ele>396.8</ele><time>2026-04-24T15:41:46Z</time></trkpt><trkpt lat="42.26707046965762" lon="12.18047702873759"><ele>397.6</ele><time>2026-04-24T15:41:47Z</time></trkpt><trkpt lat="42.26706480272305" lon="12.180342478000293"><ele>398.4</ele><time>2026-04-24T15:41:48Z</time></trkpt><trkpt lat="42.26705909248139" lon="12.180225521364182"><ele>399.2</ele><time>2026-04-24T15:41:49Z</time></trkpt><trkpt lat="42.26704816895953" lon="12.180106309735104"><ele>400.0</ele><time>2026-04-24T15:41:50Z</time></trkpt><trkpt lat="42.26701563300171" lon="12.179973747973495"><ele>400.5</ele><time>2026-04-24T15:41:51Z</time></trkpt><trkpt lat="42.26697091252359" lon="12.17983414281338"><ele>401.0</ele><time>2026-04-24T15:41:52Z</time></trkpt><trkpt lat="42.26691918538361" lon="12.17969631815711"><ele>401.5</ele><time>2026-04-24T15:41:53Z</time></trkpt><trkpt lat="42.266865266722334" lon="12.179545182009777"><ele>402.0</ele><time>2026-04-24T15:41:54Z</time></trkpt><trkpt lat="42.266801441539535" lon="12.17937582055576"><ele>402.0</ele><time>2026-04-24T15:41:55Z</time></trkpt><trkpt lat="42.266736399074134" lon="12.179215275484633"><ele>402.0</ele><time>2026-04-24T15:41:56Z</time></trkpt><trkpt lat="42.26668301260139" lon="12.179047059558522"><ele>402.0</ele><time>2026-04-24T15:41:57Z</time></trkpt><trkpt lat="42.26661656482107" lon="12.178898244623154"><ele>402.0</ele><time>2026-04-24T15:41:58Z</time></trkpt><trkpt lat="42.26658615798697" lon="12.17878184420851"><ele>401.8</ele><time>2026-04-24T15:41:59Z</time></trkpt><trkpt lat="42.266547340113014" lon="12.178642003888886"><ele>401.6</ele><time>2026-04-24T15:42:00Z</time></trkpt><trkpt lat="42.26650715441893" lon="12.178508972440909"><ele>401.40000000000003</ele><time>2026-04-24T15:42:01Z</time></trkpt><trkpt lat="42.26647177178602" lon="12.178402056979458"><ele>401.20000000000005</ele><time>2026-04-24T15:42:02Z</time></trkpt><trkpt lat="42.26643641649438" lon="12.178299892020021"><ele>401.0</ele><time>2026-04-24T15:42:03Z</time></trkpt><trkpt lat="42.26640973362408" lon="12.178190719765444"><ele>399.6</ele><time>2026-04-24T15:42:04Z</time></trkpt><trkpt lat="42.266355142941514" lon="12.178075130661133"><ele>398.20000000000005</ele><time>2026-04-24T15:42:05Z</time></trkpt><trkpt lat="42.2662821121148" lon="12.177997820642043"><ele>396.79999999999995</ele><time>2026-04-24T15:42:06Z</time></trkpt><trkpt lat="42.26621043731272" lon="12.177903629537255"><ele>395.4</ele><time>2026-04-24T15:42:07Z</time></trkpt><trkpt lat="42.26613339952983" lon="12.17781579491374"><ele>394.0</ele><time>2026-04-24T15:42:08Z</time></trkpt><trkpt lat="42.26601986391608" lon="12.177749778773832"><ele>394.0</ele><time>2026-04-24T15:42:09Z</time></trkpt><trkpt lat="42.2658855879399" lon="12.177697574858188"><ele>394.0</ele><time>2026-04-24T15:42:10Z</time></trkpt><trkpt lat="42.26576031579578" lon="12.177655576698353"><ele>394.0</ele><time>2026-04-24T15:42:11Z</time></trkpt><trkpt lat="42.26562517208838" lon="12.17763638046611"><ele>394.0</ele><time>2026-04-24T15:42:12Z</time></trkpt><trkpt lat="42.265491442837906" lon="12.177643695330286"><ele>395.0</ele><time>2026-04-24T15:42:13Z</time></trkpt><trkpt lat="42.26535223948865" lon="12.177638283822867"><ele>396.0</ele><time>2026-04-24T15:42:14Z</time></trkpt><trkpt lat="42.265233410001805" lon="12.177644264098088"><ele>397.0</ele><time>2026-04-24T15:42:15Z</time></trkpt><trkpt lat="42.26512549876716" lon="12.177643811644261"><ele>398.0</ele><time>2026-04-24T15:42:16Z</time></trkpt><trkpt lat="42.26501060438784" lon="12.17764121398774"><ele>398.0</ele><time>2026-04-24T15:42:17Z</time></trkpt><trkpt lat="42.26489734672356" lon="12.177636785551305"><ele>398.0</ele><time>2026-04-24T15:42:18Z</time></trkpt><trkpt lat="42.26478265701414" lon="12.17762093690721"><ele>398.0</ele><time>2026-04-24T15:42:19Z</time></trkpt><trkpt lat="42.264676245641425" lon="12.17759373597448"><ele>398.0</ele><time>2026-04-24T15:42:20Z</time></trkpt><trkpt lat="42.26457212544592" lon="12.177569932960086"><ele>398.0</ele><time>2026-04-24T15:42:21Z</time></trkpt><trkpt lat="42.26446832339928" lon="12.177516727019663"><ele>398.59999999999997</ele><time>2026-04-24T15:42:22Z</time></trkpt><trkpt lat="42.26436993769449" lon="12.177454563960257"><ele>399.2</ele><time>2026-04-24T15:42:23Z</time></trkpt><trkpt lat="42.26428057288339" lon="12.177378510478599"><ele>399.8</ele><time>2026-04-24T15:42:24Z</time></trkpt><trkpt lat="42.26420106052444" lon="12.177290783232744"><ele>400.4</ele><time>2026-04-24T15:42:25Z</time></trkpt><trkpt lat="42.26412206472191" lon="12.17720770740297"><ele>401.0</ele><time>2026-04-24T15:42:26Z</time></trkpt><trkpt lat="42.26407703480553" lon="12.17712576109852"><ele>401.20000000000005</ele><time>2026-04-24T15:42:27Z</time></trkpt><trkpt lat="42.263978887422326" lon="12.176979885485435"><ele>401.40000000000003</ele><time>2026-04-24T15:42:29Z</time></trkpt><trkpt lat="42.26392181784928" lon="12.176875152345389"><ele>401.6</ele><time>2026-04-24T15:42:30Z</time></trkpt><trkpt lat="42.263885712577576" lon="12.176770202206619"><ele>401.8</ele><time>2026-04-24T15:42:31Z</time></trkpt><trkpt lat="42.2638594276634" lon="12.176653567091371"><ele>402.0</ele><time>2026-04-24T15:42:32Z</time></trkpt><trkpt lat="42.26383995691244" lon="12.176563714825567"><ele>401.40000000000003</ele><time>2026-04-24T15:42:33Z</time></trkpt><trkpt lat="42.26380957283667" lon="12.176460404820837"><ele>400.8</ele><time>2026-04-24T15:42:34Z</time></trkpt><trkpt lat="42.26376335877077" lon="12.17634897605783"><ele>400.2</ele><time>2026-04-24T15:42:35Z</time></trkpt><trkpt lat="42.263693770549935" lon="12.17624910096237"><ele>399.6</ele><time>2026-04-24T15:42:36Z</time></trkpt><trkpt lat="42.26361536705096" lon="12.176133965051074"><ele>399.0</ele><time>2026-04-24T15:42:37Z</time></trkpt><trkpt lat="42.26352594431369" lon="12.176012373452247"><ele>399.0</ele><time>2026-04-24T15:42:38Z</time></trkpt><trkpt lat="42.26342824175868" lon="12.175921692322696"><ele>399.0</ele><time>2026-04-24T15:42:39Z</time></trkpt><trkpt lat="42.263351685225686" lon="12.175810149189802"><ele>399.0</ele><time>2026-04-24T15:42:40Z</time></trkpt><trkpt lat="42.26325933378059" lon="12.175702039480424"><ele>399.0</ele><time>2026-04-24T15:42:41Z</time></trkpt><trkpt lat="42.263170486486764" lon="12.175602983269732"><ele>397.79999999999995</ele><time>2026-04-24T15:42:42Z</time></trkpt><trkpt lat="42.26308606324042" lon="12.175516430966292"><ele>396.59999999999997</ele><time>2026-04-24T15:42:43Z</time></trkpt><trkpt lat="42.263001947168235" lon="12.175440161731132"><ele>395.4</ele><time>2026-04-24T15:42:44Z</time></trkpt><trkpt lat="42.26291608627358" lon="12.175370721853831"><ele>394.2</ele><time>2026-04-24T15:42:45Z</time></trkpt><trkpt lat="42.262820038752174" lon="12.175314130931538"><ele>393.0</ele><time>2026-04-24T15:42:46Z</time></trkpt><trkpt lat="42.26273253968236" lon="12.175269180622767"><ele>393.0</ele><time>2026-04-24T15:42:47Z</time></trkpt><trkpt lat="42.26262475227567" lon="12.175251568595181"><ele>393.0</ele><time>2026-04-24T15:42:48Z</time></trkpt><trkpt lat="42.26252377984325" lon="12.175255458025767"><ele>393.0</ele><time>2026-04-24T15:42:49Z</time></trkpt><trkpt lat="42.26241881597823" lon="12.175277075868035"><ele>393.0</ele><time>2026-04-24T15:42:50Z</time></trkpt><trkpt lat="42.26229584945081" lon="12.17530465567134"><ele>393.0</ele><time>2026-04-24T15:42:51Z</time></trkpt><trkpt lat="42.26218428697953" lon="12.175334238023547"><ele>392.79999999999995</ele><time>2026-04-24T15:42:52Z</time></trkpt><trkpt lat="42.26208157598273" lon="12.175355850644136"><ele>392.6</ele><time>2026-04-24T15:42:53Z</time></trkpt><trkpt lat="42.26197223629219" lon="12.17538556450205"><ele>392.4</ele><time>2026-04-24T15:42:54Z</time></trkpt><trkpt lat="42.26186553962236" lon="12.175404537726251"><ele>392.20000000000005</ele><time>2026-04-24T15:42:55Z</time></trkpt><trkpt lat="42.26176551106318" lon="12.17541062214021"><ele>392.0</ele><time>2026-04-24T15:42:56Z</time></trkpt><trkpt lat="42.26165738059306" lon="12.175408130753413"><ele>392.0</ele><time>2026-04-24T15:42:57Z</time></trkpt><trkpt lat="42.26154728572909" lon="12.175404165224236"><ele>392.0</ele><time>2026-04-24T15:42:58Z</time></trkpt><trkpt lat="42.26144874813176" lon="12.175395158924541"><ele>392.0</ele><time>2026-04-24T15:42:59Z</time></trkpt><trkpt lat="42.26134986553349" lon="12.17537849405709"><ele>392.0</ele><time>2026-04-24T15:43:00Z</time></trkpt><trkpt lat="42.261238265420694" lon="12.175363354775198"><ele>392.0</ele><time>2026-04-24T15:43:01Z</time></trkpt><trkpt lat="42.26113905620562" lon="12.175315683978367"><ele>391.8</ele><time>2026-04-24T15:43:02Z</time></trkpt><trkpt lat="42.26103650236307" lon="12.175254487045672"><ele>391.6</ele><time>2026-04-24T15:43:03Z</time></trkpt><trkpt lat="42.26094046383453" lon="12.175199015023697"><ele>391.40000000000003</ele><time>2026-04-24T15:43:04Z</time></trkpt><trkpt lat="42.26085975801096" lon="12.175131399418497"><ele>391.20000000000005</ele><time>2026-04-24T15:43:05Z</time></trkpt><trkpt lat="42.2607935867199" lon="12.175061941759125"><ele>391.0</ele><time>2026-04-24T15:43:06Z</time></trkpt><trkpt lat="42.26072026809696" lon="12.174989731167399"><ele>391.0</ele><time>2026-04-24T15:43:07Z</time></trkpt><trkpt lat="42.26065847974335" lon="12.174917698940181"><ele>391.0</ele><time>2026-04-24T15:43:08Z</time></trkpt><trkpt lat="42.26058466648472" lon="12.174838152976118"><ele>391.0</ele><time>2026-04-24T15:43:09Z</time></trkpt><trkpt lat="42.26050305176092" lon="12.174756241811671"><ele>391.0</ele><time>2026-04-24T15:43:11Z</time></trkpt><trkpt lat="42.26044907996847" lon="12.17464799320274"><ele>391.0</ele><time>2026-04-24T15:43:13Z</time></trkpt><trkpt lat="42.260455300941004" lon="12.174536908100453"><ele>387.20000000000005</ele><time>2026-04-24T15:43:14Z</time></trkpt><trkpt lat="42.26047113146099" lon="12.174411338471572"><ele>383.40000000000003</ele><time>2026-04-24T15:43:15Z</time></trkpt><trkpt lat="42.260495069125895" lon="12.17425747788512"><ele>379.6</ele><time>2026-04-24T15:43:16Z</time></trkpt><trkpt lat="42.260508335707314" lon="12.174137137280727"><ele>375.8</ele><time>2026-04-24T15:43:17Z</time></trkpt><trkpt lat="42.26053585699833" lon="12.173996386568051"><ele>372.0</ele><time>2026-04-24T15:43:18Z</time></trkpt><trkpt lat="42.26055921689194" lon="12.173882722482716"><ele>372.00000000000006</ele><time>2026-04-24T15:43:19Z</time></trkpt><trkpt lat="42.260583354615825" lon="12.173800531731466"><ele>372.0</ele><time>2026-04-24T15:43:20Z</time></trkpt><trkpt lat="42.26059568938822" lon="12.173700089253455"><ele>372.0</ele><time>2026-04-24T15:43:21Z</time></trkpt><trkpt lat="42.26059829423318" lon="12.173609029118818"><ele>372.0</ele><time>2026-04-24T15:43:22Z</time></trkpt><trkpt lat="42.26058704377968" lon="12.173518006417009"><ele>372.0</ele><time>2026-04-24T15:43:23Z</time></trkpt><trkpt lat="42.260574231879225" lon="12.173423049207981"><ele>372.00000000000006</ele><time>2026-04-24T15:43:24Z</time></trkpt><trkpt lat="42.260529682204265" lon="12.17335710970401"><ele>372.0</ele><time>2026-04-24T15:43:25Z</time></trkpt><trkpt lat="42.26048720309682" lon="12.173289208359192"><ele>372.0</ele><time>2026-04-24T15:43:26Z</time></trkpt><trkpt lat="42.260389383987814" lon="12.173231986695672"><ele>372.0</ele><time>2026-04-24T15:43:28Z</time></trkpt><trkpt lat="42.26030176706602" lon="12.173228915484367"><ele>372.0</ele><time>2026-04-24T15:43:30Z</time></trkpt><trkpt lat="42.26020665441944" lon="12.173095907390621"><ele>372.0</ele><time>2026-04-24T15:43:33Z</time></trkpt><trkpt lat="42.26017239572335" lon="12.172922997986166"><ele>373.00000000000006</ele><time>2026-04-24T15:43:35Z</time></trkpt><trkpt lat="42.260152944951344" lon="12.1728303718376"><ele>374.0</ele><time>2026-04-24T15:43:36Z</time></trkpt><trkpt lat="42.260140132264475" lon="12.172734444613132"><ele>375.0</ele><time>2026-04-24T15:43:37Z</time></trkpt><trkpt lat="42.2601093603115" lon="12.172644761020438"><ele>376.0</ele><time>2026-04-24T15:43:38Z</time></trkpt><trkpt lat="42.260076781646895" lon="12.172550100099855"><ele>377.0</ele><time>2026-04-24T15:43:39Z</time></trkpt><trkpt lat="42.260045423720506" lon="12.172459347720341"><ele>378.00000000000006</ele><time>2026-04-24T15:43:40Z</time></trkpt><trkpt lat="42.260016890182406" lon="12.172357974517702"><ele>379.0</ele><time>2026-04-24T15:43:41Z</time></trkpt><trkpt lat="42.25999181122863" lon="12.17225867697233"><ele>380.4</ele><time>2026-04-24T15:43:42Z</time></trkpt><trkpt lat="42.25996186838441" lon="12.17216026966145"><ele>381.79999999999995</ele><time>2026-04-24T15:43:43Z</time></trkpt><trkpt lat="42.25993000715679" lon="12.172012539969588"><ele>383.20000000000005</ele><time>2026-04-24T15:43:45Z</time></trkpt><trkpt lat="42.25992168824868" lon="12.171835030163443"><ele>384.6</ele><time>2026-04-24T15:43:47Z</time></trkpt><trkpt lat="42.25992259703585" lon="12.171708073206732"><ele>386.0</ele><time>2026-04-24T15:43:48Z</time></trkpt><trkpt lat="42.259933836021574" lon="12.171581809758866"><ele>386.49999999999994</ele><time>2026-04-24T15:43:49Z</time></trkpt><trkpt lat="42.25994210699119" lon="12.1714403911079"><ele>387.0</ele><time>2026-04-24T15:43:50Z</time></trkpt><trkpt lat="42.25994750938374" lon="12.171311753728862"><ele>387.5</ele><time>2026-04-24T15:43:51Z</time></trkpt><trkpt lat="42.259943092280345" lon="12.171197482663827"><ele>388.0</ele><time>2026-04-24T15:43:52Z</time></trkpt><trkpt lat="42.259938487343234" lon="12.171099415453604"><ele>388.49999999999994</ele><time>2026-04-24T15:43:53Z</time></trkpt><trkpt lat="42.2599331822984" lon="12.171012198029656"><ele>389.0</ele><time>2026-04-24T15:43:54Z</time></trkpt><trkpt lat="42.25988770124386" lon="12.170887002451416"><ele>388.99999999999994</ele><time>2026-04-24T15:43:56Z</time></trkpt><trkpt lat="42.25983888522897" lon="12.170829858163591"><ele>389.0</ele><time>2026-04-24T15:43:57Z</time></trkpt><trkpt lat="42.25977441757933" lon="12.170772911513561"><ele>389.0</ele><time>2026-04-24T15:43:58Z</time></trkpt><trkpt lat="42.25971503377498" lon="12.17070867335999"><ele>389.0</ele><time>2026-04-24T15:43:59Z</time></trkpt><trkpt lat="42.259619706001786" lon="12.170646509029199"><ele>388.99999999999994</ele><time>2026-04-24T15:44:01Z</time></trkpt><trkpt lat="42.25953437986614" lon="12.170562950358688"><ele>389.0</ele><time>2026-04-24T15:44:03Z</time></trkpt><trkpt lat="42.25947148451687" lon="12.170536083811745"><ele>390.42857142857144</ele><time>2026-04-24T15:44:05Z</time></trkpt><trkpt lat="42.25940164190339" lon="12.170527471806741"><ele>391.85714285714283</ele><time>2026-04-24T15:44:11Z</time></trkpt><trkpt lat="42.25934254335243" lon="12.17047231814152"><ele>393.2857142857143</ele><time>2026-04-24T15:44:13Z</time></trkpt><trkpt lat="42.259268936572035" lon="12.170418015939866"><ele>394.7142857142857</ele><time>2026-04-24T15:44:15Z</time></trkpt><trkpt lat="42.25920212559958" lon="12.17038944345162"><ele>396.1428571428571</ele><time>2026-04-24T15:44:17Z</time></trkpt><trkpt lat="42.259142215357365" lon="12.170358800670561"><ele>397.57142857142856</ele><time>2026-04-24T15:44:21Z</time></trkpt><trkpt lat="42.25907615016831" lon="12.170298283361324"><ele>399.0</ele><time>2026-04-24T15:45:23Z</time></trkpt><trkpt lat="42.25900702419607" lon="12.17025216029618"><ele>399.0</ele><time>2026-04-24T15:45:26Z</time></trkpt><trkpt lat="42.25894528403493" lon="12.170210706233298"><ele>399.0</ele><time>2026-04-24T15:45:28Z</time></trkpt><trkpt lat="42.25893004098723" lon="12.170091553540889"><ele>399.0</ele><time>2026-04-24T15:45:31Z</time></trkpt><trkpt lat="42.258942946225794" lon="12.169985076243314"><ele>399.0</ele><time>2026-04-24T15:45:33Z</time></trkpt><trkpt lat="42.258980216007124" lon="12.169861820200628"><ele>399.0</ele><time>2026-04-24T15:45:35Z</time></trkpt><trkpt lat="42.25898909483218" lon="12.169726905176992"><ele>399.0</ele><time>2026-04-24T15:45:36Z</time></trkpt><trkpt lat="42.2590806827265" lon="12.169565641480867"><ele>399.2</ele><time>2026-04-24T15:45:37Z</time></trkpt><trkpt lat="42.25909667741576" lon="12.169451247117406"><ele>399.4</ele><time>2026-04-24T15:45:38Z</time></trkpt><trkpt lat="42.25912675748272" lon="12.169327481685173"><ele>399.6</ele><time>2026-04-24T15:45:39Z</time></trkpt><trkpt lat="42.25914331363902" lon="12.169170273389613"><ele>399.8</ele><time>2026-04-24T15:45:40Z</time></trkpt><trkpt lat="42.25917832209605" lon="12.169050404499082"><ele>400.0</ele><time>2026-04-24T15:45:41Z</time></trkpt><trkpt lat="42.259219232649144" lon="12.168908218708708"><ele>400.4</ele><time>2026-04-24T15:45:42Z</time></trkpt><trkpt lat="42.25926288306998" lon="12.168783290696785"><ele>400.8</ele><time>2026-04-24T15:45:43Z</time></trkpt><trkpt lat="42.25930813672016" lon="12.16868082921164"><ele>401.20000000000005</ele><time>2026-04-24T15:45:44Z</time></trkpt><trkpt lat="42.25937484736075" lon="12.168547112199294"><ele>401.6</ele><time>2026-04-24T15:45:45Z</time></trkpt><trkpt lat="42.25943164264191" lon="12.16838960762579"><ele>402.0</ele><time>2026-04-24T15:45:46Z</time></trkpt><trkpt lat="42.25950160414023" lon="12.168279070364498"><ele>401.25</ele><time>2026-04-24T15:45:47Z</time></trkpt><trkpt lat="42.25956188309708" lon="12.168142109064481"><ele>400.5</ele><time>2026-04-24T15:45:48Z</time></trkpt><trkpt lat="42.25964437815152" lon="12.168031542874996"><ele>399.75</ele><time>2026-04-24T15:45:49Z</time></trkpt><trkpt lat="42.259746454726255" lon="12.167922378714286"><ele>399.0</ele><time>2026-04-24T15:45:50Z</time></trkpt><trkpt lat="42.25985619782942" lon="12.167848261641383"><ele>400.4</ele><time>2026-04-24T15:45:51Z</time></trkpt><trkpt lat="42.25996102606579" lon="12.167760349267626"><ele>401.79999999999995</ele><time>2026-04-24T15:45:52Z</time></trkpt><trkpt lat="42.2600479591621" lon="12.167672974751495"><ele>403.20000000000005</ele><time>2026-04-24T15:45:53Z</time></trkpt><trkpt lat="42.26013514211844" lon="12.167612023625928"><ele>404.6</ele><time>2026-04-24T15:45:54Z</time></trkpt><trkpt lat="42.26021358933413" lon="12.16753192276195"><ele>406.0</ele><time>2026-04-24T15:45:55Z</time></trkpt><trkpt lat="42.26029218615959" lon="12.167451106393356"><ele>406.0</ele><time>2026-04-24T15:45:56Z</time></trkpt><trkpt lat="42.26036706694133" lon="12.167368591316778"><ele>406.0</ele><time>2026-04-24T15:45:57Z</time></trkpt><trkpt lat="42.2604401957427" lon="12.167288409413015"><ele>406.0</ele><time>2026-04-24T15:45:58Z</time></trkpt><trkpt lat="42.26052582665094" lon="12.167223840505407"><ele>406.0</ele><time>2026-04-24T15:45:59Z</time></trkpt><trkpt lat="42.26058676224456" lon="12.167134207637366"><ele>406.0</ele><time>2026-04-24T15:46:00Z</time></trkpt><trkpt lat="42.2606282367745" lon="12.167047280723583"><ele>406.20000000000005</ele><time>2026-04-24T15:46:01Z</time></trkpt><trkpt lat="42.26065148403904" lon="12.166938564528683"><ele>406.40000000000003</ele><time>2026-04-24T15:46:02Z</time></trkpt><trkpt lat="42.260665782557865" lon="12.166809930759955"><ele>406.6</ele><time>2026-04-24T15:46:03Z</time></trkpt><trkpt lat="42.2606665744642" lon="12.166678755302819"><ele>406.8</ele><time>2026-04-24T15:46:04Z</time></trkpt><trkpt lat="42.26062951920333" lon="12.16654829328169"><ele>407.0</ele><time>2026-04-24T15:46:05Z</time></trkpt><trkpt lat="42.26058665633745" lon="12.166391398182682"><ele>407.0</ele><time>2026-04-24T15:46:06Z</time></trkpt><trkpt lat="42.26054588309402" lon="12.166227217339472"><ele>407.0</ele><time>2026-04-24T15:46:07Z</time></trkpt><trkpt lat="42.26050190983438" lon="12.166070581636507"><ele>407.0</ele><time>2026-04-24T15:46:08Z</time></trkpt><trkpt lat="42.26047169468074" lon="12.165926868853164"><ele>407.0</ele><time>2026-04-24T15:46:09Z</time></trkpt><trkpt lat="42.26043510492517" lon="12.165781242496694"><ele>407.40000000000003</ele><time>2026-04-24T15:46:10Z</time></trkpt><trkpt lat="42.26041554597472" lon="12.165624055584738"><ele>407.8</ele><time>2026-04-24T15:46:11Z</time></trkpt><trkpt lat="42.2604115058196" lon="12.1654589792629"><ele>408.2</ele><time>2026-04-24T15:46:12Z</time></trkpt><trkpt lat="42.26040511689691" lon="12.165319869752848"><ele>408.6</ele><time>2026-04-24T15:46:13Z</time></trkpt><trkpt lat="42.260404679263786" lon="12.165185949452244"><ele>409.0</ele><time>2026-04-24T15:46:14Z</time></trkpt><trkpt lat="42.26040442002606" lon="12.16505652940894"><ele>409.0</ele><time>2026-04-24T15:46:15Z</time></trkpt><trkpt lat="42.26040531911654" lon="12.164960211731279"><ele>409.0</ele><time>2026-04-24T15:46:16Z</time></trkpt><trkpt lat="42.26039717416674" lon="12.164829104050549"><ele>409.0</ele><time>2026-04-24T15:46:17Z</time></trkpt><trkpt lat="42.26043117886647" lon="12.164597350693994"><ele>409.0</ele><time>2026-04-24T15:46:18Z</time></trkpt><trkpt lat="42.26048531783645" lon="12.164455688665031"><ele>409.5</ele><time>2026-04-24T15:46:19Z</time></trkpt><trkpt lat="42.26054830796156" lon="12.164289769694161"><ele>410.0</ele><time>2026-04-24T15:46:20Z</time></trkpt><trkpt lat="42.26060552486871" lon="12.164148623900568"><ele>410.5</ele><time>2026-04-24T15:46:21Z</time></trkpt><trkpt lat="42.26066404560568" lon="12.164007753394044"><ele>411.0</ele><time>2026-04-24T15:46:22Z</time></trkpt><trkpt lat="42.26070990348893" lon="12.163911443338733"><ele>411.5</ele><time>2026-04-24T15:46:23Z</time></trkpt><trkpt lat="42.26074730927613" lon="12.163826172876334"><ele>412.0</ele><time>2026-04-24T15:46:24Z</time></trkpt><trkpt lat="42.260828208112514" lon="12.163712551155287"><ele>412.5</ele><time>2026-04-24T15:46:26Z</time></trkpt><trkpt lat="42.26088855283801" lon="12.16363315836693"><ele>413.0</ele><time>2026-04-24T15:46:28Z</time></trkpt><trkpt lat="42.260854737000024" lon="12.16353981374524"><ele>413.5</ele><time>2026-04-24T15:46:41Z</time></trkpt><trkpt lat="42.26092922843159" lon="12.16348763975617"><ele>414.0</ele><time>2026-04-24T15:47:09Z</time></trkpt><trkpt lat="42.26095783605434" lon="12.16341132212831"><ele>414.0</ele><time>2026-04-24T15:47:10Z</time></trkpt><trkpt lat="42.26097111414207" lon="12.163292967958563"><ele>414.0</ele><time>2026-04-24T15:47:11Z</time></trkpt><trkpt lat="42.26100888995018" lon="12.163187898534055"><ele>414.0</ele><time>2026-04-24T15:47:12Z</time></trkpt><trkpt lat="42.261051102741924" lon="12.163082756272134"><ele>414.0</ele><time>2026-04-24T15:47:13Z</time></trkpt><trkpt lat="42.26109581389309" lon="12.162973118792268"><ele>414.0</ele><time>2026-04-24T15:47:14Z</time></trkpt><trkpt lat="42.26116987638144" lon="12.162824139826178"><ele>415.0</ele><time>2026-04-24T15:47:15Z</time></trkpt><trkpt lat="42.26124990693788" lon="12.162637253411983"><ele>416.0</ele><time>2026-04-24T15:47:16Z</time></trkpt><trkpt lat="42.26133048072048" lon="12.162467001090171"><ele>417.0</ele><time>2026-04-24T15:47:17Z</time></trkpt><trkpt lat="42.261408212729265" lon="12.162293539249209"><ele>418.5</ele><time>2026-04-24T15:47:18Z</time></trkpt><trkpt lat="42.26145990850651" lon="12.162140107215933"><ele>420.0</ele><time>2026-04-24T15:47:19Z</time></trkpt><trkpt lat="42.2615136036178" lon="12.162029500623987"><ele>421.5</ele><time>2026-04-24T15:47:20Z</time></trkpt><trkpt lat="42.26158373020967" lon="12.161895855611661"><ele>423.0</ele><time>2026-04-24T15:47:21Z</time></trkpt><trkpt lat="42.2616311374103" lon="12.161757431887285"><ele>423.0</ele><time>2026-04-24T15:47:22Z</time></trkpt><trkpt lat="42.261688140318874" lon="12.161610529850588"><ele>423.0</ele><time>2026-04-24T15:47:23Z</time></trkpt><trkpt lat="42.261745660295205" lon="12.161490083706685"><ele>423.0</ele><time>2026-04-24T15:47:24Z</time></trkpt><trkpt lat="42.26181790865065" lon="12.161378537962408"><ele>423.0</ele><time>2026-04-24T15:47:25Z</time></trkpt><trkpt lat="42.26189887386297" lon="12.161273761059665"><ele>423.25</ele><time>2026-04-24T15:47:26Z</time></trkpt><trkpt lat="42.261965216965244" lon="12.161131484314879"><ele>423.5</ele><time>2026-04-24T15:47:27Z</time></trkpt><trkpt lat="42.26203380175291" lon="12.160991920676478"><ele>423.75</ele><time>2026-04-24T15:47:28Z</time></trkpt><trkpt lat="42.26209177232388" lon="12.160832242905247"><ele>424.0</ele><time>2026-04-24T15:47:29Z</time></trkpt><trkpt lat="42.2621508616754" lon="12.160706755097971"><ele>424.0</ele><time>2026-04-24T15:47:30Z</time></trkpt><trkpt lat="42.262206727778405" lon="12.160538654716317"><ele>424.0</ele><time>2026-04-24T15:47:31Z</time></trkpt><trkpt lat="42.26227323873583" lon="12.160379580287419"><ele>424.0</ele><time>2026-04-24T15:47:32Z</time></trkpt><trkpt lat="42.26233411197657" lon="12.160192782132507"><ele>424.0</ele><time>2026-04-24T15:47:33Z</time></trkpt><trkpt lat="42.26239271820233" lon="12.16001992649858"><ele>425.25</ele><time>2026-04-24T15:47:34Z</time></trkpt><trkpt lat="42.26245638582689" lon="12.159857948121758"><ele>426.5</ele><time>2026-04-24T15:47:35Z</time></trkpt><trkpt lat="42.262501778293256" lon="12.159715584258551"><ele>427.75</ele><time>2026-04-24T15:47:36Z</time></trkpt><trkpt lat="42.26255554034254" lon="12.159578361650134"><ele>429.0</ele><time>2026-04-24T15:47:37Z</time></trkpt><trkpt lat="42.26261327303188" lon="12.159436812955724"><ele>429.0</ele><time>2026-04-24T15:47:38Z</time></trkpt><trkpt lat="42.26266635550203" lon="12.15928010071923"><ele>429.0</ele><time>2026-04-24T15:47:39Z</time></trkpt><trkpt lat="42.26272057453812" lon="12.159144711664975"><ele>429.0</ele><time>2026-04-24T15:47:40Z</time></trkpt><trkpt lat="42.26278459425668" lon="12.159002062843895"><ele>429.0</ele><time>2026-04-24T15:47:41Z</time></trkpt><trkpt lat="42.26284445346272" lon="12.158872350633343"><ele>429.0</ele><time>2026-04-24T15:47:42Z</time></trkpt><trkpt lat="42.26291331167052" lon="12.158748275112012"><ele>429.0</ele><time>2026-04-24T15:47:43Z</time></trkpt><trkpt lat="42.26299767851336" lon="12.158616720090516"><ele>429.0</ele><time>2026-04-24T15:47:44Z</time></trkpt><trkpt lat="42.263081888086454" lon="12.158505440531618"><ele>429.0</ele><time>2026-04-24T15:47:45Z</time></trkpt><trkpt lat="42.26319091778129" lon="12.15839329399701"><ele>430.0</ele><time>2026-04-24T15:47:46Z</time></trkpt><trkpt lat="42.2633135922834" lon="12.158280803417329"><ele>431.0</ele><time>2026-04-24T15:47:47Z</time></trkpt><trkpt lat="42.26345164252401" lon="12.158163725308217"><ele>432.0</ele><time>2026-04-24T15:47:48Z</time></trkpt><trkpt lat="42.26358723198793" lon="12.158048033106912"><ele>432.33333333333337</ele><time>2026-04-24T15:47:49Z</time></trkpt><trkpt lat="42.263717204191664" lon="12.15792542078278"><ele>432.6666666666667</ele><time>2026-04-24T15:47:50Z</time></trkpt><trkpt lat="42.26384601677346" lon="12.157809011767757"><ele>433.0</ele><time>2026-04-24T15:47:51Z</time></trkpt><trkpt lat="42.2639712618017" lon="12.157680148223172"><ele>433.33333333333337</ele><time>2026-04-24T15:47:52Z</time></trkpt><trkpt lat="42.26410007653084" lon="12.157543229291269"><ele>433.66666666666663</ele><time>2026-04-24T15:47:53Z</time></trkpt><trkpt lat="42.26422012122265" lon="12.157396349461097"><ele>434.0</ele><time>2026-04-24T15:47:54Z</time></trkpt><trkpt lat="42.26434909431221" lon="12.15724460259856"><ele>434.0</ele><time>2026-04-24T15:47:55Z</time></trkpt><trkpt lat="42.26447968213573" lon="12.157100114934652"><ele>434.0</ele><time>2026-04-24T15:47:56Z</time></trkpt><trkpt lat="42.2646072530017" lon="12.156955107405832"><ele>434.0</ele><time>2026-04-24T15:47:57Z</time></trkpt><trkpt lat="42.26473328467905" lon="12.156819078533601"><ele>435.3333333333333</ele><time>2026-04-24T15:47:58Z</time></trkpt><trkpt lat="42.26485438284882" lon="12.156685519948335"><ele>436.66666666666663</ele><time>2026-04-24T15:47:59Z</time></trkpt><trkpt lat="42.26497804834445" lon="12.15655729511083"><ele>438.0</ele><time>2026-04-24T15:48:00Z</time></trkpt><trkpt lat="42.26510025275364" lon="12.15642656477006"><ele>438.33333333333337</ele><time>2026-04-24T15:48:01Z</time></trkpt><trkpt lat="42.26522468363161" lon="12.156298792699845"><ele>438.6666666666667</ele><time>2026-04-24T15:48:02Z</time></trkpt><trkpt lat="42.26534138951452" lon="12.156168564926908"><ele>439.0</ele><time>2026-04-24T15:48:03Z</time></trkpt><trkpt lat="42.26545826604488" lon="12.15604412775895"><ele>439.0</ele><time>2026-04-24T15:48:04Z</time></trkpt><trkpt lat="42.26558249212371" lon="12.155902676968875"><ele>439.0</ele><time>2026-04-24T15:48:05Z</time></trkpt><trkpt lat="42.26571327084019" lon="12.155768088145285"><ele>439.0</ele><time>2026-04-24T15:48:06Z</time></trkpt><trkpt lat="42.26583501405582" lon="12.155644420614328"><ele>440.75</ele><time>2026-04-24T15:48:07Z</time></trkpt><trkpt lat="42.26595104350825" lon="12.155519785076523"><ele>442.5</ele><time>2026-04-24T15:48:08Z</time></trkpt><trkpt lat="42.26607446187912" lon="12.155400780630838"><ele>444.25</ele><time>2026-04-24T15:48:09Z</time></trkpt><trkpt lat="42.26618771235012" lon="12.15527648146924"><ele>446.0</ele><time>2026-04-24T15:48:10Z</time></trkpt><trkpt lat="42.26629604591741" lon="12.155127407832012"><ele>446.0</ele><time>2026-04-24T15:48:11Z</time></trkpt><trkpt lat="42.2664076864076" lon="12.15499918388171"><ele>446.0</ele><time>2026-04-24T15:48:12Z</time></trkpt><trkpt lat="42.26652169274346" lon="12.154878857524142"><ele>446.0</ele><time>2026-04-24T15:48:13Z</time></trkpt><trkpt lat="42.266620329044095" lon="12.154746085742495"><ele>446.0</ele><time>2026-04-24T15:48:14Z</time></trkpt><trkpt lat="42.26671968587179" lon="12.154627867784724"><ele>447.0</ele><time>2026-04-24T15:48:15Z</time></trkpt><trkpt lat="42.26681635028692" lon="12.154489577487832"><ele>448.0</ele><time>2026-04-24T15:48:16Z</time></trkpt><trkpt lat="42.2669219349497" lon="12.15438103466694"><ele>449.0</ele><time>2026-04-24T15:48:17Z</time></trkpt><trkpt lat="42.2670258882372" lon="12.154258496064854"><ele>450.0</ele><time>2026-04-24T15:48:18Z</time></trkpt><trkpt lat="42.26712166323815" lon="12.154157591732213"><ele>450.0</ele><time>2026-04-24T15:48:19Z</time></trkpt><trkpt lat="42.26723936591015" lon="12.154070609893664"><ele>450.0</ele><time>2026-04-24T15:48:20Z</time></trkpt><trkpt lat="42.267348058078326" lon="12.153976044003507"><ele>450.0</ele><time>2026-04-24T15:48:21Z</time></trkpt><trkpt lat="42.26746428433414" lon="12.153891043858577"><ele>450.0</ele><time>2026-04-24T15:48:22Z</time></trkpt><trkpt lat="42.267554811991424" lon="12.153729680047011"><ele>450.25</ele><time>2026-04-24T15:48:23Z</time></trkpt><trkpt lat="42.26766295387889" lon="12.153614048911988"><ele>450.5</ele><time>2026-04-24T15:48:24Z</time></trkpt><trkpt lat="42.26777232356481" lon="12.15349084623137"><ele>450.75</ele><time>2026-04-24T15:48:25Z</time></trkpt><trkpt lat="42.26788410644902" lon="12.153368684814003"><ele>451.0</ele><time>2026-04-24T15:48:26Z</time></trkpt><trkpt lat="42.26799067167736" lon="12.15323774012743"><ele>451.0</ele><time>2026-04-24T15:48:27Z</time></trkpt><trkpt lat="42.268096503144044" lon="12.153105334364797"><ele>451.0</ele><time>2026-04-24T15:48:28Z</time></trkpt><trkpt lat="42.26819899448447" lon="12.152974477366406"><ele>451.0</ele><time>2026-04-24T15:48:29Z</time></trkpt><trkpt lat="42.26830822811683" lon="12.152852736663835"><ele>451.0</ele><time>2026-04-24T15:48:30Z</time></trkpt><trkpt lat="42.26840703686636" lon="12.152707862130082"><ele>452.25</ele><time>2026-04-24T15:48:31Z</time></trkpt><trkpt lat="42.268491684703356" lon="12.152545768824284"><ele>453.5</ele><time>2026-04-24T15:48:32Z</time></trkpt><trkpt lat="42.26858693747641" lon="12.152401671366558"><ele>454.75</ele><time>2026-04-24T15:48:33Z</time></trkpt><trkpt lat="42.26867437145696" lon="12.152264549174223"><ele>456.0</ele><time>2026-04-24T15:48:34Z</time></trkpt><trkpt lat="42.26875132376178" lon="12.152140760738504"><ele>456.25</ele><time>2026-04-24T15:48:35Z</time></trkpt><trkpt lat="42.26883129475254" lon="12.152014758654422"><ele>456.5</ele><time>2026-04-24T15:48:36Z</time></trkpt><trkpt lat="42.268905078725275" lon="12.151873396369266"><ele>456.75</ele><time>2026-04-24T15:48:37Z</time></trkpt><trkpt lat="42.26897318923206" lon="12.151721610551384"><ele>457.0</ele><time>2026-04-24T15:48:38Z</time></trkpt><trkpt lat="42.26903587735524" lon="12.151568402834027"><ele>458.0</ele><time>2026-04-24T15:48:39Z</time></trkpt><trkpt lat="42.26908511004756" lon="12.15140058749549"><ele>459.0</ele><time>2026-04-24T15:48:40Z</time></trkpt><trkpt lat="42.2691336145435" lon="12.151266421519828"><ele>460.0</ele><time>2026-04-24T15:48:41Z</time></trkpt><trkpt lat="42.26917499802021" lon="12.151103770910218"><ele>461.0</ele><time>2026-04-24T15:48:42Z</time></trkpt><trkpt lat="42.269226749499936" lon="12.150959014743057"><ele>461.0</ele><time>2026-04-24T15:48:43Z</time></trkpt><trkpt lat="42.26928656820956" lon="12.150802991395858"><ele>461.0</ele><time>2026-04-24T15:48:44Z</time></trkpt><trkpt lat="42.26935836844337" lon="12.150657162688711"><ele>461.0</ele><time>2026-04-24T15:48:45Z</time></trkpt><trkpt lat="42.269431743312964" lon="12.150533071325341"><ele>461.0</ele><time>2026-04-24T15:48:46Z</time></trkpt><trkpt lat="42.26952119141559" lon="12.15039335451173"><ele>460.66666666666663</ele><time>2026-04-24T15:48:47Z</time></trkpt><trkpt lat="42.269621745476925" lon="12.150248082000042"><ele>460.33333333333337</ele><time>2026-04-24T15:48:48Z</time></trkpt><trkpt lat="42.26974194104498" lon="12.15009325231211"><ele>460.0</ele><time>2026-04-24T15:48:49Z</time></trkpt><trkpt lat="42.26986426394615" lon="12.149969960924503"><ele>459.6666666666667</ele><time>2026-04-24T15:48:50Z</time></trkpt><trkpt lat="42.26998777220403" lon="12.149822878479647"><ele>459.33333333333337</ele><time>2026-04-24T15:48:51Z</time></trkpt><trkpt lat="42.27010567093991" lon="12.149697805646216"><ele>459.0</ele><time>2026-04-24T15:48:52Z</time></trkpt><trkpt lat="42.27022776922107" lon="12.149578270632235"><ele>459.0</ele><time>2026-04-24T15:48:53Z</time></trkpt><trkpt lat="42.270343131134915" lon="12.149454980060952"><ele>459.0</ele><time>2026-04-24T15:48:54Z</time></trkpt><trkpt lat="42.27046043364032" lon="12.149338103413832"><ele>459.0</ele><time>2026-04-24T15:48:55Z</time></trkpt><trkpt lat="42.270574204193004" lon="12.149208802453584"><ele>459.0</ele><time>2026-04-24T15:48:56Z</time></trkpt><trkpt lat="42.27068630619357" lon="12.149097144511058"><ele>460.0</ele><time>2026-04-24T15:48:57Z</time></trkpt><trkpt lat="42.27079870286627" lon="12.148991914664913"><ele>461.0</ele><time>2026-04-24T15:48:58Z</time></trkpt><trkpt lat="42.27090271485065" lon="12.148894610880557"><ele>462.0</ele><time>2026-04-24T15:48:59Z</time></trkpt><trkpt lat="42.27101020257218" lon="12.14878796070254"><ele>463.0</ele><time>2026-04-24T15:49:00Z</time></trkpt><trkpt lat="42.27111804675506" lon="12.148684308262853"><ele>463.0</ele><time>2026-04-24T15:49:01Z</time></trkpt><trkpt lat="42.27121712533766" lon="12.148584826314975"><ele>463.0</ele><time>2026-04-24T15:49:02Z</time></trkpt><trkpt lat="42.271308616493705" lon="12.148490963125118"><ele>463.0</ele><time>2026-04-24T15:49:03Z</time></trkpt><trkpt lat="42.27138873982448" lon="12.148382619872129"><ele>463.0</ele><time>2026-04-24T15:49:04Z</time></trkpt><trkpt lat="42.27146681669988" lon="12.148291295765569"><ele>462.79999999999995</ele><time>2026-04-24T15:49:05Z</time></trkpt><trkpt lat="42.271544639873476" lon="12.14818831903099"><ele>462.59999999999997</ele><time>2026-04-24T15:49:06Z</time></trkpt><trkpt lat="42.27162033841593" lon="12.148079599489286"><ele>462.40000000000003</ele><time>2026-04-24T15:49:07Z</time></trkpt><trkpt lat="42.2716972142216" lon="12.147970959573168"><ele>462.20000000000005</ele><time>2026-04-24T15:49:08Z</time></trkpt><trkpt lat="42.27177088045853" lon="12.1478696619393"><ele>462.0</ele><time>2026-04-24T15:49:09Z</time></trkpt><trkpt lat="42.27184046209985" lon="12.147757044154762"><ele>462.0</ele><time>2026-04-24T15:49:10Z</time></trkpt><trkpt lat="42.27191100775361" lon="12.147625852278155"><ele>462.0</ele><time>2026-04-24T15:49:11Z</time></trkpt><trkpt lat="42.27199101798149" lon="12.147524993731365"><ele>462.0</ele><time>2026-04-24T15:49:12Z</time></trkpt><trkpt lat="42.2720643684302" lon="12.14742247477097"><ele>462.0</ele><time>2026-04-24T15:49:13Z</time></trkpt><trkpt lat="42.272150218718785" lon="12.147301236529161"><ele>460.25</ele><time>2026-04-24T15:49:14Z</time></trkpt><trkpt lat="42.272219744559656" lon="12.14718384784305"><ele>458.5</ele><time>2026-04-24T15:49:15Z</time></trkpt><trkpt lat="42.27229765499484" lon="12.147068361009676"><ele>456.75</ele><time>2026-04-24T15:49:16Z</time></trkpt><trkpt lat="42.27236960338971" lon="12.146945218401951"><ele>455.0</ele><time>2026-04-24T15:49:17Z</time></trkpt><trkpt lat="42.272452355763676" lon="12.146824370956537"><ele>455.0</ele><time>2026-04-24T15:49:18Z</time></trkpt><trkpt lat="42.27252923403835" lon="12.14670209885882"><ele>455.0</ele><time>2026-04-24T15:49:19Z</time></trkpt><trkpt lat="42.2726074170849" lon="12.146574686744145"><ele>455.0</ele><time>2026-04-24T15:49:20Z</time></trkpt><trkpt lat="42.2726898342456" lon="12.14644267601442"><ele>455.0</ele><time>2026-04-24T15:49:21Z</time></trkpt><trkpt lat="42.27277111058754" lon="12.146304213085266"><ele>454.3333333333333</ele><time>2026-04-24T15:49:22Z</time></trkpt><trkpt lat="42.27286634207171" lon="12.14614738255924"><ele>453.66666666666663</ele><time>2026-04-24T15:49:23Z</time></trkpt><trkpt lat="42.2729578327606" lon="12.145987492871342"><ele>453.0</ele><time>2026-04-24T15:49:24Z</time></trkpt><trkpt lat="42.27305593090472" lon="12.145825416416988"><ele>455.66666666666663</ele><time>2026-04-24T15:49:25Z</time></trkpt><trkpt lat="42.273155612080274" lon="12.145652447257676"><ele>458.3333333333333</ele><time>2026-04-24T15:49:26Z</time></trkpt><trkpt lat="42.27325347326054" lon="12.145484139966575"><ele>461.0</ele><time>2026-04-24T15:49:27Z</time></trkpt><trkpt lat="42.27334969191306" lon="12.145327401133978"><ele>461.0</ele><time>2026-04-24T15:49:28Z</time></trkpt><trkpt lat="42.273447867213385" lon="12.14516755304974"><ele>461.0</ele><time>2026-04-24T15:49:29Z</time></trkpt><trkpt lat="42.27355121121794" lon="12.145012212461278"><ele>461.0</ele><time>2026-04-24T15:49:30Z</time></trkpt><trkpt lat="42.27364215918393" lon="12.144857047890536"><ele>462.0</ele><time>2026-04-24T15:49:31Z</time></trkpt><trkpt lat="42.27373980391399" lon="12.144706988898996"><ele>463.0</ele><time>2026-04-24T15:49:32Z</time></trkpt><trkpt lat="42.2738381510951" lon="12.144556758269541"><ele>464.0</ele><time>2026-04-24T15:49:33Z</time></trkpt><trkpt lat="42.27393047767085" lon="12.144406612671425"><ele>465.0</ele><time>2026-04-24T15:49:34Z</time></trkpt><trkpt lat="42.27403004166937" lon="12.144254895245588"><ele>465.0</ele><time>2026-04-24T15:49:35Z</time></trkpt><trkpt lat="42.274132062726494" lon="12.144112814904005"><ele>465.0</ele><time>2026-04-24T15:49:36Z</time></trkpt><trkpt lat="42.2742260070907" lon="12.143975159126525"><ele>465.0</ele><time>2026-04-24T15:49:37Z</time></trkpt><trkpt lat="42.27431208345535" lon="12.14383765063643"><ele>465.0</ele><time>2026-04-24T15:49:38Z</time></trkpt><trkpt lat="42.27439657662567" lon="12.143704702853109"><ele>464.75</ele><time>2026-04-24T15:49:39Z</time></trkpt><trkpt lat="42.27449415682172" lon="12.143571070937227"><ele>464.5</ele><time>2026-04-24T15:49:40Z</time></trkpt><trkpt lat="42.27460014624818" lon="12.143436545873707"><ele>464.25</ele><time>2026-04-24T15:49:41Z</time></trkpt><trkpt lat="42.274705499196955" lon="12.14330745371436"><ele>464.0</ele><time>2026-04-24T15:49:42Z</time></trkpt><trkpt lat="42.27480719671" lon="12.143187164117851"><ele>464.0</ele><time>2026-04-24T15:49:43Z</time></trkpt><trkpt lat="42.274904149940326" lon="12.14307375400118"><ele>464.0</ele><time>2026-04-24T15:49:44Z</time></trkpt><trkpt lat="42.27501345220792" lon="12.142944000993735"><ele>464.0</ele><time>2026-04-24T15:49:45Z</time></trkpt><trkpt lat="42.27512933819186" lon="12.14282623113761"><ele>464.0</ele><time>2026-04-24T15:49:46Z</time></trkpt><trkpt lat="42.27525272180082" lon="12.142713498091712"><ele>464.0</ele><time>2026-04-24T15:49:47Z</time></trkpt><trkpt lat="42.27549677213221" lon="12.143160394531163"><ele>464.0</ele><time>2026-04-24T15:49:48Z</time></trkpt><trkpt lat="42.27548558408558" lon="12.142500686558112"><ele>464.0</ele><time>2026-04-24T15:49:49Z</time></trkpt><trkpt lat="42.27560052694962" lon="12.142396063125267"><ele>464.0</ele><time>2026-04-24T15:49:50Z</time></trkpt><trkpt lat="42.27571801919851" lon="12.142301002152792"><ele>464.0</ele><time>2026-04-24T15:49:51Z</time></trkpt><trkpt lat="42.27583721655758" lon="12.142205056431656"><ele>464.0</ele><time>2026-04-24T15:49:52Z</time></trkpt><trkpt lat="42.27596319435009" lon="12.142128212515981"><ele>465.25</ele><time>2026-04-24T15:49:53Z</time></trkpt><trkpt lat="42.2760906880438" lon="12.142040133476106"><ele>466.5</ele><time>2026-04-24T15:49:54Z</time></trkpt><trkpt lat="42.276219540546116" lon="12.141967013934945"><ele>467.75</ele><time>2026-04-24T15:49:55Z</time></trkpt><trkpt lat="42.27635160440969" lon="12.141883966036394"><ele>469.0</ele><time>2026-04-24T15:49:56Z</time></trkpt><trkpt lat="42.276473954364874" lon="12.141808516123016"><ele>469.25</ele><time>2026-04-24T15:49:57Z</time></trkpt><trkpt lat="42.27660256823522" lon="12.141716406148607"><ele>469.5</ele><time>2026-04-24T15:49:58Z</time></trkpt><trkpt lat="42.276726463000195" lon="12.141618368766006"><ele>469.75</ele><time>2026-04-24T15:49:59Z</time></trkpt><trkpt lat="42.276858700269926" lon="12.141555698409924"><ele>470.0</ele><time>2026-04-24T15:50:00Z</time></trkpt><trkpt lat="42.27698019230835" lon="12.141479231490218"><ele>470.0</ele><time>2026-04-24T15:50:01Z</time></trkpt><trkpt lat="42.27711047471809" lon="12.141409157983462"><ele>470.0</ele><time>2026-04-24T15:50:02Z</time></trkpt><trkpt lat="42.27724146553008" lon="12.141337041476676"><ele>470.0</ele><time>2026-04-24T15:50:03Z</time></trkpt><trkpt lat="42.27734303536343" lon="12.1412360635059"><ele>470.0</ele><time>2026-04-24T15:50:04Z</time></trkpt><trkpt lat="42.27746210036377" lon="12.14114438299749"><ele>469.5</ele><time>2026-04-24T15:50:05Z</time></trkpt><trkpt lat="42.27757985776941" lon="12.141072488767357"><ele>469.0</ele><time>2026-04-24T15:50:06Z</time></trkpt><trkpt lat="42.27769532431459" lon="12.140969550191466"><ele>468.5</ele><time>2026-04-24T15:50:07Z</time></trkpt><trkpt lat="42.27780963370632" lon="12.140876001923063"><ele>468.0</ele><time>2026-04-24T15:50:08Z</time></trkpt><trkpt lat="42.27792345310638" lon="12.14077487885635"><ele>465.66666666666663</ele><time>2026-04-24T15:50:09Z</time></trkpt><trkpt lat="42.27803927049658" lon="12.140661660862932"><ele>463.3333333333333</ele><time>2026-04-24T15:50:10Z</time></trkpt><trkpt lat="42.27816339417063" lon="12.140540923743686"><ele>461.0</ele><time>2026-04-24T15:50:11Z</time></trkpt><trkpt lat="42.2782853679739" lon="12.14041046775856"><ele>461.0</ele><time>2026-04-24T15:50:12Z</time></trkpt><trkpt lat="42.27842279337673" lon="12.140262315721225"><ele>461.0</ele><time>2026-04-24T15:50:13Z</time></trkpt><trkpt lat="42.27855144552646" lon="12.140102913313218"><ele>461.0</ele><time>2026-04-24T15:50:14Z</time></trkpt><trkpt lat="42.278679671367506" lon="12.139955227053022"><ele>461.3333333333333</ele><time>2026-04-24T15:50:15Z</time></trkpt><trkpt lat="42.27880744363538" lon="12.139804944653418"><ele>461.66666666666663</ele><time>2026-04-24T15:50:16Z</time></trkpt><trkpt lat="42.278934284014234" lon="12.139652218024173"><ele>462.0</ele><time>2026-04-24T15:50:17Z</time></trkpt><trkpt lat="42.27906046984606" lon="12.139498845453053"><ele>463.0</ele><time>2026-04-24T15:50:18Z</time></trkpt><trkpt lat="42.27918521478282" lon="12.139343620162686"><ele>464.0</ele><time>2026-04-24T15:50:19Z</time></trkpt><trkpt lat="42.27931140956677" lon="12.13918841438197"><ele>465.0</ele><time>2026-04-24T15:50:20Z</time></trkpt><trkpt lat="42.27943321242069" lon="12.139043082032682"><ele>465.0</ele><time>2026-04-24T15:50:21Z</time></trkpt><trkpt lat="42.27955368519155" lon="12.138899290401746"><ele>465.0</ele><time>2026-04-24T15:50:22Z</time></trkpt><trkpt lat="42.279675915552204" lon="12.138755834902986"><ele>465.0</ele><time>2026-04-24T15:50:23Z</time></trkpt><trkpt lat="42.279794873873314" lon="12.13861114963242"><ele>466.0</ele><time>2026-04-24T15:50:24Z</time></trkpt><trkpt lat="42.279913434512245" lon="12.138465923054374"><ele>467.0</ele><time>2026-04-24T15:50:25Z</time></trkpt><trkpt lat="42.28003016934736" lon="12.138321231100264"><ele>468.0</ele><time>2026-04-24T15:50:26Z</time></trkpt><trkpt lat="42.28014877796801" lon="12.13817832558318"><ele>468.0</ele><time>2026-04-24T15:50:27Z</time></trkpt><trkpt lat="42.280264542821314" lon="12.138038569950542"><ele>468.0</ele><time>2026-04-24T15:50:28Z</time></trkpt><trkpt lat="42.28037376059498" lon="12.137902048509371"><ele>468.0</ele><time>2026-04-24T15:50:29Z</time></trkpt><trkpt lat="42.28048172406807" lon="12.137763900285838"><ele>468.0</ele><time>2026-04-24T15:50:30Z</time></trkpt><trkpt lat="42.28058642600524" lon="12.137622915061351"><ele>468.0</ele><time>2026-04-24T15:50:31Z</time></trkpt><trkpt lat="42.2806871107617" lon="12.13748050564771"><ele>468.0</ele><time>2026-04-24T15:50:32Z</time></trkpt><trkpt lat="42.28078714091492" lon="12.137348739578034"><ele>468.0</ele><time>2026-04-24T15:50:33Z</time></trkpt><trkpt lat="42.28088631229751" lon="12.137215189305119"><ele>470.0</ele><time>2026-04-24T15:50:34Z</time></trkpt><trkpt lat="42.28097904206756" lon="12.13707803543247"><ele>472.0</ele><time>2026-04-24T15:50:35Z</time></trkpt><trkpt lat="42.281069449211074" lon="12.136934407007026"><ele>474.0</ele><time>2026-04-24T15:50:36Z</time></trkpt><trkpt lat="42.28115692716575" lon="12.13678114905222"><ele>476.0</ele><time>2026-04-24T15:50:37Z</time></trkpt><trkpt lat="42.28124292705451" lon="12.136620665554009"><ele>477.0</ele><time>2026-04-24T15:50:38Z</time></trkpt><trkpt lat="42.28133759261411" lon="12.136446557694786"><ele>478.0</ele><time>2026-04-24T15:50:39Z</time></trkpt><trkpt lat="42.28143233510424" lon="12.136270148792715"><ele>479.0</ele><time>2026-04-24T15:50:40Z</time></trkpt><trkpt lat="42.28152303505793" lon="12.136085312803814"><ele>480.66666666666663</ele><time>2026-04-24T15:50:41Z</time></trkpt><trkpt lat="42.28161525397065" lon="12.13590425357618"><ele>482.33333333333337</ele><time>2026-04-24T15:50:42Z</time></trkpt><trkpt lat="42.28170078925416" lon="12.13572919322204"><ele>484.0</ele><time>2026-04-24T15:50:43Z</time></trkpt><trkpt lat="42.28177782565071" lon="12.135552939308923"><ele>484.0</ele><time>2026-04-24T15:50:44Z</time></trkpt><trkpt lat="42.281849727247355" lon="12.135376616984214"><ele>484.0</ele><time>2026-04-24T15:50:45Z</time></trkpt><trkpt lat="42.281913795485046" lon="12.135236119535342"><ele>484.0</ele><time>2026-04-24T15:50:46Z</time></trkpt><trkpt lat="42.281972492991706" lon="12.135106550959671"><ele>484.0</ele><time>2026-04-24T15:50:47Z</time></trkpt><trkpt lat="42.28202991962193" lon="12.134960078876121"><ele>484.0</ele><time>2026-04-24T15:50:48Z</time></trkpt><trkpt lat="42.28208185806671" lon="12.1348288264631"><ele>484.0</ele><time>2026-04-24T15:50:49Z</time></trkpt><trkpt lat="42.2821351162509" lon="12.134712665360663"><ele>484.0</ele><time>2026-04-24T15:50:50Z</time></trkpt><trkpt lat="42.28219030412958" lon="12.13459426178586"><ele>484.0</ele><time>2026-04-24T15:50:51Z</time></trkpt><trkpt lat="42.28224162209317" lon="12.134487850398282"><ele>484.0</ele><time>2026-04-24T15:50:52Z</time></trkpt><trkpt lat="42.28228470584735" lon="12.13439298119996"><ele>484.0</ele><time>2026-04-24T15:50:53Z</time></trkpt><trkpt lat="42.28233557524905" lon="12.134318401675943"><ele>484.0</ele><time>2026-04-24T15:50:54Z</time></trkpt><trkpt lat="42.282379944826154" lon="12.134255175344979"><ele>484.0</ele><time>2026-04-24T15:50:55Z</time></trkpt><trkpt lat="42.28246598968299" lon="12.134173926123585"><ele>484.0</ele><time>2026-04-24T15:50:57Z</time></trkpt><trkpt lat="42.28253007296374" lon="12.134035038444148"><ele>484.0</ele><time>2026-04-24T15:50:59Z</time></trkpt><trkpt lat="42.28258614352109" lon="12.13391351503522"><ele>483.83333333333337</ele><time>2026-04-24T15:51:01Z</time></trkpt><trkpt lat="42.28249380102715" lon="12.133867635511402"><ele>483.6666666666667</ele><time>2026-04-24T15:51:03Z</time></trkpt><trkpt lat="42.28243739821934" lon="12.133813843587465"><ele>483.5</ele><time>2026-04-24T15:51:04Z</time></trkpt><trkpt lat="42.28238564399611" lon="12.133761431861728"><ele>483.33333333333337</ele><time>2026-04-24T15:51:05Z</time></trkpt><trkpt lat="42.28231187093253" lon="12.1337531687676"><ele>483.1666666666667</ele><time>2026-04-24T15:51:06Z</time></trkpt><trkpt lat="42.28225424617403" lon="12.133706412976696"><ele>483.0</ele><time>2026-04-24T15:51:07Z</time></trkpt><trkpt lat="42.28219749618801" lon="12.133596236409382"><ele>482.66666666666663</ele><time>2026-04-24T15:51:08Z</time></trkpt><trkpt lat="42.28211199101656" lon="12.13347934761631"><ele>482.3333333333333</ele><time>2026-04-24T15:51:09Z</time></trkpt><trkpt lat="42.28200706650115" lon="12.133337512916617"><ele>482.0</ele><time>2026-04-24T15:51:10Z</time></trkpt><trkpt lat="42.281875998877325" lon="12.133160348494853"><ele>482.0</ele><time>2026-04-24T15:51:11Z</time></trkpt><trkpt lat="42.281748938367876" lon="12.132988613589946"><ele>482.0</ele><time>2026-04-24T15:51:12Z</time></trkpt><trkpt lat="42.281620236188246" lon="12.132816009167867"><ele>482.0</ele><time>2026-04-24T15:51:13Z</time></trkpt><trkpt lat="42.28149535487085" lon="12.132651444478247"><ele>481.66666666666663</ele><time>2026-04-24T15:51:14Z</time></trkpt><trkpt lat="42.28137003583201" lon="12.132517286075936"><ele>481.33333333333337</ele><time>2026-04-24T15:51:15Z</time></trkpt><trkpt lat="42.28125899721336" lon="12.132366818387005"><ele>481.0</ele><time>2026-04-24T15:51:16Z</time></trkpt><trkpt lat="42.281162543042" lon="12.132211380736592"><ele>480.6666666666667</ele><time>2026-04-24T15:51:17Z</time></trkpt><trkpt lat="42.28105601182829" lon="12.132064455254033"><ele>480.33333333333337</ele><time>2026-04-24T15:51:18Z</time></trkpt><trkpt lat="42.28094847947241" lon="12.131916149067045"><ele>480.0</ele><time>2026-04-24T15:51:19Z</time></trkpt><trkpt lat="42.280838266193236" lon="12.131764145406168"><ele>480.0</ele><time>2026-04-24T15:51:20Z</time></trkpt><trkpt lat="42.2807306757486" lon="12.131610951478288"><ele>480.0</ele><time>2026-04-24T15:51:21Z</time></trkpt><trkpt lat="42.28062753166828" lon="12.131461349675117"><ele>480.0</ele><time>2026-04-24T15:51:22Z</time></trkpt><trkpt lat="42.28052998103836" lon="12.131319860633003"><ele>479.75</ele><time>2026-04-24T15:51:23Z</time></trkpt><trkpt lat="42.28043289498402" lon="12.131176487435827"><ele>479.5</ele><time>2026-04-24T15:51:24Z</time></trkpt><trkpt lat="42.280336692722614" lon="12.131031253046272"><ele>479.25</ele><time>2026-04-24T15:51:25Z</time></trkpt><trkpt lat="42.28023946807915" lon="12.13088403153423"><ele>479.0</ele><time>2026-04-24T15:51:26Z</time></trkpt><trkpt lat="42.28014593181579" lon="12.130736696678031"><ele>479.0</ele><time>2026-04-24T15:51:27Z</time></trkpt><trkpt lat="42.28005308786716" lon="12.13058266336666"><ele>479.0</ele><time>2026-04-24T15:51:28Z</time></trkpt><trkpt lat="42.279966800411025" lon="12.130428496995686"><ele>479.0</ele><time>2026-04-24T15:51:29Z</time></trkpt><trkpt lat="42.27987839640285" lon="12.130255756639754"><ele>479.0</ele><time>2026-04-24T15:51:30Z</time></trkpt><trkpt lat="42.27978908595771" lon="12.130064328684966"><ele>478.5</ele><time>2026-04-24T15:51:31Z</time></trkpt><trkpt lat="42.27971389449501" lon="12.129890672098794"><ele>478.0</ele><time>2026-04-24T15:51:32Z</time></trkpt><trkpt lat="42.279640402989514" lon="12.129715033593666"><ele>477.5</ele><time>2026-04-24T15:51:33Z</time></trkpt><trkpt lat="42.27957029741957" lon="12.12954551229512"><ele>477.0</ele><time>2026-04-24T15:51:34Z</time></trkpt><trkpt lat="42.27950423315705" lon="12.129379759237509"><ele>477.0</ele><time>2026-04-24T15:51:35Z</time></trkpt><trkpt lat="42.27944001295581" lon="12.129212723693483"><ele>477.0</ele><time>2026-04-24T15:51:36Z</time></trkpt><trkpt lat="42.27938356193253" lon="12.129059621125347"><ele>477.0</ele><time>2026-04-24T15:51:37Z</time></trkpt><trkpt lat="42.27932612030106" lon="12.128903831940905"><ele>477.0</ele><time>2026-04-24T15:51:38Z</time></trkpt><trkpt lat="42.27926783668468" lon="12.128747402661151"><ele>477.0</ele><time>2026-04-24T15:51:39Z</time></trkpt><trkpt lat="42.279209402027504" lon="12.128588826109851"><ele>477.0</ele><time>2026-04-24T15:51:40Z</time></trkpt><trkpt lat="42.27914367329107" lon="12.128438458545737"><ele>477.0</ele><time>2026-04-24T15:51:41Z</time></trkpt><trkpt lat="42.27908946409534" lon="12.128281163636768"><ele>477.0</ele><time>2026-04-24T15:51:42Z</time></trkpt><trkpt lat="42.279033570908474" lon="12.128119034285586"><ele>476.5</ele><time>2026-04-24T15:51:43Z</time></trkpt><trkpt lat="42.27897954317954" lon="12.127957932008124"><ele>476.0</ele><time>2026-04-24T15:51:44Z</time></trkpt><trkpt lat="42.278918138418184" lon="12.127793631787785"><ele>475.5</ele><time>2026-04-24T15:51:45Z</time></trkpt><trkpt lat="42.27885372127685" lon="12.12762689886267"><ele>475.0</ele><time>2026-04-24T15:51:46Z</time></trkpt><trkpt lat="42.27880056782046" lon="12.127446149583152"><ele>474.5</ele><time>2026-04-24T15:51:47Z</time></trkpt><trkpt lat="42.27873186796285" lon="12.127274336939802"><ele>474.0</ele><time>2026-04-24T15:51:48Z</time></trkpt><trkpt lat="42.27866927878003" lon="12.127107141602002"><ele>473.5</ele><time>2026-04-24T15:51:49Z</time></trkpt><trkpt lat="42.27861525304272" lon="12.126933139451715"><ele>473.0</ele><time>2026-04-24T15:51:50Z</time></trkpt><trkpt lat="42.278549191945274" lon="12.126763939011681"><ele>473.0</ele><time>2026-04-24T15:51:51Z</time></trkpt><trkpt lat="42.278483810564815" lon="12.12659177881894"><ele>473.0</ele><time>2026-04-24T15:51:52Z</time></trkpt><trkpt lat="42.2784183739085" lon="12.126414344704902"><ele>473.0</ele><time>2026-04-24T15:51:53Z</time></trkpt><trkpt lat="42.27835518284258" lon="12.126237628703612"><ele>473.0</ele><time>2026-04-24T15:51:54Z</time></trkpt><trkpt lat="42.278292762133105" lon="12.126062873781267"><ele>472.75</ele><time>2026-04-24T15:51:55Z</time></trkpt><trkpt lat="42.27823333883812" lon="12.125892597035405"><ele>472.5</ele><time>2026-04-24T15:51:56Z</time></trkpt><trkpt lat="42.27817066124939" lon="12.12573178619021"><ele>472.25</ele><time>2026-04-24T15:51:57Z</time></trkpt><trkpt lat="42.27811125868131" lon="12.12557662554258"><ele>472.0</ele><time>2026-04-24T15:51:58Z</time></trkpt><trkpt lat="42.27805628578269" lon="12.125415557076215"><ele>470.75</ele><time>2026-04-24T15:51:59Z</time></trkpt><trkpt lat="42.27800034713782" lon="12.125262194988803"><ele>469.5</ele><time>2026-04-24T15:52:00Z</time></trkpt><trkpt lat="42.277943286099415" lon="12.125108912131282"><ele>468.25</ele><time>2026-04-24T15:52:01Z</time></trkpt><trkpt lat="42.27788815171073" lon="12.124960936245872"><ele>467.0</ele><time>2026-04-24T15:52:02Z</time></trkpt><trkpt lat="42.27783734101705" lon="12.124810492907915"><ele>466.25</ele><time>2026-04-24T15:52:03Z</time></trkpt><trkpt lat="42.2777804183807" lon="12.124664717693932"><ele>465.5</ele><time>2026-04-24T15:52:04Z</time></trkpt><trkpt lat="42.277729579467476" lon="12.124519335480773"><ele>464.75</ele><time>2026-04-24T15:52:05Z</time></trkpt><trkpt lat="42.27768433471566" lon="12.124380906172053"><ele>464.0</ele><time>2026-04-24T15:52:06Z</time></trkpt><trkpt lat="42.27763849982633" lon="12.124257409859256"><ele>463.99999999999994</ele><time>2026-04-24T15:52:07Z</time></trkpt><trkpt lat="42.277596074588764" lon="12.124140005235459"><ele>464.0</ele><time>2026-04-24T15:52:08Z</time></trkpt><trkpt lat="42.27755945129441" lon="12.1240237355577"><ele>464.0</ele><time>2026-04-24T15:52:09Z</time></trkpt><trkpt lat="42.27752077021686" lon="12.123918506231966"><ele>464.0</ele><time>2026-04-24T15:52:10Z</time></trkpt><trkpt lat="42.27746403510629" lon="12.123823256353473"><ele>463.99999999999994</ele><time>2026-04-24T15:52:11Z</time></trkpt><trkpt lat="42.277413815028915" lon="12.123744351712075"><ele>464.0</ele><time>2026-04-24T15:52:12Z</time></trkpt><trkpt lat="42.27736393254109" lon="12.12367337463712"><ele>463.3333333333333</ele><time>2026-04-24T15:52:13Z</time></trkpt><trkpt lat="42.27730837566856" lon="12.123612687089292"><ele>462.66666666666663</ele><time>2026-04-24T15:52:14Z</time></trkpt><trkpt lat="42.27725414310052" lon="12.123560960336789"><ele>462.0</ele><time>2026-04-24T15:52:15Z</time></trkpt><trkpt lat="42.2771670461809" lon="12.123473165782913"><ele>461.33333333333337</ele><time>2026-04-24T15:52:17Z</time></trkpt><trkpt lat="42.27711170183074" lon="12.123408960318464"><ele>460.6666666666667</ele><time>2026-04-24T15:52:19Z</time></trkpt><trkpt lat="42.27704750317572" lon="12.123352558811446"><ele>460.0</ele><time>2026-04-24T15:52:21Z</time></trkpt><trkpt lat="42.276966065313516" lon="12.12329144237418"><ele>459.6666666666667</ele><time>2026-04-24T15:52:23Z</time></trkpt><trkpt lat="42.276900935875524" lon="12.123228496413889"><ele>459.33333333333337</ele><time>2026-04-24T15:52:25Z</time></trkpt><trkpt lat="42.27684518396258" lon="12.123171300143497"><ele>459.0</ele><time>2026-04-24T15:52:27Z</time></trkpt><trkpt lat="42.2767609207848" lon="12.12307624551761"><ele>458.66666666666663</ele><time>2026-04-24T15:52:29Z</time></trkpt><trkpt lat="42.27672345914332" lon="12.122999169217968"><ele>458.3333333333333</ele><time>2026-04-24T15:52:30Z</time></trkpt><trkpt lat="42.276698288946" lon="12.122886954105196"><ele>458.0</ele><time>2026-04-24T15:52:31Z</time></trkpt><trkpt lat="42.276680385592414" lon="12.12275118919508"><ele>458.0</ele><time>2026-04-24T15:52:32Z</time></trkpt><trkpt lat="42.276675803754785" lon="12.122598406544528"><ele>457.99999999999994</ele><time>2026-04-24T15:52:33Z</time></trkpt><trkpt lat="42.27668253511762" lon="12.122468032563305"><ele>457.99999999999994</ele><time>2026-04-24T15:52:34Z</time></trkpt><trkpt lat="42.276682536862744" lon="12.122339279855606"><ele>458.0</ele><time>2026-04-24T15:52:35Z</time></trkpt><trkpt lat="42.276658697139055" lon="12.122208837971266"><ele>458.0</ele><time>2026-04-24T15:52:36Z</time></trkpt><trkpt lat="42.276624847750405" lon="12.122101693787439"><ele>457.5</ele><time>2026-04-24T15:52:37Z</time></trkpt><trkpt lat="42.27655877273933" lon="12.121993524429419"><ele>457.0</ele><time>2026-04-24T15:52:38Z</time></trkpt><trkpt lat="42.27647646815694" lon="12.121890022531398"><ele>456.5</ele><time>2026-04-24T15:52:39Z</time></trkpt><trkpt lat="42.27637648145342" lon="12.121774098379255"><ele>456.0</ele><time>2026-04-24T15:52:40Z</time></trkpt><trkpt lat="42.27626176577733" lon="12.121656951345487"><ele>456.0</ele><time>2026-04-24T15:52:41Z</time></trkpt><trkpt lat="42.276179627601266" lon="12.121567260613041"><ele>456.0</ele><time>2026-04-24T15:52:42Z</time></trkpt><trkpt lat="42.27610709037875" lon="12.121478049884105"><ele>456.0</ele><time>2026-04-24T15:52:43Z</time></trkpt><trkpt lat="42.2760395792346" lon="12.121401580632979"><ele>456.0</ele><time>2026-04-24T15:52:44Z</time></trkpt><trkpt lat="42.275966111475164" lon="12.121318244924314"><ele>456.0</ele><time>2026-04-24T15:52:45Z</time></trkpt><trkpt lat="42.275887020174274" lon="12.121232080108163"><ele>455.75</ele><time>2026-04-24T15:52:46Z</time></trkpt><trkpt lat="42.275806649793886" lon="12.121136276396443"><ele>455.5</ele><time>2026-04-24T15:52:47Z</time></trkpt><trkpt lat="42.27570753447281" lon="12.12102074945968"><ele>455.25</ele><time>2026-04-24T15:52:48Z</time></trkpt><trkpt lat="42.27559344526572" lon="12.120888030905862"><ele>455.0</ele><time>2026-04-24T15:52:49Z</time></trkpt><trkpt lat="42.27546703788722" lon="12.120748333281467"><ele>455.0</ele><time>2026-04-24T15:52:50Z</time></trkpt><trkpt lat="42.275346544194115" lon="12.120610183145123"><ele>455.0</ele><time>2026-04-24T15:52:51Z</time></trkpt><trkpt lat="42.2752352811319" lon="12.120485736401385"><ele>455.0</ele><time>2026-04-24T15:52:52Z</time></trkpt><trkpt lat="42.27512437524306" lon="12.120347121592635"><ele>455.0</ele><time>2026-04-24T15:52:53Z</time></trkpt><trkpt lat="42.27501303655123" lon="12.120216302154875"><ele>455.0</ele><time>2026-04-24T15:52:54Z</time></trkpt><trkpt lat="42.27490193101775" lon="12.120090981601809"><ele>455.0</ele><time>2026-04-24T15:52:55Z</time></trkpt><trkpt lat="42.274789611253645" lon="12.119967190910039"><ele>455.0</ele><time>2026-04-24T15:52:56Z</time></trkpt><trkpt lat="42.274680081392596" lon="12.119842611873676"><ele>455.25</ele><time>2026-04-24T15:52:57Z</time></trkpt><trkpt lat="42.27456802711188" lon="12.119717970765759"><ele>455.5</ele><time>2026-04-24T15:52:58Z</time></trkpt><trkpt lat="42.27447046974602" lon="12.119573056389665"><ele>455.75</ele><time>2026-04-24T15:52:59Z</time></trkpt><trkpt lat="42.27436070584134" lon="12.119446261380007"><ele>456.0</ele><time>2026-04-24T15:53:00Z</time></trkpt><trkpt lat="42.274243457204825" lon="12.119324962802882"><ele>456.0</ele><time>2026-04-24T15:53:01Z</time></trkpt><trkpt lat="42.27413419001174" lon="12.119201285832839"><ele>456.0</ele><time>2026-04-24T15:53:02Z</time></trkpt><trkpt lat="42.27402476590198" lon="12.11907559150791"><ele>456.0</ele><time>2026-04-24T15:53:03Z</time></trkpt><trkpt lat="42.27391603805025" lon="12.118953288612987"><ele>456.0</ele><time>2026-04-24T15:53:04Z</time></trkpt><trkpt lat="42.2738124214501" lon="12.118835980197145"><ele>456.5</ele><time>2026-04-24T15:53:05Z</time></trkpt><trkpt lat="42.273708598597956" lon="12.118717557269086"><ele>457.0</ele><time>2026-04-24T15:53:06Z</time></trkpt><trkpt lat="42.273604539321504" lon="12.118602725762184"><ele>457.5</ele><time>2026-04-24T15:53:07Z</time></trkpt><trkpt lat="42.27350619434351" lon="12.11847391784099"><ele>458.0</ele><time>2026-04-24T15:53:08Z</time></trkpt><trkpt lat="42.273403562734195" lon="12.11836091676718"><ele>458.0</ele><time>2026-04-24T15:53:09Z</time></trkpt><trkpt lat="42.27330231441531" lon="12.118249196233533"><ele>458.0</ele><time>2026-04-24T15:53:10Z</time></trkpt><trkpt lat="42.27319584583951" lon="12.118134575133341"><ele>458.0</ele><time>2026-04-24T15:53:11Z</time></trkpt><trkpt lat="42.27308481878655" lon="12.117998848825126"><ele>458.0</ele><time>2026-04-24T15:53:12Z</time></trkpt><trkpt lat="42.272973104474715" lon="12.11786875850183"><ele>458.75</ele><time>2026-04-24T15:53:13Z</time></trkpt><trkpt lat="42.27285887194368" lon="12.117738452013501"><ele>459.5</ele><time>2026-04-24T15:53:14Z</time></trkpt><trkpt lat="42.272745093929224" lon="12.117608652718255"><ele>460.25</ele><time>2026-04-24T15:53:15Z</time></trkpt><trkpt lat="42.27263341941196" lon="12.117483451443805"><ele>461.0</ele><time>2026-04-24T15:53:16Z</time></trkpt><trkpt lat="42.272531064056714" lon="12.117365740216822"><ele>461.0</ele><time>2026-04-24T15:53:17Z</time></trkpt><trkpt lat="42.27242849819284" lon="12.11724951807139"><ele>461.0</ele><time>2026-04-24T15:53:18Z</time></trkpt><trkpt lat="42.27232830542799" lon="12.117137575981271"><ele>461.0</ele><time>2026-04-24T15:53:19Z</time></trkpt><trkpt lat="42.27222546322928" lon="12.117021488163426"><ele>461.0</ele><time>2026-04-24T15:53:20Z</time></trkpt><trkpt lat="42.27212209344445" lon="12.116906107876279"><ele>461.25</ele><time>2026-04-24T15:53:21Z</time></trkpt><trkpt lat="42.27202408699142" lon="12.1167774736655"><ele>461.5</ele><time>2026-04-24T15:53:22Z</time></trkpt><trkpt lat="42.27192035016648" lon="12.116657908656496"><ele>461.75</ele><time>2026-04-24T15:53:23Z</time></trkpt><trkpt lat="42.2718141412975" lon="12.116542338767053"><ele>462.0</ele><time>2026-04-24T15:53:24Z</time></trkpt><trkpt lat="42.2717094277082" lon="12.116424711653824"><ele>462.0</ele><time>2026-04-24T15:53:25Z</time></trkpt><trkpt lat="42.271601442586" lon="12.116303062483471"><ele>462.0</ele><time>2026-04-24T15:53:26Z</time></trkpt><trkpt lat="42.27149237463171" lon="12.116181377323292"><ele>462.0</ele><time>2026-04-24T15:53:27Z</time></trkpt><trkpt lat="42.271378394786" lon="12.11605160013336"><ele>462.0</ele><time>2026-04-24T15:53:28Z</time></trkpt><trkpt lat="42.27126666477991" lon="12.115925204797584"><ele>463.0</ele><time>2026-04-24T15:53:29Z</time></trkpt><trkpt lat="42.27115605101388" lon="12.11578428383337"><ele>464.0</ele><time>2026-04-24T15:53:30Z</time></trkpt><trkpt lat="42.2710337321797" lon="12.115646859800654"><ele>465.0</ele><time>2026-04-24T15:53:31Z</time></trkpt><trkpt lat="42.27091085105634" lon="12.1155091621032"><ele>465.0</ele><time>2026-04-24T15:53:32Z</time></trkpt><trkpt lat="42.27077461635558" lon="12.11535694892411"><ele>465.0</ele><time>2026-04-24T15:53:33Z</time></trkpt><trkpt lat="42.27064653663376" lon="12.1152094074284"><ele>465.0</ele><time>2026-04-24T15:53:34Z</time></trkpt><trkpt lat="42.27052722564791" lon="12.115071785923165"><ele>465.25</ele><time>2026-04-24T15:53:35Z</time></trkpt><trkpt lat="42.27041481649064" lon="12.114942675885347"><ele>465.5</ele><time>2026-04-24T15:53:36Z</time></trkpt><trkpt lat="42.27030498313086" lon="12.114813301132438"><ele>465.75</ele><time>2026-04-24T15:53:37Z</time></trkpt><trkpt lat="42.270193621958434" lon="12.114694608190753"><ele>466.0</ele><time>2026-04-24T15:53:38Z</time></trkpt><trkpt lat="42.27008644321606" lon="12.114569339284763"><ele>466.5</ele><time>2026-04-24T15:53:39Z</time></trkpt><trkpt lat="42.26997947039702" lon="12.114451331558126"><ele>467.0</ele><time>2026-04-24T15:53:40Z</time></trkpt><trkpt lat="42.26988118179236" lon="12.114312018193088"><ele>467.5</ele><time>2026-04-24T15:53:41Z</time></trkpt><trkpt lat="42.269763362785305" lon="12.114205315679389"><ele>468.0</ele><time>2026-04-24T15:53:42Z</time></trkpt><trkpt lat="42.26965487045181" lon="12.11407484531369"><ele>469.25</ele><time>2026-04-24T15:53:43Z</time></trkpt><trkpt lat="42.269546299728084" lon="12.113953271252724"><ele>470.5</ele><time>2026-04-24T15:53:44Z</time></trkpt><trkpt lat="42.26943807312055" lon="12.113826845079874"><ele>471.75</ele><time>2026-04-24T15:53:45Z</time></trkpt><trkpt lat="42.26933855490304" lon="12.113684093829049"><ele>473.0</ele><time>2026-04-24T15:53:46Z</time></trkpt><trkpt lat="42.269236184626116" lon="12.113567701073901"><ele>473.0</ele><time>2026-04-24T15:53:47Z</time></trkpt><trkpt lat="42.26913325368984" lon="12.113450371284781"><ele>473.0</ele><time>2026-04-24T15:53:48Z</time></trkpt><trkpt lat="42.26901565838306" lon="12.113342752085973"><ele>473.0</ele><time>2026-04-24T15:53:49Z</time></trkpt><trkpt lat="42.268909447350836" lon="12.113202441633582"><ele>473.0</ele><time>2026-04-24T15:53:50Z</time></trkpt><trkpt lat="42.26879662716337" lon="12.113071330462043"><ele>474.0</ele><time>2026-04-24T15:53:51Z</time></trkpt><trkpt lat="42.26868805029848" lon="12.112943765924813"><ele>475.0</ele><time>2026-04-24T15:53:52Z</time></trkpt><trkpt lat="42.26857933579228" lon="12.11281955934271"><ele>476.0</ele><time>2026-04-24T15:53:53Z</time></trkpt><trkpt lat="42.26847236465832" lon="12.112697170608596"><ele>477.0</ele><time>2026-04-24T15:53:54Z</time></trkpt><trkpt lat="42.26837185556721" lon="12.112577235842902"><ele>477.0</ele><time>2026-04-24T15:53:55Z</time></trkpt><trkpt lat="42.26826905654754" lon="12.11245933203586"><ele>477.0</ele><time>2026-04-24T15:53:56Z</time></trkpt><trkpt lat="42.268167029983985" lon="12.112342859873197"><ele>477.0</ele><time>2026-04-24T15:53:57Z</time></trkpt><trkpt lat="42.26805789842243" lon="12.112215175079811"><ele>477.0</ele><time>2026-04-24T15:53:58Z</time></trkpt><trkpt lat="42.267951154870524" lon="12.112096253908062"><ele>479.0</ele><time>2026-04-24T15:53:59Z</time></trkpt><trkpt lat="42.26785443186089" lon="12.111987979853222"><ele>481.0</ele><time>2026-04-24T15:54:00Z</time></trkpt><trkpt lat="42.26776096840627" lon="12.111880039277002"><ele>483.0</ele><time>2026-04-24T15:54:01Z</time></trkpt><trkpt lat="42.26766587362807" lon="12.111775434999965"><ele>485.0</ele><time>2026-04-24T15:54:02Z</time></trkpt><trkpt lat="42.26757193734819" lon="12.111675296032402"><ele>485.0</ele><time>2026-04-24T15:54:03Z</time></trkpt><trkpt lat="42.26748251604734" lon="12.111553323362514"><ele>485.0</ele><time>2026-04-24T15:54:04Z</time></trkpt><trkpt lat="42.267382137444294" lon="12.111438303049798"><ele>485.0</ele><time>2026-04-24T15:54:05Z</time></trkpt><trkpt lat="42.26728368684209" lon="12.111325208908498"><ele>485.0</ele><time>2026-04-24T15:54:06Z</time></trkpt><trkpt lat="42.26718313435577" lon="12.111209732201644"><ele>485.0</ele><time>2026-04-24T15:54:07Z</time></trkpt><trkpt lat="42.267078695531154" lon="12.11109022688864"><ele>485.0</ele><time>2026-04-24T15:54:08Z</time></trkpt><trkpt lat="42.26697306208504" lon="12.110969354774173"><ele>485.0</ele><time>2026-04-24T15:54:09Z</time></trkpt><trkpt lat="42.266868157129565" lon="12.11084931621871"><ele>485.0</ele><time>2026-04-24T15:54:10Z</time></trkpt><trkpt lat="42.266747688818306" lon="12.110739927729757"><ele>485.3333333333333</ele><time>2026-04-24T15:54:11Z</time></trkpt><trkpt lat="42.266633631433315" lon="12.110607822726145"><ele>485.66666666666663</ele><time>2026-04-24T15:54:12Z</time></trkpt><trkpt lat="42.26650909907663" lon="12.110454402621077"><ele>486.0</ele><time>2026-04-24T15:54:13Z</time></trkpt><trkpt lat="42.266387794173305" lon="12.11031258918865"><ele>486.66666666666663</ele><time>2026-04-24T15:54:14Z</time></trkpt><trkpt lat="42.26626464124519" lon="12.110173326714007"><ele>487.3333333333333</ele><time>2026-04-24T15:54:15Z</time></trkpt><trkpt lat="42.2661350408341" lon="12.110034758092144"><ele>488.0</ele><time>2026-04-24T15:54:16Z</time></trkpt><trkpt lat="42.26601781983928" lon="12.109898598066003"><ele>488.25</ele><time>2026-04-24T15:54:17Z</time></trkpt><trkpt lat="42.26590564103265" lon="12.109768658349319"><ele>488.5</ele><time>2026-04-24T15:54:18Z</time></trkpt><trkpt lat="42.26579879752633" lon="12.109647543615637"><ele>488.75</ele><time>2026-04-24T15:54:19Z</time></trkpt><trkpt lat="42.265700608859326" lon="12.10950326986507"><ele>489.0</ele><time>2026-04-24T15:54:20Z</time></trkpt><trkpt lat="42.265582476273174" lon="12.109392404442781"><ele>490.5</ele><time>2026-04-24T15:54:21Z</time></trkpt><trkpt lat="42.26546810436718" lon="12.10925428748067"><ele>492.0</ele><time>2026-04-24T15:54:22Z</time></trkpt><trkpt lat="42.265361831349274" lon="12.109126843804479"><ele>493.5</ele><time>2026-04-24T15:54:23Z</time></trkpt><trkpt lat="42.265261448898265" lon="12.10899974822575"><ele>495.0</ele><time>2026-04-24T15:54:24Z</time></trkpt><trkpt lat="42.26516020199665" lon="12.108882587461382"><ele>495.0</ele><time>2026-04-24T15:54:25Z</time></trkpt><trkpt lat="42.26505661973578" lon="12.108761795153427"><ele>495.0</ele><time>2026-04-24T15:54:26Z</time></trkpt><trkpt lat="42.2649601052954" lon="12.108635678110995"><ele>495.0</ele><time>2026-04-24T15:54:27Z</time></trkpt><trkpt lat="42.26485884032853" lon="12.10851992166591"><ele>495.0</ele><time>2026-04-24T15:54:28Z</time></trkpt><trkpt lat="42.264753220673775" lon="12.108417611165379"><ele>496.5</ele><time>2026-04-24T15:54:29Z</time></trkpt><trkpt lat="42.26466574045162" lon="12.108259020429303"><ele>498.0</ele><time>2026-04-24T15:54:30Z</time></trkpt><trkpt lat="42.264559313065575" lon="12.108123051698616"><ele>499.5</ele><time>2026-04-24T15:54:31Z</time></trkpt><trkpt lat="42.264484306838206" lon="12.108027310576238"><ele>501.0</ele><time>2026-04-24T15:54:32Z</time></trkpt><trkpt lat="42.26439846678723" lon="12.10793119410429"><ele>501.0</ele><time>2026-04-24T15:54:33Z</time></trkpt><trkpt lat="42.264290870086356" lon="12.107807416529122"><ele>501.0</ele><time>2026-04-24T15:54:34Z</time></trkpt><trkpt lat="42.26419720887103" lon="12.107696795250197"><ele>501.0</ele><time>2026-04-24T15:54:35Z</time></trkpt><trkpt lat="42.26407848151568" lon="12.107577911179105"><ele>501.0</ele><time>2026-04-24T15:54:36Z</time></trkpt><trkpt lat="42.2639823572316" lon="12.10746439570214"><ele>500.75</ele><time>2026-04-24T15:54:37Z</time></trkpt><trkpt lat="42.263884917617744" lon="12.107356609462625"><ele>500.5</ele><time>2026-04-24T15:54:38Z</time></trkpt><trkpt lat="42.26379042785047" lon="12.1072510755749"><ele>500.25</ele><time>2026-04-24T15:54:39Z</time></trkpt><trkpt lat="42.26368864728979" lon="12.10714173821415"><ele>500.0</ele><time>2026-04-24T15:54:40Z</time></trkpt><trkpt lat="42.263593979935905" lon="12.107035592769124"><ele>500.0</ele><time>2026-04-24T15:54:41Z</time></trkpt><trkpt lat="42.26349976762456" lon="12.106927709153238"><ele>500.0</ele><time>2026-04-24T15:54:42Z</time></trkpt><trkpt lat="42.2633874829967" lon="12.106808884605652"><ele>500.0</ele><time>2026-04-24T15:54:43Z</time></trkpt><trkpt lat="42.26328010287362" lon="12.106692619418691"><ele>500.0</ele><time>2026-04-24T15:54:44Z</time></trkpt><trkpt lat="42.263166360483105" lon="12.106575531131089"><ele>501.0</ele><time>2026-04-24T15:54:45Z</time></trkpt><trkpt lat="42.263065886292395" lon="12.106455385860166"><ele>502.0</ele><time>2026-04-24T15:54:46Z</time></trkpt><trkpt lat="42.262952578217934" lon="12.106336864482664"><ele>503.0</ele><time>2026-04-24T15:54:47Z</time></trkpt><trkpt lat="42.26283843739778" lon="12.106218441331215"><ele>504.0</ele><time>2026-04-24T15:54:48Z</time></trkpt><trkpt lat="42.26272355759851" lon="12.106100390841382"><ele>504.0</ele><time>2026-04-24T15:54:49Z</time></trkpt><trkpt lat="42.26262240103843" lon="12.105979886066653"><ele>504.0</ele><time>2026-04-24T15:54:50Z</time></trkpt><trkpt lat="42.26253623043272" lon="12.105883510850925"><ele>504.0</ele><time>2026-04-24T15:54:51Z</time></trkpt><trkpt lat="42.262449253231004" lon="12.105791114632417"><ele>504.0</ele><time>2026-04-24T15:54:52Z</time></trkpt><trkpt lat="42.26236210861735" lon="12.105690861646817"><ele>503.25</ele><time>2026-04-24T15:54:53Z</time></trkpt><trkpt lat="42.26227375468161" lon="12.105548411732858"><ele>502.5</ele><time>2026-04-24T15:54:54Z</time></trkpt><trkpt lat="42.26216490464428" lon="12.105431898077292"><ele>501.75</ele><time>2026-04-24T15:54:55Z</time></trkpt><trkpt lat="42.262057431930266" lon="12.105314549011865"><ele>501.0</ele><time>2026-04-24T15:54:56Z</time></trkpt><trkpt lat="42.261951884010614" lon="12.105191424145888"><ele>501.0</ele><time>2026-04-24T15:54:57Z</time></trkpt><trkpt lat="42.261850593123484" lon="12.105075913921805"><ele>501.0</ele><time>2026-04-24T15:54:58Z</time></trkpt><trkpt lat="42.26174532783734" lon="12.104954394063869"><ele>501.0</ele><time>2026-04-24T15:54:59Z</time></trkpt><trkpt lat="42.261629711463655" lon="12.10482086885084"><ele>501.0</ele><time>2026-04-24T15:55:00Z</time></trkpt><trkpt lat="42.26153124862067" lon="12.104702491231835"><ele>500.0</ele><time>2026-04-24T15:55:01Z</time></trkpt><trkpt lat="42.261434756648974" lon="12.104580502453485"><ele>499.0</ele><time>2026-04-24T15:55:02Z</time></trkpt><trkpt lat="42.2613293961291" lon="12.104458581579694"><ele>498.0</ele><time>2026-04-24T15:55:03Z</time></trkpt><trkpt lat="42.261216773339505" lon="12.104367648816819"><ele>497.0</ele><time>2026-04-24T15:55:04Z</time></trkpt><trkpt lat="42.261131781600575" lon="12.104255747779415"><ele>497.0</ele><time>2026-04-24T15:55:05Z</time></trkpt><trkpt lat="42.261014141837144" lon="12.10413642536007"><ele>497.0</ele><time>2026-04-24T15:55:06Z</time></trkpt><trkpt lat="42.260920576379746" lon="12.104029134413192"><ele>497.0</ele><time>2026-04-24T15:55:07Z</time></trkpt><trkpt lat="42.26083280919038" lon="12.1039277322472"><ele>497.0</ele><time>2026-04-24T15:55:08Z</time></trkpt><trkpt lat="42.26072113323844" lon="12.103798103430895"><ele>497.0</ele><time>2026-04-24T15:55:09Z</time></trkpt><trkpt lat="42.260631122948624" lon="12.103686689128025"><ele>497.0</ele><time>2026-04-24T15:55:10Z</time></trkpt><trkpt lat="42.26052776357323" lon="12.10356500087378"><ele>497.0</ele><time>2026-04-24T15:55:11Z</time></trkpt><trkpt lat="42.260427824128726" lon="12.103451027073914"><ele>497.0</ele><time>2026-04-24T15:55:12Z</time></trkpt><trkpt lat="42.26033135893028" lon="12.103344743805433"><ele>496.5</ele><time>2026-04-24T15:55:13Z</time></trkpt><trkpt lat="42.260215620129884" lon="12.103217978763743"><ele>496.0</ele><time>2026-04-24T15:55:14Z</time></trkpt><trkpt lat="42.260104883230206" lon="12.103102067210303"><ele>495.5</ele><time>2026-04-24T15:55:15Z</time></trkpt><trkpt lat="42.2600069537671" lon="12.10297959581407"><ele>495.0</ele><time>2026-04-24T15:55:16Z</time></trkpt><trkpt lat="42.25990562520439" lon="12.102867068913232"><ele>495.0</ele><time>2026-04-24T15:55:17Z</time></trkpt><trkpt lat="42.25979211979712" lon="12.102745089758699"><ele>495.0</ele><time>2026-04-24T15:55:18Z</time></trkpt><trkpt lat="42.2597051608547" lon="12.102639515668821"><ele>495.0</ele><time>2026-04-24T15:55:19Z</time></trkpt><trkpt lat="42.25961085204042" lon="12.102536460408304"><ele>495.0</ele><time>2026-04-24T15:55:20Z</time></trkpt><trkpt lat="42.25952502022874" lon="12.102439423820302"><ele>494.5</ele><time>2026-04-24T15:55:21Z</time></trkpt><trkpt lat="42.25943077747335" lon="12.102326862115868"><ele>494.0</ele><time>2026-04-24T15:55:22Z</time></trkpt><trkpt lat="42.2593382097223" lon="12.102222950454875"><ele>493.5</ele><time>2026-04-24T15:55:23Z</time></trkpt><trkpt lat="42.25924681358667" lon="12.10211691623443"><ele>493.0</ele><time>2026-04-24T15:55:24Z</time></trkpt><trkpt lat="42.25915863876364" lon="12.102013080425985"><ele>493.0</ele><time>2026-04-24T15:55:25Z</time></trkpt><trkpt lat="42.25906643051605" lon="12.101912699814669"><ele>493.0</ele><time>2026-04-24T15:55:26Z</time></trkpt><trkpt lat="42.25897378721255" lon="12.101811754431221"><ele>493.0</ele><time>2026-04-24T15:55:27Z</time></trkpt><trkpt lat="42.25888528839278" lon="12.101703450416485"><ele>493.0</ele><time>2026-04-24T15:55:28Z</time></trkpt><trkpt lat="42.2588028658808" lon="12.10160233020246"><ele>493.0</ele><time>2026-04-24T15:55:29Z</time></trkpt><trkpt lat="42.25872018945814" lon="12.101506906659969"><ele>492.99999999999994</ele><time>2026-04-24T15:55:30Z</time></trkpt><trkpt lat="42.258643917039784" lon="12.10141639950178"><ele>492.99999999999994</ele><time>2026-04-24T15:55:31Z</time></trkpt><trkpt lat="42.25856259442961" lon="12.101317761604607"><ele>493.0</ele><time>2026-04-24T15:55:32Z</time></trkpt><trkpt lat="42.25848510613132" lon="12.10123565135205"><ele>493.0</ele><time>2026-04-24T15:55:33Z</time></trkpt><trkpt lat="42.2584123277878" lon="12.101143889444577"><ele>493.00000000000006</ele><time>2026-04-24T15:55:34Z</time></trkpt><trkpt lat="42.25834596646099" lon="12.10107010755946"><ele>493.0</ele><time>2026-04-24T15:55:35Z</time></trkpt><trkpt lat="42.25828226164178" lon="12.100981098325802"><ele>493.0</ele><time>2026-04-24T15:55:36Z</time></trkpt><trkpt lat="42.25821966717494" lon="12.100909898044844"><ele>493.0</ele><time>2026-04-24T15:55:37Z</time></trkpt><trkpt lat="42.258144775644865" lon="12.100852133544445"><ele>493.00000000000006</ele><time>2026-04-24T15:55:38Z</time></trkpt><trkpt lat="42.25805878896477" lon="12.100797497650472"><ele>493.0</ele><time>2026-04-24T15:55:39Z</time></trkpt><trkpt lat="42.25796815461762" lon="12.100760396069502"><ele>493.59999999999997</ele><time>2026-04-24T15:55:40Z</time></trkpt><trkpt lat="42.25787387770586" lon="12.100708623850554"><ele>494.19999999999993</ele><time>2026-04-24T15:55:41Z</time></trkpt><trkpt lat="42.25776608401115" lon="12.10071196241804"><ele>494.8</ele><time>2026-04-24T15:55:42Z</time></trkpt><trkpt lat="42.257652073598706" lon="12.100735692020645"><ele>495.4</ele><time>2026-04-24T15:55:43Z</time></trkpt><trkpt lat="42.2575331065554" lon="12.100781645825755"><ele>496.0</ele><time>2026-04-24T15:55:44Z</time></trkpt><trkpt lat="42.25741051620548" lon="12.10084241908285"><ele>492.5</ele><time>2026-04-24T15:55:45Z</time></trkpt><trkpt lat="42.257280045541755" lon="12.100916405724341"><ele>489.0</ele><time>2026-04-24T15:55:46Z</time></trkpt><trkpt lat="42.257143665418305" lon="12.100991654431299"><ele>485.5</ele><time>2026-04-24T15:55:47Z</time></trkpt><trkpt lat="42.25701222727179" lon="12.101040699372275"><ele>482.0</ele><time>2026-04-24T15:55:48Z</time></trkpt><trkpt lat="42.25688446953141" lon="12.101094933764124"><ele>482.0</ele><time>2026-04-24T15:55:49Z</time></trkpt><trkpt lat="42.25676530100423" lon="12.10115094818255"><ele>482.00000000000006</ele><time>2026-04-24T15:55:50Z</time></trkpt><trkpt lat="42.256667514631054" lon="12.101192923161504"><ele>482.00000000000006</ele><time>2026-04-24T15:55:51Z</time></trkpt><trkpt lat="42.256567575985656" lon="12.101227361608297"><ele>482.0</ele><time>2026-04-24T15:55:52Z</time></trkpt><trkpt lat="42.25647514537833" lon="12.101252679964583"><ele>482.0</ele><time>2026-04-24T15:55:53Z</time></trkpt><trkpt lat="42.25638914532333" lon="12.101293865689643"><ele>480.20000000000005</ele><time>2026-04-24T15:55:54Z</time></trkpt><trkpt lat="42.25629246046589" lon="12.10133575605864"><ele>478.40000000000003</ele><time>2026-04-24T15:55:55Z</time></trkpt><trkpt lat="42.25619090605036" lon="12.101370797343328"><ele>476.59999999999997</ele><time>2026-04-24T15:55:56Z</time></trkpt><trkpt lat="42.25607853847294" lon="12.101382121333792"><ele>474.79999999999995</ele><time>2026-04-24T15:55:57Z</time></trkpt><trkpt lat="42.255977688045135" lon="12.1013624661982"><ele>473.0</ele><time>2026-04-24T15:55:58Z</time></trkpt><trkpt lat="42.25587027278643" lon="12.10133001089503"><ele>473.0</ele><time>2026-04-24T15:55:59Z</time></trkpt><trkpt lat="42.25576434927957" lon="12.101302364255357"><ele>472.99999999999994</ele><time>2026-04-24T15:56:00Z</time></trkpt><trkpt lat="42.25566090315971" lon="12.101273576053922"><ele>472.99999999999994</ele><time>2026-04-24T15:56:01Z</time></trkpt><trkpt lat="42.2555569006914" lon="12.101257521270743"><ele>473.0</ele><time>2026-04-24T15:56:02Z</time></trkpt><trkpt lat="42.25546737421122" lon="12.101253915478733"><ele>473.0</ele><time>2026-04-24T15:56:03Z</time></trkpt><trkpt lat="42.255370843860575" lon="12.101250872977895"><ele>471.2</ele><time>2026-04-24T15:56:04Z</time></trkpt><trkpt lat="42.255268319765094" lon="12.101258460496688"><ele>469.4</ele><time>2026-04-24T15:56:05Z</time></trkpt><trkpt lat="42.25516463227199" lon="12.101261725404536"><ele>467.59999999999997</ele><time>2026-04-24T15:56:06Z</time></trkpt><trkpt lat="42.25507747346885" lon="12.101261885193923"><ele>465.79999999999995</ele><time>2026-04-24T15:56:07Z</time></trkpt><trkpt lat="42.25499111717663" lon="12.101269425859947"><ele>464.0</ele><time>2026-04-24T15:56:08Z</time></trkpt><trkpt lat="42.25490979136288" lon="12.101283604577054"><ele>463.99999999999994</ele><time>2026-04-24T15:56:09Z</time></trkpt><trkpt lat="42.254823047466886" lon="12.101277276796136"><ele>464.0</ele><time>2026-04-24T15:56:10Z</time></trkpt><trkpt lat="42.2547502268843" lon="12.10124862095709"><ele>464.0</ele><time>2026-04-24T15:56:11Z</time></trkpt><trkpt lat="42.254678239518675" lon="12.101182912657894"><ele>464.0</ele><time>2026-04-24T15:56:12Z</time></trkpt><trkpt lat="42.254610564562086" lon="12.101097117856153"><ele>463.99999999999994</ele><time>2026-04-24T15:56:13Z</time></trkpt><trkpt lat="42.254557803361685" lon="12.101004533876191"><ele>464.0</ele><time>2026-04-24T15:56:14Z</time></trkpt><trkpt lat="42.25450823539613" lon="12.100923874821452"><ele>463.79999999999995</ele><time>2026-04-24T15:56:15Z</time></trkpt><trkpt lat="42.254443314829075" lon="12.100847718021246"><ele>463.59999999999997</ele><time>2026-04-24T15:56:16Z</time></trkpt><trkpt lat="42.25436216034229" lon="12.100788891472684"><ele>463.4</ele><time>2026-04-24T15:56:17Z</time></trkpt><trkpt lat="42.25427476730724" lon="12.100775829568162"><ele>463.2</ele><time>2026-04-24T15:56:18Z</time></trkpt><trkpt lat="42.25416073300687" lon="12.100781825601267"><ele>463.0</ele><time>2026-04-24T15:56:19Z</time></trkpt><trkpt lat="42.25405069899073" lon="12.100765036554755"><ele>463.0</ele><time>2026-04-24T15:56:20Z</time></trkpt><trkpt lat="42.25396378635561" lon="12.100766765142438"><ele>462.99999999999994</ele><time>2026-04-24T15:56:21Z</time></trkpt><trkpt lat="42.25387745785751" lon="12.100751146129937"><ele>462.99999999999994</ele><time>2026-04-24T15:56:22Z</time></trkpt><trkpt lat="42.253802495647996" lon="12.100723488752397"><ele>463.0</ele><time>2026-04-24T15:56:23Z</time></trkpt><trkpt lat="42.25371832631322" lon="12.100655196578552"><ele>463.0</ele><time>2026-04-24T15:56:24Z</time></trkpt><trkpt lat="42.25363966099764" lon="12.100570336168033"><ele>461.0</ele><time>2026-04-24T15:56:25Z</time></trkpt><trkpt lat="42.2535695027415" lon="12.100469803165806"><ele>458.99999999999994</ele><time>2026-04-24T15:56:26Z</time></trkpt><trkpt lat="42.253505004502514" lon="12.100369083075734"><ele>456.99999999999994</ele><time>2026-04-24T15:56:27Z</time></trkpt><trkpt lat="42.253449250680426" lon="12.100272765561863"><ele>455.0</ele><time>2026-04-24T15:56:28Z</time></trkpt><trkpt lat="42.253382953745316" lon="12.100171607922976"><ele>453.0</ele><time>2026-04-24T15:56:29Z</time></trkpt><trkpt lat="42.25333544931968" lon="12.100080351084625"><ele>453.0</ele><time>2026-04-24T15:56:30Z</time></trkpt><trkpt lat="42.253288245981906" lon="12.099989615663366"><ele>453.0</ele><time>2026-04-24T15:56:31Z</time></trkpt><trkpt lat="42.25324339604448" lon="12.09990971653525"><ele>453.0</ele><time>2026-04-24T15:56:32Z</time></trkpt><trkpt lat="42.25319914295216" lon="12.0998253528911"><ele>453.0</ele><time>2026-04-24T15:56:33Z</time></trkpt><trkpt lat="42.25311845998939" lon="12.099751875406316"><ele>453.0</ele><time>2026-04-24T15:56:34Z</time></trkpt><trkpt lat="42.25303804016277" lon="12.099677067994094"><ele>453.0</ele><time>2026-04-24T15:56:35Z</time></trkpt><trkpt lat="42.25294908306931" lon="12.099613998100924"><ele>450.59999999999997</ele><time>2026-04-24T15:56:36Z</time></trkpt><trkpt lat="42.25283627140031" lon="12.099578410799875"><ele>448.19999999999993</ele><time>2026-04-24T15:56:37Z</time></trkpt><trkpt lat="42.25272540984501" lon="12.099550688760361"><ele>445.8</ele><time>2026-04-24T15:56:38Z</time></trkpt><trkpt lat="42.252618373776585" lon="12.099525683982666"><ele>443.4</ele><time>2026-04-24T15:56:39Z</time></trkpt><trkpt lat="42.252514291442466" lon="12.09950255013888"><ele>441.0</ele><time>2026-04-24T15:56:40Z</time></trkpt><trkpt lat="42.25240656762018" lon="12.099475834227887"><ele>441.0</ele><time>2026-04-24T15:56:41Z</time></trkpt><trkpt lat="42.25230846640242" lon="12.099448515034439"><ele>441.0</ele><time>2026-04-24T15:56:42Z</time></trkpt><trkpt lat="42.252224483865284" lon="12.099433224438817"><ele>441.0</ele><time>2026-04-24T15:56:43Z</time></trkpt><trkpt lat="42.252143780359184" lon="12.099417324572778"><ele>441.0</ele><time>2026-04-24T15:56:44Z</time></trkpt><trkpt lat="42.252069882793826" lon="12.099403691445307"><ele>441.0</ele><time>2026-04-24T15:56:45Z</time></trkpt><trkpt lat="42.25200214574087" lon="12.09940189644311"><ele>441.0</ele><time>2026-04-24T15:56:46Z</time></trkpt><trkpt lat="42.25193014505863" lon="12.099411383618502"><ele>441.0</ele><time>2026-04-24T15:56:47Z</time></trkpt><trkpt lat="42.25184899333594" lon="12.099445879043294"><ele>441.0</ele><time>2026-04-24T15:56:48Z</time></trkpt><trkpt lat="42.25177548148331" lon="12.099504730785467"><ele>441.0</ele><time>2026-04-24T15:56:49Z</time></trkpt><trkpt lat="42.25171344600142" lon="12.09958051519473"><ele>441.0</ele><time>2026-04-24T15:56:50Z</time></trkpt><trkpt lat="42.25164474034379" lon="12.099650088207264"><ele>441.0</ele><time>2026-04-24T15:56:51Z</time></trkpt><trkpt lat="42.25160254449018" lon="12.09977025239448"><ele>441.0</ele><time>2026-04-24T15:56:52Z</time></trkpt><trkpt lat="42.251594112221426" lon="12.099920733301804"><ele>441.0</ele><time>2026-04-24T15:56:53Z</time></trkpt><trkpt lat="42.251565460743" lon="12.10007223396735"><ele>441.0</ele><time>2026-04-24T15:56:54Z</time></trkpt><trkpt lat="42.251548437517016" lon="12.100231903404753"><ele>441.0</ele><time>2026-04-24T15:56:55Z</time></trkpt><trkpt lat="42.251529833258594" lon="12.10037632206864"><ele>441.0</ele><time>2026-04-24T15:56:56Z</time></trkpt><trkpt lat="42.251511352643455" lon="12.100524678544417"><ele>441.0</ele><time>2026-04-24T15:56:57Z</time></trkpt><trkpt lat="42.25147653358427" lon="12.100672192688203"><ele>441.0</ele><time>2026-04-24T15:56:58Z</time></trkpt><trkpt lat="42.25143616917897" lon="12.10081819780197"><ele>441.0</ele><time>2026-04-24T15:56:59Z</time></trkpt><trkpt lat="42.25139234454578" lon="12.100939301153613"><ele>441.0</ele><time>2026-04-24T15:57:00Z</time></trkpt><trkpt lat="42.25134384142451" lon="12.101054936483354"><ele>441.0</ele><time>2026-04-24T15:57:01Z</time></trkpt><trkpt lat="42.25130722198255" lon="12.101161177665707"><ele>440.5</ele><time>2026-04-24T15:57:02Z</time></trkpt><trkpt lat="42.25126370830636" lon="12.101269186307325"><ele>440.0</ele><time>2026-04-24T15:57:03Z</time></trkpt><trkpt lat="42.25122618025807" lon="12.101364498205362"><ele>439.5</ele><time>2026-04-24T15:57:04Z</time></trkpt><trkpt lat="42.251180731651075" lon="12.101451876745678"><ele>439.0</ele><time>2026-04-24T15:57:05Z</time></trkpt><trkpt lat="42.25112353309498" lon="12.101526248561923"><ele>438.5</ele><time>2026-04-24T15:57:06Z</time></trkpt><trkpt lat="42.251066457951985" lon="12.101576708116456"><ele>438.0</ele><time>2026-04-24T15:57:07Z</time></trkpt><trkpt lat="42.250998682532924" lon="12.101602778168466"><ele>438.0</ele><time>2026-04-24T15:57:08Z</time></trkpt><trkpt lat="42.25092757738422" lon="12.101598093684832"><ele>437.99999999999994</ele><time>2026-04-24T15:57:09Z</time></trkpt><trkpt lat="42.250855658162145" lon="12.101553298442308"><ele>437.99999999999994</ele><time>2026-04-24T15:57:10Z</time></trkpt><trkpt lat="42.25076965963558" lon="12.101468691483623"><ele>438.0</ele><time>2026-04-24T15:57:11Z</time></trkpt><trkpt lat="42.250671756713956" lon="12.10136595438813"><ele>438.0</ele><time>2026-04-24T15:57:12Z</time></trkpt><trkpt lat="42.250563299132914" lon="12.101260966777417"><ele>437.0</ele><time>2026-04-24T15:57:13Z</time></trkpt><trkpt lat="42.2504223674963" lon="12.101123215221556"><ele>436.0</ele><time>2026-04-24T15:57:14Z</time></trkpt><trkpt lat="42.25029034291044" lon="12.100988834911636"><ele>435.0</ele><time>2026-04-24T15:57:15Z</time></trkpt><trkpt lat="42.25016758863342" lon="12.100879245111917"><ele>435.0</ele><time>2026-04-24T15:57:16Z</time></trkpt><trkpt lat="42.250051363559734" lon="12.100771181735336"><ele>435.0</ele><time>2026-04-24T15:57:17Z</time></trkpt><trkpt lat="42.249931411104875" lon="12.10065945512093"><ele>435.0</ele><time>2026-04-24T15:57:18Z</time></trkpt><trkpt lat="42.24981786183223" lon="12.100553707202097"><ele>435.0</ele><time>2026-04-24T15:57:19Z</time></trkpt><trkpt lat="42.24969617088552" lon="12.100441408362137"><ele>432.75</ele><time>2026-04-24T15:57:20Z</time></trkpt><trkpt lat="42.24959469320479" lon="12.100340990125884"><ele>430.5</ele><time>2026-04-24T15:57:21Z</time></trkpt><trkpt lat="42.24948608345825" lon="12.100243115821934"><ele>428.25</ele><time>2026-04-24T15:57:22Z</time></trkpt><trkpt lat="42.249391395197804" lon="12.1001286069033"><ele>426.0</ele><time>2026-04-24T15:57:23Z</time></trkpt><trkpt lat="42.24928581581432" lon="12.10002503127387"><ele>426.0</ele><time>2026-04-24T15:57:24Z</time></trkpt><trkpt lat="42.24919653626117" lon="12.099937446015355"><ele>426.0</ele><time>2026-04-24T15:57:25Z</time></trkpt><trkpt lat="42.249103979604605" lon="12.099846645812303"><ele>426.0</ele><time>2026-04-24T15:57:26Z</time></trkpt><trkpt lat="42.249012030680625" lon="12.099745045619027"><ele>426.0</ele><time>2026-04-24T15:57:27Z</time></trkpt><trkpt lat="42.248899852181765" lon="12.099605000494032"><ele>426.0</ele><time>2026-04-24T15:57:28Z</time></trkpt><trkpt lat="42.24883067205658" lon="12.099489732903791"><ele>426.0</ele><time>2026-04-24T15:57:29Z</time></trkpt><trkpt lat="42.24877033990202" lon="12.09938009548938"><ele>426.0</ele><time>2026-04-24T15:57:30Z</time></trkpt><trkpt lat="42.24870760257362" lon="12.099274219586112"><ele>426.0</ele><time>2026-04-24T15:57:31Z</time></trkpt><trkpt lat="42.2486546937164" lon="12.099173978276538"><ele>426.0</ele><time>2026-04-24T15:57:32Z</time></trkpt><trkpt lat="42.248590068217084" lon="12.099080267574642"><ele>424.75</ele><time>2026-04-24T15:57:33Z</time></trkpt><trkpt lat="42.24850904710909" lon="12.0989968948881"><ele>423.5</ele><time>2026-04-24T15:57:34Z</time></trkpt><trkpt lat="42.24841714584892" lon="12.098893644318421"><ele>422.25</ele><time>2026-04-24T15:57:35Z</time></trkpt><trkpt lat="42.24829219955528" lon="12.098824413828197"><ele>421.0</ele><time>2026-04-24T15:57:36Z</time></trkpt><trkpt lat="42.24815440931739" lon="12.098763264681615"><ele>421.6666666666667</ele><time>2026-04-24T15:57:37Z</time></trkpt><trkpt lat="42.24801150109432" lon="12.098699620813655"><ele>422.33333333333337</ele><time>2026-04-24T15:57:38Z</time></trkpt><trkpt lat="42.24785036246819" lon="12.09862689228385"><ele>423.0</ele><time>2026-04-24T15:57:39Z</time></trkpt><trkpt lat="42.24770385618978" lon="12.098558149877558"><ele>423.0</ele><time>2026-04-24T15:57:40Z</time></trkpt><trkpt lat="42.24756659449182" lon="12.098493745175704"><ele>423.0</ele><time>2026-04-24T15:57:41Z</time></trkpt><trkpt lat="42.24744166282143" lon="12.09843691133227"><ele>423.0</ele><time>2026-04-24T15:57:42Z</time></trkpt><trkpt lat="42.24731965148413" lon="12.09840780805786"><ele>423.0</ele><time>2026-04-24T15:57:43Z</time></trkpt><trkpt lat="42.247207887752104" lon="12.098360230397683"><ele>423.59999999999997</ele><time>2026-04-24T15:57:44Z</time></trkpt><trkpt lat="42.24710164404948" lon="12.098299120393186"><ele>424.2</ele><time>2026-04-24T15:57:45Z</time></trkpt><trkpt lat="42.24700676510695" lon="12.098253826097704"><ele>424.8</ele><time>2026-04-24T15:57:46Z</time></trkpt><trkpt lat="42.24691135559348" lon="12.098209020022214"><ele>425.4</ele><time>2026-04-24T15:57:47Z</time></trkpt><trkpt lat="42.246813625206784" lon="12.098158012474856"><ele>426.0</ele><time>2026-04-24T15:57:48Z</time></trkpt><trkpt lat="42.24672006855776" lon="12.098098926157292"><ele>426.0</ele><time>2026-04-24T15:57:49Z</time></trkpt><trkpt lat="42.24663848800009" lon="12.098041136844357"><ele>426.0</ele><time>2026-04-24T15:57:50Z</time></trkpt><trkpt lat="42.24656771367867" lon="12.097971065346247"><ele>426.0</ele><time>2026-04-24T15:57:51Z</time></trkpt><trkpt lat="42.246522616171546" lon="12.097863860139125"><ele>426.0</ele><time>2026-04-24T15:57:52Z</time></trkpt><trkpt lat="42.24647490460859" lon="12.097749928256757"><ele>426.0</ele><time>2026-04-24T15:57:53Z</time></trkpt><trkpt lat="42.24643823724974" lon="12.09761220378423"><ele>426.20000000000005</ele><time>2026-04-24T15:57:54Z</time></trkpt><trkpt lat="42.246405432767446" lon="12.097493952934528"><ele>426.40000000000003</ele><time>2026-04-24T15:57:55Z</time></trkpt><trkpt lat="42.24637510622042" lon="12.097392002638134"><ele>426.6</ele><time>2026-04-24T15:57:56Z</time></trkpt><trkpt lat="42.24633358263991" lon="12.097289389333955"><ele>426.8</ele><time>2026-04-24T15:57:57Z</time></trkpt><trkpt lat="42.24627111774438" lon="12.097187722306646"><ele>427.0</ele><time>2026-04-24T15:57:58Z</time></trkpt><trkpt lat="42.24619511816627" lon="12.097120363981016"><ele>425.8</ele><time>2026-04-24T15:57:59Z</time></trkpt><trkpt lat="42.24611462636542" lon="12.097070574829434"><ele>424.6</ele><time>2026-04-24T15:58:00Z</time></trkpt><trkpt lat="42.24602192127201" lon="12.097051258108591"><ele>423.40000000000003</ele><time>2026-04-24T15:58:01Z</time></trkpt><trkpt lat="42.24592111743997" lon="12.097100894610971"><ele>422.20000000000005</ele><time>2026-04-24T15:58:02Z</time></trkpt><trkpt lat="42.245817032600776" lon="12.09715256130786"><ele>421.0</ele><time>2026-04-24T15:58:03Z</time></trkpt><trkpt lat="42.24570336542894" lon="12.097222288804412"><ele>420.25</ele><time>2026-04-24T15:58:04Z</time></trkpt><trkpt lat="42.245605159804" lon="12.097288057124691"><ele>419.5</ele><time>2026-04-24T15:58:05Z</time></trkpt><trkpt lat="42.2454981384422" lon="12.097347083021189"><ele>418.75</ele><time>2026-04-24T15:58:06Z</time></trkpt><trkpt lat="42.24539133534227" lon="12.097395772182717"><ele>418.0</ele><time>2026-04-24T15:58:07Z</time></trkpt><trkpt lat="42.24528032794299" lon="12.097437208621692"><ele>420.25</ele><time>2026-04-24T15:58:08Z</time></trkpt><trkpt lat="42.245167416592196" lon="12.097461852408777"><ele>422.5</ele><time>2026-04-24T15:58:09Z</time></trkpt><trkpt lat="42.24505472854976" lon="12.097476288661385"><ele>424.75</ele><time>2026-04-24T15:58:10Z</time></trkpt><trkpt lat="42.24493796105236" lon="12.0974896094209"><ele>427.0</ele><time>2026-04-24T15:58:11Z</time></trkpt><trkpt lat="42.24481428475732" lon="12.097495807213608"><ele>426.75</ele><time>2026-04-24T15:58:12Z</time></trkpt><trkpt lat="42.2446909557715" lon="12.097497447091378"><ele>426.5</ele><time>2026-04-24T15:58:13Z</time></trkpt><trkpt lat="42.244565226885676" lon="12.097481281758176"><ele>426.25</ele><time>2026-04-24T15:58:14Z</time></trkpt><trkpt lat="42.2444470136987" lon="12.097463825321425"><ele>426.0</ele><time>2026-04-24T15:58:15Z</time></trkpt><trkpt lat="42.24432490012818" lon="12.09745391915676"><ele>426.0</ele><time>2026-04-24T15:58:16Z</time></trkpt><trkpt lat="42.24421648676461" lon="12.097424015865093"><ele>426.0</ele><time>2026-04-24T15:58:17Z</time></trkpt><trkpt lat="42.244102206153464" lon="12.097402998325492"><ele>426.0</ele><time>2026-04-24T15:58:18Z</time></trkpt><trkpt lat="42.243997320737556" lon="12.09737199128488"><ele>426.0</ele><time>2026-04-24T15:58:19Z</time></trkpt><trkpt lat="42.2438786611319" lon="12.097340964497219"><ele>424.25</ele><time>2026-04-24T15:58:20Z</time></trkpt><trkpt lat="42.24375266054884" lon="12.097265183399394"><ele>422.5</ele><time>2026-04-24T15:58:21Z</time></trkpt><trkpt lat="42.243636901740814" lon="12.097231741600496"><ele>420.75</ele><time>2026-04-24T15:58:22Z</time></trkpt><trkpt lat="42.24351783156932" lon="12.097196596979241"><ele>419.0</ele><time>2026-04-24T15:58:23Z</time></trkpt><trkpt lat="42.24339327278703" lon="12.097151698210244"><ele>419.0</ele><time>2026-04-24T15:58:24Z</time></trkpt><trkpt lat="42.24328325296591" lon="12.097094880613241"><ele>419.0</ele><time>2026-04-24T15:58:25Z</time></trkpt><trkpt lat="42.24316824088993" lon="12.097023042791408"><ele>419.0</ele><time>2026-04-24T15:58:26Z</time></trkpt><trkpt lat="42.24306995766161" lon="12.096956066751032"><ele>419.0</ele><time>2026-04-24T15:58:27Z</time></trkpt><trkpt lat="42.24297409902419" lon="12.09689273448372"><ele>418.79999999999995</ele><time>2026-04-24T15:58:28Z</time></trkpt><trkpt lat="42.24288242916878" lon="12.096821815541643"><ele>418.59999999999997</ele><time>2026-04-24T15:58:29Z</time></trkpt><trkpt lat="42.24279624541076" lon="12.096757783687947"><ele>418.4</ele><time>2026-04-24T15:58:30Z</time></trkpt><trkpt lat="42.24270636424566" lon="12.09669806467305"><ele>418.2</ele><time>2026-04-24T15:58:31Z</time></trkpt><trkpt lat="42.24261980863859" lon="12.096629950036546"><ele>418.0</ele><time>2026-04-24T15:58:32Z</time></trkpt><trkpt lat="42.242539054330955" lon="12.096577955368403"><ele>418.0</ele><time>2026-04-24T15:58:33Z</time></trkpt><trkpt lat="42.24247759737447" lon="12.096517435682282"><ele>418.0</ele><time>2026-04-24T15:58:34Z</time></trkpt><trkpt lat="42.24242710815932" lon="12.096426030136765"><ele>418.0</ele><time>2026-04-24T15:58:35Z</time></trkpt><trkpt lat="42.24238522826927" lon="12.096323453948207"><ele>418.0</ele><time>2026-04-24T15:58:36Z</time></trkpt><trkpt lat="42.24235720942827" lon="12.096193864352479"><ele>418.0</ele><time>2026-04-24T15:58:37Z</time></trkpt><trkpt lat="42.24233675146472" lon="12.096054681000778"><ele>418.0</ele><time>2026-04-24T15:58:38Z</time></trkpt><trkpt lat="42.24232804977195" lon="12.09591213952361"><ele>418.0</ele><time>2026-04-24T15:58:39Z</time></trkpt><trkpt lat="42.24233147666446" lon="12.0957577418621"><ele>418.0</ele><time>2026-04-24T15:58:40Z</time></trkpt><trkpt lat="42.2423363220119" lon="12.09562174043606"><ele>418.0</ele><time>2026-04-24T15:58:41Z</time></trkpt><trkpt lat="42.24234932822012" lon="12.095470005354406"><ele>418.0</ele><time>2026-04-24T15:58:42Z</time></trkpt><trkpt lat="42.24235621097301" lon="12.095328211499046"><ele>417.0</ele><time>2026-04-24T15:58:43Z</time></trkpt><trkpt lat="42.24237400343001" lon="12.095200370085244"><ele>416.0</ele><time>2026-04-24T15:58:44Z</time></trkpt><trkpt lat="42.242389138099725" lon="12.09505947783481"><ele>415.0</ele><time>2026-04-24T15:58:45Z</time></trkpt><trkpt lat="42.24241880691376" lon="12.09493022310591"><ele>414.0</ele><time>2026-04-24T15:58:46Z</time></trkpt><trkpt lat="42.24245471466227" lon="12.094787061472788"><ele>413.0</ele><time>2026-04-24T15:58:47Z</time></trkpt><trkpt lat="42.24250121579297" lon="12.094640040072816"><ele>411.75</ele><time>2026-04-24T15:58:48Z</time></trkpt><trkpt lat="42.24255105529818" lon="12.0944735134865"><ele>410.5</ele><time>2026-04-24T15:58:49Z</time></trkpt><trkpt lat="42.24258513087068" lon="12.09431291009253"><ele>409.25</ele><time>2026-04-24T15:58:50Z</time></trkpt><trkpt lat="42.242620623097075" lon="12.094137767772093"><ele>408.0</ele><time>2026-04-24T15:58:51Z</time></trkpt><trkpt lat="42.24265640694753" lon="12.093960794103399"><ele>407.75</ele><time>2026-04-24T15:58:52Z</time></trkpt><trkpt lat="42.242671054714094" lon="12.09378006215785"><ele>407.5</ele><time>2026-04-24T15:58:53Z</time></trkpt><trkpt lat="42.24268440656749" lon="12.093601724508776"><ele>407.25</ele><time>2026-04-24T15:58:54Z</time></trkpt><trkpt lat="42.2426967560042" lon="12.093416155011653"><ele>407.0</ele><time>2026-04-24T15:58:55Z</time></trkpt><trkpt lat="42.24269505074334" lon="12.093233858394717"><ele>406.5</ele><time>2026-04-24T15:58:56Z</time></trkpt><trkpt lat="42.24269935251667" lon="12.093038811321493"><ele>406.0</ele><time>2026-04-24T15:58:57Z</time></trkpt><trkpt lat="42.24269311612116" lon="12.09285349109114"><ele>405.5</ele><time>2026-04-24T15:58:58Z</time></trkpt><trkpt lat="42.2426802986393" lon="12.092688465349651"><ele>405.0</ele><time>2026-04-24T15:58:59Z</time></trkpt><trkpt lat="42.24268200246714" lon="12.09250295868848"><ele>405.0</ele><time>2026-04-24T15:59:00Z</time></trkpt><trkpt lat="42.242687183733096" lon="12.092317163812359"><ele>405.0</ele><time>2026-04-24T15:59:01Z</time></trkpt><trkpt lat="42.242682968939135" lon="12.092153772572114"><ele>405.0</ele><time>2026-04-24T15:59:02Z</time></trkpt><trkpt lat="42.24268240892926" lon="12.09202551582511"><ele>405.0</ele><time>2026-04-24T15:59:03Z</time></trkpt><trkpt lat="42.24268625128212" lon="12.091869790981706"><ele>405.0</ele><time>2026-04-24T15:59:04Z</time></trkpt><trkpt lat="42.24267641356242" lon="12.0917253612198"><ele>405.0</ele><time>2026-04-24T15:59:05Z</time></trkpt><trkpt lat="42.24266288528958" lon="12.09159322566771"><ele>405.0</ele><time>2026-04-24T15:59:06Z</time></trkpt><trkpt lat="42.24265586938196" lon="12.091442470945344"><ele>405.0</ele><time>2026-04-24T15:59:07Z</time></trkpt><trkpt lat="42.24264700408552" lon="12.091297557085044"><ele>405.0</ele><time>2026-04-24T15:59:08Z</time></trkpt><trkpt lat="42.24263757595673" lon="12.091144596437836"><ele>405.75</ele><time>2026-04-24T15:59:09Z</time></trkpt><trkpt lat="42.24263312833172" lon="12.090992152598883"><ele>406.5</ele><time>2026-04-24T15:59:10Z</time></trkpt><trkpt lat="42.242622090836385" lon="12.09082898476142"><ele>407.25</ele><time>2026-04-24T15:59:11Z</time></trkpt><trkpt lat="42.24261705536923" lon="12.090668470822733"><ele>408.0</ele><time>2026-04-24T15:59:12Z</time></trkpt><trkpt lat="42.24260723284682" lon="12.090499117894607"><ele>408.0</ele><time>2026-04-24T15:59:13Z</time></trkpt><trkpt lat="42.24259574960326" lon="12.090322482371228"><ele>408.0</ele><time>2026-04-24T15:59:14Z</time></trkpt><trkpt lat="42.24258778043895" lon="12.09014085829313"><ele>408.0</ele><time>2026-04-24T15:59:15Z</time></trkpt><trkpt lat="42.242579464580395" lon="12.08997289502258"><ele>408.0</ele><time>2026-04-24T15:59:16Z</time></trkpt><trkpt lat="42.242568334475344" lon="12.089808239392825"><ele>408.0</ele><time>2026-04-24T15:59:17Z</time></trkpt><trkpt lat="42.242541540767206" lon="12.089664956004253"><ele>408.0</ele><time>2026-04-24T15:59:18Z</time></trkpt><trkpt lat="42.242520385966195" lon="12.089502387325574"><ele>408.0</ele><time>2026-04-24T15:59:19Z</time></trkpt><trkpt lat="42.24250394739403" lon="12.089318815459004"><ele>408.0</ele><time>2026-04-24T15:59:20Z</time></trkpt><trkpt lat="42.24248531144581" lon="12.089133755270034"><ele>407.79999999999995</ele><time>2026-04-24T15:59:21Z</time></trkpt><trkpt lat="42.24246530886237" lon="12.088978605596038"><ele>407.6</ele><time>2026-04-24T15:59:22Z</time></trkpt><trkpt lat="42.242446565306146" lon="12.088840999470913"><ele>407.4</ele><time>2026-04-24T15:59:23Z</time></trkpt><trkpt lat="42.242426718732794" lon="12.088712067174667"><ele>407.20000000000005</ele><time>2026-04-24T15:59:24Z</time></trkpt><trkpt lat="42.24240497126347" lon="12.088582885334391"><ele>407.0</ele><time>2026-04-24T15:59:25Z</time></trkpt><trkpt lat="42.242362678995484" lon="12.088443800856954"><ele>406.99999999999994</ele><time>2026-04-24T15:59:26Z</time></trkpt><trkpt lat="42.242310027444894" lon="12.088338433051193"><ele>407.0</ele><time>2026-04-24T15:59:27Z</time></trkpt><trkpt lat="42.24226176935129" lon="12.088234761818851"><ele>407.0</ele><time>2026-04-24T15:59:28Z</time></trkpt><trkpt lat="42.24221244368396" lon="12.088121849320911"><ele>407.0</ele><time>2026-04-24T15:59:29Z</time></trkpt><trkpt lat="42.24216717450801" lon="12.088042483514505"><ele>406.99999999999994</ele><time>2026-04-24T15:59:30Z</time></trkpt><trkpt lat="42.24212256022724" lon="12.087969738980094"><ele>407.0</ele><time>2026-04-24T15:59:32Z</time></trkpt><trkpt lat="42.2420295196423" lon="12.087909246262793"><ele>407.0</ele><time>2026-04-24T15:59:35Z</time></trkpt><trkpt lat="42.24192118629088" lon="12.087973851176612"><ele>407.0</ele><time>2026-04-24T15:59:37Z</time></trkpt><trkpt lat="42.24185945169637" lon="12.088036303384925"><ele>407.0</ele><time>2026-04-24T15:59:38Z</time></trkpt><trkpt lat="42.24177976984822" lon="12.08809683014707"><ele>407.0</ele><time>2026-04-24T15:59:39Z</time></trkpt><trkpt lat="42.24171614193978" lon="12.088181977663822"><ele>407.0</ele><time>2026-04-24T15:59:40Z</time></trkpt><trkpt lat="42.24165293508826" lon="12.08824214568675"><ele>406.99999999999994</ele><time>2026-04-24T15:59:41Z</time></trkpt><trkpt lat="42.24159066175865" lon="12.088300106030614"><ele>407.0</ele><time>2026-04-24T15:59:42Z</time></trkpt><trkpt lat="42.24151227776182" lon="12.088373061250648"><ele>407.0</ele><time>2026-04-24T15:59:43Z</time></trkpt><trkpt lat="42.241434523818015" lon="12.088421678015374"><ele>407.0</ele><time>2026-04-24T15:59:44Z</time></trkpt><trkpt lat="42.241375114117695" lon="12.088480546588636"><ele>406.99999999999994</ele><time>2026-04-24T15:59:45Z</time></trkpt><trkpt lat="42.24129279800245" lon="12.088555985492345"><ele>407.0</ele><time>2026-04-24T15:59:46Z</time></trkpt><trkpt lat="42.24122506640186" lon="12.088620001301017"><ele>406.49999999999994</ele><time>2026-04-24T15:59:47Z</time></trkpt><trkpt lat="42.241153585748826" lon="12.088689980934689"><ele>406.0</ele><time>2026-04-24T15:59:48Z</time></trkpt><trkpt lat="42.241093329878176" lon="12.08875593124144"><ele>405.5</ele><time>2026-04-24T15:59:49Z</time></trkpt><trkpt lat="42.24103025164452" lon="12.088821198474427"><ele>405.0</ele><time>2026-04-24T15:59:50Z</time></trkpt><trkpt lat="42.240971088909156" lon="12.08888603718586"><ele>404.49999999999994</ele><time>2026-04-24T15:59:51Z</time></trkpt><trkpt lat="42.240914328557366" lon="12.088948025957494"><ele>404.0</ele><time>2026-04-24T15:59:52Z</time></trkpt><trkpt lat="42.24084332736863" lon="12.089012761954132"><ele>403.99999999999994</ele><time>2026-04-24T15:59:53Z</time></trkpt><trkpt lat="42.24076601870541" lon="12.089072828014334"><ele>404.0</ele><time>2026-04-24T15:59:54Z</time></trkpt><trkpt lat="42.24069414642459" lon="12.089117797148035"><ele>404.0</ele><time>2026-04-24T15:59:55Z</time></trkpt><trkpt lat="42.24061898572379" lon="12.089142799328314"><ele>404.0</ele><time>2026-04-24T15:59:56Z</time></trkpt><trkpt lat="42.24054110147108" lon="12.089144278862207"><ele>403.99999999999994</ele><time>2026-04-24T15:59:57Z</time></trkpt><trkpt lat="42.240467928055196" lon="12.089157858327232"><ele>404.0</ele><time>2026-04-24T15:59:58Z</time></trkpt><trkpt lat="42.24038322459547" lon="12.089154516332323"><ele>404.6</ele><time>2026-04-24T15:59:59Z</time></trkpt><trkpt lat="42.2402997638472" lon="12.089171800534933"><ele>405.2</ele><time>2026-04-24T16:00:00Z</time></trkpt><trkpt lat="42.24019932966144" lon="12.089228931680156"><ele>405.8</ele><time>2026-04-24T16:00:01Z</time></trkpt><trkpt lat="42.240101486233364" lon="12.089304869707144"><ele>406.40000000000003</ele><time>2026-04-24T16:00:02Z</time></trkpt><trkpt lat="42.2400080382178" lon="12.089389806489516"><ele>407.0</ele><time>2026-04-24T16:00:03Z</time></trkpt><trkpt lat="42.23992428409733" lon="12.089441871507237"><ele>407.0</ele><time>2026-04-24T16:00:04Z</time></trkpt><trkpt lat="42.239845876647145" lon="12.089496832915247"><ele>407.0</ele><time>2026-04-24T16:00:05Z</time></trkpt><trkpt lat="42.23976533189741" lon="12.089544077494185"><ele>407.0</ele><time>2026-04-24T16:00:06Z</time></trkpt><trkpt lat="42.23969641081641" lon="12.089561088440139"><ele>407.0</ele><time>2026-04-24T16:00:07Z</time></trkpt><trkpt lat="42.239595039874516" lon="12.089591056159179"><ele>407.0</ele><time>2026-04-24T16:00:08Z</time></trkpt><trkpt lat="42.23949602515154" lon="12.089569722976554"><ele>406.5</ele><time>2026-04-24T16:00:09Z</time></trkpt><trkpt lat="42.239360506705125" lon="12.08959129532126"><ele>406.0</ele><time>2026-04-24T16:00:10Z</time></trkpt><trkpt lat="42.23925080417119" lon="12.089549247158917"><ele>405.5</ele><time>2026-04-24T16:00:11Z</time></trkpt><trkpt lat="42.23914802180095" lon="12.089533209325435"><ele>405.0</ele><time>2026-04-24T16:00:12Z</time></trkpt><trkpt lat="42.239048017738" lon="12.089518668462727"><ele>404.4</ele><time>2026-04-24T16:00:13Z</time></trkpt><trkpt lat="42.23892855248256" lon="12.089511590250535"><ele>403.8</ele><time>2026-04-24T16:00:14Z</time></trkpt><trkpt lat="42.23882862594305" lon="12.089514835581092"><ele>403.20000000000005</ele><time>2026-04-24T16:00:15Z</time></trkpt><trkpt lat="42.23873048512271" lon="12.089521439844935"><ele>402.6</ele><time>2026-04-24T16:00:16Z</time></trkpt><trkpt lat="42.238634416274515" lon="12.089525549296047"><ele>402.0</ele><time>2026-04-24T16:00:17Z</time></trkpt><trkpt lat="42.23853581944458" lon="12.089530244034687"><ele>402.0</ele><time>2026-04-24T16:00:18Z</time></trkpt><trkpt lat="42.238439499929676" lon="12.089536294717211"><ele>402.0</ele><time>2026-04-24T16:00:19Z</time></trkpt><trkpt lat="42.23834892124622" lon="12.089532822480562"><ele>402.0</ele><time>2026-04-24T16:00:20Z</time></trkpt><trkpt lat="42.23825909976397" lon="12.089528782033836"><ele>402.0</ele><time>2026-04-24T16:00:21Z</time></trkpt><trkpt lat="42.23816837016984" lon="12.089525728367601"><ele>402.0</ele><time>2026-04-24T16:00:22Z</time></trkpt><trkpt lat="42.23807223150823" lon="12.089492405186116"><ele>401.0</ele><time>2026-04-24T16:00:23Z</time></trkpt><trkpt lat="42.23798065715858" lon="12.089441112687624"><ele>400.0</ele><time>2026-04-24T16:00:24Z</time></trkpt><trkpt lat="42.23789708365459" lon="12.089347788005417"><ele>399.0</ele><time>2026-04-24T16:00:25Z</time></trkpt><trkpt lat="42.23780737015087" lon="12.089249175523335"><ele>398.0</ele><time>2026-04-24T16:00:26Z</time></trkpt><trkpt lat="42.23771583519322" lon="12.089149221335274"><ele>397.0</ele><time>2026-04-24T16:00:27Z</time></trkpt><trkpt lat="42.237609135288054" lon="12.089063248251238"><ele>397.0</ele><time>2026-04-24T16:00:28Z</time></trkpt><trkpt lat="42.23753644072508" lon="12.088960460416823"><ele>397.0</ele><time>2026-04-24T16:00:29Z</time></trkpt><trkpt lat="42.23745754224933" lon="12.088877994601924"><ele>397.0</ele><time>2026-04-24T16:00:30Z</time></trkpt><trkpt lat="42.23737314845986" lon="12.088788104226788"><ele>397.0</ele><time>2026-04-24T16:00:31Z</time></trkpt><trkpt lat="42.23728689839793" lon="12.088696236680278"><ele>397.0</ele><time>2026-04-24T16:00:32Z</time></trkpt><trkpt lat="42.237203086802985" lon="12.08860696642174"><ele>396.20000000000005</ele><time>2026-04-24T16:00:33Z</time></trkpt><trkpt lat="42.23711183177421" lon="12.088509767902732"><ele>395.4</ele><time>2026-04-24T16:00:34Z</time></trkpt><trkpt lat="42.23702284365564" lon="12.08841765789049"><ele>394.6</ele><time>2026-04-24T16:00:35Z</time></trkpt><trkpt lat="42.23694509850118" lon="12.08833776695346"><ele>393.79999999999995</ele><time>2026-04-24T16:00:36Z</time></trkpt><trkpt lat="42.23686719718476" lon="12.088257907997729"><ele>393.0</ele><time>2026-04-24T16:00:37Z</time></trkpt><trkpt lat="42.23677772566591" lon="12.088182602095575"><ele>393.0</ele><time>2026-04-24T16:00:38Z</time></trkpt><trkpt lat="42.236677667291836" lon="12.088121382268916"><ele>393.0</ele><time>2026-04-24T16:00:39Z</time></trkpt><trkpt lat="42.23657014790591" lon="12.088080587615897"><ele>393.0</ele><time>2026-04-24T16:00:40Z</time></trkpt><trkpt lat="42.236464909373375" lon="12.088062388103513"><ele>393.0</ele><time>2026-04-24T16:00:41Z</time></trkpt><trkpt lat="42.23634619956659" lon="12.088063822782294"><ele>393.0</ele><time>2026-04-24T16:00:42Z</time></trkpt><trkpt lat="42.23622752771514" lon="12.08807526388091"><ele>392.25</ele><time>2026-04-24T16:00:43Z</time></trkpt><trkpt lat="42.23610340574362" lon="12.088124565368716"><ele>391.5</ele><time>2026-04-24T16:00:44Z</time></trkpt><trkpt lat="42.23597557648188" lon="12.088139051527913"><ele>390.75</ele><time>2026-04-24T16:00:45Z</time></trkpt><trkpt lat="42.23585783327479" lon="12.088184243383925"><ele>390.0</ele><time>2026-04-24T16:00:46Z</time></trkpt><trkpt lat="42.23571506139168" lon="12.088178199503053"><ele>389.0</ele><time>2026-04-24T16:00:47Z</time></trkpt><trkpt lat="42.2355888811263" lon="12.088200777489945"><ele>388.0</ele><time>2026-04-24T16:00:48Z</time></trkpt><trkpt lat="42.23545926469199" lon="12.088226760949073"><ele>387.0</ele><time>2026-04-24T16:00:49Z</time></trkpt><trkpt lat="42.23532020711624" lon="12.088265357796992"><ele>386.0</ele><time>2026-04-24T16:00:50Z</time></trkpt><trkpt lat="42.23519178286669" lon="12.088302239750611"><ele>386.0</ele><time>2026-04-24T16:00:51Z</time></trkpt><trkpt lat="42.23508034577257" lon="12.088341052222853"><ele>386.0</ele><time>2026-04-24T16:00:52Z</time></trkpt><trkpt lat="42.23494740885846" lon="12.088368742961311"><ele>386.0</ele><time>2026-04-24T16:00:53Z</time></trkpt><trkpt lat="42.23482320338877" lon="12.088406299578981"><ele>386.0</ele><time>2026-04-24T16:00:54Z</time></trkpt><trkpt lat="42.234704196025454" lon="12.088444815152686"><ele>385.25</ele><time>2026-04-24T16:00:55Z</time></trkpt><trkpt lat="42.23457867141268" lon="12.08847815693565"><ele>384.5</ele><time>2026-04-24T16:00:56Z</time></trkpt><trkpt lat="42.23444755889789" lon="12.088509650380916"><ele>383.75</ele><time>2026-04-24T16:00:57Z</time></trkpt><trkpt lat="42.234328245464724" lon="12.08854010145349"><ele>383.0</ele><time>2026-04-24T16:00:58Z</time></trkpt><trkpt lat="42.23421067972235" lon="12.08857266249466"><ele>383.0</ele><time>2026-04-24T16:00:59Z</time></trkpt><trkpt lat="42.23408739303924" lon="12.088600247895377"><ele>383.0</ele><time>2026-04-24T16:01:00Z</time></trkpt><trkpt lat="42.23396398097978" lon="12.088641975841773"><ele>383.0</ele><time>2026-04-24T16:01:01Z</time></trkpt><trkpt lat="42.23386252211748" lon="12.0886694357655"><ele>383.0</ele><time>2026-04-24T16:01:02Z</time></trkpt><trkpt lat="42.23375379451566" lon="12.088707090824125"><ele>382.59999999999997</ele><time>2026-04-24T16:01:03Z</time></trkpt><trkpt lat="42.23364418679841" lon="12.088750202546395"><ele>382.2</ele><time>2026-04-24T16:01:04Z</time></trkpt><trkpt lat="42.23353965814165" lon="12.088797702421752"><ele>381.8</ele><time>2026-04-24T16:01:05Z</time></trkpt><trkpt lat="42.23344071508416" lon="12.08884178111682"><ele>381.4</ele><time>2026-04-24T16:01:06Z</time></trkpt><trkpt lat="42.23336038054544" lon="12.088909317040876"><ele>381.0</ele><time>2026-04-24T16:01:07Z</time></trkpt><trkpt lat="42.233289008760664" lon="12.0889757461907"><ele>381.0</ele><time>2026-04-24T16:01:08Z</time></trkpt><trkpt lat="42.23320396898644" lon="12.089066497783305"><ele>381.0</ele><time>2026-04-24T16:01:09Z</time></trkpt><trkpt lat="42.23314131383147" lon="12.089197350690819"><ele>381.0</ele><time>2026-04-24T16:01:10Z</time></trkpt><trkpt lat="42.23307742896883" lon="12.089320585256173"><ele>381.0</ele><time>2026-04-24T16:01:11Z</time></trkpt><trkpt lat="42.23300780501541" lon="12.08945997768579"><ele>380.8</ele><time>2026-04-24T16:01:12Z</time></trkpt><trkpt lat="42.23293742178177" lon="12.089585572114261"><ele>380.6</ele><time>2026-04-24T16:01:13Z</time></trkpt><trkpt lat="42.23285911129594" lon="12.089706070652865"><ele>380.4</ele><time>2026-04-24T16:01:14Z</time></trkpt><trkpt lat="42.23280150917556" lon="12.089807946165514"><ele>380.2</ele><time>2026-04-24T16:01:15Z</time></trkpt><trkpt lat="42.232716173597794" lon="12.089903819129498"><ele>380.0</ele><time>2026-04-24T16:01:16Z</time></trkpt><trkpt lat="42.23262207773581" lon="12.09000710766436"><ele>380.0</ele><time>2026-04-24T16:01:17Z</time></trkpt><trkpt lat="42.23251419149887" lon="12.090128302631639"><ele>380.0</ele><time>2026-04-24T16:01:18Z</time></trkpt><trkpt lat="42.232387221143654" lon="12.090225816716206"><ele>380.0</ele><time>2026-04-24T16:01:19Z</time></trkpt><trkpt lat="42.23226902973818" lon="12.090314010317575"><ele>380.0</ele><time>2026-04-24T16:01:20Z</time></trkpt><trkpt lat="42.23214191694762" lon="12.09039686335023"><ele>381.25</ele><time>2026-04-24T16:01:21Z</time></trkpt><trkpt lat="42.23202814728752" lon="12.09048510801288"><ele>382.5</ele><time>2026-04-24T16:01:22Z</time></trkpt><trkpt lat="42.23191789712025" lon="12.090566693438687"><ele>383.75</ele><time>2026-04-24T16:01:23Z</time></trkpt><trkpt lat="42.23180921980628" lon="12.090655856063217"><ele>385.0</ele><time>2026-04-24T16:01:24Z</time></trkpt><trkpt lat="42.231707993451934" lon="12.090748150515937"><ele>383.25</ele><time>2026-04-24T16:01:25Z</time></trkpt><trkpt lat="42.23161418363571" lon="12.090839152641127"><ele>381.5</ele><time>2026-04-24T16:01:26Z</time></trkpt><trkpt lat="42.231521102204994" lon="12.090920729337954"><ele>379.75</ele><time>2026-04-24T16:01:27Z</time></trkpt><trkpt lat="42.231424678579074" lon="12.091015224460627"><ele>378.0</ele><time>2026-04-24T16:01:28Z</time></trkpt><trkpt lat="42.23133550076132" lon="12.09110445858527"><ele>378.0</ele><time>2026-04-24T16:01:29Z</time></trkpt><trkpt lat="42.231243215259056" lon="12.09117922156042"><ele>378.0</ele><time>2026-04-24T16:01:30Z</time></trkpt><trkpt lat="42.231162064380044" lon="12.091247433783543"><ele>378.0</ele><time>2026-04-24T16:01:31Z</time></trkpt><trkpt lat="42.231076284853856" lon="12.09128664819878"><ele>378.0</ele><time>2026-04-24T16:01:32Z</time></trkpt><trkpt lat="42.2309798872219" lon="12.091307996664172"><ele>378.0</ele><time>2026-04-24T16:01:33Z</time></trkpt><trkpt lat="42.230892479645775" lon="12.091311265437731"><ele>378.0</ele><time>2026-04-24T16:01:34Z</time></trkpt><trkpt lat="42.230792951915575" lon="12.091291963644434"><ele>378.0</ele><time>2026-04-24T16:01:35Z</time></trkpt><trkpt lat="42.230707588858586" lon="12.091241392680864"><ele>378.0</ele><time>2026-04-24T16:01:36Z</time></trkpt><trkpt lat="42.23061414564939" lon="12.091167596866988"><ele>378.0</ele><time>2026-04-24T16:01:37Z</time></trkpt><trkpt lat="42.23052616263445" lon="12.091072809868368"><ele>378.0</ele><time>2026-04-24T16:01:38Z</time></trkpt><trkpt lat="42.230431274622376" lon="12.090942475501976"><ele>378.25</ele><time>2026-04-24T16:01:39Z</time></trkpt><trkpt lat="42.23033696012556" lon="12.090824170077918"><ele>378.5</ele><time>2026-04-24T16:01:40Z</time></trkpt><trkpt lat="42.23023979100452" lon="12.090703207574114"><ele>378.75</ele><time>2026-04-24T16:01:41Z</time></trkpt><trkpt lat="42.23013921106731" lon="12.090577999074473"><ele>379.0</ele><time>2026-04-24T16:01:42Z</time></trkpt><trkpt lat="42.23004182601881" lon="12.090459184111813"><ele>379.75</ele><time>2026-04-24T16:01:43Z</time></trkpt><trkpt lat="42.229953957849645" lon="12.090353808384432"><ele>380.5</ele><time>2026-04-24T16:01:44Z</time></trkpt><trkpt lat="42.22986403998162" lon="12.090243247172104"><ele>381.25</ele><time>2026-04-24T16:01:45Z</time></trkpt><trkpt lat="42.22976817140427" lon="12.090138973407491"><ele>382.0</ele><time>2026-04-24T16:01:46Z</time></trkpt><trkpt lat="42.22966851760807" lon="12.090013485335554"><ele>384.0</ele><time>2026-04-24T16:01:47Z</time></trkpt><trkpt lat="42.229561490235106" lon="12.089878555975135"><ele>386.0</ele><time>2026-04-24T16:01:48Z</time></trkpt><trkpt lat="42.22947302191229" lon="12.08975551572779"><ele>388.0</ele><time>2026-04-24T16:01:49Z</time></trkpt><trkpt lat="42.22938484328543" lon="12.089636118265865"><ele>390.0</ele><time>2026-04-24T16:01:50Z</time></trkpt><trkpt lat="42.22929468515872" lon="12.089508618166784"><ele>390.0</ele><time>2026-04-24T16:01:51Z</time></trkpt><trkpt lat="42.229207542181506" lon="12.08938555128522"><ele>390.0</ele><time>2026-04-24T16:01:52Z</time></trkpt><trkpt lat="42.22912879564474" lon="12.089243627870445"><ele>390.0</ele><time>2026-04-24T16:01:53Z</time></trkpt><trkpt lat="42.22904558715657" lon="12.089118141677684"><ele>390.0</ele><time>2026-04-24T16:01:54Z</time></trkpt><trkpt lat="42.22896288165256" lon="12.088994910257561"><ele>392.5</ele><time>2026-04-24T16:01:55Z</time></trkpt><trkpt lat="42.22888142364647" lon="12.088873921589041"><ele>395.0</ele><time>2026-04-24T16:01:56Z</time></trkpt><trkpt lat="42.22879564732201" lon="12.088751312639676"><ele>397.5</ele><time>2026-04-24T16:01:57Z</time></trkpt><trkpt lat="42.22871725190659" lon="12.088634857143157"><ele>400.0</ele><time>2026-04-24T16:01:58Z</time></trkpt><trkpt lat="42.228644191743875" lon="12.088522600008542"><ele>400.0</ele><time>2026-04-24T16:01:59Z</time></trkpt><trkpt lat="42.22856762424023" lon="12.088413158980945"><ele>400.0</ele><time>2026-04-24T16:02:00Z</time></trkpt><trkpt lat="42.2285024376831" lon="12.088301469425383"><ele>400.0</ele><time>2026-04-24T16:02:01Z</time></trkpt><trkpt lat="42.22841416788752" lon="12.088216749920974"><ele>400.0</ele><time>2026-04-24T16:02:02Z</time></trkpt><trkpt lat="42.22832798240411" lon="12.088150014318312"><ele>400.0</ele><time>2026-04-24T16:02:03Z</time></trkpt><trkpt lat="42.228222246084904" lon="12.088085511937043"><ele>402.25</ele><time>2026-04-24T16:02:04Z</time></trkpt><trkpt lat="42.228108237168314" lon="12.088039908436912"><ele>404.5</ele><time>2026-04-24T16:02:05Z</time></trkpt><trkpt lat="42.22799205409435" lon="12.08800640237489"><ele>406.75</ele><time>2026-04-24T16:02:06Z</time></trkpt><trkpt lat="42.22788002495071" lon="12.087987045626708"><ele>409.0</ele><time>2026-04-24T16:02:07Z</time></trkpt><trkpt lat="42.22776142855159" lon="12.087973097457393"><ele>409.0</ele><time>2026-04-24T16:02:08Z</time></trkpt><trkpt lat="42.22764170679605" lon="12.087966463188181"><ele>409.0</ele><time>2026-04-24T16:02:09Z</time></trkpt><trkpt lat="42.227513661827444" lon="12.087953787211775"><ele>409.0</ele><time>2026-04-24T16:02:10Z</time></trkpt><trkpt lat="42.22738069453461" lon="12.087949233095294"><ele>409.0</ele><time>2026-04-24T16:02:11Z</time></trkpt><trkpt lat="42.22726110700608" lon="12.087952510547064"><ele>409.25</ele><time>2026-04-24T16:02:12Z</time></trkpt><trkpt lat="42.227145577622316" lon="12.087943783840794"><ele>409.5</ele><time>2026-04-24T16:02:13Z</time></trkpt><trkpt lat="42.22702748708167" lon="12.087939362696128"><ele>409.75</ele><time>2026-04-24T16:02:14Z</time></trkpt><trkpt lat="42.226907345827904" lon="12.087927750414933"><ele>410.0</ele><time>2026-04-24T16:02:15Z</time></trkpt><trkpt lat="42.22677921878264" lon="12.08792119844665"><ele>410.0</ele><time>2026-04-24T16:02:16Z</time></trkpt><trkpt lat="42.22665764952799" lon="12.087898409768572"><ele>410.0</ele><time>2026-04-24T16:02:17Z</time></trkpt><trkpt lat="42.22653031811836" lon="12.087889523603218"><ele>410.0</ele><time>2026-04-24T16:02:18Z</time></trkpt><trkpt lat="42.226400708335056" lon="12.087879218590196"><ele>410.0</ele><time>2026-04-24T16:02:19Z</time></trkpt><trkpt lat="42.22627285160315" lon="12.087874114322641"><ele>410.25</ele><time>2026-04-24T16:02:20Z</time></trkpt><trkpt lat="42.226138908184154" lon="12.087865295851419"><ele>410.5</ele><time>2026-04-24T16:02:21Z</time></trkpt><trkpt lat="42.22600910017734" lon="12.087856841794718"><ele>410.75</ele><time>2026-04-24T16:02:22Z</time></trkpt><trkpt lat="42.22587777724006" lon="12.087852793029045"><ele>411.0</ele><time>2026-04-24T16:02:23Z</time></trkpt><trkpt lat="42.22574509698994" lon="12.087849150945683"><ele>410.0</ele><time>2026-04-24T16:02:24Z</time></trkpt><trkpt lat="42.22560897157537" lon="12.087845436291529"><ele>409.0</ele><time>2026-04-24T16:02:25Z</time></trkpt><trkpt lat="42.22548166788238" lon="12.087813172799828"><ele>408.0</ele><time>2026-04-24T16:02:26Z</time></trkpt><trkpt lat="42.22534991952687" lon="12.087802468531272"><ele>407.0</ele><time>2026-04-24T16:02:27Z</time></trkpt><trkpt lat="42.225224394328336" lon="12.087792269887705"><ele>407.0</ele><time>2026-04-24T16:02:28Z</time></trkpt><trkpt lat="42.22509662083737" lon="12.087781888567209"><ele>407.0</ele><time>2026-04-24T16:02:29Z</time></trkpt><trkpt lat="42.224974255483474" lon="12.087771946648699"><ele>407.0</ele><time>2026-04-24T16:02:30Z</time></trkpt><trkpt lat="42.22487988356543" lon="12.087764279136797"><ele>407.0</ele><time>2026-04-24T16:02:31Z</time></trkpt><trkpt lat="42.224774007352806" lon="12.087755676921342"><ele>407.6</ele><time>2026-04-24T16:02:32Z</time></trkpt><trkpt lat="42.22467808376793" lon="12.087747883257412"><ele>408.20000000000005</ele><time>2026-04-24T16:02:33Z</time></trkpt><trkpt lat="42.224573513247556" lon="12.087745113863514"><ele>408.8</ele><time>2026-04-24T16:02:34Z</time></trkpt><trkpt lat="42.22445519926099" lon="12.087759182469384"><ele>409.4</ele><time>2026-04-24T16:02:35Z</time></trkpt><trkpt lat="42.22434605051809" lon="12.087798605380089"><ele>410.0</ele><time>2026-04-24T16:02:36Z</time></trkpt><trkpt lat="42.22423821258798" lon="12.087863446722661"><ele>410.0</ele><time>2026-04-24T16:02:37Z</time></trkpt><trkpt lat="42.224135926230424" lon="12.087943657668486"><ele>410.0</ele><time>2026-04-24T16:02:38Z</time></trkpt><trkpt lat="42.22403796633633" lon="12.088039716013139"><ele>410.0</ele><time>2026-04-24T16:02:39Z</time></trkpt><trkpt lat="42.22394264902971" lon="12.088157673056145"><ele>410.0</ele><time>2026-04-24T16:02:40Z</time></trkpt><trkpt lat="42.22385610770055" lon="12.088279951865191"><ele>409.0</ele><time>2026-04-24T16:02:41Z</time></trkpt><trkpt lat="42.22377633495976" lon="12.088418389609599"><ele>408.0</ele><time>2026-04-24T16:02:42Z</time></trkpt><trkpt lat="42.22369970297678" lon="12.088581917258882"><ele>407.0</ele><time>2026-04-24T16:02:43Z</time></trkpt><trkpt lat="42.22363212869843" lon="12.08874346627966"><ele>406.0</ele><time>2026-04-24T16:02:44Z</time></trkpt><trkpt lat="42.2235665766992" lon="12.088919134404147"><ele>406.0</ele><time>2026-04-24T16:02:45Z</time></trkpt><trkpt lat="42.22350418744035" lon="12.08909032762535"><ele>406.0</ele><time>2026-04-24T16:02:46Z</time></trkpt><trkpt lat="42.223453306870425" lon="12.089272690178287"><ele>406.0</ele><time>2026-04-24T16:02:47Z</time></trkpt><trkpt lat="42.223382077368306" lon="12.089418571740417"><ele>406.0</ele><time>2026-04-24T16:02:48Z</time></trkpt><trkpt lat="42.22332881139461" lon="12.08956197875008"><ele>405.0</ele><time>2026-04-24T16:02:49Z</time></trkpt><trkpt lat="42.22326100475628" lon="12.089708525569248"><ele>404.0</ele><time>2026-04-24T16:02:50Z</time></trkpt><trkpt lat="42.22320418746989" lon="12.089868554816016"><ele>403.0</ele><time>2026-04-24T16:02:51Z</time></trkpt><trkpt lat="42.22314728076524" lon="12.090022602527831"><ele>402.0</ele><time>2026-04-24T16:02:52Z</time></trkpt><trkpt lat="42.22309599662671" lon="12.090160959233994"><ele>401.8</ele><time>2026-04-24T16:02:53Z</time></trkpt><trkpt lat="42.22304973461022" lon="12.0902956374396"><ele>401.6</ele><time>2026-04-24T16:02:54Z</time></trkpt><trkpt lat="42.22300029867716" lon="12.090434442121612"><ele>401.40000000000003</ele><time>2026-04-24T16:02:55Z</time></trkpt><trkpt lat="42.22295417809918" lon="12.090561937273876"><ele>401.20000000000005</ele><time>2026-04-24T16:02:56Z</time></trkpt><trkpt lat="42.22290371547601" lon="12.090703605201542"><ele>401.0</ele><time>2026-04-24T16:02:57Z</time></trkpt><trkpt lat="42.2228527339278" lon="12.09083915612501"><ele>401.0</ele><time>2026-04-24T16:02:58Z</time></trkpt><trkpt lat="42.2228022992284" lon="12.09098041349001"><ele>401.0</ele><time>2026-04-24T16:02:59Z</time></trkpt><trkpt lat="42.222756421162345" lon="12.091111326583045"><ele>401.0</ele><time>2026-04-24T16:03:00Z</time></trkpt><trkpt lat="42.22270205408509" lon="12.0912428572339"><ele>401.0</ele><time>2026-04-24T16:03:01Z</time></trkpt><trkpt lat="42.22265365427488" lon="12.091381195792836"><ele>401.0</ele><time>2026-04-24T16:03:02Z</time></trkpt><trkpt lat="42.222610701667406" lon="12.091508020154965"><ele>401.0</ele><time>2026-04-24T16:03:03Z</time></trkpt><trkpt lat="42.2225673073801" lon="12.091640352070469"><ele>401.0</ele><time>2026-04-24T16:03:04Z</time></trkpt><trkpt lat="42.222516280223225" lon="12.091779471041683"><ele>401.0</ele><time>2026-04-24T16:03:05Z</time></trkpt><trkpt lat="42.22244221604693" lon="12.091912945305536"><ele>401.0</ele><time>2026-04-24T16:03:06Z</time></trkpt><trkpt lat="42.22239859008749" lon="12.09203875533132"><ele>401.0</ele><time>2026-04-24T16:03:07Z</time></trkpt><trkpt lat="42.22235657858716" lon="12.09215829477524"><ele>400.99999999999994</ele><time>2026-04-24T16:03:08Z</time></trkpt><trkpt lat="42.22231656746685" lon="12.092269078849146"><ele>401.0</ele><time>2026-04-24T16:03:09Z</time></trkpt><trkpt lat="42.22227358723203" lon="12.092378128889614"><ele>401.0</ele><time>2026-04-24T16:03:10Z</time></trkpt><trkpt lat="42.222240684342324" lon="12.092484540677178"><ele>401.0</ele><time>2026-04-24T16:03:11Z</time></trkpt><trkpt lat="42.22220330016521" lon="12.092592088662336"><ele>400.99999999999994</ele><time>2026-04-24T16:03:12Z</time></trkpt><trkpt lat="42.22214837225205" lon="12.092687053145221"><ele>401.0</ele><time>2026-04-24T16:03:13Z</time></trkpt><trkpt lat="42.222117438687164" lon="12.092785157978687"><ele>400.8</ele><time>2026-04-24T16:03:14Z</time></trkpt><trkpt lat="42.22203821880372" lon="12.09288010530012"><ele>400.6</ele><time>2026-04-24T16:03:15Z</time></trkpt><trkpt lat="42.22195747427602" lon="12.092977835657626"><ele>400.4</ele><time>2026-04-24T16:03:16Z</time></trkpt><trkpt lat="42.22188517527337" lon="12.093070325553775"><ele>400.2</ele><time>2026-04-24T16:03:17Z</time></trkpt><trkpt lat="42.22178346680268" lon="12.09312942501422"><ele>400.0</ele><time>2026-04-24T16:03:18Z</time></trkpt><trkpt lat="42.22169087098568" lon="12.093180218112929"><ele>400.0</ele><time>2026-04-24T16:03:19Z</time></trkpt><trkpt lat="42.22160022304031" lon="12.09322392272832"><ele>400.0</ele><time>2026-04-24T16:03:20Z</time></trkpt><trkpt lat="42.22150337557861" lon="12.093265234052355"><ele>400.0</ele><time>2026-04-24T16:03:21Z</time></trkpt><trkpt lat="42.221401633918404" lon="12.093306420899095"><ele>400.0</ele><time>2026-04-24T16:03:22Z</time></trkpt><trkpt lat="42.22130495458895" lon="12.093344511571459"><ele>400.0</ele><time>2026-04-24T16:03:23Z</time></trkpt><trkpt lat="42.221221250669764" lon="12.093377490116415"><ele>400.0</ele><time>2026-04-24T16:03:24Z</time></trkpt><trkpt lat="42.22112699558883" lon="12.093414625651114"><ele>400.0</ele><time>2026-04-24T16:03:25Z</time></trkpt><trkpt lat="42.22103709028517" lon="12.093450047433379"><ele>400.0</ele><time>2026-04-24T16:03:26Z</time></trkpt><trkpt lat="42.22093584569222" lon="12.093489936817132"><ele>400.0</ele><time>2026-04-24T16:03:27Z</time></trkpt><trkpt lat="42.22084622351111" lon="12.093525247171948"><ele>400.0</ele><time>2026-04-24T16:03:28Z</time></trkpt><trkpt lat="42.220741557337746" lon="12.093565963257564"><ele>399.8</ele><time>2026-04-24T16:03:29Z</time></trkpt><trkpt lat="42.22063594371779" lon="12.093607112463538"><ele>399.6</ele><time>2026-04-24T16:03:30Z</time></trkpt><trkpt lat="42.22053655148006" lon="12.093645532269688"><ele>399.4</ele><time>2026-04-24T16:03:31Z</time></trkpt><trkpt lat="42.220431260285096" lon="12.093686069640293"><ele>399.2</ele><time>2026-04-24T16:03:32Z</time></trkpt><trkpt lat="42.22032662464002" lon="12.093745554861103"><ele>399.0</ele><time>2026-04-24T16:03:33Z</time></trkpt><trkpt lat="42.22022310009653" lon="12.09378379739278"><ele>399.0</ele><time>2026-04-24T16:03:34Z</time></trkpt><trkpt lat="42.22012072507929" lon="12.093808791214371"><ele>399.0</ele><time>2026-04-24T16:03:35Z</time></trkpt><trkpt lat="42.22001518632663" lon="12.093844902037276"><ele>399.0</ele><time>2026-04-24T16:03:36Z</time></trkpt><trkpt lat="42.21992762572426" lon="12.093870030790391"><ele>399.0</ele><time>2026-04-24T16:03:37Z</time></trkpt><trkpt lat="42.219835335327645" lon="12.093900658916503"><ele>399.0</ele><time>2026-04-24T16:03:38Z</time></trkpt><trkpt lat="42.219759782152444" lon="12.093938738469593"><ele>398.79999999999995</ele><time>2026-04-24T16:03:39Z</time></trkpt><trkpt lat="42.21969029756073" lon="12.093950527476345"><ele>398.59999999999997</ele><time>2026-04-24T16:03:40Z</time></trkpt><trkpt lat="42.21961618013219" lon="12.093974164181935"><ele>398.4</ele><time>2026-04-24T16:03:41Z</time></trkpt><trkpt lat="42.21953367289095" lon="12.093987008893363"><ele>398.2</ele><time>2026-04-24T16:03:42Z</time></trkpt><trkpt lat="42.21940470763498" lon="12.094034459160826"><ele>398.0</ele><time>2026-04-24T16:03:44Z</time></trkpt><trkpt lat="42.21928688930365" lon="12.094069920016006"><ele>397.99999999999994</ele><time>2026-04-24T16:03:46Z</time></trkpt><trkpt lat="42.21919768671717" lon="12.09411226975924"><ele>398.0</ele><time>2026-04-24T16:03:48Z</time></trkpt><trkpt lat="42.21912594894547" lon="12.094115935344728"><ele>398.0</ele><time>2026-04-24T16:03:50Z</time></trkpt><trkpt lat="42.21913212077225" lon="12.094015899518347"><ele>398.0</ele><time>2026-04-24T16:03:51Z</time></trkpt><trkpt lat="42.219101001066086" lon="12.093874454355005"><ele>397.99999999999994</ele><time>2026-04-24T16:03:53Z</time></trkpt><trkpt lat="42.21906552999841" lon="12.09378003493385"><ele>398.0</ele><time>2026-04-24T16:03:55Z</time></trkpt><trkpt lat="42.219058289782254" lon="12.093668395981782"><ele>398.0</ele><time>2026-04-24T16:04:57Z</time></trkpt><trkpt lat="42.2190434548709" lon="12.093572451528244"><ele>398.0</ele><time>2026-04-24T16:05:03Z</time></trkpt><trkpt lat="42.21919839540924" lon="12.093479435573402"><ele>398.0</ele><time>2026-04-24T16:05:06Z</time></trkpt><trkpt lat="42.21930104955738" lon="12.09345758105881"><ele>398.0</ele><time>2026-04-24T16:05:08Z</time></trkpt><trkpt lat="42.219377560492596" lon="12.093473451208732"><ele>398.0</ele><time>2026-04-24T16:05:09Z</time></trkpt><trkpt lat="42.21946764063939" lon="12.093540179690226"><ele>397.99999999999994</ele><time>2026-04-24T16:05:11Z</time></trkpt><trkpt lat="42.21953450342281" lon="12.0936741365191"><ele>398.0</ele><time>2026-04-24T16:05:13Z</time></trkpt><trkpt lat="42.21955195386554" lon="12.093784040424863"><ele>398.0</ele><time>2026-04-24T16:05:15Z</time></trkpt><trkpt lat="42.21956864357398" lon="12.093866749034797"><ele>398.0</ele><time>2026-04-24T16:05:17Z</time></trkpt><trkpt lat="42.21959160201362" lon="12.093975763340833"><ele>397.99999999999994</ele><time>2026-04-24T16:05:26Z</time></trkpt><trkpt lat="42.219603282947986" lon="12.094060203719042"><ele>398.0</ele><time>2026-04-24T16:05:59Z</time></trkpt><trkpt lat="42.219802323205876" lon="12.09402553663287"><ele>398.16666666666663</ele><time>2026-04-24T16:06:03Z</time></trkpt><trkpt lat="42.21986564540429" lon="12.093975378009672"><ele>398.3333333333333</ele><time>2026-04-24T16:06:04Z</time></trkpt><trkpt lat="42.21995803860596" lon="12.093945399397885"><ele>398.5</ele><time>2026-04-24T16:06:05Z</time></trkpt><trkpt lat="42.22002596018405" lon="12.093924027154763"><ele>398.66666666666663</ele><time>2026-04-24T16:06:06Z</time></trkpt><trkpt lat="42.220118256169044" lon="12.09388340508435"><ele>398.8333333333333</ele><time>2026-04-24T16:06:07Z</time></trkpt><trkpt lat="42.22022209150249" lon="12.093833645124635"><ele>399.0</ele><time>2026-04-24T16:06:08Z</time></trkpt><trkpt lat="42.2203127641613" lon="12.093791615251131"><ele>399.0</ele><time>2026-04-24T16:06:09Z</time></trkpt><trkpt lat="42.22037785864983" lon="12.093771478570035"><ele>399.0</ele><time>2026-04-24T16:06:10Z</time></trkpt><trkpt lat="42.22044811243504" lon="12.093732322910196"><ele>399.0</ele><time>2026-04-24T16:06:11Z</time></trkpt><trkpt lat="42.220523035941504" lon="12.09370278442142"><ele>399.0</ele><time>2026-04-24T16:06:12Z</time></trkpt><trkpt lat="42.22060417401683" lon="12.093662399434013"><ele>399.0</ele><time>2026-04-24T16:06:13Z</time></trkpt><trkpt lat="42.22068914246452" lon="12.093625944855289"><ele>399.0</ele><time>2026-04-24T16:06:14Z</time></trkpt><trkpt lat="42.22076755969613" lon="12.093604275401944"><ele>399.2</ele><time>2026-04-24T16:06:15Z</time></trkpt><trkpt lat="42.220862703120325" lon="12.093557146178178"><ele>399.4</ele><time>2026-04-24T16:06:16Z</time></trkpt><trkpt lat="42.22095658354427" lon="12.09352528973691"><ele>399.6</ele><time>2026-04-24T16:06:17Z</time></trkpt><trkpt lat="42.22106232270642" lon="12.093486572239085"><ele>399.8</ele><time>2026-04-24T16:06:18Z</time></trkpt><trkpt lat="42.22116686651731" lon="12.093455750080208"><ele>400.0</ele><time>2026-04-24T16:06:19Z</time></trkpt><trkpt lat="42.22125922471224" lon="12.093408940307128"><ele>400.0</ele><time>2026-04-24T16:06:20Z</time></trkpt><trkpt lat="42.221347091267226" lon="12.093367431606213"><ele>400.0</ele><time>2026-04-24T16:06:21Z</time></trkpt><trkpt lat="42.22144496157889" lon="12.093329206272134"><ele>400.0</ele><time>2026-04-24T16:06:22Z</time></trkpt><trkpt lat="42.22154917909841" lon="12.093297299842746"><ele>400.0</ele><time>2026-04-24T16:06:23Z</time></trkpt><trkpt lat="42.22165574004602" lon="12.093259573075237"><ele>400.0</ele><time>2026-04-24T16:06:24Z</time></trkpt><trkpt lat="42.221747849945636" lon="12.09320070032088"><ele>400.0</ele><time>2026-04-24T16:06:25Z</time></trkpt><trkpt lat="42.221848086426085" lon="12.09313399442227"><ele>400.0</ele><time>2026-04-24T16:06:26Z</time></trkpt><trkpt lat="42.22193500846669" lon="12.093055789354358"><ele>400.0</ele><time>2026-04-24T16:06:27Z</time></trkpt><trkpt lat="42.22202249389912" lon="12.092957560880897"><ele>400.0</ele><time>2026-04-24T16:06:28Z</time></trkpt><trkpt lat="42.22209373778897" lon="12.092860372175723"><ele>400.0</ele><time>2026-04-24T16:06:29Z</time></trkpt><trkpt lat="42.222159936666365" lon="12.092736834986805"><ele>400.0</ele><time>2026-04-24T16:06:30Z</time></trkpt><trkpt lat="42.22222889163586" lon="12.092607920526017"><ele>400.0</ele><time>2026-04-24T16:06:31Z</time></trkpt><trkpt lat="42.222292567259366" lon="12.092454763973327"><ele>400.0</ele><time>2026-04-24T16:06:32Z</time></trkpt><trkpt lat="42.22234415844372" lon="12.092303854055332"><ele>400.0</ele><time>2026-04-24T16:06:33Z</time></trkpt><trkpt lat="42.222387638002196" lon="12.092169826174864"><ele>400.2</ele><time>2026-04-24T16:06:34Z</time></trkpt><trkpt lat="42.2224344503933" lon="12.092032652257117"><ele>400.4</ele><time>2026-04-24T16:06:35Z</time></trkpt><trkpt lat="42.22248485357106" lon="12.091896664076957"><ele>400.6</ele><time>2026-04-24T16:06:36Z</time></trkpt><trkpt lat="42.22255898334157" lon="12.091778855325082"><ele>400.8</ele><time>2026-04-24T16:06:37Z</time></trkpt><trkpt lat="42.22260568721177" lon="12.091653799673724"><ele>401.0</ele><time>2026-04-24T16:06:38Z</time></trkpt><trkpt lat="42.22265361570881" lon="12.091524754631921"><ele>401.0</ele><time>2026-04-24T16:06:39Z</time></trkpt><trkpt lat="42.22270392266702" lon="12.09139669995316"><ele>401.0</ele><time>2026-04-24T16:06:40Z</time></trkpt><trkpt lat="42.22276286417836" lon="12.091250715931526"><ele>401.0</ele><time>2026-04-24T16:06:41Z</time></trkpt><trkpt lat="42.22281585532956" lon="12.091114548177728"><ele>401.0</ele><time>2026-04-24T16:06:42Z</time></trkpt><trkpt lat="42.222871586531376" lon="12.09098054375454"><ele>401.0</ele><time>2026-04-24T16:06:43Z</time></trkpt><trkpt lat="42.22292277815114" lon="12.090842742622685"><ele>401.0</ele><time>2026-04-24T16:06:44Z</time></trkpt><trkpt lat="42.22297260055529" lon="12.090689299156145"><ele>401.0</ele><time>2026-04-24T16:06:45Z</time></trkpt><trkpt lat="42.223032173387416" lon="12.090538740870201"><ele>401.0</ele><time>2026-04-24T16:06:46Z</time></trkpt><trkpt lat="42.22307785444144" lon="12.090411140227621"><ele>401.0</ele><time>2026-04-24T16:06:47Z</time></trkpt><trkpt lat="42.223139177602135" lon="12.09026562142836"><ele>401.0</ele><time>2026-04-24T16:06:48Z</time></trkpt><trkpt lat="42.22318575169506" lon="12.090141199188235"><ele>401.0</ele><time>2026-04-24T16:06:49Z</time></trkpt><trkpt lat="42.22323528210556" lon="12.090002637804487"><ele>401.0</ele><time>2026-04-24T16:06:50Z</time></trkpt><trkpt lat="42.22329205956448" lon="12.08985164111529"><ele>401.25</ele><time>2026-04-24T16:06:51Z</time></trkpt><trkpt lat="42.22334891910415" lon="12.089693859968065"><ele>401.5</ele><time>2026-04-24T16:06:52Z</time></trkpt><trkpt lat="42.223409540229085" lon="12.089554057091133"><ele>401.75</ele><time>2026-04-24T16:06:53Z</time></trkpt><trkpt lat="42.223460247226356" lon="12.089408347429194"><ele>402.0</ele><time>2026-04-24T16:06:54Z</time></trkpt><trkpt lat="42.22350616910398" lon="12.089255127069476"><ele>402.0</ele><time>2026-04-24T16:06:55Z</time></trkpt><trkpt lat="42.22354742619506" lon="12.089108094297908"><ele>402.0</ele><time>2026-04-24T16:06:56Z</time></trkpt><trkpt lat="42.22359928120099" lon="12.088972019054093"><ele>402.0</ele><time>2026-04-24T16:06:57Z</time></trkpt><trkpt lat="42.223650566764086" lon="12.088820022167644"><ele>402.0</ele><time>2026-04-24T16:06:58Z</time></trkpt><trkpt lat="42.223699919969455" lon="12.088691183217637"><ele>402.8</ele><time>2026-04-24T16:06:59Z</time></trkpt><trkpt lat="42.22375476083443" lon="12.088569801497272"><ele>403.6</ele><time>2026-04-24T16:07:00Z</time></trkpt><trkpt lat="42.22381418270766" lon="12.088444725927472"><ele>404.40000000000003</ele><time>2026-04-24T16:07:01Z</time></trkpt><trkpt lat="42.22387839459932" lon="12.088331350052533"><ele>405.20000000000005</ele><time>2026-04-24T16:07:02Z</time></trkpt><trkpt lat="42.223937889837124" lon="12.088215198672541"><ele>406.0</ele><time>2026-04-24T16:07:03Z</time></trkpt><trkpt lat="42.224008926003236" lon="12.08811414028772"><ele>406.8</ele><time>2026-04-24T16:07:04Z</time></trkpt><trkpt lat="42.22409698797682" lon="12.088011165392393"><ele>407.6</ele><time>2026-04-24T16:07:05Z</time></trkpt><trkpt lat="42.22419550384394" lon="12.08794607839018"><ele>408.4</ele><time>2026-04-24T16:07:06Z</time></trkpt><trkpt lat="42.224289697035786" lon="12.0878774805832"><ele>409.2</ele><time>2026-04-24T16:07:07Z</time></trkpt><trkpt lat="42.22438063382566" lon="12.087821342939014"><ele>410.0</ele><time>2026-04-24T16:07:08Z</time></trkpt><trkpt lat="42.22447269419403" lon="12.08778982540786"><ele>410.0</ele><time>2026-04-24T16:07:09Z</time></trkpt><trkpt lat="42.22457799882422" lon="12.087778797458146"><ele>410.0</ele><time>2026-04-24T16:07:10Z</time></trkpt><trkpt lat="42.22468833670193" lon="12.087781116109772"><ele>410.0</ele><time>2026-04-24T16:07:11Z</time></trkpt><trkpt lat="42.22480505431686" lon="12.087793840761583"><ele>410.0</ele><time>2026-04-24T16:07:12Z</time></trkpt><trkpt lat="42.22493212211168" lon="12.087813806946917"><ele>409.25</ele><time>2026-04-24T16:07:13Z</time></trkpt><trkpt lat="42.22507088682479" lon="12.087824398682029"><ele>408.5</ele><time>2026-04-24T16:07:14Z</time></trkpt><trkpt lat="42.22520447979838" lon="12.087843712357232"><ele>407.75</ele><time>2026-04-24T16:07:15Z</time></trkpt><trkpt lat="42.22532646800813" lon="12.087847964523332"><ele>407.0</ele><time>2026-04-24T16:07:16Z</time></trkpt><trkpt lat="42.22545511963469" lon="12.087851896684965"><ele>407.0</ele><time>2026-04-24T16:07:17Z</time></trkpt><trkpt lat="42.225572329662974" lon="12.087861494814327"><ele>407.0</ele><time>2026-04-24T16:07:18Z</time></trkpt><trkpt lat="42.22569467521649" lon="12.087875151086202"><ele>407.0</ele><time>2026-04-24T16:07:19Z</time></trkpt><trkpt lat="42.22581361939997" lon="12.08788325715668"><ele>407.0</ele><time>2026-04-24T16:07:20Z</time></trkpt><trkpt lat="42.225934359583285" lon="12.087894753208074"><ele>408.0</ele><time>2026-04-24T16:07:21Z</time></trkpt><trkpt lat="42.22604800142403" lon="12.087910779015171"><ele>409.0</ele><time>2026-04-24T16:07:22Z</time></trkpt><trkpt lat="42.226161283434934" lon="12.087912974116456"><ele>410.0</ele><time>2026-04-24T16:07:23Z</time></trkpt><trkpt lat="42.22627637822982" lon="12.087924389476456"><ele>411.0</ele><time>2026-04-24T16:07:24Z</time></trkpt><trkpt lat="42.22638740254778" lon="12.08792567025236"><ele>410.8</ele><time>2026-04-24T16:07:25Z</time></trkpt><trkpt lat="42.226493837639346" lon="12.087936941270497"><ele>410.6</ele><time>2026-04-24T16:07:26Z</time></trkpt><trkpt lat="42.22660260337225" lon="12.08794569900721"><ele>410.4</ele><time>2026-04-24T16:07:27Z</time></trkpt><trkpt lat="42.22671677233897" lon="12.087956246506435"><ele>410.2</ele><time>2026-04-24T16:07:28Z</time></trkpt><trkpt lat="42.226828475331644" lon="12.087961632420253"><ele>410.0</ele><time>2026-04-24T16:07:29Z</time></trkpt><trkpt lat="42.22693293927722" lon="12.087968807580461"><ele>410.0</ele><time>2026-04-24T16:07:30Z</time></trkpt><trkpt lat="42.22702663506483" lon="12.087964511012474"><ele>410.0</ele><time>2026-04-24T16:07:31Z</time></trkpt><trkpt lat="42.22714532494729" lon="12.087978134870262"><ele>410.0</ele><time>2026-04-24T16:07:32Z</time></trkpt><trkpt lat="42.2272461617089" lon="12.08797690011984"><ele>410.0</ele><time>2026-04-24T16:07:33Z</time></trkpt><trkpt lat="42.22734938479552" lon="12.087979875135934"><ele>410.0</ele><time>2026-04-24T16:07:34Z</time></trkpt><trkpt lat="42.22745353186162" lon="12.087986722817838"><ele>409.8</ele><time>2026-04-24T16:07:35Z</time></trkpt><trkpt lat="42.227550775046595" lon="12.08799716099457"><ele>409.6</ele><time>2026-04-24T16:07:36Z</time></trkpt><trkpt lat="42.22764680559463" lon="12.088002425602225"><ele>409.4</ele><time>2026-04-24T16:07:37Z</time></trkpt><trkpt lat="42.22773508652372" lon="12.088009120069175"><ele>409.2</ele><time>2026-04-24T16:07:38Z</time></trkpt><trkpt lat="42.2278311320572" lon="12.088019284457065"><ele>409.0</ele><time>2026-04-24T16:07:39Z</time></trkpt><trkpt lat="42.22792975214231" lon="12.088033334109438"><ele>409.0</ele><time>2026-04-24T16:07:40Z</time></trkpt><trkpt lat="42.228018156212876" lon="12.088058129673646"><ele>409.0</ele><time>2026-04-24T16:07:41Z</time></trkpt><trkpt lat="42.22810583906038" lon="12.088097343517918"><ele>409.0</ele><time>2026-04-24T16:07:42Z</time></trkpt><trkpt lat="42.228192609890804" lon="12.088140055907704"><ele>409.0</ele><time>2026-04-24T16:07:43Z</time></trkpt><trkpt lat="42.22827039206257" lon="12.088185779699117"><ele>409.0</ele><time>2026-04-24T16:07:44Z</time></trkpt><trkpt lat="42.228357631289455" lon="12.088244111483817"><ele>407.2</ele><time>2026-04-24T16:07:45Z</time></trkpt><trkpt lat="42.228430554967844" lon="12.088313721603587"><ele>405.4</ele><time>2026-04-24T16:07:46Z</time></trkpt><trkpt lat="42.228502648131006" lon="12.088392960215304"><ele>403.6</ele><time>2026-04-24T16:07:47Z</time></trkpt><trkpt lat="42.228563334987726" lon="12.088481262360887"><ele>401.8</ele><time>2026-04-24T16:07:48Z</time></trkpt><trkpt lat="42.22863306053833" lon="12.088599007128826"><ele>400.0</ele><time>2026-04-24T16:07:49Z</time></trkpt><trkpt lat="42.22870945719452" lon="12.088732292304204"><ele>400.0</ele><time>2026-04-24T16:07:50Z</time></trkpt><trkpt lat="42.22879062936123" lon="12.088865714274673"><ele>400.0</ele><time>2026-04-24T16:07:51Z</time></trkpt><trkpt lat="42.22889108840416" lon="12.088998066075431"><ele>400.0</ele><time>2026-04-24T16:07:52Z</time></trkpt><trkpt lat="42.22897718414476" lon="12.089125730402138"><ele>400.0</ele><time>2026-04-24T16:07:53Z</time></trkpt><trkpt lat="42.229067334702364" lon="12.089266720595099"><ele>397.5</ele><time>2026-04-24T16:07:54Z</time></trkpt><trkpt lat="42.229162886442424" lon="12.089401146997789"><ele>395.0</ele><time>2026-04-24T16:07:55Z</time></trkpt><trkpt lat="42.22926219739457" lon="12.089543530982105"><ele>392.5</ele><time>2026-04-24T16:07:56Z</time></trkpt><trkpt lat="42.22935770005199" lon="12.089671440490914"><ele>390.0</ele><time>2026-04-24T16:07:57Z</time></trkpt><trkpt lat="42.2294520550038" lon="12.0897886535099"><ele>390.0</ele><time>2026-04-24T16:07:58Z</time></trkpt><trkpt lat="42.229542711669275" lon="12.089889743591897"><ele>390.0</ele><time>2026-04-24T16:07:59Z</time></trkpt><trkpt lat="42.22963452473102" lon="12.089993378855604"><ele>390.0</ele><time>2026-04-24T16:08:00Z</time></trkpt><trkpt lat="42.229697617656214" lon="12.090123968687418"><ele>390.0</ele><time>2026-04-24T16:08:01Z</time></trkpt><trkpt lat="42.22978438018815" lon="12.090245498620732"><ele>388.4</ele><time>2026-04-24T16:08:02Z</time></trkpt><trkpt lat="42.229858156851634" lon="12.09034468165116"><ele>386.8</ele><time>2026-04-24T16:08:03Z</time></trkpt><trkpt lat="42.22992556269319" lon="12.090436636290569"><ele>385.20000000000005</ele><time>2026-04-24T16:08:04Z</time></trkpt><trkpt lat="42.22999874231287" lon="12.090532016619592"><ele>383.6</ele><time>2026-04-24T16:08:05Z</time></trkpt><trkpt lat="42.230080291231594" lon="12.090642769655137"><ele>382.0</ele><time>2026-04-24T16:08:06Z</time></trkpt><trkpt lat="42.23015119297112" lon="12.090722310195044"><ele>381.40000000000003</ele><time>2026-04-24T16:08:07Z</time></trkpt><trkpt lat="42.2302318403413" lon="12.090815660602036"><ele>380.8</ele><time>2026-04-24T16:08:08Z</time></trkpt><trkpt lat="42.23030925649475" lon="12.09089606871278"><ele>380.2</ele><time>2026-04-24T16:08:09Z</time></trkpt><trkpt lat="42.23039067136806" lon="12.091002339184833"><ele>379.6</ele><time>2026-04-24T16:08:10Z</time></trkpt><trkpt lat="42.23044878952177" lon="12.091093870557424"><ele>379.0</ele><time>2026-04-24T16:08:11Z</time></trkpt><trkpt lat="42.23051204313087" lon="12.091164929377015"><ele>379.0</ele><time>2026-04-24T16:08:12Z</time></trkpt><trkpt lat="42.230578849323265" lon="12.091239517203238"><ele>379.0</ele><time>2026-04-24T16:08:13Z</time></trkpt><trkpt lat="42.2306566605378" lon="12.091294721906896"><ele>379.0</ele><time>2026-04-24T16:08:14Z</time></trkpt><trkpt lat="42.230728990489325" lon="12.091337307453172"><ele>379.0</ele><time>2026-04-24T16:08:15Z</time></trkpt><trkpt lat="42.230827262281075" lon="12.09136803956343"><ele>379.0</ele><time>2026-04-24T16:08:16Z</time></trkpt><trkpt lat="42.23091212458611" lon="12.091385550691074"><ele>379.0</ele><time>2026-04-24T16:08:17Z</time></trkpt><trkpt lat="42.231003572007516" lon="12.091369127224523"><ele>378.75</ele><time>2026-04-24T16:08:18Z</time></trkpt><trkpt lat="42.23109950802956" lon="12.091308538076346"><ele>378.5</ele><time>2026-04-24T16:08:19Z</time></trkpt><trkpt lat="42.23120645524944" lon="12.091252484246702"><ele>378.25</ele><time>2026-04-24T16:08:20Z</time></trkpt><trkpt lat="42.23132160563546" lon="12.091174185058248"><ele>378.0</ele><time>2026-04-24T16:08:21Z</time></trkpt><trkpt lat="42.231443974491725" lon="12.091072216045463"><ele>377.0</ele><time>2026-04-24T16:08:22Z</time></trkpt><trkpt lat="42.231589653721294" lon="12.091000453402645"><ele>376.0</ele><time>2026-04-24T16:08:23Z</time></trkpt><trkpt lat="42.23172740121585" lon="12.090902308366774"><ele>375.0</ele><time>2026-04-24T16:08:24Z</time></trkpt><trkpt lat="42.23183941488791" lon="12.090784558280225"><ele>377.5</ele><time>2026-04-24T16:08:25Z</time></trkpt><trkpt lat="42.23195765223658" lon="12.09067486537462"><ele>380.0</ele><time>2026-04-24T16:08:26Z</time></trkpt><trkpt lat="42.232066078517974" lon="12.09057444629638"><ele>382.5</ele><time>2026-04-24T16:08:27Z</time></trkpt><trkpt lat="42.232179856855105" lon="12.090491732800668"><ele>385.0</ele><time>2026-04-24T16:08:28Z</time></trkpt><trkpt lat="42.23228208287514" lon="12.090399095236315"><ele>384.0</ele><time>2026-04-24T16:08:29Z</time></trkpt><trkpt lat="42.232380503146956" lon="12.090307990927935"><ele>383.0</ele><time>2026-04-24T16:08:30Z</time></trkpt><trkpt lat="42.232464741439784" lon="12.090226449697997"><ele>382.0</ele><time>2026-04-24T16:08:31Z</time></trkpt><trkpt lat="42.23255769990147" lon="12.09014561213195"><ele>381.0</ele><time>2026-04-24T16:08:32Z</time></trkpt><trkpt lat="42.23265820222086" lon="12.090075814784642"><ele>380.0</ele><time>2026-04-24T16:08:33Z</time></trkpt><trkpt lat="42.23273672390168" lon="12.089986762307621"><ele>381.2</ele><time>2026-04-24T16:08:34Z</time></trkpt><trkpt lat="42.2328161181158" lon="12.089890328277022"><ele>382.4</ele><time>2026-04-24T16:08:35Z</time></trkpt><trkpt lat="42.232900504296964" lon="12.089775020324987"><ele>383.6</ele><time>2026-04-24T16:08:36Z</time></trkpt><trkpt lat="42.23296858742027" lon="12.089658458176313"><ele>384.8</ele><time>2026-04-24T16:08:37Z</time></trkpt><trkpt lat="42.23302482617484" lon="12.089540041446787"><ele>386.0</ele><time>2026-04-24T16:08:38Z</time></trkpt><trkpt lat="42.23309250114266" lon="12.08940476324945"><ele>385.0</ele><time>2026-04-24T16:08:39Z</time></trkpt><trkpt lat="42.233159124634156" lon="12.089280482407831"><ele>384.0</ele><time>2026-04-24T16:08:40Z</time></trkpt><trkpt lat="42.233193022907784" lon="12.089178092514942"><ele>383.0</ele><time>2026-04-24T16:08:41Z</time></trkpt><trkpt lat="42.233256278794805" lon="12.089093537077074"><ele>382.0</ele><time>2026-04-24T16:08:42Z</time></trkpt><trkpt lat="42.23331760264934" lon="12.089009735191821"><ele>381.0</ele><time>2026-04-24T16:08:43Z</time></trkpt><trkpt lat="42.23339940133737" lon="12.088937574599948"><ele>381.0</ele><time>2026-04-24T16:08:44Z</time></trkpt><trkpt lat="42.23347717847989" lon="12.08887573254844"><ele>381.0</ele><time>2026-04-24T16:08:45Z</time></trkpt><trkpt lat="42.23357773006936" lon="12.08883980646568"><ele>381.0</ele><time>2026-04-24T16:08:46Z</time></trkpt><trkpt lat="42.23371265599367" lon="12.088798298154375"><ele>381.0</ele><time>2026-04-24T16:08:47Z</time></trkpt><trkpt lat="42.23385350872981" lon="12.088765077881293"><ele>381.5</ele><time>2026-04-24T16:08:48Z</time></trkpt><trkpt lat="42.23400745682773" lon="12.08873813689439"><ele>382.0</ele><time>2026-04-24T16:08:49Z</time></trkpt><trkpt lat="42.23416016552949" lon="12.088714417436083"><ele>382.5</ele><time>2026-04-24T16:08:50Z</time></trkpt><trkpt lat="42.234296528164286" lon="12.088682065401473"><ele>383.0</ele><time>2026-04-24T16:08:51Z</time></trkpt><trkpt lat="42.23443283771775" lon="12.08864743897885"><ele>383.0</ele><time>2026-04-24T16:08:52Z</time></trkpt><trkpt lat="42.234569937677975" lon="12.08860816470657"><ele>383.0</ele><time>2026-04-24T16:08:53Z</time></trkpt><trkpt lat="42.23470533548183" lon="12.088579183480148"><ele>383.0</ele><time>2026-04-24T16:08:54Z</time></trkpt><trkpt lat="42.234836699607875" lon="12.088537033443101"><ele>383.0</ele><time>2026-04-24T16:08:55Z</time></trkpt><trkpt lat="42.23497311902366" lon="12.088486229521076"><ele>383.75</ele><time>2026-04-24T16:08:56Z</time></trkpt><trkpt lat="42.23508551687704" lon="12.088445120647684"><ele>384.5</ele><time>2026-04-24T16:08:57Z</time></trkpt><trkpt lat="42.2352157332705" lon="12.088415862808978"><ele>385.25</ele><time>2026-04-24T16:08:58Z</time></trkpt><trkpt lat="42.23534152961716" lon="12.08838305023413"><ele>386.0</ele><time>2026-04-24T16:08:59Z</time></trkpt><trkpt lat="42.2354685849773" lon="12.088343361369674"><ele>386.0</ele><time>2026-04-24T16:09:00Z</time></trkpt><trkpt lat="42.235588701986565" lon="12.0883054814642"><ele>386.0</ele><time>2026-04-24T16:09:01Z</time></trkpt><trkpt lat="42.23571214955404" lon="12.088270101624653"><ele>386.0</ele><time>2026-04-24T16:09:02Z</time></trkpt><trkpt lat="42.23582816262757" lon="12.088227191641884"><ele>386.0</ele><time>2026-04-24T16:09:03Z</time></trkpt><trkpt lat="42.235940104703225" lon="12.088200430246124"><ele>386.8</ele><time>2026-04-24T16:09:04Z</time></trkpt><trkpt lat="42.23603443877475" lon="12.088163564149296"><ele>387.6</ele><time>2026-04-24T16:09:05Z</time></trkpt><trkpt lat="42.236139717254204" lon="12.088146303117849"><ele>388.4</ele><time>2026-04-24T16:09:06Z</time></trkpt><trkpt lat="42.23622854292638" lon="12.088124544443028"><ele>389.2</ele><time>2026-04-24T16:09:07Z</time></trkpt><trkpt lat="42.23631878513291" lon="12.08810749087263"><ele>390.0</ele><time>2026-04-24T16:09:08Z</time></trkpt><trkpt lat="42.23641716741353" lon="12.088100094674077"><ele>390.2</ele><time>2026-04-24T16:09:09Z</time></trkpt><trkpt lat="42.23652853660382" lon="12.08811313727123"><ele>390.4</ele><time>2026-04-24T16:09:10Z</time></trkpt><trkpt lat="42.23662112567868" lon="12.08813499949026"><ele>390.6</ele><time>2026-04-24T16:09:11Z</time></trkpt><trkpt lat="42.236704787909666" lon="12.088169047279385"><ele>390.8</ele><time>2026-04-24T16:09:12Z</time></trkpt><trkpt lat="42.236779656325076" lon="12.088235669995566"><ele>391.0</ele><time>2026-04-24T16:09:13Z</time></trkpt><trkpt lat="42.236837880541074" lon="12.088280906697655"><ele>391.0</ele><time>2026-04-24T16:09:14Z</time></trkpt><trkpt lat="42.23691866931946" lon="12.088368831239842"><ele>391.0</ele><time>2026-04-24T16:09:15Z</time></trkpt><trkpt lat="42.237004901240255" lon="12.088480414514816"><ele>391.0</ele><time>2026-04-24T16:09:16Z</time></trkpt><trkpt lat="42.23711268737932" lon="12.088598816313244"><ele>391.0</ele><time>2026-04-24T16:09:17Z</time></trkpt><trkpt lat="42.23722547518709" lon="12.08870633646472"><ele>392.5</ele><time>2026-04-24T16:09:18Z</time></trkpt><trkpt lat="42.237334347179555" lon="12.08880693726604"><ele>394.0</ele><time>2026-04-24T16:09:19Z</time></trkpt><trkpt lat="42.23743349044843" lon="12.088912671333793"><ele>395.5</ele><time>2026-04-24T16:09:20Z</time></trkpt><trkpt lat="42.23751951350344" lon="12.0890083522989"><ele>397.0</ele><time>2026-04-24T16:09:21Z</time></trkpt><trkpt lat="42.23761384640482" lon="12.089107354008886"><ele>397.0</ele><time>2026-04-24T16:09:22Z</time></trkpt><trkpt lat="42.23771471540238" lon="12.08920015425159"><ele>397.0</ele><time>2026-04-24T16:09:23Z</time></trkpt><trkpt lat="42.237789237770734" lon="12.089276194206716"><ele>397.0</ele><time>2026-04-24T16:09:24Z</time></trkpt><trkpt lat="42.23783853175859" lon="12.08937569559835"><ele>397.0</ele><time>2026-04-24T16:09:25Z</time></trkpt><trkpt lat="42.23789964632549" lon="12.08945004935252"><ele>397.0</ele><time>2026-04-24T16:09:26Z</time></trkpt><trkpt lat="42.23796747628283" lon="12.08952271731826"><ele>397.0</ele><time>2026-04-24T16:09:27Z</time></trkpt><trkpt lat="42.23804131940812" lon="12.08956526429572"><ele>397.0</ele><time>2026-04-24T16:09:28Z</time></trkpt><trkpt lat="42.23812759512812" lon="12.089597568285107"><ele>397.0</ele><time>2026-04-24T16:09:29Z</time></trkpt><trkpt lat="42.238240059625284" lon="12.089613096945174"><ele>397.0</ele><time>2026-04-24T16:09:30Z</time></trkpt><trkpt lat="42.23835396229078" lon="12.089616740449278"><ele>397.0</ele><time>2026-04-24T16:09:31Z</time></trkpt><trkpt lat="42.238483313035424" lon="12.08962184358997"><ele>398.25</ele><time>2026-04-24T16:09:32Z</time></trkpt><trkpt lat="42.238612409865944" lon="12.089608525473018"><ele>399.5</ele><time>2026-04-24T16:09:33Z</time></trkpt><trkpt lat="42.23873687787563" lon="12.089612762714923"><ele>400.75</ele><time>2026-04-24T16:09:34Z</time></trkpt><trkpt lat="42.23885414486618" lon="12.089615180191084"><ele>402.0</ele><time>2026-04-24T16:09:35Z</time></trkpt><trkpt lat="42.23896282008707" lon="12.08963264822233"><ele>402.6</ele><time>2026-04-24T16:09:36Z</time></trkpt><trkpt lat="42.239069556040455" lon="12.089622191043834"><ele>403.20000000000005</ele><time>2026-04-24T16:09:37Z</time></trkpt><trkpt lat="42.23917528390985" lon="12.089620760763786"><ele>403.8</ele><time>2026-04-24T16:09:38Z</time></trkpt><trkpt lat="42.23927526927557" lon="12.08961557536212"><ele>404.4</ele><time>2026-04-24T16:09:39Z</time></trkpt><trkpt lat="42.23937536850441" lon="12.08961788823158"><ele>405.0</ele><time>2026-04-24T16:09:40Z</time></trkpt><trkpt lat="42.239454942785414" lon="12.089642240365096"><ele>405.0</ele><time>2026-04-24T16:09:41Z</time></trkpt><trkpt lat="42.23953392026048" lon="12.089632532383241"><ele>405.0</ele><time>2026-04-24T16:09:42Z</time></trkpt><trkpt lat="42.239616338035866" lon="12.08964708730563"><ele>405.0</ele><time>2026-04-24T16:09:43Z</time></trkpt><trkpt lat="42.23970938577104" lon="12.089626166907912"><ele>405.0</ele><time>2026-04-24T16:09:44Z</time></trkpt><trkpt lat="42.239810155114974" lon="12.089571387165364"><ele>405.0</ele><time>2026-04-24T16:09:45Z</time></trkpt><trkpt lat="42.239903719942426" lon="12.089503986312458"><ele>405.4</ele><time>2026-04-24T16:09:46Z</time></trkpt><trkpt lat="42.239994015423704" lon="12.089433577461067"><ele>405.8</ele><time>2026-04-24T16:09:47Z</time></trkpt><trkpt lat="42.2400811397578" lon="12.089363996070006"><ele>406.20000000000005</ele><time>2026-04-24T16:09:48Z</time></trkpt><trkpt lat="42.240158057526266" lon="12.08930505835793"><ele>406.6</ele><time>2026-04-24T16:09:49Z</time></trkpt><trkpt lat="42.240245126168986" lon="12.089259753787333"><ele>407.0</ele><time>2026-04-24T16:09:50Z</time></trkpt><trkpt lat="42.24034573929158" lon="12.089229822671957"><ele>407.0</ele><time>2026-04-24T16:09:51Z</time></trkpt><trkpt lat="42.240443335029354" lon="12.089220786795176"><ele>407.0</ele><time>2026-04-24T16:09:52Z</time></trkpt><trkpt lat="42.24054422793291" lon="12.089220875222727"><ele>407.0</ele><time>2026-04-24T16:09:53Z</time></trkpt><trkpt lat="42.240623951813575" lon="12.089214905181374"><ele>407.0</ele><time>2026-04-24T16:09:54Z</time></trkpt><trkpt lat="42.240703935942086" lon="12.089192851162327"><ele>407.0</ele><time>2026-04-24T16:09:55Z</time></trkpt><trkpt lat="42.24078816237238" lon="12.089150151935469"><ele>406.25</ele><time>2026-04-24T16:09:56Z</time></trkpt><trkpt lat="42.24087670009099" lon="12.089067309617477"><ele>405.5</ele><time>2026-04-24T16:09:57Z</time></trkpt><trkpt lat="42.24100277940144" lon="12.088978082350264"><ele>404.75</ele><time>2026-04-24T16:09:58Z</time></trkpt><trkpt lat="42.241097726970146" lon="12.088869424395241"><ele>404.0</ele><time>2026-04-24T16:09:59Z</time></trkpt><trkpt lat="42.241222254242246" lon="12.088755300849984"><ele>404.0</ele><time>2026-04-24T16:10:00Z</time></trkpt><trkpt lat="42.24132782717969" lon="12.088649367630703"><ele>404.0</ele><time>2026-04-24T16:10:01Z</time></trkpt><trkpt lat="42.24143505566779" lon="12.08854578593041"><ele>404.0</ele><time>2026-04-24T16:10:02Z</time></trkpt><trkpt lat="42.24155938084857" lon="12.088478024633112"><ele>404.0</ele><time>2026-04-24T16:10:03Z</time></trkpt><trkpt lat="42.241651664459454" lon="12.088394686213311"><ele>404.49999999999994</ele><time>2026-04-24T16:10:04Z</time></trkpt><trkpt lat="42.24173460923373" lon="12.08831905939489"><ele>405.0</ele><time>2026-04-24T16:10:05Z</time></trkpt><trkpt lat="42.241803554195215" lon="12.088251141312176"><ele>405.5</ele><time>2026-04-24T16:10:06Z</time></trkpt><trkpt lat="42.24186945401045" lon="12.088197064957297"><ele>406.0</ele><time>2026-04-24T16:10:07Z</time></trkpt><trkpt lat="42.241922597356975" lon="12.088143010234035"><ele>406.49999999999994</ele><time>2026-04-24T16:10:08Z</time></trkpt><trkpt lat="42.24199608058966" lon="12.088060465776048"><ele>407.0</ele><time>2026-04-24T16:10:10Z</time></trkpt><trkpt lat="42.24204925215245" lon="12.08800907943766"><ele>406.99999999999994</ele><time>2026-04-24T16:10:12Z</time></trkpt><trkpt lat="42.242112435498036" lon="12.087903871232669"><ele>407.0</ele><time>2026-04-24T16:10:14Z</time></trkpt><trkpt lat="42.24213157559716" lon="12.08781740862981"><ele>407.0</ele><time>2026-04-24T16:10:15Z</time></trkpt><trkpt lat="42.24214036800704" lon="12.08770767585565"><ele>407.0</ele><time>2026-04-24T16:10:16Z</time></trkpt><trkpt lat="42.24214425875063" lon="12.087578746975048"><ele>406.99999999999994</ele><time>2026-04-24T16:10:17Z</time></trkpt><trkpt lat="42.24216919244159" lon="12.087441240071444"><ele>407.0</ele><time>2026-04-24T16:10:18Z</time></trkpt><trkpt lat="42.24219615669492" lon="12.087286543009858"><ele>406.75</ele><time>2026-04-24T16:10:19Z</time></trkpt><trkpt lat="42.242224841404465" lon="12.08713082424187"><ele>406.5</ele><time>2026-04-24T16:10:20Z</time></trkpt><trkpt lat="42.242241470689635" lon="12.086969197778783"><ele>406.25</ele><time>2026-04-24T16:10:21Z</time></trkpt><trkpt lat="42.24225517020515" lon="12.086805836281052"><ele>406.0</ele><time>2026-04-24T16:10:22Z</time></trkpt><trkpt lat="42.242254621242374" lon="12.086637917480628"><ele>406.0</ele><time>2026-04-24T16:10:23Z</time></trkpt><trkpt lat="42.242247396607" lon="12.086444727119261"><ele>406.0</ele><time>2026-04-24T16:10:24Z</time></trkpt><trkpt lat="42.24223787179158" lon="12.086262408369883"><ele>406.0</ele><time>2026-04-24T16:10:25Z</time></trkpt><trkpt lat="42.24222324000061" lon="12.086085153442282"><ele>406.0</ele><time>2026-04-24T16:10:26Z</time></trkpt><trkpt lat="42.24220243477822" lon="12.085892214626245"><ele>406.0</ele><time>2026-04-24T16:10:27Z</time></trkpt><trkpt lat="42.24217911155" lon="12.08571864305488"><ele>406.0</ele><time>2026-04-24T16:10:28Z</time></trkpt><trkpt lat="42.242176119794955" lon="12.085512277480401"><ele>406.0</ele><time>2026-04-24T16:10:29Z</time></trkpt><trkpt lat="42.24215939189972" lon="12.085307157916056"><ele>406.0</ele><time>2026-04-24T16:10:30Z</time></trkpt><trkpt lat="42.24214275978117" lon="12.085103212710266"><ele>406.0</ele><time>2026-04-24T16:10:31Z</time></trkpt><trkpt lat="42.24212683729817" lon="12.084899412122645"><ele>406.0</ele><time>2026-04-24T16:10:32Z</time></trkpt><trkpt lat="42.242112774862385" lon="12.084697850552367"><ele>406.0</ele><time>2026-04-24T16:10:33Z</time></trkpt><trkpt lat="42.242093031614985" lon="12.084489451057731"><ele>406.0</ele><time>2026-04-24T16:10:34Z</time></trkpt><trkpt lat="42.242074715638566" lon="12.08427012595089"><ele>406.0</ele><time>2026-04-24T16:10:35Z</time></trkpt><trkpt lat="42.24205889497264" lon="12.084063979467652"><ele>406.0</ele><time>2026-04-24T16:10:36Z</time></trkpt><trkpt lat="42.24204423333042" lon="12.08387293534013"><ele>407.0</ele><time>2026-04-24T16:10:37Z</time></trkpt><trkpt lat="42.24203026994485" lon="12.083690989640575"><ele>408.0</ele><time>2026-04-24T16:10:38Z</time></trkpt><trkpt lat="42.24201666851279" lon="12.083513760253418"><ele>409.0</ele><time>2026-04-24T16:10:39Z</time></trkpt><trkpt lat="42.24200239199959" lon="12.083313636943425"><ele>410.0</ele><time>2026-04-24T16:10:40Z</time></trkpt><trkpt lat="42.24198733017981" lon="12.083136503336862"><ele>410.0</ele><time>2026-04-24T16:10:41Z</time></trkpt><trkpt lat="42.24195233164606" lon="12.082952469800682"><ele>410.0</ele><time>2026-04-24T16:10:42Z</time></trkpt><trkpt lat="42.241942408465796" lon="12.08275715683554"><ele>410.0</ele><time>2026-04-24T16:10:43Z</time></trkpt><trkpt lat="42.24191048730207" lon="12.082580639987418"><ele>410.0</ele><time>2026-04-24T16:10:44Z</time></trkpt><trkpt lat="42.24187986379876" lon="12.082411559450696"><ele>409.5</ele><time>2026-04-24T16:10:45Z</time></trkpt><trkpt lat="42.241840679779884" lon="12.082239065291912"><ele>409.0</ele><time>2026-04-24T16:10:46Z</time></trkpt><trkpt lat="42.24180159830575" lon="12.082077557496751"><ele>408.5</ele><time>2026-04-24T16:10:47Z</time></trkpt><trkpt lat="42.24175913514709" lon="12.08192168505399"><ele>408.0</ele><time>2026-04-24T16:10:48Z</time></trkpt><trkpt lat="42.241718434911895" lon="12.081763570110644"><ele>408.0</ele><time>2026-04-24T16:10:49Z</time></trkpt><trkpt lat="42.241675587758934" lon="12.081607292301785"><ele>408.0</ele><time>2026-04-24T16:10:50Z</time></trkpt><trkpt lat="42.241632830511776" lon="12.081444734476651"><ele>408.0</ele><time>2026-04-24T16:10:51Z</time></trkpt><trkpt lat="42.241598731910024" lon="12.081289014436054"><ele>408.0</ele><time>2026-04-24T16:10:52Z</time></trkpt><trkpt lat="42.24156480161132" lon="12.081138952493903"><ele>407.59999999999997</ele><time>2026-04-24T16:10:53Z</time></trkpt><trkpt lat="42.241522269310934" lon="12.081003387244841"><ele>407.2</ele><time>2026-04-24T16:10:54Z</time></trkpt><trkpt lat="42.24148027180205" lon="12.080871607262273"><ele>406.8</ele><time>2026-04-24T16:10:55Z</time></trkpt><trkpt lat="42.24143952683277" lon="12.080732588178948"><ele>406.4</ele><time>2026-04-24T16:10:56Z</time></trkpt><trkpt lat="42.241406933052495" lon="12.08060438322646"><ele>406.0</ele><time>2026-04-24T16:10:57Z</time></trkpt><trkpt lat="42.24137483594319" lon="12.080483728948236"><ele>405.0</ele><time>2026-04-24T16:10:58Z</time></trkpt><trkpt lat="42.241351102681435" lon="12.080354544773801"><ele>404.0</ele><time>2026-04-24T16:10:59Z</time></trkpt><trkpt lat="42.24133702100438" lon="12.080207012258652"><ele>403.0</ele><time>2026-04-24T16:11:00Z</time></trkpt><trkpt lat="42.24133675659" lon="12.080060916634821"><ele>402.0</ele><time>2026-04-24T16:11:01Z</time></trkpt><trkpt lat="42.241335120668744" lon="12.079923243650402"><ele>401.0</ele><time>2026-04-24T16:11:02Z</time></trkpt><trkpt lat="42.2413470931222" lon="12.079803465230784"><ele>400.20000000000005</ele><time>2026-04-24T16:11:03Z</time></trkpt><trkpt lat="42.24136376947881" lon="12.079679716738365"><ele>399.40000000000003</ele><time>2026-04-24T16:11:04Z</time></trkpt><trkpt lat="42.24138367136499" lon="12.079544039664166"><ele>398.6</ele><time>2026-04-24T16:11:05Z</time></trkpt><trkpt lat="42.24142396462024" lon="12.079427073758302"><ele>397.8</ele><time>2026-04-24T16:11:06Z</time></trkpt><trkpt lat="42.24147711340033" lon="12.079285179953864"><ele>397.0</ele><time>2026-04-24T16:11:07Z</time></trkpt><trkpt lat="42.24154303699727" lon="12.079158368700966"><ele>395.0</ele><time>2026-04-24T16:11:08Z</time></trkpt><trkpt lat="42.241591083560984" lon="12.07901307702649"><ele>393.0</ele><time>2026-04-24T16:11:09Z</time></trkpt><trkpt lat="42.24165504111643" lon="12.07887799155597"><ele>391.0</ele><time>2026-04-24T16:11:10Z</time></trkpt><trkpt lat="42.24173068792572" lon="12.078728111108491"><ele>389.0</ele><time>2026-04-24T16:11:11Z</time></trkpt><trkpt lat="42.24179942891053" lon="12.07859511902315"><ele>389.0</ele><time>2026-04-24T16:11:12Z</time></trkpt><trkpt lat="42.24187002530077" lon="12.078450045103617"><ele>389.0</ele><time>2026-04-24T16:11:13Z</time></trkpt><trkpt lat="42.24193015639177" lon="12.07830193663652"><ele>389.0</ele><time>2026-04-24T16:11:14Z</time></trkpt><trkpt lat="42.242000549057906" lon="12.078146185658017"><ele>389.0</ele><time>2026-04-24T16:11:15Z</time></trkpt><trkpt lat="42.24207308022351" lon="12.0779875648726"><ele>389.5</ele><time>2026-04-24T16:11:16Z</time></trkpt><trkpt lat="42.24214165783019" lon="12.077838148908514"><ele>390.0</ele><time>2026-04-24T16:11:17Z</time></trkpt><trkpt lat="42.24221068956594" lon="12.077689368626583"><ele>390.5</ele><time>2026-04-24T16:11:18Z</time></trkpt><trkpt lat="42.2422718922327" lon="12.077543327057779"><ele>391.0</ele><time>2026-04-24T16:11:19Z</time></trkpt><trkpt lat="42.24234593511051" lon="12.077403148458535"><ele>388.0</ele><time>2026-04-24T16:11:20Z</time></trkpt><trkpt lat="42.2424193395162" lon="12.07725580740101"><ele>385.0</ele><time>2026-04-24T16:11:21Z</time></trkpt><trkpt lat="42.242491356538544" lon="12.07711255714499"><ele>382.0</ele><time>2026-04-24T16:11:22Z</time></trkpt><trkpt lat="42.242562492276306" lon="12.076966664215487"><ele>379.0</ele><time>2026-04-24T16:11:23Z</time></trkpt><trkpt lat="42.24263287759491" lon="12.076832706856376"><ele>379.0</ele><time>2026-04-24T16:11:24Z</time></trkpt><trkpt lat="42.242695074162654" lon="12.076710107730978"><ele>379.0</ele><time>2026-04-24T16:11:25Z</time></trkpt><trkpt lat="42.24275299535419" lon="12.076587831343915"><ele>379.0</ele><time>2026-04-24T16:11:26Z</time></trkpt><trkpt lat="42.2428067580291" lon="12.07646825704888"><ele>379.0</ele><time>2026-04-24T16:11:27Z</time></trkpt><trkpt lat="42.242859421788026" lon="12.07634976588817"><ele>379.0</ele><time>2026-04-24T16:11:28Z</time></trkpt><trkpt lat="42.24290769898844" lon="12.076219021280819"><ele>378.75</ele><time>2026-04-24T16:11:29Z</time></trkpt><trkpt lat="42.24296287969437" lon="12.076074843831417"><ele>378.5</ele><time>2026-04-24T16:11:30Z</time></trkpt><trkpt lat="42.24303736802426" lon="12.07591333646759"><ele>378.25</ele><time>2026-04-24T16:11:31Z</time></trkpt><trkpt lat="42.24308755842689" lon="12.075721021553916"><ele>378.0</ele><time>2026-04-24T16:11:32Z</time></trkpt><trkpt lat="42.24312907895806" lon="12.075538440072316"><ele>375.5</ele><time>2026-04-24T16:11:33Z</time></trkpt><trkpt lat="42.24318973755715" lon="12.075382831245458"><ele>373.0</ele><time>2026-04-24T16:11:34Z</time></trkpt><trkpt lat="42.24323548961865" lon="12.07524733592908"><ele>370.5</ele><time>2026-04-24T16:11:35Z</time></trkpt><trkpt lat="42.243278671399366" lon="12.075103136141033"><ele>368.0</ele><time>2026-04-24T16:11:36Z</time></trkpt><trkpt lat="42.243310758021444" lon="12.074954011243062"><ele>368.25</ele><time>2026-04-24T16:11:37Z</time></trkpt><trkpt lat="42.24336469812886" lon="12.074803425080447"><ele>368.5</ele><time>2026-04-24T16:11:38Z</time></trkpt><trkpt lat="42.24340284140942" lon="12.074648980458592"><ele>368.75</ele><time>2026-04-24T16:11:39Z</time></trkpt><trkpt lat="42.243438158679396" lon="12.07449915632052"><ele>369.0</ele><time>2026-04-24T16:11:40Z</time></trkpt><trkpt lat="42.243470818349735" lon="12.074348863719303"><ele>369.0</ele><time>2026-04-24T16:11:41Z</time></trkpt><trkpt lat="42.243492636385064" lon="12.074189998526794"><ele>369.0</ele><time>2026-04-24T16:11:42Z</time></trkpt><trkpt lat="42.24351198568103" lon="12.074027783320929"><ele>369.0</ele><time>2026-04-24T16:11:43Z</time></trkpt><trkpt lat="42.24353673112987" lon="12.073859016689232"><ele>369.0</ele><time>2026-04-24T16:11:44Z</time></trkpt><trkpt lat="42.24356567297114" lon="12.073689674107927"><ele>369.25</ele><time>2026-04-24T16:11:45Z</time></trkpt><trkpt lat="42.24359303491363" lon="12.073534482279833"><ele>369.5</ele><time>2026-04-24T16:11:46Z</time></trkpt><trkpt lat="42.243616306919826" lon="12.073390884706408"><ele>369.75</ele><time>2026-04-24T16:11:47Z</time></trkpt><trkpt lat="42.24364178804974" lon="12.073244659768193"><ele>370.0</ele><time>2026-04-24T16:11:48Z</time></trkpt><trkpt lat="42.24365855636767" lon="12.073081927880763"><ele>370.75</ele><time>2026-04-24T16:11:49Z</time></trkpt><trkpt lat="42.24368602147146" lon="12.072929904711065"><ele>371.5</ele><time>2026-04-24T16:11:50Z</time></trkpt><trkpt lat="42.24370974609834" lon="12.072776527337052"><ele>372.25</ele><time>2026-04-24T16:11:51Z</time></trkpt><trkpt lat="42.24373835657737" lon="12.07262650435003"><ele>373.0</ele><time>2026-04-24T16:11:52Z</time></trkpt><trkpt lat="42.24376061024394" lon="12.07248410020143"><ele>373.2</ele><time>2026-04-24T16:11:53Z</time></trkpt><trkpt lat="42.243782933095346" lon="12.072351874871316"><ele>373.4</ele><time>2026-04-24T16:11:54Z</time></trkpt><trkpt lat="42.24380097337104" lon="12.072222879997211"><ele>373.59999999999997</ele><time>2026-04-24T16:11:55Z</time></trkpt><trkpt lat="42.2438241944194" lon="12.072094276596005"><ele>373.79999999999995</ele><time>2026-04-24T16:11:56Z</time></trkpt><trkpt lat="42.243846624006025" lon="12.07196341926355"><ele>374.0</ele><time>2026-04-24T16:11:57Z</time></trkpt><trkpt lat="42.24388273258744" lon="12.071830552888823"><ele>374.0</ele><time>2026-04-24T16:11:58Z</time></trkpt><trkpt lat="42.24393449417254" lon="12.071705040208231"><ele>374.0</ele><time>2026-04-24T16:11:59Z</time></trkpt><trkpt lat="42.24399113306559" lon="12.071577500770001"><ele>374.0</ele><time>2026-04-24T16:12:00Z</time></trkpt><trkpt lat="42.244068654890405" lon="12.071456398840603"><ele>374.0</ele><time>2026-04-24T16:12:01Z</time></trkpt><trkpt lat="42.2441741096232" lon="12.071325749770184"><ele>368.6666666666667</ele><time>2026-04-24T16:12:02Z</time></trkpt><trkpt lat="42.244301346743896" lon="12.07120125316245"><ele>363.3333333333333</ele><time>2026-04-24T16:12:03Z</time></trkpt><trkpt lat="42.24442539292081" lon="12.071058044515198"><ele>358.0</ele><time>2026-04-24T16:12:04Z</time></trkpt><trkpt lat="42.24453683060757" lon="12.070928318644366"><ele>358.0</ele><time>2026-04-24T16:12:05Z</time></trkpt><trkpt lat="42.24464311826639" lon="12.07081515957318"><ele>358.0</ele><time>2026-04-24T16:12:06Z</time></trkpt><trkpt lat="42.24474557000927" lon="12.070691588889702"><ele>358.0</ele><time>2026-04-24T16:12:07Z</time></trkpt><trkpt lat="42.24484114019312" lon="12.070577869617345"><ele>358.0</ele><time>2026-04-24T16:12:08Z</time></trkpt><trkpt lat="42.2449372654827" lon="12.070461162314759"><ele>355.75</ele><time>2026-04-24T16:12:09Z</time></trkpt><trkpt lat="42.24503948055883" lon="12.070352938347417"><ele>353.5</ele><time>2026-04-24T16:12:10Z</time></trkpt><trkpt lat="42.245130450978095" lon="12.070249446605207"><ele>351.25</ele><time>2026-04-24T16:12:11Z</time></trkpt><trkpt lat="42.2452268035301" lon="12.070150372539105"><ele>349.0</ele><time>2026-04-24T16:12:12Z</time></trkpt><trkpt lat="42.24533026564406" lon="12.0700632440465"><ele>349.0</ele><time>2026-04-24T16:12:13Z</time></trkpt><trkpt lat="42.24543574703067" lon="12.069983451580478"><ele>349.0</ele><time>2026-04-24T16:12:14Z</time></trkpt><trkpt lat="42.245537308904986" lon="12.06990849489799"><ele>349.0</ele><time>2026-04-24T16:12:15Z</time></trkpt><trkpt lat="42.245651687642805" lon="12.069862240756597"><ele>349.0</ele><time>2026-04-24T16:12:16Z</time></trkpt><trkpt lat="42.245757551911495" lon="12.06979117292709"><ele>347.75</ele><time>2026-04-24T16:12:17Z</time></trkpt><trkpt lat="42.245858483031014" lon="12.069730275834853"><ele>346.5</ele><time>2026-04-24T16:12:18Z</time></trkpt><trkpt lat="42.24597097550044" lon="12.069660305541811"><ele>345.25</ele><time>2026-04-24T16:12:19Z</time></trkpt><trkpt lat="42.24607516211952" lon="12.069588823967123"><ele>344.0</ele><time>2026-04-24T16:12:20Z</time></trkpt><trkpt lat="42.24618500297517" lon="12.069546155082552"><ele>344.0</ele><time>2026-04-24T16:12:21Z</time></trkpt><trkpt lat="42.246297929967945" lon="12.06949156740983"><ele>344.0</ele><time>2026-04-24T16:12:22Z</time></trkpt><trkpt lat="42.2464178998625" lon="12.0694426912915"><ele>344.0</ele><time>2026-04-24T16:12:23Z</time></trkpt><trkpt lat="42.24654085388043" lon="12.069397913838127"><ele>344.0</ele><time>2026-04-24T16:12:24Z</time></trkpt><trkpt lat="42.24665861683499" lon="12.069346060116198"><ele>344.5</ele><time>2026-04-24T16:12:25Z</time></trkpt><trkpt lat="42.24677698127378" lon="12.069297279085808"><ele>345.0</ele><time>2026-04-24T16:12:26Z</time></trkpt><trkpt lat="42.24689692589744" lon="12.06924375496988"><ele>345.5</ele><time>2026-04-24T16:12:27Z</time></trkpt><trkpt lat="42.247003679201825" lon="12.06920137170259"><ele>346.0</ele><time>2026-04-24T16:12:28Z</time></trkpt><trkpt lat="42.24710673417217" lon="12.06915887871404"><ele>345.25</ele><time>2026-04-24T16:12:29Z</time></trkpt><trkpt lat="42.247205310855314" lon="12.06910853971212"><ele>344.5</ele><time>2026-04-24T16:12:30Z</time></trkpt><trkpt lat="42.247317953216935" lon="12.069069115261232"><ele>343.75</ele><time>2026-04-24T16:12:31Z</time></trkpt><trkpt lat="42.247425482150895" lon="12.068981295441965"><ele>343.0</ele><time>2026-04-24T16:12:32Z</time></trkpt><trkpt lat="42.24752411587934" lon="12.06886911488826"><ele>343.0</ele><time>2026-04-24T16:12:33Z</time></trkpt><trkpt lat="42.24760921175975" lon="12.068776832000259"><ele>343.0</ele><time>2026-04-24T16:12:34Z</time></trkpt><trkpt lat="42.2476955520137" lon="12.068681697531956"><ele>343.0</ele><time>2026-04-24T16:12:35Z</time></trkpt><trkpt lat="42.247779879338324" lon="12.06858878101149"><ele>343.0</ele><time>2026-04-24T16:12:36Z</time></trkpt><trkpt lat="42.24786130567964" lon="12.068512242277762"><ele>343.0</ele><time>2026-04-24T16:12:37Z</time></trkpt><trkpt lat="42.24794024132264" lon="12.068429856550273"><ele>343.0</ele><time>2026-04-24T16:12:38Z</time></trkpt><trkpt lat="42.24804668813456" lon="12.068370883250509"><ele>343.0</ele><time>2026-04-24T16:12:39Z</time></trkpt><trkpt lat="42.24814227089088" lon="12.068302488103127"><ele>343.0</ele><time>2026-04-24T16:12:40Z</time></trkpt><trkpt lat="42.24823984626209" lon="12.068244373462244"><ele>343.0</ele><time>2026-04-24T16:12:41Z</time></trkpt><trkpt lat="42.248316062644065" lon="12.068164207982562"><ele>343.0</ele><time>2026-04-24T16:12:42Z</time></trkpt><trkpt lat="42.24841437144629" lon="12.06808311459678"><ele>342.0</ele><time>2026-04-24T16:12:43Z</time></trkpt><trkpt lat="42.24852348063519" lon="12.068016731405866"><ele>341.0</ele><time>2026-04-24T16:12:44Z</time></trkpt><trkpt lat="42.24862639733798" lon="12.067954350688726"><ele>340.0</ele><time>2026-04-24T16:12:45Z</time></trkpt><trkpt lat="42.24867567128416" lon="12.067843184586232"><ele>339.0</ele><time>2026-04-24T16:12:46Z</time></trkpt><trkpt lat="42.24877287370621" lon="12.067790636140412"><ele>338.0</ele><time>2026-04-24T16:12:47Z</time></trkpt><trkpt lat="42.24884226926674" lon="12.067699757346135"><ele>338.0</ele><time>2026-04-24T16:12:48Z</time></trkpt><trkpt lat="42.24892867433098" lon="12.067650566634185"><ele>338.0</ele><time>2026-04-24T16:12:49Z</time></trkpt><trkpt lat="42.24900122894156" lon="12.067603386195923"><ele>338.0</ele><time>2026-04-24T16:12:50Z</time></trkpt><trkpt lat="42.24907287895647" lon="12.067530169520342"><ele>338.0</ele><time>2026-04-24T16:12:51Z</time></trkpt><trkpt lat="42.24914535149163" lon="12.067492838215479"><ele>338.0</ele><time>2026-04-24T16:12:52Z</time></trkpt><trkpt lat="42.249218072065595" lon="12.067439988238416"><ele>338.0</ele><time>2026-04-24T16:12:53Z</time></trkpt><trkpt lat="42.24929336170478" lon="12.067389264645652"><ele>337.5</ele><time>2026-04-24T16:12:54Z</time></trkpt><trkpt lat="42.249365072875726" lon="12.067358120094674"><ele>337.0</ele><time>2026-04-24T16:12:55Z</time></trkpt><trkpt lat="42.2493992321511" lon="12.06728394779674"><ele>336.5</ele><time>2026-04-24T16:12:56Z</time></trkpt><trkpt lat="42.24948955643771" lon="12.06720916565907"><ele>336.0</ele><time>2026-04-24T16:12:58Z</time></trkpt><trkpt lat="42.24954332807628" lon="12.067162419945479"><ele>335.5</ele><time>2026-04-24T16:12:59Z</time></trkpt><trkpt lat="42.24961476566914" lon="12.067031099744232"><ele>335.0</ele><time>2026-04-24T16:13:01Z</time></trkpt><trkpt lat="42.249642101717484" lon="12.0669108251129"><ele>335.0</ele><time>2026-04-24T16:13:02Z</time></trkpt><trkpt lat="42.24966295717904" lon="12.066803487291489"><ele>335.0</ele><time>2026-04-24T16:13:03Z</time></trkpt><trkpt lat="42.24969005357349" lon="12.066692816914827"><ele>335.0</ele><time>2026-04-24T16:13:04Z</time></trkpt><trkpt lat="42.249715614040944" lon="12.066573347764935"><ele>335.0</ele><time>2026-04-24T16:13:05Z</time></trkpt><trkpt lat="42.24971486979073" lon="12.06641708567834"><ele>335.0</ele><time>2026-04-24T16:13:06Z</time></trkpt><trkpt lat="42.249724037885585" lon="12.066272642766732"><ele>335.0</ele><time>2026-04-24T16:13:07Z</time></trkpt><trkpt lat="42.24972012593062" lon="12.066127204864388"><ele>335.0</ele><time>2026-04-24T16:13:08Z</time></trkpt><trkpt lat="42.24970886678289" lon="12.065988691796496"><ele>335.0</ele><time>2026-04-24T16:13:09Z</time></trkpt><trkpt lat="42.24970103195553" lon="12.065838124653917"><ele>335.0</ele><time>2026-04-24T16:13:10Z</time></trkpt><trkpt lat="42.249684616362664" lon="12.065676799183306"><ele>335.0</ele><time>2026-04-24T16:13:11Z</time></trkpt><trkpt lat="42.24968234031859" lon="12.065500752208038"><ele>335.0</ele><time>2026-04-24T16:13:12Z</time></trkpt><trkpt lat="42.249664678032595" lon="12.065305991719107"><ele>335.0</ele><time>2026-04-24T16:13:13Z</time></trkpt><trkpt lat="42.249648812898315" lon="12.06514010543088"><ele>335.0</ele><time>2026-04-24T16:13:14Z</time></trkpt><trkpt lat="42.24963874659155" lon="12.06497397156599"><ele>335.0</ele><time>2026-04-24T16:13:15Z</time></trkpt><trkpt lat="42.24963044258278" lon="12.064805474083158"><ele>335.25</ele><time>2026-04-24T16:13:16Z</time></trkpt><trkpt lat="42.24961528608111" lon="12.064613743946248"><ele>335.5</ele><time>2026-04-24T16:13:17Z</time></trkpt><trkpt lat="42.2496115849233" lon="12.064422333488528"><ele>335.75</ele><time>2026-04-24T16:13:18Z</time></trkpt><trkpt lat="42.24960386248855" lon="12.064228200310163"><ele>336.0</ele><time>2026-04-24T16:13:19Z</time></trkpt><trkpt lat="42.249603749734604" lon="12.064034932754328"><ele>336.0</ele><time>2026-04-24T16:13:20Z</time></trkpt><trkpt lat="42.24959211673645" lon="12.063839510101884"><ele>336.0</ele><time>2026-04-24T16:13:21Z</time></trkpt><trkpt lat="42.24959225984153" lon="12.063650050528008"><ele>336.0</ele><time>2026-04-24T16:13:22Z</time></trkpt><trkpt lat="42.24958546380157" lon="12.063462240454536"><ele>336.0</ele><time>2026-04-24T16:13:23Z</time></trkpt><trkpt lat="42.24957908724659" lon="12.063256398733218"><ele>336.25</ele><time>2026-04-24T16:13:24Z</time></trkpt><trkpt lat="42.24957003349661" lon="12.063099257706416"><ele>336.5</ele><time>2026-04-24T16:13:25Z</time></trkpt><trkpt lat="42.24956695764255" lon="12.062923341936203"><ele>336.75</ele><time>2026-04-24T16:13:26Z</time></trkpt><trkpt lat="42.24954868737281" lon="12.062756057455621"><ele>337.0</ele><time>2026-04-24T16:13:27Z</time></trkpt><trkpt lat="42.249531665234436" lon="12.062581222166795"><ele>335.75</ele><time>2026-04-24T16:13:28Z</time></trkpt><trkpt lat="42.24951753180197" lon="12.062409342502061"><ele>334.5</ele><time>2026-04-24T16:13:29Z</time></trkpt><trkpt lat="42.249489801333596" lon="12.062241043735543"><ele>333.25</ele><time>2026-04-24T16:13:30Z</time></trkpt><trkpt lat="42.249467063363824" lon="12.062072359652566"><ele>332.0</ele><time>2026-04-24T16:13:31Z</time></trkpt><trkpt lat="42.249446253781194" lon="12.061894302314295"><ele>332.0</ele><time>2026-04-24T16:13:32Z</time></trkpt><trkpt lat="42.24943308031548" lon="12.061745509090159"><ele>332.0</ele><time>2026-04-24T16:13:33Z</time></trkpt><trkpt lat="42.249432256591135" lon="12.061603370656512"><ele>332.0</ele><time>2026-04-24T16:13:34Z</time></trkpt><trkpt lat="42.2494334808506" lon="12.06147950681093"><ele>332.0</ele><time>2026-04-24T16:13:35Z</time></trkpt><trkpt lat="42.24943362004954" lon="12.061335675595036"><ele>332.0</ele><time>2026-04-24T16:13:36Z</time></trkpt><trkpt lat="42.24943585988701" lon="12.061197083062709"><ele>332.8</ele><time>2026-04-24T16:13:37Z</time></trkpt><trkpt lat="42.24944028859875" lon="12.061076688548832"><ele>333.6</ele><time>2026-04-24T16:13:38Z</time></trkpt><trkpt lat="42.249457458689164" lon="12.060933767522439"><ele>334.40000000000003</ele><time>2026-04-24T16:13:39Z</time></trkpt><trkpt lat="42.24948840913493" lon="12.060822282721396"><ele>335.20000000000005</ele><time>2026-04-24T16:13:40Z</time></trkpt><trkpt lat="42.24951986292849" lon="12.060705507512868"><ele>336.0</ele><time>2026-04-24T16:13:41Z</time></trkpt><trkpt lat="42.24957944455986" lon="12.06060002998921"><ele>337.6</ele><time>2026-04-24T16:13:42Z</time></trkpt><trkpt lat="42.249658373933784" lon="12.060528630941478"><ele>339.20000000000005</ele><time>2026-04-24T16:13:43Z</time></trkpt><trkpt lat="42.24973911091757" lon="12.060480447423071"><ele>340.79999999999995</ele><time>2026-04-24T16:13:44Z</time></trkpt><trkpt lat="42.24985232677227" lon="12.060437870036404"><ele>342.4</ele><time>2026-04-24T16:13:45Z</time></trkpt><trkpt lat="42.2499842513934" lon="12.060416383242048"><ele>344.0</ele><time>2026-04-24T16:13:46Z</time></trkpt><trkpt lat="42.25012640054177" lon="12.060395483992261"><ele>344.0</ele><time>2026-04-24T16:13:47Z</time></trkpt><trkpt lat="42.2502741238201" lon="12.060386440168235"><ele>344.0</ele><time>2026-04-24T16:13:48Z</time></trkpt><trkpt lat="42.250380155829625" lon="12.060350331845523"><ele>344.0</ele><time>2026-04-24T16:13:49Z</time></trkpt><trkpt lat="42.250498093864714" lon="12.060329456690956"><ele>344.0</ele><time>2026-04-24T16:13:50Z</time></trkpt><trkpt lat="42.25061647635994" lon="12.060316271826942"><ele>343.5</ele><time>2026-04-24T16:13:51Z</time></trkpt><trkpt lat="42.25075037907234" lon="12.060296535178782"><ele>343.0</ele><time>2026-04-24T16:13:52Z</time></trkpt><trkpt lat="42.250884194418234" lon="12.060284285518923"><ele>342.5</ele><time>2026-04-24T16:13:53Z</time></trkpt><trkpt lat="42.25098917515231" lon="12.060255324994966"><ele>342.0</ele><time>2026-04-24T16:13:54Z</time></trkpt><trkpt lat="42.25110590320778" lon="12.060232884394242"><ele>342.0</ele><time>2026-04-24T16:13:55Z</time></trkpt><trkpt lat="42.25122007874745" lon="12.060209629400369"><ele>342.0</ele><time>2026-04-24T16:13:56Z</time></trkpt><trkpt lat="42.25132898786885" lon="12.060192360698478"><ele>342.0</ele><time>2026-04-24T16:13:57Z</time></trkpt><trkpt lat="42.25142511097055" lon="12.060183471972243"><ele>342.0</ele><time>2026-04-24T16:13:58Z</time></trkpt><trkpt lat="42.251533224187106" lon="12.060181107344068"><ele>342.0</ele><time>2026-04-24T16:13:59Z</time></trkpt><trkpt lat="42.25163280555318" lon="12.06016951744593"><ele>341.0</ele><time>2026-04-24T16:14:00Z</time></trkpt><trkpt lat="42.25173222037245" lon="12.060161352244664"><ele>340.0</ele><time>2026-04-24T16:14:01Z</time></trkpt><trkpt lat="42.251833761067495" lon="12.060140071041547"><ele>339.0</ele><time>2026-04-24T16:14:02Z</time></trkpt><trkpt lat="42.25193404340123" lon="12.060107726215934"><ele>338.0</ele><time>2026-04-24T16:14:03Z</time></trkpt><trkpt lat="42.25203353089545" lon="12.060054266079772"><ele>337.0</ele><time>2026-04-24T16:14:04Z</time></trkpt><trkpt lat="42.25212463870183" lon="12.059991538521572"><ele>337.20000000000005</ele><time>2026-04-24T16:14:05Z</time></trkpt><trkpt lat="42.25220983913064" lon="12.059908602102047"><ele>337.4</ele><time>2026-04-24T16:14:06Z</time></trkpt><trkpt lat="42.25228406706343" lon="12.059819136785547"><ele>337.6</ele><time>2026-04-24T16:14:07Z</time></trkpt><trkpt lat="42.25235986882373" lon="12.05972954120018"><ele>337.79999999999995</ele><time>2026-04-24T16:14:08Z</time></trkpt><trkpt lat="42.25242560557787" lon="12.059624606852642"><ele>338.0</ele><time>2026-04-24T16:14:09Z</time></trkpt><trkpt lat="42.252488736648225" lon="12.0594976129567"><ele>338.0</ele><time>2026-04-24T16:14:10Z</time></trkpt><trkpt lat="42.2525321304013" lon="12.059373576273897"><ele>338.0</ele><time>2026-04-24T16:14:11Z</time></trkpt><trkpt lat="42.25260014218701" lon="12.059245317766823"><ele>338.0</ele><time>2026-04-24T16:14:12Z</time></trkpt><trkpt lat="42.25266581748844" lon="12.059113949558034"><ele>338.0</ele><time>2026-04-24T16:14:13Z</time></trkpt><trkpt lat="42.252707017025486" lon="12.058995963351892"><ele>338.0</ele><time>2026-04-24T16:14:14Z</time></trkpt><trkpt lat="42.25275888992099" lon="12.058876197566601"><ele>339.75</ele><time>2026-04-24T16:14:15Z</time></trkpt><trkpt lat="42.25282123503128" lon="12.058738337462303"><ele>341.5</ele><time>2026-04-24T16:14:16Z</time></trkpt><trkpt lat="42.25285873455897" lon="12.058619304068069"><ele>343.25</ele><time>2026-04-24T16:14:17Z</time></trkpt><trkpt lat="42.252907379244625" lon="12.05847589290469"><ele>345.0</ele><time>2026-04-24T16:14:18Z</time></trkpt><trkpt lat="42.252954771211854" lon="12.058315407803788"><ele>345.5</ele><time>2026-04-24T16:14:19Z</time></trkpt><trkpt lat="42.252998110941974" lon="12.058160774624545"><ele>346.0</ele><time>2026-04-24T16:14:20Z</time></trkpt><trkpt lat="42.25308393247013" lon="12.058001109916681"><ele>346.5</ele><time>2026-04-24T16:14:21Z</time></trkpt><trkpt lat="42.25314112717564" lon="12.057850553633408"><ele>347.0</ele><time>2026-04-24T16:14:22Z</time></trkpt><trkpt lat="42.253204732297725" lon="12.057704055077076"><ele>343.75</ele><time>2026-04-24T16:14:23Z</time></trkpt><trkpt lat="42.2532656682697" lon="12.05758475388421"><ele>340.5</ele><time>2026-04-24T16:14:24Z</time></trkpt><trkpt lat="42.253339300940794" lon="12.05743464404602"><ele>337.25</ele><time>2026-04-24T16:14:25Z</time></trkpt><trkpt lat="42.25343546661605" lon="12.057329793963357"><ele>334.0</ele><time>2026-04-24T16:14:26Z</time></trkpt><trkpt lat="42.253556402651995" lon="12.05717196574652"><ele>334.0</ele><time>2026-04-24T16:14:27Z</time></trkpt><trkpt lat="42.25364982651226" lon="12.05703768569449"><ele>334.0</ele><time>2026-04-24T16:14:28Z</time></trkpt><trkpt lat="42.25375276635966" lon="12.05689206010098"><ele>334.0</ele><time>2026-04-24T16:14:29Z</time></trkpt><trkpt lat="42.25384388877607" lon="12.056770798605571"><ele>334.0</ele><time>2026-04-24T16:14:30Z</time></trkpt><trkpt lat="42.253948196599616" lon="12.056661895680453"><ele>332.75</ele><time>2026-04-24T16:14:31Z</time></trkpt><trkpt lat="42.25405097096416" lon="12.056527509267214"><ele>331.5</ele><time>2026-04-24T16:14:32Z</time></trkpt><trkpt lat="42.25412924895433" lon="12.056374708325782"><ele>330.25</ele><time>2026-04-24T16:14:33Z</time></trkpt><trkpt lat="42.25422410578529" lon="12.0562286693407"><ele>329.0</ele><time>2026-04-24T16:14:34Z</time></trkpt><trkpt lat="42.25432247174653" lon="12.056108627895151"><ele>329.0</ele><time>2026-04-24T16:14:35Z</time></trkpt><trkpt lat="42.25441521469138" lon="12.055979825980515"><ele>329.0</ele><time>2026-04-24T16:14:36Z</time></trkpt><trkpt lat="42.254532947586156" lon="12.055900181628845"><ele>329.0</ele><time>2026-04-24T16:14:37Z</time></trkpt><trkpt lat="42.25462737170372" lon="12.05577848073169"><ele>329.0</ele><time>2026-04-24T16:14:38Z</time></trkpt><trkpt lat="42.25473685455882" lon="12.055637371000657"><ele>329.5</ele><time>2026-04-24T16:14:39Z</time></trkpt><trkpt lat="42.254836454909835" lon="12.055508998588303"><ele>330.0</ele><time>2026-04-24T16:14:40Z</time></trkpt><trkpt lat="42.25492994861559" lon="12.055388344278656"><ele>330.5</ele><time>2026-04-24T16:14:41Z</time></trkpt><trkpt lat="42.255019150652956" lon="12.05527275567675"><ele>331.0</ele><time>2026-04-24T16:14:42Z</time></trkpt><trkpt lat="42.25510107587375" lon="12.055166596423255"><ele>331.0</ele><time>2026-04-24T16:14:43Z</time></trkpt><trkpt lat="42.25517045728288" lon="12.055045801176147"><ele>331.0</ele><time>2026-04-24T16:14:44Z</time></trkpt><trkpt lat="42.255251862078694" lon="12.054933095985161"><ele>331.0</ele><time>2026-04-24T16:14:45Z</time></trkpt><trkpt lat="42.25533528581858" lon="12.054840936442162"><ele>331.0</ele><time>2026-04-24T16:14:46Z</time></trkpt><trkpt lat="42.25539178922679" lon="12.05470711494875"><ele>330.0</ele><time>2026-04-24T16:14:47Z</time></trkpt><trkpt lat="42.25545712149085" lon="12.054559009691772"><ele>329.0</ele><time>2026-04-24T16:14:48Z</time></trkpt><trkpt lat="42.25550344757683" lon="12.05440934251034"><ele>328.0</ele><time>2026-04-24T16:14:49Z</time></trkpt><trkpt lat="42.2555443580428" lon="12.05423799067215"><ele>327.0</ele><time>2026-04-24T16:14:50Z</time></trkpt><trkpt lat="42.25558343920376" lon="12.05404897004008"><ele>324.3333333333333</ele><time>2026-04-24T16:14:51Z</time></trkpt><trkpt lat="42.25561957453379" lon="12.053839383026066"><ele>321.66666666666663</ele><time>2026-04-24T16:14:52Z</time></trkpt><trkpt lat="42.255651057817005" lon="12.053618934706765"><ele>319.0</ele><time>2026-04-24T16:14:53Z</time></trkpt><trkpt lat="42.25569297079804" lon="12.053379138780148"><ele>318.0</ele><time>2026-04-24T16:14:54Z</time></trkpt><trkpt lat="42.25573401256573" lon="12.053162952924781"><ele>317.0</ele><time>2026-04-24T16:14:55Z</time></trkpt><trkpt lat="42.25577056481441" lon="12.052947668529606"><ele>316.0</ele><time>2026-04-24T16:14:56Z</time></trkpt><trkpt lat="42.255813365675806" lon="12.052704790584237"><ele>316.0</ele><time>2026-04-24T16:14:57Z</time></trkpt><trkpt lat="42.255854243586334" lon="12.052482151396044"><ele>316.0</ele><time>2026-04-24T16:14:58Z</time></trkpt><trkpt lat="42.255889452842496" lon="12.052252822496824"><ele>316.0</ele><time>2026-04-24T16:14:59Z</time></trkpt><trkpt lat="42.25593267613888" lon="12.052042145133107"><ele>316.3333333333333</ele><time>2026-04-24T16:15:00Z</time></trkpt><trkpt lat="42.25597096518837" lon="12.051832709049258"><ele>316.6666666666667</ele><time>2026-04-24T16:15:01Z</time></trkpt><trkpt lat="42.25601234283803" lon="12.051619502969034"><ele>317.0</ele><time>2026-04-24T16:15:02Z</time></trkpt><trkpt lat="42.25605022430439" lon="12.051407474765604"><ele>317.0</ele><time>2026-04-24T16:15:03Z</time></trkpt><trkpt lat="42.256079446384106" lon="12.051205441289197"><ele>317.0</ele><time>2026-04-24T16:15:04Z</time></trkpt><trkpt lat="42.25610064034888" lon="12.051008901094567"><ele>317.0</ele><time>2026-04-24T16:15:05Z</time></trkpt><trkpt lat="42.25612075498644" lon="12.050803084322792"><ele>316.33333333333337</ele><time>2026-04-24T16:15:06Z</time></trkpt><trkpt lat="42.25614653296641" lon="12.050596070353693"><ele>315.6666666666667</ele><time>2026-04-24T16:15:07Z</time></trkpt><trkpt lat="42.25617954318983" lon="12.0503895108184"><ele>315.0</ele><time>2026-04-24T16:15:08Z</time></trkpt><trkpt lat="42.25620888824059" lon="12.050182748843824"><ele>315.0</ele><time>2026-04-24T16:15:09Z</time></trkpt><trkpt lat="42.25623747502738" lon="12.049981403595025"><ele>315.0</ele><time>2026-04-24T16:15:10Z</time></trkpt><trkpt lat="42.25626199020051" lon="12.049784819558889"><ele>315.0</ele><time>2026-04-24T16:15:11Z</time></trkpt><trkpt lat="42.2563031032418" lon="12.049584137775573"><ele>314.6666666666667</ele><time>2026-04-24T16:15:12Z</time></trkpt><trkpt lat="42.256334353225974" lon="12.049375953621091"><ele>314.33333333333337</ele><time>2026-04-24T16:15:13Z</time></trkpt><trkpt lat="42.25637133152505" lon="12.04916416092943"><ele>314.0</ele><time>2026-04-24T16:15:14Z</time></trkpt><trkpt lat="42.256412212412386" lon="12.048966733310936"><ele>313.6666666666667</ele><time>2026-04-24T16:15:15Z</time></trkpt><trkpt lat="42.256443780131924" lon="12.048773836422635"><ele>313.3333333333333</ele><time>2026-04-24T16:15:16Z</time></trkpt><trkpt lat="42.2564807196245" lon="12.04856356429548"><ele>313.0</ele><time>2026-04-24T16:15:17Z</time></trkpt><trkpt lat="42.25651011684492" lon="12.048353843045183"><ele>314.0</ele><time>2026-04-24T16:15:18Z</time></trkpt><trkpt lat="42.25653999859814" lon="12.048131880844723"><ele>315.0</ele><time>2026-04-24T16:15:19Z</time></trkpt><trkpt lat="42.25656056191749" lon="12.047924387103526"><ele>316.0</ele><time>2026-04-24T16:15:20Z</time></trkpt><trkpt lat="42.256583284635276" lon="12.047716624787936"><ele>316.0</ele><time>2026-04-24T16:15:21Z</time></trkpt><trkpt lat="42.256609357152755" lon="12.047504979447023"><ele>316.0</ele><time>2026-04-24T16:15:22Z</time></trkpt><trkpt lat="42.25662258515001" lon="12.047300307976867"><ele>316.0</ele><time>2026-04-24T16:15:23Z</time></trkpt><trkpt lat="42.25664422381446" lon="12.047089294585145"><ele>316.0</ele><time>2026-04-24T16:15:24Z</time></trkpt><trkpt lat="42.25666302526377" lon="12.046880960523376"><ele>316.0</ele><time>2026-04-24T16:15:25Z</time></trkpt><trkpt lat="42.25668438786142" lon="12.046666303082487"><ele>316.0</ele><time>2026-04-24T16:15:26Z</time></trkpt><trkpt lat="42.256697686407826" lon="12.046448953363118"><ele>316.0</ele><time>2026-04-24T16:15:27Z</time></trkpt><trkpt lat="42.25672070279544" lon="12.046220930220567"><ele>316.0</ele><time>2026-04-24T16:15:28Z</time></trkpt><trkpt lat="42.25673231010551" lon="12.046017241501083"><ele>316.0</ele><time>2026-04-24T16:15:29Z</time></trkpt><trkpt lat="42.25674063057036" lon="12.04580630939321"><ele>315.66666666666663</ele><time>2026-04-24T16:15:30Z</time></trkpt><trkpt lat="42.256752334190374" lon="12.045595758507368"><ele>315.3333333333333</ele><time>2026-04-24T16:15:31Z</time></trkpt><trkpt lat="42.256777939636734" lon="12.045384015999707"><ele>315.0</ele><time>2026-04-24T16:15:32Z</time></trkpt><trkpt lat="42.25679780555897" lon="12.04517945670817"><ele>315.0</ele><time>2026-04-24T16:15:33Z</time></trkpt><trkpt lat="42.25681604005768" lon="12.044974093533373"><ele>315.0</ele><time>2026-04-24T16:15:34Z</time></trkpt><trkpt lat="42.25682816909976" lon="12.044779447192305"><ele>315.0</ele><time>2026-04-24T16:15:35Z</time></trkpt><trkpt lat="42.25685160665301" lon="12.04457349874934"><ele>314.75</ele><time>2026-04-24T16:15:36Z</time></trkpt><trkpt lat="42.256862502080466" lon="12.044382112819756"><ele>314.5</ele><time>2026-04-24T16:15:37Z</time></trkpt><trkpt lat="42.2568732728022" lon="12.044184634158933"><ele>314.25</ele><time>2026-04-24T16:15:38Z</time></trkpt><trkpt lat="42.25687814210182" lon="12.043981213897677"><ele>314.0</ele><time>2026-04-24T16:15:39Z</time></trkpt><trkpt lat="42.25689341587612" lon="12.043786986604227"><ele>313.5</ele><time>2026-04-24T16:15:40Z</time></trkpt><trkpt lat="42.256893483739745" lon="12.043594114852956"><ele>313.0</ele><time>2026-04-24T16:15:41Z</time></trkpt><trkpt lat="42.25690945746191" lon="12.04339932464462"><ele>312.5</ele><time>2026-04-24T16:15:42Z</time></trkpt><trkpt lat="42.256913467901384" lon="12.043212974804353"><ele>312.0</ele><time>2026-04-24T16:15:43Z</time></trkpt><trkpt lat="42.256927047883444" lon="12.043024313041162"><ele>312.0</ele><time>2026-04-24T16:15:44Z</time></trkpt><trkpt lat="42.256935561695556" lon="12.04283705971958"><ele>312.0</ele><time>2026-04-24T16:15:45Z</time></trkpt><trkpt lat="42.25695666745078" lon="12.042648101950627"><ele>312.0</ele><time>2026-04-24T16:15:46Z</time></trkpt><trkpt lat="42.25696656988782" lon="12.042458308596952"><ele>312.0</ele><time>2026-04-24T16:15:47Z</time></trkpt><trkpt lat="42.25697361716417" lon="12.042281118240284"><ele>312.0</ele><time>2026-04-24T16:15:48Z</time></trkpt><trkpt lat="42.25699452185585" lon="12.04210825629721"><ele>312.0</ele><time>2026-04-24T16:15:49Z</time></trkpt><trkpt lat="42.257009160776605" lon="12.041912514639378"><ele>312.0</ele><time>2026-04-24T16:15:50Z</time></trkpt><trkpt lat="42.25702298079306" lon="12.041727722796711"><ele>312.0</ele><time>2026-04-24T16:15:51Z</time></trkpt><trkpt lat="42.25703604744029" lon="12.041553004493366"><ele>312.25</ele><time>2026-04-24T16:15:52Z</time></trkpt><trkpt lat="42.25704953509871" lon="12.041372656715048"><ele>312.5</ele><time>2026-04-24T16:15:53Z</time></trkpt><trkpt lat="42.257062546680395" lon="12.041198674717556"><ele>312.75</ele><time>2026-04-24T16:15:54Z</time></trkpt><trkpt lat="42.257075150765196" lon="12.041030141485171"><ele>313.0</ele><time>2026-04-24T16:15:55Z</time></trkpt><trkpt lat="42.25708678129728" lon="12.040863891013984"><ele>313.0</ele><time>2026-04-24T16:15:56Z</time></trkpt><trkpt lat="42.257104622201346" lon="12.04070084808557"><ele>313.0</ele><time>2026-04-24T16:15:57Z</time></trkpt><trkpt lat="42.25713106229414" lon="12.040535536811152"><ele>313.0</ele><time>2026-04-24T16:15:58Z</time></trkpt><trkpt lat="42.257175221172844" lon="12.040365333708255"><ele>313.0</ele><time>2026-04-24T16:15:59Z</time></trkpt><trkpt lat="42.25723234341874" lon="12.040185538485252"><ele>313.0</ele><time>2026-04-24T16:16:00Z</time></trkpt><trkpt lat="42.257296851403744" lon="12.040027091988108"><ele>313.0</ele><time>2026-04-24T16:16:01Z</time></trkpt><trkpt lat="42.25736409041401" lon="12.039891425341182"><ele>313.0</ele><time>2026-04-24T16:16:02Z</time></trkpt><trkpt lat="42.25743085702597" lon="12.039742034059191"><ele>313.0</ele><time>2026-04-24T16:16:03Z</time></trkpt><trkpt lat="42.25750347373569" lon="12.039576650407408"><ele>313.0</ele><time>2026-04-24T16:16:04Z</time></trkpt><trkpt lat="42.25758831546865" lon="12.039404135046544"><ele>313.0</ele><time>2026-04-24T16:16:05Z</time></trkpt><trkpt lat="42.25767484032028" lon="12.039215554732893"><ele>313.0</ele><time>2026-04-24T16:16:06Z</time></trkpt><trkpt lat="42.25774949798329" lon="12.039035424717872"><ele>312.75</ele><time>2026-04-24T16:16:07Z</time></trkpt><trkpt lat="42.25781799360053" lon="12.038863396817309"><ele>312.5</ele><time>2026-04-24T16:16:08Z</time></trkpt><trkpt lat="42.25789913311683" lon="12.038691261867633"><ele>312.25</ele><time>2026-04-24T16:16:09Z</time></trkpt><trkpt lat="42.25797896669646" lon="12.03851990074111"><ele>312.0</ele><time>2026-04-24T16:16:10Z</time></trkpt><trkpt lat="42.25804979107384" lon="12.03835052482587"><ele>311.5</ele><time>2026-04-24T16:16:11Z</time></trkpt><trkpt lat="42.258123739924" lon="12.038177995871559"><ele>311.0</ele><time>2026-04-24T16:16:12Z</time></trkpt><trkpt lat="42.25820195319779" lon="12.038007810880844"><ele>310.5</ele><time>2026-04-24T16:16:13Z</time></trkpt><trkpt lat="42.25825246422181" lon="12.037853412805726"><ele>310.0</ele><time>2026-04-24T16:16:14Z</time></trkpt><trkpt lat="42.25832080223465" lon="12.037704240937725"><ele>310.0</ele><time>2026-04-24T16:16:15Z</time></trkpt><trkpt lat="42.25836977554647" lon="12.03756519794368"><ele>310.0</ele><time>2026-04-24T16:16:16Z</time></trkpt><trkpt lat="42.258416073260754" lon="12.037452910749167"><ele>310.0</ele><time>2026-04-24T16:16:17Z</time></trkpt><trkpt lat="42.25846566947244" lon="12.037348095484624"><ele>310.0</ele><time>2026-04-24T16:16:18Z</time></trkpt><trkpt lat="42.25851221696225" lon="12.037255147165228"><ele>310.0</ele><time>2026-04-24T16:16:19Z</time></trkpt><trkpt lat="42.25857695960926" lon="12.0371622503558"><ele>310.0</ele><time>2026-04-24T16:16:20Z</time></trkpt><trkpt lat="42.258636584568364" lon="12.037083405035021"><ele>310.0</ele><time>2026-04-24T16:16:21Z</time></trkpt><trkpt lat="42.25872101118668" lon="12.037006434121587"><ele>310.0</ele><time>2026-04-24T16:16:22Z</time></trkpt><trkpt lat="42.25882493676287" lon="12.036928479871559"><ele>310.0</ele><time>2026-04-24T16:16:23Z</time></trkpt><trkpt lat="42.25893850174304" lon="12.03683541716838"><ele>310.0</ele><time>2026-04-24T16:16:24Z</time></trkpt><trkpt lat="42.25901099161402" lon="12.03677146679255"><ele>310.0</ele><time>2026-04-24T16:16:25Z</time></trkpt><trkpt lat="42.2591102603702" lon="12.036682511530413"><ele>310.0</ele><time>2026-04-24T16:16:26Z</time></trkpt><trkpt lat="42.25916405618177" lon="12.03657448407291"><ele>310.0</ele><time>2026-04-24T16:16:27Z</time></trkpt><trkpt lat="42.25921724486932" lon="12.036437640698042"><ele>310.0</ele><time>2026-04-24T16:16:28Z</time></trkpt><trkpt lat="42.259257904201796" lon="12.036270854358998"><ele>310.0</ele><time>2026-04-24T16:16:29Z</time></trkpt><trkpt lat="42.259294764596454" lon="12.036075099047203"><ele>310.0</ele><time>2026-04-24T16:16:30Z</time></trkpt><trkpt lat="42.2593302925111" lon="12.035878945488825"><ele>310.0</ele><time>2026-04-24T16:16:31Z</time></trkpt><trkpt lat="42.25936271250769" lon="12.035701809755915"><ele>310.0</ele><time>2026-04-24T16:16:32Z</time></trkpt><trkpt lat="42.25941548268987" lon="12.035523496138067"><ele>309.3333333333333</ele><time>2026-04-24T16:16:33Z</time></trkpt><trkpt lat="42.25946459138975" lon="12.035330703841986"><ele>308.6666666666667</ele><time>2026-04-24T16:16:34Z</time></trkpt><trkpt lat="42.25951654606849" lon="12.035133575926746"><ele>308.0</ele><time>2026-04-24T16:16:35Z</time></trkpt><trkpt lat="42.259571894824525" lon="12.034926532580533"><ele>307.75</ele><time>2026-04-24T16:16:36Z</time></trkpt><trkpt lat="42.25962092882929" lon="12.034737641279822"><ele>307.5</ele><time>2026-04-24T16:16:37Z</time></trkpt><trkpt lat="42.25966004379036" lon="12.034589292476303"><ele>307.25</ele><time>2026-04-24T16:16:38Z</time></trkpt><trkpt lat="42.259684085094115" lon="12.03443235316622"><ele>307.0</ele><time>2026-04-24T16:16:39Z</time></trkpt><trkpt lat="42.25973698498502" lon="12.034256158664444"><ele>306.75</ele><time>2026-04-24T16:16:40Z</time></trkpt><trkpt lat="42.259780103678025" lon="12.034086324645171"><ele>306.5</ele><time>2026-04-24T16:16:41Z</time></trkpt><trkpt lat="42.259832087636376" lon="12.033893483325084"><ele>306.25</ele><time>2026-04-24T16:16:42Z</time></trkpt><trkpt lat="42.25988090023984" lon="12.033723395379777"><ele>306.0</ele><time>2026-04-24T16:16:43Z</time></trkpt><trkpt lat="42.25991581360352" lon="12.033564971670993"><ele>305.75</ele><time>2026-04-24T16:16:44Z</time></trkpt><trkpt lat="42.25995804885758" lon="12.033404744211854"><ele>305.5</ele><time>2026-04-24T16:16:45Z</time></trkpt><trkpt lat="42.26001016256192" lon="12.033260874676087"><ele>305.25</ele><time>2026-04-24T16:16:46Z</time></trkpt><trkpt lat="42.26006044044153" lon="12.033111745999825"><ele>305.0</ele><time>2026-04-24T16:16:47Z</time></trkpt><trkpt lat="42.260124514673834" lon="12.03297053410641"><ele>304.25</ele><time>2026-04-24T16:16:48Z</time></trkpt><trkpt lat="42.260197916148876" lon="12.032829675327045"><ele>303.5</ele><time>2026-04-24T16:16:49Z</time></trkpt><trkpt lat="42.26029124155704" lon="12.032686135431337"><ele>302.75</ele><time>2026-04-24T16:16:50Z</time></trkpt><trkpt lat="42.26039358743676" lon="12.032554850612566"><ele>302.0</ele><time>2026-04-24T16:16:51Z</time></trkpt><trkpt lat="42.26047928889137" lon="12.032435036145317"><ele>302.0</ele><time>2026-04-24T16:16:52Z</time></trkpt><trkpt lat="42.26055549726712" lon="12.032318203054686"><ele>302.0</ele><time>2026-04-24T16:16:53Z</time></trkpt><trkpt lat="42.26063119383246" lon="12.032168918470594"><ele>302.0</ele><time>2026-04-24T16:16:54Z</time></trkpt><trkpt lat="42.260696010100716" lon="12.032002907767273"><ele>302.0</ele><time>2026-04-24T16:16:55Z</time></trkpt><trkpt lat="42.26074150912988" lon="12.031850611045437"><ele>302.0</ele><time>2026-04-24T16:16:56Z</time></trkpt><trkpt lat="42.2607878155065" lon="12.031714665996251"><ele>302.0</ele><time>2026-04-24T16:16:57Z</time></trkpt><trkpt lat="42.26083157309092" lon="12.031577857233698"><ele>302.0</ele><time>2026-04-24T16:16:58Z</time></trkpt><trkpt lat="42.26087423125347" lon="12.03144584397883"><ele>302.0</ele><time>2026-04-24T16:16:58.999Z</time></trkpt><trkpt lat="42.260909833262104" lon="12.031325817080553"><ele>302.0</ele><time>2026-04-24T16:16:59.999Z</time></trkpt><trkpt lat="42.260922650080005" lon="12.03119851157491"><ele>301.5</ele><time>2026-04-24T16:17:00.999Z</time></trkpt><trkpt lat="42.26092359949164" lon="12.031055044857933"><ele>301.0</ele><time>2026-04-24T16:17:01.999Z</time></trkpt><trkpt lat="42.2609009404742" lon="12.030906862097451"><ele>300.5</ele><time>2026-04-24T16:17:02.999Z</time></trkpt><trkpt lat="42.260854435639416" lon="12.03074249075489"><ele>300.0</ele><time>2026-04-24T16:17:03.999Z</time></trkpt><trkpt lat="42.26080643167422" lon="12.030550264424297"><ele>299.25</ele><time>2026-04-24T16:17:04.999Z</time></trkpt><trkpt lat="42.26075047731069" lon="12.030372777257538"><ele>298.5</ele><time>2026-04-24T16:17:05.999Z</time></trkpt><trkpt lat="42.26070101805301" lon="12.030217016423684"><ele>297.75</ele><time>2026-04-24T16:17:06.999Z</time></trkpt><trkpt lat="42.260656670235015" lon="12.03007735295475"><ele>297.0</ele><time>2026-04-24T16:17:07.999Z</time></trkpt><trkpt lat="42.26061709077029" lon="12.029946498586204"><ele>298.4</ele><time>2026-04-24T16:17:08.999Z</time></trkpt><trkpt lat="42.26058059165801" lon="12.029821074355313"><ele>299.79999999999995</ele><time>2026-04-24T16:17:09.999Z</time></trkpt><trkpt lat="42.26054539696285" lon="12.029694430208213"><ele>301.2</ele><time>2026-04-24T16:17:10.999Z</time></trkpt><trkpt lat="42.26050707773868" lon="12.029569065301251"><ele>302.59999999999997</ele><time>2026-04-24T16:17:11.999Z</time></trkpt><trkpt lat="42.26049302241936" lon="12.029428965530805"><ele>304.0</ele><time>2026-04-24T16:17:12.999Z</time></trkpt><trkpt lat="42.26048701981431" lon="12.029270211427109"><ele>303.25</ele><time>2026-04-24T16:17:13.999Z</time></trkpt><trkpt lat="42.26048589666494" lon="12.029083981460113"><ele>302.5</ele><time>2026-04-24T16:17:15Z</time></trkpt><trkpt lat="42.26048697646913" lon="12.028890648271421"><ele>301.75</ele><time>2026-04-24T16:17:16Z</time></trkpt><trkpt lat="42.26049389834141" lon="12.028689007765927"><ele>301.0</ele><time>2026-04-24T16:17:17Z</time></trkpt><trkpt lat="42.260497448953686" lon="12.028491957318204"><ele>299.66666666666663</ele><time>2026-04-24T16:17:18Z</time></trkpt><trkpt lat="42.260503230424106" lon="12.028304439789446"><ele>298.3333333333333</ele><time>2026-04-24T16:17:19Z</time></trkpt><trkpt lat="42.26050913117791" lon="12.02807643190361"><ele>297.0</ele><time>2026-04-24T16:17:20Z</time></trkpt><trkpt lat="42.260516329279184" lon="12.027862479295433"><ele>297.0</ele><time>2026-04-24T16:17:21Z</time></trkpt><trkpt lat="42.260522339518324" lon="12.027650831586577"><ele>297.0</ele><time>2026-04-24T16:17:22Z</time></trkpt><trkpt lat="42.260533702126295" lon="12.027447485815268"><ele>297.0</ele><time>2026-04-24T16:17:23Z</time></trkpt><trkpt lat="42.260548327908786" lon="12.027249414967413"><ele>296.0</ele><time>2026-04-24T16:17:24Z</time></trkpt><trkpt lat="42.260552857002374" lon="12.027050065852437"><ele>295.0</ele><time>2026-04-24T16:17:25Z</time></trkpt><trkpt lat="42.26055804826338" lon="12.02685143230188"><ele>294.0</ele><time>2026-04-24T16:17:26Z</time></trkpt><trkpt lat="42.26056506789136" lon="12.026647978422549"><ele>293.0</ele><time>2026-04-24T16:17:27Z</time></trkpt><trkpt lat="42.26056910725762" lon="12.02645003355627"><ele>292.5</ele><time>2026-04-24T16:17:28Z</time></trkpt><trkpt lat="42.26056992907124" lon="12.026259101937692"><ele>292.0</ele><time>2026-04-24T16:17:29Z</time></trkpt><trkpt lat="42.260572694082676" lon="12.026065089091416"><ele>291.5</ele><time>2026-04-24T16:17:30Z</time></trkpt><trkpt lat="42.260570584568065" lon="12.025886371498578"><ele>291.0</ele><time>2026-04-24T16:17:31Z</time></trkpt><trkpt lat="42.26057917670537" lon="12.02570380951675"><ele>290.5</ele><time>2026-04-24T16:17:32Z</time></trkpt><trkpt lat="42.26058854912618" lon="12.025520205511524"><ele>290.0</ele><time>2026-04-24T16:17:33Z</time></trkpt><trkpt lat="42.260592409807266" lon="12.025333274441145"><ele>289.5</ele><time>2026-04-24T16:17:34Z</time></trkpt><trkpt lat="42.260596412140565" lon="12.025145075377644"><ele>289.0</ele><time>2026-04-24T16:17:35Z</time></trkpt><trkpt lat="42.26059878806208" lon="12.024956089227924"><ele>288.75</ele><time>2026-04-24T16:17:36Z</time></trkpt><trkpt lat="42.260604354089985" lon="12.02478076623157"><ele>288.5</ele><time>2026-04-24T16:17:37Z</time></trkpt><trkpt lat="42.260609745334115" lon="12.0246204152282"><ele>288.25</ele><time>2026-04-24T16:17:38Z</time></trkpt><trkpt lat="42.260612379341396" lon="12.024464849791507"><ele>288.0</ele><time>2026-04-24T16:17:39Z</time></trkpt><trkpt lat="42.2606333006145" lon="12.024300217951177"><ele>286.75</ele><time>2026-04-24T16:17:40Z</time></trkpt><trkpt lat="42.26063356469084" lon="12.024132963027048"><ele>285.5</ele><time>2026-04-24T16:17:41Z</time></trkpt><trkpt lat="42.26063538002553" lon="12.023973703036503"><ele>284.25</ele><time>2026-04-24T16:17:42Z</time></trkpt><trkpt lat="42.26064027964699" lon="12.023821636483532"><ele>283.0</ele><time>2026-04-24T16:17:43Z</time></trkpt><trkpt lat="42.26064250664914" lon="12.023671720495777"><ele>283.0</ele><time>2026-04-24T16:17:44Z</time></trkpt><trkpt lat="42.26064329748666" lon="12.023523424428229"><ele>283.0</ele><time>2026-04-24T16:17:45Z</time></trkpt><trkpt lat="42.260658911973536" lon="12.023376200274852"><ele>283.0</ele><time>2026-04-24T16:17:46Z</time></trkpt><trkpt lat="42.260661113406215" lon="12.023251172305605"><ele>283.0</ele><time>2026-04-24T16:17:47Z</time></trkpt><trkpt lat="42.26066595745758" lon="12.023138797901469"><ele>283.0</ele><time>2026-04-24T16:17:48Z</time></trkpt><trkpt lat="42.26066323870082" lon="12.02303888016986"><ele>283.5</ele><time>2026-04-24T16:17:49Z</time></trkpt><trkpt lat="42.260684433951404" lon="12.0229409776379"><ele>284.0</ele><time>2026-04-24T16:17:50Z</time></trkpt><trkpt lat="42.260691830974906" lon="12.02285227979622"><ele>284.5</ele><time>2026-04-24T16:17:51Z</time></trkpt><trkpt lat="42.260706841421666" lon="12.022703160869568"><ele>285.0</ele><time>2026-04-24T16:17:53Z</time></trkpt><trkpt lat="42.26071764458549" lon="12.022618281238564"><ele>285.5</ele><time>2026-04-24T16:17:55Z</time></trkpt><trkpt lat="42.26070087050227" lon="12.02250965660355"><ele>286.0</ele><time>2026-04-24T16:18:02Z</time></trkpt><trkpt lat="42.260597301785566" lon="12.022490606563164"><ele>286.6</ele><time>2026-04-24T16:18:03Z</time></trkpt><trkpt lat="42.26052322605371" lon="12.02249385235512"><ele>287.20000000000005</ele><time>2026-04-24T16:18:04Z</time></trkpt><trkpt lat="42.26043911777277" lon="12.022484291592058"><ele>287.79999999999995</ele><time>2026-04-24T16:18:05Z</time></trkpt><trkpt lat="42.26032796132646" lon="12.02246946183321"><ele>288.4</ele><time>2026-04-24T16:18:06Z</time></trkpt><trkpt lat="42.26019445202439" lon="12.022448129092504"><ele>289.0</ele><time>2026-04-24T16:18:07Z</time></trkpt><trkpt lat="42.260038394450056" lon="12.022443544922726"><ele>289.0</ele><time>2026-04-24T16:18:08Z</time></trkpt><trkpt lat="42.25988775926284" lon="12.022425830559438"><ele>289.0</ele><time>2026-04-24T16:18:09Z</time></trkpt><trkpt lat="42.259726043390245" lon="12.022398380961379"><ele>289.0</ele><time>2026-04-24T16:18:10Z</time></trkpt><trkpt lat="42.25958987605093" lon="12.022379852140569"><ele>289.75</ele><time>2026-04-24T16:18:11Z</time></trkpt><trkpt lat="42.259464413534594" lon="12.022355329754742"><ele>290.5</ele><time>2026-04-24T16:18:12Z</time></trkpt><trkpt lat="42.25934169081363" lon="12.022329785734545"><ele>291.25</ele><time>2026-04-24T16:18:13Z</time></trkpt><trkpt lat="42.25923127441235" lon="12.022330907096205"><ele>292.0</ele><time>2026-04-24T16:18:14Z</time></trkpt><trkpt lat="42.259123451505694" lon="12.022308194427357"><ele>292.0</ele><time>2026-04-24T16:18:15Z</time></trkpt><trkpt lat="42.25900009129004" lon="12.022288610194838"><ele>292.0</ele><time>2026-04-24T16:18:16Z</time></trkpt><trkpt lat="42.258895165224246" lon="12.02227363791195"><ele>292.0</ele><time>2026-04-24T16:18:17Z</time></trkpt><trkpt lat="42.25879753766093" lon="12.022257156626893"><ele>292.0</ele><time>2026-04-24T16:18:18Z</time></trkpt><trkpt lat="42.25871401252978" lon="12.022236484883635"><ele>292.0</ele><time>2026-04-24T16:18:19Z</time></trkpt><trkpt lat="42.25861908353608" lon="12.022201347593914"><ele>293.2</ele><time>2026-04-24T16:18:20Z</time></trkpt><trkpt lat="42.25852907022619" lon="12.022133278929132"><ele>294.4</ele><time>2026-04-24T16:18:21Z</time></trkpt><trkpt lat="42.25843866612151" lon="12.022063734106796"><ele>295.6</ele><time>2026-04-24T16:18:22Z</time></trkpt><trkpt lat="42.258364855862844" lon="12.021975311039148"><ele>296.8</ele><time>2026-04-24T16:18:23Z</time></trkpt><trkpt lat="42.25831408524384" lon="12.021879578738067"><ele>298.0</ele><time>2026-04-24T16:18:24Z</time></trkpt><trkpt lat="42.25827763682707" lon="12.021785466890051"><ele>298.0</ele><time>2026-04-24T16:18:25Z</time></trkpt><trkpt lat="42.2582465245306" lon="12.021668156393991"><ele>298.0</ele><time>2026-04-24T16:18:26Z</time></trkpt><trkpt lat="42.25824301522746" lon="12.021518298004937"><ele>298.0</ele><time>2026-04-24T16:18:27Z</time></trkpt><trkpt lat="42.258246018604105" lon="12.021347776299814"><ele>298.0</ele><time>2026-04-24T16:18:28Z</time></trkpt><trkpt lat="42.258251347735" lon="12.021156135478325"><ele>298.66666666666663</ele><time>2026-04-24T16:18:29Z</time></trkpt><trkpt lat="42.25825808398486" lon="12.020927352415518"><ele>299.3333333333333</ele><time>2026-04-24T16:18:30Z</time></trkpt><trkpt lat="42.2582483331764" lon="12.020710329144816"><ele>300.0</ele><time>2026-04-24T16:18:31Z</time></trkpt><trkpt lat="42.25826698746742" lon="12.02051646856572"><ele>300.5</ele><time>2026-04-24T16:18:32Z</time></trkpt><trkpt lat="42.258275190548765" lon="12.020335080565275"><ele>301.0</ele><time>2026-04-24T16:18:33Z</time></trkpt><trkpt lat="42.25828268367332" lon="12.020157341018137"><ele>301.5</ele><time>2026-04-24T16:18:34Z</time></trkpt><trkpt lat="42.25828284710225" lon="12.019980037340023"><ele>302.0</ele><time>2026-04-24T16:18:35Z</time></trkpt><trkpt lat="42.25828933445108" lon="12.019803490350629"><ele>302.25</ele><time>2026-04-24T16:18:36Z</time></trkpt><trkpt lat="42.25829308041803" lon="12.019638357511266"><ele>302.5</ele><time>2026-04-24T16:18:37Z</time></trkpt><trkpt lat="42.25829421980431" lon="12.019479789986498"><ele>302.75</ele><time>2026-04-24T16:18:38Z</time></trkpt><trkpt lat="42.258298676914464" lon="12.019320354949194"><ele>303.0</ele><time>2026-04-24T16:18:39Z</time></trkpt><trkpt lat="42.25830517915966" lon="12.019157116381157"><ele>302.75</ele><time>2026-04-24T16:18:40Z</time></trkpt><trkpt lat="42.258307921624805" lon="12.018985713440225"><ele>302.5</ele><time>2026-04-24T16:18:41Z</time></trkpt><trkpt lat="42.25829571803849" lon="12.018799242451124"><ele>302.25</ele><time>2026-04-24T16:18:42Z</time></trkpt><trkpt lat="42.258289659508144" lon="12.018599984028297"><ele>302.0</ele><time>2026-04-24T16:18:43Z</time></trkpt><trkpt lat="42.25825866143823" lon="12.018400553650565"><ele>301.25</ele><time>2026-04-24T16:18:44Z</time></trkpt><trkpt lat="42.25822434900073" lon="12.018209678041325"><ele>300.5</ele><time>2026-04-24T16:18:45Z</time></trkpt><trkpt lat="42.258188639375405" lon="12.01801921381112"><ele>299.75</ele><time>2026-04-24T16:18:46Z</time></trkpt><trkpt lat="42.25813703262378" lon="12.017834700803355"><ele>299.0</ele><time>2026-04-24T16:18:47Z</time></trkpt><trkpt lat="42.25810435816434" lon="12.01765208007685"><ele>296.75</ele><time>2026-04-24T16:18:48Z</time></trkpt><trkpt lat="42.258077005987495" lon="12.017474717012636"><ele>294.5</ele><time>2026-04-24T16:18:49Z</time></trkpt><trkpt lat="42.25804379888641" lon="12.017303847583468"><ele>292.25</ele><time>2026-04-24T16:18:50Z</time></trkpt><trkpt lat="42.25800948427973" lon="12.017135213746515"><ele>290.0</ele><time>2026-04-24T16:18:51Z</time></trkpt><trkpt lat="42.25798012098987" lon="12.016963039967388"><ele>290.0</ele><time>2026-04-24T16:18:52Z</time></trkpt><trkpt lat="42.2579650935734" lon="12.016792119321403"><ele>290.0</ele><time>2026-04-24T16:18:53Z</time></trkpt><trkpt lat="42.25793497763428" lon="12.016618372206535"><ele>290.0</ele><time>2026-04-24T16:18:54Z</time></trkpt><trkpt lat="42.25790577658682" lon="12.016452958280368"><ele>290.0</ele><time>2026-04-24T16:18:55Z</time></trkpt><trkpt lat="42.25787237078142" lon="12.016283730572699"><ele>289.0</ele><time>2026-04-24T16:18:56Z</time></trkpt><trkpt lat="42.25783189301073" lon="12.016106247102412"><ele>288.0</ele><time>2026-04-24T16:18:57Z</time></trkpt><trkpt lat="42.25779722830959" lon="12.015929455583937"><ele>287.0</ele><time>2026-04-24T16:18:58Z</time></trkpt><trkpt lat="42.25779053110888" lon="12.015751602877685"><ele>286.0</ele><time>2026-04-24T16:18:59Z</time></trkpt><trkpt lat="42.25775806616272" lon="12.015607845900622"><ele>284.5</ele><time>2026-04-24T16:19:00Z</time></trkpt><trkpt lat="42.25772820441267" lon="12.015459294304318"><ele>283.0</ele><time>2026-04-24T16:19:01Z</time></trkpt><trkpt lat="42.2576964360752" lon="12.01532802476726"><ele>281.5</ele><time>2026-04-24T16:19:02Z</time></trkpt><trkpt lat="42.25767214171967" lon="12.015163849745278"><ele>280.0</ele><time>2026-04-24T16:19:03Z</time></trkpt><trkpt lat="42.257640320514305" lon="12.015001277509008"><ele>279.5</ele><time>2026-04-24T16:19:04Z</time></trkpt><trkpt lat="42.257624093451106" lon="12.014813755966363"><ele>279.0</ele><time>2026-04-24T16:19:05Z</time></trkpt><trkpt lat="42.257583547436916" lon="12.01460592839908"><ele>278.5</ele><time>2026-04-24T16:19:06Z</time></trkpt><trkpt lat="42.257536969655085" lon="12.014425249189811"><ele>278.0</ele><time>2026-04-24T16:19:07Z</time></trkpt><trkpt lat="42.257482201826775" lon="12.014232728610434"><ele>277.0</ele><time>2026-04-24T16:19:08Z</time></trkpt><trkpt lat="42.2574242836953" lon="12.014049121998381"><ele>276.0</ele><time>2026-04-24T16:19:09Z</time></trkpt><trkpt lat="42.2573581350134" lon="12.013840072593345"><ele>275.0</ele><time>2026-04-24T16:19:10Z</time></trkpt><trkpt lat="42.25728835713018" lon="12.013634385952063"><ele>273.33333333333337</ele><time>2026-04-24T16:19:11Z</time></trkpt><trkpt lat="42.25722411275294" lon="12.013435517954758"><ele>271.6666666666667</ele><time>2026-04-24T16:19:12Z</time></trkpt><trkpt lat="42.25715739147962" lon="12.013229651883123"><ele>270.0</ele><time>2026-04-24T16:19:13Z</time></trkpt><trkpt lat="42.25709472320378" lon="12.0130273815789"><ele>269.0</ele><time>2026-04-24T16:19:14Z</time></trkpt><trkpt lat="42.25704648101984" lon="12.012816693414132"><ele>268.0</ele><time>2026-04-24T16:19:14.999Z</time></trkpt><trkpt lat="42.256984103825836" lon="12.012617974200854"><ele>267.0</ele><time>2026-04-24T16:19:15.999Z</time></trkpt><trkpt lat="42.25692584927063" lon="12.012429741287983"><ele>267.0</ele><time>2026-04-24T16:19:16.999Z</time></trkpt><trkpt lat="42.25686596349164" lon="12.01223414314273"><ele>267.0</ele><time>2026-04-24T16:19:17.999Z</time></trkpt><trkpt lat="42.256811893738224" lon="12.012057541209565"><ele>267.0</ele><time>2026-04-24T16:19:18.999Z</time></trkpt><trkpt lat="42.25675506860027" lon="12.011875827051094"><ele>267.0</ele><time>2026-04-24T16:19:19.999Z</time></trkpt><trkpt lat="42.25670211172897" lon="12.0117118228521"><ele>267.5</ele><time>2026-04-24T16:19:21Z</time></trkpt><trkpt lat="42.25665725513113" lon="12.011564554257642"><ele>268.0</ele><time>2026-04-24T16:19:22Z</time></trkpt><trkpt lat="42.25660989563458" lon="12.011408555776695"><ele>268.5</ele><time>2026-04-24T16:19:23Z</time></trkpt><trkpt lat="42.256557080998505" lon="12.011241608766296"><ele>269.0</ele><time>2026-04-24T16:19:24Z</time></trkpt><trkpt lat="42.25650543596436" lon="12.011087664451464"><ele>269.0</ele><time>2026-04-24T16:19:25Z</time></trkpt><trkpt lat="42.256453860796" lon="12.010933928399588"><ele>269.0</ele><time>2026-04-24T16:19:26Z</time></trkpt><trkpt lat="42.256403473701866" lon="12.01077140489939"><ele>269.0</ele><time>2026-04-24T16:19:27Z</time></trkpt><trkpt lat="42.25635139121941" lon="12.010599612171257"><ele>269.0</ele><time>2026-04-24T16:19:28Z</time></trkpt><trkpt lat="42.25628566738102" lon="12.010420182906955"><ele>266.33333333333337</ele><time>2026-04-24T16:19:29Z</time></trkpt><trkpt lat="42.25623761457384" lon="12.010203962783626"><ele>263.6666666666667</ele><time>2026-04-24T16:19:30Z</time></trkpt><trkpt lat="42.25621657990438" lon="12.009996015915117"><ele>261.0</ele><time>2026-04-24T16:19:31Z</time></trkpt><trkpt lat="42.256171433895325" lon="12.009825049919588"><ele>260.5</ele><time>2026-04-24T16:19:32Z</time></trkpt><trkpt lat="42.25615589932151" lon="12.009631117910278"><ele>260.0</ele><time>2026-04-24T16:19:33Z</time></trkpt><trkpt lat="42.25611299487219" lon="12.009458728956867"><ele>259.5</ele><time>2026-04-24T16:19:34Z</time></trkpt><trkpt lat="42.25608822609937" lon="12.009282314461734"><ele>259.0</ele><time>2026-04-24T16:19:35Z</time></trkpt><trkpt lat="42.25605774640227" lon="12.009121160203637"><ele>258.25</ele><time>2026-04-24T16:19:36Z</time></trkpt><trkpt lat="42.25603316122524" lon="12.008966165247164"><ele>257.5</ele><time>2026-04-24T16:19:37Z</time></trkpt><trkpt lat="42.25599623968045" lon="12.008810406029722"><ele>256.75</ele><time>2026-04-24T16:19:38Z</time></trkpt><trkpt lat="42.255958659644904" lon="12.008626331091588"><ele>256.0</ele><time>2026-04-24T16:19:39Z</time></trkpt><trkpt lat="42.25590932673166" lon="12.008450927050937"><ele>256.75</ele><time>2026-04-24T16:19:40Z</time></trkpt><trkpt lat="42.255864783323894" lon="12.008282272701273"><ele>257.5</ele><time>2026-04-24T16:19:41Z</time></trkpt><trkpt lat="42.25581339681015" lon="12.008112843318248"><ele>258.25</ele><time>2026-04-24T16:19:42Z</time></trkpt><trkpt lat="42.255755694593525" lon="12.007948889781739"><ele>259.0</ele><time>2026-04-24T16:19:43Z</time></trkpt><trkpt lat="42.25570548833643" lon="12.00779812134224"><ele>259.0</ele><time>2026-04-24T16:19:44Z</time></trkpt><trkpt lat="42.25564763331103" lon="12.007653614531725"><ele>259.0</ele><time>2026-04-24T16:19:45Z</time></trkpt><trkpt lat="42.2555930557519" lon="12.007503391560437"><ele>259.0</ele><time>2026-04-24T16:19:46Z</time></trkpt><trkpt lat="42.255525275315016" lon="12.007340627467268"><ele>259.0</ele><time>2026-04-24T16:19:47Z</time></trkpt><trkpt lat="42.25546444865942" lon="12.00718034932309"><ele>257.25</ele><time>2026-04-24T16:19:48Z</time></trkpt><trkpt lat="42.25540857495827" lon="12.007019686485927"><ele>255.5</ele><time>2026-04-24T16:19:49Z</time></trkpt><trkpt lat="42.255347964189774" lon="12.0068591207922"><ele>253.75</ele><time>2026-04-24T16:19:50Z</time></trkpt><trkpt lat="42.25529164248032" lon="12.006709917417508"><ele>252.0</ele><time>2026-04-24T16:19:51Z</time></trkpt><trkpt lat="42.25523561432769" lon="12.00656149169115"><ele>251.75</ele><time>2026-04-24T16:19:52Z</time></trkpt><trkpt lat="42.2551853737416" lon="12.00642839797343"><ele>251.5</ele><time>2026-04-24T16:19:53Z</time></trkpt><trkpt lat="42.2551337014824" lon="12.006288990675518"><ele>251.25</ele><time>2026-04-24T16:19:54Z</time></trkpt><trkpt lat="42.255079239730186" lon="12.006137994667975"><ele>251.0</ele><time>2026-04-24T16:19:55Z</time></trkpt><trkpt lat="42.255029700109965" lon="12.005994560699477"><ele>251.0</ele><time>2026-04-24T16:19:56Z</time></trkpt><trkpt lat="42.2549830437984" lon="12.005853596804265"><ele>251.0</ele><time>2026-04-24T16:19:57Z</time></trkpt><trkpt lat="42.254937965849244" lon="12.005700935571767"><ele>251.0</ele><time>2026-04-24T16:19:58Z</time></trkpt><trkpt lat="42.25489638842115" lon="12.00555194742468"><ele>251.0</ele><time>2026-04-24T16:19:59Z</time></trkpt><trkpt lat="42.25487330059222" lon="12.005394906133366"><ele>250.5</ele><time>2026-04-24T16:20:00Z</time></trkpt><trkpt lat="42.254848621275066" lon="12.005220431764641"><ele>250.0</ele><time>2026-04-24T16:20:01Z</time></trkpt><trkpt lat="42.254841846374006" lon="12.005052607238458"><ele>249.5</ele><time>2026-04-24T16:20:02Z</time></trkpt><trkpt lat="42.25485008339604" lon="12.004879668841937"><ele>249.0</ele><time>2026-04-24T16:20:03Z</time></trkpt><trkpt lat="42.254866597895784" lon="12.004683759151149"><ele>248.33333333333331</ele><time>2026-04-24T16:20:04Z</time></trkpt><trkpt lat="42.25488636091037" lon="12.004457881217974"><ele>247.66666666666666</ele><time>2026-04-24T16:20:05Z</time></trkpt><trkpt lat="42.254905167187864" lon="12.004224850125254"><ele>247.0</ele><time>2026-04-24T16:20:06Z</time></trkpt><trkpt lat="42.25492880283915" lon="12.004027524140602"><ele>245.33333333333331</ele><time>2026-04-24T16:20:07Z</time></trkpt><trkpt lat="42.25495418233479" lon="12.003815999327825"><ele>243.66666666666669</ele><time>2026-04-24T16:20:08Z</time></trkpt><trkpt lat="42.254979324151" lon="12.003618924544389"><ele>242.0</ele><time>2026-04-24T16:20:09Z</time></trkpt><trkpt lat="42.255002537751956" lon="12.003426824928182"><ele>241.0</ele><time>2026-04-24T16:20:10Z</time></trkpt><trkpt lat="42.25502492574906" lon="12.003216696711615"><ele>240.0</ele><time>2026-04-24T16:20:11Z</time></trkpt><trkpt lat="42.25505171282766" lon="12.003012591691363"><ele>239.0</ele><time>2026-04-24T16:20:12Z</time></trkpt><trkpt lat="42.25507705028508" lon="12.002812919469818"><ele>239.0</ele><time>2026-04-24T16:20:13Z</time></trkpt><trkpt lat="42.2550937805672" lon="12.002618820185248"><ele>239.0</ele><time>2026-04-24T16:20:14Z</time></trkpt><trkpt lat="42.255112500538196" lon="12.002442558075195"><ele>239.0</ele><time>2026-04-24T16:20:15Z</time></trkpt><trkpt lat="42.255134017320074" lon="12.002255967698318"><ele>239.0</ele><time>2026-04-24T16:20:16Z</time></trkpt><trkpt lat="42.255151312625955" lon="12.00207300628776"><ele>238.5</ele><time>2026-04-24T16:20:17Z</time></trkpt><trkpt lat="42.25517729667357" lon="12.001897096221898"><ele>238.0</ele><time>2026-04-24T16:20:18Z</time></trkpt><trkpt lat="42.25521011935881" lon="12.00169105208634"><ele>237.5</ele><time>2026-04-24T16:20:19Z</time></trkpt><trkpt lat="42.255249872467324" lon="12.001481278751243"><ele>237.0</ele><time>2026-04-24T16:20:20Z</time></trkpt><trkpt lat="42.255295956258934" lon="12.001273695554396"><ele>236.33333333333331</ele><time>2026-04-24T16:20:21Z</time></trkpt><trkpt lat="42.25533492304726" lon="12.001073100756841"><ele>235.66666666666666</ele><time>2026-04-24T16:20:22Z</time></trkpt><trkpt lat="42.255376941824004" lon="12.000867562569052"><ele>235.0</ele><time>2026-04-24T16:20:23Z</time></trkpt><trkpt lat="42.25542125162434" lon="12.00066695799309"><ele>234.66666666666666</ele><time>2026-04-24T16:20:24Z</time></trkpt><trkpt lat="42.25545975724351" lon="12.000474946058212"><ele>234.33333333333331</ele><time>2026-04-24T16:20:25Z</time></trkpt><trkpt lat="42.25550938092844" lon="12.000267114069919"><ele>234.0</ele><time>2026-04-24T16:20:26Z</time></trkpt><trkpt lat="42.255559820689676" lon="12.000072569940077"><ele>234.0</ele><time>2026-04-24T16:20:27Z</time></trkpt><trkpt lat="42.25560348626207" lon="11.999881753002944"><ele>234.0</ele><time>2026-04-24T16:20:28Z</time></trkpt><trkpt lat="42.25564656513036" lon="11.999702092034786"><ele>234.0</ele><time>2026-04-24T16:20:29Z</time></trkpt><trkpt lat="42.25569260338899" lon="11.999538712107855"><ele>234.0</ele><time>2026-04-24T16:20:30Z</time></trkpt><trkpt lat="42.255732795231786" lon="11.999384322126202"><ele>233.75</ele><time>2026-04-24T16:20:31Z</time></trkpt><trkpt lat="42.255776316323676" lon="11.999223670010819"><ele>233.5</ele><time>2026-04-24T16:20:32Z</time></trkpt><trkpt lat="42.25583770461455" lon="11.999046428738255"><ele>233.25</ele><time>2026-04-24T16:20:33Z</time></trkpt><trkpt lat="42.2558962162727" lon="11.998868655817567"><ele>233.0</ele><time>2026-04-24T16:20:34Z</time></trkpt><trkpt lat="42.25595491018876" lon="11.998695210428997"><ele>232.0</ele><time>2026-04-24T16:20:35Z</time></trkpt><trkpt lat="42.2560275587104" lon="11.998523237923544"><ele>231.0</ele><time>2026-04-24T16:20:36Z</time></trkpt><trkpt lat="42.25609920512637" lon="11.998357501405618"><ele>230.0</ele><time>2026-04-24T16:20:37Z</time></trkpt><trkpt lat="42.25616101668866" lon="11.998203466602797"><ele>229.0</ele><time>2026-04-24T16:20:38Z</time></trkpt><trkpt lat="42.256220714834456" lon="11.998052898755837"><ele>228.5</ele><time>2026-04-24T16:20:39Z</time></trkpt><trkpt lat="42.2562788212941" lon="11.997888675662681"><ele>228.0</ele><time>2026-04-24T16:20:40Z</time></trkpt><trkpt lat="42.25634343487396" lon="11.99769763878864"><ele>227.5</ele><time>2026-04-24T16:20:41Z</time></trkpt><trkpt lat="42.256401856635" lon="11.997498917090688"><ele>227.0</ele><time>2026-04-24T16:20:42Z</time></trkpt><trkpt lat="42.2564611812128" lon="11.99729447497515"><ele>226.75</ele><time>2026-04-24T16:20:43Z</time></trkpt><trkpt lat="42.25650969578263" lon="11.997099842519317"><ele>226.5</ele><time>2026-04-24T16:20:44Z</time></trkpt><trkpt lat="42.25656687933138" lon="11.996905938435598"><ele>226.25</ele><time>2026-04-24T16:20:45Z</time></trkpt><trkpt lat="42.25661543076512" lon="11.996735971371487"><ele>226.0</ele><time>2026-04-24T16:20:46Z</time></trkpt><trkpt lat="42.25666727995841" lon="11.996554920858959"><ele>226.0</ele><time>2026-04-24T16:20:47Z</time></trkpt><trkpt lat="42.25672568333218" lon="11.996379637690433"><ele>226.0</ele><time>2026-04-24T16:20:48Z</time></trkpt><trkpt lat="42.25678756880734" lon="11.996185586801971"><ele>226.0</ele><time>2026-04-24T16:20:49Z</time></trkpt><trkpt lat="42.256843274280314" lon="11.99601034351183"><ele>226.0</ele><time>2026-04-24T16:20:50Z</time></trkpt><trkpt lat="42.25690752714645" lon="11.995832839709504"><ele>224.25</ele><time>2026-04-24T16:20:51Z</time></trkpt><trkpt lat="42.256967898154315" lon="11.995646452681193"><ele>222.5</ele><time>2026-04-24T16:20:52Z</time></trkpt><trkpt lat="42.25704086024236" lon="11.995472103793125"><ele>220.75</ele><time>2026-04-24T16:20:53Z</time></trkpt><trkpt lat="42.25709877380903" lon="11.995297091922094"><ele>219.0</ele><time>2026-04-24T16:20:54Z</time></trkpt><trkpt lat="42.25715558752955" lon="11.995126300438672"><ele>218.75</ele><time>2026-04-24T16:20:55Z</time></trkpt><trkpt lat="42.25720332593193" lon="11.994993867769834"><ele>218.5</ele><time>2026-04-24T16:20:56Z</time></trkpt><trkpt lat="42.257264203436584" lon="11.994844681957055"><ele>218.25</ele><time>2026-04-24T16:20:57Z</time></trkpt><trkpt lat="42.257328845688626" lon="11.994694665937342"><ele>218.0</ele><time>2026-04-24T16:20:58Z</time></trkpt><trkpt lat="42.25737458680538" lon="11.994547869162652"><ele>218.25</ele><time>2026-04-24T16:20:59Z</time></trkpt><trkpt lat="42.25744999035848" lon="11.994419628581928"><ele>218.5</ele><time>2026-04-24T16:21:00Z</time></trkpt><trkpt lat="42.25750874966383" lon="11.994295721889063"><ele>218.75</ele><time>2026-04-24T16:21:01Z</time></trkpt><trkpt lat="42.25755765308147" lon="11.99414805851669"><ele>219.0</ele><time>2026-04-24T16:21:02Z</time></trkpt><trkpt lat="42.25759757072585" lon="11.99397614891424"><ele>219.0</ele><time>2026-04-24T16:21:03Z</time></trkpt><trkpt lat="42.25764785321156" lon="11.993788058610141"><ele>219.0</ele><time>2026-04-24T16:21:04Z</time></trkpt><trkpt lat="42.2576886521994" lon="11.993611278862451"><ele>219.0</ele><time>2026-04-24T16:21:05Z</time></trkpt><trkpt lat="42.25773321493485" lon="11.993440713775364"><ele>219.0</ele><time>2026-04-24T16:21:06Z</time></trkpt><trkpt lat="42.25777335040566" lon="11.993274235125957"><ele>218.0</ele><time>2026-04-24T16:21:07Z</time></trkpt><trkpt lat="42.25780632861668" lon="11.993114247336587"><ele>217.0</ele><time>2026-04-24T16:21:08Z</time></trkpt><trkpt lat="42.25784920808672" lon="11.992961249787003"><ele>216.0</ele><time>2026-04-24T16:21:09Z</time></trkpt><trkpt lat="42.25788411414291" lon="11.992803112204783"><ele>215.0</ele><time>2026-04-24T16:21:10Z</time></trkpt><trkpt lat="42.25791880826146" lon="11.99265723798238"><ele>215.0</ele><time>2026-04-24T16:21:11Z</time></trkpt><trkpt lat="42.25795097736764" lon="11.992512031431456"><ele>215.0</ele><time>2026-04-24T16:21:12Z</time></trkpt><trkpt lat="42.25798610113236" lon="11.992366231321169"><ele>215.0</ele><time>2026-04-24T16:21:13Z</time></trkpt><trkpt lat="42.25803673885988" lon="11.992232181054833"><ele>215.0</ele><time>2026-04-24T16:21:14Z</time></trkpt><trkpt lat="42.258055068938056" lon="11.992107527167695"><ele>215.0</ele><time>2026-04-24T16:21:15Z</time></trkpt><trkpt lat="42.25806449741681" lon="11.99198453047689"><ele>214.6</ele><time>2026-04-24T16:21:16Z</time></trkpt><trkpt lat="42.25806261513198" lon="11.991866804270304"><ele>214.2</ele><time>2026-04-24T16:21:17Z</time></trkpt><trkpt lat="42.25805304884284" lon="11.99174055852934"><ele>213.8</ele><time>2026-04-24T16:21:17.999Z</time></trkpt><trkpt lat="42.258030047271575" lon="11.991611568600936"><ele>213.4</ele><time>2026-04-24T16:21:18.999Z</time></trkpt><trkpt lat="42.25799253606739" lon="11.991482211940381"><ele>213.0</ele><time>2026-04-24T16:21:19.999Z</time></trkpt><trkpt lat="42.25793708167572" lon="11.99135368948975"><ele>212.5</ele><time>2026-04-24T16:21:20.999Z</time></trkpt><trkpt lat="42.25788225026008" lon="11.991213811116978"><ele>212.0</ele><time>2026-04-24T16:21:21.999Z</time></trkpt><trkpt lat="42.25780946243477" lon="11.991085051441491"><ele>211.5</ele><time>2026-04-24T16:21:22.999Z</time></trkpt><trkpt lat="42.25772695337247" lon="11.990953227877963"><ele>211.0</ele><time>2026-04-24T16:21:23.999Z</time></trkpt><trkpt lat="42.257630277844505" lon="11.99082041726642"><ele>210.5</ele><time>2026-04-24T16:21:24.999Z</time></trkpt><trkpt lat="42.2575185225461" lon="11.99068083163337"><ele>210.0</ele><time>2026-04-24T16:21:25.999Z</time></trkpt><trkpt lat="42.2574036053891" lon="11.990547349194504"><ele>209.5</ele><time>2026-04-24T16:21:27Z</time></trkpt><trkpt lat="42.257292472583174" lon="11.990424928377703"><ele>209.0</ele><time>2026-04-24T16:21:28Z</time></trkpt><trkpt lat="42.25717011256678" lon="11.990325455016166"><ele>209.0</ele><time>2026-04-24T16:21:29Z</time></trkpt><trkpt lat="42.257064619637816" lon="11.990214524855872"><ele>209.0</ele><time>2026-04-24T16:21:30Z</time></trkpt><trkpt lat="42.256962119298834" lon="11.990105353063747"><ele>209.0</ele><time>2026-04-24T16:21:31Z</time></trkpt><trkpt lat="42.256858304773004" lon="11.989992324994935"><ele>209.0</ele><time>2026-04-24T16:21:32Z</time></trkpt><trkpt lat="42.256756021931665" lon="11.989888288697461"><ele>208.75</ele><time>2026-04-24T16:21:33Z</time></trkpt><trkpt lat="42.25665858239987" lon="11.989744953055366"><ele>208.5</ele><time>2026-04-24T16:21:34Z</time></trkpt><trkpt lat="42.25655926933575" lon="11.989635312749884"><ele>208.25</ele><time>2026-04-24T16:21:35Z</time></trkpt><trkpt lat="42.25646043673409" lon="11.989522239658868"><ele>208.0</ele><time>2026-04-24T16:21:36Z</time></trkpt><trkpt lat="42.256367745932906" lon="11.989410424907607"><ele>208.0</ele><time>2026-04-24T16:21:37Z</time></trkpt><trkpt lat="42.25627514052492" lon="11.989286852966956"><ele>208.0</ele><time>2026-04-24T16:21:38Z</time></trkpt><trkpt lat="42.25618255394791" lon="11.989175846254417"><ele>208.0</ele><time>2026-04-24T16:21:39Z</time></trkpt><trkpt lat="42.25610545705775" lon="11.989065392463074"><ele>208.0</ele><time>2026-04-24T16:21:40Z</time></trkpt><trkpt lat="42.25603254989186" lon="11.988978063550741"><ele>208.0</ele><time>2026-04-24T16:21:41Z</time></trkpt><trkpt lat="42.25595932254772" lon="11.988891504667857"><ele>208.0</ele><time>2026-04-24T16:21:42Z</time></trkpt><trkpt lat="42.255884896668405" lon="11.988786780874259"><ele>208.0</ele><time>2026-04-24T16:21:43Z</time></trkpt><trkpt lat="42.25581344040213" lon="11.988683450468601"><ele>208.0</ele><time>2026-04-24T16:21:44Z</time></trkpt><trkpt lat="42.255747638794304" lon="11.988598085138772"><ele>208.0</ele><time>2026-04-24T16:21:45Z</time></trkpt><trkpt lat="42.25568218002665" lon="11.988529386454896"><ele>208.0</ele><time>2026-04-24T16:21:46Z</time></trkpt><trkpt lat="42.2556223136081" lon="11.988419583622635"><ele>208.0</ele><time>2026-04-24T16:21:47Z</time></trkpt><trkpt lat="42.255575163458516" lon="11.988305721764053"><ele>208.0</ele><time>2026-04-24T16:21:48Z</time></trkpt><trkpt lat="42.2555237671725" lon="11.98816495679516"><ele>208.0</ele><time>2026-04-24T16:21:49Z</time></trkpt><trkpt lat="42.25547281186398" lon="11.988009661934687"><ele>208.0</ele><time>2026-04-24T16:21:50Z</time></trkpt><trkpt lat="42.255424438399004" lon="11.987855701848012"><ele>208.25</ele><time>2026-04-24T16:21:51Z</time></trkpt><trkpt lat="42.25538075677604" lon="11.98770746632247"><ele>208.5</ele><time>2026-04-24T16:21:52Z</time></trkpt><trkpt lat="42.25534635495079" lon="11.987569334907768"><ele>208.75</ele><time>2026-04-24T16:21:53Z</time></trkpt><trkpt lat="42.25531186709526" lon="11.987421337862708"><ele>209.0</ele><time>2026-04-24T16:21:54Z</time></trkpt><trkpt lat="42.25527441138405" lon="11.987275568779213"><ele>208.5</ele><time>2026-04-24T16:21:55Z</time></trkpt><trkpt lat="42.25525370970823" lon="11.987101323272285"><ele>208.0</ele><time>2026-04-24T16:21:56Z</time></trkpt><trkpt lat="42.255242646878976" lon="11.986923879572526"><ele>207.5</ele><time>2026-04-24T16:21:57Z</time></trkpt><trkpt lat="42.255236291182186" lon="11.986741540472543"><ele>207.0</ele><time>2026-04-24T16:21:58Z</time></trkpt><trkpt lat="42.25523964350817" lon="11.9865573669123"><ele>206.75</ele><time>2026-04-24T16:21:59Z</time></trkpt><trkpt lat="42.25524028334042" lon="11.986374640586051"><ele>206.5</ele><time>2026-04-24T16:22:00Z</time></trkpt><trkpt lat="42.255236534283824" lon="11.986207779180582"><ele>206.25</ele><time>2026-04-24T16:22:01Z</time></trkpt><trkpt lat="42.255239936112886" lon="11.98604088804934"><ele>206.0</ele><time>2026-04-24T16:22:02Z</time></trkpt><trkpt lat="42.25523214523208" lon="11.985868407536577"><ele>205.5</ele><time>2026-04-24T16:22:03Z</time></trkpt><trkpt lat="42.25523365378113" lon="11.985707667225785"><ele>205.0</ele><time>2026-04-24T16:22:04Z</time></trkpt><trkpt lat="42.25523187668462" lon="11.985551316117764"><ele>204.5</ele><time>2026-04-24T16:22:05Z</time></trkpt><trkpt lat="42.255243374343266" lon="11.985399698793586"><ele>204.0</ele><time>2026-04-24T16:22:06Z</time></trkpt><trkpt lat="42.25524266071937" lon="11.985238960986448"><ele>204.0</ele><time>2026-04-24T16:22:07Z</time></trkpt><trkpt lat="42.25524265438224" lon="11.985083809152183"><ele>204.0</ele><time>2026-04-24T16:22:08Z</time></trkpt><trkpt lat="42.25524265438129" lon="11.984931613433753"><ele>204.0</ele><time>2026-04-24T16:22:09Z</time></trkpt><trkpt lat="42.25524480211045" lon="11.98477861987555"><ele>204.0</ele><time>2026-04-24T16:22:10Z</time></trkpt><trkpt lat="42.25524165043419" lon="11.984619706955193"><ele>203.5</ele><time>2026-04-24T16:22:11Z</time></trkpt><trkpt lat="42.255249437351246" lon="11.984453963587798"><ele>203.0</ele><time>2026-04-24T16:22:12Z</time></trkpt><trkpt lat="42.25527370138773" lon="11.984262622100069"><ele>202.5</ele><time>2026-04-24T16:22:13Z</time></trkpt><trkpt lat="42.255287816335645" lon="11.984070482119883"><ele>202.0</ele><time>2026-04-24T16:22:14Z</time></trkpt><trkpt lat="42.25529688398249" lon="11.983881674287817"><ele>202.0</ele><time>2026-04-24T16:22:15Z</time></trkpt><trkpt lat="42.25530883734664" lon="11.983709586217994"><ele>202.0</ele><time>2026-04-24T16:22:16Z</time></trkpt><trkpt lat="42.25531557554224" lon="11.983528872674265"><ele>202.0</ele><time>2026-04-24T16:22:17Z</time></trkpt><trkpt lat="42.25531637886828" lon="11.983341339011012"><ele>202.0</ele><time>2026-04-24T16:22:18Z</time></trkpt><trkpt lat="42.25532234919972" lon="11.983166938388475"><ele>201.75</ele><time>2026-04-24T16:22:19Z</time></trkpt><trkpt lat="42.255317937130094" lon="11.983003991246122"><ele>201.5</ele><time>2026-04-24T16:22:20Z</time></trkpt><trkpt lat="42.255314208479675" lon="11.982822535495671"><ele>201.25</ele><time>2026-04-24T16:22:21Z</time></trkpt><trkpt lat="42.25531021421985" lon="11.982658033908955"><ele>201.0</ele><time>2026-04-24T16:22:22Z</time></trkpt><trkpt lat="42.255293304187965" lon="11.982498907465438"><ele>199.75</ele><time>2026-04-24T16:22:23Z</time></trkpt><trkpt lat="42.25529637419473" lon="11.98231468010792"><ele>198.5</ele><time>2026-04-24T16:22:24Z</time></trkpt><trkpt lat="42.25527848710002" lon="11.98213773394569"><ele>197.25</ele><time>2026-04-24T16:22:25Z</time></trkpt><trkpt lat="42.25524538453352" lon="11.981945353756752"><ele>196.0</ele><time>2026-04-24T16:22:26Z</time></trkpt><trkpt lat="42.255201429769386" lon="11.98175409383925"><ele>195.0</ele><time>2026-04-24T16:22:27Z</time></trkpt><trkpt lat="42.25516645116146" lon="11.981569001392993"><ele>194.0</ele><time>2026-04-24T16:22:28Z</time></trkpt><trkpt lat="42.255123191923886" lon="11.98137253240298"><ele>193.0</ele><time>2026-04-24T16:22:29Z</time></trkpt><trkpt lat="42.25509957655925" lon="11.981162533790833"><ele>193.0</ele><time>2026-04-24T16:22:30Z</time></trkpt><trkpt lat="42.25505704482886" lon="11.980975023689192"><ele>193.0</ele><time>2026-04-24T16:22:31Z</time></trkpt><trkpt lat="42.25500893488627" lon="11.98078450252782"><ele>193.0</ele><time>2026-04-24T16:22:32Z</time></trkpt><trkpt lat="42.2549622838137" lon="11.980592647407809"><ele>193.0</ele><time>2026-04-24T16:22:33Z</time></trkpt><trkpt lat="42.25491646672947" lon="11.980402283104878"><ele>193.25</ele><time>2026-04-24T16:22:34Z</time></trkpt><trkpt lat="42.25488427085372" lon="11.980218568351582"><ele>193.5</ele><time>2026-04-24T16:22:35Z</time></trkpt><trkpt lat="42.25485325861597" lon="11.980024674941783"><ele>193.75</ele><time>2026-04-24T16:22:36Z</time></trkpt><trkpt lat="42.25482678417593" lon="11.979823584276586"><ele>194.0</ele><time>2026-04-24T16:22:37Z</time></trkpt><trkpt lat="42.254825747857204" lon="11.979633307494103"><ele>194.0</ele><time>2026-04-24T16:22:38Z</time></trkpt><trkpt lat="42.25481091082983" lon="11.979437760455893"><ele>194.0</ele><time>2026-04-24T16:22:39Z</time></trkpt><trkpt lat="42.254797335174636" lon="11.979248831393662"><ele>194.0</ele><time>2026-04-24T16:22:40Z</time></trkpt><trkpt lat="42.254784483136255" lon="11.979069972497578"><ele>194.0</ele><time>2026-04-24T16:22:41Z</time></trkpt><trkpt lat="42.25477206211375" lon="11.978897111875265"><ele>192.5</ele><time>2026-04-24T16:22:42Z</time></trkpt><trkpt lat="42.254759495923" lon="11.978722230947422"><ele>191.0</ele><time>2026-04-24T16:22:43Z</time></trkpt><trkpt lat="42.25474666659178" lon="11.978543687784484"><ele>189.5</ele><time>2026-04-24T16:22:44Z</time></trkpt><trkpt lat="42.254733382176525" lon="11.978357959275783"><ele>188.0</ele><time>2026-04-24T16:22:45Z</time></trkpt><trkpt lat="42.254720539646165" lon="11.978178218074154"><ele>187.75</ele><time>2026-04-24T16:22:46Z</time></trkpt><trkpt lat="42.25470783332059" lon="11.978000383462906"><ele>187.5</ele><time>2026-04-24T16:22:47Z</time></trkpt><trkpt lat="42.254696023117596" lon="11.977835090434255"><ele>187.25</ele><time>2026-04-24T16:22:48Z</time></trkpt><trkpt lat="42.25468376985127" lon="11.977663597024376"><ele>187.0</ele><time>2026-04-24T16:22:49Z</time></trkpt><trkpt lat="42.254672342445886" lon="11.977503661817371"><ele>187.5</ele><time>2026-04-24T16:22:50Z</time></trkpt><trkpt lat="42.25465864996773" lon="11.977312025228146"><ele>188.0</ele><time>2026-04-24T16:22:51Z</time></trkpt><trkpt lat="42.254645534125636" lon="11.977130258653792"><ele>188.5</ele><time>2026-04-24T16:22:52Z</time></trkpt><trkpt lat="42.254630808521796" lon="11.976930266677217"><ele>189.0</ele><time>2026-04-24T16:22:53Z</time></trkpt><trkpt lat="42.25461554272574" lon="11.976722938541172"><ele>190.33333333333331</ele><time>2026-04-24T16:22:54Z</time></trkpt><trkpt lat="42.254599869293806" lon="11.976510073608159"><ele>191.66666666666666</ele><time>2026-04-24T16:22:55Z</time></trkpt><trkpt lat="42.25457042270158" lon="11.976305791497321"><ele>193.0</ele><time>2026-04-24T16:22:56Z</time></trkpt><trkpt lat="42.254571010968206" lon="11.9760971222685"><ele>193.0</ele><time>2026-04-24T16:22:57Z</time></trkpt><trkpt lat="42.25455732316331" lon="11.975885648175028"><ele>193.0</ele><time>2026-04-24T16:22:58Z</time></trkpt><trkpt lat="42.254547107434355" lon="11.97567045943826"><ele>193.0</ele><time>2026-04-24T16:22:59Z</time></trkpt><trkpt lat="42.25452454204148" lon="11.975443991533494"><ele>193.66666666666666</ele><time>2026-04-24T16:23:00Z</time></trkpt><trkpt lat="42.25450723877109" lon="11.975221048922242"><ele>194.33333333333331</ele><time>2026-04-24T16:23:01Z</time></trkpt><trkpt lat="42.25449397786303" lon="11.975015141081698"><ele>195.0</ele><time>2026-04-24T16:23:02Z</time></trkpt><trkpt lat="42.2544786665221" lon="11.97481189231269"><ele>195.0</ele><time>2026-04-24T16:23:03Z</time></trkpt><trkpt lat="42.25446299916396" lon="11.974597492873068"><ele>195.0</ele><time>2026-04-24T16:23:04Z</time></trkpt><trkpt lat="42.25445255950784" lon="11.974401496100667"><ele>195.0</ele><time>2026-04-24T16:23:05Z</time></trkpt><trkpt lat="42.25443985864051" lon="11.974222103729103"><ele>195.0</ele><time>2026-04-24T16:23:06Z</time></trkpt><trkpt lat="42.254433699425505" lon="11.974043565517244"><ele>194.5</ele><time>2026-04-24T16:23:07Z</time></trkpt><trkpt lat="42.2544240742858" lon="11.97387518610151"><ele>194.0</ele><time>2026-04-24T16:23:08Z</time></trkpt><trkpt lat="42.254410186387055" lon="11.97370101919496"><ele>193.5</ele><time>2026-04-24T16:23:09Z</time></trkpt><trkpt lat="42.25441067679106" lon="11.973529794654443"><ele>193.0</ele><time>2026-04-24T16:23:10Z</time></trkpt><trkpt lat="42.254408754417454" lon="11.973348424878997"><ele>193.0</ele><time>2026-04-24T16:23:11Z</time></trkpt><trkpt lat="42.25442143787887" lon="11.97315819447494"><ele>193.0</ele><time>2026-04-24T16:23:12Z</time></trkpt><trkpt lat="42.254439214263236" lon="11.972956021592909"><ele>193.0</ele><time>2026-04-24T16:23:12.999Z</time></trkpt><trkpt lat="42.254466417466226" lon="11.97273799308483"><ele>192.66666666666666</ele><time>2026-04-24T16:23:13.999Z</time></trkpt><trkpt lat="42.25449128529143" lon="11.972507916468606"><ele>192.33333333333331</ele><time>2026-04-24T16:23:14.999Z</time></trkpt><trkpt lat="42.25451990499253" lon="11.97230004172913"><ele>192.0</ele><time>2026-04-24T16:23:15.999Z</time></trkpt><trkpt lat="42.25454851995523" lon="11.972092510531548"><ele>192.0</ele><time>2026-04-24T16:23:16.999Z</time></trkpt><trkpt lat="42.25457980027988" lon="11.971879335675764"><ele>192.0</ele><time>2026-04-24T16:23:17.999Z</time></trkpt><trkpt lat="42.25460753310159" lon="11.971672886441144"><ele>192.0</ele><time>2026-04-24T16:23:18.999Z</time></trkpt><trkpt lat="42.25463584065478" lon="11.971454228157484"><ele>191.66666666666666</ele><time>2026-04-24T16:23:19.999Z</time></trkpt><trkpt lat="42.25466350190676" lon="11.971246194776091"><ele>191.33333333333331</ele><time>2026-04-24T16:23:20.999Z</time></trkpt><trkpt lat="42.2546906585501" lon="11.97103805577318"><ele>191.0</ele><time>2026-04-24T16:23:21.999Z</time></trkpt><trkpt lat="42.25472111886685" lon="11.970825504133087"><ele>190.66666666666666</ele><time>2026-04-24T16:23:22.999Z</time></trkpt><trkpt lat="42.25474467315267" lon="11.970619858034341"><ele>190.33333333333334</ele><time>2026-04-24T16:23:23.999Z</time></trkpt><trkpt lat="42.25477469342938" lon="11.970405135170088"><ele>190.0</ele><time>2026-04-24T16:23:24.999Z</time></trkpt><trkpt lat="42.254795849713936" lon="11.970187188671247"><ele>191.66666666666669</ele><time>2026-04-24T16:23:25.999Z</time></trkpt><trkpt lat="42.2548135039437" lon="11.969975290871872"><ele>193.33333333333334</ele><time>2026-04-24T16:23:26.999Z</time></trkpt><trkpt lat="42.25484083090959" lon="11.969768902731255"><ele>195.0</ele><time>2026-04-24T16:23:27.999Z</time></trkpt><trkpt lat="42.25484261552654" lon="11.969548663388306"><ele>195.0</ele><time>2026-04-24T16:23:28.999Z</time></trkpt><trkpt lat="42.25485614192265" lon="11.969323034646418"><ele>195.0</ele><time>2026-04-24T16:23:29.999Z</time></trkpt><trkpt lat="42.25485520490238" lon="11.969111676745273"><ele>195.0</ele><time>2026-04-24T16:23:30.999Z</time></trkpt><trkpt lat="42.25486611211017" lon="11.968901503238172"><ele>195.0</ele><time>2026-04-24T16:23:31.999Z</time></trkpt><trkpt lat="42.25486881066534" lon="11.968682911038497"><ele>195.0</ele><time>2026-04-24T16:23:33Z</time></trkpt><trkpt lat="42.25487093301269" lon="11.96847892155615"><ele>195.0</ele><time>2026-04-24T16:23:34Z</time></trkpt><trkpt lat="42.25489159375715" lon="11.96827535304591"><ele>195.0</ele><time>2026-04-24T16:23:35Z</time></trkpt><trkpt lat="42.25489645651803" lon="11.968070426525319"><ele>195.0</ele><time>2026-04-24T16:23:36Z</time></trkpt><trkpt lat="42.254901310910384" lon="11.967865852829386"><ele>195.0</ele><time>2026-04-24T16:23:37Z</time></trkpt><trkpt lat="42.25490630686989" lon="11.967655312835147"><ele>195.0</ele><time>2026-04-24T16:23:38Z</time></trkpt><trkpt lat="42.25491237042956" lon="11.967399782422818"><ele>195.0</ele><time>2026-04-24T16:23:39Z</time></trkpt><trkpt lat="42.25491731092751" lon="11.967161400107218"><ele>195.0</ele><time>2026-04-24T16:23:40Z</time></trkpt><trkpt lat="42.25492182342219" lon="11.966939294214347"><ele>195.0</ele><time>2026-04-24T16:23:41Z</time></trkpt><trkpt lat="42.25492590363181" lon="11.966738465641942"><ele>195.0</ele><time>2026-04-24T16:23:42Z</time></trkpt><trkpt lat="42.25493035642819" lon="11.966519297884155"><ele>195.0</ele><time>2026-04-24T16:23:43Z</time></trkpt><trkpt lat="42.25493442551979" lon="11.966319016594644"><ele>195.25</ele><time>2026-04-24T16:23:44Z</time></trkpt><trkpt lat="42.254937546615274" lon="11.96611940893674"><ele>195.5</ele><time>2026-04-24T16:23:45Z</time></trkpt><trkpt lat="42.254940364654914" lon="11.965932651407389"><ele>195.75</ele><time>2026-04-24T16:23:46Z</time></trkpt><trkpt lat="42.25494312031096" lon="11.965750027707738"><ele>196.0</ele><time>2026-04-24T16:23:47Z</time></trkpt><trkpt lat="42.25494592473401" lon="11.965564172418302"><ele>196.0</ele><time>2026-04-24T16:23:48Z</time></trkpt><trkpt lat="42.25494879796124" lon="11.965373757303531"><ele>196.0</ele><time>2026-04-24T16:23:49Z</time></trkpt><trkpt lat="42.25495155552832" lon="11.965191007255013"><ele>196.0</ele><time>2026-04-24T16:23:50Z</time></trkpt><trkpt lat="42.254955388754325" lon="11.964964040234157"><ele>196.0</ele><time>2026-04-24T16:23:51Z</time></trkpt><trkpt lat="42.25495861165292" lon="11.964774430939341"><ele>196.5</ele><time>2026-04-24T16:23:52Z</time></trkpt><trkpt lat="42.254964794093624" lon="11.964585987199206"><ele>197.0</ele><time>2026-04-24T16:23:53Z</time></trkpt><trkpt lat="42.25497602676896" lon="11.964410043869592"><ele>197.5</ele><time>2026-04-24T16:23:54Z</time></trkpt><trkpt lat="42.25498755098356" lon="11.964240697056164"><ele>198.0</ele><time>2026-04-24T16:23:55Z</time></trkpt><trkpt lat="42.25499484220365" lon="11.964074147920225"><ele>198.5</ele><time>2026-04-24T16:23:56Z</time></trkpt><trkpt lat="42.25500933045164" lon="11.963893876805729"><ele>199.0</ele><time>2026-04-24T16:23:57Z</time></trkpt><trkpt lat="42.2550103578994" lon="11.963742241506665"><ele>199.5</ele><time>2026-04-24T16:23:58Z</time></trkpt><trkpt lat="42.255022475130524" lon="11.963594602744463"><ele>200.0</ele><time>2026-04-24T16:23:59Z</time></trkpt><trkpt lat="42.25504001043706" lon="11.963445543113153"><ele>200.5</ele><time>2026-04-24T16:24:00Z</time></trkpt><trkpt lat="42.255065303923935" lon="11.96329643716737"><ele>201.0</ele><time>2026-04-24T16:24:01Z</time></trkpt><trkpt lat="42.25509838457499" lon="11.963146782465733"><ele>201.5</ele><time>2026-04-24T16:24:02Z</time></trkpt><trkpt lat="42.255145790851095" lon="11.96297696764368"><ele>202.0</ele><time>2026-04-24T16:24:03Z</time></trkpt><trkpt lat="42.25519955818904" lon="11.962803245539265"><ele>202.0</ele><time>2026-04-24T16:24:04Z</time></trkpt><trkpt lat="42.2552314771675" lon="11.962638239926614"><ele>202.0</ele><time>2026-04-24T16:24:05Z</time></trkpt><trkpt lat="42.25529137958497" lon="11.962451776906931"><ele>202.0</ele><time>2026-04-24T16:24:06Z</time></trkpt><trkpt lat="42.25535840142891" lon="11.962254582073149"><ele>202.0</ele><time>2026-04-24T16:24:07Z</time></trkpt><trkpt lat="42.25543118211801" lon="11.962064481703278"><ele>203.25</ele><time>2026-04-24T16:24:08Z</time></trkpt><trkpt lat="42.25547019555821" lon="11.96189168508932"><ele>204.5</ele><time>2026-04-24T16:24:09Z</time></trkpt><trkpt lat="42.25552184974668" lon="11.961737541994548"><ele>205.75</ele><time>2026-04-24T16:24:10Z</time></trkpt><trkpt lat="42.25556097558021" lon="11.961570030493112"><ele>207.0</ele><time>2026-04-24T16:24:11Z</time></trkpt><trkpt lat="42.25561204812476" lon="11.96141081658075"><ele>207.75</ele><time>2026-04-24T16:24:12Z</time></trkpt><trkpt lat="42.25566190898889" lon="11.961237157038758"><ele>208.5</ele><time>2026-04-24T16:24:13Z</time></trkpt><trkpt lat="42.25570896688874" lon="11.961071632449585"><ele>209.25</ele><time>2026-04-24T16:24:14Z</time></trkpt><trkpt lat="42.255765342478156" lon="11.960929927358947"><ele>210.0</ele><time>2026-04-24T16:24:15Z</time></trkpt><trkpt lat="42.255797984084055" lon="11.960777755454236"><ele>211.25</ele><time>2026-04-24T16:24:16Z</time></trkpt><trkpt lat="42.255813966895126" lon="11.960625567727204"><ele>212.5</ele><time>2026-04-24T16:24:17Z</time></trkpt><trkpt lat="42.25582413533228" lon="11.96045733449829"><ele>213.75</ele><time>2026-04-24T16:24:18Z</time></trkpt><trkpt lat="42.255829006720774" lon="11.960276247246684"><ele>215.0</ele><time>2026-04-24T16:24:19Z</time></trkpt><trkpt lat="42.25582987968052" lon="11.960119640148152"><ele>215.6</ele><time>2026-04-24T16:24:20Z</time></trkpt><trkpt lat="42.255828288548024" lon="11.95996240938811"><ele>216.2</ele><time>2026-04-24T16:24:21Z</time></trkpt><trkpt lat="42.25582674630495" lon="11.959810010341716"><ele>216.8</ele><time>2026-04-24T16:24:22Z</time></trkpt><trkpt lat="42.25582522054351" lon="11.959659239981903"><ele>217.4</ele><time>2026-04-24T16:24:23Z</time></trkpt><trkpt lat="42.25582368694836" lon="11.959522279251116"><ele>218.0</ele><time>2026-04-24T16:24:24Z</time></trkpt><trkpt lat="42.25582184240474" lon="11.959380433893976"><ele>218.0</ele><time>2026-04-24T16:24:25Z</time></trkpt><trkpt lat="42.25580611580319" lon="11.959253416403017"><ele>218.0</ele><time>2026-04-24T16:24:26Z</time></trkpt><trkpt lat="42.25581526571269" lon="11.959125341391301"><ele>218.0</ele><time>2026-04-24T16:24:27Z</time></trkpt><trkpt lat="42.25580949165613" lon="11.95899880427717"><ele>218.0</ele><time>2026-04-24T16:24:28Z</time></trkpt><trkpt lat="42.255794970298005" lon="11.958869948787662"><ele>218.0</ele><time>2026-04-24T16:24:29Z</time></trkpt><trkpt lat="42.25576506620973" lon="11.958745974420923"><ele>217.75</ele><time>2026-04-24T16:24:30Z</time></trkpt><trkpt lat="42.25572300693797" lon="11.95861157490064"><ele>217.5</ele><time>2026-04-24T16:24:31Z</time></trkpt><trkpt lat="42.25566167492811" lon="11.958457447159253"><ele>217.25</ele><time>2026-04-24T16:24:32Z</time></trkpt><trkpt lat="42.255587338188754" lon="11.958294546272379"><ele>217.0</ele><time>2026-04-24T16:24:33Z</time></trkpt><trkpt lat="42.2555104102213" lon="11.958133710224878"><ele>217.0</ele><time>2026-04-24T16:24:34Z</time></trkpt><trkpt lat="42.25544615125617" lon="11.95794264943771"><ele>217.0</ele><time>2026-04-24T16:24:35Z</time></trkpt><trkpt lat="42.255375310860394" lon="11.957782170323954"><ele>217.0</ele><time>2026-04-24T16:24:36Z</time></trkpt><trkpt lat="42.255308192844325" lon="11.9576344742589"><ele>217.0</ele><time>2026-04-24T16:24:37Z</time></trkpt><trkpt lat="42.25523465650582" lon="11.957484953969997"><ele>215.25</ele><time>2026-04-24T16:24:38Z</time></trkpt><trkpt lat="42.25515004270927" lon="11.957322524172888"><ele>213.5</ele><time>2026-04-24T16:24:39Z</time></trkpt><trkpt lat="42.25507628426851" lon="11.957177022571903"><ele>211.75</ele><time>2026-04-24T16:24:40Z</time></trkpt><trkpt lat="42.25500998947031" lon="11.957032848988423"><ele>210.0</ele><time>2026-04-24T16:24:41Z</time></trkpt><trkpt lat="42.254942520093536" lon="11.956890511175347"><ele>210.0</ele><time>2026-04-24T16:24:42Z</time></trkpt><trkpt lat="42.254883815166295" lon="11.956747746400147"><ele>210.0</ele><time>2026-04-24T16:24:43Z</time></trkpt><trkpt lat="42.25481964570767" lon="11.956602436677967"><ele>210.0</ele><time>2026-04-24T16:24:44Z</time></trkpt><trkpt lat="42.25477477986108" lon="11.956458250296233"><ele>210.0</ele><time>2026-04-24T16:24:45Z</time></trkpt><trkpt lat="42.25472964614628" lon="11.956321362709467"><ele>210.25</ele><time>2026-04-24T16:24:46Z</time></trkpt><trkpt lat="42.25470251402445" lon="11.9561492319506"><ele>210.5</ele><time>2026-04-24T16:24:47Z</time></trkpt><trkpt lat="42.25467463547904" lon="11.95600343127884"><ele>210.75</ele><time>2026-04-24T16:24:48Z</time></trkpt><trkpt lat="42.25468930409699" lon="11.955836904194614"><ele>211.0</ele><time>2026-04-24T16:24:49Z</time></trkpt><trkpt lat="42.25470939566376" lon="11.95565934249275"><ele>211.25</ele><time>2026-04-24T16:24:50Z</time></trkpt><trkpt lat="42.25473667833756" lon="11.955484438572038"><ele>211.5</ele><time>2026-04-24T16:24:51Z</time></trkpt><trkpt lat="42.254768194181125" lon="11.955310807691006"><ele>211.75</ele><time>2026-04-24T16:24:52Z</time></trkpt><trkpt lat="42.254805970448494" lon="11.95508323417391"><ele>212.0</ele><time>2026-04-24T16:24:53Z</time></trkpt><trkpt lat="42.254847695725175" lon="11.954925313778636"><ele>212.25</ele><time>2026-04-24T16:24:54Z</time></trkpt><trkpt lat="42.25488503272111" lon="11.954759519522508"><ele>212.5</ele><time>2026-04-24T16:24:55Z</time></trkpt><trkpt lat="42.25491908802845" lon="11.95458230944499"><ele>212.75</ele><time>2026-04-24T16:24:56Z</time></trkpt><trkpt lat="42.254944378591006" lon="11.954413307883858"><ele>213.0</ele><time>2026-04-24T16:24:57Z</time></trkpt><trkpt lat="42.254980714459364" lon="11.954243940587999"><ele>213.25</ele><time>2026-04-24T16:24:58Z</time></trkpt><trkpt lat="42.25502220712945" lon="11.954068593156453"><ele>213.5</ele><time>2026-04-24T16:24:59Z</time></trkpt><trkpt lat="42.25505790330392" lon="11.953902386580525"><ele>213.75</ele><time>2026-04-24T16:25:00Z</time></trkpt><trkpt lat="42.25509397157731" lon="11.953734257963326"><ele>214.0</ele><time>2026-04-24T16:25:01Z</time></trkpt><trkpt lat="42.2551244227322" lon="11.95356492253344"><ele>214.0</ele><time>2026-04-24T16:25:02Z</time></trkpt><trkpt lat="42.25515704411599" lon="11.953399498164618"><ele>214.0</ele><time>2026-04-24T16:25:03Z</time></trkpt><trkpt lat="42.25518916091993" lon="11.95323617026348"><ele>214.0</ele><time>2026-04-24T16:25:04Z</time></trkpt><trkpt lat="42.25523079610812" lon="11.95305292279705"><ele>214.0</ele><time>2026-04-24T16:25:05Z</time></trkpt><trkpt lat="42.255256170985206" lon="11.952878035900705"><ele>214.5</ele><time>2026-04-24T16:25:06Z</time></trkpt><trkpt lat="42.25527710420314" lon="11.952702684998652"><ele>215.0</ele><time>2026-04-24T16:25:07Z</time></trkpt><trkpt lat="42.255290648707934" lon="11.95254924323275"><ele>215.5</ele><time>2026-04-24T16:25:08Z</time></trkpt><trkpt lat="42.255319677283154" lon="11.952382215510916"><ele>216.0</ele><time>2026-04-24T16:25:09Z</time></trkpt><trkpt lat="42.25535506170351" lon="11.952178393435796"><ele>216.5</ele><time>2026-04-24T16:25:10Z</time></trkpt><trkpt lat="42.25538734407794" lon="11.951998019191338"><ele>217.0</ele><time>2026-04-24T16:25:10.999Z</time></trkpt><trkpt lat="42.25540992475006" lon="11.951841792419172"><ele>217.5</ele><time>2026-04-24T16:25:11.999Z</time></trkpt><trkpt lat="42.255440991737736" lon="11.951654209500036"><ele>218.0</ele><time>2026-04-24T16:25:12.999Z</time></trkpt><trkpt lat="42.2554681135409" lon="11.951453159208006"><ele>218.5</ele><time>2026-04-24T16:25:13.999Z</time></trkpt><trkpt lat="42.25552874998366" lon="11.951254643099421"><ele>219.0</ele><time>2026-04-24T16:25:14.999Z</time></trkpt><trkpt lat="42.25555190359517" lon="11.951058006960908"><ele>219.5</ele><time>2026-04-24T16:25:15.999Z</time></trkpt><trkpt lat="42.25557199008343" lon="11.95087766499266"><ele>220.0</ele><time>2026-04-24T16:25:16.999Z</time></trkpt><trkpt lat="42.25559344171075" lon="11.950682114444534"><ele>220.25</ele><time>2026-04-24T16:25:17.999Z</time></trkpt><trkpt lat="42.25561618909833" lon="11.950531732908873"><ele>220.5</ele><time>2026-04-24T16:25:18.999Z</time></trkpt><trkpt lat="42.25565720310054" lon="11.95036859824711"><ele>220.75</ele><time>2026-04-24T16:25:19.999Z</time></trkpt><trkpt lat="42.2556830813512" lon="11.950199498392504"><ele>221.0</ele><time>2026-04-24T16:25:20.999Z</time></trkpt><trkpt lat="42.255714858846055" lon="11.949992008329103"><ele>222.0</ele><time>2026-04-24T16:25:21.999Z</time></trkpt><trkpt lat="42.25574412914165" lon="11.949795943611235"><ele>223.0</ele><time>2026-04-24T16:25:22.999Z</time></trkpt><trkpt lat="42.255769830897776" lon="11.949623782668452"><ele>224.0</ele><time>2026-04-24T16:25:23.999Z</time></trkpt><trkpt lat="42.25579498382828" lon="11.949455298364857"><ele>225.0</ele><time>2026-04-24T16:25:24.999Z</time></trkpt><trkpt lat="42.25582218135808" lon="11.949273118441083"><ele>225.75</ele><time>2026-04-24T16:25:25.999Z</time></trkpt><trkpt lat="42.255834146612386" lon="11.949080744177055"><ele>226.5</ele><time>2026-04-24T16:25:26.999Z</time></trkpt><trkpt lat="42.25586321756507" lon="11.948907173549824"><ele>227.25</ele><time>2026-04-24T16:25:27.999Z</time></trkpt><trkpt lat="42.25589473106897" lon="11.948740868186457"><ele>228.0</ele><time>2026-04-24T16:25:28.999Z</time></trkpt><trkpt lat="42.25593021789596" lon="11.948570202861175"><ele>228.0</ele><time>2026-04-24T16:25:29.999Z</time></trkpt><trkpt lat="42.25595498300315" lon="11.948412743277173"><ele>228.0</ele><time>2026-04-24T16:25:30.999Z</time></trkpt><trkpt lat="42.25597705161322" lon="11.94826918578193"><ele>228.0</ele><time>2026-04-24T16:25:31.999Z</time></trkpt><trkpt lat="42.25600237119756" lon="11.948116796884493"><ele>228.0</ele><time>2026-04-24T16:25:32.999Z</time></trkpt><trkpt lat="42.256024452236936" lon="11.947983124893415"><ele>228.0</ele><time>2026-04-24T16:25:33.999Z</time></trkpt><trkpt lat="42.25604350469005" lon="11.94786575810013"><ele>228.8</ele><time>2026-04-24T16:25:34.999Z</time></trkpt><trkpt lat="42.2560497444508" lon="11.947743138153406"><ele>229.60000000000002</ele><time>2026-04-24T16:25:35.999Z</time></trkpt><trkpt lat="42.25605105784744" lon="11.94760430477901"><ele>230.39999999999998</ele><time>2026-04-24T16:25:36.999Z</time></trkpt><trkpt lat="42.256036789829814" lon="11.947459046492321"><ele>231.2</ele><time>2026-04-24T16:25:37.999Z</time></trkpt><trkpt lat="42.25598366274544" lon="11.947320523787143"><ele>232.0</ele><time>2026-04-24T16:25:39Z</time></trkpt><trkpt lat="42.25590748454441" lon="11.947173365468904"><ele>233.5</ele><time>2026-04-24T16:25:40Z</time></trkpt><trkpt lat="42.255845051039344" lon="11.947026208188035"><ele>235.0</ele><time>2026-04-24T16:25:41Z</time></trkpt><trkpt lat="42.25577028099339" lon="11.946900477392543"><ele>236.5</ele><time>2026-04-24T16:25:42Z</time></trkpt><trkpt lat="42.255686384796924" lon="11.94677554815908"><ele>238.0</ele><time>2026-04-24T16:25:43Z</time></trkpt><trkpt lat="42.25560292200369" lon="11.946666349422692"><ele>240.25</ele><time>2026-04-24T16:25:44Z</time></trkpt><trkpt lat="42.25550016771398" lon="11.946546608015982"><ele>242.5</ele><time>2026-04-24T16:25:45Z</time></trkpt><trkpt lat="42.25536246427749" lon="11.946451941575102"><ele>244.75</ele><time>2026-04-24T16:25:46Z</time></trkpt><trkpt lat="42.25525662071333" lon="11.94636904578615"><ele>247.0</ele><time>2026-04-24T16:25:47Z</time></trkpt><trkpt lat="42.25515581013373" lon="11.946295034926193"><ele>247.0</ele><time>2026-04-24T16:25:48Z</time></trkpt><trkpt lat="42.2550648746197" lon="11.946189259655911"><ele>247.0</ele><time>2026-04-24T16:25:49Z</time></trkpt><trkpt lat="42.25496755473812" lon="11.946110148608785"><ele>247.0</ele><time>2026-04-24T16:25:50Z</time></trkpt><trkpt lat="42.25487535473803" lon="11.946025750028054"><ele>247.0</ele><time>2026-04-24T16:25:51Z</time></trkpt><trkpt lat="42.25480256490113" lon="11.945928342230387"><ele>247.0</ele><time>2026-04-24T16:25:52Z</time></trkpt><trkpt lat="42.254731936175226" lon="11.94581571687273"><ele>247.6</ele><time>2026-04-24T16:25:53Z</time></trkpt><trkpt lat="42.254677002141456" lon="11.945704732492239"><ele>248.2</ele><time>2026-04-24T16:25:54Z</time></trkpt><trkpt lat="42.25465003007912" lon="11.945584562158317"><ele>248.8</ele><time>2026-04-24T16:25:55Z</time></trkpt><trkpt lat="42.25463747644543" lon="11.945445448205955"><ele>249.4</ele><time>2026-04-24T16:25:56Z</time></trkpt><trkpt lat="42.25462729945946" lon="11.945266539196743"><ele>250.0</ele><time>2026-04-24T16:25:57Z</time></trkpt><trkpt lat="42.254620261133766" lon="11.94511786557026"><ele>252.25</ele><time>2026-04-24T16:25:58Z</time></trkpt><trkpt lat="42.25460174189513" lon="11.94496028151443"><ele>254.5</ele><time>2026-04-24T16:25:59Z</time></trkpt><trkpt lat="42.25456133134746" lon="11.94481051395877"><ele>256.75</ele><time>2026-04-24T16:26:00Z</time></trkpt><trkpt lat="42.25452748754926" lon="11.944665211147948"><ele>259.0</ele><time>2026-04-24T16:26:01Z</time></trkpt><trkpt lat="42.25449462577232" lon="11.944536534334878"><ele>259.0</ele><time>2026-04-24T16:26:02Z</time></trkpt><trkpt lat="42.25444227494123" lon="11.944418210493282"><ele>259.0</ele><time>2026-04-24T16:26:03Z</time></trkpt><trkpt lat="42.2543627847782" lon="11.944319626300533"><ele>259.0</ele><time>2026-04-24T16:26:04Z</time></trkpt><trkpt lat="42.25427271223193" lon="11.944225198071734"><ele>259.0</ele><time>2026-04-24T16:26:05Z</time></trkpt><trkpt lat="42.25416740521812" lon="11.944106441794949"><ele>260.75</ele><time>2026-04-24T16:26:06Z</time></trkpt><trkpt lat="42.25402970500261" lon="11.94399466286035"><ele>262.5</ele><time>2026-04-24T16:26:07Z</time></trkpt><trkpt lat="42.25391980272896" lon="11.943908060229722"><ele>264.25</ele><time>2026-04-24T16:26:08Z</time></trkpt><trkpt lat="42.25382217127216" lon="11.94383191259348"><ele>266.0</ele><time>2026-04-24T16:26:09Z</time></trkpt><trkpt lat="42.25373001598233" lon="11.943756443885862"><ele>266.0</ele><time>2026-04-24T16:26:10Z</time></trkpt><trkpt lat="42.25364869652642" lon="11.943670243179382"><ele>266.0</ele><time>2026-04-24T16:26:11Z</time></trkpt><trkpt lat="42.25357933295985" lon="11.943561982019498"><ele>266.0</ele><time>2026-04-24T16:26:12Z</time></trkpt><trkpt lat="42.25352414252004" lon="11.943449064127886"><ele>266.0</ele><time>2026-04-24T16:26:13Z</time></trkpt><trkpt lat="42.253487189658564" lon="11.94334828680611"><ele>266.0</ele><time>2026-04-24T16:26:14Z</time></trkpt><trkpt lat="42.253457450541134" lon="11.943228469257756"><ele>267.8</ele><time>2026-04-24T16:26:15Z</time></trkpt><trkpt lat="42.2534303808234" lon="11.943088390870502"><ele>269.6</ele><time>2026-04-24T16:26:16Z</time></trkpt><trkpt lat="42.25340487259228" lon="11.942928947950199"><ele>271.4</ele><time>2026-04-24T16:26:17Z</time></trkpt><trkpt lat="42.253402104926465" lon="11.942789215178843"><ele>273.2</ele><time>2026-04-24T16:26:18Z</time></trkpt><trkpt lat="42.253407563634376" lon="11.942644902059325"><ele>275.0</ele><time>2026-04-24T16:26:19Z</time></trkpt><trkpt lat="42.25342141216747" lon="11.94249668880459"><ele>277.0</ele><time>2026-04-24T16:26:20Z</time></trkpt><trkpt lat="42.253443699513305" lon="11.942332685767267"><ele>279.0</ele><time>2026-04-24T16:26:21Z</time></trkpt><trkpt lat="42.25346058332388" lon="11.942172810510323"><ele>281.0</ele><time>2026-04-24T16:26:22Z</time></trkpt><trkpt lat="42.25347928205955" lon="11.942002885713865"><ele>283.0</ele><time>2026-04-24T16:26:23Z</time></trkpt><trkpt lat="42.25348959651121" lon="11.941876004328408"><ele>285.5</ele><time>2026-04-24T16:26:24Z</time></trkpt><trkpt lat="42.25351615422037" lon="11.941697774314301"><ele>288.0</ele><time>2026-04-24T16:26:25Z</time></trkpt><trkpt lat="42.25352796965557" lon="11.941541186044795"><ele>290.5</ele><time>2026-04-24T16:26:26Z</time></trkpt><trkpt lat="42.25354834423088" lon="11.941376348645761"><ele>293.0</ele><time>2026-04-24T16:26:27Z</time></trkpt><trkpt lat="42.25356877332634" lon="11.941186629235414"><ele>293.0</ele><time>2026-04-24T16:26:28Z</time></trkpt><trkpt lat="42.25358196557855" lon="11.941008102167995"><ele>293.0</ele><time>2026-04-24T16:26:29Z</time></trkpt><trkpt lat="42.25360109213046" lon="11.940862855514334"><ele>293.0</ele><time>2026-04-24T16:26:30Z</time></trkpt><trkpt lat="42.25361950204404" lon="11.940717062918068"><ele>293.0</ele><time>2026-04-24T16:26:31Z</time></trkpt><trkpt lat="42.25363266555839" lon="11.94058129924885"><ele>294.8</ele><time>2026-04-24T16:26:32Z</time></trkpt><trkpt lat="42.25363783626526" lon="11.94045372934098"><ele>296.6</ele><time>2026-04-24T16:26:33Z</time></trkpt><trkpt lat="42.25363270398772" lon="11.940305303872485"><ele>298.4</ele><time>2026-04-24T16:26:34Z</time></trkpt><trkpt lat="42.253623900363934" lon="11.94017813244644"><ele>300.2</ele><time>2026-04-24T16:26:35Z</time></trkpt><trkpt lat="42.253615233051406" lon="11.940044866660427"><ele>302.0</ele><time>2026-04-24T16:26:36Z</time></trkpt><trkpt lat="42.25359525766855" lon="11.939901999771553"><ele>302.25</ele><time>2026-04-24T16:26:37Z</time></trkpt><trkpt lat="42.253561045835035" lon="11.939766534109474"><ele>302.5</ele><time>2026-04-24T16:26:38Z</time></trkpt><trkpt lat="42.2535694137572" lon="11.939603237280979"><ele>302.75</ele><time>2026-04-24T16:26:39Z</time></trkpt><trkpt lat="42.253556087440785" lon="11.93945151917291"><ele>303.0</ele><time>2026-04-24T16:26:40Z</time></trkpt><trkpt lat="42.2535352880373" lon="11.939303781701604"><ele>301.5</ele><time>2026-04-24T16:26:41Z</time></trkpt><trkpt lat="42.25352412057931" lon="11.939151949374361"><ele>300.0</ele><time>2026-04-24T16:26:42Z</time></trkpt><trkpt lat="42.25351315857176" lon="11.938979030814378"><ele>298.5</ele><time>2026-04-24T16:26:43Z</time></trkpt><trkpt lat="42.25350421937365" lon="11.938810214890603"><ele>297.0</ele><time>2026-04-24T16:26:44Z</time></trkpt><trkpt lat="42.253463971198045" lon="11.938655406590328"><ele>297.0</ele><time>2026-04-24T16:26:45Z</time></trkpt><trkpt lat="42.25346423091023" lon="11.938502194855142"><ele>297.0</ele><time>2026-04-24T16:26:46Z</time></trkpt><trkpt lat="42.2534618127231" lon="11.938356997606077"><ele>297.0</ele><time>2026-04-24T16:26:47Z</time></trkpt><trkpt lat="42.2534665295016" lon="11.938182982130481"><ele>297.0</ele><time>2026-04-24T16:26:48Z</time></trkpt><trkpt lat="42.253468480592595" lon="11.938045190028845"><ele>296.2</ele><time>2026-04-24T16:26:49Z</time></trkpt><trkpt lat="42.25346641546201" lon="11.937914477353555"><ele>295.4</ele><time>2026-04-24T16:26:50Z</time></trkpt><trkpt lat="42.253478624675196" lon="11.937760184032529"><ele>294.6</ele><time>2026-04-24T16:26:51Z</time></trkpt><trkpt lat="42.25349373765086" lon="11.937607821333831"><ele>293.8</ele><time>2026-04-24T16:26:52Z</time></trkpt><trkpt lat="42.25352146515457" lon="11.9374449605781"><ele>293.0</ele><time>2026-04-24T16:26:53Z</time></trkpt><trkpt lat="42.25355276282946" lon="11.93728452485983"><ele>292.0</ele><time>2026-04-24T16:26:54Z</time></trkpt><trkpt lat="42.253590857059784" lon="11.93712719441715"><ele>291.0</ele><time>2026-04-24T16:26:55Z</time></trkpt><trkpt lat="42.25365323383588" lon="11.936976577182666"><ele>290.0</ele><time>2026-04-24T16:26:56Z</time></trkpt><trkpt lat="42.253708036730245" lon="11.936818008632782"><ele>289.0</ele><time>2026-04-24T16:26:57Z</time></trkpt><trkpt lat="42.253737092664466" lon="11.936688786597362"><ele>288.2</ele><time>2026-04-24T16:26:58Z</time></trkpt><trkpt lat="42.253803457378766" lon="11.93655828717495"><ele>287.4</ele><time>2026-04-24T16:26:59Z</time></trkpt><trkpt lat="42.2538433752848" lon="11.936452850166766"><ele>286.6</ele><time>2026-04-24T16:27:00Z</time></trkpt><trkpt lat="42.25386194858566" lon="11.936333310782553"><ele>285.8</ele><time>2026-04-24T16:27:01Z</time></trkpt><trkpt lat="42.25387908131876" lon="11.936203630776191"><ele>285.0</ele><time>2026-04-24T16:27:02Z</time></trkpt><trkpt lat="42.253878374142346" lon="11.93607462633872"><ele>285.0</ele><time>2026-04-24T16:27:03Z</time></trkpt><trkpt lat="42.25387776415533" lon="11.935917865881391"><ele>285.0</ele><time>2026-04-24T16:27:04Z</time></trkpt><trkpt lat="42.253857293836525" lon="11.935776274597623"><ele>285.0</ele><time>2026-04-24T16:27:05Z</time></trkpt><trkpt lat="42.25383036817753" lon="11.935629615366052"><ele>285.0</ele><time>2026-04-24T16:27:06Z</time></trkpt><trkpt lat="42.253795859006686" lon="11.935481999803251"><ele>285.0</ele><time>2026-04-24T16:27:07Z</time></trkpt><trkpt lat="42.25375246658107" lon="11.935316364458311"><ele>283.2</ele><time>2026-04-24T16:27:08Z</time></trkpt><trkpt lat="42.25371066110521" lon="11.935172965760092"><ele>281.4</ele><time>2026-04-24T16:27:09Z</time></trkpt><trkpt lat="42.2536782316852" lon="11.935063713034477"><ele>279.6</ele><time>2026-04-24T16:27:10Z</time></trkpt><trkpt lat="42.25364524963536" lon="11.934941240655807"><ele>277.8</ele><time>2026-04-24T16:27:11Z</time></trkpt><trkpt lat="42.25360700224412" lon="11.934812982566879"><ele>276.0</ele><time>2026-04-24T16:27:12Z</time></trkpt><trkpt lat="42.25358334146693" lon="11.934664357165902"><ele>275.5</ele><time>2026-04-24T16:27:13Z</time></trkpt><trkpt lat="42.25358175183529" lon="11.934514418164063"><ele>275.0</ele><time>2026-04-24T16:27:14Z</time></trkpt><trkpt lat="42.253612446262764" lon="11.934356346015829"><ele>274.5</ele><time>2026-04-24T16:27:15Z</time></trkpt><trkpt lat="42.25363589832056" lon="11.934201841954112"><ele>274.0</ele><time>2026-04-24T16:27:16Z</time></trkpt><trkpt lat="42.25366913342631" lon="11.934041458026044"><ele>272.75</ele><time>2026-04-24T16:27:17Z</time></trkpt><trkpt lat="42.253707840501065" lon="11.933883892426335"><ele>271.5</ele><time>2026-04-24T16:27:18Z</time></trkpt><trkpt lat="42.25374412486021" lon="11.933737974996767"><ele>270.25</ele><time>2026-04-24T16:27:19Z</time></trkpt><trkpt lat="42.25378754996249" lon="11.933571307471222"><ele>269.0</ele><time>2026-04-24T16:27:20Z</time></trkpt><trkpt lat="42.25382873195959" lon="11.933414269830147"><ele>267.5</ele><time>2026-04-24T16:27:21Z</time></trkpt><trkpt lat="42.2538723568559" lon="11.933248514704642"><ele>266.0</ele><time>2026-04-24T16:27:22Z</time></trkpt><trkpt lat="42.2539184569304" lon="11.933070450896919"><ele>264.5</ele><time>2026-04-24T16:27:23Z</time></trkpt><trkpt lat="42.25394726128391" lon="11.932890808972735"><ele>263.0</ele><time>2026-04-24T16:27:24Z</time></trkpt><trkpt lat="42.25400753452797" lon="11.932720433564567"><ele>261.5</ele><time>2026-04-24T16:27:25Z</time></trkpt><trkpt lat="42.25404824351628" lon="11.932552153566757"><ele>260.0</ele><time>2026-04-24T16:27:26Z</time></trkpt><trkpt lat="42.25409630001819" lon="11.932374786163146"><ele>258.5</ele><time>2026-04-24T16:27:27Z</time></trkpt><trkpt lat="42.254145821362826" lon="11.932184052276163"><ele>257.0</ele><time>2026-04-24T16:27:28Z</time></trkpt><trkpt lat="42.25419914195193" lon="11.931990557267241"><ele>257.0</ele><time>2026-04-24T16:27:28.999Z</time></trkpt><trkpt lat="42.25424034275002" lon="11.931806400232512"><ele>257.0</ele><time>2026-04-24T16:27:29.999Z</time></trkpt><trkpt lat="42.25429246831558" lon="11.931598242839598"><ele>257.0</ele><time>2026-04-24T16:27:30.999Z</time></trkpt><trkpt lat="42.25435125873577" lon="11.931381555098811"><ele>258.0</ele><time>2026-04-24T16:27:31.999Z</time></trkpt><trkpt lat="42.254398610130764" lon="11.931187821048665"><ele>259.0</ele><time>2026-04-24T16:27:32.999Z</time></trkpt><trkpt lat="42.254449958074275" lon="11.930976232561513"><ele>260.0</ele><time>2026-04-24T16:27:33.999Z</time></trkpt><trkpt lat="42.25450018704437" lon="11.930778444615417"><ele>261.5</ele><time>2026-04-24T16:27:34.999Z</time></trkpt><trkpt lat="42.25455231094423" lon="11.930589747673311"><ele>263.0</ele><time>2026-04-24T16:27:35.999Z</time></trkpt><trkpt lat="42.254602149277936" lon="11.930407789962599"><ele>264.5</ele><time>2026-04-24T16:27:36.999Z</time></trkpt><trkpt lat="42.2546459816168" lon="11.930224195379822"><ele>266.0</ele><time>2026-04-24T16:27:37.999Z</time></trkpt><trkpt lat="42.25469061883834" lon="11.930044588913626"><ele>267.5</ele><time>2026-04-24T16:27:38.999Z</time></trkpt><trkpt lat="42.25473572983894" lon="11.929862625472072"><ele>269.0</ele><time>2026-04-24T16:27:39.999Z</time></trkpt><trkpt lat="42.25478444107958" lon="11.929684883919828"><ele>270.5</ele><time>2026-04-24T16:27:40.999Z</time></trkpt><trkpt lat="42.25483467771876" lon="11.929497736260487"><ele>272.0</ele><time>2026-04-24T16:27:41.999Z</time></trkpt><trkpt lat="42.25488114255985" lon="11.929329652894566"><ele>273.5</ele><time>2026-04-24T16:27:42.999Z</time></trkpt><trkpt lat="42.25492865851781" lon="11.929162229655299"><ele>275.0</ele><time>2026-04-24T16:27:43.999Z</time></trkpt><trkpt lat="42.25496934660029" lon="11.92901805081102"><ele>276.5</ele><time>2026-04-24T16:27:45Z</time></trkpt><trkpt lat="42.25501185238526" lon="11.928869881687513"><ele>278.0</ele><time>2026-04-24T16:27:46Z</time></trkpt><trkpt lat="42.25505951599593" lon="11.928722042447122"><ele>278.0</ele><time>2026-04-24T16:27:47Z</time></trkpt><trkpt lat="42.25510222270448" lon="11.928577372007364"><ele>278.0</ele><time>2026-04-24T16:27:48Z</time></trkpt><trkpt lat="42.255144405221074" lon="11.928428498694563"><ele>278.0</ele><time>2026-04-24T16:27:49Z</time></trkpt><trkpt lat="42.25520341287744" lon="11.928281780742468"><ele>278.0</ele><time>2026-04-24T16:27:50Z</time></trkpt><trkpt lat="42.25525911446047" lon="11.928115764318619"><ele>279.0</ele><time>2026-04-24T16:27:51Z</time></trkpt><trkpt lat="42.255314424398776" lon="11.927946657069004"><ele>280.0</ele><time>2026-04-24T16:27:52Z</time></trkpt><trkpt lat="42.25535964811723" lon="11.927774882035408"><ele>281.0</ele><time>2026-04-24T16:27:53Z</time></trkpt><trkpt lat="42.25540858723155" lon="11.92760731255289"><ele>282.0</ele><time>2026-04-24T16:27:54Z</time></trkpt><trkpt lat="42.255465100823024" lon="11.927435199059891"><ele>282.25</ele><time>2026-04-24T16:27:55Z</time></trkpt><trkpt lat="42.25551093289703" lon="11.9272578225923"><ele>282.5</ele><time>2026-04-24T16:27:56Z</time></trkpt><trkpt lat="42.25556486291468" lon="11.92708126031148"><ele>282.75</ele><time>2026-04-24T16:27:57Z</time></trkpt><trkpt lat="42.25561178887969" lon="11.926912918734809"><ele>283.0</ele><time>2026-04-24T16:27:58Z</time></trkpt><trkpt lat="42.25565605970905" lon="11.926748152505818"><ele>279.75</ele><time>2026-04-24T16:27:59Z</time></trkpt><trkpt lat="42.25570585334575" lon="11.926570960739555"><ele>276.5</ele><time>2026-04-24T16:28:00Z</time></trkpt><trkpt lat="42.255745872317206" lon="11.926408721227638"><ele>273.25</ele><time>2026-04-24T16:28:01Z</time></trkpt><trkpt lat="42.25578933514048" lon="11.926242842530673"><ele>270.0</ele><time>2026-04-24T16:28:02Z</time></trkpt><trkpt lat="42.255837344399744" lon="11.926086862208667"><ele>270.0</ele><time>2026-04-24T16:28:03Z</time></trkpt><trkpt lat="42.25588896446735" lon="11.92592744630705"><ele>270.0</ele><time>2026-04-24T16:28:04Z</time></trkpt><trkpt lat="42.2559325394233" lon="11.925769294999506"><ele>270.0</ele><time>2026-04-24T16:28:05Z</time></trkpt><trkpt lat="42.25597709065975" lon="11.925618135855999"><ele>270.0</ele><time>2026-04-24T16:28:06Z</time></trkpt><trkpt lat="42.25602408751793" lon="11.925463648449918"><ele>269.0</ele><time>2026-04-24T16:28:07Z</time></trkpt><trkpt lat="42.25607315894161" lon="11.925315436043508"><ele>268.0</ele><time>2026-04-24T16:28:08Z</time></trkpt><trkpt lat="42.25610473872516" lon="11.925173958649586"><ele>267.0</ele><time>2026-04-24T16:28:09Z</time></trkpt><trkpt lat="42.25616719198212" lon="11.925005486585297"><ele>266.0</ele><time>2026-04-24T16:28:10Z</time></trkpt><trkpt lat="42.25621947231665" lon="11.924871090996376"><ele>265.40000000000003</ele><time>2026-04-24T16:28:11Z</time></trkpt><trkpt lat="42.25626892738176" lon="11.924750406588446"><ele>264.8</ele><time>2026-04-24T16:28:12Z</time></trkpt><trkpt lat="42.25632386752043" lon="11.924646824791113"><ele>264.20000000000005</ele><time>2026-04-24T16:28:13Z</time></trkpt><trkpt lat="42.256397866004974" lon="11.924543634721372"><ele>263.6</ele><time>2026-04-24T16:28:14Z</time></trkpt><trkpt lat="42.25646287963979" lon="11.924449833905195"><ele>263.0</ele><time>2026-04-24T16:28:15Z</time></trkpt><trkpt lat="42.25655943946308" lon="11.924367016492727"><ele>262.0</ele><time>2026-04-24T16:28:16Z</time></trkpt><trkpt lat="42.25666311648606" lon="11.924284461063015"><ele>261.0</ele><time>2026-04-24T16:28:17Z</time></trkpt><trkpt lat="42.25677679605897" lon="11.92422923931671"><ele>260.0</ele><time>2026-04-24T16:28:18Z</time></trkpt><trkpt lat="42.25690394564451" lon="11.924168284429866"><ele>259.0</ele><time>2026-04-24T16:28:19Z</time></trkpt><trkpt lat="42.25702569934549" lon="11.924100778412047"><ele>259.0</ele><time>2026-04-24T16:28:20Z</time></trkpt><trkpt lat="42.257145556987545" lon="11.924040906868774"><ele>259.0</ele><time>2026-04-24T16:28:21Z</time></trkpt><trkpt lat="42.2572617480585" lon="11.923994384736467"><ele>259.0</ele><time>2026-04-24T16:28:22Z</time></trkpt><trkpt lat="42.25738084283571" lon="11.923949317653863"><ele>259.0</ele><time>2026-04-24T16:28:23Z</time></trkpt><trkpt lat="42.257477046719714" lon="11.923916550901678"><ele>259.0</ele><time>2026-04-24T16:28:24Z</time></trkpt><trkpt lat="42.257601294163784" lon="11.923899176296521"><ele>259.0</ele><time>2026-04-24T16:28:25Z</time></trkpt><trkpt lat="42.25771814493411" lon="11.923877215933558"><ele>259.0</ele><time>2026-04-24T16:28:26Z</time></trkpt><trkpt lat="42.25783327592077" lon="11.923882733653532"><ele>259.0</ele><time>2026-04-24T16:28:27Z</time></trkpt><trkpt lat="42.257942805296096" lon="11.92387035635149"><ele>259.0</ele><time>2026-04-24T16:28:28Z</time></trkpt><trkpt lat="42.25805482567081" lon="11.923877405747449"><ele>259.0</ele><time>2026-04-24T16:28:29Z</time></trkpt><trkpt lat="42.25820253475981" lon="11.923881800130577"><ele>259.0</ele><time>2026-04-24T16:28:30Z</time></trkpt><trkpt lat="42.258342626210045" lon="11.923900152578488"><ele>259.0</ele><time>2026-04-24T16:28:31Z</time></trkpt><trkpt lat="42.25848561342746" lon="11.923905539348205"><ele>257.75</ele><time>2026-04-24T16:28:32Z</time></trkpt><trkpt lat="42.25861747854238" lon="11.923900369115625"><ele>256.5</ele><time>2026-04-24T16:28:33Z</time></trkpt><trkpt lat="42.25878455776226" lon="11.923959879679373"><ele>255.25</ele><time>2026-04-24T16:28:34Z</time></trkpt><trkpt lat="42.2589188906493" lon="11.92397480978172"><ele>254.0</ele><time>2026-04-24T16:28:35Z</time></trkpt><trkpt lat="42.259047222634635" lon="11.923988799641725"><ele>252.75</ele><time>2026-04-24T16:28:36Z</time></trkpt><trkpt lat="42.259179419423866" lon="11.923993971183231"><ele>251.5</ele><time>2026-04-24T16:28:37Z</time></trkpt><trkpt lat="42.259290238300814" lon="11.923989518263065"><ele>250.25</ele><time>2026-04-24T16:28:38Z</time></trkpt><trkpt lat="42.2594151943769" lon="11.923981923474615"><ele>249.0</ele><time>2026-04-24T16:28:39Z</time></trkpt><trkpt lat="42.259532419736914" lon="11.923943848963741"><ele>249.0</ele><time>2026-04-24T16:28:40Z</time></trkpt><trkpt lat="42.25966607413555" lon="11.923901278828428"><ele>249.0</ele><time>2026-04-24T16:28:41Z</time></trkpt><trkpt lat="42.25978276629735" lon="11.923842425348873"><ele>249.0</ele><time>2026-04-24T16:28:42Z</time></trkpt><trkpt lat="42.25989356133198" lon="11.923770208285946"><ele>249.0</ele><time>2026-04-24T16:28:43Z</time></trkpt><trkpt lat="42.26001464477597" lon="11.923684387389644"><ele>247.0</ele><time>2026-04-24T16:28:44Z</time></trkpt><trkpt lat="42.26014893343336" lon="11.923582714560622"><ele>245.0</ele><time>2026-04-24T16:28:45Z</time></trkpt><trkpt lat="42.260291140750454" lon="11.923480872391119"><ele>243.0</ele><time>2026-04-24T16:28:46Z</time></trkpt><trkpt lat="42.260418734527185" lon="11.923389740519731"><ele>242.33333333333331</ele><time>2026-04-24T16:28:47Z</time></trkpt><trkpt lat="42.260593082609134" lon="11.923277089296334"><ele>241.66666666666666</ele><time>2026-04-24T16:28:48Z</time></trkpt><trkpt lat="42.26074529574576" lon="11.923172552807896"><ele>241.0</ele><time>2026-04-24T16:28:49Z</time></trkpt><trkpt lat="42.260892025993236" lon="11.923071465333873"><ele>241.0</ele><time>2026-04-24T16:28:50Z</time></trkpt><trkpt lat="42.26103142928409" lon="11.922975208704798"><ele>241.0</ele><time>2026-04-24T16:28:51Z</time></trkpt><trkpt lat="42.261171657836435" lon="11.922886334619285"><ele>241.0</ele><time>2026-04-24T16:28:52Z</time></trkpt><trkpt lat="42.26130872543734" lon="11.922793346891256"><ele>241.0</ele><time>2026-04-24T16:28:53Z</time></trkpt><trkpt lat="42.26144107407099" lon="11.922709109534312"><ele>241.0</ele><time>2026-04-24T16:28:54Z</time></trkpt><trkpt lat="42.261582540742346" lon="11.92260372427464"><ele>241.0</ele><time>2026-04-24T16:28:55Z</time></trkpt><trkpt lat="42.26172783626424" lon="11.922507815935251"><ele>239.66666666666666</ele><time>2026-04-24T16:28:56Z</time></trkpt><trkpt lat="42.26187160638689" lon="11.922402453794666"><ele>238.33333333333331</ele><time>2026-04-24T16:28:57Z</time></trkpt><trkpt lat="42.26201288511431" lon="11.92230026517367"><ele>237.0</ele><time>2026-04-24T16:28:58Z</time></trkpt><trkpt lat="42.262160417317496" lon="11.922210086298538"><ele>237.33333333333331</ele><time>2026-04-24T16:28:59Z</time></trkpt><trkpt lat="42.26229716186929" lon="11.922111781162926"><ele>237.66666666666666</ele><time>2026-04-24T16:29:00Z</time></trkpt><trkpt lat="42.262438863397605" lon="11.922009813905333"><ele>238.0</ele><time>2026-04-24T16:29:01Z</time></trkpt><trkpt lat="42.26258141775297" lon="11.921908884570028"><ele>238.0</ele><time>2026-04-24T16:29:02Z</time></trkpt><trkpt lat="42.262725421984456" lon="11.921816211043671"><ele>238.0</ele><time>2026-04-24T16:29:03Z</time></trkpt><trkpt lat="42.26286998513906" lon="11.921727671773425"><ele>238.0</ele><time>2026-04-24T16:29:04Z</time></trkpt><trkpt lat="42.26299003315603" lon="11.921617593820397"><ele>237.0</ele><time>2026-04-24T16:29:05Z</time></trkpt><trkpt lat="42.26313528755958" lon="11.921512591554158"><ele>236.0</ele><time>2026-04-24T16:29:06Z</time></trkpt><trkpt lat="42.26327472505722" lon="11.921417233962531"><ele>235.0</ele><time>2026-04-24T16:29:07Z</time></trkpt><trkpt lat="42.26341628084424" lon="11.921324102905208"><ele>235.0</ele><time>2026-04-24T16:29:08Z</time></trkpt><trkpt lat="42.26355461291163" lon="11.921228477273033"><ele>235.0</ele><time>2026-04-24T16:29:09Z</time></trkpt><trkpt lat="42.26370940626313" lon="11.921121038465019"><ele>235.0</ele><time>2026-04-24T16:29:10Z</time></trkpt><trkpt lat="42.26387137955934" lon="11.921006363222112"><ele>235.33333333333331</ele><time>2026-04-24T16:29:11Z</time></trkpt><trkpt lat="42.26403548624207" lon="11.920891099241521"><ele>235.66666666666669</ele><time>2026-04-24T16:29:12Z</time></trkpt><trkpt lat="42.26420346199819" lon="11.920770347569485"><ele>236.0</ele><time>2026-04-24T16:29:13Z</time></trkpt><trkpt lat="42.26436862598786" lon="11.920661854319548"><ele>236.0</ele><time>2026-04-24T16:29:14Z</time></trkpt><trkpt lat="42.26453700221133" lon="11.920540622876839"><ele>236.0</ele><time>2026-04-24T16:29:15Z</time></trkpt><trkpt lat="42.26469907785052" lon="11.920429081405127"><ele>236.0</ele><time>2026-04-24T16:29:16Z</time></trkpt><trkpt lat="42.26484817115263" lon="11.920322588965634"><ele>235.33333333333334</ele><time>2026-04-24T16:29:17Z</time></trkpt><trkpt lat="42.26498540582327" lon="11.920228169817152"><ele>234.66666666666669</ele><time>2026-04-24T16:29:18Z</time></trkpt><trkpt lat="42.26512331556705" lon="11.920134684884392"><ele>234.0</ele><time>2026-04-24T16:29:19Z</time></trkpt><trkpt lat="42.265257576779945" lon="11.920048365729413"><ele>233.66666666666669</ele><time>2026-04-24T16:29:20Z</time></trkpt><trkpt lat="42.26539353641576" lon="11.91996356286574"><ele>233.33333333333334</ele><time>2026-04-24T16:29:21Z</time></trkpt><trkpt lat="42.26552803362941" lon="11.919866231433165"><ele>233.0</ele><time>2026-04-24T16:29:22Z</time></trkpt><trkpt lat="42.265659904957204" lon="11.9197756122436"><ele>232.66666666666669</ele><time>2026-04-24T16:29:23Z</time></trkpt><trkpt lat="42.2658005622995" lon="11.91967532705464"><ele>232.33333333333331</ele><time>2026-04-24T16:29:24Z</time></trkpt><trkpt lat="42.26595030520993" lon="11.919577003147488"><ele>232.0</ele><time>2026-04-24T16:29:25Z</time></trkpt><trkpt lat="42.266092913555255" lon="11.919476500225361"><ele>232.0</ele><time>2026-04-24T16:29:26Z</time></trkpt><trkpt lat="42.26622792761557" lon="11.919380102298817"><ele>232.0</ele><time>2026-04-24T16:29:27Z</time></trkpt><trkpt lat="42.266349623033875" lon="11.919290557239417"><ele>232.0</ele><time>2026-04-24T16:29:28Z</time></trkpt><trkpt lat="42.26646502824735" lon="11.919210631174828"><ele>232.0</ele><time>2026-04-24T16:29:29Z</time></trkpt><trkpt lat="42.26659300332227" lon="11.919119949377182"><ele>230.33333333333331</ele><time>2026-04-24T16:29:30Z</time></trkpt><trkpt lat="42.266740110354846" lon="11.91902040265173"><ele>228.66666666666669</ele><time>2026-04-24T16:29:31Z</time></trkpt><trkpt lat="42.26689336903204" lon="11.918926637537922"><ele>227.0</ele><time>2026-04-24T16:29:32Z</time></trkpt><trkpt lat="42.26703256827718" lon="11.918835703468444"><ele>227.0</ele><time>2026-04-24T16:29:33Z</time></trkpt><trkpt lat="42.26717042410335" lon="11.918737448749239"><ele>227.0</ele><time>2026-04-24T16:29:34Z</time></trkpt><trkpt lat="42.26730710939657" lon="11.918635491858705"><ele>227.0</ele><time>2026-04-24T16:29:35Z</time></trkpt><trkpt lat="42.26745507655249" lon="11.918538079301172"><ele>226.33333333333334</ele><time>2026-04-24T16:29:36Z</time></trkpt><trkpt lat="42.267604300413566" lon="11.918440815146305"><ele>225.66666666666669</ele><time>2026-04-24T16:29:37Z</time></trkpt><trkpt lat="42.26776457287651" lon="11.918329639133256"><ele>225.0</ele><time>2026-04-24T16:29:38Z</time></trkpt><trkpt lat="42.26792776384712" lon="11.918221082667863"><ele>225.0</ele><time>2026-04-24T16:29:39Z</time></trkpt><trkpt lat="42.26807329169954" lon="11.91812219321326"><ele>225.0</ele><time>2026-04-24T16:29:40Z</time></trkpt><trkpt lat="42.26821710777025" lon="11.918039122116198"><ele>225.0</ele><time>2026-04-24T16:29:40.999Z</time></trkpt><trkpt lat="42.26834722523445" lon="11.917946809678089"><ele>225.0</ele><time>2026-04-24T16:29:41.999Z</time></trkpt><trkpt lat="42.26846819531195" lon="11.917867086968544"><ele>225.0</ele><time>2026-04-24T16:29:42.999Z</time></trkpt><trkpt lat="42.268579053555015" lon="11.917789132309967"><ele>225.0</ele><time>2026-04-24T16:29:43.999Z</time></trkpt><trkpt lat="42.2686767981058" lon="11.917714981906075"><ele>225.0</ele><time>2026-04-24T16:29:44.999Z</time></trkpt><trkpt lat="42.26877868631679" lon="11.917652603951723"><ele>225.0</ele><time>2026-04-24T16:29:45.999Z</time></trkpt><trkpt lat="42.268885309083984" lon="11.917568824543219"><ele>225.0</ele><time>2026-04-24T16:29:46.999Z</time></trkpt><trkpt lat="42.26900137708937" lon="11.917480438918819"><ele>225.0</ele><time>2026-04-24T16:29:47.999Z</time></trkpt><trkpt lat="42.26912471689831" lon="11.917386146661721"><ele>225.0</ele><time>2026-04-24T16:29:48.999Z</time></trkpt><trkpt lat="42.26923426739564" lon="11.91730154664303"><ele>224.5</ele><time>2026-04-24T16:29:49.999Z</time></trkpt><trkpt lat="42.26934435433893" lon="11.917220105690435"><ele>224.0</ele><time>2026-04-24T16:29:51Z</time></trkpt><trkpt lat="42.26945023903745" lon="11.91717017658481"><ele>223.5</ele><time>2026-04-24T16:29:52Z</time></trkpt><trkpt lat="42.269553916617674" lon="11.917103151609881"><ele>223.0</ele><time>2026-04-24T16:29:53Z</time></trkpt><trkpt lat="42.269663044766105" lon="11.917023873888187"><ele>223.25</ele><time>2026-04-24T16:29:54Z</time></trkpt><trkpt lat="42.26978832374895" lon="11.916952329229474"><ele>223.5</ele><time>2026-04-24T16:29:55Z</time></trkpt><trkpt lat="42.26990478669889" lon="11.9168611467703"><ele>223.75</ele><time>2026-04-24T16:29:56Z</time></trkpt><trkpt lat="42.27003030628043" lon="11.916757516868605"><ele>224.0</ele><time>2026-04-24T16:29:57Z</time></trkpt><trkpt lat="42.27015219124649" lon="11.916665898487311"><ele>224.25</ele><time>2026-04-24T16:29:58Z</time></trkpt><trkpt lat="42.27026945061879" lon="11.916579892972463"><ele>224.5</ele><time>2026-04-24T16:29:59Z</time></trkpt><trkpt lat="42.27039310545526" lon="11.916495050996295"><ele>224.75</ele><time>2026-04-24T16:30:00Z</time></trkpt><trkpt lat="42.270507751865836" lon="11.91641296991136"><ele>225.0</ele><time>2026-04-24T16:30:01Z</time></trkpt><trkpt lat="42.27061582141708" lon="11.916335726303341"><ele>225.0</ele><time>2026-04-24T16:30:02Z</time></trkpt><trkpt lat="42.27072139086245" lon="11.916262704216015"><ele>225.0</ele><time>2026-04-24T16:30:03Z</time></trkpt><trkpt lat="42.27081124109777" lon="11.916189004275788"><ele>225.0</ele><time>2026-04-24T16:30:04Z</time></trkpt><trkpt lat="42.27089479971877" lon="11.916116722463919"><ele>225.0</ele><time>2026-04-24T16:30:05Z</time></trkpt><trkpt lat="42.27097489448888" lon="11.916042814750988"><ele>225.0</ele><time>2026-04-24T16:30:06Z</time></trkpt><trkpt lat="42.27104736493337" lon="11.91594850018085"><ele>224.8</ele><time>2026-04-24T16:30:07Z</time></trkpt><trkpt lat="42.27111895977013" lon="11.915845216184575"><ele>224.6</ele><time>2026-04-24T16:30:08Z</time></trkpt><trkpt lat="42.271177046199156" lon="11.915736805805105"><ele>224.39999999999998</ele><time>2026-04-24T16:30:09Z</time></trkpt><trkpt lat="42.271227386656406" lon="11.915616989793332"><ele>224.2</ele><time>2026-04-24T16:30:10Z</time></trkpt><trkpt lat="42.271271870380275" lon="11.91549856862772"><ele>224.0</ele><time>2026-04-24T16:30:11Z</time></trkpt><trkpt lat="42.27130524114477" lon="11.915369950652881"><ele>224.0</ele><time>2026-04-24T16:30:12Z</time></trkpt><trkpt lat="42.27132581253178" lon="11.91523911235667"><ele>223.99999999999997</ele><time>2026-04-24T16:30:13Z</time></trkpt><trkpt lat="42.271331631410824" lon="11.9151048493002"><ele>223.99999999999997</ele><time>2026-04-24T16:30:14Z</time></trkpt><trkpt lat="42.27132302035931" lon="11.914968528510178"><ele>224.0</ele><time>2026-04-24T16:30:15Z</time></trkpt><trkpt lat="42.271306566406885" lon="11.91483064891519"><ele>224.0</ele><time>2026-04-24T16:30:16Z</time></trkpt><trkpt lat="42.271283079915364" lon="11.914690904920073"><ele>223.25</ele><time>2026-04-24T16:30:17Z</time></trkpt><trkpt lat="42.271232353238126" lon="11.914548240556973"><ele>222.5</ele><time>2026-04-24T16:30:18Z</time></trkpt><trkpt lat="42.2711887727719" lon="11.91441221320883"><ele>221.75</ele><time>2026-04-24T16:30:19Z</time></trkpt><trkpt lat="42.2711375095199" lon="11.914258850284478"><ele>221.0</ele><time>2026-04-24T16:30:20Z</time></trkpt><trkpt lat="42.27108243644541" lon="11.914104050170506"><ele>220.25</ele><time>2026-04-24T16:30:21Z</time></trkpt><trkpt lat="42.271042560264625" lon="11.91394214254445"><ele>219.5</ele><time>2026-04-24T16:30:22Z</time></trkpt><trkpt lat="42.27099024632383" lon="11.913784154958485"><ele>218.75</ele><time>2026-04-24T16:30:23Z</time></trkpt><trkpt lat="42.27092647631617" lon="11.913608744455745"><ele>218.0</ele><time>2026-04-24T16:30:24Z</time></trkpt><trkpt lat="42.27088360758282" lon="11.913438011791289"><ele>217.0</ele><time>2026-04-24T16:30:25Z</time></trkpt><trkpt lat="42.27083060425239" lon="11.913278607845896"><ele>216.0</ele><time>2026-04-24T16:30:26Z</time></trkpt><trkpt lat="42.2708307867253" lon="11.913110467874423"><ele>215.0</ele><time>2026-04-24T16:30:27Z</time></trkpt><trkpt lat="42.27078960960991" lon="11.912964264188076"><ele>214.0</ele><time>2026-04-24T16:30:28Z</time></trkpt><trkpt lat="42.27075223373516" lon="11.912831557221624"><ele>214.0</ele><time>2026-04-24T16:30:29Z</time></trkpt><trkpt lat="42.270712162765015" lon="11.912685304138886"><ele>214.0</ele><time>2026-04-24T16:30:30Z</time></trkpt><trkpt lat="42.27067333638111" lon="11.912543609406816"><ele>214.0</ele><time>2026-04-24T16:30:31Z</time></trkpt><trkpt lat="42.27063302790414" lon="11.912396505873732"><ele>214.0</ele><time>2026-04-24T16:30:32Z</time></trkpt><trkpt lat="42.27059370151221" lon="11.912253673144756"><ele>213.5</ele><time>2026-04-24T16:30:33Z</time></trkpt><trkpt lat="42.27053467348513" lon="11.91210334048463"><ele>213.0</ele><time>2026-04-24T16:30:34Z</time></trkpt><trkpt lat="42.27051451111742" lon="11.911924821303728"><ele>212.5</ele><time>2026-04-24T16:30:35Z</time></trkpt><trkpt lat="42.2704723605304" lon="11.91174795277805"><ele>212.0</ele><time>2026-04-24T16:30:36Z</time></trkpt><trkpt lat="42.27041851994441" lon="11.91159064026331"><ele>212.0</ele><time>2026-04-24T16:30:37Z</time></trkpt><trkpt lat="42.27036763746571" lon="11.911426463644732"><ele>212.0</ele><time>2026-04-24T16:30:38Z</time></trkpt><trkpt lat="42.27031856729827" lon="11.911273140666797"><ele>212.0</ele><time>2026-04-24T16:30:39Z</time></trkpt><trkpt lat="42.270265430363665" lon="11.911093555757299"><ele>212.0</ele><time>2026-04-24T16:30:40Z</time></trkpt><trkpt lat="42.27022505400563" lon="11.910953845864722"><ele>212.75</ele><time>2026-04-24T16:30:41Z</time></trkpt><trkpt lat="42.270184609917656" lon="11.910808771689346"><ele>213.5</ele><time>2026-04-24T16:30:42Z</time></trkpt><trkpt lat="42.27015418158659" lon="11.910648760797038"><ele>214.25</ele><time>2026-04-24T16:30:43Z</time></trkpt><trkpt lat="42.270115897655096" lon="11.910504010721253"><ele>215.0</ele><time>2026-04-24T16:30:44Z</time></trkpt><trkpt lat="42.27007705429224" lon="11.910357145499097"><ele>215.0</ele><time>2026-04-24T16:30:45Z</time></trkpt><trkpt lat="42.270040605598005" lon="11.910226648434783"><ele>215.0</ele><time>2026-04-24T16:30:46Z</time></trkpt><trkpt lat="42.270000814798856" lon="11.910100069959983"><ele>215.0</ele><time>2026-04-24T16:30:47Z</time></trkpt><trkpt lat="42.26994795426946" lon="11.909955036411379"><ele>215.0</ele><time>2026-04-24T16:30:48Z</time></trkpt><trkpt lat="42.2698663213104" lon="11.90978724491043"><ele>217.66666666666669</ele><time>2026-04-24T16:30:49Z</time></trkpt><trkpt lat="42.2697709747881" lon="11.909624685471517"><ele>220.33333333333331</ele><time>2026-04-24T16:30:50Z</time></trkpt><trkpt lat="42.26966064139592" lon="11.909458274762152"><ele>223.0</ele><time>2026-04-24T16:30:51Z</time></trkpt><trkpt lat="42.269568494067286" lon="11.909324464830652"><ele>223.5</ele><time>2026-04-24T16:30:52Z</time></trkpt><trkpt lat="42.26947741538116" lon="11.909184454439284"><ele>224.0</ele><time>2026-04-24T16:30:53Z</time></trkpt><trkpt lat="42.26939510582503" lon="11.909050250903606"><ele>224.5</ele><time>2026-04-24T16:30:54Z</time></trkpt><trkpt lat="42.269336810790676" lon="11.908943460171868"><ele>225.0</ele><time>2026-04-24T16:30:55Z</time></trkpt><trkpt lat="42.26928090385235" lon="11.908815657680417"><ele>225.0</ele><time>2026-04-24T16:30:56Z</time></trkpt><trkpt lat="42.269235754260244" lon="11.908687999225695"><ele>225.0</ele><time>2026-04-24T16:30:57Z</time></trkpt><trkpt lat="42.269203835526085" lon="11.908560303451047"><ele>225.0</ele><time>2026-04-24T16:30:58Z</time></trkpt><trkpt lat="42.26917533128317" lon="11.908408751958207"><ele>225.0</ele><time>2026-04-24T16:30:59Z</time></trkpt><trkpt lat="42.26916460442178" lon="11.908278304758145"><ele>225.0</ele><time>2026-04-24T16:31:00Z</time></trkpt><trkpt lat="42.26916460055825" lon="11.908149554247084"><ele>225.5</ele><time>2026-04-24T16:31:01Z</time></trkpt><trkpt lat="42.26918377074507" lon="11.907976851263411"><ele>226.0</ele><time>2026-04-24T16:31:02Z</time></trkpt><trkpt lat="42.26918374067164" lon="11.907812535900646"><ele>226.5</ele><time>2026-04-24T16:31:03Z</time></trkpt><trkpt lat="42.26918484954202" lon="11.90764265103379"><ele>227.0</ele><time>2026-04-24T16:31:04Z</time></trkpt><trkpt lat="42.26919936054476" lon="11.907463947903826"><ele>227.0</ele><time>2026-04-24T16:31:05Z</time></trkpt><trkpt lat="42.26921181896531" lon="11.907283415626692"><ele>227.0</ele><time>2026-04-24T16:31:06Z</time></trkpt><trkpt lat="42.26923122854113" lon="11.90711871534886"><ele>227.0</ele><time>2026-04-24T16:31:07Z</time></trkpt><trkpt lat="42.269250842106175" lon="11.906947235509419"><ele>227.0</ele><time>2026-04-24T16:31:08Z</time></trkpt><trkpt lat="42.26925978116681" lon="11.906788857967294"><ele>228.5</ele><time>2026-04-24T16:31:09Z</time></trkpt><trkpt lat="42.269278949381615" lon="11.906607103798425"><ele>230.0</ele><time>2026-04-24T16:31:10Z</time></trkpt><trkpt lat="42.26927897009271" lon="11.906458627665007"><ele>231.5</ele><time>2026-04-24T16:31:11Z</time></trkpt><trkpt lat="42.2692975350884" lon="11.906305263986962"><ele>233.0</ele><time>2026-04-24T16:31:12Z</time></trkpt><trkpt lat="42.26930950679743" lon="11.906155565354968"><ele>233.0</ele><time>2026-04-24T16:31:13Z</time></trkpt><trkpt lat="42.2693230472274" lon="11.906013879210477"><ele>233.0</ele><time>2026-04-24T16:31:14Z</time></trkpt><trkpt lat="42.26934429751161" lon="11.905873811601081"><ele>233.0</ele><time>2026-04-24T16:31:15Z</time></trkpt><trkpt lat="42.269369098655446" lon="11.905735381745055"><ele>233.0</ele><time>2026-04-24T16:31:16Z</time></trkpt><trkpt lat="42.269402532161585" lon="11.905601438099158"><ele>233.0</ele><time>2026-04-24T16:31:17Z</time></trkpt><trkpt lat="42.26945316597149" lon="11.90546885484884"><ele>233.0</ele><time>2026-04-24T16:31:18Z</time></trkpt><trkpt lat="42.26949953300078" lon="11.90534512320528"><ele>233.0</ele><time>2026-04-24T16:31:19Z</time></trkpt><trkpt lat="42.26956748219968" lon="11.905222144665123"><ele>233.0</ele><time>2026-04-24T16:31:20Z</time></trkpt><trkpt lat="42.26964908148024" lon="11.90510646942357"><ele>233.0</ele><time>2026-04-24T16:31:21Z</time></trkpt><trkpt lat="42.26973520760586" lon="11.905011886262727"><ele>233.0</ele><time>2026-04-24T16:31:22Z</time></trkpt><trkpt lat="42.269814111916745" lon="11.904922238549249"><ele>231.8</ele><time>2026-04-24T16:31:23Z</time></trkpt><trkpt lat="42.269899958075975" lon="11.904837995030881"><ele>230.60000000000002</ele><time>2026-04-24T16:31:24Z</time></trkpt><trkpt lat="42.26999551171191" lon="11.904759115391633"><ele>229.39999999999998</ele><time>2026-04-24T16:31:25Z</time></trkpt><trkpt lat="42.27007473133526" lon="11.904685348661307"><ele>228.2</ele><time>2026-04-24T16:31:26Z</time></trkpt><trkpt lat="42.27015668425002" lon="11.904597633346471"><ele>227.0</ele><time>2026-04-24T16:31:27Z</time></trkpt><trkpt lat="42.27024373233172" lon="11.904506616632005"><ele>227.0</ele><time>2026-04-24T16:31:28Z</time></trkpt><trkpt lat="42.27033072276532" lon="11.904440751078605"><ele>227.0</ele><time>2026-04-24T16:31:29Z</time></trkpt><trkpt lat="42.2704095685403" lon="11.904359833577384"><ele>227.0</ele><time>2026-04-24T16:31:30Z</time></trkpt><trkpt lat="42.270492976069384" lon="11.9042870068458"><ele>227.0</ele><time>2026-04-24T16:31:31Z</time></trkpt><trkpt lat="42.270569421871755" lon="11.904213935208244"><ele>227.0</ele><time>2026-04-24T16:31:32Z</time></trkpt><trkpt lat="42.27065418187565" lon="11.904144319427406"><ele>227.33333333333334</ele><time>2026-04-24T16:31:33Z</time></trkpt><trkpt lat="42.270727618172884" lon="11.904080188089027"><ele>227.66666666666669</ele><time>2026-04-24T16:31:34Z</time></trkpt><trkpt lat="42.27079014948428" lon="11.904029333399762"><ele>228.0</ele><time>2026-04-24T16:31:35Z</time></trkpt><trkpt lat="42.27086593386257" lon="11.903926688961267"><ele>228.33333333333331</ele><time>2026-04-24T16:31:37Z</time></trkpt><trkpt lat="42.270908738833946" lon="11.903851751510986"><ele>228.66666666666666</ele><time>2026-04-24T16:31:47.999Z</time></trkpt><trkpt lat="42.27089647970371" lon="11.903709954339453"><ele>229.0</ele><time>2026-04-24T16:31:51.999Z</time></trkpt><trkpt lat="42.27084895560257" lon="11.903633172826465"><ele>229.0</ele><time>2026-04-24T16:31:52.999Z</time></trkpt><trkpt lat="42.270783144786506" lon="11.903540684742513"><ele>228.99999999999997</ele><time>2026-04-24T16:31:53.999Z</time></trkpt><trkpt lat="42.27071012009751" lon="11.903464734617073"><ele>228.99999999999997</ele><time>2026-04-24T16:31:54.999Z</time></trkpt><trkpt lat="42.270662449906176" lon="11.90338517462279"><ele>229.0</ele><time>2026-04-24T16:31:55.999Z</time></trkpt><trkpt lat="42.27061035739575" lon="11.903314071874542"><ele>229.0</ele><time>2026-04-24T16:31:57Z</time></trkpt><trkpt lat="42.2705255012169" lon="11.903156981117492"><ele>229.39999999999998</ele><time>2026-04-24T16:31:59Z</time></trkpt><trkpt lat="42.27047684557373" lon="11.903077988274235"><ele>229.79999999999998</ele><time>2026-04-24T16:32:00Z</time></trkpt><trkpt lat="42.270429571704085" lon="11.90299349866265"><ele>230.20000000000002</ele><time>2026-04-24T16:32:01Z</time></trkpt><trkpt lat="42.27037059973842" lon="11.902915445161662"><ele>230.60000000000002</ele><time>2026-04-24T16:32:02Z</time></trkpt><trkpt lat="42.270292208958814" lon="11.902799278585267"><ele>231.0</ele><time>2026-04-24T16:32:03Z</time></trkpt><trkpt lat="42.27021168432408" lon="11.90268725182153"><ele>231.0</ele><time>2026-04-24T16:32:04Z</time></trkpt><trkpt lat="42.270155275358015" lon="11.902596864994894"><ele>231.0</ele><time>2026-04-24T16:32:05Z</time></trkpt><trkpt lat="42.270105093873205" lon="11.902521419991116"><ele>231.0</ele><time>2026-04-24T16:32:06Z</time></trkpt><trkpt lat="42.27006485433151" lon="11.902443365581625"><ele>231.0</ele><time>2026-04-24T16:32:07Z</time></trkpt><trkpt lat="42.270016167363735" lon="11.9023543374325"><ele>231.0</ele><time>2026-04-24T16:32:08Z</time></trkpt><trkpt lat="42.2699580914704" lon="11.902263998737226"><ele>231.0</ele><time>2026-04-24T16:32:09Z</time></trkpt><trkpt lat="42.26990330481646" lon="11.902176409904696"><ele>232.0</ele><time>2026-04-24T16:32:10Z</time></trkpt><trkpt lat="42.26984585238965" lon="11.902073686717202"><ele>233.00000000000003</ele><time>2026-04-24T16:32:11Z</time></trkpt><trkpt lat="42.26978634326611" lon="11.901972445918654"><ele>234.00000000000003</ele><time>2026-04-24T16:32:12Z</time></trkpt><trkpt lat="42.26972584908939" lon="11.90186726688627"><ele>235.0</ele><time>2026-04-24T16:32:13Z</time></trkpt><trkpt lat="42.26967225632774" lon="11.901741749412555"><ele>236.0</ele><time>2026-04-24T16:32:14Z</time></trkpt><trkpt lat="42.26960296608822" lon="11.901619690148191"><ele>236.4</ele><time>2026-04-24T16:32:15Z</time></trkpt><trkpt lat="42.2695407232328" lon="11.901505710395133"><ele>236.8</ele><time>2026-04-24T16:32:16Z</time></trkpt><trkpt lat="42.26947264477121" lon="11.901376975612562"><ele>237.20000000000002</ele><time>2026-04-24T16:32:17Z</time></trkpt><trkpt lat="42.26940948614938" lon="11.901239163913663"><ele>237.60000000000002</ele><time>2026-04-24T16:32:18Z</time></trkpt><trkpt lat="42.26935188860721" lon="11.901124381432592"><ele>238.0</ele><time>2026-04-24T16:32:19Z</time></trkpt><trkpt lat="42.26930988954381" lon="11.901023385544352"><ele>238.60000000000002</ele><time>2026-04-24T16:32:20Z</time></trkpt><trkpt lat="42.26926827380556" lon="11.900915689671875"><ele>239.20000000000002</ele><time>2026-04-24T16:32:21Z</time></trkpt><trkpt lat="42.26922640443475" lon="11.900817164925828"><ele>239.8</ele><time>2026-04-24T16:32:22Z</time></trkpt><trkpt lat="42.26916794402784" lon="11.90069806978561"><ele>240.4</ele><time>2026-04-24T16:32:23Z</time></trkpt><trkpt lat="42.26911049348355" lon="11.90058724836998"><ele>241.0</ele><time>2026-04-24T16:32:24Z</time></trkpt><trkpt lat="42.26906045006544" lon="11.900477735972311"><ele>241.0</ele><time>2026-04-24T16:32:25Z</time></trkpt><trkpt lat="42.26901508588456" lon="11.900372852986061"><ele>241.00000000000003</ele><time>2026-04-24T16:32:26Z</time></trkpt><trkpt lat="42.26897483851162" lon="11.900286812154581"><ele>241.00000000000003</ele><time>2026-04-24T16:32:27Z</time></trkpt><trkpt lat="42.26893115070186" lon="11.900180491839457"><ele>241.0</ele><time>2026-04-24T16:32:28Z</time></trkpt><trkpt lat="42.268871054284354" lon="11.900056015386362"><ele>241.0</ele><time>2026-04-24T16:32:29Z</time></trkpt><trkpt lat="42.26881632104731" lon="11.899921952425046"><ele>240.4</ele><time>2026-04-24T16:32:30Z</time></trkpt><trkpt lat="42.26876353105449" lon="11.89980464306361"><ele>239.8</ele><time>2026-04-24T16:32:31Z</time></trkpt><trkpt lat="42.26871115046737" lon="11.899683856274661"><ele>239.20000000000002</ele><time>2026-04-24T16:32:32Z</time></trkpt><trkpt lat="42.26866629729676" lon="11.899583459938539"><ele>238.60000000000002</ele><time>2026-04-24T16:32:33Z</time></trkpt><trkpt lat="42.26861782820821" lon="11.899471669443438"><ele>238.0</ele><time>2026-04-24T16:32:34Z</time></trkpt><trkpt lat="42.268554967674184" lon="11.899373791848124"><ele>238.0</ele><time>2026-04-24T16:32:35Z</time></trkpt><trkpt lat="42.26849856754101" lon="11.899264977852845"><ele>238.0</ele><time>2026-04-24T16:32:36Z</time></trkpt><trkpt lat="42.26844721287325" lon="11.899145847041762"><ele>238.0</ele><time>2026-04-24T16:32:37Z</time></trkpt><trkpt lat="42.26839387641401" lon="11.899052128141472"><ele>238.0</ele><time>2026-04-24T16:32:38Z</time></trkpt><trkpt lat="42.26833975681521" lon="11.898941610352598"><ele>238.0</ele><time>2026-04-24T16:32:39Z</time></trkpt><trkpt lat="42.26829064048586" lon="11.898838568289419"><ele>237.8</ele><time>2026-04-24T16:32:40Z</time></trkpt><trkpt lat="42.26823689848503" lon="11.898730269259987"><ele>237.60000000000002</ele><time>2026-04-24T16:32:41Z</time></trkpt><trkpt lat="42.26818846852816" lon="11.898639109245075"><ele>237.39999999999998</ele><time>2026-04-24T16:32:42Z</time></trkpt><trkpt lat="42.268139611172636" lon="11.898529578450098"><ele>237.2</ele><time>2026-04-24T16:32:43Z</time></trkpt><trkpt lat="42.26808832355503" lon="11.898422651086518"><ele>237.0</ele><time>2026-04-24T16:32:44Z</time></trkpt><trkpt lat="42.268041320945876" lon="11.898312888887254"><ele>236.83333333333334</ele><time>2026-04-24T16:32:45Z</time></trkpt><trkpt lat="42.267991853881476" lon="11.89820170422965"><ele>236.66666666666669</ele><time>2026-04-24T16:32:46Z</time></trkpt><trkpt lat="42.267943783461035" lon="11.898090962709832"><ele>236.5</ele><time>2026-04-24T16:32:47Z</time></trkpt><trkpt lat="42.267902600853404" lon="11.897987049362856"><ele>236.33333333333334</ele><time>2026-04-24T16:32:48Z</time></trkpt><trkpt lat="42.26786506243629" lon="11.897891275096041"><ele>236.16666666666669</ele><time>2026-04-24T16:32:49Z</time></trkpt><trkpt lat="42.26782613695287" lon="11.897783173754087"><ele>236.0</ele><time>2026-04-24T16:32:50Z</time></trkpt><trkpt lat="42.26779369468411" lon="11.89768248526857"><ele>235.66666666666669</ele><time>2026-04-24T16:32:51Z</time></trkpt><trkpt lat="42.267760878546994" lon="11.89758513120412"><ele>235.33333333333334</ele><time>2026-04-24T16:32:52Z</time></trkpt><trkpt lat="42.267710104471476" lon="11.89747764155593"><ele>235.0</ele><time>2026-04-24T16:32:53Z</time></trkpt><trkpt lat="42.26768281633953" lon="11.897385942938852"><ele>234.66666666666669</ele><time>2026-04-24T16:32:54Z</time></trkpt><trkpt lat="42.26767005575981" lon="11.897293441256831"><ele>234.33333333333334</ele><time>2026-04-24T16:32:55Z</time></trkpt><trkpt lat="42.26767374925189" lon="11.897175348642488"><ele>234.0</ele><time>2026-04-24T16:32:56Z</time></trkpt><trkpt lat="42.267682754134576" lon="11.89707667843448"><ele>234.0</ele><time>2026-04-24T16:32:57Z</time></trkpt><trkpt lat="42.26768469495487" lon="11.896982777395985"><ele>234.0</ele><time>2026-04-24T16:32:58Z</time></trkpt><trkpt lat="42.267665966956294" lon="11.896877285868355"><ele>234.0</ele><time>2026-04-24T16:32:59Z</time></trkpt><trkpt lat="42.267650744250226" lon="11.896773680581788"><ele>234.0</ele><time>2026-04-24T16:33:00Z</time></trkpt><trkpt lat="42.267639774271295" lon="11.89668758692618"><ele>234.0</ele><time>2026-04-24T16:33:01Z</time></trkpt><trkpt lat="42.267636055044534" lon="11.89656844322781"><ele>234.0</ele><time>2026-04-24T16:33:02Z</time></trkpt><trkpt lat="42.26760484702804" lon="11.896465365176223"><ele>233.0</ele><time>2026-04-24T16:33:03Z</time></trkpt><trkpt lat="42.267593319481165" lon="11.89636834798763"><ele>231.99999999999997</ele><time>2026-04-24T16:33:04Z</time></trkpt><trkpt lat="42.26757701101713" lon="11.896231094160242"><ele>230.99999999999997</ele><time>2026-04-24T16:33:05Z</time></trkpt><trkpt lat="42.267563463888735" lon="11.896107081660704"><ele>230.0</ele><time>2026-04-24T16:33:06Z</time></trkpt><trkpt lat="42.26754854188879" lon="11.895955206210052"><ele>229.0</ele><time>2026-04-24T16:33:07Z</time></trkpt><trkpt lat="42.26753785532375" lon="11.89581543392435"><ele>228.49999999999997</ele><time>2026-04-24T16:33:08Z</time></trkpt><trkpt lat="42.26753217541303" lon="11.895715088702634"><ele>228.0</ele><time>2026-04-24T16:33:09Z</time></trkpt><trkpt lat="42.26754679177326" lon="11.89559827489236"><ele>227.5</ele><time>2026-04-24T16:33:10Z</time></trkpt><trkpt lat="42.267545720101225" lon="11.895498852765693"><ele>227.0</ele><time>2026-04-24T16:33:11Z</time></trkpt><trkpt lat="42.267548941766854" lon="11.895390676280511"><ele>226.49999999999997</ele><time>2026-04-24T16:33:12Z</time></trkpt><trkpt lat="42.26754687698651" lon="11.895298771684162"><ele>226.0</ele><time>2026-04-24T16:33:13Z</time></trkpt><trkpt lat="42.26754326874932" lon="11.895188785290658"><ele>224.20000000000002</ele><time>2026-04-24T16:33:14Z</time></trkpt><trkpt lat="42.267559015570924" lon="11.895068513294209"><ele>222.40000000000003</ele><time>2026-04-24T16:33:15Z</time></trkpt><trkpt lat="42.2675669456678" lon="11.894956575451452"><ele>220.6</ele><time>2026-04-24T16:33:16Z</time></trkpt><trkpt lat="42.26757317743054" lon="11.894828413211409"><ele>218.8</ele><time>2026-04-24T16:33:17Z</time></trkpt><trkpt lat="42.26757026722242" lon="11.89470677887273"><ele>217.0</ele><time>2026-04-24T16:33:18Z</time></trkpt><trkpt lat="42.26756794834357" lon="11.894581604328545"><ele>216.99999999999997</ele><time>2026-04-24T16:33:19Z</time></trkpt><trkpt lat="42.26756916882036" lon="11.894451688593776"><ele>217.0</ele><time>2026-04-24T16:33:20Z</time></trkpt><trkpt lat="42.26757450218037" lon="11.894349751299515"><ele>217.0</ele><time>2026-04-24T16:33:21Z</time></trkpt><trkpt lat="42.26757268465763" lon="11.894241148289945"><ele>217.0</ele><time>2026-04-24T16:33:22Z</time></trkpt><trkpt lat="42.26756529861702" lon="11.89412127071315"><ele>216.99999999999997</ele><time>2026-04-24T16:33:23Z</time></trkpt><trkpt lat="42.26755964689294" lon="11.893998240981102"><ele>217.0</ele><time>2026-04-24T16:33:24Z</time></trkpt><trkpt lat="42.267549855634705" lon="11.893873528822256"><ele>216.49999999999997</ele><time>2026-04-24T16:33:25Z</time></trkpt><trkpt lat="42.26754716139254" lon="11.893766645220596"><ele>216.0</ele><time>2026-04-24T16:33:26Z</time></trkpt><trkpt lat="42.267538548331686" lon="11.893650483712134"><ele>215.5</ele><time>2026-04-24T16:33:27Z</time></trkpt><trkpt lat="42.267528650380655" lon="11.89353572953401"><ele>215.0</ele><time>2026-04-24T16:33:28Z</time></trkpt><trkpt lat="42.26751029713606" lon="11.893403683923625"><ele>214.49999999999997</ele><time>2026-04-24T16:33:29Z</time></trkpt><trkpt lat="42.26750794848724" lon="11.893288656134677"><ele>214.0</ele><time>2026-04-24T16:33:30Z</time></trkpt><trkpt lat="42.26750511118242" lon="11.893152971636932"><ele>213.39999999999998</ele><time>2026-04-24T16:33:31Z</time></trkpt><trkpt lat="42.26750122811179" lon="11.893027989724837"><ele>212.79999999999998</ele><time>2026-04-24T16:33:32Z</time></trkpt><trkpt lat="42.26749658213958" lon="11.892861168361064"><ele>212.2</ele><time>2026-04-24T16:33:33Z</time></trkpt><trkpt lat="42.26747754614535" lon="11.892748155632713"><ele>211.60000000000002</ele><time>2026-04-24T16:33:34Z</time></trkpt><trkpt lat="42.267467889016906" lon="11.89260710125538"><ele>211.0</ele><time>2026-04-24T16:33:35Z</time></trkpt><trkpt lat="42.26745999089502" lon="11.892468677432566"><ele>210.0</ele><time>2026-04-24T16:33:36Z</time></trkpt><trkpt lat="42.26745395925734" lon="11.892326402570488"><ele>209.0</ele><time>2026-04-24T16:33:37Z</time></trkpt><trkpt lat="42.2674495202792" lon="11.892180770562662"><ele>208.0</ele><time>2026-04-24T16:33:38Z</time></trkpt><trkpt lat="42.26743927162262" lon="11.892044521220765"><ele>207.0</ele><time>2026-04-24T16:33:39Z</time></trkpt><trkpt lat="42.26742938622812" lon="11.891918485694909"><ele>206.0</ele><time>2026-04-24T16:33:40Z</time></trkpt><trkpt lat="42.26742674185588" lon="11.891793086720195"><ele>205.0</ele><time>2026-04-24T16:33:41Z</time></trkpt><trkpt lat="42.26741981027472" lon="11.891661912154538"><ele>204.0</ele><time>2026-04-24T16:33:42Z</time></trkpt><trkpt lat="42.26741604887125" lon="11.891529636248594"><ele>203.0</ele><time>2026-04-24T16:33:43Z</time></trkpt><trkpt lat="42.2674118694405" lon="11.891394690304441"><ele>202.0</ele><time>2026-04-24T16:33:44Z</time></trkpt><trkpt lat="42.26740316631727" lon="11.891257937913945"><ele>201.0</ele><time>2026-04-24T16:33:45Z</time></trkpt><trkpt lat="42.267422329454014" lon="11.891114866335725"><ele>201.0</ele><time>2026-04-24T16:33:46Z</time></trkpt><trkpt lat="42.26741709859559" lon="11.890980569408976"><ele>201.0</ele><time>2026-04-24T16:33:47Z</time></trkpt><trkpt lat="42.267415332705525" lon="11.89084779838287"><ele>201.0</ele><time>2026-04-24T16:33:47.999Z</time></trkpt><trkpt lat="42.26740767642825" lon="11.890722599442615"><ele>201.0</ele><time>2026-04-24T16:33:48.999Z</time></trkpt><trkpt lat="42.26739293444217" lon="11.890596979502025"><ele>201.0</ele><time>2026-04-24T16:33:49.999Z</time></trkpt><trkpt lat="42.26738362266462" lon="11.890454131987633"><ele>200.20000000000002</ele><time>2026-04-24T16:33:50.999Z</time></trkpt><trkpt lat="42.26737433075845" lon="11.890316215207516"><ele>199.4</ele><time>2026-04-24T16:33:51.999Z</time></trkpt><trkpt lat="42.2673713535856" lon="11.890177989157651"><ele>198.6</ele><time>2026-04-24T16:33:52.999Z</time></trkpt><trkpt lat="42.267365477469845" lon="11.890055351114178"><ele>197.8</ele><time>2026-04-24T16:33:53.999Z</time></trkpt><trkpt lat="42.267348689065244" lon="11.889923584545501"><ele>197.0</ele><time>2026-04-24T16:33:54.999Z</time></trkpt><trkpt lat="42.26735862410214" lon="11.88978001364896"><ele>196.5</ele><time>2026-04-24T16:33:55.999Z</time></trkpt><trkpt lat="42.26735272258128" lon="11.889629648757115"><ele>196.0</ele><time>2026-04-24T16:33:56.999Z</time></trkpt><trkpt lat="42.26734549746814" lon="11.889460323747512"><ele>195.5</ele><time>2026-04-24T16:33:57.999Z</time></trkpt><trkpt lat="42.267337374014794" lon="11.889300808333154"><ele>195.0</ele><time>2026-04-24T16:33:58.999Z</time></trkpt><trkpt lat="42.26732690497639" lon="11.889096179888616"><ele>194.25</ele><time>2026-04-24T16:33:59.999Z</time></trkpt><trkpt lat="42.267314155987165" lon="11.888906801772631"><ele>193.5</ele><time>2026-04-24T16:34:00.999Z</time></trkpt><trkpt lat="42.26729906395776" lon="11.888714399620774"><ele>192.75</ele><time>2026-04-24T16:34:01.999Z</time></trkpt><trkpt lat="42.26728469878982" lon="11.888543081277273"><ele>192.0</ele><time>2026-04-24T16:34:03Z</time></trkpt><trkpt lat="42.26726870299793" lon="11.888363193892474"><ele>189.75</ele><time>2026-04-24T16:34:04Z</time></trkpt><trkpt lat="42.267253996485955" lon="11.888197805389499"><ele>187.5</ele><time>2026-04-24T16:34:05Z</time></trkpt><trkpt lat="42.26723784719187" lon="11.888016191721347"><ele>185.25</ele><time>2026-04-24T16:34:06Z</time></trkpt><trkpt lat="42.26722387512765" lon="11.887859063048067"><ele>183.0</ele><time>2026-04-24T16:34:07Z</time></trkpt><trkpt lat="42.26718738521919" lon="11.887688406390344"><ele>182.75</ele><time>2026-04-24T16:34:08Z</time></trkpt><trkpt lat="42.267176422334536" lon="11.887526192811457"><ele>182.5</ele><time>2026-04-24T16:34:09Z</time></trkpt><trkpt lat="42.26716403340395" lon="11.887363729022914"><ele>182.25</ele><time>2026-04-24T16:34:10Z</time></trkpt><trkpt lat="42.267154273044696" lon="11.887212026045738"><ele>182.0</ele><time>2026-04-24T16:34:11Z</time></trkpt><trkpt lat="42.26714323943923" lon="11.88705873874527"><ele>182.0</ele><time>2026-04-24T16:34:12Z</time></trkpt><trkpt lat="42.2671348609629" lon="11.886884629020063"><ele>182.0</ele><time>2026-04-24T16:34:13Z</time></trkpt><trkpt lat="42.26713083265271" lon="11.886702151322439"><ele>182.0</ele><time>2026-04-24T16:34:14Z</time></trkpt><trkpt lat="42.267128860668464" lon="11.886471185954852"><ele>182.0</ele><time>2026-04-24T16:34:15Z</time></trkpt><trkpt lat="42.26712362743702" lon="11.886256576368595"><ele>182.0</ele><time>2026-04-24T16:34:16Z</time></trkpt><trkpt lat="42.26711375500694" lon="11.886051462394656"><ele>182.0</ele><time>2026-04-24T16:34:17Z</time></trkpt><trkpt lat="42.26708145616355" lon="11.885837245589558"><ele>182.0</ele><time>2026-04-24T16:34:18Z</time></trkpt><trkpt lat="42.26706237184452" lon="11.88562503075891"><ele>182.0</ele><time>2026-04-24T16:34:19Z</time></trkpt><trkpt lat="42.26704569978621" lon="11.885452478167542"><ele>182.0</ele><time>2026-04-24T16:34:20Z</time></trkpt><trkpt lat="42.26702744692409" lon="11.885263564841207"><ele>182.0</ele><time>2026-04-24T16:34:21Z</time></trkpt><trkpt lat="42.26700827598263" lon="11.885058103080096"><ele>182.0</ele><time>2026-04-24T16:34:22Z</time></trkpt><trkpt lat="42.26699218696922" lon="11.884878645928982"><ele>181.75</ele><time>2026-04-24T16:34:23Z</time></trkpt><trkpt lat="42.2669715275928" lon="11.88468397991969"><ele>181.5</ele><time>2026-04-24T16:34:24Z</time></trkpt><trkpt lat="42.26696228203058" lon="11.884475284526873"><ele>181.25</ele><time>2026-04-24T16:34:25Z</time></trkpt><trkpt lat="42.26693884469543" lon="11.884289242491686"><ele>181.0</ele><time>2026-04-24T16:34:26Z</time></trkpt><trkpt lat="42.26692081361549" lon="11.884091801747891"><ele>179.66666666666669</ele><time>2026-04-24T16:34:27Z</time></trkpt><trkpt lat="42.26690202398267" lon="11.88388605568331"><ele>178.33333333333334</ele><time>2026-04-24T16:34:28Z</time></trkpt><trkpt lat="42.26688899407459" lon="11.883663892938706"><ele>177.0</ele><time>2026-04-24T16:34:29Z</time></trkpt><trkpt lat="42.26686792359218" lon="11.883455479391243"><ele>176.0</ele><time>2026-04-24T16:34:30Z</time></trkpt><trkpt lat="42.2668468014221" lon="11.88327666852725"><ele>175.0</ele><time>2026-04-24T16:34:31Z</time></trkpt><trkpt lat="42.26682273106389" lon="11.883083618515318"><ele>174.0</ele><time>2026-04-24T16:34:32Z</time></trkpt><trkpt lat="42.266792402707246" lon="11.882878518618794"><ele>173.0</ele><time>2026-04-24T16:34:33Z</time></trkpt><trkpt lat="42.266763740918705" lon="11.882683058044494"><ele>172.75</ele><time>2026-04-24T16:34:34Z</time></trkpt><trkpt lat="42.266742524321614" lon="11.882497808260412"><ele>172.5</ele><time>2026-04-24T16:34:35Z</time></trkpt><trkpt lat="42.26672398405874" lon="11.882303986783178"><ele>172.25</ele><time>2026-04-24T16:34:36Z</time></trkpt><trkpt lat="42.26670614038231" lon="11.882095107456498"><ele>172.0</ele><time>2026-04-24T16:34:37Z</time></trkpt><trkpt lat="42.26668611018972" lon="11.881886135257792"><ele>172.25</ele><time>2026-04-24T16:34:38Z</time></trkpt><trkpt lat="42.2666690447164" lon="11.88170002579468"><ele>172.5</ele><time>2026-04-24T16:34:39Z</time></trkpt><trkpt lat="42.26664186333148" lon="11.881507472041323"><ele>172.75</ele><time>2026-04-24T16:34:40Z</time></trkpt><trkpt lat="42.2666247931591" lon="11.881319168569402"><ele>173.0</ele><time>2026-04-24T16:34:41Z</time></trkpt><trkpt lat="42.266607475605774" lon="11.881110026042176"><ele>173.0</ele><time>2026-04-24T16:34:42Z</time></trkpt><trkpt lat="42.266582103653285" lon="11.88088467245229"><ele>173.0</ele><time>2026-04-24T16:34:43Z</time></trkpt><trkpt lat="42.26655605141497" lon="11.880683512380925"><ele>173.0</ele><time>2026-04-24T16:34:44Z</time></trkpt><trkpt lat="42.26652610230551" lon="11.880484077644443"><ele>173.0</ele><time>2026-04-24T16:34:45Z</time></trkpt><trkpt lat="42.26649505703415" lon="11.880287943855851"><ele>173.0</ele><time>2026-04-24T16:34:46Z</time></trkpt><trkpt lat="42.26645820269034" lon="11.880081905636397"><ele>173.0</ele><time>2026-04-24T16:34:47Z</time></trkpt><trkpt lat="42.26642615440262" lon="11.879856863646047"><ele>169.66666666666666</ele><time>2026-04-24T16:34:48Z</time></trkpt><trkpt lat="42.26638055732682" lon="11.879632069564904"><ele>166.33333333333334</ele><time>2026-04-24T16:34:49Z</time></trkpt><trkpt lat="42.26632406057246" lon="11.879413508899592"><ele>163.0</ele><time>2026-04-24T16:34:50Z</time></trkpt><trkpt lat="42.26626701385033" lon="11.879205752393581"><ele>163.0</ele><time>2026-04-24T16:34:51Z</time></trkpt><trkpt lat="42.26620043799641" lon="11.878989854688996"><ele>163.0</ele><time>2026-04-24T16:34:52Z</time></trkpt><trkpt lat="42.26613254460164" lon="11.878776842132503"><ele>163.0</ele><time>2026-04-24T16:34:53Z</time></trkpt><trkpt lat="42.2660508901565" lon="11.878578814102962"><ele>163.33333333333334</ele><time>2026-04-24T16:34:54Z</time></trkpt><trkpt lat="42.265986447113676" lon="11.878373923496206"><ele>163.66666666666666</ele><time>2026-04-24T16:34:55Z</time></trkpt><trkpt lat="42.26593765412816" lon="11.878165363253155"><ele>164.0</ele><time>2026-04-24T16:34:56Z</time></trkpt><trkpt lat="42.26587556251333" lon="11.877968096149486"><ele>164.0</ele><time>2026-04-24T16:34:57Z</time></trkpt><trkpt lat="42.265811979343106" lon="11.877765642582144"><ele>164.0</ele><time>2026-04-24T16:34:58Z</time></trkpt><trkpt lat="42.26574994899366" lon="11.877568133381864"><ele>164.0</ele><time>2026-04-24T16:34:59Z</time></trkpt><trkpt lat="42.26567088582081" lon="11.87735885015451"><ele>164.33333333333331</ele><time>2026-04-24T16:35:00Z</time></trkpt><trkpt lat="42.26560720196406" lon="11.877162813851811"><ele>164.66666666666666</ele><time>2026-04-24T16:35:01Z</time></trkpt><trkpt lat="42.2655490766357" lon="11.87696507893347"><ele>165.0</ele><time>2026-04-24T16:35:02Z</time></trkpt><trkpt lat="42.265487845622616" lon="11.876764773721888"><ele>165.0</ele><time>2026-04-24T16:35:03Z</time></trkpt><trkpt lat="42.265427173754205" lon="11.87655541144942"><ele>165.0</ele><time>2026-04-24T16:35:04Z</time></trkpt><trkpt lat="42.26535406939016" lon="11.876333799711023"><ele>165.0</ele><time>2026-04-24T16:35:05Z</time></trkpt><trkpt lat="42.26527547454419" lon="11.876128716478538"><ele>164.66666666666666</ele><time>2026-04-24T16:35:06Z</time></trkpt><trkpt lat="42.265235394482055" lon="11.875932876315698"><ele>164.33333333333331</ele><time>2026-04-24T16:35:07Z</time></trkpt><trkpt lat="42.26517946215868" lon="11.875739008360924"><ele>164.0</ele><time>2026-04-24T16:35:08Z</time></trkpt><trkpt lat="42.26511258490052" lon="11.875548856472378"><ele>164.0</ele><time>2026-04-24T16:35:09Z</time></trkpt><trkpt lat="42.26505053783096" lon="11.875360749836045"><ele>164.0</ele><time>2026-04-24T16:35:10Z</time></trkpt><trkpt lat="42.26498111532401" lon="11.875151564038193"><ele>164.0</ele><time>2026-04-24T16:35:11Z</time></trkpt><trkpt lat="42.26490926051712" lon="11.874951800220861"><ele>164.0</ele><time>2026-04-24T16:35:12Z</time></trkpt><trkpt lat="42.26483748136292" lon="11.874744651009205"><ele>164.0</ele><time>2026-04-24T16:35:13Z</time></trkpt><trkpt lat="42.26476963006639" lon="11.874535017344336"><ele>164.0</ele><time>2026-04-24T16:35:14Z</time></trkpt><trkpt lat="42.26470433214586" lon="11.87432447801535"><ele>163.0</ele><time>2026-04-24T16:35:15Z</time></trkpt><trkpt lat="42.26463441408252" lon="11.874118928624842"><ele>162.0</ele><time>2026-04-24T16:35:16Z</time></trkpt><trkpt lat="42.26457485331239" lon="11.87392724316056"><ele>161.0</ele><time>2026-04-24T16:35:17Z</time></trkpt><trkpt lat="42.264501939003914" lon="11.873730338891685"><ele>161.0</ele><time>2026-04-24T16:35:18Z</time></trkpt><trkpt lat="42.264432025417406" lon="11.873526474529722"><ele>161.0</ele><time>2026-04-24T16:35:19Z</time></trkpt><trkpt lat="42.26436728312333" lon="11.873341139051151"><ele>161.0</ele><time>2026-04-24T16:35:20Z</time></trkpt><trkpt lat="42.2643081543655" lon="11.873141577074376"><ele>160.66666666666666</ele><time>2026-04-24T16:35:21Z</time></trkpt><trkpt lat="42.26424155629025" lon="11.87292774559618"><ele>160.33333333333334</ele><time>2026-04-24T16:35:22Z</time></trkpt><trkpt lat="42.26417892828224" lon="11.87274969716938"><ele>160.0</ele><time>2026-04-24T16:35:23Z</time></trkpt><trkpt lat="42.264111807801996" lon="11.872535105346861"><ele>159.66666666666669</ele><time>2026-04-24T16:35:24Z</time></trkpt><trkpt lat="42.264039184805334" lon="11.872322383475503"><ele>159.33333333333334</ele><time>2026-04-24T16:35:25Z</time></trkpt><trkpt lat="42.263975822066826" lon="11.872117276209194"><ele>159.0</ele><time>2026-04-24T16:35:26Z</time></trkpt><trkpt lat="42.26391172711363" lon="11.871924572860875"><ele>158.66666666666666</ele><time>2026-04-24T16:35:27Z</time></trkpt><trkpt lat="42.26384982012092" lon="11.871735547781471"><ele>158.33333333333331</ele><time>2026-04-24T16:35:28Z</time></trkpt><trkpt lat="42.26378587162272" lon="11.87155150035679"><ele>158.0</ele><time>2026-04-24T16:35:29Z</time></trkpt><trkpt lat="42.26371132921944" lon="11.871362835677635"><ele>158.0</ele><time>2026-04-24T16:35:30Z</time></trkpt><trkpt lat="42.26366111013141" lon="11.871171769864617"><ele>158.0</ele><time>2026-04-24T16:35:31Z</time></trkpt><trkpt lat="42.26358441052294" lon="11.870989302695465"><ele>158.0</ele><time>2026-04-24T16:35:32Z</time></trkpt><trkpt lat="42.26353000953102" lon="11.870829410541845"><ele>158.0</ele><time>2026-04-24T16:35:33Z</time></trkpt><trkpt lat="42.26348561546455" lon="11.8706560252538"><ele>158.75</ele><time>2026-04-24T16:35:34Z</time></trkpt><trkpt lat="42.26343764818101" lon="11.870506314443606"><ele>159.5</ele><time>2026-04-24T16:35:35Z</time></trkpt><trkpt lat="42.26339284942399" lon="11.870356294872517"><ele>160.25</ele><time>2026-04-24T16:35:36Z</time></trkpt><trkpt lat="42.26334684665416" lon="11.870207383077348"><ele>161.0</ele><time>2026-04-24T16:35:37Z</time></trkpt><trkpt lat="42.26330774804789" lon="11.870058275160796"><ele>161.5</ele><time>2026-04-24T16:35:38Z</time></trkpt><trkpt lat="42.26327764611605" lon="11.869931974451205"><ele>162.0</ele><time>2026-04-24T16:35:39Z</time></trkpt><trkpt lat="42.26324327849891" lon="11.869777380447358"><ele>162.5</ele><time>2026-04-24T16:35:40Z</time></trkpt><trkpt lat="42.26320852546328" lon="11.86962826152923"><ele>163.0</ele><time>2026-04-24T16:35:41Z</time></trkpt><trkpt lat="42.26319976639424" lon="11.869433805421957"><ele>163.5</ele><time>2026-04-24T16:35:42Z</time></trkpt><trkpt lat="42.2632064173972" lon="11.869236568533601"><ele>164.0</ele><time>2026-04-24T16:35:43Z</time></trkpt><trkpt lat="42.263217476425595" lon="11.869061446171262"><ele>164.5</ele><time>2026-04-24T16:35:44Z</time></trkpt><trkpt lat="42.26323755059048" lon="11.868869885549366"><ele>165.0</ele><time>2026-04-24T16:35:45Z</time></trkpt><trkpt lat="42.26326558054814" lon="11.868662892835665"><ele>165.0</ele><time>2026-04-24T16:35:46Z</time></trkpt><trkpt lat="42.26329496198298" lon="11.868463018413953"><ele>165.0</ele><time>2026-04-24T16:35:47Z</time></trkpt><trkpt lat="42.26332405623138" lon="11.86825540608869"><ele>165.0</ele><time>2026-04-24T16:35:47.999Z</time></trkpt><trkpt lat="42.26336068165032" lon="11.868028874259533"><ele>163.33333333333334</ele><time>2026-04-24T16:35:48.999Z</time></trkpt><trkpt lat="42.2634029643824" lon="11.867803692789069"><ele>161.66666666666669</ele><time>2026-04-24T16:35:49.999Z</time></trkpt><trkpt lat="42.2634490195494" lon="11.867590495213394"><ele>160.0</ele><time>2026-04-24T16:35:50.999Z</time></trkpt><trkpt lat="42.263491374959806" lon="11.867373169809174"><ele>158.33333333333334</ele><time>2026-04-24T16:35:51.999Z</time></trkpt><trkpt lat="42.26351943749237" lon="11.86715979854336"><ele>156.66666666666666</ele><time>2026-04-24T16:35:52.999Z</time></trkpt><trkpt lat="42.263549673479275" lon="11.866946402563787"><ele>155.0</ele><time>2026-04-24T16:35:53.999Z</time></trkpt><trkpt lat="42.26358418307738" lon="11.866735431077368"><ele>154.0</ele><time>2026-04-24T16:35:54.999Z</time></trkpt><trkpt lat="42.2636086959339" lon="11.86651685236752"><ele>153.0</ele><time>2026-04-24T16:35:55.999Z</time></trkpt><trkpt lat="42.263624808395015" lon="11.866285168220626"><ele>152.0</ele><time>2026-04-24T16:35:56.999Z</time></trkpt><trkpt lat="42.263638291986034" lon="11.866061966508697"><ele>152.66666666666666</ele><time>2026-04-24T16:35:57.999Z</time></trkpt><trkpt lat="42.26363562825256" lon="11.8658414311714"><ele>153.33333333333334</ele><time>2026-04-24T16:35:58.999Z</time></trkpt><trkpt lat="42.263619597938124" lon="11.865614353053957"><ele>154.0</ele><time>2026-04-24T16:35:59.999Z</time></trkpt><trkpt lat="42.263598112695504" lon="11.865387924008003"><ele>154.0</ele><time>2026-04-24T16:36:00.999Z</time></trkpt><trkpt lat="42.26357072174668" lon="11.865168583195606"><ele>154.0</ele><time>2026-04-24T16:36:01.999Z</time></trkpt><trkpt lat="42.2635478342844" lon="11.864948728089601"><ele>154.0</ele><time>2026-04-24T16:36:02.999Z</time></trkpt><trkpt lat="42.263521614166564" lon="11.86474062258849"><ele>155.0</ele><time>2026-04-24T16:36:03.999Z</time></trkpt><trkpt lat="42.26351209690538" lon="11.86452249912794"><ele>156.0</ele><time>2026-04-24T16:36:04.999Z</time></trkpt><trkpt lat="42.26348734009215" lon="11.864295985944995"><ele>157.0</ele><time>2026-04-24T16:36:05.999Z</time></trkpt><trkpt lat="42.26346433936786" lon="11.864074801688519"><ele>157.0</ele><time>2026-04-24T16:36:06.999Z</time></trkpt><trkpt lat="42.26344341139067" lon="11.863844557235339"><ele>157.0</ele><time>2026-04-24T16:36:07.999Z</time></trkpt><trkpt lat="42.26342353868987" lon="11.863608548702308"><ele>157.0</ele><time>2026-04-24T16:36:09Z</time></trkpt><trkpt lat="42.263387230099006" lon="11.863373871875146"><ele>157.0</ele><time>2026-04-24T16:36:10Z</time></trkpt><trkpt lat="42.26338408045743" lon="11.86313615860178"><ele>157.0</ele><time>2026-04-24T16:36:11Z</time></trkpt><trkpt lat="42.26336363670757" lon="11.862903778322003"><ele>157.0</ele><time>2026-04-24T16:36:12Z</time></trkpt><trkpt lat="42.26334298523597" lon="11.862694204830717"><ele>156.66666666666669</ele><time>2026-04-24T16:36:13Z</time></trkpt><trkpt lat="42.26331771017554" lon="11.86245667584848"><ele>156.33333333333334</ele><time>2026-04-24T16:36:14Z</time></trkpt><trkpt lat="42.26329386583739" lon="11.862234161351191"><ele>156.0</ele><time>2026-04-24T16:36:15Z</time></trkpt><trkpt lat="42.26327282121933" lon="11.86203777373394"><ele>156.0</ele><time>2026-04-24T16:36:16Z</time></trkpt><trkpt lat="42.2632507190494" lon="11.861831517091755"><ele>156.0</ele><time>2026-04-24T16:36:17Z</time></trkpt><trkpt lat="42.263228106780694" lon="11.861632065348978"><ele>156.0</ele><time>2026-04-24T16:36:18Z</time></trkpt><trkpt lat="42.263200757635396" lon="11.861409662350159"><ele>155.66666666666666</ele><time>2026-04-24T16:36:19Z</time></trkpt><trkpt lat="42.26317263423506" lon="11.86119125485999"><ele>155.33333333333331</ele><time>2026-04-24T16:36:20Z</time></trkpt><trkpt lat="42.263144028171226" lon="11.860974824495994"><ele>155.0</ele><time>2026-04-24T16:36:21Z</time></trkpt><trkpt lat="42.26310354621569" lon="11.860782651132737"><ele>153.33333333333331</ele><time>2026-04-24T16:36:22Z</time></trkpt><trkpt lat="42.26308119962357" lon="11.860566949600466"><ele>151.66666666666666</ele><time>2026-04-24T16:36:23Z</time></trkpt><trkpt lat="42.263054193524" lon="11.86033949070974"><ele>150.0</ele><time>2026-04-24T16:36:24Z</time></trkpt><trkpt lat="42.26301587759301" lon="11.860098711516926"><ele>150.0</ele><time>2026-04-24T16:36:25Z</time></trkpt><trkpt lat="42.262996809563965" lon="11.859867275750231"><ele>150.0</ele><time>2026-04-24T16:36:26Z</time></trkpt><trkpt lat="42.262955858846475" lon="11.859634355236368"><ele>150.0</ele><time>2026-04-24T16:36:27Z</time></trkpt><trkpt lat="42.26293065190629" lon="11.859402813082223"><ele>149.0</ele><time>2026-04-24T16:36:28Z</time></trkpt><trkpt lat="42.262896112364" lon="11.859175801855999"><ele>148.0</ele><time>2026-04-24T16:36:29Z</time></trkpt><trkpt lat="42.26287004082624" lon="11.858942355325395"><ele>147.0</ele><time>2026-04-24T16:36:30Z</time></trkpt><trkpt lat="42.26284962036141" lon="11.858741505760694"><ele>147.0</ele><time>2026-04-24T16:36:31Z</time></trkpt><trkpt lat="42.262801919821804" lon="11.858544881860245"><ele>147.0</ele><time>2026-04-24T16:36:32Z</time></trkpt><trkpt lat="42.262750390850506" lon="11.858343282812822"><ele>147.0</ele><time>2026-04-24T16:36:33Z</time></trkpt><trkpt lat="42.262708936889304" lon="11.85812966331711"><ele>147.33333333333334</ele><time>2026-04-24T16:36:34Z</time></trkpt><trkpt lat="42.26266553211718" lon="11.857911982036939"><ele>147.66666666666669</ele><time>2026-04-24T16:36:35Z</time></trkpt><trkpt lat="42.262625628260686" lon="11.857697433732074"><ele>148.0</ele><time>2026-04-24T16:36:36Z</time></trkpt><trkpt lat="42.26259466391901" lon="11.857486497241641"><ele>148.5</ele><time>2026-04-24T16:36:37Z</time></trkpt><trkpt lat="42.2625565200883" lon="11.857297742189216"><ele>149.0</ele><time>2026-04-24T16:36:38Z</time></trkpt><trkpt lat="42.262519661156176" lon="11.857102803693694"><ele>149.5</ele><time>2026-04-24T16:36:39Z</time></trkpt><trkpt lat="42.26248978483649" lon="11.85690036488729"><ele>150.0</ele><time>2026-04-24T16:36:40Z</time></trkpt><trkpt lat="42.26246956775394" lon="11.856706331686373"><ele>151.0</ele><time>2026-04-24T16:36:41Z</time></trkpt><trkpt lat="42.26245267074022" lon="11.85651183511279"><ele>152.0</ele><time>2026-04-24T16:36:42Z</time></trkpt><trkpt lat="42.262435313847114" lon="11.856297936775897"><ele>153.0</ele><time>2026-04-24T16:36:43Z</time></trkpt><trkpt lat="42.26242002326909" lon="11.856078809998044"><ele>152.25</ele><time>2026-04-24T16:36:44Z</time></trkpt><trkpt lat="42.26239951645594" lon="11.85588179337797"><ele>151.5</ele><time>2026-04-24T16:36:45Z</time></trkpt><trkpt lat="42.26238418800523" lon="11.855688958524087"><ele>150.75</ele><time>2026-04-24T16:36:46Z</time></trkpt><trkpt lat="42.26236035823229" lon="11.855484843330213"><ele>150.0</ele><time>2026-04-24T16:36:47Z</time></trkpt><trkpt lat="42.26233454588778" lon="11.855279627688455"><ele>149.5</ele><time>2026-04-24T16:36:48Z</time></trkpt><trkpt lat="42.26231970952561" lon="11.855082776034724"><ele>149.0</ele><time>2026-04-24T16:36:49Z</time></trkpt><trkpt lat="42.26229261061776" lon="11.854911830472837"><ele>148.5</ele><time>2026-04-24T16:36:50Z</time></trkpt><trkpt lat="42.262274721485454" lon="11.854754385094246"><ele>148.0</ele><time>2026-04-24T16:36:51Z</time></trkpt><trkpt lat="42.2622666595773" lon="11.854606099411088"><ele>147.6</ele><time>2026-04-24T16:36:52Z</time></trkpt><trkpt lat="42.2622666558511" lon="11.854435394541058"><ele>147.20000000000002</ele><time>2026-04-24T16:36:53Z</time></trkpt><trkpt lat="42.26225587994034" lon="11.854304407308106"><ele>146.8</ele><time>2026-04-24T16:36:54Z</time></trkpt><trkpt lat="42.26225397543438" lon="11.854167831449434"><ele>146.4</ele><time>2026-04-24T16:36:55Z</time></trkpt><trkpt lat="42.26225248161081" lon="11.8540144452718"><ele>146.0</ele><time>2026-04-24T16:36:56Z</time></trkpt><trkpt lat="42.2622596071532" lon="11.853838037429584"><ele>146.5</ele><time>2026-04-24T16:36:57Z</time></trkpt><trkpt lat="42.2622844427898" lon="11.85366464760127"><ele>147.0</ele><time>2026-04-24T16:36:58Z</time></trkpt><trkpt lat="42.26232650072855" lon="11.853494024685451"><ele>147.5</ele><time>2026-04-24T16:36:59Z</time></trkpt><trkpt lat="42.2623793298409" lon="11.853372070470792"><ele>148.0</ele><time>2026-04-24T16:37:00Z</time></trkpt><trkpt lat="42.262441107859814" lon="11.853225363426814"><ele>147.0</ele><time>2026-04-24T16:37:01Z</time></trkpt><trkpt lat="42.26248280873528" lon="11.853103865111663"><ele>146.0</ele><time>2026-04-24T16:37:02Z</time></trkpt><trkpt lat="42.26254059657317" lon="11.852964458763083"><ele>145.0</ele><time>2026-04-24T16:37:03Z</time></trkpt><trkpt lat="42.262590612092545" lon="11.85282286938282"><ele>144.0</ele><time>2026-04-24T16:37:04Z</time></trkpt><trkpt lat="42.2626728959167" lon="11.852679664021007"><ele>143.25</ele><time>2026-04-24T16:37:05Z</time></trkpt><trkpt lat="42.26269844020566" lon="11.852515339465967"><ele>142.5</ele><time>2026-04-24T16:37:06Z</time></trkpt><trkpt lat="42.262689455076284" lon="11.852354346501453"><ele>141.75</ele><time>2026-04-24T16:37:07Z</time></trkpt><trkpt lat="42.26267861363237" lon="11.85215486633633"><ele>141.0</ele><time>2026-04-24T16:37:08Z</time></trkpt><trkpt lat="42.26264729020208" lon="11.85195862176579"><ele>141.0</ele><time>2026-04-24T16:37:09Z</time></trkpt><trkpt lat="42.26261396947693" lon="11.851738745841956"><ele>141.0</ele><time>2026-04-24T16:37:10Z</time></trkpt><trkpt lat="42.26260012654242" lon="11.851483206533034"><ele>141.0</ele><time>2026-04-24T16:37:11Z</time></trkpt><trkpt lat="42.26258155411798" lon="11.8512697280575"><ele>141.0</ele><time>2026-04-24T16:37:12Z</time></trkpt><trkpt lat="42.26255242916663" lon="11.851057792921674"><ele>141.0</ele><time>2026-04-24T16:37:13Z</time></trkpt><trkpt lat="42.26253139092808" lon="11.850892775039158"><ele>141.0</ele><time>2026-04-24T16:37:14Z</time></trkpt><trkpt lat="42.26250027531622" lon="11.850690762537472"><ele>141.0</ele><time>2026-04-24T16:37:15Z</time></trkpt><trkpt lat="42.26246926528852" lon="11.850511950821462"><ele>142.0</ele><time>2026-04-24T16:37:16Z</time></trkpt><trkpt lat="42.262435344391236" lon="11.85032175252554"><ele>143.0</ele><time>2026-04-24T16:37:17Z</time></trkpt><trkpt lat="42.262389621165916" lon="11.850165567802149"><ele>144.0</ele><time>2026-04-24T16:37:18Z</time></trkpt><trkpt lat="42.26232559609585" lon="11.85000707088839"><ele>145.0</ele><time>2026-04-24T16:37:19Z</time></trkpt><trkpt lat="42.26226745493645" lon="11.849832038229295"><ele>147.66666666666669</ele><time>2026-04-24T16:37:20Z</time></trkpt><trkpt lat="42.26220982549921" lon="11.849640693846254"><ele>150.33333333333334</ele><time>2026-04-24T16:37:21Z</time></trkpt><trkpt lat="42.26214477911755" lon="11.849460318300702"><ele>153.0</ele><time>2026-04-24T16:37:22Z</time></trkpt><trkpt lat="42.26208591335904" lon="11.849269572297365"><ele>153.0</ele><time>2026-04-24T16:37:23Z</time></trkpt><trkpt lat="42.262030281611516" lon="11.849078234904013"><ele>153.0</ele><time>2026-04-24T16:37:24Z</time></trkpt><trkpt lat="42.26198454546341" lon="11.848899711051972"><ele>153.0</ele><time>2026-04-24T16:37:25Z</time></trkpt><trkpt lat="42.26192980486073" lon="11.848720492142991"><ele>153.0</ele><time>2026-04-24T16:37:26Z</time></trkpt><trkpt lat="42.26188835097271" lon="11.848543230682248"><ele>152.75</ele><time>2026-04-24T16:37:27Z</time></trkpt><trkpt lat="42.26183019455068" lon="11.848387995198896"><ele>152.5</ele><time>2026-04-24T16:37:28Z</time></trkpt><trkpt lat="42.261790467799074" lon="11.848223028992571"><ele>152.25</ele><time>2026-04-24T16:37:29Z</time></trkpt><trkpt lat="42.26175822802569" lon="11.84806467892581"><ele>152.0</ele><time>2026-04-24T16:37:30Z</time></trkpt><trkpt lat="42.261749684566496" lon="11.847899770422162"><ele>152.0</ele><time>2026-04-24T16:37:31Z</time></trkpt><trkpt lat="42.261720592707476" lon="11.847717138312497"><ele>152.0</ele><time>2026-04-24T16:37:32Z</time></trkpt><trkpt lat="42.26170589255335" lon="11.847519837352674"><ele>152.0</ele><time>2026-04-24T16:37:33Z</time></trkpt><trkpt lat="42.26171142190986" lon="11.847326374964185"><ele>152.0</ele><time>2026-04-24T16:37:34Z</time></trkpt><trkpt lat="42.26170753118241" lon="11.847145361788655"><ele>151.75</ele><time>2026-04-24T16:37:35Z</time></trkpt><trkpt lat="42.26170321016216" lon="11.846965563744961"><ele>151.5</ele><time>2026-04-24T16:37:36Z</time></trkpt><trkpt lat="42.26169639604104" lon="11.846762299628091"><ele>151.25</ele><time>2026-04-24T16:37:37Z</time></trkpt><trkpt lat="42.261688420987376" lon="11.846584340523703"><ele>151.0</ele><time>2026-04-24T16:37:38Z</time></trkpt><trkpt lat="42.26167976588124" lon="11.8463912066617"><ele>151.75</ele><time>2026-04-24T16:37:39Z</time></trkpt><trkpt lat="42.26167126932853" lon="11.84620161061977"><ele>152.5</ele><time>2026-04-24T16:37:40Z</time></trkpt><trkpt lat="42.26166364256248" lon="11.846030419150104"><ele>153.25</ele><time>2026-04-24T16:37:41Z</time></trkpt><trkpt lat="42.261641216157834" lon="11.845853763090359"><ele>154.0</ele><time>2026-04-24T16:37:42Z</time></trkpt><trkpt lat="42.261662070339476" lon="11.845645821867434"><ele>154.75</ele><time>2026-04-24T16:37:43Z</time></trkpt><trkpt lat="42.261682749985894" lon="11.8454502254617"><ele>155.5</ele><time>2026-04-24T16:37:44Z</time></trkpt><trkpt lat="42.26170539125588" lon="11.84524395235791"><ele>156.25</ele><time>2026-04-24T16:37:45Z</time></trkpt><trkpt lat="42.26172796386961" lon="11.845055742731393"><ele>157.0</ele><time>2026-04-24T16:37:46Z</time></trkpt><trkpt lat="42.26174425569007" lon="11.844885715638057"><ele>158.0</ele><time>2026-04-24T16:37:47Z</time></trkpt><trkpt lat="42.261751449700576" lon="11.844721008282365"><ele>159.0</ele><time>2026-04-24T16:37:48Z</time></trkpt><trkpt lat="42.261771554473555" lon="11.844548883706716"><ele>160.0</ele><time>2026-04-24T16:37:49Z</time></trkpt><trkpt lat="42.26175984498126" lon="11.844367898498005"><ele>161.0</ele><time>2026-04-24T16:37:50Z</time></trkpt><trkpt lat="42.261725666887635" lon="11.844180497411998"><ele>162.66666666666666</ele><time>2026-04-24T16:37:51Z</time></trkpt><trkpt lat="42.26172124177062" lon="11.843973874908595"><ele>164.33333333333334</ele><time>2026-04-24T16:37:52Z</time></trkpt><trkpt lat="42.2616906434534" lon="11.843765225698373"><ele>166.0</ele><time>2026-04-24T16:37:53Z</time></trkpt><trkpt lat="42.26165714269695" lon="11.843548045020952"><ele>167.25</ele><time>2026-04-24T16:37:54Z</time></trkpt><trkpt lat="42.26162533918868" lon="11.843336714997712"><ele>168.5</ele><time>2026-04-24T16:37:54.999Z</time></trkpt><trkpt lat="42.26159235597191" lon="11.843146489328607"><ele>169.75</ele><time>2026-04-24T16:37:55.999Z</time></trkpt><trkpt lat="42.261568077822844" lon="11.842956989927272"><ele>171.0</ele><time>2026-04-24T16:37:56.999Z</time></trkpt><trkpt lat="42.26154292450522" lon="11.842745173567772"><ele>173.0</ele><time>2026-04-24T16:37:57.999Z</time></trkpt><trkpt lat="42.26152227302366" lon="11.842539747409681"><ele>175.0</ele><time>2026-04-24T16:37:58.999Z</time></trkpt><trkpt lat="42.26149609785587" lon="11.842326018936092"><ele>177.0</ele><time>2026-04-24T16:37:59.999Z</time></trkpt><trkpt lat="42.261474028661894" lon="11.842131114010503"><ele>176.5</ele><time>2026-04-24T16:38:00.999Z</time></trkpt><trkpt lat="42.261439343291755" lon="11.841940501807933"><ele>176.0</ele><time>2026-04-24T16:38:01.999Z</time></trkpt><trkpt lat="42.26141105781937" lon="11.84174378479841"><ele>175.5</ele><time>2026-04-24T16:38:02.999Z</time></trkpt><trkpt lat="42.261384280472306" lon="11.841553451452786"><ele>175.0</ele><time>2026-04-24T16:38:03.999Z</time></trkpt><trkpt lat="42.261372622856925" lon="11.841407620760739"><ele>176.25</ele><time>2026-04-24T16:38:04.999Z</time></trkpt><trkpt lat="42.26134071721367" lon="11.841239695564928"><ele>177.5</ele><time>2026-04-24T16:38:05.999Z</time></trkpt><trkpt lat="42.26131099345108" lon="11.841102987409027"><ele>178.75</ele><time>2026-04-24T16:38:06.999Z</time></trkpt><trkpt lat="42.26128735429568" lon="11.840916105010729"><ele>180.0</ele><time>2026-04-24T16:38:07.999Z</time></trkpt><trkpt lat="42.26125528077647" lon="11.840721119421374"><ele>181.66666666666666</ele><time>2026-04-24T16:38:08.999Z</time></trkpt><trkpt lat="42.261206774616184" lon="11.840508389955207"><ele>183.33333333333331</ele><time>2026-04-24T16:38:09.999Z</time></trkpt><trkpt lat="42.261171988902646" lon="11.840299362496566"><ele>185.0</ele><time>2026-04-24T16:38:10.999Z</time></trkpt><trkpt lat="42.26112198464234" lon="11.840120945593425"><ele>185.25</ele><time>2026-04-24T16:38:11.999Z</time></trkpt><trkpt lat="42.26107309852204" lon="11.839943014713365"><ele>185.5</ele><time>2026-04-24T16:38:12.999Z</time></trkpt><trkpt lat="42.26103904948047" lon="11.83975342498108"><ele>185.75</ele><time>2026-04-24T16:38:13.999Z</time></trkpt><trkpt lat="42.26100719668074" lon="11.839559559159007"><ele>186.0</ele><time>2026-04-24T16:38:15Z</time></trkpt><trkpt lat="42.26096115968754" lon="11.839356608060099"><ele>186.66666666666666</ele><time>2026-04-24T16:38:16Z</time></trkpt><trkpt lat="42.260896386567524" lon="11.839140616463265"><ele>187.33333333333331</ele><time>2026-04-24T16:38:17Z</time></trkpt><trkpt lat="42.2608335047534" lon="11.838951436864958"><ele>188.0</ele><time>2026-04-24T16:38:18Z</time></trkpt><trkpt lat="42.260742169560245" lon="11.83869782162428"><ele>188.33333333333331</ele><time>2026-04-24T16:38:19Z</time></trkpt><trkpt lat="42.260653258427645" lon="11.838462672983649"><ele>188.66666666666666</ele><time>2026-04-24T16:38:20Z</time></trkpt><trkpt lat="42.26058298976949" lon="11.838300270652681"><ele>189.0</ele><time>2026-04-24T16:38:21Z</time></trkpt><trkpt lat="42.26052452755244" lon="11.838132379172658"><ele>190.25</ele><time>2026-04-24T16:38:22Z</time></trkpt><trkpt lat="42.260451580948285" lon="11.837963670703006"><ele>191.5</ele><time>2026-04-24T16:38:23Z</time></trkpt><trkpt lat="42.260370834485485" lon="11.837775831273454"><ele>192.75</ele><time>2026-04-24T16:38:24Z</time></trkpt><trkpt lat="42.260290905676385" lon="11.837618768504948"><ele>194.0</ele><time>2026-04-24T16:38:25Z</time></trkpt><trkpt lat="42.26021408378268" lon="11.837507397581273"><ele>194.5</ele><time>2026-04-24T16:38:26Z</time></trkpt><trkpt lat="42.26014093241711" lon="11.837355773684555"><ele>195.0</ele><time>2026-04-24T16:38:27Z</time></trkpt><trkpt lat="42.26008181168724" lon="11.83720345892783"><ele>195.5</ele><time>2026-04-24T16:38:28Z</time></trkpt><trkpt lat="42.26003008393953" lon="11.83703967394359"><ele>196.0</ele><time>2026-04-24T16:38:29Z</time></trkpt><trkpt lat="42.259985807904236" lon="11.83686940867361"><ele>196.66666666666666</ele><time>2026-04-24T16:38:30Z</time></trkpt><trkpt lat="42.25992749701275" lon="11.836678595143441"><ele>197.33333333333331</ele><time>2026-04-24T16:38:31Z</time></trkpt><trkpt lat="42.25988994258215" lon="11.83648550386834"><ele>198.0</ele><time>2026-04-24T16:38:32Z</time></trkpt><trkpt lat="42.259858346781265" lon="11.836252801746195"><ele>198.0</ele><time>2026-04-24T16:38:33Z</time></trkpt><trkpt lat="42.25981860408471" lon="11.83605248423318"><ele>198.0</ele><time>2026-04-24T16:38:34Z</time></trkpt><trkpt lat="42.25978783110819" lon="11.835840942597946"><ele>198.0</ele><time>2026-04-24T16:38:35Z</time></trkpt><trkpt lat="42.25976327421947" lon="11.835666899377019"><ele>198.0</ele><time>2026-04-24T16:38:36Z</time></trkpt><trkpt lat="42.25975677991828" lon="11.835498232648767"><ele>199.25</ele><time>2026-04-24T16:38:37Z</time></trkpt><trkpt lat="42.25972552705419" lon="11.835354748311607"><ele>200.5</ele><time>2026-04-24T16:38:38Z</time></trkpt><trkpt lat="42.259710288647625" lon="11.835155369371334"><ele>201.75</ele><time>2026-04-24T16:38:39Z</time></trkpt><trkpt lat="42.2596918350005" lon="11.834954050030747"><ele>203.0</ele><time>2026-04-24T16:38:40Z</time></trkpt><trkpt lat="42.259676562897916" lon="11.834767008702014"><ele>203.75</ele><time>2026-04-24T16:38:41Z</time></trkpt><trkpt lat="42.259653077396855" lon="11.834584468389968"><ele>204.5</ele><time>2026-04-24T16:38:42Z</time></trkpt><trkpt lat="42.259637491698015" lon="11.834417804458337"><ele>205.25</ele><time>2026-04-24T16:38:43Z</time></trkpt><trkpt lat="42.25965388931789" lon="11.83423738312211"><ele>206.0</ele><time>2026-04-24T16:38:44Z</time></trkpt><trkpt lat="42.25964683208569" lon="11.834057577462698"><ele>206.75</ele><time>2026-04-24T16:38:45Z</time></trkpt><trkpt lat="42.2596459070942" lon="11.833848480841787"><ele>207.5</ele><time>2026-04-24T16:38:46Z</time></trkpt><trkpt lat="42.25964796809024" lon="11.833665822623702"><ele>208.25</ele><time>2026-04-24T16:38:47Z</time></trkpt><trkpt lat="42.25965182373813" lon="11.833492952194637"><ele>209.0</ele><time>2026-04-24T16:38:48Z</time></trkpt><trkpt lat="42.259661640531654" lon="11.833339470156735"><ele>210.0</ele><time>2026-04-24T16:38:49Z</time></trkpt><trkpt lat="42.25970147313641" lon="11.833158685673139"><ele>211.0</ele><time>2026-04-24T16:38:50Z</time></trkpt><trkpt lat="42.25971817054704" lon="11.832967389727258"><ele>212.0</ele><time>2026-04-24T16:38:51Z</time></trkpt><trkpt lat="42.259736170728424" lon="11.832796096788522"><ele>213.0</ele><time>2026-04-24T16:38:52Z</time></trkpt><trkpt lat="42.25975524472525" lon="11.832616095495576"><ele>213.0</ele><time>2026-04-24T16:38:53Z</time></trkpt><trkpt lat="42.25976969446714" lon="11.832464903247995"><ele>213.0</ele><time>2026-04-24T16:38:54Z</time></trkpt><trkpt lat="42.25978217132649" lon="11.832268537391254"><ele>213.0</ele><time>2026-04-24T16:38:55Z</time></trkpt><trkpt lat="42.25980736097956" lon="11.832103070996661"><ele>213.0</ele><time>2026-04-24T16:38:56Z</time></trkpt><trkpt lat="42.259831846395976" lon="11.83193204458755"><ele>214.0</ele><time>2026-04-24T16:38:57Z</time></trkpt><trkpt lat="42.259865553495715" lon="11.831761837370589"><ele>215.0</ele><time>2026-04-24T16:38:58Z</time></trkpt><trkpt lat="42.25989342506116" lon="11.831572974804349"><ele>216.0</ele><time>2026-04-24T16:38:59Z</time></trkpt><trkpt lat="42.25994505396979" lon="11.831362612854022"><ele>217.0</ele><time>2026-04-24T16:39:00Z</time></trkpt><trkpt lat="42.2599821449195" lon="11.831181483874536"><ele>217.0</ele><time>2026-04-24T16:39:01Z</time></trkpt><trkpt lat="42.26000970461043" lon="11.831004897585503"><ele>217.0</ele><time>2026-04-24T16:39:02Z</time></trkpt><trkpt lat="42.260044921006994" lon="11.830823676362641"><ele>217.0</ele><time>2026-04-24T16:39:03Z</time></trkpt><trkpt lat="42.2600842341845" lon="11.830637613442015"><ele>217.0</ele><time>2026-04-24T16:39:04Z</time></trkpt><trkpt lat="42.26012411620811" lon="11.830450322491185"><ele>216.66666666666666</ele><time>2026-04-24T16:39:05Z</time></trkpt><trkpt lat="42.26016222667172" lon="11.83026407853825"><ele>216.33333333333331</ele><time>2026-04-24T16:39:06Z</time></trkpt><trkpt lat="42.26018926739812" lon="11.830067680756937"><ele>216.0</ele><time>2026-04-24T16:39:07Z</time></trkpt><trkpt lat="42.260235058648156" lon="11.829858472719593"><ele>216.0</ele><time>2026-04-24T16:39:08Z</time></trkpt><trkpt lat="42.26024615879836" lon="11.829643783831306"><ele>216.0</ele><time>2026-04-24T16:39:09Z</time></trkpt><trkpt lat="42.2602600577878" lon="11.829394644302564"><ele>216.0</ele><time>2026-04-24T16:39:10Z</time></trkpt><trkpt lat="42.26027290242133" lon="11.829152505766363"><ele>216.0</ele><time>2026-04-24T16:39:11Z</time></trkpt><trkpt lat="42.26028523988439" lon="11.828907094336518"><ele>216.0</ele><time>2026-04-24T16:39:12Z</time></trkpt><trkpt lat="42.260298049470066" lon="11.828671742379898"><ele>216.0</ele><time>2026-04-24T16:39:13Z</time></trkpt><trkpt lat="42.26030586588937" lon="11.828434812922364"><ele>216.0</ele><time>2026-04-24T16:39:14Z</time></trkpt><trkpt lat="42.260316438789175" lon="11.828207885939301"><ele>216.0</ele><time>2026-04-24T16:39:15Z</time></trkpt><trkpt lat="42.26033047934149" lon="11.827975319822658"><ele>216.0</ele><time>2026-04-24T16:39:16Z</time></trkpt><trkpt lat="42.26034604193333" lon="11.827753853132364"><ele>216.66666666666669</ele><time>2026-04-24T16:39:17Z</time></trkpt><trkpt lat="42.260353763713134" lon="11.82753439215779"><ele>217.33333333333334</ele><time>2026-04-24T16:39:18Z</time></trkpt><trkpt lat="42.260359415960615" lon="11.827326559215033"><ele>218.0</ele><time>2026-04-24T16:39:19Z</time></trkpt><trkpt lat="42.260368722325765" lon="11.827132448543647"><ele>218.0</ele><time>2026-04-24T16:39:20Z</time></trkpt><trkpt lat="42.26037164912695" lon="11.826937160993268"><ele>218.0</ele><time>2026-04-24T16:39:21Z</time></trkpt><trkpt lat="42.260369071301355" lon="11.82675697797264"><ele>218.0</ele><time>2026-04-24T16:39:22Z</time></trkpt><trkpt lat="42.260368717468914" lon="11.826572854497478"><ele>218.0</ele><time>2026-04-24T16:39:23Z</time></trkpt><trkpt lat="42.26035244331034" lon="11.826412523711921"><ele>218.5</ele><time>2026-04-24T16:39:24Z</time></trkpt><trkpt lat="42.26032884648428" lon="11.826257214173204"><ele>219.0</ele><time>2026-04-24T16:39:25Z</time></trkpt><trkpt lat="42.26029285855373" lon="11.82609766169276"><ele>219.5</ele><time>2026-04-24T16:39:26Z</time></trkpt><trkpt lat="42.26024157806696" lon="11.825934576733644"><ele>220.0</ele><time>2026-04-24T16:39:27Z</time></trkpt><trkpt lat="42.26017215690737" lon="11.825752743523415"><ele>220.0</ele><time>2026-04-24T16:39:28Z</time></trkpt><trkpt lat="42.26007990844058" lon="11.825554844763545"><ele>220.0</ele><time>2026-04-24T16:39:29Z</time></trkpt><trkpt lat="42.26000032151607" lon="11.825364420764108"><ele>220.0</ele><time>2026-04-24T16:39:30Z</time></trkpt><trkpt lat="42.25993291395071" lon="11.825178316711071"><ele>219.5</ele><time>2026-04-24T16:39:31Z</time></trkpt><trkpt lat="42.259871135899246" lon="11.825003136242248"><ele>219.0</ele><time>2026-04-24T16:39:32Z</time></trkpt><trkpt lat="42.25981803098419" lon="11.824840812933918"><ele>218.5</ele><time>2026-04-24T16:39:33Z</time></trkpt><trkpt lat="42.259772953412586" lon="11.824683460336638"><ele>218.0</ele><time>2026-04-24T16:39:34Z</time></trkpt><trkpt lat="42.25973461084062" lon="11.824533946516242"><ele>217.75</ele><time>2026-04-24T16:39:35Z</time></trkpt><trkpt lat="42.25969630990059" lon="11.824382094723749"><ele>217.5</ele><time>2026-04-24T16:39:36Z</time></trkpt><trkpt lat="42.25966747222978" lon="11.824233621530434"><ele>217.25</ele><time>2026-04-24T16:39:37Z</time></trkpt><trkpt lat="42.25965555004734" lon="11.824072402405443"><ele>217.0</ele><time>2026-04-24T16:39:38Z</time></trkpt><trkpt lat="42.25966358723608" lon="11.823890512957556"><ele>216.75</ele><time>2026-04-24T16:39:39Z</time></trkpt><trkpt lat="42.259694293453606" lon="11.823696478967944"><ele>216.5</ele><time>2026-04-24T16:39:40Z</time></trkpt><trkpt lat="42.25973348483436" lon="11.82352431795837"><ele>216.25</ele><time>2026-04-24T16:39:41Z</time></trkpt><trkpt lat="42.25977190172651" lon="11.823353435650603"><ele>216.0</ele><time>2026-04-24T16:39:42Z</time></trkpt><trkpt lat="42.259808510396745" lon="11.823189250024173"><ele>215.0</ele><time>2026-04-24T16:39:43Z</time></trkpt><trkpt lat="42.259838481764234" lon="11.823027979161482"><ele>214.0</ele><time>2026-04-24T16:39:44Z</time></trkpt><trkpt lat="42.259878488284905" lon="11.822865366632424"><ele>213.0</ele><time>2026-04-24T16:39:45Z</time></trkpt><trkpt lat="42.259920333562725" lon="11.822717354954536"><ele>212.0</ele><time>2026-04-24T16:39:46Z</time></trkpt><trkpt lat="42.25996136739213" lon="11.822564296841326"><ele>210.6</ele><time>2026-04-24T16:39:47Z</time></trkpt><trkpt lat="42.25999371108616" lon="11.82242991179348"><ele>209.2</ele><time>2026-04-24T16:39:48Z</time></trkpt><trkpt lat="42.26003073460233" lon="11.822294627802838"><ele>207.8</ele><time>2026-04-24T16:39:49Z</time></trkpt><trkpt lat="42.2600639355789" lon="11.822171315353323"><ele>206.4</ele><time>2026-04-24T16:39:50Z</time></trkpt><trkpt lat="42.260084834869" lon="11.822047385237568"><ele>205.0</ele><time>2026-04-24T16:39:51Z</time></trkpt><trkpt lat="42.260085524614276" lon="11.821927125644777"><ele>205.0</ele><time>2026-04-24T16:39:52Z</time></trkpt><trkpt lat="42.2600561065285" lon="11.821819597432286"><ele>205.0</ele><time>2026-04-24T16:39:53Z</time></trkpt><trkpt lat="42.260010468850986" lon="11.821688510228352"><ele>205.0</ele><time>2026-04-24T16:39:54Z</time></trkpt><trkpt lat="42.259921526231246" lon="11.821559176798374"><ele>205.0</ele><time>2026-04-24T16:39:55Z</time></trkpt><trkpt lat="42.259813214731636" lon="11.821428937333243"><ele>202.0</ele><time>2026-04-24T16:39:56Z</time></trkpt><trkpt lat="42.25969254424141" lon="11.82128341253313"><ele>199.0</ele><time>2026-04-24T16:39:57Z</time></trkpt><trkpt lat="42.25953707720063" lon="11.82112298340423"><ele>196.0</ele><time>2026-04-24T16:39:58Z</time></trkpt><trkpt lat="42.25940706142937" lon="11.820944019326037"><ele>193.66666666666666</ele><time>2026-04-24T16:39:59Z</time></trkpt><trkpt lat="42.259251721438844" lon="11.82076423632183"><ele>191.33333333333331</ele><time>2026-04-24T16:40:00Z</time></trkpt><trkpt lat="42.25911136740166" lon="11.820587688685384"><ele>189.0</ele><time>2026-04-24T16:40:00.999Z</time></trkpt><trkpt lat="42.258968710471095" lon="11.820405679806878"><ele>188.66666666666666</ele><time>2026-04-24T16:40:01.999Z</time></trkpt><trkpt lat="42.25883555491712" lon="11.820236631612463"><ele>188.33333333333331</ele><time>2026-04-24T16:40:02.999Z</time></trkpt><trkpt lat="42.2587057509545" lon="11.820081910275004"><ele>188.0</ele><time>2026-04-24T16:40:03.999Z</time></trkpt><trkpt lat="42.25856828006024" lon="11.819916682462765"><ele>185.66666666666666</ele><time>2026-04-24T16:40:04.999Z</time></trkpt><trkpt lat="42.25843375416852" lon="11.819767886403865"><ele>183.33333333333334</ele><time>2026-04-24T16:40:05.999Z</time></trkpt><trkpt lat="42.25830860367698" lon="11.819611399679898"><ele>181.0</ele><time>2026-04-24T16:40:06.999Z</time></trkpt><trkpt lat="42.25818994007527" lon="11.8194669308922"><ele>180.5</ele><time>2026-04-24T16:40:07.999Z</time></trkpt><trkpt lat="42.258075229962756" lon="11.819338065736794"><ele>180.0</ele><time>2026-04-24T16:40:08.999Z</time></trkpt><trkpt lat="42.25795926430287" lon="11.819218212894755"><ele>179.5</ele><time>2026-04-24T16:40:09.999Z</time></trkpt><trkpt lat="42.25784194607288" lon="11.819093801668181"><ele>179.0</ele><time>2026-04-24T16:40:10.999Z</time></trkpt><trkpt lat="42.25771858775389" lon="11.818990064499939"><ele>178.0</ele><time>2026-04-24T16:40:11.999Z</time></trkpt><trkpt lat="42.25759351462834" lon="11.818882628004914"><ele>177.0</ele><time>2026-04-24T16:40:12.999Z</time></trkpt><trkpt lat="42.2574752446007" lon="11.818780973285385"><ele>176.0</ele><time>2026-04-24T16:40:13.999Z</time></trkpt><trkpt lat="42.25735448845295" lon="11.818695413379784"><ele>175.0</ele><time>2026-04-24T16:40:14.999Z</time></trkpt><trkpt lat="42.25725198474607" lon="11.818615927424835"><ele>173.5</ele><time>2026-04-24T16:40:15.999Z</time></trkpt><trkpt lat="42.25713106705711" lon="11.818520974527628"><ele>172.0</ele><time>2026-04-24T16:40:16.999Z</time></trkpt><trkpt lat="42.25701636612912" lon="11.818429328657523"><ele>170.5</ele><time>2026-04-24T16:40:17.999Z</time></trkpt><trkpt lat="42.256902884496014" lon="11.818319186563455"><ele>169.0</ele><time>2026-04-24T16:40:18.999Z</time></trkpt><trkpt lat="42.256799084763095" lon="11.818191412755672"><ele>168.75</ele><time>2026-04-24T16:40:19.999Z</time></trkpt><trkpt lat="42.256698272761646" lon="11.818072293438027"><ele>168.5</ele><time>2026-04-24T16:40:21Z</time></trkpt><trkpt lat="42.256581813136805" lon="11.817926603850019"><ele>168.25</ele><time>2026-04-24T16:40:22Z</time></trkpt><trkpt lat="42.25646873221676" lon="11.817782202139588"><ele>168.0</ele><time>2026-04-24T16:40:23Z</time></trkpt><trkpt lat="42.256361512358716" lon="11.817649567567155"><ele>165.66666666666666</ele><time>2026-04-24T16:40:24Z</time></trkpt><trkpt lat="42.25623865913666" lon="11.817502582921522"><ele>163.33333333333331</ele><time>2026-04-24T16:40:25Z</time></trkpt><trkpt lat="42.256130480185256" lon="11.817367605769757"><ele>161.0</ele><time>2026-04-24T16:40:26Z</time></trkpt><trkpt lat="42.256015823391344" lon="11.817228228385634"><ele>161.0</ele><time>2026-04-24T16:40:27Z</time></trkpt><trkpt lat="42.25588662732102" lon="11.81709618982589"><ele>161.0</ele><time>2026-04-24T16:40:28Z</time></trkpt><trkpt lat="42.25576578521225" lon="11.816957609096606"><ele>161.0</ele><time>2026-04-24T16:40:29Z</time></trkpt><trkpt lat="42.25565086826065" lon="11.816829017891713"><ele>159.33333333333331</ele><time>2026-04-24T16:40:30Z</time></trkpt><trkpt lat="42.255540812160916" lon="11.816657747556944"><ele>157.66666666666666</ele><time>2026-04-24T16:40:31Z</time></trkpt><trkpt lat="42.255417885118234" lon="11.816513953393965"><ele>156.0</ele><time>2026-04-24T16:40:32Z</time></trkpt><trkpt lat="42.25529568538136" lon="11.816377311935472"><ele>156.0</ele><time>2026-04-24T16:40:33Z</time></trkpt><trkpt lat="42.255180880426174" lon="11.816244085371377"><ele>156.0</ele><time>2026-04-24T16:40:34Z</time></trkpt><trkpt lat="42.25507508805349" lon="11.816121921537855"><ele>156.0</ele><time>2026-04-24T16:40:35Z</time></trkpt><trkpt lat="42.254982056904396" lon="11.815997102234176"><ele>156.0</ele><time>2026-04-24T16:40:36Z</time></trkpt><trkpt lat="42.25487752771851" lon="11.81586643388256"><ele>155.75</ele><time>2026-04-24T16:40:37Z</time></trkpt><trkpt lat="42.25477227725561" lon="11.81575223442137"><ele>155.5</ele><time>2026-04-24T16:40:38Z</time></trkpt><trkpt lat="42.25468639621147" lon="11.815631801398293"><ele>155.25</ele><time>2026-04-24T16:40:39Z</time></trkpt><trkpt lat="42.254582633091154" lon="11.815496172185405"><ele>155.0</ele><time>2026-04-24T16:40:40Z</time></trkpt><trkpt lat="42.254482094421434" lon="11.815376449080903"><ele>155.0</ele><time>2026-04-24T16:40:41Z</time></trkpt><trkpt lat="42.25437546688315" lon="11.815244851059639"><ele>155.0</ele><time>2026-04-24T16:40:42Z</time></trkpt><trkpt lat="42.25427159465632" lon="11.815119857860504"><ele>155.0</ele><time>2026-04-24T16:40:43Z</time></trkpt><trkpt lat="42.25416993811157" lon="11.8149943309432"><ele>155.0</ele><time>2026-04-24T16:40:44Z</time></trkpt><trkpt lat="42.254079508680135" lon="11.814846020189176"><ele>155.25</ele><time>2026-04-24T16:40:45Z</time></trkpt><trkpt lat="42.25397889682429" lon="11.814720112072647"><ele>155.5</ele><time>2026-04-24T16:40:46Z</time></trkpt><trkpt lat="42.253878418276095" lon="11.814574272711377"><ele>155.75</ele><time>2026-04-24T16:40:47Z</time></trkpt><trkpt lat="42.253768283840095" lon="11.814434835633577"><ele>156.0</ele><time>2026-04-24T16:40:48Z</time></trkpt><trkpt lat="42.253670506084" lon="11.81430342283116"><ele>156.0</ele><time>2026-04-24T16:40:49Z</time></trkpt><trkpt lat="42.25356846615485" lon="11.814165668920067"><ele>156.0</ele><time>2026-04-24T16:40:50Z</time></trkpt><trkpt lat="42.25347559067177" lon="11.814026675720115"><ele>156.0</ele><time>2026-04-24T16:40:51Z</time></trkpt><trkpt lat="42.25338021259718" lon="11.813874345083484"><ele>156.0</ele><time>2026-04-24T16:40:52Z</time></trkpt><trkpt lat="42.25328263166663" lon="11.813744423101992"><ele>156.0</ele><time>2026-04-24T16:40:53Z</time></trkpt><trkpt lat="42.2531702105147" lon="11.813608025836963"><ele>156.0</ele><time>2026-04-24T16:40:54Z</time></trkpt><trkpt lat="42.25306210045994" lon="11.813470194666918"><ele>156.0</ele><time>2026-04-24T16:40:55Z</time></trkpt><trkpt lat="42.252932541954316" lon="11.813337861526971"><ele>157.0</ele><time>2026-04-24T16:40:56Z</time></trkpt><trkpt lat="42.25281996431166" lon="11.813200858474099"><ele>158.0</ele><time>2026-04-24T16:40:57Z</time></trkpt><trkpt lat="42.25271024592531" lon="11.813063883973092"><ele>159.0</ele><time>2026-04-24T16:40:58Z</time></trkpt><trkpt lat="42.252593240250015" lon="11.812913624550164"><ele>159.0</ele><time>2026-04-24T16:40:59Z</time></trkpt><trkpt lat="42.252470670715375" lon="11.812764460034096"><ele>159.0</ele><time>2026-04-24T16:41:00Z</time></trkpt><trkpt lat="42.25234110503767" lon="11.812622577090309"><ele>159.0</ele><time>2026-04-24T16:41:01Z</time></trkpt><trkpt lat="42.25220595335364" lon="11.812484938860434"><ele>160.0</ele><time>2026-04-24T16:41:02Z</time></trkpt><trkpt lat="42.25207458414322" lon="11.812353488116921"><ele>161.0</ele><time>2026-04-24T16:41:03Z</time></trkpt><trkpt lat="42.251924090534324" lon="11.81222475578393"><ele>162.0</ele><time>2026-04-24T16:41:04Z</time></trkpt><trkpt lat="42.25177688791337" lon="11.812095225190802"><ele>162.0</ele><time>2026-04-24T16:41:05Z</time></trkpt><trkpt lat="42.25161685834392" lon="11.81196240779498"><ele>162.0</ele><time>2026-04-24T16:41:06Z</time></trkpt><trkpt lat="42.251447476274684" lon="11.811827467841196"><ele>162.0</ele><time>2026-04-24T16:41:07Z</time></trkpt><trkpt lat="42.25128290007915" lon="11.811694927880625"><ele>163.66666666666666</ele><time>2026-04-24T16:41:08Z</time></trkpt><trkpt lat="42.251128399305266" lon="11.811574082787658"><ele>165.33333333333331</ele><time>2026-04-24T16:41:09Z</time></trkpt><trkpt lat="42.25097844987465" lon="11.81145489519431"><ele>167.0</ele><time>2026-04-24T16:41:10Z</time></trkpt><trkpt lat="42.25082083335434" lon="11.81134034244994"><ele>167.0</ele><time>2026-04-24T16:41:11Z</time></trkpt><trkpt lat="42.25067323002538" lon="11.811230654601225"><ele>167.0</ele><time>2026-04-24T16:41:12Z</time></trkpt><trkpt lat="42.250522589930895" lon="11.811143838689194"><ele>167.0</ele><time>2026-04-24T16:41:13Z</time></trkpt><trkpt lat="42.25038295202993" lon="11.811045346376753"><ele>166.33333333333331</ele><time>2026-04-24T16:41:14Z</time></trkpt><trkpt lat="42.250226616515654" lon="11.810956049094974"><ele>165.66666666666666</ele><time>2026-04-24T16:41:15Z</time></trkpt><trkpt lat="42.250070521004986" lon="11.810857424369518"><ele>165.0</ele><time>2026-04-24T16:41:16Z</time></trkpt><trkpt lat="42.24990879472976" lon="11.810771900777715"><ele>163.66666666666666</ele><time>2026-04-24T16:41:17Z</time></trkpt><trkpt lat="42.249758772323545" lon="11.810684542117997"><ele>162.33333333333331</ele><time>2026-04-24T16:41:18Z</time></trkpt><trkpt lat="42.249603630244216" lon="11.810633521142694"><ele>161.0</ele><time>2026-04-24T16:41:19Z</time></trkpt><trkpt lat="42.24945297915751" lon="11.810543247439313"><ele>161.0</ele><time>2026-04-24T16:41:20Z</time></trkpt><trkpt lat="42.249291312695846" lon="11.810470978679362"><ele>161.0</ele><time>2026-04-24T16:41:21Z</time></trkpt><trkpt lat="42.24912977767088" lon="11.810399708981997"><ele>161.0</ele><time>2026-04-24T16:41:22Z</time></trkpt><trkpt lat="42.24896778695719" lon="11.810328300251886"><ele>163.66666666666666</ele><time>2026-04-24T16:41:23Z</time></trkpt><trkpt lat="42.24878928755055" lon="11.810250051865802"><ele>166.33333333333334</ele><time>2026-04-24T16:41:24Z</time></trkpt><trkpt lat="42.24862087371372" lon="11.810194361531318"><ele>169.0</ele><time>2026-04-24T16:41:25Z</time></trkpt><trkpt lat="42.24846936687532" lon="11.81010839123795"><ele>169.0</ele><time>2026-04-24T16:41:26Z</time></trkpt><trkpt lat="42.24831611235113" lon="11.810044930505528"><ele>169.0</ele><time>2026-04-24T16:41:27Z</time></trkpt><trkpt lat="42.248168757604226" lon="11.809978963128128"><ele>169.0</ele><time>2026-04-24T16:41:28Z</time></trkpt><trkpt lat="42.248031710592876" lon="11.809911118123598"><ele>170.33333333333334</ele><time>2026-04-24T16:41:29Z</time></trkpt><trkpt lat="42.24788191653391" lon="11.809836494249549"><ele>171.66666666666666</ele><time>2026-04-24T16:41:30Z</time></trkpt><trkpt lat="42.24773261718885" lon="11.809770011002794"><ele>173.0</ele><time>2026-04-24T16:41:31Z</time></trkpt><trkpt lat="42.24758026837476" lon="11.809707536243543"><ele>173.0</ele><time>2026-04-24T16:41:32Z</time></trkpt><trkpt lat="42.24741587086002" lon="11.80964901013837"><ele>173.0</ele><time>2026-04-24T16:41:33Z</time></trkpt><trkpt lat="42.24723727737643" lon="11.809563094582922"><ele>173.0</ele><time>2026-04-24T16:41:34Z</time></trkpt><trkpt lat="42.247083352482115" lon="11.809512369359185"><ele>173.33333333333331</ele><time>2026-04-24T16:41:35Z</time></trkpt><trkpt lat="42.24693318749894" lon="11.809452850938694"><ele>173.66666666666666</ele><time>2026-04-24T16:41:36Z</time></trkpt><trkpt lat="42.24678647493714" lon="11.809389182080745"><ele>174.0</ele><time>2026-04-24T16:41:37Z</time></trkpt><trkpt lat="42.24663692780943" lon="11.809315468415964"><ele>174.0</ele><time>2026-04-24T16:41:38Z</time></trkpt><trkpt lat="42.246473166804286" lon="11.809239638882419"><ele>174.0</ele><time>2026-04-24T16:41:39Z</time></trkpt><trkpt lat="42.246308521740296" lon="11.809176643387504"><ele>174.0</ele><time>2026-04-24T16:41:40Z</time></trkpt><trkpt lat="42.246155075402974" lon="11.809104420605683"><ele>176.33333333333334</ele><time>2026-04-24T16:41:41Z</time></trkpt><trkpt lat="42.24599367024545" lon="11.80902133773369"><ele>178.66666666666669</ele><time>2026-04-24T16:41:42Z</time></trkpt><trkpt lat="42.24583856343047" lon="11.80894549273882"><ele>181.0</ele><time>2026-04-24T16:41:43Z</time></trkpt><trkpt lat="42.24569624033788" lon="11.808891994050528"><ele>182.25</ele><time>2026-04-24T16:41:44Z</time></trkpt><trkpt lat="42.24556377240977" lon="11.808839005197159"><ele>183.5</ele><time>2026-04-24T16:41:45Z</time></trkpt><trkpt lat="42.24543719340357" lon="11.808784127081077"><ele>184.75</ele><time>2026-04-24T16:41:46Z</time></trkpt><trkpt lat="42.24530469680331" lon="11.808728678419783"><ele>186.0</ele><time>2026-04-24T16:41:47Z</time></trkpt><trkpt lat="42.24516601350803" lon="11.80865655649453"><ele>186.0</ele><time>2026-04-24T16:41:48Z</time></trkpt><trkpt lat="42.24502759149385" lon="11.808589002331615"><ele>186.0</ele><time>2026-04-24T16:41:49Z</time></trkpt><trkpt lat="42.244880299634744" lon="11.80851129713622"><ele>186.0</ele><time>2026-04-24T16:41:50Z</time></trkpt><trkpt lat="42.244729495435664" lon="11.808421681447571"><ele>185.33333333333334</ele><time>2026-04-24T16:41:51Z</time></trkpt><trkpt lat="42.24457109263854" lon="11.808315153150513"><ele>184.66666666666669</ele><time>2026-04-24T16:41:52Z</time></trkpt><trkpt lat="42.24438760388019" lon="11.808200646826238"><ele>184.0</ele><time>2026-04-24T16:41:53Z</time></trkpt><trkpt lat="42.24420737302733" lon="11.808073964541192"><ele>184.0</ele><time>2026-04-24T16:41:54Z</time></trkpt><trkpt lat="42.24403444881018" lon="11.80795695819639"><ele>184.0</ele><time>2026-04-24T16:41:55Z</time></trkpt><trkpt lat="42.24387918472689" lon="11.807846194793262"><ele>184.0</ele><time>2026-04-24T16:41:56Z</time></trkpt><trkpt lat="42.24372402183048" lon="11.807728049513482"><ele>183.0</ele><time>2026-04-24T16:41:57Z</time></trkpt><trkpt lat="42.24358106121801" lon="11.80762688782792"><ele>182.0</ele><time>2026-04-24T16:41:58Z</time></trkpt><trkpt lat="42.24343119434111" lon="11.8075228217502"><ele>181.0</ele><time>2026-04-24T16:41:59Z</time></trkpt><trkpt lat="42.24328991652428" lon="11.807427504285075"><ele>181.0</ele><time>2026-04-24T16:42:00Z</time></trkpt><trkpt lat="42.243157600176865" lon="11.807335384854294"><ele>181.0</ele><time>2026-04-24T16:42:01Z</time></trkpt><trkpt lat="42.24302043205659" lon="11.807229773362298"><ele>181.0</ele><time>2026-04-24T16:42:02Z</time></trkpt><trkpt lat="42.242879101334864" lon="11.807135686093444"><ele>180.33333333333334</ele><time>2026-04-24T16:42:03Z</time></trkpt><trkpt lat="42.242739743788064" lon="11.807038783387341"><ele>179.66666666666666</ele><time>2026-04-24T16:42:04Z</time></trkpt><trkpt lat="42.24259997133734" lon="11.806938586763106"><ele>179.0</ele><time>2026-04-24T16:42:04.999Z</time></trkpt><trkpt lat="42.242462809624335" lon="11.806840073285326"><ele>178.5</ele><time>2026-04-24T16:42:05.999Z</time></trkpt><trkpt lat="42.242319190367475" lon="11.806741254283365"><ele>178.0</ele><time>2026-04-24T16:42:06.999Z</time></trkpt><trkpt lat="42.2421925992935" lon="11.806666039857326"><ele>177.5</ele><time>2026-04-24T16:42:07.999Z</time></trkpt><trkpt lat="42.24206469158145" lon="11.806576318023701"><ele>177.0</ele><time>2026-04-24T16:42:08.999Z</time></trkpt><trkpt lat="42.241932789299334" lon="11.806491639319614"><ele>176.5</ele><time>2026-04-24T16:42:09.999Z</time></trkpt><trkpt lat="42.2418037924587" lon="11.806398406554528"><ele>176.0</ele><time>2026-04-24T16:42:10.999Z</time></trkpt><trkpt lat="42.241673517006014" lon="11.80630323166504"><ele>175.5</ele><time>2026-04-24T16:42:11.999Z</time></trkpt><trkpt lat="42.241540277283335" lon="11.806197694717223"><ele>175.0</ele><time>2026-04-24T16:42:12.999Z</time></trkpt><trkpt lat="42.24141051621255" lon="11.80610594429937"><ele>174.25</ele><time>2026-04-24T16:42:13.999Z</time></trkpt><trkpt lat="42.24128252504147" lon="11.806018986234692"><ele>173.5</ele><time>2026-04-24T16:42:14.999Z</time></trkpt><trkpt lat="42.241154902304366" lon="11.80593635441418"><ele>172.75</ele><time>2026-04-24T16:42:15.999Z</time></trkpt><trkpt lat="42.24103957903557" lon="11.805856397745007"><ele>172.0</ele><time>2026-04-24T16:42:16.999Z</time></trkpt><trkpt lat="42.24092443923207" lon="11.805770351834116"><ele>172.0</ele><time>2026-04-24T16:42:17.999Z</time></trkpt><trkpt lat="42.24081112260983" lon="11.805695806730332"><ele>172.0</ele><time>2026-04-24T16:42:18.999Z</time></trkpt><trkpt lat="42.24070315966082" lon="11.80561721561358"><ele>172.0</ele><time>2026-04-24T16:42:19.999Z</time></trkpt><trkpt lat="42.240598266546215" lon="11.80555223235734"><ele>172.0</ele><time>2026-04-24T16:42:20.999Z</time></trkpt><trkpt lat="42.240491945570476" lon="11.805485683755998"><ele>170.75</ele><time>2026-04-24T16:42:21.999Z</time></trkpt><trkpt lat="42.24038184275725" lon="11.80541751126499"><ele>169.5</ele><time>2026-04-24T16:42:22.999Z</time></trkpt><trkpt lat="42.240264320047956" lon="11.805346344515886"><ele>168.25</ele><time>2026-04-24T16:42:23.999Z</time></trkpt><trkpt lat="42.24015395540138" lon="11.805280731213939"><ele>167.0</ele><time>2026-04-24T16:42:24.999Z</time></trkpt><trkpt lat="42.240050246032844" lon="11.80522419736216"><ele>167.0</ele><time>2026-04-24T16:42:25.999Z</time></trkpt><trkpt lat="42.239947118446246" lon="11.805177219162497"><ele>167.0</ele><time>2026-04-24T16:42:27Z</time></trkpt><trkpt lat="42.23983705096367" lon="11.80512782017018"><ele>167.0</ele><time>2026-04-24T16:42:28Z</time></trkpt><trkpt lat="42.23972882582343" lon="11.805080344603452"><ele>167.0</ele><time>2026-04-24T16:42:29Z</time></trkpt><trkpt lat="42.23962255421722" lon="11.805015717241801"><ele>165.75</ele><time>2026-04-24T16:42:30Z</time></trkpt><trkpt lat="42.23951704651221" lon="11.804917678317306"><ele>164.5</ele><time>2026-04-24T16:42:31Z</time></trkpt><trkpt lat="42.23941946133306" lon="11.804802241633734"><ele>163.25</ele><time>2026-04-24T16:42:32Z</time></trkpt><trkpt lat="42.23932862981144" lon="11.804661096256915"><ele>162.0</ele><time>2026-04-24T16:42:33Z</time></trkpt><trkpt lat="42.239239327611735" lon="11.804504909320755"><ele>162.0</ele><time>2026-04-24T16:42:34Z</time></trkpt><trkpt lat="42.23914508382892" lon="11.804330105953861"><ele>162.0</ele><time>2026-04-24T16:42:35Z</time></trkpt><trkpt lat="42.239060892523646" lon="11.804169520560464"><ele>162.0</ele><time>2026-04-24T16:42:36Z</time></trkpt><trkpt lat="42.23900078822276" lon="11.803999753295834"><ele>162.0</ele><time>2026-04-24T16:42:37Z</time></trkpt><trkpt lat="42.23892673417081" lon="11.803836215648952"><ele>162.5</ele><time>2026-04-24T16:42:38Z</time></trkpt><trkpt lat="42.23885319319549" lon="11.803673810337397"><ele>163.0</ele><time>2026-04-24T16:42:39Z</time></trkpt><trkpt lat="42.2387761642201" lon="11.803503703303912"><ele>163.5</ele><time>2026-04-24T16:42:40Z</time></trkpt><trkpt lat="42.23870010011416" lon="11.80333572664873"><ele>164.0</ele><time>2026-04-24T16:42:41Z</time></trkpt><trkpt lat="42.23862657996201" lon="11.803171814721434"><ele>164.0</ele><time>2026-04-24T16:42:42Z</time></trkpt><trkpt lat="42.23855657790667" lon="11.803007220226924"><ele>164.0</ele><time>2026-04-24T16:42:43Z</time></trkpt><trkpt lat="42.23849496948734" lon="11.802853115734846"><ele>164.0</ele><time>2026-04-24T16:42:44Z</time></trkpt><trkpt lat="42.238423277872265" lon="11.80266124424458"><ele>164.0</ele><time>2026-04-24T16:42:45Z</time></trkpt><trkpt lat="42.238354935257384" lon="11.802463681939672"><ele>165.0</ele><time>2026-04-24T16:42:46Z</time></trkpt><trkpt lat="42.23828989626089" lon="11.802270699843403"><ele>166.0</ele><time>2026-04-24T16:42:47Z</time></trkpt><trkpt lat="42.238225693230895" lon="11.8020801984495"><ele>167.0</ele><time>2026-04-24T16:42:48Z</time></trkpt><trkpt lat="42.23816173162283" lon="11.801890413245781"><ele>166.66666666666666</ele><time>2026-04-24T16:42:49Z</time></trkpt><trkpt lat="42.23810169799206" lon="11.80171228331734"><ele>166.33333333333334</ele><time>2026-04-24T16:42:50Z</time></trkpt><trkpt lat="42.23802715355692" lon="11.801491096882723"><ele>166.0</ele><time>2026-04-24T16:42:51Z</time></trkpt><trkpt lat="42.23796476458609" lon="11.801305977977751"><ele>166.0</ele><time>2026-04-24T16:42:52Z</time></trkpt><trkpt lat="42.23790135468004" lon="11.801116878139162"><ele>166.0</ele><time>2026-04-24T16:42:53Z</time></trkpt><trkpt lat="42.23782734266722" lon="11.800937907626361"><ele>166.0</ele><time>2026-04-24T16:42:54Z</time></trkpt><trkpt lat="42.237774244105886" lon="11.800763793637044"><ele>166.0</ele><time>2026-04-24T16:42:55Z</time></trkpt><trkpt lat="42.237725256828014" lon="11.800587606448788"><ele>165.5</ele><time>2026-04-24T16:42:56Z</time></trkpt><trkpt lat="42.23767129607967" lon="11.80044435861649"><ele>165.0</ele><time>2026-04-24T16:42:57Z</time></trkpt><trkpt lat="42.237618711711015" lon="11.80027504156498"><ele>164.5</ele><time>2026-04-24T16:42:58Z</time></trkpt><trkpt lat="42.237566299349524" lon="11.80013545068033"><ele>164.0</ele><time>2026-04-24T16:42:59Z</time></trkpt><trkpt lat="42.23751866757576" lon="11.800001793990186"><ele>163.6</ele><time>2026-04-24T16:43:00Z</time></trkpt><trkpt lat="42.23748165085406" lon="11.799882144620687"><ele>163.2</ele><time>2026-04-24T16:43:01Z</time></trkpt><trkpt lat="42.23744952822622" lon="11.799753761414388"><ele>162.79999999999998</ele><time>2026-04-24T16:43:02Z</time></trkpt><trkpt lat="42.23742150370875" lon="11.799653658375629"><ele>162.39999999999998</ele><time>2026-04-24T16:43:03Z</time></trkpt><trkpt lat="42.237402140490126" lon="11.799523737164227"><ele>162.0</ele><time>2026-04-24T16:43:04Z</time></trkpt><trkpt lat="42.23741378255985" lon="11.799389474783842"><ele>160.5</ele><time>2026-04-24T16:43:05Z</time></trkpt><trkpt lat="42.2374571334652" lon="11.799243516032375"><ele>159.0</ele><time>2026-04-24T16:43:06Z</time></trkpt><trkpt lat="42.23750696926205" lon="11.799109306958437"><ele>157.5</ele><time>2026-04-24T16:43:07Z</time></trkpt><trkpt lat="42.237592396069644" lon="11.79895985118713"><ele>156.0</ele><time>2026-04-24T16:43:08Z</time></trkpt><trkpt lat="42.237679360945236" lon="11.79882258574571"><ele>156.0</ele><time>2026-04-24T16:43:09Z</time></trkpt><trkpt lat="42.23775934210377" lon="11.798691947291568"><ele>156.0</ele><time>2026-04-24T16:43:10Z</time></trkpt><trkpt lat="42.23781993240597" lon="11.798563090830902"><ele>156.0</ele><time>2026-04-24T16:43:11Z</time></trkpt><trkpt lat="42.23786235198753" lon="11.79843815511324"><ele>156.0</ele><time>2026-04-24T16:43:12Z</time></trkpt><trkpt lat="42.23790218249052" lon="11.7982980378145"><ele>155.6</ele><time>2026-04-24T16:43:13Z</time></trkpt><trkpt lat="42.23791310315793" lon="11.798141846069186"><ele>155.2</ele><time>2026-04-24T16:43:14Z</time></trkpt><trkpt lat="42.23791691894954" lon="11.797989905346439"><ele>154.8</ele><time>2026-04-24T16:43:15Z</time></trkpt><trkpt lat="42.23790703023268" lon="11.797841618637486"><ele>154.4</ele><time>2026-04-24T16:43:16Z</time></trkpt><trkpt lat="42.23788586945317" lon="11.797709293297407"><ele>154.0</ele><time>2026-04-24T16:43:17Z</time></trkpt><trkpt lat="42.23784129344491" lon="11.797597074691229"><ele>154.0</ele><time>2026-04-24T16:43:18Z</time></trkpt><trkpt lat="42.23780581616456" lon="11.79748722147141"><ele>154.0</ele><time>2026-04-24T16:43:19Z</time></trkpt><trkpt lat="42.23772403288219" lon="11.797393618465517"><ele>154.0</ele><time>2026-04-24T16:43:20Z</time></trkpt><trkpt lat="42.237641569399386" lon="11.797305710498627"><ele>154.0</ele><time>2026-04-24T16:43:21Z</time></trkpt><trkpt lat="42.23752832893339" lon="11.79721662438624"><ele>154.0</ele><time>2026-04-24T16:43:22Z</time></trkpt><trkpt lat="42.23739556177041" lon="11.797126723459117"><ele>150.66666666666669</ele><time>2026-04-24T16:43:23Z</time></trkpt><trkpt lat="42.237226560759176" lon="11.797029857886724"><ele>147.33333333333334</ele><time>2026-04-24T16:43:24Z</time></trkpt><trkpt lat="42.23706506694387" lon="11.796949645644865"><ele>144.0</ele><time>2026-04-24T16:43:25Z</time></trkpt><trkpt lat="42.23693072491538" lon="11.796866549110769"><ele>146.0</ele><time>2026-04-24T16:43:26Z</time></trkpt><trkpt lat="42.23679038659898" lon="11.796792002203057"><ele>148.0</ele><time>2026-04-24T16:43:27Z</time></trkpt><trkpt lat="42.236639358164915" lon="11.796706814103004"><ele>150.0</ele><time>2026-04-24T16:43:28Z</time></trkpt><trkpt lat="42.236504995028874" lon="11.796622874293497"><ele>148.25</ele><time>2026-04-24T16:43:29Z</time></trkpt><trkpt lat="42.23637731083868" lon="11.796536964093077"><ele>146.5</ele><time>2026-04-24T16:43:30Z</time></trkpt><trkpt lat="42.23624533959575" lon="11.796450118283941"><ele>144.75</ele><time>2026-04-24T16:43:31Z</time></trkpt><trkpt lat="42.23613503391865" lon="11.796381463063202"><ele>143.0</ele><time>2026-04-24T16:43:32Z</time></trkpt><trkpt lat="42.236030719298086" lon="11.796322064171996"><ele>143.0</ele><time>2026-04-24T16:43:33Z</time></trkpt><trkpt lat="42.23592371192149" lon="11.796267111314423"><ele>143.0</ele><time>2026-04-24T16:43:34Z</time></trkpt><trkpt lat="42.235827724272475" lon="11.796207109740344"><ele>143.0</ele><time>2026-04-24T16:43:35Z</time></trkpt><trkpt lat="42.235738627831864" lon="11.796171102872616"><ele>143.0</ele><time>2026-04-24T16:43:36Z</time></trkpt><trkpt lat="42.23563420866777" lon="11.796105508894067"><ele>143.0</ele><time>2026-04-24T16:43:37Z</time></trkpt><trkpt lat="42.2355321733242" lon="11.79608601667142"><ele>142.4</ele><time>2026-04-24T16:43:38Z</time></trkpt><trkpt lat="42.235418378940224" lon="11.796055768904663"><ele>141.8</ele><time>2026-04-24T16:43:39Z</time></trkpt><trkpt lat="42.23531719790955" lon="11.796035361669329"><ele>141.2</ele><time>2026-04-24T16:43:40Z</time></trkpt><trkpt lat="42.23522221053331" lon="11.79599612480863"><ele>140.6</ele><time>2026-04-24T16:43:41Z</time></trkpt><trkpt lat="42.235141380249125" lon="11.795952939083179"><ele>140.0</ele><time>2026-04-24T16:43:42Z</time></trkpt><trkpt lat="42.235065482679964" lon="11.79589587999346"><ele>140.0</ele><time>2026-04-24T16:43:43Z</time></trkpt><trkpt lat="42.23498355513146" lon="11.79581454222781"><ele>140.0</ele><time>2026-04-24T16:43:44Z</time></trkpt><trkpt lat="42.234915106671096" lon="11.795736838233521"><ele>140.0</ele><time>2026-04-24T16:43:45Z</time></trkpt><trkpt lat="42.2348555789759" lon="11.795640800118441"><ele>140.0</ele><time>2026-04-24T16:43:46Z</time></trkpt><trkpt lat="42.234808482186594" lon="11.795527835002279"><ele>140.0</ele><time>2026-04-24T16:43:47Z</time></trkpt><trkpt lat="42.234769891377205" lon="11.795408341791136"><ele>138.6</ele><time>2026-04-24T16:43:48Z</time></trkpt><trkpt lat="42.23473186933414" lon="11.795274877562772"><ele>137.2</ele><time>2026-04-24T16:43:49Z</time></trkpt><trkpt lat="42.234693654576596" lon="11.795136380500313"><ele>135.8</ele><time>2026-04-24T16:43:50Z</time></trkpt><trkpt lat="42.234651532716036" lon="11.79502136843469"><ele>134.4</ele><time>2026-04-24T16:43:51Z</time></trkpt><trkpt lat="42.23460387518613" lon="11.794906061558361"><ele>133.0</ele><time>2026-04-24T16:43:52Z</time></trkpt><trkpt lat="42.234550819799566" lon="11.794791331233512"><ele>132.8</ele><time>2026-04-24T16:43:53Z</time></trkpt><trkpt lat="42.234485264708" lon="11.794698189235312"><ele>132.60000000000002</ele><time>2026-04-24T16:43:54Z</time></trkpt><trkpt lat="42.234408371986255" lon="11.794609293802173"><ele>132.39999999999998</ele><time>2026-04-24T16:43:55Z</time></trkpt><trkpt lat="42.23432064617476" lon="11.794557742876028"><ele>132.2</ele><time>2026-04-24T16:43:56Z</time></trkpt><trkpt lat="42.23421958851434" lon="11.794527273829457"><ele>132.0</ele><time>2026-04-24T16:43:57Z</time></trkpt><trkpt lat="42.234112329018735" lon="11.794514448522987"><ele>132.0</ele><time>2026-04-24T16:43:58Z</time></trkpt><trkpt lat="42.23400426649468" lon="11.794584864117363"><ele>132.0</ele><time>2026-04-24T16:43:59Z</time></trkpt><trkpt lat="42.2338863296188" lon="11.794635053403596"><ele>132.0</ele><time>2026-04-24T16:44:00Z</time></trkpt><trkpt lat="42.23375089821765" lon="11.794688561997754"><ele>132.0</ele><time>2026-04-24T16:44:01Z</time></trkpt><trkpt lat="42.233584505967016" lon="11.794764941543198"><ele>130.66666666666666</ele><time>2026-04-24T16:44:02Z</time></trkpt><trkpt lat="42.23340198239894" lon="11.794843010442765"><ele>129.33333333333331</ele><time>2026-04-24T16:44:03Z</time></trkpt><trkpt lat="42.23323348585936" lon="11.794900983843714"><ele>128.0</ele><time>2026-04-24T16:44:04Z</time></trkpt><trkpt lat="42.233085644414295" lon="11.794943058407954"><ele>127.0</ele><time>2026-04-24T16:44:05Z</time></trkpt><trkpt lat="42.23293251217321" lon="11.795020712056425"><ele>126.0</ele><time>2026-04-24T16:44:06Z</time></trkpt><trkpt lat="42.23280521775423" lon="11.795068942631005"><ele>125.0</ele><time>2026-04-24T16:44:07Z</time></trkpt><trkpt lat="42.232656291366865" lon="11.795111039191875"><ele>124.0</ele><time>2026-04-24T16:44:08Z</time></trkpt><trkpt lat="42.23252495218687" lon="11.795154380196228"><ele>124.25</ele><time>2026-04-24T16:44:09Z</time></trkpt><trkpt lat="42.23240367454399" lon="11.795209763354212"><ele>124.5</ele><time>2026-04-24T16:44:10Z</time></trkpt><trkpt lat="42.23228315706579" lon="11.795248806324746"><ele>124.75</ele><time>2026-04-24T16:44:11Z</time></trkpt><trkpt lat="42.23217394549961" lon="11.795285521046493"><ele>125.0</ele><time>2026-04-24T16:44:11.999Z</time></trkpt><trkpt lat="42.23205532035652" lon="11.795337840315373"><ele>124.5</ele><time>2026-04-24T16:44:12.999Z</time></trkpt><trkpt lat="42.23194317406914" lon="11.795397409757497"><ele>124.0</ele><time>2026-04-24T16:44:13.999Z</time></trkpt><trkpt lat="42.23181045673762" lon="11.795480812349403"><ele>123.5</ele><time>2026-04-24T16:44:14.999Z</time></trkpt><trkpt lat="42.23166212810139" lon="11.795590345833208"><ele>123.0</ele><time>2026-04-24T16:44:15.999Z</time></trkpt><trkpt lat="42.23151226818631" lon="11.795713338925434"><ele>122.0</ele><time>2026-04-24T16:44:16.999Z</time></trkpt><trkpt lat="42.23135907497577" lon="11.795843985301977"><ele>121.0</ele><time>2026-04-24T16:44:17.999Z</time></trkpt><trkpt lat="42.231216460935855" lon="11.795985361816287"><ele>120.0</ele><time>2026-04-24T16:44:18.999Z</time></trkpt><trkpt lat="42.23109213347087" lon="11.796108993682253"><ele>120.0</ele><time>2026-04-24T16:44:19.999Z</time></trkpt><trkpt lat="42.23094932628465" lon="11.79623768900199"><ele>120.0</ele><time>2026-04-24T16:44:20.999Z</time></trkpt><trkpt lat="42.230805982076355" lon="11.796358641382334"><ele>120.0</ele><time>2026-04-24T16:44:21.999Z</time></trkpt><trkpt lat="42.23068712091522" lon="11.796481921583762"><ele>118.66666666666666</ele><time>2026-04-24T16:44:22.999Z</time></trkpt><trkpt lat="42.230547089990004" lon="11.79659299209489"><ele>117.33333333333333</ele><time>2026-04-24T16:44:23.999Z</time></trkpt><trkpt lat="42.23042525394036" lon="11.796710439926859"><ele>116.0</ele><time>2026-04-24T16:44:24.999Z</time></trkpt><trkpt lat="42.23030197349154" lon="11.796830853974027"><ele>115.75</ele><time>2026-04-24T16:44:25.999Z</time></trkpt><trkpt lat="42.23016688135018" lon="11.796935029784565"><ele>115.5</ele><time>2026-04-24T16:44:26.999Z</time></trkpt><trkpt lat="42.23004753235994" lon="11.797048019952692"><ele>115.25</ele><time>2026-04-24T16:44:27.999Z</time></trkpt><trkpt lat="42.229938743428235" lon="11.79716773754299"><ele>115.0</ele><time>2026-04-24T16:44:28.999Z</time></trkpt><trkpt lat="42.229805760955536" lon="11.797278540444541"><ele>115.0</ele><time>2026-04-24T16:44:29.999Z</time></trkpt><trkpt lat="42.22965823002587" lon="11.797379014361667"><ele>115.0</ele><time>2026-04-24T16:44:30.999Z</time></trkpt><trkpt lat="42.22953388627674" lon="11.79746369971387"><ele>115.0</ele><time>2026-04-24T16:44:31.999Z</time></trkpt><trkpt lat="42.229419471921844" lon="11.797544690020043"><ele>115.0</ele><time>2026-04-24T16:44:33Z</time></trkpt><trkpt lat="42.229297094413056" lon="11.797610581131028"><ele>115.75</ele><time>2026-04-24T16:44:34Z</time></trkpt><trkpt lat="42.229174359698476" lon="11.797694687110267"><ele>116.5</ele><time>2026-04-24T16:44:35Z</time></trkpt><trkpt lat="42.22904204621299" lon="11.797747232145834"><ele>117.25</ele><time>2026-04-24T16:44:36Z</time></trkpt><trkpt lat="42.228939581293574" lon="11.797774634317117"><ele>118.0</ele><time>2026-04-24T16:44:37Z</time></trkpt><trkpt lat="42.22884327640466" lon="11.797777177348697"><ele>118.0</ele><time>2026-04-24T16:44:38Z</time></trkpt><trkpt lat="42.22875788129374" lon="11.797766534604692"><ele>118.0</ele><time>2026-04-24T16:44:39Z</time></trkpt><trkpt lat="42.2286225041745" lon="11.797719859971298"><ele>118.0</ele><time>2026-04-24T16:44:40Z</time></trkpt><trkpt lat="42.228490852810765" lon="11.797674453861847"><ele>118.0</ele><time>2026-04-24T16:44:41Z</time></trkpt><trkpt lat="42.22835730623743" lon="11.797629845976394"><ele>117.0</ele><time>2026-04-24T16:44:42Z</time></trkpt><trkpt lat="42.228220658961334" lon="11.797582934989995"><ele>116.0</ele><time>2026-04-24T16:44:43Z</time></trkpt><trkpt lat="42.228077942318485" lon="11.797526116957739"><ele>115.0</ele><time>2026-04-24T16:44:44Z</time></trkpt><trkpt lat="42.22792435003926" lon="11.797448037871405"><ele>115.0</ele><time>2026-04-24T16:44:45Z</time></trkpt><trkpt lat="42.227768203519084" lon="11.797357887129099"><ele>115.0</ele><time>2026-04-24T16:44:46Z</time></trkpt><trkpt lat="42.22761324734796" lon="11.797269174383135"><ele>115.0</ele><time>2026-04-24T16:44:47Z</time></trkpt><trkpt lat="42.22746867180181" lon="11.797186361282465"><ele>115.0</ele><time>2026-04-24T16:44:48Z</time></trkpt><trkpt lat="42.22732967985212" lon="11.797084959764568"><ele>115.0</ele><time>2026-04-24T16:44:49Z</time></trkpt><trkpt lat="42.22719092897735" lon="11.796984591636617"><ele>115.0</ele><time>2026-04-24T16:44:50Z</time></trkpt><trkpt lat="42.227054776129116" lon="11.79687561862599"><ele>114.33333333333334</ele><time>2026-04-24T16:44:51Z</time></trkpt><trkpt lat="42.22692709477066" lon="11.796770235465539"><ele>113.66666666666666</ele><time>2026-04-24T16:44:52Z</time></trkpt><trkpt lat="42.22678863801171" lon="11.796668768574827"><ele>113.0</ele><time>2026-04-24T16:44:53Z</time></trkpt><trkpt lat="42.22664905521628" lon="11.796546235716212"><ele>113.0</ele><time>2026-04-24T16:44:54Z</time></trkpt><trkpt lat="42.226528896235614" lon="11.796443274452516"><ele>113.0</ele><time>2026-04-24T16:44:55Z</time></trkpt><trkpt lat="42.226398712648724" lon="11.796313361717134"><ele>113.0</ele><time>2026-04-24T16:44:56Z</time></trkpt><trkpt lat="42.22627661633445" lon="11.796187180738514"><ele>112.33333333333333</ele><time>2026-04-24T16:44:57Z</time></trkpt><trkpt lat="42.22614509560099" lon="11.796073680318182"><ele>111.66666666666666</ele><time>2026-04-24T16:44:58Z</time></trkpt><trkpt lat="42.22602345476949" lon="11.795958226778083"><ele>111.0</ele><time>2026-04-24T16:44:59Z</time></trkpt><trkpt lat="42.225907194174944" lon="11.795830339741391"><ele>111.0</ele><time>2026-04-24T16:45:00Z</time></trkpt><trkpt lat="42.225791486013605" lon="11.795716458544375"><ele>111.0</ele><time>2026-04-24T16:45:01Z</time></trkpt><trkpt lat="42.2256824127668" lon="11.795606262837804"><ele>111.0</ele><time>2026-04-24T16:45:02Z</time></trkpt><trkpt lat="42.22558247953999" lon="11.795510162568753"><ele>111.0</ele><time>2026-04-24T16:45:03Z</time></trkpt><trkpt lat="42.2254825823733" lon="11.795393518048034"><ele>110.5</ele><time>2026-04-24T16:45:04Z</time></trkpt><trkpt lat="42.2253901019547" lon="11.795275967366893"><ele>110.0</ele><time>2026-04-24T16:45:05Z</time></trkpt><trkpt lat="42.22529888940427" lon="11.795130475760983"><ele>109.5</ele><time>2026-04-24T16:45:06Z</time></trkpt><trkpt lat="42.225214916417514" lon="11.794980832239393"><ele>109.0</ele><time>2026-04-24T16:45:07Z</time></trkpt><trkpt lat="42.225141701279995" lon="11.794806896952636"><ele>108.66666666666667</ele><time>2026-04-24T16:45:08Z</time></trkpt><trkpt lat="42.22506892392252" lon="11.794618167319241"><ele>108.33333333333334</ele><time>2026-04-24T16:45:09Z</time></trkpt><trkpt lat="42.224997574400895" lon="11.79442718425065"><ele>108.0</ele><time>2026-04-24T16:45:10Z</time></trkpt><trkpt lat="42.22493269200828" lon="11.794234883165583"><ele>107.75</ele><time>2026-04-24T16:45:11Z</time></trkpt><trkpt lat="42.22486544937045" lon="11.79404812941911"><ele>107.5</ele><time>2026-04-24T16:45:12Z</time></trkpt><trkpt lat="42.22480368059898" lon="11.793876822798754"><ele>107.25</ele><time>2026-04-24T16:45:13Z</time></trkpt><trkpt lat="42.224750072285985" lon="11.793720297124606"><ele>107.0</ele><time>2026-04-24T16:45:14Z</time></trkpt><trkpt lat="42.22469000480532" lon="11.793565273441958"><ele>107.0</ele><time>2026-04-24T16:45:15Z</time></trkpt><trkpt lat="42.22463688065291" lon="11.793410558741591"><ele>107.0</ele><time>2026-04-24T16:45:16Z</time></trkpt><trkpt lat="42.224578918848714" lon="11.793255545305117"><ele>107.0</ele><time>2026-04-24T16:45:17Z</time></trkpt><trkpt lat="42.22452595891675" lon="11.793092514699536"><ele>107.0</ele><time>2026-04-24T16:45:18Z</time></trkpt><trkpt lat="42.22448606734217" lon="11.792916635952226"><ele>107.0</ele><time>2026-04-24T16:45:19Z</time></trkpt><trkpt lat="42.224451573225934" lon="11.792747148483393"><ele>107.0</ele><time>2026-04-24T16:45:20Z</time></trkpt><trkpt lat="42.224423768451516" lon="11.792582665647593"><ele>107.0</ele><time>2026-04-24T16:45:21Z</time></trkpt><trkpt lat="42.2244026054297" lon="11.79241391271698"><ele>107.0</ele><time>2026-04-24T16:45:22Z</time></trkpt><trkpt lat="42.22438769548753" lon="11.792252785972078"><ele>106.5</ele><time>2026-04-24T16:45:23Z</time></trkpt><trkpt lat="42.22436882248246" lon="11.792089419699753"><ele>106.0</ele><time>2026-04-24T16:45:24Z</time></trkpt><trkpt lat="42.224356474256844" lon="11.791912620002172"><ele>105.5</ele><time>2026-04-24T16:45:25Z</time></trkpt><trkpt lat="42.224331291169904" lon="11.791772101584028"><ele>105.0</ele><time>2026-04-24T16:45:26Z</time></trkpt><trkpt lat="42.22430506544" lon="11.79163348857468"><ele>104.25</ele><time>2026-04-24T16:45:27Z</time></trkpt><trkpt lat="42.224272005696704" lon="11.791484136471471"><ele>103.5</ele><time>2026-04-24T16:45:28Z</time></trkpt><trkpt lat="42.22424192498942" lon="11.79132184836781"><ele>102.75</ele><time>2026-04-24T16:45:29Z</time></trkpt><trkpt lat="42.22418961480857" lon="11.791157597033557"><ele>102.0</ele><time>2026-04-24T16:45:30Z</time></trkpt><trkpt lat="42.22411496015143" lon="11.791007724046594"><ele>101.5</ele><time>2026-04-24T16:45:31Z</time></trkpt><trkpt lat="42.22404592680093" lon="11.790838623373045"><ele>101.0</ele><time>2026-04-24T16:45:32Z</time></trkpt><trkpt lat="42.223972045470354" lon="11.790665391076645"><ele>100.5</ele><time>2026-04-24T16:45:33Z</time></trkpt><trkpt lat="42.223905284380706" lon="11.790505469815168"><ele>100.0</ele><time>2026-04-24T16:45:34Z</time></trkpt><trkpt lat="42.223837353584315" lon="11.790355693943818"><ele>99.75</ele><time>2026-04-24T16:45:35Z</time></trkpt><trkpt lat="42.22376771358069" lon="11.790202734247949"><ele>99.5</ele><time>2026-04-24T16:45:36Z</time></trkpt><trkpt lat="42.22369923363757" lon="11.790052322523623"><ele>99.25</ele><time>2026-04-24T16:45:37Z</time></trkpt><trkpt lat="42.22361954559244" lon="11.78992002089627"><ele>99.0</ele><time>2026-04-24T16:45:38Z</time></trkpt><trkpt lat="42.22356585096688" lon="11.789758503212033"><ele>98.25</ele><time>2026-04-24T16:45:39Z</time></trkpt><trkpt lat="42.22350692034464" lon="11.789626624129976"><ele>97.5</ele><time>2026-04-24T16:45:40Z</time></trkpt><trkpt lat="42.22345282701724" lon="11.789500833627718"><ele>96.75</ele><time>2026-04-24T16:45:41Z</time></trkpt><trkpt lat="42.223396617601544" lon="11.789361222445265"><ele>96.0</ele><time>2026-04-24T16:45:42Z</time></trkpt><trkpt lat="42.22334589112264" lon="11.789203880778294"><ele>95.0</ele><time>2026-04-24T16:45:43Z</time></trkpt><trkpt lat="42.22330571307895" lon="11.789030729592334"><ele>94.0</ele><time>2026-04-24T16:45:44Z</time></trkpt><trkpt lat="42.22327377096006" lon="11.788840291922071"><ele>93.0</ele><time>2026-04-24T16:45:45Z</time></trkpt><trkpt lat="42.22325052555984" lon="11.788666373974445"><ele>92.0</ele><time>2026-04-24T16:45:46Z</time></trkpt><trkpt lat="42.223228632507585" lon="11.788482134802113"><ele>90.75</ele><time>2026-04-24T16:45:47Z</time></trkpt><trkpt lat="42.223207938767864" lon="11.788308480845313"><ele>89.5</ele><time>2026-04-24T16:45:48Z</time></trkpt><trkpt lat="42.223188397365554" lon="11.788148403552452"><ele>88.25</ele><time>2026-04-24T16:45:49Z</time></trkpt><trkpt lat="42.223170350615376" lon="11.788000569967352"><ele>87.0</ele><time>2026-04-24T16:45:50Z</time></trkpt><trkpt lat="42.22313608607909" lon="11.787854425570025"><ele>86.6</ele><time>2026-04-24T16:45:51Z</time></trkpt><trkpt lat="42.2231326500631" lon="11.787696904121729"><ele>86.19999999999999</ele><time>2026-04-24T16:45:52Z</time></trkpt><trkpt lat="42.22310701306666" lon="11.78753560479621"><ele>85.8</ele><time>2026-04-24T16:45:53Z</time></trkpt><trkpt lat="42.223075328066194" lon="11.787417288218133"><ele>85.4</ele><time>2026-04-24T16:45:54Z</time></trkpt><trkpt lat="42.223022981411866" lon="11.787277711061213"><ele>85.0</ele><time>2026-04-24T16:45:55Z</time></trkpt><trkpt lat="42.222966555784865" lon="11.787160484105158"><ele>84.6</ele><time>2026-04-24T16:45:56Z</time></trkpt><trkpt lat="42.22291197042637" lon="11.787011838806468"><ele>84.2</ele><time>2026-04-24T16:45:57Z</time></trkpt><trkpt lat="42.22284791983899" lon="11.786885980483579"><ele>83.80000000000001</ele><time>2026-04-24T16:45:58Z</time></trkpt><trkpt lat="42.22276938220373" lon="11.786800906578614"><ele>83.4</ele><time>2026-04-24T16:45:59Z</time></trkpt><trkpt lat="42.22271211969561" lon="11.786693752985496"><ele>83.0</ele><time>2026-04-24T16:46:00Z</time></trkpt><trkpt lat="42.22263958326533" lon="11.786548508560884"><ele>81.25</ele><time>2026-04-24T16:46:01Z</time></trkpt><trkpt lat="42.22255589680207" lon="11.786426271874268"><ele>79.5</ele><time>2026-04-24T16:46:02Z</time></trkpt><trkpt lat="42.22245955281763" lon="11.786343404389692"><ele>77.75</ele><time>2026-04-24T16:46:03Z</time></trkpt><trkpt lat="42.22235169100227" lon="11.786256907586715"><ele>76.0</ele><time>2026-04-24T16:46:04Z</time></trkpt><trkpt lat="42.22223367841262" lon="11.786187503278597"><ele>75.0</ele><time>2026-04-24T16:46:05Z</time></trkpt><trkpt lat="42.22210895393313" lon="11.786104529616276"><ele>74.0</ele><time>2026-04-24T16:46:06Z</time></trkpt><trkpt lat="42.22197333219249" lon="11.786034092459591"><ele>73.0</ele><time>2026-04-24T16:46:07Z</time></trkpt><trkpt lat="42.22180600915428" lon="11.78595938035926"><ele>71.33333333333333</ele><time>2026-04-24T16:46:08Z</time></trkpt><trkpt lat="42.22163890694473" lon="11.785884247089916"><ele>69.66666666666667</ele><time>2026-04-24T16:46:09Z</time></trkpt><trkpt lat="42.22147068868992" lon="11.78575491751883"><ele>68.0</ele><time>2026-04-24T16:46:10Z</time></trkpt><trkpt lat="42.22130954535036" lon="11.785673163046804"><ele>66.66666666666667</ele><time>2026-04-24T16:46:11Z</time></trkpt><trkpt lat="42.22114869611783" lon="11.78559118396218"><ele>65.33333333333333</ele><time>2026-04-24T16:46:12Z</time></trkpt><trkpt lat="42.22098845867552" lon="11.785515650274336"><ele>64.0</ele><time>2026-04-24T16:46:13Z</time></trkpt><trkpt lat="42.22083063407613" lon="11.785436104821748"><ele>64.0</ele><time>2026-04-24T16:46:14Z</time></trkpt><trkpt lat="42.2206610680069" lon="11.78536123585021"><ele>64.0</ele><time>2026-04-24T16:46:15Z</time></trkpt><trkpt lat="42.22050727395218" lon="11.785278809845368"><ele>64.0</ele><time>2026-04-24T16:46:16Z</time></trkpt><trkpt lat="42.22035604825372" lon="11.785207442502179"><ele>61.666666666666664</ele><time>2026-04-24T16:46:17Z</time></trkpt><trkpt lat="42.22021089441912" lon="11.785130880913997"><ele>59.33333333333333</ele><time>2026-04-24T16:46:18Z</time></trkpt><trkpt lat="42.22006859289051" lon="11.785062412505468"><ele>57.0</ele><time>2026-04-24T16:46:19Z</time></trkpt><trkpt lat="42.21991701387083" lon="11.784977098205873"><ele>57.33333333333333</ele><time>2026-04-24T16:46:19.999Z</time></trkpt><trkpt lat="42.21977072376509" lon="11.784904814169884"><ele>57.666666666666664</ele><time>2026-04-24T16:46:20.999Z</time></trkpt><trkpt lat="42.21962162877135" lon="11.784828005628848"><ele>58.0</ele><time>2026-04-24T16:46:21.999Z</time></trkpt><trkpt lat="42.21946271790518" lon="11.78474237281793"><ele>58.0</ele><time>2026-04-24T16:46:22.999Z</time></trkpt><trkpt lat="42.219306785719446" lon="11.784657227852849"><ele>58.0</ele><time>2026-04-24T16:46:23.999Z</time></trkpt><trkpt lat="42.219159306640435" lon="11.78458986428883"><ele>58.0</ele><time>2026-04-24T16:46:24.999Z</time></trkpt><trkpt lat="42.21901963203437" lon="11.78453540042857"><ele>57.33333333333333</ele><time>2026-04-24T16:46:25.999Z</time></trkpt><trkpt lat="42.21886077804995" lon="11.784451862379186"><ele>56.66666666666667</ele><time>2026-04-24T16:46:26.999Z</time></trkpt><trkpt lat="42.21870379499531" lon="11.784351004503984"><ele>56.0</ele><time>2026-04-24T16:46:27.999Z</time></trkpt><trkpt lat="42.21854497755975" lon="11.784280870992422"><ele>55.0</ele><time>2026-04-24T16:46:28.999Z</time></trkpt><trkpt lat="42.21839242974019" lon="11.784209391699491"><ele>54.0</ele><time>2026-04-24T16:46:29.999Z</time></trkpt><trkpt lat="42.21824188084103" lon="11.784126927628275"><ele>53.0</ele><time>2026-04-24T16:46:30.999Z</time></trkpt><trkpt lat="42.218088753651685" lon="11.784035308476392"><ele>52.333333333333336</ele><time>2026-04-24T16:46:31.999Z</time></trkpt><trkpt lat="42.2179427401685" lon="11.783955346308778"><ele>51.66666666666667</ele><time>2026-04-24T16:46:32.999Z</time></trkpt><trkpt lat="42.21778909498221" lon="11.783867686884427"><ele>51.0</ele><time>2026-04-24T16:46:33.999Z</time></trkpt><trkpt lat="42.21763602675207" lon="11.78377123019879"><ele>51.0</ele><time>2026-04-24T16:46:34.999Z</time></trkpt><trkpt lat="42.21747924012827" lon="11.783683805381973"><ele>51.0</ele><time>2026-04-24T16:46:35.999Z</time></trkpt><trkpt lat="42.217313959967335" lon="11.783590651134878"><ele>51.0</ele><time>2026-04-24T16:46:36.999Z</time></trkpt><trkpt lat="42.217156962442054" lon="11.783523251439474"><ele>49.333333333333336</ele><time>2026-04-24T16:46:37.999Z</time></trkpt><trkpt lat="42.21697884931335" lon="11.783424984027352"><ele>47.66666666666667</ele><time>2026-04-24T16:46:39Z</time></trkpt><trkpt lat="42.21677713416594" lon="11.78332742694112"><ele>46.0</ele><time>2026-04-24T16:46:40Z</time></trkpt><trkpt lat="42.21659461620877" lon="11.783237693099368"><ele>45.66666666666667</ele><time>2026-04-24T16:46:41Z</time></trkpt><trkpt lat="42.216421721549736" lon="11.783162355168571"><ele>45.333333333333336</ele><time>2026-04-24T16:46:42Z</time></trkpt><trkpt lat="42.21625926381506" lon="11.783088467361031"><ele>45.0</ele><time>2026-04-24T16:46:43Z</time></trkpt><trkpt lat="42.21609329075829" lon="11.782984936735739"><ele>45.0</ele><time>2026-04-24T16:46:44Z</time></trkpt><trkpt lat="42.215935229114365" lon="11.782902704520003"><ele>45.0</ele><time>2026-04-24T16:46:45Z</time></trkpt><trkpt lat="42.21578575624134" lon="11.78282454210627"><ele>45.0</ele><time>2026-04-24T16:46:46Z</time></trkpt><trkpt lat="42.215644996122016" lon="11.782740703375408"><ele>44.333333333333336</ele><time>2026-04-24T16:46:47Z</time></trkpt><trkpt lat="42.21550694405927" lon="11.78267720772951"><ele>43.66666666666667</ele><time>2026-04-24T16:46:48Z</time></trkpt><trkpt lat="42.21535911044551" lon="11.782587951937707"><ele>43.0</ele><time>2026-04-24T16:46:49Z</time></trkpt><trkpt lat="42.215216206989936" lon="11.782509806017417"><ele>43.0</ele><time>2026-04-24T16:46:50Z</time></trkpt><trkpt lat="42.21507427951557" lon="11.782443847832504"><ele>43.0</ele><time>2026-04-24T16:46:51Z</time></trkpt><trkpt lat="42.21493935215736" lon="11.782350713983224"><ele>43.0</ele><time>2026-04-24T16:46:52Z</time></trkpt><trkpt lat="42.214801098251506" lon="11.782294807181358"><ele>43.0</ele><time>2026-04-24T16:46:53Z</time></trkpt><trkpt lat="42.214671542308096" lon="11.782241548993733"><ele>43.0</ele><time>2026-04-24T16:46:54Z</time></trkpt><trkpt lat="42.214541070922905" lon="11.782189184247573"><ele>43.0</ele><time>2026-04-24T16:46:55Z</time></trkpt><trkpt lat="42.2144346860351" lon="11.782172605390684"><ele>43.0</ele><time>2026-04-24T16:46:56Z</time></trkpt><trkpt lat="42.21433176252373" lon="11.782124605509098"><ele>43.0</ele><time>2026-04-24T16:46:57Z</time></trkpt><trkpt lat="42.214219054723124" lon="11.782099719075566"><ele>43.0</ele><time>2026-04-24T16:46:58Z</time></trkpt><trkpt lat="42.21411702589107" lon="11.78207487197436"><ele>43.0</ele><time>2026-04-24T16:46:59Z</time></trkpt><trkpt lat="42.214027969535195" lon="11.7820562126947"><ele>43.0</ele><time>2026-04-24T16:47:00Z</time></trkpt><trkpt lat="42.21394449641388" lon="11.782039481766605"><ele>43.0</ele><time>2026-04-24T16:47:01Z</time></trkpt><trkpt lat="42.21387137928401" lon="11.782024711050612"><ele>43.0</ele><time>2026-04-24T16:47:02Z</time></trkpt><trkpt lat="42.21375918969545" lon="11.78196572155681"><ele>42.8</ele><time>2026-04-24T16:47:04Z</time></trkpt><trkpt lat="42.213698607988476" lon="11.781933455181587"><ele>42.599999999999994</ele><time>2026-04-24T16:47:05Z</time></trkpt><trkpt lat="42.2136457564362" lon="11.78182664582995"><ele>42.400000000000006</ele><time>2026-04-24T16:47:06Z</time></trkpt><trkpt lat="42.21356019886692" lon="11.781758021560536"><ele>42.2</ele><time>2026-04-24T16:47:07Z</time></trkpt><trkpt lat="42.213453397754705" lon="11.781728126535763"><ele>42.0</ele><time>2026-04-24T16:47:08Z</time></trkpt><trkpt lat="42.213348853378086" lon="11.781669265673779"><ele>42.0</ele><time>2026-04-24T16:47:09Z</time></trkpt><trkpt lat="42.213237257397694" lon="11.781600197487876"><ele>42.0</ele><time>2026-04-24T16:47:10Z</time></trkpt><trkpt lat="42.21312417847102" lon="11.78151419014586"><ele>42.0</ele><time>2026-04-24T16:47:11Z</time></trkpt><trkpt lat="42.213000494163325" lon="11.781405928800902"><ele>42.0</ele><time>2026-04-24T16:47:12Z</time></trkpt><trkpt lat="42.212853085402465" lon="11.781272271119064"><ele>41.333333333333336</ele><time>2026-04-24T16:47:13Z</time></trkpt><trkpt lat="42.21269939242208" lon="11.78114513996287"><ele>40.66666666666667</ele><time>2026-04-24T16:47:14Z</time></trkpt><trkpt lat="42.21255325206653" lon="11.781005735967927"><ele>40.0</ele><time>2026-04-24T16:47:15Z</time></trkpt><trkpt lat="42.2124007620788" lon="11.780872742876324"><ele>39.333333333333336</ele><time>2026-04-24T16:47:16Z</time></trkpt><trkpt lat="42.21227801773255" lon="11.780753897192518"><ele>38.666666666666664</ele><time>2026-04-24T16:47:17Z</time></trkpt><trkpt lat="42.21216556137771" lon="11.780634851470873"><ele>38.0</ele><time>2026-04-24T16:47:18Z</time></trkpt><trkpt lat="42.21203837737957" lon="11.780505930317426"><ele>38.0</ele><time>2026-04-24T16:47:19Z</time></trkpt><trkpt lat="42.211907026647346" lon="11.780402850770578"><ele>38.0</ele><time>2026-04-24T16:47:20Z</time></trkpt><trkpt lat="42.21178960825375" lon="11.780285967923039"><ele>38.0</ele><time>2026-04-24T16:47:21Z</time></trkpt><trkpt lat="42.21167925200069" lon="11.780174470525978"><ele>38.0</ele><time>2026-04-24T16:47:22Z</time></trkpt><trkpt lat="42.21155497377336" lon="11.780055308132672"><ele>38.0</ele><time>2026-04-24T16:47:23Z</time></trkpt><trkpt lat="42.21142852747927" lon="11.77996283768219"><ele>38.0</ele><time>2026-04-24T16:47:24Z</time></trkpt><trkpt lat="42.21132482973683" lon="11.779840146035694"><ele>38.0</ele><time>2026-04-24T16:47:25Z</time></trkpt><trkpt lat="42.21121140450892" lon="11.77976127931928"><ele>38.0</ele><time>2026-04-24T16:47:26Z</time></trkpt><trkpt lat="42.21110598653649" lon="11.779668783012218"><ele>38.0</ele><time>2026-04-24T16:47:27Z</time></trkpt><trkpt lat="42.21100675553689" lon="11.779588355489008"><ele>38.0</ele><time>2026-04-24T16:47:28Z</time></trkpt><trkpt lat="42.2108997947796" lon="11.779517355196143"><ele>38.0</ele><time>2026-04-24T16:47:29Z</time></trkpt><trkpt lat="42.2107949805582" lon="11.779467445940691"><ele>38.0</ele><time>2026-04-24T16:47:30Z</time></trkpt><trkpt lat="42.21068018614393" lon="11.77943215882356"><ele>37.75</ele><time>2026-04-24T16:47:31Z</time></trkpt><trkpt lat="42.21055789392766" lon="11.779417614555397"><ele>37.5</ele><time>2026-04-24T16:47:32Z</time></trkpt><trkpt lat="42.21044044744733" lon="11.779428828582473"><ele>37.25</ele><time>2026-04-24T16:47:33Z</time></trkpt><trkpt lat="42.21031333542021" lon="11.779436220544149"><ele>37.0</ele><time>2026-04-24T16:47:34Z</time></trkpt><trkpt lat="42.210204084266934" lon="11.779504529705532"><ele>37.0</ele><time>2026-04-24T16:47:35Z</time></trkpt><trkpt lat="42.21009622623278" lon="11.77957762520965"><ele>37.0</ele><time>2026-04-24T16:47:36Z</time></trkpt><trkpt lat="42.20999762084322" lon="11.779683345535652"><ele>37.0</ele><time>2026-04-24T16:47:37Z</time></trkpt><trkpt lat="42.20991328191089" lon="11.77979992500911"><ele>37.0</ele><time>2026-04-24T16:47:38Z</time></trkpt><trkpt lat="42.20984920782591" lon="11.779923002195536"><ele>37.0</ele><time>2026-04-24T16:47:39Z</time></trkpt><trkpt lat="42.20976542462816" lon="11.78005547108095"><ele>37.0</ele><time>2026-04-24T16:47:40Z</time></trkpt><trkpt lat="42.209713824603135" lon="11.780204696566816"><ele>37.0</ele><time>2026-04-24T16:47:41Z</time></trkpt><trkpt lat="42.20968377275452" lon="11.780373730094915"><ele>37.0</ele><time>2026-04-24T16:47:42Z</time></trkpt><trkpt lat="42.20965689783566" lon="11.780565576721978"><ele>37.0</ele><time>2026-04-24T16:47:43Z</time></trkpt><trkpt lat="42.20964266873613" lon="11.780776958869989"><ele>37.0</ele><time>2026-04-24T16:47:44Z</time></trkpt><trkpt lat="42.2096399134178" lon="11.780958988875598"><ele>37.0</ele><time>2026-04-24T16:47:45Z</time></trkpt><trkpt lat="42.20962704524264" lon="11.781131969358931"><ele>37.0</ele><time>2026-04-24T16:47:46Z</time></trkpt><trkpt lat="42.20960101819383" lon="11.781311783986864"><ele>36.75</ele><time>2026-04-24T16:47:47Z</time></trkpt><trkpt lat="42.20958948775395" lon="11.781479232640372"><ele>36.5</ele><time>2026-04-24T16:47:48Z</time></trkpt><trkpt lat="42.209540509038405" lon="11.781635837264396"><ele>36.25</ele><time>2026-04-24T16:47:49Z</time></trkpt><trkpt lat="42.20947496032588" lon="11.781791269762047"><ele>36.0</ele><time>2026-04-24T16:47:50Z</time></trkpt><trkpt lat="42.20942011474555" lon="11.781924339917898"><ele>35.75</ele><time>2026-04-24T16:47:51Z</time></trkpt><trkpt lat="42.20932711804825" lon="11.782072164964378"><ele>35.5</ele><time>2026-04-24T16:47:52Z</time></trkpt><trkpt lat="42.209222437125064" lon="11.78220947275783"><ele>35.25</ele><time>2026-04-24T16:47:53Z</time></trkpt><trkpt lat="42.209106177426804" lon="11.782335619545979"><ele>35.0</ele><time>2026-04-24T16:47:54Z</time></trkpt><trkpt lat="42.20897127020624" lon="11.782462590141074"><ele>35.0</ele><time>2026-04-24T16:47:55Z</time></trkpt><trkpt lat="42.20882742243401" lon="11.782582145866034"><ele>35.0</ele><time>2026-04-24T16:47:56Z</time></trkpt><trkpt lat="42.2086699353889" lon="11.782697673293905"><ele>35.0</ele><time>2026-04-24T16:47:57Z</time></trkpt><trkpt lat="42.20850990285314" lon="11.782812041019703"><ele>35.33333333333333</ele><time>2026-04-24T16:47:58Z</time></trkpt><trkpt lat="42.208342592089245" lon="11.782928626933337"><ele>35.666666666666664</ele><time>2026-04-24T16:47:59Z</time></trkpt><trkpt lat="42.20816896758674" lon="11.783047087094443"><ele>36.0</ele><time>2026-04-24T16:48:00Z</time></trkpt><trkpt lat="42.20799531807409" lon="11.783172547026075"><ele>36.333333333333336</ele><time>2026-04-24T16:48:01Z</time></trkpt><trkpt lat="42.20780739187052" lon="11.783290891551793"><ele>36.66666666666667</ele><time>2026-04-24T16:48:02Z</time></trkpt><trkpt lat="42.207606589431656" lon="11.783413829608428"><ele>37.0</ele><time>2026-04-24T16:48:03Z</time></trkpt><trkpt lat="42.207404604400864" lon="11.783534117621734"><ele>34.5</ele><time>2026-04-24T16:48:04Z</time></trkpt><trkpt lat="42.207182229727096" lon="11.78366370763422"><ele>32.0</ele><time>2026-04-24T16:48:05Z</time></trkpt><trkpt lat="42.20697389666527" lon="11.783777070948029"><ele>32.0</ele><time>2026-04-24T16:48:06Z</time></trkpt><trkpt lat="42.20676948746298" lon="11.78388588329543"><ele>32.0</ele><time>2026-04-24T16:48:07Z</time></trkpt><trkpt lat="42.20656678880034" lon="11.783994994546113"><ele>32.0</ele><time>2026-04-24T16:48:08Z</time></trkpt><trkpt lat="42.206362845647256" lon="11.784090363008064"><ele>33.0</ele><time>2026-04-24T16:48:09Z</time></trkpt><trkpt lat="42.20616019284677" lon="11.784181849760513"><ele>34.0</ele><time>2026-04-24T16:48:10Z</time></trkpt><trkpt lat="42.20595482561415" lon="11.78426814910598"><ele>35.0</ele><time>2026-04-24T16:48:11Z</time></trkpt><trkpt lat="42.20574504877726" lon="11.784347572511875"><ele>29.666666666666664</ele><time>2026-04-24T16:48:12Z</time></trkpt><trkpt lat="42.20554127491522" lon="11.784427874906093"><ele>24.333333333333332</ele><time>2026-04-24T16:48:13Z</time></trkpt><trkpt lat="42.20532052554421" lon="11.784501957002377"><ele>19.0</ele><time>2026-04-24T16:48:14Z</time></trkpt><trkpt lat="42.205111187306215" lon="11.784579060326333"><ele>19.0</ele><time>2026-04-24T16:48:15Z</time></trkpt><trkpt lat="42.20490802936115" lon="11.78465765678238"><ele>19.0</ele><time>2026-04-24T16:48:16Z</time></trkpt><trkpt lat="42.204707729251965" lon="11.784722368656801"><ele>19.0</ele><time>2026-04-24T16:48:17Z</time></trkpt><trkpt lat="42.204503809987614" lon="11.784787148421568"><ele>19.0</ele><time>2026-04-24T16:48:18Z</time></trkpt><trkpt lat="42.20428982564023" lon="11.784845371662003"><ele>19.0</ele><time>2026-04-24T16:48:19Z</time></trkpt><trkpt lat="42.20408566852538" lon="11.78490256499154"><ele>19.0</ele><time>2026-04-24T16:48:20Z</time></trkpt><trkpt lat="42.20387569627701" lon="11.784951271188218"><ele>18.0</ele><time>2026-04-24T16:48:21Z</time></trkpt><trkpt lat="42.20366835372638" lon="11.78499719308339"><ele>17.0</ele><time>2026-04-24T16:48:22Z</time></trkpt><trkpt lat="42.20346234448856" lon="11.785046209756521"><ele>16.0</ele><time>2026-04-24T16:48:23Z</time></trkpt><trkpt lat="42.203254698791895" lon="11.785083372569211"><ele>15.0</ele><time>2026-04-24T16:48:24Z</time></trkpt><trkpt lat="42.20304659730703" lon="11.785119176857897"><ele>14.0</ele><time>2026-04-24T16:48:25Z</time></trkpt><trkpt lat="42.20283955092822" lon="11.785151799925817"><ele>13.0</ele><time>2026-04-24T16:48:26Z</time></trkpt><trkpt lat="42.20263682149836" lon="11.785184129593391"><ele>12.0</ele><time>2026-04-24T16:48:27Z</time></trkpt><trkpt lat="42.202436494313154" lon="11.78521458378739"><ele>11.0</ele><time>2026-04-24T16:48:28Z</time></trkpt><trkpt lat="42.20223488556108" lon="11.785239983188925"><ele>10.0</ele><time>2026-04-24T16:48:29Z</time></trkpt><trkpt lat="42.202032904255574" lon="11.785258633035392"><ele>9.0</ele><time>2026-04-24T16:48:29.999Z</time></trkpt><trkpt lat="42.20183516556394" lon="11.78528211774095"><ele>8.0</ele><time>2026-04-24T16:48:30.999Z</time></trkpt><trkpt lat="42.201632107743364" lon="11.785299422344487"><ele>7.0</ele><time>2026-04-24T16:48:31.999Z</time></trkpt><trkpt lat="42.20143160914333" lon="11.785322993523977"><ele>7.0</ele><time>2026-04-24T16:48:32.999Z</time></trkpt><trkpt lat="42.20122698961348" lon="11.785338838219399"><ele>7.0</ele><time>2026-04-24T16:48:33.999Z</time></trkpt><trkpt lat="42.20102884936273" lon="11.785361058964236"><ele>7.0</ele><time>2026-04-24T16:48:34.999Z</time></trkpt><trkpt lat="42.200827893345156" lon="11.785382806836878"><ele>7.333333333333334</ele><time>2026-04-24T16:48:35.999Z</time></trkpt><trkpt lat="42.2006327847911" lon="11.78540188380848"><ele>7.666666666666666</ele><time>2026-04-24T16:48:36.999Z</time></trkpt><trkpt lat="42.200434875249606" lon="11.785420552040287"><ele>8.0</ele><time>2026-04-24T16:48:37.999Z</time></trkpt><trkpt lat="42.200241376706806" lon="11.785434576582135"><ele>8.0</ele><time>2026-04-24T16:48:38.999Z</time></trkpt><trkpt lat="42.20004072879985" lon="11.785455777724696"><ele>8.0</ele><time>2026-04-24T16:48:39.999Z</time></trkpt><trkpt lat="42.199840766861406" lon="11.78547227406936"><ele>8.0</ele><time>2026-04-24T16:48:40.999Z</time></trkpt><trkpt lat="42.19964621733187" lon="11.785491843809957"><ele>7.666666666666666</ele><time>2026-04-24T16:48:41.999Z</time></trkpt><trkpt lat="42.199451037317885" lon="11.785511064533518"><ele>7.333333333333334</ele><time>2026-04-24T16:48:42.999Z</time></trkpt><trkpt lat="42.19925388698166" lon="11.785526891382041"><ele>7.0</ele><time>2026-04-24T16:48:43.999Z</time></trkpt><trkpt lat="42.199070172025166" lon="11.78554108751193"><ele>6.333333333333334</ele><time>2026-04-24T16:48:45Z</time></trkpt><trkpt lat="42.19887773712237" lon="11.785562168579363"><ele>5.666666666666667</ele><time>2026-04-24T16:48:46Z</time></trkpt><trkpt lat="42.19867730653753" lon="11.785582668137998"><ele>5.0</ele><time>2026-04-24T16:48:47Z</time></trkpt><trkpt lat="42.19848483360699" lon="11.785602289853017"><ele>5.0</ele><time>2026-04-24T16:48:48Z</time></trkpt><trkpt lat="42.198294131123575" lon="11.78562881051585"><ele>5.0</ele><time>2026-04-24T16:48:49Z</time></trkpt><trkpt lat="42.198092210913906" lon="11.785651704489368"><ele>5.0</ele><time>2026-04-24T16:48:50Z</time></trkpt><trkpt lat="42.19787641855254" lon="11.785666871767246"><ele>5.333333333333334</ele><time>2026-04-24T16:48:51Z</time></trkpt><trkpt lat="42.197669475878584" lon="11.785688503268016"><ele>5.666666666666667</ele><time>2026-04-24T16:48:52Z</time></trkpt><trkpt lat="42.197455395458164" lon="11.785708160924962"><ele>6.0</ele><time>2026-04-24T16:48:53Z</time></trkpt><trkpt lat="42.19725392121065" lon="11.785729662913228"><ele>6.0</ele><time>2026-04-24T16:48:54Z</time></trkpt><trkpt lat="42.19705295811501" lon="11.785753962052173"><ele>6.0</ele><time>2026-04-24T16:48:55Z</time></trkpt><trkpt lat="42.196855992701224" lon="11.785779524687753"><ele>6.0</ele><time>2026-04-24T16:48:56Z</time></trkpt><trkpt lat="42.19664360841899" lon="11.785794132960397"><ele>6.666666666666666</ele><time>2026-04-24T16:48:57Z</time></trkpt><trkpt lat="42.19642963641197" lon="11.785815316544264"><ele>7.333333333333333</ele><time>2026-04-24T16:48:58Z</time></trkpt><trkpt lat="42.19621836124038" lon="11.785844648993915"><ele>8.0</ele><time>2026-04-24T16:48:59Z</time></trkpt><trkpt lat="42.19599929480794" lon="11.785857199934641"><ele>8.0</ele><time>2026-04-24T16:49:00Z</time></trkpt><trkpt lat="42.19578691955875" lon="11.785882636049765"><ele>8.0</ele><time>2026-04-24T16:49:01Z</time></trkpt><trkpt lat="42.195581221484495" lon="11.785908055659455"><ele>8.0</ele><time>2026-04-24T16:49:02Z</time></trkpt><trkpt lat="42.195382788994365" lon="11.78593271126864"><ele>7.0</ele><time>2026-04-24T16:49:03Z</time></trkpt><trkpt lat="42.195183073132" lon="11.785954074424678"><ele>6.0</ele><time>2026-04-24T16:49:04Z</time></trkpt><trkpt lat="42.19496344642733" lon="11.785975150037283"><ele>5.0</ele><time>2026-04-24T16:49:05Z</time></trkpt><trkpt lat="42.19473813580229" lon="11.785994154565975"><ele>4.5</ele><time>2026-04-24T16:49:06Z</time></trkpt><trkpt lat="42.19451746135082" lon="11.786015807446054"><ele>4.0</ele><time>2026-04-24T16:49:07Z</time></trkpt><trkpt lat="42.19428512786773" lon="11.786040555296362"><ele>4.0</ele><time>2026-04-24T16:49:08Z</time></trkpt><trkpt lat="42.19404342533026" lon="11.786063000940493"><ele>4.0</ele><time>2026-04-24T16:49:09Z</time></trkpt><trkpt lat="42.19380297062912" lon="11.786084385734442"><ele>4.0</ele><time>2026-04-24T16:49:10Z</time></trkpt><trkpt lat="42.19357605900898" lon="11.786103499411102"><ele>4.0</ele><time>2026-04-24T16:49:11Z</time></trkpt><trkpt lat="42.19335715997417" lon="11.786127570232757"><ele>4.0</ele><time>2026-04-24T16:49:12Z</time></trkpt><trkpt lat="42.193135703055745" lon="11.78615012345956"><ele>4.0</ele><time>2026-04-24T16:49:13Z</time></trkpt><trkpt lat="42.19292237460017" lon="11.786169554638377"><ele>4.0</ele><time>2026-04-24T16:49:14Z</time></trkpt><trkpt lat="42.192710786003516" lon="11.786192489547004"><ele>4.0</ele><time>2026-04-24T16:49:15Z</time></trkpt><trkpt lat="42.19249258298875" lon="11.786214272338702"><ele>4.5</ele><time>2026-04-24T16:49:16Z</time></trkpt><trkpt lat="42.19225521882852" lon="11.786232619597516"><ele>5.0</ele><time>2026-04-24T16:49:17Z</time></trkpt><trkpt lat="42.19201374461585" lon="11.786254248222225"><ele>5.0</ele><time>2026-04-24T16:49:18Z</time></trkpt><trkpt lat="42.191770875724075" lon="11.78628150432154"><ele>5.0</ele><time>2026-04-24T16:49:19Z</time></trkpt><trkpt lat="42.19154188065261" lon="11.786302084970918"><ele>4.666666666666667</ele><time>2026-04-24T16:49:20Z</time></trkpt><trkpt lat="42.191318715808606" lon="11.786329398988178"><ele>4.333333333333333</ele><time>2026-04-24T16:49:21Z</time></trkpt><trkpt lat="42.191102828725604" lon="11.786351347902231"><ele>4.0</ele><time>2026-04-24T16:49:22Z</time></trkpt><trkpt lat="42.19089374342507" lon="11.786370952040574"><ele>4.0</ele><time>2026-04-24T16:49:23Z</time></trkpt><trkpt lat="42.19067720506107" lon="11.786391805393375"><ele>4.0</ele><time>2026-04-24T16:49:24Z</time></trkpt><trkpt lat="42.190470956775656" lon="11.786411802030353"><ele>4.0</ele><time>2026-04-24T16:49:25Z</time></trkpt><trkpt lat="42.190266208658876" lon="11.786435867226276"><ele>4.333333333333333</ele><time>2026-04-24T16:49:26Z</time></trkpt><trkpt lat="42.190056692459926" lon="11.786453475889914"><ele>4.666666666666667</ele><time>2026-04-24T16:49:27Z</time></trkpt><trkpt lat="42.18984825093328" lon="11.786475755118317"><ele>5.0</ele><time>2026-04-24T16:49:28Z</time></trkpt><trkpt lat="42.18962709636187" lon="11.786497264956548"><ele>6.0</ele><time>2026-04-24T16:49:29Z</time></trkpt><trkpt lat="42.189414850887275" lon="11.786518783720286"><ele>7.0</ele><time>2026-04-24T16:49:30Z</time></trkpt><trkpt lat="42.18920274995662" lon="11.786535314328969"><ele>8.0</ele><time>2026-04-24T16:49:31Z</time></trkpt><trkpt lat="42.18899614403446" lon="11.78656045843676"><ele>12.666666666666666</ele><time>2026-04-24T16:49:32Z</time></trkpt><trkpt lat="42.188793580052284" lon="11.786581809972823"><ele>17.333333333333332</ele><time>2026-04-24T16:49:33Z</time></trkpt><trkpt lat="42.18858985571668" lon="11.786603860296863"><ele>22.0</ele><time>2026-04-24T16:49:34Z</time></trkpt><trkpt lat="42.188385133488374" lon="11.786631841186058"><ele>24.0</ele><time>2026-04-24T16:49:35Z</time></trkpt><trkpt lat="42.188176497142486" lon="11.786666875025002"><ele>26.0</ele><time>2026-04-24T16:49:36Z</time></trkpt><trkpt lat="42.18796826390411" lon="11.786699442998806"><ele>28.0</ele><time>2026-04-24T16:49:37Z</time></trkpt><trkpt lat="42.187755622605636" lon="11.786743572362438"><ele>28.0</ele><time>2026-04-24T16:49:38Z</time></trkpt><trkpt lat="42.18754966191044" lon="11.786795583716511"><ele>28.0</ele><time>2026-04-24T16:49:39Z</time></trkpt><trkpt lat="42.18734697726529" lon="11.786854123843433"><ele>28.0</ele><time>2026-04-24T16:49:40Z</time></trkpt><trkpt lat="42.18714019219583" lon="11.786916093647209"><ele>30.333333333333336</ele><time>2026-04-24T16:49:41Z</time></trkpt><trkpt lat="42.18692714246396" lon="11.786986118330047"><ele>32.666666666666664</ele><time>2026-04-24T16:49:42Z</time></trkpt><trkpt lat="42.186729100727135" lon="11.787071922295777"><ele>35.0</ele><time>2026-04-24T16:49:43Z</time></trkpt><trkpt lat="42.186529862887305" lon="11.78716027320146"><ele>35.0</ele><time>2026-04-24T16:49:44Z</time></trkpt><trkpt lat="42.18632147363409" lon="11.787253869324141"><ele>35.0</ele><time>2026-04-24T16:49:45Z</time></trkpt><trkpt lat="42.18611492173591" lon="11.787351685264413"><ele>35.0</ele><time>2026-04-24T16:49:46Z</time></trkpt><trkpt lat="42.1859288886551" lon="11.787461597518716"><ele>35.0</ele><time>2026-04-24T16:49:47Z</time></trkpt><trkpt lat="42.18573581201919" lon="11.78756619558211"><ele>35.0</ele><time>2026-04-24T16:49:48Z</time></trkpt><trkpt lat="42.18554856904412" lon="11.787684862137093"><ele>35.0</ele><time>2026-04-24T16:49:49Z</time></trkpt><trkpt lat="42.185364062441614" lon="11.787795053786592"><ele>36.33333333333333</ele><time>2026-04-24T16:49:50Z</time></trkpt><trkpt lat="42.185186236942116" lon="11.78791314558947"><ele>37.666666666666664</ele><time>2026-04-24T16:49:51Z</time></trkpt><trkpt lat="42.18501300994181" lon="11.788029542653234"><ele>39.0</ele><time>2026-04-24T16:49:52Z</time></trkpt><trkpt lat="42.18485111812871" lon="11.788151604638422"><ele>39.333333333333336</ele><time>2026-04-24T16:49:53Z</time></trkpt><trkpt lat="42.18466678104575" lon="11.788259950587115"><ele>39.66666666666667</ele><time>2026-04-24T16:49:54Z</time></trkpt><trkpt lat="42.18446885519949" lon="11.788355965870013"><ele>40.0</ele><time>2026-04-24T16:49:55Z</time></trkpt><trkpt lat="42.184286894102264" lon="11.788453773352183"><ele>40.333333333333336</ele><time>2026-04-24T16:49:56Z</time></trkpt><trkpt lat="42.18409933544298" lon="11.788553889368753"><ele>40.666666666666664</ele><time>2026-04-24T16:49:57Z</time></trkpt><trkpt lat="42.18391251414826" lon="11.788649029557519"><ele>41.0</ele><time>2026-04-24T16:49:58Z</time></trkpt><trkpt lat="42.18370419346633" lon="11.788744117749884"><ele>41.0</ele><time>2026-04-24T16:49:59Z</time></trkpt><trkpt lat="42.183500851090955" lon="11.788824439692734"><ele>41.0</ele><time>2026-04-24T16:50:00Z</time></trkpt><trkpt lat="42.183298386736226" lon="11.788900986465714"><ele>41.0</ele><time>2026-04-24T16:50:01Z</time></trkpt><trkpt lat="42.183099892855665" lon="11.78896526778137"><ele>40.33333333333333</ele><time>2026-04-24T16:50:02Z</time></trkpt><trkpt lat="42.182878338712335" lon="11.78901586258774"><ele>39.666666666666664</ele><time>2026-04-24T16:50:03Z</time></trkpt><trkpt lat="42.182673500581124" lon="11.789055161470857"><ele>39.0</ele><time>2026-04-24T16:50:04Z</time></trkpt><trkpt lat="42.18247151102766" lon="11.789080405645503"><ele>38.666666666666664</ele><time>2026-04-24T16:50:05Z</time></trkpt><trkpt lat="42.18226193425663" lon="11.789103394457738"><ele>38.33333333333333</ele><time>2026-04-24T16:50:06Z</time></trkpt><trkpt lat="42.18205350707251" lon="11.789094633417049"><ele>38.0</ele><time>2026-04-24T16:50:07Z</time></trkpt><trkpt lat="42.181835286853705" lon="11.789085078259292"><ele>38.0</ele><time>2026-04-24T16:50:08Z</time></trkpt><trkpt lat="42.18161191666133" lon="11.789058002048979"><ele>38.0</ele><time>2026-04-24T16:50:09Z</time></trkpt><trkpt lat="42.18139468221778" lon="11.789020301674633"><ele>38.0</ele><time>2026-04-24T16:50:10Z</time></trkpt><trkpt lat="42.18118061902274" lon="11.788966033582323"><ele>36.0</ele><time>2026-04-24T16:50:11Z</time></trkpt><trkpt lat="42.180962350367075" lon="11.788897305733943"><ele>34.0</ele><time>2026-04-24T16:50:12Z</time></trkpt><trkpt lat="42.180736412863006" lon="11.788820384454151"><ele>34.333333333333336</ele><time>2026-04-24T16:50:13Z</time></trkpt><trkpt lat="42.18051386359898" lon="11.788745187219467"><ele>34.666666666666664</ele><time>2026-04-24T16:50:14Z</time></trkpt><trkpt lat="42.18030780447912" lon="11.788658962795965"><ele>35.0</ele><time>2026-04-24T16:50:15Z</time></trkpt><trkpt lat="42.18009936451991" lon="11.788562070025177"><ele>35.0</ele><time>2026-04-24T16:50:16Z</time></trkpt><trkpt lat="42.17990092702513" lon="11.788461276130258"><ele>35.0</ele><time>2026-04-24T16:50:17Z</time></trkpt><trkpt lat="42.17970596637909" lon="11.788361683245835"><ele>35.0</ele><time>2026-04-24T16:50:18Z</time></trkpt><trkpt lat="42.17949606804046" lon="11.78823936853832"><ele>35.0</ele><time>2026-04-24T16:50:19Z</time></trkpt><trkpt lat="42.17930633265893" lon="11.788157596784748"><ele>35.0</ele><time>2026-04-24T16:50:20Z</time></trkpt><trkpt lat="42.17910862630603" lon="11.788066802597449"><ele>35.0</ele><time>2026-04-24T16:50:21Z</time></trkpt><trkpt lat="42.178909648907805" lon="11.787978138068926"><ele>36.666666666666664</ele><time>2026-04-24T16:50:22Z</time></trkpt><trkpt lat="42.17870628870378" lon="11.787884193911882"><ele>38.333333333333336</ele><time>2026-04-24T16:50:23Z</time></trkpt><trkpt lat="42.17850580539088" lon="11.78780259854933"><ele>40.0</ele><time>2026-04-24T16:50:24Z</time></trkpt><trkpt lat="42.1783061829377" lon="11.787729010168768"><ele>39.333333333333336</ele><time>2026-04-24T16:50:25Z</time></trkpt><trkpt lat="42.17810933638907" lon="11.787655867290626"><ele>38.666666666666664</ele><time>2026-04-24T16:50:26Z</time></trkpt><trkpt lat="42.177901727982984" lon="11.78758821341065"><ele>38.0</ele><time>2026-04-24T16:50:27Z</time></trkpt><trkpt lat="42.17769862584203" lon="11.787535445688361"><ele>38.0</ele><time>2026-04-24T16:50:28Z</time></trkpt><trkpt lat="42.1774879404047" lon="11.787492354974036"><ele>38.0</ele><time>2026-04-24T16:50:29Z</time></trkpt><trkpt lat="42.177278152988244" lon="11.78745475777777"><ele>38.0</ele><time>2026-04-24T16:50:30Z</time></trkpt><trkpt lat="42.17707146533945" lon="11.787426911845648"><ele>37.666666666666664</ele><time>2026-04-24T16:50:31Z</time></trkpt><trkpt lat="42.176870887259376" lon="11.787404038629832"><ele>37.333333333333336</ele><time>2026-04-24T16:50:32Z</time></trkpt><trkpt lat="42.176666009496124" lon="11.787394729507401"><ele>37.0</ele><time>2026-04-24T16:50:33Z</time></trkpt><trkpt lat="42.17646025466547" lon="11.787390221120877"><ele>36.66666666666667</ele><time>2026-04-24T16:50:34Z</time></trkpt><trkpt lat="42.17624306613596" lon="11.787395238009964"><ele>36.333333333333336</ele><time>2026-04-24T16:50:35Z</time></trkpt><trkpt lat="42.176019751544" lon="11.78739744174892"><ele>36.0</ele><time>2026-04-24T16:50:36Z</time></trkpt><trkpt lat="42.175796999916216" lon="11.787401701939201"><ele>35.5</ele><time>2026-04-24T16:50:37Z</time></trkpt><trkpt lat="42.17557251244683" lon="11.787408272389237"><ele>35.0</ele><time>2026-04-24T16:50:38Z</time></trkpt><trkpt lat="42.17534550569252" lon="11.787429058602344"><ele>35.0</ele><time>2026-04-24T16:50:39Z</time></trkpt><trkpt lat="42.17511055301828" lon="11.787441438227264"><ele>35.0</ele><time>2026-04-24T16:50:40Z</time></trkpt><trkpt lat="42.174886577434485" lon="11.787475003282434"><ele>34.5</ele><time>2026-04-24T16:50:41Z</time></trkpt><trkpt lat="42.17465738609167" lon="11.787502723185058"><ele>34.0</ele><time>2026-04-24T16:50:42Z</time></trkpt><trkpt lat="42.174413700470936" lon="11.787522345661886"><ele>34.0</ele><time>2026-04-24T16:50:43Z</time></trkpt><trkpt lat="42.17416970274674" lon="11.787543831614709"><ele>34.0</ele><time>2026-04-24T16:50:44Z</time></trkpt><trkpt lat="42.173934881305414" lon="11.78756135612321"><ele>34.5</ele><time>2026-04-24T16:50:45Z</time></trkpt><trkpt lat="42.17369405135731" lon="11.78757869052226"><ele>35.0</ele><time>2026-04-24T16:50:46Z</time></trkpt><trkpt lat="42.17344623712537" lon="11.787601490925788"><ele>35.0</ele><time>2026-04-24T16:50:47Z</time></trkpt><trkpt lat="42.17319944760834" lon="11.787619799523782"><ele>35.0</ele><time>2026-04-24T16:50:48Z</time></trkpt><trkpt lat="42.17294908640316" lon="11.787633721330272"><ele>34.5</ele><time>2026-04-24T16:50:49Z</time></trkpt><trkpt lat="42.17269671614694" lon="11.787662305853559"><ele>34.0</ele><time>2026-04-24T16:50:50Z</time></trkpt><trkpt lat="42.17242986930764" lon="11.787684866005073"><ele>35.0</ele><time>2026-04-24T16:50:51Z</time></trkpt><trkpt lat="42.172160315145305" lon="11.78771518645663"><ele>36.0</ele><time>2026-04-24T16:50:52Z</time></trkpt><trkpt lat="42.17191235404418" lon="11.787734600893021"><ele>36.0</ele><time>2026-04-24T16:50:53Z</time></trkpt><trkpt lat="42.17166991412441" lon="11.787762362600617"><ele>36.0</ele><time>2026-04-24T16:50:54Z</time></trkpt><trkpt lat="42.17143414527137" lon="11.787791214565852"><ele>35.0</ele><time>2026-04-24T16:50:55Z</time></trkpt><trkpt lat="42.17118856745643" lon="11.787812536975666"><ele>34.0</ele><time>2026-04-24T16:50:56Z</time></trkpt><trkpt lat="42.170952443857615" lon="11.787837032426928"><ele>34.0</ele><time>2026-04-24T16:50:57Z</time></trkpt><trkpt lat="42.170719291606474" lon="11.787861171286922"><ele>34.0</ele><time>2026-04-24T16:50:58Z</time></trkpt><trkpt lat="42.170489454659325" lon="11.787885743800242"><ele>34.0</ele><time>2026-04-24T16:50:59Z</time></trkpt><trkpt lat="42.17026036823539" lon="11.7878994834491"><ele>34.0</ele><time>2026-04-24T16:51:00Z</time></trkpt><trkpt lat="42.17004192350073" lon="11.787915829325668"><ele>34.0</ele><time>2026-04-24T16:51:01Z</time></trkpt><trkpt lat="42.16981692093738" lon="11.787939562778018"><ele>33.66666666666667</ele><time>2026-04-24T16:51:02Z</time></trkpt><trkpt lat="42.16959575673827" lon="11.787958735182412"><ele>33.333333333333336</ele><time>2026-04-24T16:51:03Z</time></trkpt><trkpt lat="42.1693695859149" lon="11.787982511641648"><ele>33.0</ele><time>2026-04-24T16:51:04Z</time></trkpt><trkpt lat="42.169141421390506" lon="11.788002196536825"><ele>34.0</ele><time>2026-04-24T16:51:05Z</time></trkpt><trkpt lat="42.16891446608579" lon="11.7880205222492"><ele>35.0</ele><time>2026-04-24T16:51:06Z</time></trkpt><trkpt lat="42.16868447638576" lon="11.788034204586118"><ele>35.0</ele><time>2026-04-24T16:51:07Z</time></trkpt><trkpt lat="42.168457551985156" lon="11.788052001893307"><ele>35.0</ele><time>2026-04-24T16:51:08Z</time></trkpt><trkpt lat="42.16823665936347" lon="11.788073949503357"><ele>35.0</ele><time>2026-04-24T16:51:09Z</time></trkpt><trkpt lat="42.16801061869323" lon="11.788090460386563"><ele>35.0</ele><time>2026-04-24T16:51:10Z</time></trkpt><trkpt lat="42.167791280001566" lon="11.78810903697778"><ele>35.0</ele><time>2026-04-24T16:51:11Z</time></trkpt><trkpt lat="42.167567600175616" lon="11.78812408926207"><ele>35.0</ele><time>2026-04-24T16:51:12Z</time></trkpt><trkpt lat="42.167341103287285" lon="11.788138985188215"><ele>35.0</ele><time>2026-04-24T16:51:13Z</time></trkpt><trkpt lat="42.167117426996604" lon="11.788160558937257"><ele>35.0</ele><time>2026-04-24T16:51:14Z</time></trkpt><trkpt lat="42.16689285572274" lon="11.788179298514539"><ele>35.0</ele><time>2026-04-24T16:51:15Z</time></trkpt><trkpt lat="42.16667474107814" lon="11.788198244654536"><ele>35.0</ele><time>2026-04-24T16:51:16Z</time></trkpt><trkpt lat="42.16645955709057" lon="11.788220515576711"><ele>35.0</ele><time>2026-04-24T16:51:17Z</time></trkpt><trkpt lat="42.166237002735585" lon="11.78824432000068"><ele>35.0</ele><time>2026-04-24T16:51:18Z</time></trkpt><trkpt lat="42.16602257261411" lon="11.788266292349128"><ele>35.0</ele><time>2026-04-24T16:51:19Z</time></trkpt><trkpt lat="42.165817233015204" lon="11.788296816374935"><ele>35.0</ele><time>2026-04-24T16:51:20Z</time></trkpt><trkpt lat="42.16561115551322" lon="11.788336672771285"><ele>35.0</ele><time>2026-04-24T16:51:21Z</time></trkpt><trkpt lat="42.165410821551255" lon="11.788387626435878"><ele>35.0</ele><time>2026-04-24T16:51:22Z</time></trkpt><trkpt lat="42.16520381517353" lon="11.788443262283666"><ele>35.0</ele><time>2026-04-24T16:51:23Z</time></trkpt><trkpt lat="42.16500339326797" lon="11.788505476597258"><ele>35.0</ele><time>2026-04-24T16:51:24Z</time></trkpt><trkpt lat="42.16480013588538" lon="11.788575884747928"><ele>35.0</ele><time>2026-04-24T16:51:25Z</time></trkpt><trkpt lat="42.16459796256799" lon="11.78864145831462"><ele>35.0</ele><time>2026-04-24T16:51:26Z</time></trkpt><trkpt lat="42.16440291295486" lon="11.788710686302604"><ele>35.0</ele><time>2026-04-24T16:51:27Z</time></trkpt><trkpt lat="42.16421830587662" lon="11.788793506068323"><ele>35.666666666666664</ele><time>2026-04-24T16:51:28Z</time></trkpt><trkpt lat="42.16402916835884" lon="11.788883722032695"><ele>36.333333333333336</ele><time>2026-04-24T16:51:29Z</time></trkpt><trkpt lat="42.16384968046698" lon="11.788978868548034"><ele>37.0</ele><time>2026-04-24T16:51:30Z</time></trkpt><trkpt lat="42.16366469871241" lon="11.789079523904567"><ele>37.0</ele><time>2026-04-24T16:51:31Z</time></trkpt><trkpt lat="42.16348366213888" lon="11.78918085257872"><ele>37.0</ele><time>2026-04-24T16:51:32Z</time></trkpt><trkpt lat="42.16331245930598" lon="11.78929419875607"><ele>37.0</ele><time>2026-04-24T16:51:33Z</time></trkpt><trkpt lat="42.16315824159948" lon="11.789427698885627"><ele>37.66666666666667</ele><time>2026-04-24T16:51:34Z</time></trkpt><trkpt lat="42.162979435843965" lon="11.789548803617095"><ele>38.333333333333336</ele><time>2026-04-24T16:51:35Z</time></trkpt><trkpt lat="42.16281040451316" lon="11.789680463483698"><ele>39.0</ele><time>2026-04-24T16:51:36Z</time></trkpt><trkpt lat="42.16263941678024" lon="11.789821412314206"><ele>39.0</ele><time>2026-04-24T16:51:37Z</time></trkpt><trkpt lat="42.162465421491625" lon="11.789976317380878"><ele>39.0</ele><time>2026-04-24T16:51:38Z</time></trkpt><trkpt lat="42.16229069759034" lon="11.790127611538384"><ele>39.0</ele><time>2026-04-24T16:51:39Z</time></trkpt><trkpt lat="42.16211669365964" lon="11.790281215023436"><ele>38.0</ele><time>2026-04-24T16:51:40Z</time></trkpt><trkpt lat="42.161950159664876" lon="11.790445144968084"><ele>37.0</ele><time>2026-04-24T16:51:41Z</time></trkpt><trkpt lat="42.16177200066462" lon="11.790608204541659"><ele>36.0</ele><time>2026-04-24T16:51:42Z</time></trkpt><trkpt lat="42.16158643860266" lon="11.790766887622281"><ele>33.666666666666664</ele><time>2026-04-24T16:51:43Z</time></trkpt><trkpt lat="42.161408806401184" lon="11.79093701124549"><ele>31.333333333333332</ele><time>2026-04-24T16:51:44Z</time></trkpt><trkpt lat="42.16123339681792" lon="11.79111284926921"><ele>29.0</ele><time>2026-04-24T16:51:45Z</time></trkpt><trkpt lat="42.16105978518886" lon="11.791275663538412"><ele>29.0</ele><time>2026-04-24T16:51:46Z</time></trkpt><trkpt lat="42.16090605678772" lon="11.791437318689033"><ele>29.0</ele><time>2026-04-24T16:51:47Z</time></trkpt><trkpt lat="42.160735124237284" lon="11.79159760026698"><ele>29.0</ele><time>2026-04-24T16:51:48Z</time></trkpt><trkpt lat="42.16057722482257" lon="11.79175397362919"><ele>28.333333333333332</ele><time>2026-04-24T16:51:49Z</time></trkpt><trkpt lat="42.160410545823154" lon="11.791907984818547"><ele>27.666666666666664</ele><time>2026-04-24T16:51:50Z</time></trkpt><trkpt lat="42.160249356822284" lon="11.792064616481937"><ele>27.0</ele><time>2026-04-24T16:51:51Z</time></trkpt><trkpt lat="42.16007793689144" lon="11.792230534472717"><ele>27.0</ele><time>2026-04-24T16:51:52Z</time></trkpt><trkpt lat="42.15992409372856" lon="11.792391538871208"><ele>27.0</ele><time>2026-04-24T16:51:53Z</time></trkpt><trkpt lat="42.159764725831224" lon="11.792547874859151"><ele>27.0</ele><time>2026-04-24T16:51:54Z</time></trkpt><trkpt lat="42.159598934437206" lon="11.792700822548024"><ele>27.333333333333336</ele><time>2026-04-24T16:51:55Z</time></trkpt><trkpt lat="42.159425768536735" lon="11.7928532606135"><ele>27.666666666666668</ele><time>2026-04-24T16:51:56Z</time></trkpt><trkpt lat="42.15926705615825" lon="11.793011636104968"><ele>28.0</ele><time>2026-04-24T16:51:57Z</time></trkpt><trkpt lat="42.15910324843665" lon="11.793176361204923"><ele>30.0</ele><time>2026-04-24T16:51:58Z</time></trkpt><trkpt lat="42.15893738323343" lon="11.793341593000376"><ele>32.0</ele><time>2026-04-24T16:51:59Z</time></trkpt><trkpt lat="42.15877219005433" lon="11.793501372932274"><ele>34.0</ele><time>2026-04-24T16:52:00Z</time></trkpt><trkpt lat="42.15860377708697" lon="11.79366124049431"><ele>34.0</ele><time>2026-04-24T16:52:01Z</time></trkpt><trkpt lat="42.15844124741403" lon="11.793813129099997"><ele>34.0</ele><time>2026-04-24T16:52:02Z</time></trkpt><trkpt lat="42.15827905232017" lon="11.793980907616355"><ele>34.0</ele><time>2026-04-24T16:52:03Z</time></trkpt><trkpt lat="42.15809336681637" lon="11.794161474689698"><ele>37.0</ele><time>2026-04-24T16:52:04Z</time></trkpt><trkpt lat="42.15789608243719" lon="11.794344396015896"><ele>40.0</ele><time>2026-04-24T16:52:05Z</time></trkpt><trkpt lat="42.157694979856366" lon="11.79453640761937"><ele>40.0</ele><time>2026-04-24T16:52:06Z</time></trkpt><trkpt lat="42.15749670947213" lon="11.794724142592855"><ele>40.0</ele><time>2026-04-24T16:52:07Z</time></trkpt><trkpt lat="42.15728403530675" lon="11.79492877860043"><ele>43.5</ele><time>2026-04-24T16:52:08Z</time></trkpt><trkpt lat="42.1570601554137" lon="11.79513935026645"><ele>47.0</ele><time>2026-04-24T16:52:09Z</time></trkpt><trkpt lat="42.15684538141745" lon="11.795336936253701"><ele>47.0</ele><time>2026-04-24T16:52:10Z</time></trkpt><trkpt lat="42.15664765324458" lon="11.795517469225773"><ele>47.0</ele><time>2026-04-24T16:52:11Z</time></trkpt><trkpt lat="42.1564585025698" lon="11.795686337670151"><ele>47.666666666666664</ele><time>2026-04-24T16:52:12Z</time></trkpt><trkpt lat="42.156282743167004" lon="11.795841136558387"><ele>48.33333333333333</ele><time>2026-04-24T16:52:13Z</time></trkpt><trkpt lat="42.15610541846334" lon="11.795998547222784"><ele>49.0</ele><time>2026-04-24T16:52:14Z</time></trkpt><trkpt lat="42.155933786787436" lon="11.796159611774407"><ele>49.0</ele><time>2026-04-24T16:52:15Z</time></trkpt><trkpt lat="42.15577300471399" lon="11.796315736979935"><ele>49.0</ele><time>2026-04-24T16:52:16Z</time></trkpt><trkpt lat="42.15560889111838" lon="11.796466837008076"><ele>49.0</ele><time>2026-04-24T16:52:17Z</time></trkpt><trkpt lat="42.15544413508608" lon="11.796623092697812"><ele>50.0</ele><time>2026-04-24T16:52:18Z</time></trkpt><trkpt lat="42.155279453313625" lon="11.796791637268736"><ele>51.0</ele><time>2026-04-24T16:52:19Z</time></trkpt><trkpt lat="42.15511860782135" lon="11.796937814061337"><ele>52.0</ele><time>2026-04-24T16:52:20Z</time></trkpt><trkpt lat="42.15495466547332" lon="11.797090361491803"><ele>52.666666666666664</ele><time>2026-04-24T16:52:21Z</time></trkpt><trkpt lat="42.15478364456074" lon="11.797250851304439"><ele>53.33333333333333</ele><time>2026-04-24T16:52:22Z</time></trkpt><trkpt lat="42.15462652431585" lon="11.79741776061576"><ele>54.0</ele><time>2026-04-24T16:52:23Z</time></trkpt><trkpt lat="42.15446367266096" lon="11.797578436042029"><ele>54.33333333333333</ele><time>2026-04-24T16:52:24Z</time></trkpt><trkpt lat="42.15429290612667" lon="11.797734087322281"><ele>54.666666666666664</ele><time>2026-04-24T16:52:25Z</time></trkpt><trkpt lat="42.15413296192795" lon="11.797888110349982"><ele>55.0</ele><time>2026-04-24T16:52:26Z</time></trkpt><trkpt lat="42.15396854841552" lon="11.798033544084614"><ele>55.666666666666664</ele><time>2026-04-24T16:52:27Z</time></trkpt><trkpt lat="42.15381708538425" lon="11.79818257846736"><ele>56.33333333333333</ele><time>2026-04-24T16:52:28Z</time></trkpt><trkpt lat="42.15366722345438" lon="11.798343944065959"><ele>57.0</ele><time>2026-04-24T16:52:29Z</time></trkpt><trkpt lat="42.1535266882859" lon="11.798501792153498"><ele>57.0</ele><time>2026-04-24T16:52:30Z</time></trkpt><trkpt lat="42.15337614398972" lon="11.798666202617559"><ele>57.0</ele><time>2026-04-24T16:52:31Z</time></trkpt><trkpt lat="42.15322438908585" lon="11.798837665634615"><ele>57.0</ele><time>2026-04-24T16:52:32Z</time></trkpt><trkpt lat="42.15307879848795" lon="11.799011890492965"><ele>57.33333333333333</ele><time>2026-04-24T16:52:33Z</time></trkpt><trkpt lat="42.15293320555445" lon="11.7991908666708"><ele>57.666666666666664</ele><time>2026-04-24T16:52:34Z</time></trkpt><trkpt lat="42.15279666203733" lon="11.799367544758748"><ele>58.0</ele><time>2026-04-24T16:52:35Z</time></trkpt><trkpt lat="42.15265611011243" lon="11.79954499825758"><ele>58.0</ele><time>2026-04-24T16:52:36Z</time></trkpt><trkpt lat="42.15252040115802" lon="11.799728724038712"><ele>58.0</ele><time>2026-04-24T16:52:37Z</time></trkpt><trkpt lat="42.15238768457264" lon="11.799913307354295"><ele>58.0</ele><time>2026-04-24T16:52:38Z</time></trkpt><trkpt lat="42.152260401281126" lon="11.800113759502763"><ele>57.666666666666664</ele><time>2026-04-24T16:52:39Z</time></trkpt><trkpt lat="42.152135339977384" lon="11.800313295924074"><ele>57.33333333333333</ele><time>2026-04-24T16:52:40Z</time></trkpt><trkpt lat="42.152013727852754" lon="11.800515261637473"><ele>57.0</ele><time>2026-04-24T16:52:41Z</time></trkpt><trkpt lat="42.1518990383936" lon="11.80071612610032"><ele>57.0</ele><time>2026-04-24T16:52:42Z</time></trkpt><trkpt lat="42.15178496289558" lon="11.800917713434858"><ele>57.0</ele><time>2026-04-24T16:52:43Z</time></trkpt><trkpt lat="42.15167420144571" lon="11.801126762604454"><ele>57.0</ele><time>2026-04-24T16:52:44Z</time></trkpt><trkpt lat="42.15156672443152" lon="11.80134152575736"><ele>57.33333333333333</ele><time>2026-04-24T16:52:45Z</time></trkpt><trkpt lat="42.15146333868613" lon="11.801557719985677"><ele>57.666666666666664</ele><time>2026-04-24T16:52:46Z</time></trkpt><trkpt lat="42.1513608653524" lon="11.8017775969452"><ele>58.0</ele><time>2026-04-24T16:52:47Z</time></trkpt><trkpt lat="42.15126420006185" lon="11.802000698517059"><ele>58.33333333333333</ele><time>2026-04-24T16:52:48Z</time></trkpt><trkpt lat="42.15116925790379" lon="11.802228301490308"><ele>58.66666666666667</ele><time>2026-04-24T16:52:49Z</time></trkpt><trkpt lat="42.15107815190575" lon="11.802461530792456"><ele>59.0</ele><time>2026-04-24T16:52:50Z</time></trkpt><trkpt lat="42.15099149262" lon="11.802690348446337"><ele>60.0</ele><time>2026-04-24T16:52:51Z</time></trkpt><trkpt lat="42.15090302927591" lon="11.802929272497305"><ele>61.0</ele><time>2026-04-24T16:52:52Z</time></trkpt><trkpt lat="42.15081449017069" lon="11.80317219377594"><ele>62.0</ele><time>2026-04-24T16:52:53Z</time></trkpt><trkpt lat="42.15072499319265" lon="11.803434545379325"><ele>62.0</ele><time>2026-04-24T16:52:54Z</time></trkpt><trkpt lat="42.150642870473234" lon="11.803709707337974"><ele>62.0</ele><time>2026-04-24T16:52:55Z</time></trkpt><trkpt lat="42.15055514869073" lon="11.803988789893651"><ele>62.0</ele><time>2026-04-24T16:52:56Z</time></trkpt><trkpt lat="42.15046762347557" lon="11.804280217447284"><ele>63.0</ele><time>2026-04-24T16:52:57Z</time></trkpt><trkpt lat="42.15037936699345" lon="11.804571714909217"><ele>64.0</ele><time>2026-04-24T16:52:58Z</time></trkpt><trkpt lat="42.15028960327888" lon="11.80486550677655"><ele>65.5</ele><time>2026-04-24T16:52:59Z</time></trkpt><trkpt lat="42.15020573401827" lon="11.805165963200901"><ele>67.0</ele><time>2026-04-24T16:53:00Z</time></trkpt><trkpt lat="42.150124942076815" lon="11.805456187851478"><ele>67.0</ele><time>2026-04-24T16:53:01Z</time></trkpt><trkpt lat="42.15004181286666" lon="11.805734456885258"><ele>67.0</ele><time>2026-04-24T16:53:02Z</time></trkpt><trkpt lat="42.14996683612447" lon="11.806004031008676"><ele>67.0</ele><time>2026-04-24T16:53:03Z</time></trkpt><trkpt lat="42.149891873728556" lon="11.806272754137838"><ele>67.0</ele><time>2026-04-24T16:53:04Z</time></trkpt><trkpt lat="42.149817983455264" lon="11.80654794368857"><ele>67.0</ele><time>2026-04-24T16:53:05Z</time></trkpt><trkpt lat="42.149738165179905" lon="11.806827288769497"><ele>67.0</ele><time>2026-04-24T16:53:06Z</time></trkpt><trkpt lat="42.14964965410491" lon="11.80710455083068"><ele>68.5</ele><time>2026-04-24T16:53:07Z</time></trkpt><trkpt lat="42.1495718560358" lon="11.807384145468484"><ele>70.0</ele><time>2026-04-24T16:53:08Z</time></trkpt><trkpt lat="42.14948352669895" lon="11.807677140824918"><ele>71.5</ele><time>2026-04-24T16:53:09Z</time></trkpt><trkpt lat="42.149399356678686" lon="11.80795639124066"><ele>73.0</ele><time>2026-04-24T16:53:10Z</time></trkpt><trkpt lat="42.14931442487422" lon="11.808242939616322"><ele>74.5</ele><time>2026-04-24T16:53:11Z</time></trkpt><trkpt lat="42.14922781738274" lon="11.808535251833035"><ele>76.0</ele><time>2026-04-24T16:53:12Z</time></trkpt><trkpt lat="42.149138215767444" lon="11.808833789281078"><ele>76.0</ele><time>2026-04-24T16:53:13Z</time></trkpt><trkpt lat="42.14904309369914" lon="11.809129856493298"><ele>76.0</ele><time>2026-04-24T16:53:14Z</time></trkpt><trkpt lat="42.148952767513705" lon="11.809441310123514"><ele>79.0</ele><time>2026-04-24T16:53:15Z</time></trkpt><trkpt lat="42.14886854943086" lon="11.809719380042738"><ele>82.0</ele><time>2026-04-24T16:53:16Z</time></trkpt><trkpt lat="42.14877933836328" lon="11.81001763045282"><ele>83.5</ele><time>2026-04-24T16:53:17Z</time></trkpt><trkpt lat="42.1486918173538" lon="11.810315167350055"><ele>85.0</ele><time>2026-04-24T16:53:18Z</time></trkpt><trkpt lat="42.14860609778887" lon="11.810590186317482"><ele>85.0</ele><time>2026-04-24T16:53:19Z</time></trkpt><trkpt lat="42.14853312548311" lon="11.810855867195157"><ele>85.0</ele><time>2026-04-24T16:53:20Z</time></trkpt><trkpt lat="42.148454530459134" lon="11.811123306405063"><ele>85.0</ele><time>2026-04-24T16:53:21Z</time></trkpt><trkpt lat="42.148377727858346" lon="11.81138031881523"><ele>86.33333333333333</ele><time>2026-04-24T16:53:22Z</time></trkpt><trkpt lat="42.14830363676544" lon="11.81163136935542"><ele>87.66666666666667</ele><time>2026-04-24T16:53:23Z</time></trkpt><trkpt lat="42.14822871974631" lon="11.811880679073793"><ele>89.0</ele><time>2026-04-24T16:53:24Z</time></trkpt><trkpt lat="42.14814941510261" lon="11.812130668404299"><ele>89.33333333333334</ele><time>2026-04-24T16:53:25Z</time></trkpt><trkpt lat="42.14806194851642" lon="11.812379094660962"><ele>89.66666666666667</ele><time>2026-04-24T16:53:26Z</time></trkpt><trkpt lat="42.147974354199434" lon="11.812616835802652"><ele>90.0</ele><time>2026-04-24T16:53:27Z</time></trkpt><trkpt lat="42.147883289689645" lon="11.81285872960402"><ele>91.66666666666667</ele><time>2026-04-24T16:53:28Z</time></trkpt><trkpt lat="42.14779377027522" lon="11.813094029204708"><ele>93.33333333333334</ele><time>2026-04-24T16:53:29Z</time></trkpt><trkpt lat="42.14769292816086" lon="11.813328353466725"><ele>95.0</ele><time>2026-04-24T16:53:30Z</time></trkpt><trkpt lat="42.147584223040646" lon="11.813564483320127"><ele>95.0</ele><time>2026-04-24T16:53:31Z</time></trkpt><trkpt lat="42.147470431216775" lon="11.813799197370907"><ele>95.0</ele><time>2026-04-24T16:53:32Z</time></trkpt><trkpt lat="42.14735594282685" lon="11.814029739316926"><ele>95.0</ele><time>2026-04-24T16:53:33Z</time></trkpt><trkpt lat="42.14722858535439" lon="11.814245255806647"><ele>96.33333333333334</ele><time>2026-04-24T16:53:34Z</time></trkpt><trkpt lat="42.14710035045657" lon="11.814467631955765"><ele>97.66666666666667</ele><time>2026-04-24T16:53:35Z</time></trkpt><trkpt lat="42.146964058912246" lon="11.814690287411661"><ele>99.0</ele><time>2026-04-24T16:53:36Z</time></trkpt><trkpt lat="42.146829910804335" lon="11.814892787506016"><ele>99.0</ele><time>2026-04-24T16:53:37Z</time></trkpt><trkpt lat="42.14669021388273" lon="11.815093452857402"><ele>99.0</ele><time>2026-04-24T16:53:38Z</time></trkpt><trkpt lat="42.14654946864771" lon="11.815294209818195"><ele>99.0</ele><time>2026-04-24T16:53:39Z</time></trkpt><trkpt lat="42.14641027713579" lon="11.815489586440172"><ele>99.0</ele><time>2026-04-24T16:53:40Z</time></trkpt><trkpt lat="42.14626905615735" lon="11.815661611995058"><ele>99.0</ele><time>2026-04-24T16:53:41Z</time></trkpt><trkpt lat="42.146120996607806" lon="11.815831439585052"><ele>99.0</ele><time>2026-04-24T16:53:42Z</time></trkpt><trkpt lat="42.145970367023835" lon="11.815992387606022"><ele>99.0</ele><time>2026-04-24T16:53:43Z</time></trkpt><trkpt lat="42.14580601741006" lon="11.816143891004293"><ele>99.0</ele><time>2026-04-24T16:53:44Z</time></trkpt><trkpt lat="42.14565871299034" lon="11.816300326592522"><ele>99.0</ele><time>2026-04-24T16:53:45Z</time></trkpt><trkpt lat="42.145503581942414" lon="11.816446005490002"><ele>98.66666666666666</ele><time>2026-04-24T16:53:46Z</time></trkpt><trkpt lat="42.14533947839426" lon="11.816590741666534"><ele>98.33333333333333</ele><time>2026-04-24T16:53:47Z</time></trkpt><trkpt lat="42.145159032260814" lon="11.816727913477033"><ele>98.0</ele><time>2026-04-24T16:53:48Z</time></trkpt><trkpt lat="42.14497179980107" lon="11.8168553350994"><ele>99.0</ele><time>2026-04-24T16:53:49Z</time></trkpt><trkpt lat="42.144783320776256" lon="11.816978207115604"><ele>100.0</ele><time>2026-04-24T16:53:50Z</time></trkpt><trkpt lat="42.14459057712823" lon="11.817096279988412"><ele>101.0</ele><time>2026-04-24T16:53:51Z</time></trkpt><trkpt lat="42.14438330071301" lon="11.817222208299938"><ele>101.0</ele><time>2026-04-24T16:53:52Z</time></trkpt><trkpt lat="42.14417482426243" lon="11.817333710087935"><ele>101.0</ele><time>2026-04-24T16:53:53Z</time></trkpt><trkpt lat="42.14398438561344" lon="11.817425716371222"><ele>101.0</ele><time>2026-04-24T16:53:54Z</time></trkpt><trkpt lat="42.143771364889794" lon="11.817521686165755"><ele>103.5</ele><time>2026-04-24T16:53:55Z</time></trkpt><trkpt lat="42.14354496771055" lon="11.817612457556658"><ele>106.0</ele><time>2026-04-24T16:53:56Z</time></trkpt><trkpt lat="42.14332386532124" lon="11.817687240094775"><ele>108.5</ele><time>2026-04-24T16:53:57Z</time></trkpt><trkpt lat="42.1431064894181" lon="11.817755753601016"><ele>111.0</ele><time>2026-04-24T16:53:58Z</time></trkpt><trkpt lat="42.14287539289702" lon="11.81782444581943"><ele>111.0</ele><time>2026-04-24T16:53:59Z</time></trkpt><trkpt lat="42.14262935621373" lon="11.817884064885407"><ele>111.0</ele><time>2026-04-24T16:54:00Z</time></trkpt><trkpt lat="42.14239157346303" lon="11.817935462118704"><ele>111.0</ele><time>2026-04-24T16:54:01Z</time></trkpt><trkpt lat="42.14216565011679" lon="11.817978881825022"><ele>111.0</ele><time>2026-04-24T16:54:02Z</time></trkpt><trkpt lat="42.14194955803276" lon="11.818020951232397"><ele>111.0</ele><time>2026-04-24T16:54:03Z</time></trkpt><trkpt lat="42.141736314536246" lon="11.818061852409437"><ele>111.0</ele><time>2026-04-24T16:54:04Z</time></trkpt><trkpt lat="42.14152733321298" lon="11.818100443090763"><ele>111.0</ele><time>2026-04-24T16:54:05Z</time></trkpt><trkpt lat="42.14131792722057" lon="11.818139770029582"><ele>111.0</ele><time>2026-04-24T16:54:06Z</time></trkpt><trkpt lat="42.141105078204276" lon="11.818179775642484"><ele>111.0</ele><time>2026-04-24T16:54:07Z</time></trkpt><trkpt lat="42.14088722107239" lon="11.818224631203437"><ele>111.0</ele><time>2026-04-24T16:54:08Z</time></trkpt><trkpt lat="42.14068070740084" lon="11.818263271346309"><ele>111.0</ele><time>2026-04-24T16:54:09Z</time></trkpt><trkpt lat="42.140482826243336" lon="11.81830166935999"><ele>113.0</ele><time>2026-04-24T16:54:10Z</time></trkpt><trkpt lat="42.14028054474954" lon="11.818334763960271"><ele>115.0</ele><time>2026-04-24T16:54:11Z</time></trkpt><trkpt lat="42.14007575290418" lon="11.818370353164878"><ele>117.0</ele><time>2026-04-24T16:54:12Z</time></trkpt><trkpt lat="42.1398729973416" lon="11.818410251198012"><ele>117.33333333333334</ele><time>2026-04-24T16:54:13Z</time></trkpt><trkpt lat="42.13966788929357" lon="11.818452522451665"><ele>117.66666666666667</ele><time>2026-04-24T16:54:14Z</time></trkpt><trkpt lat="42.13946257832113" lon="11.818494219186029"><ele>118.0</ele><time>2026-04-24T16:54:15Z</time></trkpt><trkpt lat="42.13926097434836" lon="11.81853597092411"><ele>119.0</ele><time>2026-04-24T16:54:16Z</time></trkpt><trkpt lat="42.13905751505812" lon="11.818570313330696"><ele>120.0</ele><time>2026-04-24T16:54:17Z</time></trkpt><trkpt lat="42.13885399942013" lon="11.81860730291844"><ele>121.0</ele><time>2026-04-24T16:54:18Z</time></trkpt><trkpt lat="42.138650028526015" lon="11.818646345660744"><ele>122.0</ele><time>2026-04-24T16:54:19Z</time></trkpt><trkpt lat="42.13845573380498" lon="11.818683033312462"><ele>123.0</ele><time>2026-04-24T16:54:20Z</time></trkpt><trkpt lat="42.138256453018904" lon="11.818719007877851"><ele>124.0</ele><time>2026-04-24T16:54:21Z</time></trkpt><trkpt lat="42.138054932756745" lon="11.818755197836213"><ele>125.0</ele><time>2026-04-24T16:54:22Z</time></trkpt><trkpt lat="42.137852425380466" lon="11.818790822746058"><ele>126.0</ele><time>2026-04-24T16:54:23Z</time></trkpt><trkpt lat="42.13765248961535" lon="11.81882789807394"><ele>127.0</ele><time>2026-04-24T16:54:24Z</time></trkpt><trkpt lat="42.1374552597414" lon="11.818861923580368"><ele>128.0</ele><time>2026-04-24T16:54:25Z</time></trkpt><trkpt lat="42.13725847110946" lon="11.818892894965778"><ele>129.0</ele><time>2026-04-24T16:54:26Z</time></trkpt><trkpt lat="42.137061951430674" lon="11.818932270844474"><ele>130.0</ele><time>2026-04-24T16:54:27Z</time></trkpt><trkpt lat="42.136867100561034" lon="11.818972583678537"><ele>130.0</ele><time>2026-04-24T16:54:28Z</time></trkpt><trkpt lat="42.136671292881815" lon="11.819015560234588"><ele>130.0</ele><time>2026-04-24T16:54:29Z</time></trkpt><trkpt lat="42.13647363849107" lon="11.819056072398945"><ele>130.0</ele><time>2026-04-24T16:54:30Z</time></trkpt><trkpt lat="42.136275003791326" lon="11.819098313277877"><ele>129.66666666666669</ele><time>2026-04-24T16:54:31Z</time></trkpt><trkpt lat="42.136079220398535" lon="11.819141066806717"><ele>129.33333333333334</ele><time>2026-04-24T16:54:32Z</time></trkpt><trkpt lat="42.13588599800989" lon="11.819185081763907"><ele>129.0</ele><time>2026-04-24T16:54:33Z</time></trkpt><trkpt lat="42.1356946932529" lon="11.819225451311583"><ele>128.66666666666666</ele><time>2026-04-24T16:54:34Z</time></trkpt><trkpt lat="42.13550529681513" lon="11.819280072777273"><ele>128.33333333333331</ele><time>2026-04-24T16:54:35Z</time></trkpt><trkpt lat="42.13531960163948" lon="11.81933485647519"><ele>128.0</ele><time>2026-04-24T16:54:36Z</time></trkpt><trkpt lat="42.13513828720094" lon="11.819388864763372"><ele>128.66666666666666</ele><time>2026-04-24T16:54:37Z</time></trkpt><trkpt lat="42.13495596317628" lon="11.81944565732117"><ele>129.33333333333334</ele><time>2026-04-24T16:54:38Z</time></trkpt><trkpt lat="42.13477109436173" lon="11.819523995949682"><ele>130.0</ele><time>2026-04-24T16:54:39Z</time></trkpt><trkpt lat="42.13458667932934" lon="11.8195915691915"><ele>130.0</ele><time>2026-04-24T16:54:40Z</time></trkpt><trkpt lat="42.13440671973537" lon="11.819658049517876"><ele>130.0</ele><time>2026-04-24T16:54:41Z</time></trkpt><trkpt lat="42.13422904894458" lon="11.819732689724079"><ele>130.0</ele><time>2026-04-24T16:54:42Z</time></trkpt><trkpt lat="42.134051129797555" lon="11.819814737244524"><ele>129.66666666666669</ele><time>2026-04-24T16:54:43Z</time></trkpt><trkpt lat="42.13388051565616" lon="11.819901532272064"><ele>129.33333333333334</ele><time>2026-04-24T16:54:44Z</time></trkpt><trkpt lat="42.1336947303407" lon="11.81998829493412"><ele>129.0</ele><time>2026-04-24T16:54:44.999Z</time></trkpt><trkpt lat="42.133506351061705" lon="11.820085262112071"><ele>129.66666666666666</ele><time>2026-04-24T16:54:45.999Z</time></trkpt><trkpt lat="42.13331965234244" lon="11.820179799075495"><ele>130.33333333333331</ele><time>2026-04-24T16:54:46.999Z</time></trkpt><trkpt lat="42.1331302376098" lon="11.820277003375349"><ele>131.0</ele><time>2026-04-24T16:54:47.999Z</time></trkpt><trkpt lat="42.132933058476276" lon="11.820372159309972"><ele>131.0</ele><time>2026-04-24T16:54:48.999Z</time></trkpt><trkpt lat="42.132767022679865" lon="11.820473835046803"><ele>131.0</ele><time>2026-04-24T16:54:49.999Z</time></trkpt><trkpt lat="42.13257372194889" lon="11.820565551608285"><ele>131.0</ele><time>2026-04-24T16:54:50.999Z</time></trkpt><trkpt lat="42.132365415627895" lon="11.820670205610423"><ele>129.33333333333331</ele><time>2026-04-24T16:54:51.999Z</time></trkpt><trkpt lat="42.132173313736864" lon="11.820771155871071"><ele>127.66666666666666</ele><time>2026-04-24T16:54:52.999Z</time></trkpt><trkpt lat="42.131987186053905" lon="11.820870387078068"><ele>126.0</ele><time>2026-04-24T16:54:53.999Z</time></trkpt><trkpt lat="42.131800547313965" lon="11.820964328331321"><ele>125.0</ele><time>2026-04-24T16:54:54.999Z</time></trkpt><trkpt lat="42.13161326200396" lon="11.821059130343654"><ele>124.0</ele><time>2026-04-24T16:54:55.999Z</time></trkpt><trkpt lat="42.13142568701345" lon="11.821152415499524"><ele>123.0</ele><time>2026-04-24T16:54:56.999Z</time></trkpt><trkpt lat="42.131240179929975" lon="11.821243707937663"><ele>122.66666666666666</ele><time>2026-04-24T16:54:57.999Z</time></trkpt><trkpt lat="42.13105850406766" lon="11.821343083814467"><ele>122.33333333333333</ele><time>2026-04-24T16:54:58.999Z</time></trkpt><trkpt lat="42.13087226074514" lon="11.8214417027787"><ele>122.0</ele><time>2026-04-24T16:54:59.999Z</time></trkpt><trkpt lat="42.13068263467158" lon="11.821533906382843"><ele>122.0</ele><time>2026-04-24T16:55:00.999Z</time></trkpt><trkpt lat="42.13049309039664" lon="11.821633904756029"><ele>122.0</ele><time>2026-04-24T16:55:01.999Z</time></trkpt><trkpt lat="42.13030960533323" lon="11.821742657364581"><ele>122.0</ele><time>2026-04-24T16:55:03Z</time></trkpt><trkpt lat="42.130117456580294" lon="11.82185256758473"><ele>118.0</ele><time>2026-04-24T16:55:04Z</time></trkpt><trkpt lat="42.12992171838485" lon="11.82195104060542"><ele>114.0</ele><time>2026-04-24T16:55:05Z</time></trkpt><trkpt lat="42.129735386851465" lon="11.822045971527503"><ele>110.0</ele><time>2026-04-24T16:55:06Z</time></trkpt><trkpt lat="42.12955085960037" lon="11.822146933051568"><ele>109.66666666666666</ele><time>2026-04-24T16:55:07Z</time></trkpt><trkpt lat="42.129362614178966" lon="11.822251257386714"><ele>109.33333333333334</ele><time>2026-04-24T16:55:08Z</time></trkpt><trkpt lat="42.129174312878526" lon="11.822350284692268"><ele>109.0</ele><time>2026-04-24T16:55:09Z</time></trkpt><trkpt lat="42.128981851393654" lon="11.822454465644578"><ele>109.66666666666667</ele><time>2026-04-24T16:55:10Z</time></trkpt><trkpt lat="42.12879497201317" lon="11.822563351594622"><ele>110.33333333333334</ele><time>2026-04-24T16:55:11Z</time></trkpt><trkpt lat="42.128599773044414" lon="11.82266930828958"><ele>111.0</ele><time>2026-04-24T16:55:12Z</time></trkpt><trkpt lat="42.12840747261861" lon="11.822772020994403"><ele>107.0</ele><time>2026-04-24T16:55:13Z</time></trkpt><trkpt lat="42.1282156491321" lon="11.822871160171614"><ele>103.0</ele><time>2026-04-24T16:55:14Z</time></trkpt><trkpt lat="42.128025193656114" lon="11.82296706844343"><ele>99.0</ele><time>2026-04-24T16:55:15Z</time></trkpt><trkpt lat="42.12783772016164" lon="11.823064878435336"><ele>99.0</ele><time>2026-04-24T16:55:16Z</time></trkpt><trkpt lat="42.127652917565534" lon="11.823155445185435"><ele>99.0</ele><time>2026-04-24T16:55:17Z</time></trkpt><trkpt lat="42.127461599500066" lon="11.823243348725285"><ele>99.0</ele><time>2026-04-24T16:55:18Z</time></trkpt><trkpt lat="42.127261107269376" lon="11.823321947646454"><ele>96.66666666666667</ele><time>2026-04-24T16:55:19Z</time></trkpt><trkpt lat="42.1270676133749" lon="11.823397336296495"><ele>94.33333333333334</ele><time>2026-04-24T16:55:20Z</time></trkpt><trkpt lat="42.12687179242371" lon="11.823468055967071"><ele>92.0</ele><time>2026-04-24T16:55:21Z</time></trkpt><trkpt lat="42.126678169765704" lon="11.823539357887011"><ele>94.66666666666667</ele><time>2026-04-24T16:55:22Z</time></trkpt><trkpt lat="42.12648704257484" lon="11.823603213711918"><ele>97.33333333333334</ele><time>2026-04-24T16:55:23Z</time></trkpt><trkpt lat="42.126296435549015" lon="11.823665568380617"><ele>100.0</ele><time>2026-04-24T16:55:24Z</time></trkpt><trkpt lat="42.1261041695978" lon="11.8237150719178"><ele>100.0</ele><time>2026-04-24T16:55:25Z</time></trkpt><trkpt lat="42.125905723956585" lon="11.823760337805325"><ele>100.0</ele><time>2026-04-24T16:55:26Z</time></trkpt><trkpt lat="42.125708813744076" lon="11.823794310825628"><ele>100.0</ele><time>2026-04-24T16:55:27Z</time></trkpt><trkpt lat="42.12551580551511" lon="11.8238238625148"><ele>101.66666666666667</ele><time>2026-04-24T16:55:28Z</time></trkpt><trkpt lat="42.12532341365131" lon="11.823860026137755"><ele>103.33333333333334</ele><time>2026-04-24T16:55:29Z</time></trkpt><trkpt lat="42.12513314901983" lon="11.823891478857298"><ele>105.0</ele><time>2026-04-24T16:55:30Z</time></trkpt><trkpt lat="42.12493901478679" lon="11.82390863364239"><ele>106.33333333333334</ele><time>2026-04-24T16:55:31Z</time></trkpt><trkpt lat="42.12474464830393" lon="11.823914977933383"><ele>107.66666666666667</ele><time>2026-04-24T16:55:32Z</time></trkpt><trkpt lat="42.124538517552864" lon="11.823918471839088"><ele>109.0</ele><time>2026-04-24T16:55:33Z</time></trkpt><trkpt lat="42.124324575153324" lon="11.82391615089665"><ele>109.0</ele><time>2026-04-24T16:55:34Z</time></trkpt><trkpt lat="42.124111299671796" lon="11.82390945668475"><ele>109.0</ele><time>2026-04-24T16:55:35Z</time></trkpt><trkpt lat="42.123882917959676" lon="11.823891061818502"><ele>109.0</ele><time>2026-04-24T16:55:36Z</time></trkpt><trkpt lat="42.12366404761496" lon="11.823871997119978"><ele>109.66666666666667</ele><time>2026-04-24T16:55:37Z</time></trkpt><trkpt lat="42.12344541893001" lon="11.823834002234314"><ele>110.33333333333334</ele><time>2026-04-24T16:55:38Z</time></trkpt><trkpt lat="42.12322946674183" lon="11.823786113838418"><ele>111.0</ele><time>2026-04-24T16:55:39Z</time></trkpt><trkpt lat="42.12301289352899" lon="11.823731094703469"><ele>112.33333333333334</ele><time>2026-04-24T16:55:40Z</time></trkpt><trkpt lat="42.122797840247905" lon="11.823673498675662"><ele>113.66666666666667</ele><time>2026-04-24T16:55:41Z</time></trkpt><trkpt lat="42.122579114620166" lon="11.82360882255901"><ele>115.0</ele><time>2026-04-24T16:55:42Z</time></trkpt><trkpt lat="42.12234775104559" lon="11.82354092095531"><ele>115.0</ele><time>2026-04-24T16:55:43Z</time></trkpt><trkpt lat="42.12210699910203" lon="11.823467512429678"><ele>115.0</ele><time>2026-04-24T16:55:44Z</time></trkpt><trkpt lat="42.12186278624961" lon="11.823392447851838"><ele>115.0</ele><time>2026-04-24T16:55:45Z</time></trkpt><trkpt lat="42.12164637982622" lon="11.823323529073654"><ele>115.0</ele><time>2026-04-24T16:55:46Z</time></trkpt><trkpt lat="42.121425958602366" lon="11.823254092967884"><ele>115.0</ele><time>2026-04-24T16:55:47Z</time></trkpt><trkpt lat="42.121207596957085" lon="11.823204729336059"><ele>116.0</ele><time>2026-04-24T16:55:48Z</time></trkpt><trkpt lat="42.120998127726054" lon="11.823139093681503"><ele>117.0</ele><time>2026-04-24T16:55:49Z</time></trkpt><trkpt lat="42.12078607338138" lon="11.823077144336219"><ele>118.0</ele><time>2026-04-24T16:55:50Z</time></trkpt><trkpt lat="42.12058359037565" lon="11.823012279682606"><ele>120.0</ele><time>2026-04-24T16:55:51Z</time></trkpt><trkpt lat="42.120383648418446" lon="11.822960861739048"><ele>122.0</ele><time>2026-04-24T16:55:52Z</time></trkpt><trkpt lat="42.120195963851344" lon="11.822911828216576"><ele>124.0</ele><time>2026-04-24T16:55:53Z</time></trkpt><trkpt lat="42.119997426087096" lon="11.822851241121116"><ele>124.66666666666667</ele><time>2026-04-24T16:55:54Z</time></trkpt><trkpt lat="42.11979771016169" lon="11.822797134435822"><ele>125.33333333333334</ele><time>2026-04-24T16:55:55Z</time></trkpt><trkpt lat="42.119603437146885" lon="11.82274166651745"><ele>126.0</ele><time>2026-04-24T16:55:56Z</time></trkpt><trkpt lat="42.11940720903203" lon="11.822706063977979"><ele>126.0</ele><time>2026-04-24T16:55:57Z</time></trkpt><trkpt lat="42.11921572668925" lon="11.822682624752568"><ele>126.0</ele><time>2026-04-24T16:55:58Z</time></trkpt><trkpt lat="42.11901528850001" lon="11.822669175381122"><ele>126.0</ele><time>2026-04-24T16:55:59Z</time></trkpt><trkpt lat="42.11882883403631" lon="11.822677298466331"><ele>129.0</ele><time>2026-04-24T16:56:00Z</time></trkpt><trkpt lat="42.11863247449829" lon="11.8226832087198"><ele>132.0</ele><time>2026-04-24T16:56:01Z</time></trkpt><trkpt lat="42.11844001643766" lon="11.822704586993414"><ele>135.0</ele><time>2026-04-24T16:56:02Z</time></trkpt><trkpt lat="42.118247639690644" lon="11.82273724895811"><ele>137.33333333333334</ele><time>2026-04-24T16:56:03Z</time></trkpt><trkpt lat="42.11805612041885" lon="11.822785501319386"><ele>139.66666666666669</ele><time>2026-04-24T16:56:04Z</time></trkpt><trkpt lat="42.11785473613206" lon="11.8228319623191"><ele>142.0</ele><time>2026-04-24T16:56:05Z</time></trkpt><trkpt lat="42.117661397508485" lon="11.822889772430688"><ele>142.0</ele><time>2026-04-24T16:56:06Z</time></trkpt><trkpt lat="42.11746734614445" lon="11.822959758375"><ele>142.0</ele><time>2026-04-24T16:56:07Z</time></trkpt><trkpt lat="42.11729011286138" lon="11.823043813649793"><ele>142.0</ele><time>2026-04-24T16:56:08Z</time></trkpt><trkpt lat="42.117106283244205" lon="11.823130000226772"><ele>141.66666666666669</ele><time>2026-04-24T16:56:09Z</time></trkpt><trkpt lat="42.11692369256006" lon="11.823241499492065"><ele>141.33333333333334</ele><time>2026-04-24T16:56:10Z</time></trkpt><trkpt lat="42.11674569806711" lon="11.82336047388"><ele>141.0</ele><time>2026-04-24T16:56:11Z</time></trkpt><trkpt lat="42.11656919315661" lon="11.823486244591775"><ele>139.33333333333334</ele><time>2026-04-24T16:56:12Z</time></trkpt><trkpt lat="42.116405862142415" lon="11.823623891780485"><ele>137.66666666666669</ele><time>2026-04-24T16:56:13Z</time></trkpt><trkpt lat="42.11624072457774" lon="11.823765680591272"><ele>136.0</ele><time>2026-04-24T16:56:14Z</time></trkpt><trkpt lat="42.116087584593444" lon="11.823928907214864"><ele>136.0</ele><time>2026-04-24T16:56:15Z</time></trkpt><trkpt lat="42.11592248767565" lon="11.824087102080844"><ele>136.0</ele><time>2026-04-24T16:56:16Z</time></trkpt><trkpt lat="42.11576983673452" lon="11.824258559469635"><ele>136.0</ele><time>2026-04-24T16:56:17Z</time></trkpt><trkpt lat="42.11563845267594" lon="11.824464657300972"><ele>134.5</ele><time>2026-04-24T16:56:18Z</time></trkpt><trkpt lat="42.11546329248536" lon="11.82467455180741"><ele>133.0</ele><time>2026-04-24T16:56:19Z</time></trkpt><trkpt lat="42.11531034015822" lon="11.824887191484258"><ele>133.0</ele><time>2026-04-24T16:56:20Z</time></trkpt><trkpt lat="42.11516060796867" lon="11.825092540725656"><ele>133.0</ele><time>2026-04-24T16:56:21Z</time></trkpt><trkpt lat="42.115012785245" lon="11.825307068706863"><ele>133.0</ele><time>2026-04-24T16:56:22Z</time></trkpt><trkpt lat="42.11487500204886" lon="11.825499470730534"><ele>132.33333333333334</ele><time>2026-04-24T16:56:23Z</time></trkpt><trkpt lat="42.11474403579294" lon="11.82569188365083"><ele>131.66666666666666</ele><time>2026-04-24T16:56:24Z</time></trkpt><trkpt lat="42.114622202588336" lon="11.82587881446858"><ele>131.0</ele><time>2026-04-24T16:56:25Z</time></trkpt><trkpt lat="42.11449010523329" lon="11.826063259558458"><ele>133.0</ele><time>2026-04-24T16:56:26Z</time></trkpt><trkpt lat="42.11436435626947" lon="11.82624694937103"><ele>135.0</ele><time>2026-04-24T16:56:27Z</time></trkpt><trkpt lat="42.11424397929652" lon="11.826417875547708"><ele>137.0</ele><time>2026-04-24T16:56:28Z</time></trkpt><trkpt lat="42.114122146340215" lon="11.826580195594415"><ele>136.33333333333331</ele><time>2026-04-24T16:56:29Z</time></trkpt><trkpt lat="42.11398581048445" lon="11.826742576523467"><ele>135.66666666666666</ele><time>2026-04-24T16:56:30Z</time></trkpt><trkpt lat="42.11384694276512" lon="11.826900746019959"><ele>135.0</ele><time>2026-04-24T16:56:31Z</time></trkpt><trkpt lat="42.113700095940786" lon="11.827043020366473"><ele>135.0</ele><time>2026-04-24T16:56:32Z</time></trkpt><trkpt lat="42.1135490262917" lon="11.827172159465427"><ele>135.0</ele><time>2026-04-24T16:56:33Z</time></trkpt><trkpt lat="42.11340003886837" lon="11.827286144614591"><ele>135.0</ele><time>2026-04-24T16:56:34Z</time></trkpt><trkpt lat="42.11323394200945" lon="11.82740493677107"><ele>136.0</ele><time>2026-04-24T16:56:35Z</time></trkpt><trkpt lat="42.11307511684894" lon="11.82751393318823"><ele>137.0</ele><time>2026-04-24T16:56:36Z</time></trkpt><trkpt lat="42.11292646754501" lon="11.827585649618957"><ele>138.0</ele><time>2026-04-24T16:56:37Z</time></trkpt><trkpt lat="42.11276578412664" lon="11.82766742046939"><ele>138.33333333333334</ele><time>2026-04-24T16:56:38Z</time></trkpt><trkpt lat="42.11260086807245" lon="11.827728505701876"><ele>138.66666666666669</ele><time>2026-04-24T16:56:39Z</time></trkpt><trkpt lat="42.11243057614619" lon="11.827782566273033"><ele>139.0</ele><time>2026-04-24T16:56:40Z</time></trkpt><trkpt lat="42.11226212150065" lon="11.82781603977503"><ele>140.66666666666669</ele><time>2026-04-24T16:56:41Z</time></trkpt><trkpt lat="42.112094764997586" lon="11.827838708949516"><ele>142.33333333333334</ele><time>2026-04-24T16:56:42Z</time></trkpt><trkpt lat="42.11194011823278" lon="11.82784754857968"><ele>144.0</ele><time>2026-04-24T16:56:43Z</time></trkpt><trkpt lat="42.11178825935931" lon="11.827862657354785"><ele>144.0</ele><time>2026-04-24T16:56:44Z</time></trkpt><trkpt lat="42.111615452775446" lon="11.827866877639797"><ele>144.0</ele><time>2026-04-24T16:56:45Z</time></trkpt><trkpt lat="42.11142757853701" lon="11.827853131796589"><ele>144.0</ele><time>2026-04-24T16:56:46Z</time></trkpt><trkpt lat="42.11123868549837" lon="11.827831571065897"><ele>146.66666666666666</ele><time>2026-04-24T16:56:46.999Z</time></trkpt><trkpt lat="42.11106891679726" lon="11.827802317106114"><ele>149.33333333333331</ele><time>2026-04-24T16:56:47.999Z</time></trkpt><trkpt lat="42.110911651197185" lon="11.827756106500498"><ele>152.0</ele><time>2026-04-24T16:56:48.999Z</time></trkpt><trkpt lat="42.11073535877322" lon="11.827695371011355"><ele>154.33333333333331</ele><time>2026-04-24T16:56:49.999Z</time></trkpt><trkpt lat="42.110558701868214" lon="11.827621219553443"><ele>156.66666666666666</ele><time>2026-04-24T16:56:50.999Z</time></trkpt><trkpt lat="42.11039349436324" lon="11.827549153053745"><ele>159.0</ele><time>2026-04-24T16:56:51.999Z</time></trkpt><trkpt lat="42.11022941940607" lon="11.827483705547067"><ele>159.0</ele><time>2026-04-24T16:56:52.999Z</time></trkpt><trkpt lat="42.1100688297636" lon="11.827417220004993"><ele>159.0</ele><time>2026-04-24T16:56:53.999Z</time></trkpt><trkpt lat="42.10991021467026" lon="11.827356222573195"><ele>159.0</ele><time>2026-04-24T16:56:54.999Z</time></trkpt><trkpt lat="42.1097576146405" lon="11.82727618159227"><ele>159.0</ele><time>2026-04-24T16:56:55.999Z</time></trkpt><trkpt lat="42.10960831839321" lon="11.827218797261056"><ele>159.0</ele><time>2026-04-24T16:56:56.999Z</time></trkpt><trkpt lat="42.10947231375001" lon="11.827153583180689"><ele>159.0</ele><time>2026-04-24T16:56:57.999Z</time></trkpt><trkpt lat="42.10934241915315" lon="11.8270811223392"><ele>159.0</ele><time>2026-04-24T16:56:58.999Z</time></trkpt><trkpt lat="42.10919867255353" lon="11.826997971063022"><ele>159.0</ele><time>2026-04-24T16:56:59.999Z</time></trkpt><trkpt lat="42.10907263655853" lon="11.826919993336704"><ele>159.0</ele><time>2026-04-24T16:57:00.999Z</time></trkpt><trkpt lat="42.108955168034186" lon="11.826846697642365"><ele>159.0</ele><time>2026-04-24T16:57:01.999Z</time></trkpt><trkpt lat="42.10882983886669" lon="11.826750978102785"><ele>159.0</ele><time>2026-04-24T16:57:02.999Z</time></trkpt><trkpt lat="42.108710763595276" lon="11.826651740921024"><ele>158.75</ele><time>2026-04-24T16:57:03.999Z</time></trkpt><trkpt lat="42.108606646054696" lon="11.826562607725307"><ele>158.5</ele><time>2026-04-24T16:57:04.999Z</time></trkpt><trkpt lat="42.10850765549236" lon="11.826459779822194"><ele>158.25</ele><time>2026-04-24T16:57:05.999Z</time></trkpt><trkpt lat="42.10838961589759" lon="11.826330191206356"><ele>158.0</ele><time>2026-04-24T16:57:06.999Z</time></trkpt><trkpt lat="42.10827384336586" lon="11.826191577371722"><ele>158.25</ele><time>2026-04-24T16:57:07.999Z</time></trkpt><trkpt lat="42.10816475448737" lon="11.826075588925145"><ele>158.5</ele><time>2026-04-24T16:57:09Z</time></trkpt><trkpt lat="42.10806610138671" lon="11.825936839831941"><ele>158.75</ele><time>2026-04-24T16:57:10Z</time></trkpt><trkpt lat="42.107965714035494" lon="11.825799935205401"><ele>159.0</ele><time>2026-04-24T16:57:11Z</time></trkpt><trkpt lat="42.10785629102892" lon="11.825667803761666"><ele>157.5</ele><time>2026-04-24T16:57:12Z</time></trkpt><trkpt lat="42.107748245923595" lon="11.82553868210781"><ele>156.0</ele><time>2026-04-24T16:57:13Z</time></trkpt><trkpt lat="42.107653983001185" lon="11.825418661476707"><ele>154.5</ele><time>2026-04-24T16:57:14Z</time></trkpt><trkpt lat="42.10755873715825" lon="11.825306498674365"><ele>153.0</ele><time>2026-04-24T16:57:15Z</time></trkpt><trkpt lat="42.107459919728825" lon="11.825201969563656"><ele>152.75</ele><time>2026-04-24T16:57:16Z</time></trkpt><trkpt lat="42.10734942489491" lon="11.825101689904244"><ele>152.5</ele><time>2026-04-24T16:57:17Z</time></trkpt><trkpt lat="42.10723146210871" lon="11.825013194378036"><ele>152.25</ele><time>2026-04-24T16:57:18Z</time></trkpt><trkpt lat="42.107112839505" lon="11.824920587152848"><ele>152.0</ele><time>2026-04-24T16:57:19Z</time></trkpt><trkpt lat="42.10700342212336" lon="11.824835802505035"><ele>152.0</ele><time>2026-04-24T16:57:20Z</time></trkpt><trkpt lat="42.10688788141367" lon="11.82475878777794"><ele>152.0</ele><time>2026-04-24T16:57:21Z</time></trkpt><trkpt lat="42.106775625036676" lon="11.824671607424092"><ele>152.0</ele><time>2026-04-24T16:57:22Z</time></trkpt><trkpt lat="42.10666421448361" lon="11.824594029568681"><ele>152.0</ele><time>2026-04-24T16:57:23Z</time></trkpt><trkpt lat="42.10655570908778" lon="11.824515386007102"><ele>151.79999999999998</ele><time>2026-04-24T16:57:24Z</time></trkpt><trkpt lat="42.10645985505817" lon="11.824441275524963"><ele>151.6</ele><time>2026-04-24T16:57:25Z</time></trkpt><trkpt lat="42.10637280903048" lon="11.824380140438057"><ele>151.39999999999998</ele><time>2026-04-24T16:57:26Z</time></trkpt><trkpt lat="42.10629636854529" lon="11.824322847081193"><ele>151.2</ele><time>2026-04-24T16:57:27Z</time></trkpt><trkpt lat="42.106229286089935" lon="11.824265273827425"><ele>151.0</ele><time>2026-04-24T16:57:28Z</time></trkpt><trkpt lat="42.10616344541734" lon="11.824209174958122"><ele>150.66666666666669</ele><time>2026-04-24T16:57:29Z</time></trkpt><trkpt lat="42.106092061633376" lon="11.824154286050186"><ele>150.33333333333334</ele><time>2026-04-24T16:57:30Z</time></trkpt><trkpt lat="42.106011777842035" lon="11.824102590112291"><ele>150.0</ele><time>2026-04-24T16:57:31Z</time></trkpt><trkpt lat="42.10593390729482" lon="11.824045111405042"><ele>149.66666666666666</ele><time>2026-04-24T16:57:32Z</time></trkpt><trkpt lat="42.105855733930895" lon="11.8239761470311"><ele>149.33333333333331</ele><time>2026-04-24T16:57:33Z</time></trkpt><trkpt lat="42.105781735035066" lon="11.823903683433436"><ele>149.0</ele><time>2026-04-24T16:57:34Z</time></trkpt><trkpt lat="42.10571088966391" lon="11.823829731788624"><ele>149.0</ele><time>2026-04-24T16:57:35Z</time></trkpt><trkpt lat="42.10563883789605" lon="11.823759928382357"><ele>149.0</ele><time>2026-04-24T16:57:36Z</time></trkpt><trkpt lat="42.105566781813785" lon="11.823700317398632"><ele>149.0</ele><time>2026-04-24T16:57:37Z</time></trkpt><trkpt lat="42.10549995296136" lon="11.823643597239114"><ele>149.0</ele><time>2026-04-24T16:57:38Z</time></trkpt><trkpt lat="42.10545062207872" lon="11.823590129788697"><ele>149.0</ele><time>2026-04-24T16:57:39Z</time></trkpt><trkpt lat="42.10538664533135" lon="11.82348404158724"><ele>149.0</ele><time>2026-04-24T16:57:41Z</time></trkpt><trkpt lat="42.105329725902806" lon="11.823368465022954"><ele>148.16666666666666</ele><time>2026-04-24T16:57:43Z</time></trkpt><trkpt lat="42.10530336943876" lon="11.823202044079578"><ele>147.33333333333331</ele><time>2026-04-24T16:57:45Z</time></trkpt><trkpt lat="42.105300826902116" lon="11.823100391071257"><ele>146.5</ele><time>2026-04-24T16:57:46Z</time></trkpt><trkpt lat="42.105308326334345" lon="11.823003607136272"><ele>145.66666666666666</ele><time>2026-04-24T16:57:47Z</time></trkpt><trkpt lat="42.1053178316575" lon="11.822918114250106"><ele>144.83333333333334</ele><time>2026-04-24T16:57:48Z</time></trkpt><trkpt lat="42.105318413330274" lon="11.82279778827842"><ele>144.0</ele><time>2026-04-24T16:57:50Z</time></trkpt><trkpt lat="42.10532075819186" lon="11.822711662914761"><ele>144.0</ele><time>2026-04-24T16:57:53Z</time></trkpt><trkpt lat="42.105189526315826" lon="11.822708806057308"><ele>144.0</ele><time>2026-04-24T16:57:54Z</time></trkpt><trkpt lat="42.10512692516736" lon="11.822742417486852"><ele>144.0</ele><time>2026-04-24T16:57:55Z</time></trkpt><trkpt lat="42.10503685691809" lon="11.822770634327801"><ele>144.0</ele><time>2026-04-24T16:57:56Z</time></trkpt><trkpt lat="42.10492711188156" lon="11.82280515882231"><ele>144.0</ele><time>2026-04-24T16:57:57Z</time></trkpt><trkpt lat="42.10480138663938" lon="11.822860401020012"><ele>143.75</ele><time>2026-04-24T16:57:58Z</time></trkpt><trkpt lat="42.10466977092218" lon="11.822915526245733"><ele>143.5</ele><time>2026-04-24T16:57:59Z</time></trkpt><trkpt lat="42.104552854846425" lon="11.82297141460599"><ele>143.25</ele><time>2026-04-24T16:58:00Z</time></trkpt><trkpt lat="42.10440490521404" lon="11.823043164279774"><ele>143.0</ele><time>2026-04-24T16:58:01Z</time></trkpt><trkpt lat="42.10426824177799" lon="11.823106842331123"><ele>143.0</ele><time>2026-04-24T16:58:02Z</time></trkpt><trkpt lat="42.10413151417386" lon="11.823164002642487"><ele>143.0</ele><time>2026-04-24T16:58:03Z</time></trkpt><trkpt lat="42.104010747570356" lon="11.823221730272287"><ele>143.0</ele><time>2026-04-24T16:58:04Z</time></trkpt><trkpt lat="42.10389965363968" lon="11.823264367958966"><ele>143.0</ele><time>2026-04-24T16:58:05Z</time></trkpt><trkpt lat="42.103792494817135" lon="11.823323349196354"><ele>143.0</ele><time>2026-04-24T16:58:06Z</time></trkpt><trkpt lat="42.10368132865245" lon="11.823381801063375"><ele>143.0</ele><time>2026-04-24T16:58:07Z</time></trkpt><trkpt lat="42.10358329571472" lon="11.82343707026062"><ele>143.0</ele><time>2026-04-24T16:58:08Z</time></trkpt><trkpt lat="42.10347966477239" lon="11.823483388544876"><ele>143.0</ele><time>2026-04-24T16:58:09Z</time></trkpt><trkpt lat="42.10337581992491" lon="11.823524843070949"><ele>143.0</ele><time>2026-04-24T16:58:10Z</time></trkpt><trkpt lat="42.1032842252014" lon="11.823562920619693"><ele>144.0</ele><time>2026-04-24T16:58:11Z</time></trkpt><trkpt lat="42.103186653108" lon="11.823579648492792"><ele>145.0</ele><time>2026-04-24T16:58:12Z</time></trkpt><trkpt lat="42.1030985323611" lon="11.823596662853571"><ele>146.0</ele><time>2026-04-24T16:58:13Z</time></trkpt><trkpt lat="42.103011064780915" lon="11.823612184689715"><ele>147.0</ele><time>2026-04-24T16:58:14Z</time></trkpt><trkpt lat="42.10293175919675" lon="11.823609490424797"><ele>148.0</ele><time>2026-04-24T16:58:15Z</time></trkpt><trkpt lat="42.10284947204723" lon="11.823587964586883"><ele>149.0</ele><time>2026-04-24T16:58:16Z</time></trkpt><trkpt lat="42.102773899791785" lon="11.823563255714935"><ele>149.0</ele><time>2026-04-24T16:58:17Z</time></trkpt><trkpt lat="42.10270373638105" lon="11.823529564797283"><ele>149.0</ele><time>2026-04-24T16:58:18Z</time></trkpt><trkpt lat="42.10264268416016" lon="11.82349846020981"><ele>149.0</ele><time>2026-04-24T16:58:19Z</time></trkpt><trkpt lat="42.10256247154754" lon="11.823381960800539"><ele>149.0</ele><time>2026-04-24T16:58:21Z</time></trkpt><trkpt lat="42.10253446145215" lon="11.823291034627395"><ele>149.0</ele><time>2026-04-24T16:58:22Z</time></trkpt><trkpt lat="42.102538941064594" lon="11.823084348259417"><ele>148.0</ele><time>2026-04-24T16:58:24Z</time></trkpt><trkpt lat="42.10253737312639" lon="11.8229533353981"><ele>147.0</ele><time>2026-04-24T16:58:25Z</time></trkpt><trkpt lat="42.102534805593216" lon="11.822841981350246"><ele>146.0</ele><time>2026-04-24T16:58:26Z</time></trkpt><trkpt lat="42.10251928536009" lon="11.822702145210464"><ele>145.0</ele><time>2026-04-24T16:58:27Z</time></trkpt><trkpt lat="42.10248778667592" lon="11.8225660107119"><ele>144.0</ele><time>2026-04-24T16:58:28Z</time></trkpt><trkpt lat="42.10244345627492" lon="11.822405119511826"><ele>143.2</ele><time>2026-04-24T16:58:29Z</time></trkpt><trkpt lat="42.10240053079389" lon="11.822272318450326"><ele>142.4</ele><time>2026-04-24T16:58:30Z</time></trkpt><trkpt lat="42.1023593147368" lon="11.822150799442799"><ele>141.6</ele><time>2026-04-24T16:58:31Z</time></trkpt><trkpt lat="42.10234561515216" lon="11.82201766689958"><ele>140.8</ele><time>2026-04-24T16:58:32Z</time></trkpt><trkpt lat="42.10231767893656" lon="11.821903935949717"><ele>140.0</ele><time>2026-04-24T16:58:33Z</time></trkpt><trkpt lat="42.102289927781385" lon="11.82180928770493"><ele>139.25</ele><time>2026-04-24T16:58:34Z</time></trkpt><trkpt lat="42.10226586020632" lon="11.821714736076123"><ele>138.5</ele><time>2026-04-24T16:58:35Z</time></trkpt><trkpt lat="42.1021855588604" lon="11.821588708713934"><ele>137.75</ele><time>2026-04-24T16:58:37Z</time></trkpt><trkpt lat="42.102087754182755" lon="11.821478410895192"><ele>137.0</ele><time>2026-04-24T16:58:39Z</time></trkpt><trkpt lat="42.1019532864783" lon="11.82152696177379"><ele>137.0</ele><time>2026-04-24T16:58:40Z</time></trkpt><trkpt lat="42.101866968962966" lon="11.821491557285906"><ele>137.0</ele><time>2026-04-24T16:58:41Z</time></trkpt><trkpt lat="42.101775217205265" lon="11.82143422677612"><ele>137.0</ele><time>2026-04-24T16:58:42Z</time></trkpt><trkpt lat="42.10169642876133" lon="11.821383886486066"><ele>137.0</ele><time>2026-04-24T16:58:43Z</time></trkpt><trkpt lat="42.10160368802931" lon="11.821382213776971"><ele>137.0</ele><time>2026-04-24T16:58:44Z</time></trkpt><trkpt lat="42.10152574804538" lon="11.821339581868202"><ele>136.83333333333331</ele><time>2026-04-24T16:58:45Z</time></trkpt><trkpt lat="42.10141654071806" lon="11.821322207822325"><ele>136.66666666666666</ele><time>2026-04-24T16:58:46Z</time></trkpt><trkpt lat="42.10133539523553" lon="11.821318518609143"><ele>136.5</ele><time>2026-04-24T16:58:47Z</time></trkpt><trkpt lat="42.101256618230906" lon="11.821314607559664"><ele>136.33333333333334</ele><time>2026-04-24T16:58:48Z</time></trkpt><trkpt lat="42.10118626041731" lon="11.821307829345288"><ele>136.16666666666669</ele><time>2026-04-24T16:58:49Z</time></trkpt><trkpt lat="42.101104443871705" lon="11.82129790967897"><ele>136.0</ele><time>2026-04-24T16:58:50Z</time></trkpt><trkpt lat="42.10102112615776" lon="11.82128840447185"><ele>136.0</ele><time>2026-04-24T16:58:51Z</time></trkpt><trkpt lat="42.100924541422515" lon="11.821219329750374"><ele>136.0</ele><time>2026-04-24T16:58:52Z</time></trkpt><trkpt lat="42.10083434374" lon="11.821167098052598"><ele>136.0</ele><time>2026-04-24T16:58:53Z</time></trkpt><trkpt lat="42.10076228085737" lon="11.82106162579586"><ele>136.0</ele><time>2026-04-24T16:58:55Z</time></trkpt><trkpt lat="42.10067216207063" lon="11.820970099411108"><ele>136.0</ele><time>2026-04-24T16:58:57.999Z</time></trkpt><trkpt lat="42.100611328433054" lon="11.820914256760172"><ele>135.4</ele><time>2026-04-24T16:58:58.999Z</time></trkpt><trkpt lat="42.100534099778244" lon="11.82084067523449"><ele>134.8</ele><time>2026-04-24T16:58:59.999Z</time></trkpt><trkpt lat="42.100468576522566" lon="11.820737810944545"><ele>134.20000000000002</ele><time>2026-04-24T16:59:00.999Z</time></trkpt><trkpt lat="42.10039418983952" lon="11.820652487987791"><ele>133.6</ele><time>2026-04-24T16:59:01.999Z</time></trkpt><trkpt lat="42.10031226245199" lon="11.82060954308247"><ele>133.0</ele><time>2026-04-24T16:59:02.999Z</time></trkpt><trkpt lat="42.10020783853658" lon="11.820544398787414"><ele>133.0</ele><time>2026-04-24T16:59:04.999Z</time></trkpt><trkpt lat="42.10014843803643" lon="11.820492890841335"><ele>133.0</ele><time>2026-04-24T16:59:07.999Z</time></trkpt><trkpt lat="42.1000818319988" lon="11.820432393107144"><ele>133.0</ele><time>2026-04-24T16:59:09.999Z</time></trkpt><trkpt lat="42.10002384249411" lon="11.820371608810705"><ele>133.0</ele><time>2026-04-24T16:59:10.999Z</time></trkpt><trkpt lat="42.09997969524808" lon="11.820310057815162"><ele>133.0</ele><time>2026-04-24T16:59:11.999Z</time></trkpt><trkpt lat="42.099904683596066" lon="11.820176446864584"><ele>133.0</ele><time>2026-04-24T16:59:13.999Z</time></trkpt><trkpt lat="42.099851096802844" lon="11.82006199613238"><ele>131.5</ele><time>2026-04-24T16:59:16Z</time></trkpt><trkpt lat="42.09981689819277" lon="11.819986781680752"><ele>130.0</ele><time>2026-04-24T16:59:18Z</time></trkpt><trkpt lat="42.09963700820464" lon="11.82008201087344"><ele>128.5</ele><time>2026-04-24T16:59:20Z</time></trkpt><trkpt lat="42.09957039151775" lon="11.820165536676793"><ele>127.0</ele><time>2026-04-24T16:59:21Z</time></trkpt><trkpt lat="42.09948621020103" lon="11.820285697536997"><ele>127.0</ele><time>2026-04-24T16:59:22Z</time></trkpt><trkpt lat="42.0993996279148" lon="11.820395889619347"><ele>127.0</ele><time>2026-04-24T16:59:23Z</time></trkpt><trkpt lat="42.099347559724556" lon="11.820532866151847"><ele>127.0</ele><time>2026-04-24T16:59:24Z</time></trkpt><trkpt lat="42.099289347551114" lon="11.820691539627994"><ele>127.0</ele><time>2026-04-24T16:59:25Z</time></trkpt><trkpt lat="42.09923750446667" lon="11.820846971790866"><ele>127.0</ele><time>2026-04-24T16:59:26Z</time></trkpt><trkpt lat="42.09919156128697" lon="11.82097343432327"><ele>126.99999999999999</ele><time>2026-04-24T16:59:27Z</time></trkpt><trkpt lat="42.09914637362357" lon="11.821092570065037"><ele>126.99999999999999</ele><time>2026-04-24T16:59:28Z</time></trkpt><trkpt lat="42.099110613393506" lon="11.82120814731869"><ele>127.0</ele><time>2026-04-24T16:59:29Z</time></trkpt><trkpt lat="42.09907384928279" lon="11.821311103002976"><ele>127.0</ele><time>2026-04-24T16:59:30Z</time></trkpt><trkpt lat="42.09903090938118" lon="11.821407227914158"><ele>127.33333333333334</ele><time>2026-04-24T16:59:31Z</time></trkpt><trkpt lat="42.09897668404387" lon="11.821474247351778"><ele>127.66666666666667</ele><time>2026-04-24T16:59:32Z</time></trkpt><trkpt lat="42.09891042548657" lon="11.821523749689518"><ele>128.0</ele><time>2026-04-24T16:59:33Z</time></trkpt><trkpt lat="42.09884047945037" lon="11.821556230102097"><ele>128.33333333333334</ele><time>2026-04-24T16:59:34Z</time></trkpt><trkpt lat="42.09876541344253" lon="11.821559902888785"><ele>128.66666666666666</ele><time>2026-04-24T16:59:35Z</time></trkpt><trkpt lat="42.09869013640574" lon="11.821540729606895"><ele>129.0</ele><time>2026-04-24T16:59:36Z</time></trkpt><trkpt lat="42.098604721138756" lon="11.821488299181878"><ele>129.0</ele><time>2026-04-24T16:59:37Z</time></trkpt><trkpt lat="42.09853027646452" lon="11.82139841812038"><ele>129.0</ele><time>2026-04-24T16:59:38Z</time></trkpt><trkpt lat="42.09844007185073" lon="11.821315082251482"><ele>129.0</ele><time>2026-04-24T16:59:39Z</time></trkpt><trkpt lat="42.09836001964937" lon="11.821203614947644"><ele>129.0</ele><time>2026-04-24T16:59:40Z</time></trkpt><trkpt lat="42.09829879396358" lon="11.821126719532716"><ele>129.0</ele><time>2026-04-24T16:59:41Z</time></trkpt><trkpt lat="42.09824383610241" lon="11.821060814256612"><ele>129.4</ele><time>2026-04-24T16:59:42Z</time></trkpt><trkpt lat="42.098189071061114" lon="11.820997114033815"><ele>129.8</ele><time>2026-04-24T16:59:43Z</time></trkpt><trkpt lat="42.09804439933067" lon="11.821092004700825"><ele>130.2</ele><time>2026-04-24T16:59:46Z</time></trkpt><trkpt lat="42.097972681395085" lon="11.821182043749241"><ele>130.6</ele><time>2026-04-24T16:59:47Z</time></trkpt><trkpt lat="42.09789992699398" lon="11.82128995794915"><ele>131.0</ele><time>2026-04-24T16:59:48Z</time></trkpt><trkpt lat="42.09781769014176" lon="11.821401056457823"><ele>131.0</ele><time>2026-04-24T16:59:49Z</time></trkpt><trkpt lat="42.097741712634985" lon="11.821497391628373"><ele>131.0</ele><time>2026-04-24T16:59:50Z</time></trkpt><trkpt lat="42.09767285920688" lon="11.821586977054423"><ele>131.0</ele><time>2026-04-24T16:59:51Z</time></trkpt><trkpt lat="42.09762154731859" lon="11.821698742790671"><ele>131.0</ele><time>2026-04-24T16:59:52Z</time></trkpt><trkpt lat="42.09755156056421" lon="11.82179878756456"><ele>131.0</ele><time>2026-04-24T16:59:53Z</time></trkpt><trkpt lat="42.097491342674324" lon="11.82189225186907"><ele>131.2</ele><time>2026-04-24T16:59:54Z</time></trkpt><trkpt lat="42.09744206826421" lon="11.821990305842013"><ele>131.39999999999998</ele><time>2026-04-24T16:59:55Z</time></trkpt><trkpt lat="42.09735360933611" lon="11.822119050284005"><ele>131.6</ele><time>2026-04-24T16:59:56Z</time></trkpt><trkpt lat="42.09727595289778" lon="11.822232439704381"><ele>131.79999999999998</ele><time>2026-04-24T16:59:57Z</time></trkpt><trkpt lat="42.09721956064812" lon="11.822335128540157"><ele>132.0</ele><time>2026-04-24T16:59:58Z</time></trkpt><trkpt lat="42.09715039320644" lon="11.82244276818936"><ele>132.2</ele><time>2026-04-24T16:59:59Z</time></trkpt><trkpt lat="42.09707841890633" lon="11.822508970619111"><ele>132.39999999999998</ele><time>2026-04-24T17:00:00Z</time></trkpt><trkpt lat="42.09700298390592" lon="11.822551678177662"><ele>132.60000000000002</ele><time>2026-04-24T17:00:01Z</time></trkpt><trkpt lat="42.0969261116759" lon="11.822564770143227"><ele>132.8</ele><time>2026-04-24T17:00:02Z</time></trkpt><trkpt lat="42.09685656200184" lon="11.822566371737775"><ele>133.0</ele><time>2026-04-24T17:00:03Z</time></trkpt><trkpt lat="42.096723156865124" lon="11.822512011420864"><ele>133.0</ele><time>2026-04-24T17:00:05Z</time></trkpt><trkpt lat="42.09664426097977" lon="11.822448844008903"><ele>133.0</ele><time>2026-04-24T17:00:06Z</time></trkpt><trkpt lat="42.09655826664671" lon="11.822361730152277"><ele>133.0</ele><time>2026-04-24T17:00:07Z</time></trkpt><trkpt lat="42.09647697422075" lon="11.822251145370785"><ele>133.0</ele><time>2026-04-24T17:00:08Z</time></trkpt><trkpt lat="42.096396930383634" lon="11.822162547485012"><ele>133.0</ele><time>2026-04-24T17:00:09Z</time></trkpt><trkpt lat="42.09633829081952" lon="11.822096177405404"><ele>132.4</ele><time>2026-04-24T17:00:10Z</time></trkpt><trkpt lat="42.09625374659069" lon="11.82200728401997"><ele>131.8</ele><time>2026-04-24T17:00:11Z</time></trkpt><trkpt lat="42.096186455100494" lon="11.821935285002517"><ele>131.2</ele><time>2026-04-24T17:00:12Z</time></trkpt><trkpt lat="42.09613700305181" lon="11.821861242571313"><ele>130.6</ele><time>2026-04-24T17:00:13Z</time></trkpt><trkpt lat="42.096076465493276" lon="11.821801976624107"><ele>130.0</ele><time>2026-04-24T17:00:14Z</time></trkpt><trkpt lat="42.09596463987511" lon="11.821768977384503"><ele>129.0</ele><time>2026-04-24T17:00:16Z</time></trkpt><trkpt lat="42.095898754790184" lon="11.821709329588579"><ele>128.0</ele><time>2026-04-24T17:00:17Z</time></trkpt><trkpt lat="42.0958046943045" lon="11.821714731428193"><ele>127.0</ele><time>2026-04-24T17:00:19Z</time></trkpt><trkpt lat="42.095728185032605" lon="11.82190945016047"><ele>126.0</ele><time>2026-04-24T17:00:22Z</time></trkpt><trkpt lat="42.095732867250334" lon="11.822106355130453"><ele>125.4</ele><time>2026-04-24T17:00:24Z</time></trkpt><trkpt lat="42.09575067809262" lon="11.822224325484596"><ele>124.8</ele><time>2026-04-24T17:00:25Z</time></trkpt><trkpt lat="42.09576770104299" lon="11.822326366466502"><ele>124.20000000000002</ele><time>2026-04-24T17:00:26Z</time></trkpt><trkpt lat="42.0958155754677" lon="11.8224705324598"><ele>123.60000000000001</ele><time>2026-04-24T17:00:28Z</time></trkpt><trkpt lat="42.095885168606365" lon="11.822567916261912"><ele>123.0</ele><time>2026-04-24T17:00:30Z</time></trkpt><trkpt lat="42.09593901343869" lon="11.822630999496337"><ele>124.4</ele><time>2026-04-24T17:00:32Z</time></trkpt><trkpt lat="42.09588376437213" lon="11.822566271629755"><ele>125.80000000000001</ele><time>2026-04-24T17:00:43Z</time></trkpt><trkpt lat="42.09580868916135" lon="11.822460923672965"><ele>127.2</ele><time>2026-04-24T17:00:46Z</time></trkpt><trkpt lat="42.095774908940605" lon="11.822367469359815"><ele>128.6</ele><time>2026-04-24T17:00:49Z</time></trkpt><trkpt lat="42.09575908306624" lon="11.822279994003306"><ele>130.0</ele><time>2026-04-24T17:01:01.999Z</time></trkpt><trkpt lat="42.095907939394195" lon="11.82221083168723"><ele>130.0</ele><time>2026-04-24T17:01:06.999Z</time></trkpt><trkpt lat="42.09598706659004" lon="11.822186703668914"><ele>130.0</ele><time>2026-04-24T17:02:44Z</time></trkpt><trkpt lat="42.09613678032747" lon="11.822141390215997"><ele>130.0</ele><time>2026-04-24T17:04:00.753Z</time></trkpt><trkpt lat="42.096205940675645" lon="11.8221300003496"><ele>130.0</ele><time>2026-04-24T17:04:06.763Z</time></trkpt><trkpt lat="42.09611926176616" lon="11.822159097695351"><ele>130.0</ele><time>2026-04-24T17:04:17.832Z</time></trkpt><trkpt lat="42.096087375856946" lon="11.822247725428284"><ele>130.0</ele><time>2026-04-24T17:04:18.818Z</time></trkpt></trkseg></trk></gpx>